<?xml version="1.0" encoding="UTF-8" standalone="no" ?>
<gpx xmlns="http://www.topografix.com/GPX/1/1" xmlns:xsi="http://www.w3.org/2001/XMLSchema-instance" xsi:schemaLocation="http://www.topografix.com/GPX/1/1 http://www.topografix.com/GPX/1/1/gpx.xsd" version="1.1" creator="VisuGPX - https://www.visugpx.com">
  <metadata>
    <name>Terril d'Abbaretz </name>
    <desc><![CDATA[Départ du bac du Pellerin pour rejoindre la forêt du Gavre en passant par la ZAD puis direction Abbaretz pour finir la boucle par la velodyssée.
Terrains variés, certaines portions peuvent être bien grasses dans la première partie.]]></desc>
  </metadata>
  <trk>
    <name><![CDATA[Terril d'Abbaretz _1]]></name>
    <trkseg>
      <trkpt lat="47.20586" lon="-1.75174">
        <ele>-8</ele>
        <time>2022-04-02T05:24:08Z</time>
      </trkpt>
      <trkpt lat="47.20592" lon="-1.7516">
        <ele>-7.6</ele>
        <time>2022-04-02T05:24:13Z</time>
      </trkpt>
      <trkpt lat="47.20606" lon="-1.75147">
        <ele>-7.2</ele>
        <time>2022-04-02T05:24:18Z</time>
      </trkpt>
      <trkpt lat="47.20612" lon="-1.75129">
        <ele>-7</ele>
        <time>2022-04-02T05:24:22Z</time>
      </trkpt>
      <trkpt lat="47.20614" lon="-1.75125">
        <ele>-6.8</ele>
        <time>2022-04-02T05:24:24Z</time>
      </trkpt>
      <trkpt lat="47.20615" lon="-1.7512">
        <ele>-6.6</ele>
        <time>2022-04-02T05:24:26Z</time>
      </trkpt>
      <trkpt lat="47.20621" lon="-1.751">
        <ele>-5.8</ele>
        <time>2022-04-02T05:24:34Z</time>
      </trkpt>
      <trkpt lat="47.20631" lon="-1.75073">
        <ele>-5</ele>
        <time>2022-04-02T05:24:43Z</time>
      </trkpt>
      <trkpt lat="47.20633" lon="-1.75067">
        <ele>-5</ele>
        <time>2022-04-02T05:24:45Z</time>
      </trkpt>
      <trkpt lat="47.20636" lon="-1.75055">
        <ele>-4.6</ele>
        <time>2022-04-02T05:24:49Z</time>
      </trkpt>
      <trkpt lat="47.20645" lon="-1.75034">
        <ele>-4</ele>
        <time>2022-04-02T05:24:56Z</time>
      </trkpt>
      <trkpt lat="47.20649" lon="-1.75025">
        <ele>-3.8</ele>
        <time>2022-04-02T05:24:59Z</time>
      </trkpt>
      <trkpt lat="47.20654" lon="-1.75026">
        <ele>-3.8</ele>
        <time>2022-04-02T05:25:01Z</time>
      </trkpt>
      <trkpt lat="47.20651" lon="-1.75037">
        <ele>-3.6</ele>
        <time>2022-04-02T05:25:04Z</time>
      </trkpt>
      <trkpt lat="47.20651" lon="-1.75041">
        <ele>-3.6</ele>
        <time>2022-04-02T05:25:05Z</time>
      </trkpt>
      <trkpt lat="47.2065" lon="-1.75044">
        <ele>-3.6</ele>
        <time>2022-04-02T05:25:06Z</time>
      </trkpt>
      <trkpt lat="47.20648" lon="-1.75044">
        <ele>-3.6</ele>
        <time>2022-04-02T05:25:08Z</time>
      </trkpt>
      <trkpt lat="47.20649" lon="-1.75031">
        <ele>-3.8</ele>
        <time>2022-04-02T05:25:12Z</time>
      </trkpt>
      <trkpt lat="47.20652" lon="-1.75018">
        <ele>-3.6</ele>
        <time>2022-04-02T05:25:16Z</time>
      </trkpt>
      <trkpt lat="47.20653" lon="-1.75011">
        <ele>-3.6</ele>
        <time>2022-04-02T05:25:18Z</time>
      </trkpt>
      <trkpt lat="47.20655" lon="-1.74993">
        <ele>-3.4</ele>
        <time>2022-04-02T05:25:23Z</time>
      </trkpt>
      <trkpt lat="47.20658" lon="-1.74984">
        <ele>-3.2</ele>
        <time>2022-04-02T05:25:26Z</time>
      </trkpt>
      <trkpt lat="47.20662" lon="-1.74979">
        <ele>-3</ele>
        <time>2022-04-02T05:25:28Z</time>
      </trkpt>
      <trkpt lat="47.20676" lon="-1.74971">
        <ele>-3</ele>
        <time>2022-04-02T05:25:32Z</time>
      </trkpt>
      <trkpt lat="47.20691" lon="-1.74965">
        <ele>-3</ele>
        <time>2022-04-02T05:25:36Z</time>
      </trkpt>
      <trkpt lat="47.20714" lon="-1.74955">
        <ele>-3</ele>
        <time>2022-04-02T05:25:42Z</time>
      </trkpt>
      <trkpt lat="47.20748" lon="-1.74944">
        <ele>-2.8</ele>
        <time>2022-04-02T05:25:50Z</time>
      </trkpt>
      <trkpt lat="47.20777" lon="-1.74932">
        <ele>-2.8</ele>
        <time>2022-04-02T05:25:57Z</time>
      </trkpt>
      <trkpt lat="47.20808" lon="-1.74921">
        <ele>-2.8</ele>
        <time>2022-04-02T05:26:04Z</time>
      </trkpt>
      <trkpt lat="47.20833" lon="-1.74911">
        <ele>-2.4</ele>
        <time>2022-04-02T05:26:10Z</time>
      </trkpt>
      <trkpt lat="47.20842" lon="-1.74908">
        <ele>-2.2</ele>
        <time>2022-04-02T05:26:12Z</time>
      </trkpt>
      <trkpt lat="47.20882" lon="-1.74894">
        <ele>-1.6</ele>
        <time>2022-04-02T05:26:21Z</time>
      </trkpt>
      <trkpt lat="47.2092" lon="-1.74879">
        <ele>-1.2</ele>
        <time>2022-04-02T05:26:29Z</time>
      </trkpt>
      <trkpt lat="47.20928" lon="-1.74872">
        <ele>-1</ele>
        <time>2022-04-02T05:26:31Z</time>
      </trkpt>
      <trkpt lat="47.20935" lon="-1.74862">
        <ele>-1</ele>
        <time>2022-04-02T05:26:33Z</time>
      </trkpt>
      <trkpt lat="47.20939" lon="-1.7485">
        <ele>-0.80000000000001</ele>
        <time>2022-04-02T05:26:35Z</time>
      </trkpt>
      <trkpt lat="47.20943" lon="-1.74837">
        <ele>-0.80000000000001</ele>
        <time>2022-04-02T05:26:37Z</time>
      </trkpt>
      <trkpt lat="47.20944" lon="-1.74831">
        <ele>-0.80000000000001</ele>
        <time>2022-04-02T05:26:38Z</time>
      </trkpt>
      <trkpt lat="47.20948" lon="-1.7481">
        <ele>-0.60000000000002</ele>
        <time>2022-04-02T05:26:41Z</time>
      </trkpt>
      <trkpt lat="47.20952" lon="-1.74782">
        <ele>-0.19999999999999</ele>
        <time>2022-04-02T05:26:45Z</time>
      </trkpt>
      <trkpt lat="47.20956" lon="-1.74748">
        <ele>0.19999999999999</ele>
        <time>2022-04-02T05:26:50Z</time>
      </trkpt>
      <trkpt lat="47.20956" lon="-1.74734">
        <ele>0.19999999999999</ele>
        <time>2022-04-02T05:26:52Z</time>
      </trkpt>
      <trkpt lat="47.20957" lon="-1.74726">
        <ele>0.39999999999998</ele>
        <time>2022-04-02T05:26:53Z</time>
      </trkpt>
      <trkpt lat="47.2096" lon="-1.7469">
        <ele>0.80000000000001</ele>
        <time>2022-04-02T05:26:58Z</time>
      </trkpt>
      <trkpt lat="47.2096" lon="-1.74683">
        <ele>0.80000000000001</ele>
        <time>2022-04-02T05:26:59Z</time>
      </trkpt>
      <trkpt lat="47.20962" lon="-1.74669">
        <ele>0.80000000000001</ele>
        <time>2022-04-02T05:27:01Z</time>
      </trkpt>
      <trkpt lat="47.20965" lon="-1.74648">
        <ele>1</ele>
        <time>2022-04-02T05:27:04Z</time>
      </trkpt>
      <trkpt lat="47.20965" lon="-1.74641">
        <ele>1</ele>
        <time>2022-04-02T05:27:05Z</time>
      </trkpt>
      <trkpt lat="47.20969" lon="-1.74591">
        <ele>1.2</ele>
        <time>2022-04-02T05:27:12Z</time>
      </trkpt>
      <trkpt lat="47.2097" lon="-1.74577">
        <ele>1.2</ele>
        <time>2022-04-02T05:27:14Z</time>
      </trkpt>
      <trkpt lat="47.2097" lon="-1.74569">
        <ele>1.2</ele>
        <time>2022-04-02T05:27:15Z</time>
      </trkpt>
      <trkpt lat="47.20971" lon="-1.74561">
        <ele>1.4</ele>
        <time>2022-04-02T05:27:16Z</time>
      </trkpt>
      <trkpt lat="47.20976" lon="-1.74537">
        <ele>1.4</ele>
        <time>2022-04-02T05:27:19Z</time>
      </trkpt>
      <trkpt lat="47.20979" lon="-1.74521">
        <ele>1.6</ele>
        <time>2022-04-02T05:27:21Z</time>
      </trkpt>
      <trkpt lat="47.20981" lon="-1.74505">
        <ele>1.6</ele>
        <time>2022-04-02T05:27:23Z</time>
      </trkpt>
      <trkpt lat="47.20983" lon="-1.74489">
        <ele>1.8</ele>
        <time>2022-04-02T05:27:25Z</time>
      </trkpt>
      <trkpt lat="47.20986" lon="-1.74451">
        <ele>1.6</ele>
        <time>2022-04-02T05:27:30Z</time>
      </trkpt>
      <trkpt lat="47.20987" lon="-1.74443">
        <ele>1.6</ele>
        <time>2022-04-02T05:27:31Z</time>
      </trkpt>
      <trkpt lat="47.20988" lon="-1.74427">
        <ele>1.8</ele>
        <time>2022-04-02T05:27:33Z</time>
      </trkpt>
      <trkpt lat="47.20989" lon="-1.74412">
        <ele>1.8</ele>
        <time>2022-04-02T05:27:35Z</time>
      </trkpt>
      <trkpt lat="47.20991" lon="-1.74374">
        <ele>1.8</ele>
        <time>2022-04-02T05:27:40Z</time>
      </trkpt>
      <trkpt lat="47.20993" lon="-1.74367">
        <ele>1.8</ele>
        <time>2022-04-02T05:27:41Z</time>
      </trkpt>
      <trkpt lat="47.21006" lon="-1.74326">
        <ele>2</ele>
        <time>2022-04-02T05:27:47Z</time>
      </trkpt>
      <trkpt lat="47.21009" lon="-1.7432">
        <ele>2</ele>
        <time>2022-04-02T05:27:48Z</time>
      </trkpt>
      <trkpt lat="47.2102" lon="-1.74294">
        <ele>2</ele>
        <time>2022-04-02T05:27:52Z</time>
      </trkpt>
      <trkpt lat="47.21025" lon="-1.74281">
        <ele>2</ele>
        <time>2022-04-02T05:27:54Z</time>
      </trkpt>
      <trkpt lat="47.21032" lon="-1.74261">
        <ele>1.8</ele>
        <time>2022-04-02T05:27:57Z</time>
      </trkpt>
      <trkpt lat="47.21051" lon="-1.74219">
        <ele>1.2</ele>
        <time>2022-04-02T05:28:04Z</time>
      </trkpt>
      <trkpt lat="47.21069" lon="-1.74191">
        <ele>0.80000000000001</ele>
        <time>2022-04-02T05:28:09Z</time>
      </trkpt>
      <trkpt lat="47.21073" lon="-1.74186">
        <ele>0.80000000000001</ele>
        <time>2022-04-02T05:28:10Z</time>
      </trkpt>
      <trkpt lat="47.21094" lon="-1.74155">
        <ele>0.39999999999998</ele>
        <time>2022-04-02T05:28:16Z</time>
      </trkpt>
      <trkpt lat="47.21107" lon="-1.74133">
        <ele>0.39999999999998</ele>
        <time>2022-04-02T05:28:20Z</time>
      </trkpt>
      <trkpt lat="47.21111" lon="-1.74128">
        <ele>-0.19999999999999</ele>
        <time>2022-04-02T05:28:21Z</time>
      </trkpt>
      <trkpt lat="47.21124" lon="-1.74111">
        <ele>-0.39999999999998</ele>
        <time>2022-04-02T05:28:24Z</time>
      </trkpt>
      <trkpt lat="47.21146" lon="-1.74083">
        <ele>-0.80000000000001</ele>
        <time>2022-04-02T05:28:29Z</time>
      </trkpt>
      <trkpt lat="47.21158" lon="-1.74066">
        <ele>-0.80000000000001</ele>
        <time>2022-04-02T05:28:32Z</time>
      </trkpt>
      <trkpt lat="47.21163" lon="-1.74053">
        <ele>-0.80000000000001</ele>
        <time>2022-04-02T05:28:34Z</time>
      </trkpt>
      <trkpt lat="47.21165" lon="-1.74046">
        <ele>-0.60000000000002</ele>
        <time>2022-04-02T05:28:35Z</time>
      </trkpt>
      <trkpt lat="47.21166" lon="-1.74038">
        <ele>-0.60000000000002</ele>
        <time>2022-04-02T05:28:36Z</time>
      </trkpt>
      <trkpt lat="47.21164" lon="-1.74014">
        <ele>-0.39999999999998</ele>
        <time>2022-04-02T05:28:39Z</time>
      </trkpt>
      <trkpt lat="47.21159" lon="-1.73983">
        <ele>-1</ele>
        <time>2022-04-02T05:28:43Z</time>
      </trkpt>
      <trkpt lat="47.21157" lon="-1.73968">
        <ele>-0.39999999999998</ele>
        <time>2022-04-02T05:28:45Z</time>
      </trkpt>
      <trkpt lat="47.21146" lon="-1.73906">
        <ele>-0.19999999999999</ele>
        <time>2022-04-02T05:28:53Z</time>
      </trkpt>
      <trkpt lat="47.21145" lon="-1.73899">
        <ele>-0.19999999999999</ele>
        <time>2022-04-02T05:28:54Z</time>
      </trkpt>
      <trkpt lat="47.21141" lon="-1.73883">
        <ele>-0.19999999999999</ele>
        <time>2022-04-02T05:28:56Z</time>
      </trkpt>
      <trkpt lat="47.2114" lon="-1.73875">
        <ele>-0.19999999999999</ele>
        <time>2022-04-02T05:28:57Z</time>
      </trkpt>
      <trkpt lat="47.21129" lon="-1.73814">
        <ele>-0.19999999999999</ele>
        <time>2022-04-02T05:29:05Z</time>
      </trkpt>
      <trkpt lat="47.21121" lon="-1.73777">
        <ele>-0.19999999999999</ele>
        <time>2022-04-02T05:29:10Z</time>
      </trkpt>
      <trkpt lat="47.21117" lon="-1.73761">
        <ele>-0.19999999999999</ele>
        <time>2022-04-02T05:29:12Z</time>
      </trkpt>
      <trkpt lat="47.21112" lon="-1.7373">
        <ele>0.19999999999999</ele>
        <time>2022-04-02T05:29:16Z</time>
      </trkpt>
      <trkpt lat="47.2111" lon="-1.73706">
        <ele>0.19999999999999</ele>
        <time>2022-04-02T05:29:19Z</time>
      </trkpt>
      <trkpt lat="47.2111" lon="-1.73658">
        <ele>0.80000000000001</ele>
        <time>2022-04-02T05:29:25Z</time>
      </trkpt>
      <trkpt lat="47.2111" lon="-1.7365">
        <ele>0.80000000000001</ele>
        <time>2022-04-02T05:29:26Z</time>
      </trkpt>
      <trkpt lat="47.21111" lon="-1.73592">
        <ele>1</ele>
        <time>2022-04-02T05:29:33Z</time>
      </trkpt>
      <trkpt lat="47.21113" lon="-1.73505">
        <ele>1.2</ele>
        <time>2022-04-02T05:29:43Z</time>
      </trkpt>
      <trkpt lat="47.21115" lon="-1.73441">
        <ele>1.4</ele>
        <time>2022-04-02T05:29:51Z</time>
      </trkpt>
      <trkpt lat="47.21116" lon="-1.7341">
        <ele>1.6</ele>
        <time>2022-04-02T05:29:55Z</time>
      </trkpt>
      <trkpt lat="47.21116" lon="-1.73394">
        <ele>1.6</ele>
        <time>2022-04-02T05:29:57Z</time>
      </trkpt>
      <trkpt lat="47.21121" lon="-1.7333">
        <ele>2</ele>
        <time>2022-04-02T05:30:05Z</time>
      </trkpt>
      <trkpt lat="47.21122" lon="-1.73305">
        <ele>2.2</ele>
        <time>2022-04-02T05:30:08Z</time>
      </trkpt>
      <trkpt lat="47.21122" lon="-1.73281">
        <ele>2.4</ele>
        <time>2022-04-02T05:30:11Z</time>
      </trkpt>
      <trkpt lat="47.21125" lon="-1.73233">
        <ele>2.6</ele>
        <time>2022-04-02T05:30:17Z</time>
      </trkpt>
      <trkpt lat="47.21125" lon="-1.73217">
        <ele>2.6</ele>
        <time>2022-04-02T05:30:19Z</time>
      </trkpt>
      <trkpt lat="47.21125" lon="-1.73193">
        <ele>2.6</ele>
        <time>2022-04-02T05:30:22Z</time>
      </trkpt>
      <trkpt lat="47.21124" lon="-1.73185">
        <ele>2.6</ele>
        <time>2022-04-02T05:30:23Z</time>
      </trkpt>
      <trkpt lat="47.21118" lon="-1.73172">
        <ele>2.6</ele>
        <time>2022-04-02T05:30:25Z</time>
      </trkpt>
      <trkpt lat="47.21109" lon="-1.73166">
        <ele>2.6</ele>
        <time>2022-04-02T05:30:27Z</time>
      </trkpt>
      <trkpt lat="47.21104" lon="-1.73163">
        <ele>2.6</ele>
        <time>2022-04-02T05:30:28Z</time>
      </trkpt>
      <trkpt lat="47.21077" lon="-1.73152">
        <ele>2.6</ele>
        <time>2022-04-02T05:30:33Z</time>
      </trkpt>
      <trkpt lat="47.21051" lon="-1.73142">
        <ele>2</ele>
        <time>2022-04-02T05:30:39Z</time>
      </trkpt>
      <trkpt lat="47.21037" lon="-1.73136">
        <ele>1.6</ele>
        <time>2022-04-02T05:30:42Z</time>
      </trkpt>
      <trkpt lat="47.21029" lon="-1.73127">
        <ele>1.2</ele>
        <time>2022-04-02T05:30:44Z</time>
      </trkpt>
      <trkpt lat="47.2102" lon="-1.73108">
        <ele>0.60000000000002</ele>
        <time>2022-04-02T05:30:47Z</time>
      </trkpt>
      <trkpt lat="47.21015" lon="-1.73095">
        <ele>0.60000000000002</ele>
        <time>2022-04-02T05:30:49Z</time>
      </trkpt>
      <trkpt lat="47.20996" lon="-1.73048">
        <ele>0.19999999999999</ele>
        <time>2022-04-02T05:30:56Z</time>
      </trkpt>
      <trkpt lat="47.20985" lon="-1.73033">
        <ele>0.19999999999999</ele>
        <time>2022-04-02T05:30:59Z</time>
      </trkpt>
      <trkpt lat="47.20979" lon="-1.7302">
        <ele>0.19999999999999</ele>
        <time>2022-04-02T05:31:01Z</time>
      </trkpt>
      <trkpt lat="47.20975" lon="-1.73006">
        <ele>0.19999999999999</ele>
        <time>2022-04-02T05:31:03Z</time>
      </trkpt>
      <trkpt lat="47.20966" lon="-1.72979">
        <ele>0.19999999999999</ele>
        <time>2022-04-02T05:31:07Z</time>
      </trkpt>
      <trkpt lat="47.2096" lon="-1.7296">
        <ele>0.19999999999999</ele>
        <time>2022-04-02T05:31:10Z</time>
      </trkpt>
      <trkpt lat="47.20956" lon="-1.72947">
        <ele>-0.60000000000002</ele>
        <time>2022-04-02T05:31:12Z</time>
      </trkpt>
      <trkpt lat="47.20953" lon="-1.72941">
        <ele>-0.19999999999999</ele>
        <time>2022-04-02T05:31:13Z</time>
      </trkpt>
      <trkpt lat="47.20947" lon="-1.72928">
        <ele>0.19999999999999</ele>
        <time>2022-04-02T05:31:15Z</time>
      </trkpt>
      <trkpt lat="47.20945" lon="-1.72921">
        <ele>0.39999999999998</ele>
        <time>2022-04-02T05:31:16Z</time>
      </trkpt>
      <trkpt lat="47.20943" lon="-1.72915">
        <ele>0.60000000000002</ele>
        <time>2022-04-02T05:31:17Z</time>
      </trkpt>
      <trkpt lat="47.20938" lon="-1.72902">
        <ele>0.39999999999998</ele>
        <time>2022-04-02T05:31:19Z</time>
      </trkpt>
      <trkpt lat="47.20935" lon="-1.72889">
        <ele>0.60000000000002</ele>
        <time>2022-04-02T05:31:21Z</time>
      </trkpt>
      <trkpt lat="47.20932" lon="-1.72872">
        <ele>0.60000000000002</ele>
        <time>2022-04-02T05:31:24Z</time>
      </trkpt>
      <trkpt lat="47.20931" lon="-1.72866">
        <ele>0.60000000000002</ele>
        <time>2022-04-02T05:31:25Z</time>
      </trkpt>
      <trkpt lat="47.2092" lon="-1.72831">
        <ele>0.60000000000002</ele>
        <time>2022-04-02T05:31:31Z</time>
      </trkpt>
      <trkpt lat="47.20918" lon="-1.72825">
        <ele>0.60000000000002</ele>
        <time>2022-04-02T05:31:32Z</time>
      </trkpt>
      <trkpt lat="47.20912" lon="-1.72808">
        <ele>0.80000000000001</ele>
        <time>2022-04-02T05:31:35Z</time>
      </trkpt>
      <trkpt lat="47.20909" lon="-1.72796">
        <ele>0.80000000000001</ele>
        <time>2022-04-02T05:31:37Z</time>
      </trkpt>
      <trkpt lat="47.20908" lon="-1.72783">
        <ele>0.80000000000001</ele>
        <time>2022-04-02T05:31:39Z</time>
      </trkpt>
      <trkpt lat="47.20908" lon="-1.72776">
        <ele>1</ele>
        <time>2022-04-02T05:31:40Z</time>
      </trkpt>
      <trkpt lat="47.20909" lon="-1.72763">
        <ele>1</ele>
        <time>2022-04-02T05:31:42Z</time>
      </trkpt>
      <trkpt lat="47.20908" lon="-1.72749">
        <ele>1</ele>
        <time>2022-04-02T05:31:44Z</time>
      </trkpt>
      <trkpt lat="47.20908" lon="-1.72741">
        <ele>1.2</ele>
        <time>2022-04-02T05:31:45Z</time>
      </trkpt>
      <trkpt lat="47.20904" lon="-1.72696">
        <ele>1.2</ele>
        <time>2022-04-02T05:31:51Z</time>
      </trkpt>
      <trkpt lat="47.20904" lon="-1.72689">
        <ele>1.2</ele>
        <time>2022-04-02T05:31:52Z</time>
      </trkpt>
      <trkpt lat="47.20902" lon="-1.72638">
        <ele>1.6</ele>
        <time>2022-04-02T05:31:59Z</time>
      </trkpt>
      <trkpt lat="47.209" lon="-1.72592">
        <ele>1.6</ele>
        <time>2022-04-02T05:32:05Z</time>
      </trkpt>
      <trkpt lat="47.20899" lon="-1.72563">
        <ele>1.8</ele>
        <time>2022-04-02T05:32:09Z</time>
      </trkpt>
      <trkpt lat="47.20898" lon="-1.72548">
        <ele>1.8</ele>
        <time>2022-04-02T05:32:11Z</time>
      </trkpt>
      <trkpt lat="47.20895" lon="-1.72526">
        <ele>2</ele>
        <time>2022-04-02T05:32:14Z</time>
      </trkpt>
      <trkpt lat="47.20894" lon="-1.72511">
        <ele>2</ele>
        <time>2022-04-02T05:32:16Z</time>
      </trkpt>
      <trkpt lat="47.20895" lon="-1.72489">
        <ele>2</ele>
        <time>2022-04-02T05:32:19Z</time>
      </trkpt>
      <trkpt lat="47.20894" lon="-1.72474">
        <ele>2.2</ele>
        <time>2022-04-02T05:32:21Z</time>
      </trkpt>
      <trkpt lat="47.20893" lon="-1.72461">
        <ele>2.2</ele>
        <time>2022-04-02T05:32:23Z</time>
      </trkpt>
      <trkpt lat="47.20892" lon="-1.72454">
        <ele>2.2</ele>
        <time>2022-04-02T05:32:24Z</time>
      </trkpt>
      <trkpt lat="47.20891" lon="-1.72446">
        <ele>2.2</ele>
        <time>2022-04-02T05:32:25Z</time>
      </trkpt>
      <trkpt lat="47.2089" lon="-1.72432">
        <ele>2.2</ele>
        <time>2022-04-02T05:32:27Z</time>
      </trkpt>
      <trkpt lat="47.2089" lon="-1.72418">
        <ele>2</ele>
        <time>2022-04-02T05:32:29Z</time>
      </trkpt>
      <trkpt lat="47.20888" lon="-1.72402">
        <ele>2</ele>
        <time>2022-04-02T05:32:31Z</time>
      </trkpt>
      <trkpt lat="47.20884" lon="-1.72362">
        <ele>1.8</ele>
        <time>2022-04-02T05:32:36Z</time>
      </trkpt>
      <trkpt lat="47.2088" lon="-1.72314">
        <ele>1.8</ele>
        <time>2022-04-02T05:32:42Z</time>
      </trkpt>
      <trkpt lat="47.20878" lon="-1.72283">
        <ele>1.6</ele>
        <time>2022-04-02T05:32:46Z</time>
      </trkpt>
      <trkpt lat="47.20876" lon="-1.72267">
        <ele>1.4</ele>
        <time>2022-04-02T05:32:48Z</time>
      </trkpt>
      <trkpt lat="47.20874" lon="-1.72244">
        <ele>1.4</ele>
        <time>2022-04-02T05:32:51Z</time>
      </trkpt>
      <trkpt lat="47.20872" lon="-1.72228">
        <ele>1.2</ele>
        <time>2022-04-02T05:32:53Z</time>
      </trkpt>
      <trkpt lat="47.20871" lon="-1.7222">
        <ele>1.2</ele>
        <time>2022-04-02T05:32:54Z</time>
      </trkpt>
      <trkpt lat="47.2087" lon="-1.72212">
        <ele>1.2</ele>
        <time>2022-04-02T05:32:55Z</time>
      </trkpt>
      <trkpt lat="47.20869" lon="-1.72189">
        <ele>1.4</ele>
        <time>2022-04-02T05:32:58Z</time>
      </trkpt>
      <trkpt lat="47.20867" lon="-1.72173">
        <ele>1.2</ele>
        <time>2022-04-02T05:33:00Z</time>
      </trkpt>
      <trkpt lat="47.20866" lon="-1.72157">
        <ele>1.2</ele>
        <time>2022-04-02T05:33:02Z</time>
      </trkpt>
      <trkpt lat="47.20864" lon="-1.7214">
        <ele>1.2</ele>
        <time>2022-04-02T05:33:04Z</time>
      </trkpt>
      <trkpt lat="47.20863" lon="-1.72124">
        <ele>1.2</ele>
        <time>2022-04-02T05:33:06Z</time>
      </trkpt>
      <trkpt lat="47.20862" lon="-1.72067">
        <ele>1</ele>
        <time>2022-04-02T05:33:13Z</time>
      </trkpt>
      <trkpt lat="47.20862" lon="-1.72043">
        <ele>1.2</ele>
        <time>2022-04-02T05:33:16Z</time>
      </trkpt>
      <trkpt lat="47.20861" lon="-1.72019">
        <ele>1.2</ele>
        <time>2022-04-02T05:33:19Z</time>
      </trkpt>
      <trkpt lat="47.20858" lon="-1.71964">
        <ele>1.2</ele>
        <time>2022-04-02T05:33:26Z</time>
      </trkpt>
      <trkpt lat="47.20858" lon="-1.71948">
        <ele>1.4</ele>
        <time>2022-04-02T05:33:28Z</time>
      </trkpt>
      <trkpt lat="47.20857" lon="-1.71924">
        <ele>1.4</ele>
        <time>2022-04-02T05:33:31Z</time>
      </trkpt>
      <trkpt lat="47.20858" lon="-1.71891">
        <ele>1.8</ele>
        <time>2022-04-02T05:33:35Z</time>
      </trkpt>
      <trkpt lat="47.20856" lon="-1.71875">
        <ele>1.8</ele>
        <time>2022-04-02T05:33:37Z</time>
      </trkpt>
      <trkpt lat="47.20856" lon="-1.71867">
        <ele>2</ele>
        <time>2022-04-02T05:33:38Z</time>
      </trkpt>
      <trkpt lat="47.20857" lon="-1.71844">
        <ele>2.2</ele>
        <time>2022-04-02T05:33:41Z</time>
      </trkpt>
      <trkpt lat="47.20858" lon="-1.71836">
        <ele>2.2</ele>
        <time>2022-04-02T05:33:42Z</time>
      </trkpt>
      <trkpt lat="47.20856" lon="-1.71789">
        <ele>2.2</ele>
        <time>2022-04-02T05:33:48Z</time>
      </trkpt>
      <trkpt lat="47.20853" lon="-1.71747">
        <ele>2.2</ele>
        <time>2022-04-02T05:33:53Z</time>
      </trkpt>
      <trkpt lat="47.20853" lon="-1.71739">
        <ele>2.2</ele>
        <time>2022-04-02T05:33:54Z</time>
      </trkpt>
      <trkpt lat="47.20851" lon="-1.71688">
        <ele>2.4</ele>
        <time>2022-04-02T05:34:00Z</time>
      </trkpt>
      <trkpt lat="47.2085" lon="-1.71637">
        <ele>2.4</ele>
        <time>2022-04-02T05:34:06Z</time>
      </trkpt>
      <trkpt lat="47.2085" lon="-1.71629">
        <ele>2.4</ele>
        <time>2022-04-02T05:34:07Z</time>
      </trkpt>
      <trkpt lat="47.2085" lon="-1.71621">
        <ele>2.2</ele>
        <time>2022-04-02T05:34:08Z</time>
      </trkpt>
      <trkpt lat="47.20848" lon="-1.71596">
        <ele>2.2</ele>
        <time>2022-04-02T05:34:11Z</time>
      </trkpt>
      <trkpt lat="47.20847" lon="-1.7158">
        <ele>2.2</ele>
        <time>2022-04-02T05:34:13Z</time>
      </trkpt>
      <trkpt lat="47.20845" lon="-1.71546">
        <ele>2</ele>
        <time>2022-04-02T05:34:17Z</time>
      </trkpt>
      <trkpt lat="47.20845" lon="-1.71531">
        <ele>1.8</ele>
        <time>2022-04-02T05:34:19Z</time>
      </trkpt>
      <trkpt lat="47.20843" lon="-1.7149">
        <ele>2</ele>
        <time>2022-04-02T05:34:24Z</time>
      </trkpt>
      <trkpt lat="47.20843" lon="-1.71482">
        <ele>2</ele>
        <time>2022-04-02T05:34:25Z</time>
      </trkpt>
      <trkpt lat="47.20842" lon="-1.71465">
        <ele>2</ele>
        <time>2022-04-02T05:34:27Z</time>
      </trkpt>
      <trkpt lat="47.20842" lon="-1.7144">
        <ele>1.8</ele>
        <time>2022-04-02T05:34:30Z</time>
      </trkpt>
      <trkpt lat="47.20842" lon="-1.714">
        <ele>1.6</ele>
        <time>2022-04-02T05:34:35Z</time>
      </trkpt>
      <trkpt lat="47.20842" lon="-1.71392">
        <ele>1.6</ele>
        <time>2022-04-02T05:34:36Z</time>
      </trkpt>
      <trkpt lat="47.20842" lon="-1.71361">
        <ele>1.4</ele>
        <time>2022-04-02T05:34:40Z</time>
      </trkpt>
      <trkpt lat="47.20842" lon="-1.71353">
        <ele>1.4</ele>
        <time>2022-04-02T05:34:41Z</time>
      </trkpt>
      <trkpt lat="47.20842" lon="-1.71346">
        <ele>1.2</ele>
        <time>2022-04-02T05:34:42Z</time>
      </trkpt>
      <trkpt lat="47.20846" lon="-1.71332">
        <ele>1</ele>
        <time>2022-04-02T05:34:44Z</time>
      </trkpt>
      <trkpt lat="47.20849" lon="-1.71326">
        <ele>1</ele>
        <time>2022-04-02T05:34:45Z</time>
      </trkpt>
      <trkpt lat="47.20852" lon="-1.7132">
        <ele>0.80000000000001</ele>
        <time>2022-04-02T05:34:46Z</time>
      </trkpt>
      <trkpt lat="47.20861" lon="-1.71309">
        <ele>0.60000000000002</ele>
        <time>2022-04-02T05:34:48Z</time>
      </trkpt>
      <trkpt lat="47.20865" lon="-1.71305">
        <ele>0.60000000000002</ele>
        <time>2022-04-02T05:34:49Z</time>
      </trkpt>
      <trkpt lat="47.2087" lon="-1.71302">
        <ele>0.60000000000002</ele>
        <time>2022-04-02T05:34:50Z</time>
      </trkpt>
      <trkpt lat="47.20888" lon="-1.71292">
        <ele>0.39999999999998</ele>
        <time>2022-04-02T05:34:53Z</time>
      </trkpt>
      <trkpt lat="47.20905" lon="-1.71284">
        <ele>0.39999999999998</ele>
        <time>2022-04-02T05:34:56Z</time>
      </trkpt>
      <trkpt lat="47.20911" lon="-1.71282">
        <ele>0.39999999999998</ele>
        <time>2022-04-02T05:34:57Z</time>
      </trkpt>
      <trkpt lat="47.20927" lon="-1.71273">
        <ele>0.19999999999999</ele>
        <time>2022-04-02T05:35:00Z</time>
      </trkpt>
      <trkpt lat="47.20933" lon="-1.7127">
        <ele>0.19999999999999</ele>
        <time>2022-04-02T05:35:01Z</time>
      </trkpt>
      <trkpt lat="47.20943" lon="-1.71263">
        <ele>0.19999999999999</ele>
        <time>2022-04-02T05:35:03Z</time>
      </trkpt>
      <trkpt lat="47.20951" lon="-1.71255">
        <ele>0.19999999999999</ele>
        <time>2022-04-02T05:35:05Z</time>
      </trkpt>
      <trkpt lat="47.2097" lon="-1.71234">
        <ele>-0.39999999999998</ele>
        <time>2022-04-02T05:35:09Z</time>
      </trkpt>
      <trkpt lat="47.20989" lon="-1.71205">
        <ele>-0.80000000000001</ele>
        <time>2022-04-02T05:35:14Z</time>
      </trkpt>
      <trkpt lat="47.20991" lon="-1.71199">
        <ele>-0.80000000000001</ele>
        <time>2022-04-02T05:35:15Z</time>
      </trkpt>
      <trkpt lat="47.20999" lon="-1.7118">
        <ele>-1</ele>
        <time>2022-04-02T05:35:18Z</time>
      </trkpt>
      <trkpt lat="47.21005" lon="-1.71167">
        <ele>-1.2</ele>
        <time>2022-04-02T05:35:20Z</time>
      </trkpt>
      <trkpt lat="47.2101" lon="-1.71153">
        <ele>-1.2</ele>
        <time>2022-04-02T05:35:22Z</time>
      </trkpt>
      <trkpt lat="47.21012" lon="-1.71146">
        <ele>-1.2</ele>
        <time>2022-04-02T05:35:23Z</time>
      </trkpt>
      <trkpt lat="47.21016" lon="-1.71127">
        <ele>-1.4</ele>
        <time>2022-04-02T05:35:26Z</time>
      </trkpt>
      <trkpt lat="47.21018" lon="-1.7112">
        <ele>-1.4</ele>
        <time>2022-04-02T05:35:27Z</time>
      </trkpt>
      <trkpt lat="47.2102" lon="-1.71101">
        <ele>-1.6</ele>
        <time>2022-04-02T05:35:30Z</time>
      </trkpt>
      <trkpt lat="47.21021" lon="-1.71094">
        <ele>-1.4</ele>
        <time>2022-04-02T05:35:31Z</time>
      </trkpt>
      <trkpt lat="47.21025" lon="-1.71084">
        <ele>-1.6</ele>
        <time>2022-04-02T05:35:33Z</time>
      </trkpt>
      <trkpt lat="47.21028" lon="-1.71082">
        <ele>-1.6</ele>
        <time>2022-04-02T05:35:34Z</time>
      </trkpt>
      <trkpt lat="47.21032" lon="-1.71082">
        <ele>-1.6</ele>
        <time>2022-04-02T05:35:35Z</time>
      </trkpt>
      <trkpt lat="47.21041" lon="-1.71088">
        <ele>-1.4</ele>
        <time>2022-04-02T05:35:37Z</time>
      </trkpt>
      <trkpt lat="47.21054" lon="-1.71114">
        <ele>-1.6</ele>
        <time>2022-04-02T05:35:42Z</time>
      </trkpt>
      <trkpt lat="47.21069" lon="-1.71153">
        <ele>-1.8</ele>
        <time>2022-04-02T05:35:50Z</time>
      </trkpt>
      <trkpt lat="47.21082" lon="-1.71185">
        <ele>-2</ele>
        <time>2022-04-02T05:35:57Z</time>
      </trkpt>
      <trkpt lat="47.21095" lon="-1.71211">
        <ele>-2</ele>
        <time>2022-04-02T05:36:04Z</time>
      </trkpt>
      <trkpt lat="47.2111" lon="-1.7124">
        <ele>-1.2</ele>
        <time>2022-04-02T05:36:12Z</time>
      </trkpt>
      <trkpt lat="47.21128" lon="-1.71268">
        <ele>-0.39999999999998</ele>
        <time>2022-04-02T05:36:21Z</time>
      </trkpt>
      <trkpt lat="47.21143" lon="-1.7129">
        <ele>-0.19999999999999</ele>
        <time>2022-04-02T05:36:28Z</time>
      </trkpt>
      <trkpt lat="47.21154" lon="-1.7131">
        <ele>0.39999999999998</ele>
        <time>2022-04-02T05:36:34Z</time>
      </trkpt>
      <trkpt lat="47.21161" lon="-1.71305">
        <ele>1.2</ele>
        <time>2022-04-02T05:36:38Z</time>
      </trkpt>
      <trkpt lat="47.21174" lon="-1.71292">
        <ele>2.4</ele>
        <time>2022-04-02T05:36:44Z</time>
      </trkpt>
      <trkpt lat="47.2119" lon="-1.71273">
        <ele>3.4</ele>
        <time>2022-04-02T05:36:50Z</time>
      </trkpt>
      <trkpt lat="47.21205" lon="-1.71258">
        <ele>4.4</ele>
        <time>2022-04-02T05:36:56Z</time>
      </trkpt>
      <trkpt lat="47.21221" lon="-1.71253">
        <ele>5.4</ele>
        <time>2022-04-02T05:37:02Z</time>
      </trkpt>
      <trkpt lat="47.21239" lon="-1.71247">
        <ele>6.6</ele>
        <time>2022-04-02T05:37:08Z</time>
      </trkpt>
      <trkpt lat="47.21247" lon="-1.71245">
        <ele>7.4</ele>
        <time>2022-04-02T05:37:12Z</time>
      </trkpt>
      <trkpt lat="47.2125" lon="-1.71246">
        <ele>7.8</ele>
        <time>2022-04-02T05:37:14Z</time>
      </trkpt>
      <trkpt lat="47.21255" lon="-1.71238">
        <ele>8.6</ele>
        <time>2022-04-02T05:37:18Z</time>
      </trkpt>
      <trkpt lat="47.21256" lon="-1.71237">
        <ele>9</ele>
        <time>2022-04-02T05:37:21Z</time>
      </trkpt>
      <trkpt lat="47.21254" lon="-1.71233">
        <ele>9.4</ele>
        <time>2022-04-02T05:37:25Z</time>
      </trkpt>
      <trkpt lat="47.21253" lon="-1.71219">
        <ele>10.2</ele>
        <time>2022-04-02T05:37:30Z</time>
      </trkpt>
      <trkpt lat="47.21255" lon="-1.71191">
        <ele>11.2</ele>
        <time>2022-04-02T05:37:36Z</time>
      </trkpt>
      <trkpt lat="47.21261" lon="-1.71155">
        <ele>12.4</ele>
        <time>2022-04-02T05:37:43Z</time>
      </trkpt>
      <trkpt lat="47.21267" lon="-1.71114">
        <ele>13.4</ele>
        <time>2022-04-02T05:37:50Z</time>
      </trkpt>
      <trkpt lat="47.21271" lon="-1.71079">
        <ele>14.4</ele>
        <time>2022-04-02T05:37:56Z</time>
      </trkpt>
      <trkpt lat="47.21271" lon="-1.71073">
        <ele>14.6</ele>
        <time>2022-04-02T05:37:57Z</time>
      </trkpt>
      <trkpt lat="47.21272" lon="-1.71067">
        <ele>14.6</ele>
        <time>2022-04-02T05:37:58Z</time>
      </trkpt>
      <trkpt lat="47.21274" lon="-1.71041">
        <ele>15.2</ele>
        <time>2022-04-02T05:38:02Z</time>
      </trkpt>
      <trkpt lat="47.21274" lon="-1.71034">
        <ele>15.2</ele>
        <time>2022-04-02T05:38:03Z</time>
      </trkpt>
      <trkpt lat="47.21279" lon="-1.70974">
        <ele>16.2</ele>
        <time>2022-04-02T05:38:12Z</time>
      </trkpt>
      <trkpt lat="47.2128" lon="-1.70953">
        <ele>16.6</ele>
        <time>2022-04-02T05:38:15Z</time>
      </trkpt>
      <trkpt lat="47.21282" lon="-1.70934">
        <ele>16.8</ele>
        <time>2022-04-02T05:38:18Z</time>
      </trkpt>
      <trkpt lat="47.21284" lon="-1.70908">
        <ele>17.2</ele>
        <time>2022-04-02T05:38:22Z</time>
      </trkpt>
      <trkpt lat="47.21284" lon="-1.70894">
        <ele>17.2</ele>
        <time>2022-04-02T05:38:24Z</time>
      </trkpt>
      <trkpt lat="47.21287" lon="-1.70833">
        <ele>17.6</ele>
        <time>2022-04-02T05:38:31Z</time>
      </trkpt>
      <trkpt lat="47.21293" lon="-1.70771">
        <ele>17.8</ele>
        <time>2022-04-02T05:38:37Z</time>
      </trkpt>
      <trkpt lat="47.21301" lon="-1.70709">
        <ele>17.6</ele>
        <time>2022-04-02T05:38:42Z</time>
      </trkpt>
      <trkpt lat="47.2131" lon="-1.70656">
        <ele>17.2</ele>
        <time>2022-04-02T05:38:46Z</time>
      </trkpt>
      <trkpt lat="47.21317" lon="-1.70621">
        <ele>17</ele>
        <time>2022-04-02T05:38:49Z</time>
      </trkpt>
      <trkpt lat="47.21319" lon="-1.7061">
        <ele>16.8</ele>
        <time>2022-04-02T05:38:50Z</time>
      </trkpt>
      <trkpt lat="47.2133" lon="-1.7054">
        <ele>16</ele>
        <time>2022-04-02T05:38:56Z</time>
      </trkpt>
      <trkpt lat="47.21338" lon="-1.70474">
        <ele>15.8</ele>
        <time>2022-04-02T05:39:02Z</time>
      </trkpt>
      <trkpt lat="47.21348" lon="-1.7041">
        <ele>15.6</ele>
        <time>2022-04-02T05:39:09Z</time>
      </trkpt>
      <trkpt lat="47.21359" lon="-1.70332">
        <ele>15.4</ele>
        <time>2022-04-02T05:39:18Z</time>
      </trkpt>
      <trkpt lat="47.21366" lon="-1.70295">
        <ele>15</ele>
        <time>2022-04-02T05:39:23Z</time>
      </trkpt>
      <trkpt lat="47.2137" lon="-1.70297">
        <ele>14.8</ele>
        <time>2022-04-02T05:39:26Z</time>
      </trkpt>
      <trkpt lat="47.21377" lon="-1.70298">
        <ele>14.6</ele>
        <time>2022-04-02T05:39:31Z</time>
      </trkpt>
      <trkpt lat="47.21378" lon="-1.70299">
        <ele>14.6</ele>
        <time>2022-04-02T05:39:33Z</time>
      </trkpt>
      <trkpt lat="47.21383" lon="-1.70294">
        <ele>14.4</ele>
        <time>2022-04-02T05:39:42Z</time>
      </trkpt>
      <trkpt lat="47.21385" lon="-1.70292">
        <ele>14.4</ele>
        <time>2022-04-02T05:39:43Z</time>
      </trkpt>
      <trkpt lat="47.21388" lon="-1.7029">
        <ele>14.4</ele>
        <time>2022-04-02T05:39:44Z</time>
      </trkpt>
      <trkpt lat="47.21397" lon="-1.70287">
        <ele>14.4</ele>
        <time>2022-04-02T05:39:47Z</time>
      </trkpt>
      <trkpt lat="47.21409" lon="-1.70282">
        <ele>14</ele>
        <time>2022-04-02T05:39:52Z</time>
      </trkpt>
      <trkpt lat="47.2142" lon="-1.70275">
        <ele>13.6</ele>
        <time>2022-04-02T05:39:57Z</time>
      </trkpt>
      <trkpt lat="47.21428" lon="-1.70269">
        <ele>13.2</ele>
        <time>2022-04-02T05:40:02Z</time>
      </trkpt>
      <trkpt lat="47.21433" lon="-1.70266">
        <ele>13</ele>
        <time>2022-04-02T05:40:04Z</time>
      </trkpt>
      <trkpt lat="47.21436" lon="-1.70263">
        <ele>12.8</ele>
        <time>2022-04-02T05:40:06Z</time>
      </trkpt>
      <trkpt lat="47.2144" lon="-1.7026">
        <ele>12.8</ele>
        <time>2022-04-02T05:40:07Z</time>
      </trkpt>
      <trkpt lat="47.2145" lon="-1.70255">
        <ele>12.8</ele>
        <time>2022-04-02T05:40:10Z</time>
      </trkpt>
      <trkpt lat="47.21452" lon="-1.70253">
        <ele>12.6</ele>
        <time>2022-04-02T05:40:11Z</time>
      </trkpt>
      <trkpt lat="47.21457" lon="-1.70251">
        <ele>12.6</ele>
        <time>2022-04-02T05:40:12Z</time>
      </trkpt>
      <trkpt lat="47.21468" lon="-1.70246">
        <ele>12.8</ele>
        <time>2022-04-02T05:40:15Z</time>
      </trkpt>
      <trkpt lat="47.21475" lon="-1.70241">
        <ele>12.6</ele>
        <time>2022-04-02T05:40:18Z</time>
      </trkpt>
      <trkpt lat="47.21478" lon="-1.7024">
        <ele>12.4</ele>
        <time>2022-04-02T05:40:19Z</time>
      </trkpt>
      <trkpt lat="47.21485" lon="-1.70235">
        <ele>12.2</ele>
        <time>2022-04-02T05:40:22Z</time>
      </trkpt>
      <trkpt lat="47.21489" lon="-1.70232">
        <ele>12</ele>
        <time>2022-04-02T05:40:24Z</time>
      </trkpt>
      <trkpt lat="47.21491" lon="-1.7023">
        <ele>11.8</ele>
        <time>2022-04-02T05:40:25Z</time>
      </trkpt>
      <trkpt lat="47.21494" lon="-1.70229">
        <ele>11.8</ele>
        <time>2022-04-02T05:40:26Z</time>
      </trkpt>
      <trkpt lat="47.21506" lon="-1.70222">
        <ele>11.8</ele>
        <time>2022-04-02T05:40:30Z</time>
      </trkpt>
      <trkpt lat="47.21522" lon="-1.70214">
        <ele>12</ele>
        <time>2022-04-02T05:40:34Z</time>
      </trkpt>
      <trkpt lat="47.21533" lon="-1.70207">
        <ele>12</ele>
        <time>2022-04-02T05:40:39Z</time>
      </trkpt>
      <trkpt lat="47.21544" lon="-1.70199">
        <ele>12.4</ele>
        <time>2022-04-02T05:40:44Z</time>
      </trkpt>
      <trkpt lat="47.21559" lon="-1.70192">
        <ele>12.8</ele>
        <time>2022-04-02T05:40:48Z</time>
      </trkpt>
      <trkpt lat="47.21569" lon="-1.70184">
        <ele>13</ele>
        <time>2022-04-02T05:40:52Z</time>
      </trkpt>
      <trkpt lat="47.21571" lon="-1.70182">
        <ele>13</ele>
        <time>2022-04-02T05:40:53Z</time>
      </trkpt>
      <trkpt lat="47.21578" lon="-1.70174">
        <ele>13</ele>
        <time>2022-04-02T05:40:56Z</time>
      </trkpt>
      <trkpt lat="47.21578" lon="-1.70171">
        <ele>13</ele>
        <time>2022-04-02T05:40:57Z</time>
      </trkpt>
      <trkpt lat="47.21586" lon="-1.70156">
        <ele>13</ele>
        <time>2022-04-02T05:41:01Z</time>
      </trkpt>
      <trkpt lat="47.21593" lon="-1.70139">
        <ele>12.8</ele>
        <time>2022-04-02T05:41:06Z</time>
      </trkpt>
      <trkpt lat="47.21607" lon="-1.70124">
        <ele>12.2</ele>
        <time>2022-04-02T05:41:11Z</time>
      </trkpt>
      <trkpt lat="47.21613" lon="-1.70118">
        <ele>11.8</ele>
        <time>2022-04-02T05:41:14Z</time>
      </trkpt>
      <trkpt lat="47.21616" lon="-1.70114">
        <ele>11.8</ele>
        <time>2022-04-02T05:41:16Z</time>
      </trkpt>
      <trkpt lat="47.21624" lon="-1.70111">
        <ele>11.8</ele>
        <time>2022-04-02T05:41:18Z</time>
      </trkpt>
      <trkpt lat="47.21629" lon="-1.70109">
        <ele>11.8</ele>
        <time>2022-04-02T05:41:19Z</time>
      </trkpt>
      <trkpt lat="47.21645" lon="-1.70104">
        <ele>11.8</ele>
        <time>2022-04-02T05:41:22Z</time>
      </trkpt>
      <trkpt lat="47.21662" lon="-1.70098">
        <ele>11.8</ele>
        <time>2022-04-02T05:41:26Z</time>
      </trkpt>
      <trkpt lat="47.21681" lon="-1.70093">
        <ele>12</ele>
        <time>2022-04-02T05:41:31Z</time>
      </trkpt>
      <trkpt lat="47.21692" lon="-1.70088">
        <ele>11.8</ele>
        <time>2022-04-02T05:41:35Z</time>
      </trkpt>
      <trkpt lat="47.21696" lon="-1.70087">
        <ele>11.6</ele>
        <time>2022-04-02T05:41:36Z</time>
      </trkpt>
      <trkpt lat="47.21707" lon="-1.70082">
        <ele>11.4</ele>
        <time>2022-04-02T05:41:39Z</time>
      </trkpt>
      <trkpt lat="47.21714" lon="-1.70079">
        <ele>11.2</ele>
        <time>2022-04-02T05:41:41Z</time>
      </trkpt>
      <trkpt lat="47.21718" lon="-1.70075">
        <ele>11.2</ele>
        <time>2022-04-02T05:41:42Z</time>
      </trkpt>
      <trkpt lat="47.2174" lon="-1.7006">
        <ele>10.8</ele>
        <time>2022-04-02T05:41:47Z</time>
      </trkpt>
      <trkpt lat="47.21759" lon="-1.70039">
        <ele>10.8</ele>
        <time>2022-04-02T05:41:52Z</time>
      </trkpt>
      <trkpt lat="47.2177" lon="-1.70024">
        <ele>10.8</ele>
        <time>2022-04-02T05:41:56Z</time>
      </trkpt>
      <trkpt lat="47.21782" lon="-1.70013">
        <ele>11.6</ele>
        <time>2022-04-02T05:41:59Z</time>
      </trkpt>
      <trkpt lat="47.21792" lon="-1.70003">
        <ele>11.6</ele>
        <time>2022-04-02T05:42:02Z</time>
      </trkpt>
      <trkpt lat="47.21795" lon="-1.7">
        <ele>11.6</ele>
        <time>2022-04-02T05:42:03Z</time>
      </trkpt>
      <trkpt lat="47.21798" lon="-1.69996">
        <ele>11.8</ele>
        <time>2022-04-02T05:42:04Z</time>
      </trkpt>
      <trkpt lat="47.21805" lon="-1.69986">
        <ele>12</ele>
        <time>2022-04-02T05:42:07Z</time>
      </trkpt>
      <trkpt lat="47.21815" lon="-1.69975">
        <ele>12</ele>
        <time>2022-04-02T05:42:10Z</time>
      </trkpt>
      <trkpt lat="47.21819" lon="-1.69971">
        <ele>12</ele>
        <time>2022-04-02T05:42:11Z</time>
      </trkpt>
      <trkpt lat="47.21823" lon="-1.69966">
        <ele>12.2</ele>
        <time>2022-04-02T05:42:12Z</time>
      </trkpt>
      <trkpt lat="47.21831" lon="-1.69956">
        <ele>12.2</ele>
        <time>2022-04-02T05:42:14Z</time>
      </trkpt>
      <trkpt lat="47.21834" lon="-1.69951">
        <ele>12.2</ele>
        <time>2022-04-02T05:42:15Z</time>
      </trkpt>
      <trkpt lat="47.21836" lon="-1.69946">
        <ele>12.4</ele>
        <time>2022-04-02T05:42:16Z</time>
      </trkpt>
      <trkpt lat="47.21842" lon="-1.69939">
        <ele>12.4</ele>
        <time>2022-04-02T05:42:18Z</time>
      </trkpt>
      <trkpt lat="47.21855" lon="-1.69925">
        <ele>12.4</ele>
        <time>2022-04-02T05:42:23Z</time>
      </trkpt>
      <trkpt lat="47.21863" lon="-1.69914">
        <ele>12.4</ele>
        <time>2022-04-02T05:42:27Z</time>
      </trkpt>
      <trkpt lat="47.2187" lon="-1.699">
        <ele>13</ele>
        <time>2022-04-02T05:42:31Z</time>
      </trkpt>
      <trkpt lat="47.21871" lon="-1.6989">
        <ele>11.8</ele>
        <time>2022-04-02T05:42:33Z</time>
      </trkpt>
      <trkpt lat="47.21873" lon="-1.69886">
        <ele>11.8</ele>
        <time>2022-04-02T05:42:34Z</time>
      </trkpt>
      <trkpt lat="47.21886" lon="-1.69865">
        <ele>11.2</ele>
        <time>2022-04-02T05:42:39Z</time>
      </trkpt>
      <trkpt lat="47.21893" lon="-1.69859">
        <ele>11</ele>
        <time>2022-04-02T05:42:41Z</time>
      </trkpt>
      <trkpt lat="47.21901" lon="-1.69853">
        <ele>11</ele>
        <time>2022-04-02T05:42:43Z</time>
      </trkpt>
      <trkpt lat="47.21918" lon="-1.69842">
        <ele>11.2</ele>
        <time>2022-04-02T05:42:47Z</time>
      </trkpt>
      <trkpt lat="47.21925" lon="-1.69833">
        <ele>11.2</ele>
        <time>2022-04-02T05:42:50Z</time>
      </trkpt>
      <trkpt lat="47.21927" lon="-1.6983">
        <ele>11.4</ele>
        <time>2022-04-02T05:42:51Z</time>
      </trkpt>
      <trkpt lat="47.21936" lon="-1.69823">
        <ele>11.4</ele>
        <time>2022-04-02T05:42:54Z</time>
      </trkpt>
      <trkpt lat="47.21944" lon="-1.69818">
        <ele>12.2</ele>
        <time>2022-04-02T05:42:56Z</time>
      </trkpt>
      <trkpt lat="47.21959" lon="-1.6981">
        <ele>12.2</ele>
        <time>2022-04-02T05:43:00Z</time>
      </trkpt>
      <trkpt lat="47.21968" lon="-1.69805">
        <ele>12.2</ele>
        <time>2022-04-02T05:43:02Z</time>
      </trkpt>
      <trkpt lat="47.21977" lon="-1.69799">
        <ele>12.4</ele>
        <time>2022-04-02T05:43:04Z</time>
      </trkpt>
      <trkpt lat="47.21992" lon="-1.6979">
        <ele>12.4</ele>
        <time>2022-04-02T05:43:08Z</time>
      </trkpt>
      <trkpt lat="47.22011" lon="-1.69781">
        <ele>12.2</ele>
        <time>2022-04-02T05:43:11Z</time>
      </trkpt>
      <trkpt lat="47.22022" lon="-1.69775">
        <ele>12.2</ele>
        <time>2022-04-02T05:43:13Z</time>
      </trkpt>
      <trkpt lat="47.22026" lon="-1.69773">
        <ele>12.2</ele>
        <time>2022-04-02T05:43:14Z</time>
      </trkpt>
      <trkpt lat="47.22037" lon="-1.69767">
        <ele>12.8</ele>
        <time>2022-04-02T05:43:17Z</time>
      </trkpt>
      <trkpt lat="47.22042" lon="-1.69766">
        <ele>13</ele>
        <time>2022-04-02T05:43:19Z</time>
      </trkpt>
      <trkpt lat="47.22045" lon="-1.69763">
        <ele>13</ele>
        <time>2022-04-02T05:43:21Z</time>
      </trkpt>
      <trkpt lat="47.22045" lon="-1.69763">
        <ele>13</ele>
        <time>2022-04-02T05:43:22Z</time>
      </trkpt>
      <trkpt lat="47.22055" lon="-1.69758">
        <ele>12.8</ele>
        <time>2022-04-02T05:43:25Z</time>
      </trkpt>
      <trkpt lat="47.22061" lon="-1.69742">
        <ele>12</ele>
        <time>2022-04-02T05:43:30Z</time>
      </trkpt>
      <trkpt lat="47.22061" lon="-1.69724">
        <ele>11.2</ele>
        <time>2022-04-02T05:43:35Z</time>
      </trkpt>
      <trkpt lat="47.22062" lon="-1.69701">
        <ele>10.8</ele>
        <time>2022-04-02T05:43:40Z</time>
      </trkpt>
      <trkpt lat="47.22065" lon="-1.69672">
        <ele>10.4</ele>
        <time>2022-04-02T05:43:47Z</time>
      </trkpt>
      <trkpt lat="47.22073" lon="-1.69646">
        <ele>11.4</ele>
        <time>2022-04-02T05:43:53Z</time>
      </trkpt>
      <trkpt lat="47.2208" lon="-1.69621">
        <ele>12.6</ele>
        <time>2022-04-02T05:43:59Z</time>
      </trkpt>
      <trkpt lat="47.22098" lon="-1.69592">
        <ele>11.8</ele>
        <time>2022-04-02T05:44:05Z</time>
      </trkpt>
      <trkpt lat="47.221" lon="-1.69572">
        <ele>11.8</ele>
        <time>2022-04-02T05:44:09Z</time>
      </trkpt>
      <trkpt lat="47.22098" lon="-1.69563">
        <ele>12</ele>
        <time>2022-04-02T05:44:11Z</time>
      </trkpt>
      <trkpt lat="47.22095" lon="-1.69554">
        <ele>12</ele>
        <time>2022-04-02T05:44:13Z</time>
      </trkpt>
      <trkpt lat="47.22085" lon="-1.69525">
        <ele>12.6</ele>
        <time>2022-04-02T05:44:20Z</time>
      </trkpt>
      <trkpt lat="47.22079" lon="-1.69511">
        <ele>13</ele>
        <time>2022-04-02T05:44:25Z</time>
      </trkpt>
      <trkpt lat="47.22081" lon="-1.69503">
        <ele>13.2</ele>
        <time>2022-04-02T05:44:27Z</time>
      </trkpt>
      <trkpt lat="47.22085" lon="-1.695">
        <ele>13.2</ele>
        <time>2022-04-02T05:44:28Z</time>
      </trkpt>
      <trkpt lat="47.22091" lon="-1.69495">
        <ele>13.2</ele>
        <time>2022-04-02T05:44:30Z</time>
      </trkpt>
      <trkpt lat="47.22096" lon="-1.69492">
        <ele>13.2</ele>
        <time>2022-04-02T05:44:31Z</time>
      </trkpt>
      <trkpt lat="47.22111" lon="-1.69483">
        <ele>13</ele>
        <time>2022-04-02T05:44:34Z</time>
      </trkpt>
      <trkpt lat="47.22116" lon="-1.6948">
        <ele>13</ele>
        <time>2022-04-02T05:44:35Z</time>
      </trkpt>
      <trkpt lat="47.22126" lon="-1.69474">
        <ele>13.6</ele>
        <time>2022-04-02T05:44:37Z</time>
      </trkpt>
      <trkpt lat="47.22134" lon="-1.69467">
        <ele>12.4</ele>
        <time>2022-04-02T05:44:39Z</time>
      </trkpt>
      <trkpt lat="47.22142" lon="-1.6946">
        <ele>12.4</ele>
        <time>2022-04-02T05:44:41Z</time>
      </trkpt>
      <trkpt lat="47.22151" lon="-1.69452">
        <ele>12.2</ele>
        <time>2022-04-02T05:44:43Z</time>
      </trkpt>
      <trkpt lat="47.22162" lon="-1.69439">
        <ele>11.8</ele>
        <time>2022-04-02T05:44:45Z</time>
      </trkpt>
      <trkpt lat="47.22168" lon="-1.69432">
        <ele>11.8</ele>
        <time>2022-04-02T05:44:46Z</time>
      </trkpt>
      <trkpt lat="47.22188" lon="-1.69394">
        <ele>11.2</ele>
        <time>2022-04-02T05:44:50Z</time>
      </trkpt>
      <trkpt lat="47.22193" lon="-1.69385">
        <ele>11</ele>
        <time>2022-04-02T05:44:51Z</time>
      </trkpt>
      <trkpt lat="47.22205" lon="-1.69367">
        <ele>10.8</ele>
        <time>2022-04-02T05:44:53Z</time>
      </trkpt>
      <trkpt lat="47.22221" lon="-1.69358">
        <ele>10.4</ele>
        <time>2022-04-02T05:44:55Z</time>
      </trkpt>
      <trkpt lat="47.22229" lon="-1.69356">
        <ele>10.4</ele>
        <time>2022-04-02T05:44:56Z</time>
      </trkpt>
      <trkpt lat="47.22248" lon="-1.6935">
        <ele>10</ele>
        <time>2022-04-02T05:44:59Z</time>
      </trkpt>
      <trkpt lat="47.2226" lon="-1.69346">
        <ele>9.8</ele>
        <time>2022-04-02T05:45:01Z</time>
      </trkpt>
      <trkpt lat="47.22279" lon="-1.69342">
        <ele>9.4</ele>
        <time>2022-04-02T05:45:04Z</time>
      </trkpt>
      <trkpt lat="47.22294" lon="-1.69338">
        <ele>9</ele>
        <time>2022-04-02T05:45:07Z</time>
      </trkpt>
      <trkpt lat="47.223" lon="-1.69338">
        <ele>9</ele>
        <time>2022-04-02T05:45:08Z</time>
      </trkpt>
      <trkpt lat="47.22312" lon="-1.69338">
        <ele>8.4</ele>
        <time>2022-04-02T05:45:11Z</time>
      </trkpt>
      <trkpt lat="47.22318" lon="-1.69339">
        <ele>8.4</ele>
        <time>2022-04-02T05:45:12Z</time>
      </trkpt>
      <trkpt lat="47.22328" lon="-1.69339">
        <ele>8</ele>
        <time>2022-04-02T05:45:14Z</time>
      </trkpt>
      <trkpt lat="47.22345" lon="-1.6934">
        <ele>7.8</ele>
        <time>2022-04-02T05:45:17Z</time>
      </trkpt>
      <trkpt lat="47.22367" lon="-1.69341">
        <ele>7.4</ele>
        <time>2022-04-02T05:45:21Z</time>
      </trkpt>
      <trkpt lat="47.22384" lon="-1.69338">
        <ele>7.4</ele>
        <time>2022-04-02T05:45:25Z</time>
      </trkpt>
      <trkpt lat="47.22395" lon="-1.69333">
        <ele>7.2</ele>
        <time>2022-04-02T05:45:28Z</time>
      </trkpt>
      <trkpt lat="47.22404" lon="-1.69328">
        <ele>6.8</ele>
        <time>2022-04-02T05:45:31Z</time>
      </trkpt>
      <trkpt lat="47.22405" lon="-1.69326">
        <ele>6.6</ele>
        <time>2022-04-02T05:45:32Z</time>
      </trkpt>
      <trkpt lat="47.2241" lon="-1.69318">
        <ele>6.2</ele>
        <time>2022-04-02T05:45:35Z</time>
      </trkpt>
      <trkpt lat="47.22422" lon="-1.693">
        <ele>6.2</ele>
        <time>2022-04-02T05:45:39Z</time>
      </trkpt>
      <trkpt lat="47.2244" lon="-1.69273">
        <ele>6.6</ele>
        <time>2022-04-02T05:45:44Z</time>
      </trkpt>
      <trkpt lat="47.22461" lon="-1.69251">
        <ele>7.6</ele>
        <time>2022-04-02T05:45:49Z</time>
      </trkpt>
      <trkpt lat="47.22478" lon="-1.69244">
        <ele>7.8</ele>
        <time>2022-04-02T05:45:53Z</time>
      </trkpt>
      <trkpt lat="47.22499" lon="-1.69247">
        <ele>8.2</ele>
        <time>2022-04-02T05:45:57Z</time>
      </trkpt>
      <trkpt lat="47.22527" lon="-1.69256">
        <ele>9</ele>
        <time>2022-04-02T05:46:03Z</time>
      </trkpt>
      <trkpt lat="47.22531" lon="-1.69257">
        <ele>9</ele>
        <time>2022-04-02T05:46:04Z</time>
      </trkpt>
      <trkpt lat="47.22549" lon="-1.69263">
        <ele>9.4</ele>
        <time>2022-04-02T05:46:08Z</time>
      </trkpt>
      <trkpt lat="47.22573" lon="-1.69275">
        <ele>10.2</ele>
        <time>2022-04-02T05:46:14Z</time>
      </trkpt>
      <trkpt lat="47.22577" lon="-1.69275">
        <ele>10.4</ele>
        <time>2022-04-02T05:46:15Z</time>
      </trkpt>
      <trkpt lat="47.2259" lon="-1.69269">
        <ele>10.6</ele>
        <time>2022-04-02T05:46:19Z</time>
      </trkpt>
      <trkpt lat="47.22597" lon="-1.69262">
        <ele>10.8</ele>
        <time>2022-04-02T05:46:21Z</time>
      </trkpt>
      <trkpt lat="47.22605" lon="-1.69247">
        <ele>11.2</ele>
        <time>2022-04-02T05:46:24Z</time>
      </trkpt>
      <trkpt lat="47.22609" lon="-1.69225">
        <ele>11.8</ele>
        <time>2022-04-02T05:46:28Z</time>
      </trkpt>
      <trkpt lat="47.22613" lon="-1.69173">
        <ele>12.6</ele>
        <time>2022-04-02T05:46:37Z</time>
      </trkpt>
      <trkpt lat="47.22613" lon="-1.69149">
        <ele>13.2</ele>
        <time>2022-04-02T05:46:41Z</time>
      </trkpt>
      <trkpt lat="47.22613" lon="-1.69136">
        <ele>13.4</ele>
        <time>2022-04-02T05:46:43Z</time>
      </trkpt>
      <trkpt lat="47.22614" lon="-1.69129">
        <ele>13.4</ele>
        <time>2022-04-02T05:46:44Z</time>
      </trkpt>
      <trkpt lat="47.22615" lon="-1.69123">
        <ele>13.6</ele>
        <time>2022-04-02T05:46:45Z</time>
      </trkpt>
      <trkpt lat="47.22618" lon="-1.69111">
        <ele>14</ele>
        <time>2022-04-02T05:46:47Z</time>
      </trkpt>
      <trkpt lat="47.2262" lon="-1.69099">
        <ele>14.4</ele>
        <time>2022-04-02T05:46:49Z</time>
      </trkpt>
      <trkpt lat="47.22623" lon="-1.69087">
        <ele>14.6</ele>
        <time>2022-04-02T05:46:51Z</time>
      </trkpt>
      <trkpt lat="47.22628" lon="-1.69077">
        <ele>15</ele>
        <time>2022-04-02T05:46:53Z</time>
      </trkpt>
      <trkpt lat="47.22653" lon="-1.69036">
        <ele>16</ele>
        <time>2022-04-02T05:47:02Z</time>
      </trkpt>
      <trkpt lat="47.22672" lon="-1.69001">
        <ele>16.8</ele>
        <time>2022-04-02T05:47:10Z</time>
      </trkpt>
      <trkpt lat="47.22695" lon="-1.68968">
        <ele>18.2</ele>
        <time>2022-04-02T05:47:18Z</time>
      </trkpt>
      <trkpt lat="47.22718" lon="-1.68932">
        <ele>19.4</ele>
        <time>2022-04-02T05:47:27Z</time>
      </trkpt>
      <trkpt lat="47.22739" lon="-1.68898">
        <ele>20.8</ele>
        <time>2022-04-02T05:47:35Z</time>
      </trkpt>
      <trkpt lat="47.22761" lon="-1.68871">
        <ele>22</ele>
        <time>2022-04-02T05:47:43Z</time>
      </trkpt>
      <trkpt lat="47.22785" lon="-1.68847">
        <ele>23.2</ele>
        <time>2022-04-02T05:47:51Z</time>
      </trkpt>
      <trkpt lat="47.22814" lon="-1.68819">
        <ele>24.8</ele>
        <time>2022-04-02T05:48:00Z</time>
      </trkpt>
      <trkpt lat="47.22835" lon="-1.68797">
        <ele>25.6</ele>
        <time>2022-04-02T05:48:07Z</time>
      </trkpt>
      <trkpt lat="47.22859" lon="-1.6877">
        <ele>26.6</ele>
        <time>2022-04-02T05:48:15Z</time>
      </trkpt>
      <trkpt lat="47.22875" lon="-1.68751">
        <ele>27.2</ele>
        <time>2022-04-02T05:48:21Z</time>
      </trkpt>
      <trkpt lat="47.22891" lon="-1.68731">
        <ele>27.8</ele>
        <time>2022-04-02T05:48:27Z</time>
      </trkpt>
      <trkpt lat="47.22907" lon="-1.68712">
        <ele>28.2</ele>
        <time>2022-04-02T05:48:33Z</time>
      </trkpt>
      <trkpt lat="47.22923" lon="-1.68692">
        <ele>28.8</ele>
        <time>2022-04-02T05:48:39Z</time>
      </trkpt>
      <trkpt lat="47.22939" lon="-1.68674">
        <ele>29.6</ele>
        <time>2022-04-02T05:48:46Z</time>
      </trkpt>
      <trkpt lat="47.22952" lon="-1.68657">
        <ele>30</ele>
        <time>2022-04-02T05:48:51Z</time>
      </trkpt>
      <trkpt lat="47.22964" lon="-1.68641">
        <ele>30.2</ele>
        <time>2022-04-02T05:48:56Z</time>
      </trkpt>
      <trkpt lat="47.22973" lon="-1.68628">
        <ele>30</ele>
        <time>2022-04-02T05:49:00Z</time>
      </trkpt>
      <trkpt lat="47.22986" lon="-1.68612">
        <ele>30.2</ele>
        <time>2022-04-02T05:49:05Z</time>
      </trkpt>
      <trkpt lat="47.22989" lon="-1.68609">
        <ele>30.4</ele>
        <time>2022-04-02T05:49:07Z</time>
      </trkpt>
      <trkpt lat="47.23005" lon="-1.68593">
        <ele>33.6</ele>
        <time>2022-04-02T05:51:03Z</time>
      </trkpt>
      <trkpt lat="47.23007" lon="-1.68591">
        <ele>33.6</ele>
        <time>2022-04-02T05:51:04Z</time>
      </trkpt>
      <trkpt lat="47.2301" lon="-1.68586">
        <ele>33.6</ele>
        <time>2022-04-02T05:51:06Z</time>
      </trkpt>
      <trkpt lat="47.2302" lon="-1.68574">
        <ele>33.8</ele>
        <time>2022-04-02T05:51:11Z</time>
      </trkpt>
      <trkpt lat="47.23024" lon="-1.68569">
        <ele>33.8</ele>
        <time>2022-04-02T05:51:13Z</time>
      </trkpt>
      <trkpt lat="47.23029" lon="-1.68564">
        <ele>33.8</ele>
        <time>2022-04-02T05:51:15Z</time>
      </trkpt>
      <trkpt lat="47.23037" lon="-1.68551">
        <ele>34</ele>
        <time>2022-04-02T05:51:19Z</time>
      </trkpt>
      <trkpt lat="47.2305" lon="-1.68536">
        <ele>34.2</ele>
        <time>2022-04-02T05:51:24Z</time>
      </trkpt>
      <trkpt lat="47.23063" lon="-1.68523">
        <ele>34.6</ele>
        <time>2022-04-02T05:51:29Z</time>
      </trkpt>
      <trkpt lat="47.23079" lon="-1.6851">
        <ele>34.8</ele>
        <time>2022-04-02T05:51:35Z</time>
      </trkpt>
      <trkpt lat="47.23098" lon="-1.68494">
        <ele>35.2</ele>
        <time>2022-04-02T05:51:41Z</time>
      </trkpt>
      <trkpt lat="47.23108" lon="-1.68481">
        <ele>35.6</ele>
        <time>2022-04-02T05:51:46Z</time>
      </trkpt>
      <trkpt lat="47.23116" lon="-1.6847">
        <ele>36</ele>
        <time>2022-04-02T05:51:49Z</time>
      </trkpt>
      <trkpt lat="47.23131" lon="-1.68453">
        <ele>36.4</ele>
        <time>2022-04-02T05:51:54Z</time>
      </trkpt>
      <trkpt lat="47.23146" lon="-1.6843">
        <ele>37</ele>
        <time>2022-04-02T05:52:00Z</time>
      </trkpt>
      <trkpt lat="47.23156" lon="-1.6841">
        <ele>37</ele>
        <time>2022-04-02T05:52:05Z</time>
      </trkpt>
      <trkpt lat="47.23167" lon="-1.68391">
        <ele>37</ele>
        <time>2022-04-02T05:52:10Z</time>
      </trkpt>
      <trkpt lat="47.23174" lon="-1.68376">
        <ele>36.8</ele>
        <time>2022-04-02T05:52:14Z</time>
      </trkpt>
      <trkpt lat="47.23181" lon="-1.6836">
        <ele>36.8</ele>
        <time>2022-04-02T05:52:18Z</time>
      </trkpt>
      <trkpt lat="47.23189" lon="-1.68343">
        <ele>36.4</ele>
        <time>2022-04-02T05:52:22Z</time>
      </trkpt>
      <trkpt lat="47.2319" lon="-1.68339">
        <ele>36.2</ele>
        <time>2022-04-02T05:52:23Z</time>
      </trkpt>
      <trkpt lat="47.23192" lon="-1.68333">
        <ele>35.8</ele>
        <time>2022-04-02T05:52:25Z</time>
      </trkpt>
      <trkpt lat="47.23194" lon="-1.68329">
        <ele>35.4</ele>
        <time>2022-04-02T05:52:27Z</time>
      </trkpt>
      <trkpt lat="47.23195" lon="-1.68327">
        <ele>35.2</ele>
        <time>2022-04-02T05:52:29Z</time>
      </trkpt>
      <trkpt lat="47.23199" lon="-1.68322">
        <ele>34.4</ele>
        <time>2022-04-02T05:52:41Z</time>
      </trkpt>
      <trkpt lat="47.23203" lon="-1.68317">
        <ele>34.2</ele>
        <time>2022-04-02T05:52:43Z</time>
      </trkpt>
      <trkpt lat="47.23204" lon="-1.68314">
        <ele>34</ele>
        <time>2022-04-02T05:52:44Z</time>
      </trkpt>
      <trkpt lat="47.23208" lon="-1.68303">
        <ele>33.8</ele>
        <time>2022-04-02T05:52:47Z</time>
      </trkpt>
      <trkpt lat="47.23219" lon="-1.6829">
        <ele>33.8</ele>
        <time>2022-04-02T05:52:51Z</time>
      </trkpt>
      <trkpt lat="47.23231" lon="-1.6828">
        <ele>33.8</ele>
        <time>2022-04-02T05:52:54Z</time>
      </trkpt>
      <trkpt lat="47.23235" lon="-1.68274">
        <ele>33.6</ele>
        <time>2022-04-02T05:52:56Z</time>
      </trkpt>
      <trkpt lat="47.23239" lon="-1.6827">
        <ele>33.6</ele>
        <time>2022-04-02T05:52:58Z</time>
      </trkpt>
      <trkpt lat="47.23248" lon="-1.68253">
        <ele>33.6</ele>
        <time>2022-04-02T05:53:03Z</time>
      </trkpt>
      <trkpt lat="47.23253" lon="-1.6824">
        <ele>33.6</ele>
        <time>2022-04-02T05:53:07Z</time>
      </trkpt>
      <trkpt lat="47.23264" lon="-1.68225">
        <ele>33.4</ele>
        <time>2022-04-02T05:53:12Z</time>
      </trkpt>
      <trkpt lat="47.23265" lon="-1.68223">
        <ele>33.4</ele>
        <time>2022-04-02T05:53:13Z</time>
      </trkpt>
      <trkpt lat="47.23269" lon="-1.68217">
        <ele>33.4</ele>
        <time>2022-04-02T05:53:15Z</time>
      </trkpt>
      <trkpt lat="47.23274" lon="-1.68209">
        <ele>33.2</ele>
        <time>2022-04-02T05:53:18Z</time>
      </trkpt>
      <trkpt lat="47.23274" lon="-1.68206">
        <ele>33.2</ele>
        <time>2022-04-02T05:53:19Z</time>
      </trkpt>
      <trkpt lat="47.23275" lon="-1.68203">
        <ele>33.2</ele>
        <time>2022-04-02T05:53:20Z</time>
      </trkpt>
      <trkpt lat="47.23279" lon="-1.68194">
        <ele>33</ele>
        <time>2022-04-02T05:53:23Z</time>
      </trkpt>
      <trkpt lat="47.23282" lon="-1.68191">
        <ele>33</ele>
        <time>2022-04-02T05:53:26Z</time>
      </trkpt>
      <trkpt lat="47.23289" lon="-1.68182">
        <ele>32.8</ele>
        <time>2022-04-02T05:53:32Z</time>
      </trkpt>
      <trkpt lat="47.23293" lon="-1.68176">
        <ele>32.6</ele>
        <time>2022-04-02T05:53:34Z</time>
      </trkpt>
      <trkpt lat="47.23293" lon="-1.68173">
        <ele>32.6</ele>
        <time>2022-04-02T05:53:35Z</time>
      </trkpt>
      <trkpt lat="47.23294" lon="-1.68169">
        <ele>32.4</ele>
        <time>2022-04-02T05:53:36Z</time>
      </trkpt>
      <trkpt lat="47.23297" lon="-1.68159">
        <ele>32</ele>
        <time>2022-04-02T05:53:39Z</time>
      </trkpt>
      <trkpt lat="47.23299" lon="-1.68156">
        <ele>32</ele>
        <time>2022-04-02T05:53:40Z</time>
      </trkpt>
      <trkpt lat="47.23303" lon="-1.68149">
        <ele>31.8</ele>
        <time>2022-04-02T05:53:43Z</time>
      </trkpt>
      <trkpt lat="47.23306" lon="-1.68136">
        <ele>31.6</ele>
        <time>2022-04-02T05:53:48Z</time>
      </trkpt>
      <trkpt lat="47.23308" lon="-1.68134">
        <ele>31.6</ele>
        <time>2022-04-02T05:53:49Z</time>
      </trkpt>
      <trkpt lat="47.23315" lon="-1.68125">
        <ele>31.4</ele>
        <time>2022-04-02T05:53:53Z</time>
      </trkpt>
      <trkpt lat="47.23314" lon="-1.68123">
        <ele>32</ele>
        <time>2022-04-02T05:53:54Z</time>
      </trkpt>
      <trkpt lat="47.23315" lon="-1.68122">
        <ele>31.6</ele>
        <time>2022-04-02T05:53:56Z</time>
      </trkpt>
      <trkpt lat="47.23329" lon="-1.68108">
        <ele>33.4</ele>
        <time>2022-04-02T05:54:05Z</time>
      </trkpt>
      <trkpt lat="47.23332" lon="-1.68106">
        <ele>33.6</ele>
        <time>2022-04-02T05:54:06Z</time>
      </trkpt>
      <trkpt lat="47.23333" lon="-1.68103">
        <ele>33.6</ele>
        <time>2022-04-02T05:54:07Z</time>
      </trkpt>
      <trkpt lat="47.23336" lon="-1.68097">
        <ele>33.6</ele>
        <time>2022-04-02T05:54:09Z</time>
      </trkpt>
      <trkpt lat="47.23342" lon="-1.68088">
        <ele>33.8</ele>
        <time>2022-04-02T05:54:13Z</time>
      </trkpt>
      <trkpt lat="47.23343" lon="-1.68086">
        <ele>33.8</ele>
        <time>2022-04-02T05:54:14Z</time>
      </trkpt>
      <trkpt lat="47.23344" lon="-1.68084">
        <ele>33.8</ele>
        <time>2022-04-02T05:54:15Z</time>
      </trkpt>
      <trkpt lat="47.23345" lon="-1.68077">
        <ele>34</ele>
        <time>2022-04-02T05:54:18Z</time>
      </trkpt>
      <trkpt lat="47.23349" lon="-1.68072">
        <ele>34.2</ele>
        <time>2022-04-02T05:54:20Z</time>
      </trkpt>
      <trkpt lat="47.23352" lon="-1.68067">
        <ele>34.2</ele>
        <time>2022-04-02T05:54:22Z</time>
      </trkpt>
      <trkpt lat="47.23355" lon="-1.68061">
        <ele>34.4</ele>
        <time>2022-04-02T05:54:25Z</time>
      </trkpt>
      <trkpt lat="47.23357" lon="-1.68055">
        <ele>34.6</ele>
        <time>2022-04-02T05:54:27Z</time>
      </trkpt>
      <trkpt lat="47.23357" lon="-1.68049">
        <ele>34.4</ele>
        <time>2022-04-02T05:54:29Z</time>
      </trkpt>
      <trkpt lat="47.23357" lon="-1.68047">
        <ele>34.4</ele>
        <time>2022-04-02T05:54:30Z</time>
      </trkpt>
      <trkpt lat="47.23367" lon="-1.68039">
        <ele>35</ele>
        <time>2022-04-02T05:54:34Z</time>
      </trkpt>
      <trkpt lat="47.23377" lon="-1.6803">
        <ele>35.4</ele>
        <time>2022-04-02T05:54:38Z</time>
      </trkpt>
      <trkpt lat="47.23383" lon="-1.68025">
        <ele>35.6</ele>
        <time>2022-04-02T05:54:41Z</time>
      </trkpt>
      <trkpt lat="47.23383" lon="-1.68024">
        <ele>35.6</ele>
        <time>2022-04-02T05:54:42Z</time>
      </trkpt>
      <trkpt lat="47.23392" lon="-1.68016">
        <ele>36.4</ele>
        <time>2022-04-02T05:54:51Z</time>
      </trkpt>
      <trkpt lat="47.23395" lon="-1.68012">
        <ele>36.4</ele>
        <time>2022-04-02T05:54:52Z</time>
      </trkpt>
      <trkpt lat="47.23397" lon="-1.68009">
        <ele>36.6</ele>
        <time>2022-04-02T05:54:53Z</time>
      </trkpt>
      <trkpt lat="47.23402" lon="-1.68004">
        <ele>36.8</ele>
        <time>2022-04-02T05:54:55Z</time>
      </trkpt>
      <trkpt lat="47.23407" lon="-1.67994">
        <ele>37.2</ele>
        <time>2022-04-02T05:54:59Z</time>
      </trkpt>
      <trkpt lat="47.23411" lon="-1.67989">
        <ele>37.2</ele>
        <time>2022-04-02T05:55:02Z</time>
      </trkpt>
      <trkpt lat="47.23417" lon="-1.67982">
        <ele>37.2</ele>
        <time>2022-04-02T05:55:07Z</time>
      </trkpt>
      <trkpt lat="47.23419" lon="-1.67979">
        <ele>37.2</ele>
        <time>2022-04-02T05:55:09Z</time>
      </trkpt>
      <trkpt lat="47.23423" lon="-1.67974">
        <ele>37.2</ele>
        <time>2022-04-02T05:55:12Z</time>
      </trkpt>
      <trkpt lat="47.23426" lon="-1.6797">
        <ele>37.2</ele>
        <time>2022-04-02T05:55:14Z</time>
      </trkpt>
      <trkpt lat="47.2343" lon="-1.67961">
        <ele>37.2</ele>
        <time>2022-04-02T05:55:17Z</time>
      </trkpt>
      <trkpt lat="47.23431" lon="-1.67958">
        <ele>37</ele>
        <time>2022-04-02T05:55:18Z</time>
      </trkpt>
      <trkpt lat="47.23441" lon="-1.67944">
        <ele>37.4</ele>
        <time>2022-04-02T05:55:23Z</time>
      </trkpt>
      <trkpt lat="47.23447" lon="-1.67935">
        <ele>37.4</ele>
        <time>2022-04-02T05:55:26Z</time>
      </trkpt>
      <trkpt lat="47.2345" lon="-1.67929">
        <ele>37.4</ele>
        <time>2022-04-02T05:55:28Z</time>
      </trkpt>
      <trkpt lat="47.23454" lon="-1.67921">
        <ele>37.4</ele>
        <time>2022-04-02T05:55:31Z</time>
      </trkpt>
      <trkpt lat="47.23461" lon="-1.67916">
        <ele>37.6</ele>
        <time>2022-04-02T05:55:33Z</time>
      </trkpt>
      <trkpt lat="47.23461" lon="-1.67913">
        <ele>37.6</ele>
        <time>2022-04-02T05:55:35Z</time>
      </trkpt>
      <trkpt lat="47.23464" lon="-1.67907">
        <ele>37.4</ele>
        <time>2022-04-02T05:55:38Z</time>
      </trkpt>
      <trkpt lat="47.23463" lon="-1.67905">
        <ele>37.6</ele>
        <time>2022-04-02T05:55:39Z</time>
      </trkpt>
      <trkpt lat="47.23468" lon="-1.67899">
        <ele>37.6</ele>
        <time>2022-04-02T05:55:41Z</time>
      </trkpt>
      <trkpt lat="47.23468" lon="-1.67894">
        <ele>37.6</ele>
        <time>2022-04-02T05:55:43Z</time>
      </trkpt>
      <trkpt lat="47.23468" lon="-1.67891">
        <ele>37.6</ele>
        <time>2022-04-02T05:55:44Z</time>
      </trkpt>
      <trkpt lat="47.23469" lon="-1.67884">
        <ele>37.6</ele>
        <time>2022-04-02T05:55:47Z</time>
      </trkpt>
      <trkpt lat="47.23469" lon="-1.67884">
        <ele>37.6</ele>
        <time>2022-04-02T05:55:48Z</time>
      </trkpt>
      <trkpt lat="47.23511" lon="-1.67831">
        <ele>51.4</ele>
        <time>2022-04-02T05:58:41Z</time>
      </trkpt>
      <trkpt lat="47.23512" lon="-1.67828">
        <ele>51.4</ele>
        <time>2022-04-02T05:58:42Z</time>
      </trkpt>
      <trkpt lat="47.23513" lon="-1.67826">
        <ele>51.4</ele>
        <time>2022-04-02T05:58:43Z</time>
      </trkpt>
      <trkpt lat="47.23518" lon="-1.67818">
        <ele>51.4</ele>
        <time>2022-04-02T05:58:46Z</time>
      </trkpt>
      <trkpt lat="47.23526" lon="-1.67803">
        <ele>51.2</ele>
        <time>2022-04-02T05:58:51Z</time>
      </trkpt>
      <trkpt lat="47.2353" lon="-1.67797">
        <ele>51.2</ele>
        <time>2022-04-02T05:58:54Z</time>
      </trkpt>
      <trkpt lat="47.2353" lon="-1.67794">
        <ele>51.2</ele>
        <time>2022-04-02T05:58:55Z</time>
      </trkpt>
      <trkpt lat="47.23531" lon="-1.67792">
        <ele>51.2</ele>
        <time>2022-04-02T05:58:56Z</time>
      </trkpt>
      <trkpt lat="47.23535" lon="-1.67787">
        <ele>51.2</ele>
        <time>2022-04-02T05:58:58Z</time>
      </trkpt>
      <trkpt lat="47.23536" lon="-1.67784">
        <ele>51.2</ele>
        <time>2022-04-02T05:58:59Z</time>
      </trkpt>
      <trkpt lat="47.23544" lon="-1.6777">
        <ele>51.2</ele>
        <time>2022-04-02T05:59:04Z</time>
      </trkpt>
      <trkpt lat="47.23545" lon="-1.67767">
        <ele>50.8</ele>
        <time>2022-04-02T05:59:05Z</time>
      </trkpt>
      <trkpt lat="47.23545" lon="-1.67764">
        <ele>51</ele>
        <time>2022-04-02T05:59:06Z</time>
      </trkpt>
      <trkpt lat="47.23546" lon="-1.67751">
        <ele>51</ele>
        <time>2022-04-02T05:59:09Z</time>
      </trkpt>
      <trkpt lat="47.23547" lon="-1.67736">
        <ele>50.8</ele>
        <time>2022-04-02T05:59:13Z</time>
      </trkpt>
      <trkpt lat="47.23548" lon="-1.67713">
        <ele>50.8</ele>
        <time>2022-04-02T05:59:19Z</time>
      </trkpt>
      <trkpt lat="47.23548" lon="-1.67694">
        <ele>51.4</ele>
        <time>2022-04-02T05:59:24Z</time>
      </trkpt>
      <trkpt lat="47.23548" lon="-1.6767">
        <ele>51.4</ele>
        <time>2022-04-02T05:59:30Z</time>
      </trkpt>
      <trkpt lat="47.23548" lon="-1.67649">
        <ele>51.4</ele>
        <time>2022-04-02T05:59:35Z</time>
      </trkpt>
      <trkpt lat="47.2355" lon="-1.67617">
        <ele>51</ele>
        <time>2022-04-02T05:59:42Z</time>
      </trkpt>
      <trkpt lat="47.23557" lon="-1.67573">
        <ele>50.8</ele>
        <time>2022-04-02T05:59:50Z</time>
      </trkpt>
      <trkpt lat="47.23564" lon="-1.67514">
        <ele>51.4</ele>
        <time>2022-04-02T06:00:00Z</time>
      </trkpt>
      <trkpt lat="47.23564" lon="-1.67458">
        <ele>51.8</ele>
        <time>2022-04-02T06:00:09Z</time>
      </trkpt>
      <trkpt lat="47.23563" lon="-1.67422">
        <ele>52</ele>
        <time>2022-04-02T06:00:15Z</time>
      </trkpt>
      <trkpt lat="47.23567" lon="-1.67396">
        <ele>52</ele>
        <time>2022-04-02T06:00:19Z</time>
      </trkpt>
      <trkpt lat="47.23569" lon="-1.67384">
        <ele>52</ele>
        <time>2022-04-02T06:00:21Z</time>
      </trkpt>
      <trkpt lat="47.23583" lon="-1.6734">
        <ele>51.8</ele>
        <time>2022-04-02T06:00:29Z</time>
      </trkpt>
      <trkpt lat="47.23599" lon="-1.67296">
        <ele>51.8</ele>
        <time>2022-04-02T06:00:37Z</time>
      </trkpt>
      <trkpt lat="47.23621" lon="-1.67236">
        <ele>51.6</ele>
        <time>2022-04-02T06:00:47Z</time>
      </trkpt>
      <trkpt lat="47.23631" lon="-1.67207">
        <ele>51.8</ele>
        <time>2022-04-02T06:00:52Z</time>
      </trkpt>
      <trkpt lat="47.23632" lon="-1.67201">
        <ele>51.8</ele>
        <time>2022-04-02T06:00:53Z</time>
      </trkpt>
      <trkpt lat="47.23632" lon="-1.67195">
        <ele>51.8</ele>
        <time>2022-04-02T06:00:54Z</time>
      </trkpt>
      <trkpt lat="47.2363" lon="-1.67177">
        <ele>52</ele>
        <time>2022-04-02T06:00:57Z</time>
      </trkpt>
      <trkpt lat="47.2363" lon="-1.67171">
        <ele>52</ele>
        <time>2022-04-02T06:00:58Z</time>
      </trkpt>
      <trkpt lat="47.23635" lon="-1.67162">
        <ele>52</ele>
        <time>2022-04-02T06:01:00Z</time>
      </trkpt>
      <trkpt lat="47.23648" lon="-1.67158">
        <ele>52.4</ele>
        <time>2022-04-02T06:01:04Z</time>
      </trkpt>
      <trkpt lat="47.23658" lon="-1.67168">
        <ele>52.4</ele>
        <time>2022-04-02T06:01:07Z</time>
      </trkpt>
      <trkpt lat="47.23662" lon="-1.6717">
        <ele>52.4</ele>
        <time>2022-04-02T06:01:08Z</time>
      </trkpt>
      <trkpt lat="47.23666" lon="-1.67172">
        <ele>52.6</ele>
        <time>2022-04-02T06:01:09Z</time>
      </trkpt>
      <trkpt lat="47.23675" lon="-1.67171">
        <ele>52.6</ele>
        <time>2022-04-02T06:01:11Z</time>
      </trkpt>
      <trkpt lat="47.23719" lon="-1.67162">
        <ele>53</ele>
        <time>2022-04-02T06:01:20Z</time>
      </trkpt>
      <trkpt lat="47.23728" lon="-1.67159">
        <ele>53.2</ele>
        <time>2022-04-02T06:01:22Z</time>
      </trkpt>
      <trkpt lat="47.23741" lon="-1.67154">
        <ele>53.4</ele>
        <time>2022-04-02T06:01:25Z</time>
      </trkpt>
      <trkpt lat="47.23766" lon="-1.67146">
        <ele>53.6</ele>
        <time>2022-04-02T06:01:30Z</time>
      </trkpt>
      <trkpt lat="47.23806" lon="-1.67133">
        <ele>54.2</ele>
        <time>2022-04-02T06:01:38Z</time>
      </trkpt>
      <trkpt lat="47.23842" lon="-1.67131">
        <ele>54.6</ele>
        <time>2022-04-02T06:01:45Z</time>
      </trkpt>
      <trkpt lat="47.23855" lon="-1.67133">
        <ele>54.8</ele>
        <time>2022-04-02T06:01:48Z</time>
      </trkpt>
      <trkpt lat="47.2388" lon="-1.67144">
        <ele>55.2</ele>
        <time>2022-04-02T06:01:53Z</time>
      </trkpt>
      <trkpt lat="47.23923" lon="-1.67168">
        <ele>55.8</ele>
        <time>2022-04-02T06:02:02Z</time>
      </trkpt>
      <trkpt lat="47.23949" lon="-1.67187">
        <ele>56</ele>
        <time>2022-04-02T06:02:08Z</time>
      </trkpt>
      <trkpt lat="47.23967" lon="-1.67213">
        <ele>56.2</ele>
        <time>2022-04-02T06:02:13Z</time>
      </trkpt>
      <trkpt lat="47.23977" lon="-1.6723">
        <ele>56.4</ele>
        <time>2022-04-02T06:02:16Z</time>
      </trkpt>
      <trkpt lat="47.23988" lon="-1.67245">
        <ele>56.6</ele>
        <time>2022-04-02T06:02:19Z</time>
      </trkpt>
      <trkpt lat="47.24016" lon="-1.67271">
        <ele>56.8</ele>
        <time>2022-04-02T06:02:25Z</time>
      </trkpt>
      <trkpt lat="47.2404" lon="-1.67283">
        <ele>56.8</ele>
        <time>2022-04-02T06:02:29Z</time>
      </trkpt>
      <trkpt lat="47.24053" lon="-1.67286">
        <ele>56.8</ele>
        <time>2022-04-02T06:02:31Z</time>
      </trkpt>
      <trkpt lat="47.24097" lon="-1.67289">
        <ele>57</ele>
        <time>2022-04-02T06:02:37Z</time>
      </trkpt>
      <trkpt lat="47.24125" lon="-1.67291">
        <ele>56.2</ele>
        <time>2022-04-02T06:02:41Z</time>
      </trkpt>
      <trkpt lat="47.24166" lon="-1.67289">
        <ele>55.8</ele>
        <time>2022-04-02T06:02:47Z</time>
      </trkpt>
      <trkpt lat="47.24188" lon="-1.67283">
        <ele>55.8</ele>
        <time>2022-04-02T06:02:50Z</time>
      </trkpt>
      <trkpt lat="47.24207" lon="-1.67274">
        <ele>55.6</ele>
        <time>2022-04-02T06:02:53Z</time>
      </trkpt>
      <trkpt lat="47.24214" lon="-1.6727">
        <ele>55.4</ele>
        <time>2022-04-02T06:02:54Z</time>
      </trkpt>
      <trkpt lat="47.24224" lon="-1.67258">
        <ele>55.4</ele>
        <time>2022-04-02T06:02:56Z</time>
      </trkpt>
      <trkpt lat="47.24228" lon="-1.6724">
        <ele>55.4</ele>
        <time>2022-04-02T06:02:58Z</time>
      </trkpt>
      <trkpt lat="47.24229" lon="-1.67231">
        <ele>55.2</ele>
        <time>2022-04-02T06:02:59Z</time>
      </trkpt>
      <trkpt lat="47.24229" lon="-1.67222">
        <ele>55.2</ele>
        <time>2022-04-02T06:03:00Z</time>
      </trkpt>
      <trkpt lat="47.24227" lon="-1.67206">
        <ele>55</ele>
        <time>2022-04-02T06:03:02Z</time>
      </trkpt>
      <trkpt lat="47.24225" lon="-1.67199">
        <ele>55</ele>
        <time>2022-04-02T06:03:03Z</time>
      </trkpt>
      <trkpt lat="47.24221" lon="-1.67177">
        <ele>54.8</ele>
        <time>2022-04-02T06:03:06Z</time>
      </trkpt>
      <trkpt lat="47.24221" lon="-1.67164">
        <ele>54.8</ele>
        <time>2022-04-02T06:03:08Z</time>
      </trkpt>
      <trkpt lat="47.24225" lon="-1.67136">
        <ele>54.4</ele>
        <time>2022-04-02T06:03:13Z</time>
      </trkpt>
      <trkpt lat="47.24225" lon="-1.67133">
        <ele>54.2</ele>
        <time>2022-04-02T06:03:14Z</time>
      </trkpt>
      <trkpt lat="47.24227" lon="-1.67132">
        <ele>54</ele>
        <time>2022-04-02T06:03:16Z</time>
      </trkpt>
      <trkpt lat="47.2423" lon="-1.67137">
        <ele>53.8</ele>
        <time>2022-04-02T06:03:18Z</time>
      </trkpt>
      <trkpt lat="47.24229" lon="-1.67145">
        <ele>53.4</ele>
        <time>2022-04-02T06:03:20Z</time>
      </trkpt>
      <trkpt lat="47.24225" lon="-1.67176">
        <ele>52.8</ele>
        <time>2022-04-02T06:03:26Z</time>
      </trkpt>
      <trkpt lat="47.24232" lon="-1.67192">
        <ele>52.4</ele>
        <time>2022-04-02T06:03:30Z</time>
      </trkpt>
      <trkpt lat="47.24239" lon="-1.67192">
        <ele>52.2</ele>
        <time>2022-04-02T06:03:33Z</time>
      </trkpt>
      <trkpt lat="47.24241" lon="-1.67189">
        <ele>52.2</ele>
        <time>2022-04-02T06:03:34Z</time>
      </trkpt>
      <trkpt lat="47.24246" lon="-1.67174">
        <ele>52.2</ele>
        <time>2022-04-02T06:03:37Z</time>
      </trkpt>
      <trkpt lat="47.24242" lon="-1.67145">
        <ele>52</ele>
        <time>2022-04-02T06:03:41Z</time>
      </trkpt>
      <trkpt lat="47.24241" lon="-1.6713">
        <ele>52</ele>
        <time>2022-04-02T06:03:43Z</time>
      </trkpt>
      <trkpt lat="47.24242" lon="-1.67109">
        <ele>52</ele>
        <time>2022-04-02T06:03:46Z</time>
      </trkpt>
      <trkpt lat="47.24242" lon="-1.67084">
        <ele>52.2</ele>
        <time>2022-04-02T06:03:50Z</time>
      </trkpt>
      <trkpt lat="47.24242" lon="-1.67066">
        <ele>51.8</ele>
        <time>2022-04-02T06:03:53Z</time>
      </trkpt>
      <trkpt lat="47.24247" lon="-1.6702">
        <ele>52.6</ele>
        <time>2022-04-02T06:04:00Z</time>
      </trkpt>
      <trkpt lat="47.24258" lon="-1.66965">
        <ele>52.6</ele>
        <time>2022-04-02T06:04:08Z</time>
      </trkpt>
      <trkpt lat="47.2427" lon="-1.66905">
        <ele>52.6</ele>
        <time>2022-04-02T06:04:16Z</time>
      </trkpt>
      <trkpt lat="47.24276" lon="-1.66874">
        <ele>52.8</ele>
        <time>2022-04-02T06:04:20Z</time>
      </trkpt>
      <trkpt lat="47.24284" lon="-1.66853">
        <ele>52.8</ele>
        <time>2022-04-02T06:04:23Z</time>
      </trkpt>
      <trkpt lat="47.24286" lon="-1.66846">
        <ele>52.8</ele>
        <time>2022-04-02T06:04:24Z</time>
      </trkpt>
      <trkpt lat="47.2429" lon="-1.66824">
        <ele>53</ele>
        <time>2022-04-02T06:04:27Z</time>
      </trkpt>
      <trkpt lat="47.24297" lon="-1.66814">
        <ele>52.8</ele>
        <time>2022-04-02T06:04:29Z</time>
      </trkpt>
      <trkpt lat="47.24302" lon="-1.66812">
        <ele>53</ele>
        <time>2022-04-02T06:04:30Z</time>
      </trkpt>
      <trkpt lat="47.24308" lon="-1.66812">
        <ele>53</ele>
        <time>2022-04-02T06:04:31Z</time>
      </trkpt>
      <trkpt lat="47.24318" lon="-1.66818">
        <ele>53</ele>
        <time>2022-04-02T06:04:33Z</time>
      </trkpt>
      <trkpt lat="47.24326" lon="-1.6683">
        <ele>53</ele>
        <time>2022-04-02T06:04:35Z</time>
      </trkpt>
      <trkpt lat="47.24336" lon="-1.6684">
        <ele>53</ele>
        <time>2022-04-02T06:04:37Z</time>
      </trkpt>
      <trkpt lat="47.24368" lon="-1.66871">
        <ele>53</ele>
        <time>2022-04-02T06:04:43Z</time>
      </trkpt>
      <trkpt lat="47.24412" lon="-1.66925">
        <ele>52.4</ele>
        <time>2022-04-02T06:04:51Z</time>
      </trkpt>
      <trkpt lat="47.24422" lon="-1.6694">
        <ele>52.2</ele>
        <time>2022-04-02T06:04:53Z</time>
      </trkpt>
      <trkpt lat="47.24435" lon="-1.66961">
        <ele>52</ele>
        <time>2022-04-02T06:04:56Z</time>
      </trkpt>
      <trkpt lat="47.2444" lon="-1.66967">
        <ele>52</ele>
        <time>2022-04-02T06:04:57Z</time>
      </trkpt>
      <trkpt lat="47.2445" lon="-1.66979">
        <ele>51.8</ele>
        <time>2022-04-02T06:04:59Z</time>
      </trkpt>
      <trkpt lat="47.2446" lon="-1.66992">
        <ele>51.8</ele>
        <time>2022-04-02T06:05:01Z</time>
      </trkpt>
      <trkpt lat="47.24485" lon="-1.67009">
        <ele>51.6</ele>
        <time>2022-04-02T06:05:05Z</time>
      </trkpt>
      <trkpt lat="47.24514" lon="-1.67025">
        <ele>51.6</ele>
        <time>2022-04-02T06:05:10Z</time>
      </trkpt>
      <trkpt lat="47.24519" lon="-1.67028">
        <ele>51.6</ele>
        <time>2022-04-02T06:05:11Z</time>
      </trkpt>
      <trkpt lat="47.24548" lon="-1.67033">
        <ele>51.8</ele>
        <time>2022-04-02T06:05:16Z</time>
      </trkpt>
      <trkpt lat="47.24583" lon="-1.67029">
        <ele>51.6</ele>
        <time>2022-04-02T06:05:22Z</time>
      </trkpt>
      <trkpt lat="47.24623" lon="-1.67015">
        <ele>51.6</ele>
        <time>2022-04-02T06:05:29Z</time>
      </trkpt>
      <trkpt lat="47.24639" lon="-1.67009">
        <ele>51.4</ele>
        <time>2022-04-02T06:05:32Z</time>
      </trkpt>
      <trkpt lat="47.24654" lon="-1.66999">
        <ele>51.4</ele>
        <time>2022-04-02T06:05:35Z</time>
      </trkpt>
      <trkpt lat="47.24676" lon="-1.66981">
        <ele>51</ele>
        <time>2022-04-02T06:05:39Z</time>
      </trkpt>
      <trkpt lat="47.24681" lon="-1.66976">
        <ele>51</ele>
        <time>2022-04-02T06:05:40Z</time>
      </trkpt>
      <trkpt lat="47.24694" lon="-1.66957">
        <ele>50.6</ele>
        <time>2022-04-02T06:05:43Z</time>
      </trkpt>
      <trkpt lat="47.24703" lon="-1.66945">
        <ele>50.6</ele>
        <time>2022-04-02T06:05:45Z</time>
      </trkpt>
      <trkpt lat="47.24712" lon="-1.66934">
        <ele>50.4</ele>
        <time>2022-04-02T06:05:47Z</time>
      </trkpt>
      <trkpt lat="47.24744" lon="-1.66911">
        <ele>50.2</ele>
        <time>2022-04-02T06:05:53Z</time>
      </trkpt>
      <trkpt lat="47.24783" lon="-1.66885">
        <ele>50</ele>
        <time>2022-04-02T06:06:00Z</time>
      </trkpt>
      <trkpt lat="47.2481" lon="-1.6686">
        <ele>49.8</ele>
        <time>2022-04-02T06:06:05Z</time>
      </trkpt>
      <trkpt lat="47.24839" lon="-1.66843">
        <ele>49.4</ele>
        <time>2022-04-02T06:06:10Z</time>
      </trkpt>
      <trkpt lat="47.24881" lon="-1.6683">
        <ele>49.2</ele>
        <time>2022-04-02T06:06:17Z</time>
      </trkpt>
      <trkpt lat="47.24911" lon="-1.66821">
        <ele>49</ele>
        <time>2022-04-02T06:06:22Z</time>
      </trkpt>
      <trkpt lat="47.24942" lon="-1.66811">
        <ele>48.8</ele>
        <time>2022-04-02T06:06:27Z</time>
      </trkpt>
      <trkpt lat="47.24954" lon="-1.66807">
        <ele>48.6</ele>
        <time>2022-04-02T06:06:29Z</time>
      </trkpt>
      <trkpt lat="47.2496" lon="-1.66805">
        <ele>48.6</ele>
        <time>2022-04-02T06:06:30Z</time>
      </trkpt>
      <trkpt lat="47.24995" lon="-1.66795">
        <ele>48</ele>
        <time>2022-04-02T06:06:36Z</time>
      </trkpt>
      <trkpt lat="47.25026" lon="-1.66791">
        <ele>47.6</ele>
        <time>2022-04-02T06:06:41Z</time>
      </trkpt>
      <trkpt lat="47.25044" lon="-1.6679">
        <ele>47.4</ele>
        <time>2022-04-02T06:06:44Z</time>
      </trkpt>
      <trkpt lat="47.25051" lon="-1.66791">
        <ele>47.2</ele>
        <time>2022-04-02T06:06:45Z</time>
      </trkpt>
      <trkpt lat="47.25069" lon="-1.66791">
        <ele>46.8</ele>
        <time>2022-04-02T06:06:48Z</time>
      </trkpt>
      <trkpt lat="47.25096" lon="-1.66799">
        <ele>46.2</ele>
        <time>2022-04-02T06:06:52Z</time>
      </trkpt>
      <trkpt lat="47.25126" lon="-1.66808">
        <ele>45.6</ele>
        <time>2022-04-02T06:06:56Z</time>
      </trkpt>
      <trkpt lat="47.25169" lon="-1.66821">
        <ele>44.6</ele>
        <time>2022-04-02T06:07:01Z</time>
      </trkpt>
      <trkpt lat="47.25209" lon="-1.66833">
        <ele>44.2</ele>
        <time>2022-04-02T06:07:06Z</time>
      </trkpt>
      <trkpt lat="47.25246" lon="-1.66839">
        <ele>44</ele>
        <time>2022-04-02T06:07:12Z</time>
      </trkpt>
      <trkpt lat="47.25282" lon="-1.66844">
        <ele>44</ele>
        <time>2022-04-02T06:07:19Z</time>
      </trkpt>
      <trkpt lat="47.25307" lon="-1.66847">
        <ele>44</ele>
        <time>2022-04-02T06:07:24Z</time>
      </trkpt>
      <trkpt lat="47.25337" lon="-1.66851">
        <ele>44</ele>
        <time>2022-04-02T06:07:30Z</time>
      </trkpt>
      <trkpt lat="47.25366" lon="-1.66857">
        <ele>44.2</ele>
        <time>2022-04-02T06:07:36Z</time>
      </trkpt>
      <trkpt lat="47.25401" lon="-1.66861">
        <ele>44.6</ele>
        <time>2022-04-02T06:07:43Z</time>
      </trkpt>
      <trkpt lat="47.25436" lon="-1.66866">
        <ele>44.8</ele>
        <time>2022-04-02T06:07:50Z</time>
      </trkpt>
      <trkpt lat="47.25465" lon="-1.66871">
        <ele>45</ele>
        <time>2022-04-02T06:07:56Z</time>
      </trkpt>
      <trkpt lat="47.25489" lon="-1.66874">
        <ele>45.2</ele>
        <time>2022-04-02T06:08:01Z</time>
      </trkpt>
      <trkpt lat="47.25512" lon="-1.66875">
        <ele>45.2</ele>
        <time>2022-04-02T06:08:06Z</time>
      </trkpt>
      <trkpt lat="47.25516" lon="-1.66874">
        <ele>45.2</ele>
        <time>2022-04-02T06:08:07Z</time>
      </trkpt>
      <trkpt lat="47.25521" lon="-1.66873">
        <ele>45.2</ele>
        <time>2022-04-02T06:08:08Z</time>
      </trkpt>
      <trkpt lat="47.25532" lon="-1.66875">
        <ele>45.2</ele>
        <time>2022-04-02T06:08:10Z</time>
      </trkpt>
      <trkpt lat="47.25546" lon="-1.6688">
        <ele>45</ele>
        <time>2022-04-02T06:08:13Z</time>
      </trkpt>
      <trkpt lat="47.2555" lon="-1.66881">
        <ele>45</ele>
        <time>2022-04-02T06:08:14Z</time>
      </trkpt>
      <trkpt lat="47.25574" lon="-1.66883">
        <ele>45.2</ele>
        <time>2022-04-02T06:08:19Z</time>
      </trkpt>
      <trkpt lat="47.25609" lon="-1.66886">
        <ele>45.2</ele>
        <time>2022-04-02T06:08:26Z</time>
      </trkpt>
      <trkpt lat="47.25644" lon="-1.66889">
        <ele>45.2</ele>
        <time>2022-04-02T06:08:33Z</time>
      </trkpt>
      <trkpt lat="47.25649" lon="-1.66889">
        <ele>45.2</ele>
        <time>2022-04-02T06:08:34Z</time>
      </trkpt>
      <trkpt lat="47.25678" lon="-1.66887">
        <ele>45.4</ele>
        <time>2022-04-02T06:08:40Z</time>
      </trkpt>
      <trkpt lat="47.25688" lon="-1.66883">
        <ele>45.6</ele>
        <time>2022-04-02T06:08:42Z</time>
      </trkpt>
      <trkpt lat="47.25699" lon="-1.66886">
        <ele>45.6</ele>
        <time>2022-04-02T06:08:44Z</time>
      </trkpt>
      <trkpt lat="47.25712" lon="-1.66892">
        <ele>45.6</ele>
        <time>2022-04-02T06:08:47Z</time>
      </trkpt>
      <trkpt lat="47.25722" lon="-1.66894">
        <ele>45.8</ele>
        <time>2022-04-02T06:08:49Z</time>
      </trkpt>
      <trkpt lat="47.25751" lon="-1.66897">
        <ele>45.8</ele>
        <time>2022-04-02T06:08:55Z</time>
      </trkpt>
      <trkpt lat="47.25775" lon="-1.66902">
        <ele>46.2</ele>
        <time>2022-04-02T06:09:00Z</time>
      </trkpt>
      <trkpt lat="47.25802" lon="-1.66906">
        <ele>46.6</ele>
        <time>2022-04-02T06:09:06Z</time>
      </trkpt>
      <trkpt lat="47.25824" lon="-1.66911">
        <ele>46.6</ele>
        <time>2022-04-02T06:09:11Z</time>
      </trkpt>
      <trkpt lat="47.25853" lon="-1.66918">
        <ele>46.6</ele>
        <time>2022-04-02T06:09:17Z</time>
      </trkpt>
      <trkpt lat="47.2589" lon="-1.6693">
        <ele>47.2</ele>
        <time>2022-04-02T06:09:25Z</time>
      </trkpt>
      <trkpt lat="47.25921" lon="-1.66942">
        <ele>47.6</ele>
        <time>2022-04-02T06:09:32Z</time>
      </trkpt>
      <trkpt lat="47.25948" lon="-1.66953">
        <ele>48.2</ele>
        <time>2022-04-02T06:09:38Z</time>
      </trkpt>
      <trkpt lat="47.2598" lon="-1.66968">
        <ele>49</ele>
        <time>2022-04-02T06:09:45Z</time>
      </trkpt>
      <trkpt lat="47.26014" lon="-1.66983">
        <ele>49.8</ele>
        <time>2022-04-02T06:09:53Z</time>
      </trkpt>
      <trkpt lat="47.26045" lon="-1.66997">
        <ele>50.8</ele>
        <time>2022-04-02T06:10:01Z</time>
      </trkpt>
      <trkpt lat="47.26073" lon="-1.67009">
        <ele>51.6</ele>
        <time>2022-04-02T06:10:08Z</time>
      </trkpt>
      <trkpt lat="47.26101" lon="-1.67022">
        <ele>52.4</ele>
        <time>2022-04-02T06:10:15Z</time>
      </trkpt>
      <trkpt lat="47.26134" lon="-1.67037">
        <ele>53.2</ele>
        <time>2022-04-02T06:10:23Z</time>
      </trkpt>
      <trkpt lat="47.26158" lon="-1.67049">
        <ele>54</ele>
        <time>2022-04-02T06:10:29Z</time>
      </trkpt>
      <trkpt lat="47.26177" lon="-1.67057">
        <ele>54.4</ele>
        <time>2022-04-02T06:10:34Z</time>
      </trkpt>
      <trkpt lat="47.26197" lon="-1.67059">
        <ele>54.8</ele>
        <time>2022-04-02T06:10:39Z</time>
      </trkpt>
      <trkpt lat="47.26201" lon="-1.67062">
        <ele>55</ele>
        <time>2022-04-02T06:10:40Z</time>
      </trkpt>
      <trkpt lat="47.26205" lon="-1.67072">
        <ele>55.2</ele>
        <time>2022-04-02T06:10:42Z</time>
      </trkpt>
      <trkpt lat="47.26209" lon="-1.67095">
        <ele>55.6</ele>
        <time>2022-04-02T06:10:46Z</time>
      </trkpt>
      <trkpt lat="47.26211" lon="-1.671">
        <ele>55.6</ele>
        <time>2022-04-02T06:10:47Z</time>
      </trkpt>
      <trkpt lat="47.26219" lon="-1.67125">
        <ele>56</ele>
        <time>2022-04-02T06:10:52Z</time>
      </trkpt>
      <trkpt lat="47.26222" lon="-1.67137">
        <ele>56</ele>
        <time>2022-04-02T06:10:54Z</time>
      </trkpt>
      <trkpt lat="47.26226" lon="-1.67156">
        <ele>56.2</ele>
        <time>2022-04-02T06:10:57Z</time>
      </trkpt>
      <trkpt lat="47.26237" lon="-1.67206">
        <ele>56.4</ele>
        <time>2022-04-02T06:11:05Z</time>
      </trkpt>
      <trkpt lat="47.26239" lon="-1.67219">
        <ele>56.4</ele>
        <time>2022-04-02T06:11:07Z</time>
      </trkpt>
      <trkpt lat="47.26242" lon="-1.67232">
        <ele>56.6</ele>
        <time>2022-04-02T06:11:09Z</time>
      </trkpt>
      <trkpt lat="47.26246" lon="-1.6725">
        <ele>56.8</ele>
        <time>2022-04-02T06:11:12Z</time>
      </trkpt>
      <trkpt lat="47.26247" lon="-1.67263">
        <ele>56.8</ele>
        <time>2022-04-02T06:11:14Z</time>
      </trkpt>
      <trkpt lat="47.26245" lon="-1.67278">
        <ele>57</ele>
        <time>2022-04-02T06:11:16Z</time>
      </trkpt>
      <trkpt lat="47.2625" lon="-1.67305">
        <ele>57.2</ele>
        <time>2022-04-02T06:11:20Z</time>
      </trkpt>
      <trkpt lat="47.26252" lon="-1.67318">
        <ele>57.2</ele>
        <time>2022-04-02T06:11:22Z</time>
      </trkpt>
      <trkpt lat="47.26256" lon="-1.67339">
        <ele>57.2</ele>
        <time>2022-04-02T06:11:25Z</time>
      </trkpt>
      <trkpt lat="47.26259" lon="-1.67353">
        <ele>57.2</ele>
        <time>2022-04-02T06:11:27Z</time>
      </trkpt>
      <trkpt lat="47.26261" lon="-1.67367">
        <ele>57.2</ele>
        <time>2022-04-02T06:11:29Z</time>
      </trkpt>
      <trkpt lat="47.26263" lon="-1.67374">
        <ele>57.2</ele>
        <time>2022-04-02T06:11:30Z</time>
      </trkpt>
      <trkpt lat="47.26268" lon="-1.67395">
        <ele>57.2</ele>
        <time>2022-04-02T06:11:33Z</time>
      </trkpt>
      <trkpt lat="47.26273" lon="-1.67426">
        <ele>57.2</ele>
        <time>2022-04-02T06:11:37Z</time>
      </trkpt>
      <trkpt lat="47.26285" lon="-1.67499">
        <ele>57.6</ele>
        <time>2022-04-02T06:11:46Z</time>
      </trkpt>
      <trkpt lat="47.26298" lon="-1.67564">
        <ele>57.6</ele>
        <time>2022-04-02T06:11:54Z</time>
      </trkpt>
      <trkpt lat="47.26306" lon="-1.676">
        <ele>57.8</ele>
        <time>2022-04-02T06:11:59Z</time>
      </trkpt>
      <trkpt lat="47.26308" lon="-1.67606">
        <ele>57.8</ele>
        <time>2022-04-02T06:12:00Z</time>
      </trkpt>
      <trkpt lat="47.26313" lon="-1.6762">
        <ele>57.8</ele>
        <time>2022-04-02T06:12:02Z</time>
      </trkpt>
      <trkpt lat="47.26317" lon="-1.67643">
        <ele>57.8</ele>
        <time>2022-04-02T06:12:05Z</time>
      </trkpt>
      <trkpt lat="47.26331" lon="-1.67709">
        <ele>58</ele>
        <time>2022-04-02T06:12:14Z</time>
      </trkpt>
      <trkpt lat="47.26335" lon="-1.67722">
        <ele>58</ele>
        <time>2022-04-02T06:12:16Z</time>
      </trkpt>
      <trkpt lat="47.26343" lon="-1.67747">
        <ele>58</ele>
        <time>2022-04-02T06:12:20Z</time>
      </trkpt>
      <trkpt lat="47.26356" lon="-1.67798">
        <ele>58.2</ele>
        <time>2022-04-02T06:12:28Z</time>
      </trkpt>
      <trkpt lat="47.26359" lon="-1.67804">
        <ele>58.2</ele>
        <time>2022-04-02T06:12:29Z</time>
      </trkpt>
      <trkpt lat="47.26371" lon="-1.67839">
        <ele>58.6</ele>
        <time>2022-04-02T06:12:35Z</time>
      </trkpt>
      <trkpt lat="47.26382" lon="-1.67874">
        <ele>59</ele>
        <time>2022-04-02T06:12:41Z</time>
      </trkpt>
      <trkpt lat="47.26384" lon="-1.6788">
        <ele>59</ele>
        <time>2022-04-02T06:12:42Z</time>
      </trkpt>
      <trkpt lat="47.26392" lon="-1.67912">
        <ele>59.4</ele>
        <time>2022-04-02T06:12:47Z</time>
      </trkpt>
      <trkpt lat="47.26399" lon="-1.67928">
        <ele>59.6</ele>
        <time>2022-04-02T06:12:50Z</time>
      </trkpt>
      <trkpt lat="47.26403" lon="-1.67939">
        <ele>60</ele>
        <time>2022-04-02T06:12:52Z</time>
      </trkpt>
      <trkpt lat="47.26408" lon="-1.67951">
        <ele>60</ele>
        <time>2022-04-02T06:12:54Z</time>
      </trkpt>
      <trkpt lat="47.26414" lon="-1.67961">
        <ele>60</ele>
        <time>2022-04-02T06:12:56Z</time>
      </trkpt>
      <trkpt lat="47.26417" lon="-1.67963">
        <ele>60</ele>
        <time>2022-04-02T06:12:57Z</time>
      </trkpt>
      <trkpt lat="47.26421" lon="-1.67969">
        <ele>59.8</ele>
        <time>2022-04-02T06:12:59Z</time>
      </trkpt>
      <trkpt lat="47.26424" lon="-1.6798">
        <ele>59.8</ele>
        <time>2022-04-02T06:13:01Z</time>
      </trkpt>
      <trkpt lat="47.26426" lon="-1.68007">
        <ele>59.8</ele>
        <time>2022-04-02T06:13:05Z</time>
      </trkpt>
      <trkpt lat="47.26427" lon="-1.68014">
        <ele>59.8</ele>
        <time>2022-04-02T06:13:06Z</time>
      </trkpt>
      <trkpt lat="47.26427" lon="-1.68027">
        <ele>59.8</ele>
        <time>2022-04-02T06:13:08Z</time>
      </trkpt>
      <trkpt lat="47.2643" lon="-1.68039">
        <ele>60</ele>
        <time>2022-04-02T06:13:10Z</time>
      </trkpt>
      <trkpt lat="47.26431" lon="-1.68045">
        <ele>60</ele>
        <time>2022-04-02T06:13:11Z</time>
      </trkpt>
      <trkpt lat="47.26433" lon="-1.68051">
        <ele>60</ele>
        <time>2022-04-02T06:13:12Z</time>
      </trkpt>
      <trkpt lat="47.26441" lon="-1.68078">
        <ele>60.2</ele>
        <time>2022-04-02T06:13:16Z</time>
      </trkpt>
      <trkpt lat="47.26445" lon="-1.6809">
        <ele>60</ele>
        <time>2022-04-02T06:13:18Z</time>
      </trkpt>
      <trkpt lat="47.26452" lon="-1.68111">
        <ele>59.4</ele>
        <time>2022-04-02T06:13:21Z</time>
      </trkpt>
      <trkpt lat="47.26454" lon="-1.68118">
        <ele>59.4</ele>
        <time>2022-04-02T06:13:22Z</time>
      </trkpt>
      <trkpt lat="47.26464" lon="-1.68147">
        <ele>59.6</ele>
        <time>2022-04-02T06:13:26Z</time>
      </trkpt>
      <trkpt lat="47.26466" lon="-1.68154">
        <ele>59.4</ele>
        <time>2022-04-02T06:13:27Z</time>
      </trkpt>
      <trkpt lat="47.26471" lon="-1.68168">
        <ele>59.2</ele>
        <time>2022-04-02T06:13:29Z</time>
      </trkpt>
      <trkpt lat="47.26478" lon="-1.68182">
        <ele>58.8</ele>
        <time>2022-04-02T06:13:31Z</time>
      </trkpt>
      <trkpt lat="47.2648" lon="-1.68189">
        <ele>58.8</ele>
        <time>2022-04-02T06:13:32Z</time>
      </trkpt>
      <trkpt lat="47.2649" lon="-1.68216">
        <ele>58.2</ele>
        <time>2022-04-02T06:13:36Z</time>
      </trkpt>
      <trkpt lat="47.26504" lon="-1.68258">
        <ele>57.8</ele>
        <time>2022-04-02T06:13:42Z</time>
      </trkpt>
      <trkpt lat="47.26508" lon="-1.68272">
        <ele>57.8</ele>
        <time>2022-04-02T06:13:44Z</time>
      </trkpt>
      <trkpt lat="47.26512" lon="-1.68287">
        <ele>57.4</ele>
        <time>2022-04-02T06:13:46Z</time>
      </trkpt>
      <trkpt lat="47.26514" lon="-1.68294">
        <ele>57.4</ele>
        <time>2022-04-02T06:13:47Z</time>
      </trkpt>
      <trkpt lat="47.26516" lon="-1.68301">
        <ele>57.4</ele>
        <time>2022-04-02T06:13:48Z</time>
      </trkpt>
      <trkpt lat="47.2652" lon="-1.68315">
        <ele>57.4</ele>
        <time>2022-04-02T06:13:50Z</time>
      </trkpt>
      <trkpt lat="47.26522" lon="-1.68322">
        <ele>57.4</ele>
        <time>2022-04-02T06:13:51Z</time>
      </trkpt>
      <trkpt lat="47.26526" lon="-1.68336">
        <ele>57.4</ele>
        <time>2022-04-02T06:13:53Z</time>
      </trkpt>
      <trkpt lat="47.26532" lon="-1.68357">
        <ele>57.4</ele>
        <time>2022-04-02T06:13:56Z</time>
      </trkpt>
      <trkpt lat="47.26551" lon="-1.68398">
        <ele>56.6</ele>
        <time>2022-04-02T06:14:03Z</time>
      </trkpt>
      <trkpt lat="47.2656" lon="-1.68399">
        <ele>56.8</ele>
        <time>2022-04-02T06:14:05Z</time>
      </trkpt>
      <trkpt lat="47.26564" lon="-1.68397">
        <ele>56.8</ele>
        <time>2022-04-02T06:14:06Z</time>
      </trkpt>
      <trkpt lat="47.26594" lon="-1.68379">
        <ele>57.6</ele>
        <time>2022-04-02T06:14:13Z</time>
      </trkpt>
      <trkpt lat="47.26617" lon="-1.68366">
        <ele>58</ele>
        <time>2022-04-02T06:14:18Z</time>
      </trkpt>
      <trkpt lat="47.26624" lon="-1.68357">
        <ele>58.4</ele>
        <time>2022-04-02T06:14:20Z</time>
      </trkpt>
      <trkpt lat="47.26628" lon="-1.68344">
        <ele>58.6</ele>
        <time>2022-04-02T06:14:22Z</time>
      </trkpt>
      <trkpt lat="47.26631" lon="-1.6833">
        <ele>58.8</ele>
        <time>2022-04-02T06:14:24Z</time>
      </trkpt>
      <trkpt lat="47.26635" lon="-1.68316">
        <ele>58.8</ele>
        <time>2022-04-02T06:14:26Z</time>
      </trkpt>
      <trkpt lat="47.26641" lon="-1.68305">
        <ele>58.8</ele>
        <time>2022-04-02T06:14:28Z</time>
      </trkpt>
      <trkpt lat="47.26649" lon="-1.68297">
        <ele>59</ele>
        <time>2022-04-02T06:14:30Z</time>
      </trkpt>
      <trkpt lat="47.26662" lon="-1.68289">
        <ele>59.4</ele>
        <time>2022-04-02T06:14:33Z</time>
      </trkpt>
      <trkpt lat="47.26678" lon="-1.68275">
        <ele>59.6</ele>
        <time>2022-04-02T06:14:37Z</time>
      </trkpt>
      <trkpt lat="47.26682" lon="-1.68276">
        <ele>59.8</ele>
        <time>2022-04-02T06:14:38Z</time>
      </trkpt>
      <trkpt lat="47.26688" lon="-1.68282">
        <ele>60</ele>
        <time>2022-04-02T06:14:40Z</time>
      </trkpt>
      <trkpt lat="47.2669" lon="-1.68287">
        <ele>60</ele>
        <time>2022-04-02T06:14:41Z</time>
      </trkpt>
      <trkpt lat="47.26704" lon="-1.68329">
        <ele>60.6</ele>
        <time>2022-04-02T06:14:48Z</time>
      </trkpt>
      <trkpt lat="47.26713" lon="-1.68347">
        <ele>60.8</ele>
        <time>2022-04-02T06:14:51Z</time>
      </trkpt>
      <trkpt lat="47.26721" lon="-1.68366">
        <ele>60.8</ele>
        <time>2022-04-02T06:14:54Z</time>
      </trkpt>
      <trkpt lat="47.26742" lon="-1.68409">
        <ele>61</ele>
        <time>2022-04-02T06:15:01Z</time>
      </trkpt>
      <trkpt lat="47.2676" lon="-1.68448">
        <ele>61.4</ele>
        <time>2022-04-02T06:15:07Z</time>
      </trkpt>
      <trkpt lat="47.26777" lon="-1.6848">
        <ele>61.6</ele>
        <time>2022-04-02T06:15:12Z</time>
      </trkpt>
      <trkpt lat="47.26798" lon="-1.6851">
        <ele>61.8</ele>
        <time>2022-04-02T06:15:17Z</time>
      </trkpt>
      <trkpt lat="47.26802" lon="-1.68516">
        <ele>61.8</ele>
        <time>2022-04-02T06:15:18Z</time>
      </trkpt>
      <trkpt lat="47.26822" lon="-1.68546">
        <ele>62</ele>
        <time>2022-04-02T06:15:23Z</time>
      </trkpt>
      <trkpt lat="47.26827" lon="-1.68551">
        <ele>62</ele>
        <time>2022-04-02T06:15:24Z</time>
      </trkpt>
      <trkpt lat="47.2683" lon="-1.68556">
        <ele>61.8</ele>
        <time>2022-04-02T06:15:25Z</time>
      </trkpt>
      <trkpt lat="47.26838" lon="-1.68566">
        <ele>61.8</ele>
        <time>2022-04-02T06:15:27Z</time>
      </trkpt>
      <trkpt lat="47.26842" lon="-1.68571">
        <ele>61.8</ele>
        <time>2022-04-02T06:15:28Z</time>
      </trkpt>
      <trkpt lat="47.26869" lon="-1.68606">
        <ele>61.4</ele>
        <time>2022-04-02T06:15:34Z</time>
      </trkpt>
      <trkpt lat="47.26906" lon="-1.68651">
        <ele>61.4</ele>
        <time>2022-04-02T06:15:42Z</time>
      </trkpt>
      <trkpt lat="47.26934" lon="-1.68667">
        <ele>61.2</ele>
        <time>2022-04-02T06:15:47Z</time>
      </trkpt>
      <trkpt lat="47.26962" lon="-1.68681">
        <ele>61.4</ele>
        <time>2022-04-02T06:15:53Z</time>
      </trkpt>
      <trkpt lat="47.26967" lon="-1.68684">
        <ele>61.2</ele>
        <time>2022-04-02T06:15:54Z</time>
      </trkpt>
      <trkpt lat="47.2699" lon="-1.68695">
        <ele>61.2</ele>
        <time>2022-04-02T06:15:59Z</time>
      </trkpt>
      <trkpt lat="47.27018" lon="-1.68708">
        <ele>61.2</ele>
        <time>2022-04-02T06:16:05Z</time>
      </trkpt>
      <trkpt lat="47.27042" lon="-1.68723">
        <ele>61.4</ele>
        <time>2022-04-02T06:16:10Z</time>
      </trkpt>
      <trkpt lat="47.27055" lon="-1.68736">
        <ele>61.4</ele>
        <time>2022-04-02T06:16:13Z</time>
      </trkpt>
      <trkpt lat="47.27063" lon="-1.68746">
        <ele>61.6</ele>
        <time>2022-04-02T06:16:15Z</time>
      </trkpt>
      <trkpt lat="47.27077" lon="-1.68769">
        <ele>61.8</ele>
        <time>2022-04-02T06:16:19Z</time>
      </trkpt>
      <trkpt lat="47.27082" lon="-1.68783">
        <ele>61.8</ele>
        <time>2022-04-02T06:16:21Z</time>
      </trkpt>
      <trkpt lat="47.27088" lon="-1.68825">
        <ele>62</ele>
        <time>2022-04-02T06:16:27Z</time>
      </trkpt>
      <trkpt lat="47.27091" lon="-1.68854">
        <ele>62.2</ele>
        <time>2022-04-02T06:16:32Z</time>
      </trkpt>
      <trkpt lat="47.27097" lon="-1.68864">
        <ele>62.2</ele>
        <time>2022-04-02T06:16:34Z</time>
      </trkpt>
      <trkpt lat="47.27098" lon="-1.68876">
        <ele>62.2</ele>
        <time>2022-04-02T06:16:36Z</time>
      </trkpt>
      <trkpt lat="47.27098" lon="-1.68882">
        <ele>62.4</ele>
        <time>2022-04-02T06:16:37Z</time>
      </trkpt>
      <trkpt lat="47.27099" lon="-1.68895">
        <ele>62.4</ele>
        <time>2022-04-02T06:16:39Z</time>
      </trkpt>
      <trkpt lat="47.27101" lon="-1.68902">
        <ele>62.4</ele>
        <time>2022-04-02T06:16:40Z</time>
      </trkpt>
      <trkpt lat="47.27103" lon="-1.68908">
        <ele>62.4</ele>
        <time>2022-04-02T06:16:41Z</time>
      </trkpt>
      <trkpt lat="47.27111" lon="-1.68942">
        <ele>62.6</ele>
        <time>2022-04-02T06:16:46Z</time>
      </trkpt>
      <trkpt lat="47.27125" lon="-1.68994">
        <ele>63</ele>
        <time>2022-04-02T06:16:53Z</time>
      </trkpt>
      <trkpt lat="47.27139" lon="-1.69049">
        <ele>63.2</ele>
        <time>2022-04-02T06:17:00Z</time>
      </trkpt>
      <trkpt lat="47.27156" lon="-1.69115">
        <ele>63.6</ele>
        <time>2022-04-02T06:17:08Z</time>
      </trkpt>
      <trkpt lat="47.27175" lon="-1.69191">
        <ele>63.8</ele>
        <time>2022-04-02T06:17:17Z</time>
      </trkpt>
      <trkpt lat="47.27192" lon="-1.69256">
        <ele>64</ele>
        <time>2022-04-02T06:17:25Z</time>
      </trkpt>
      <trkpt lat="47.27196" lon="-1.69271">
        <ele>64.2</ele>
        <time>2022-04-02T06:17:27Z</time>
      </trkpt>
      <trkpt lat="47.27203" lon="-1.69295">
        <ele>64.2</ele>
        <time>2022-04-02T06:17:30Z</time>
      </trkpt>
      <trkpt lat="47.2721" lon="-1.6932">
        <ele>64.2</ele>
        <time>2022-04-02T06:17:33Z</time>
      </trkpt>
      <trkpt lat="47.27217" lon="-1.69344">
        <ele>64.2</ele>
        <time>2022-04-02T06:17:36Z</time>
      </trkpt>
      <trkpt lat="47.27234" lon="-1.694">
        <ele>64.4</ele>
        <time>2022-04-02T06:17:43Z</time>
      </trkpt>
      <trkpt lat="47.27243" lon="-1.69424">
        <ele>64.4</ele>
        <time>2022-04-02T06:17:46Z</time>
      </trkpt>
      <trkpt lat="47.27249" lon="-1.69439">
        <ele>64.2</ele>
        <time>2022-04-02T06:17:48Z</time>
      </trkpt>
      <trkpt lat="47.27252" lon="-1.69447">
        <ele>64.4</ele>
        <time>2022-04-02T06:17:49Z</time>
      </trkpt>
      <trkpt lat="47.2726" lon="-1.69471">
        <ele>64</ele>
        <time>2022-04-02T06:17:52Z</time>
      </trkpt>
      <trkpt lat="47.27266" lon="-1.69488">
        <ele>64</ele>
        <time>2022-04-02T06:17:54Z</time>
      </trkpt>
      <trkpt lat="47.27286" lon="-1.69544">
        <ele>63.2</ele>
        <time>2022-04-02T06:18:01Z</time>
      </trkpt>
      <trkpt lat="47.27304" lon="-1.69595">
        <ele>62.4</ele>
        <time>2022-04-02T06:18:07Z</time>
      </trkpt>
      <trkpt lat="47.27313" lon="-1.69609">
        <ele>62.2</ele>
        <time>2022-04-02T06:18:09Z</time>
      </trkpt>
      <trkpt lat="47.27325" lon="-1.69621">
        <ele>61.8</ele>
        <time>2022-04-02T06:18:11Z</time>
      </trkpt>
      <trkpt lat="47.27359" lon="-1.69648">
        <ele>61.4</ele>
        <time>2022-04-02T06:18:16Z</time>
      </trkpt>
      <trkpt lat="47.27365" lon="-1.69655">
        <ele>61.4</ele>
        <time>2022-04-02T06:18:17Z</time>
      </trkpt>
      <trkpt lat="47.27374" lon="-1.69672">
        <ele>61.2</ele>
        <time>2022-04-02T06:18:19Z</time>
      </trkpt>
      <trkpt lat="47.27389" lon="-1.69722">
        <ele>61</ele>
        <time>2022-04-02T06:18:24Z</time>
      </trkpt>
      <trkpt lat="47.27401" lon="-1.69769">
        <ele>60.4</ele>
        <time>2022-04-02T06:18:29Z</time>
      </trkpt>
      <trkpt lat="47.2741" lon="-1.69815">
        <ele>60</ele>
        <time>2022-04-02T06:18:34Z</time>
      </trkpt>
      <trkpt lat="47.27411" lon="-1.69823">
        <ele>60</ele>
        <time>2022-04-02T06:18:35Z</time>
      </trkpt>
      <trkpt lat="47.27419" lon="-1.69861">
        <ele>59.6</ele>
        <time>2022-04-02T06:18:40Z</time>
      </trkpt>
      <trkpt lat="47.27427" lon="-1.69876">
        <ele>59.2</ele>
        <time>2022-04-02T06:18:44Z</time>
      </trkpt>
      <trkpt lat="47.27436" lon="-1.69876">
        <ele>59</ele>
        <time>2022-04-02T06:18:46Z</time>
      </trkpt>
      <trkpt lat="47.27441" lon="-1.69873">
        <ele>59</ele>
        <time>2022-04-02T06:18:47Z</time>
      </trkpt>
      <trkpt lat="47.27472" lon="-1.69859">
        <ele>58.4</ele>
        <time>2022-04-02T06:18:52Z</time>
      </trkpt>
      <trkpt lat="47.27509" lon="-1.69841">
        <ele>57.6</ele>
        <time>2022-04-02T06:18:57Z</time>
      </trkpt>
      <trkpt lat="47.27566" lon="-1.69814">
        <ele>56.6</ele>
        <time>2022-04-02T06:19:04Z</time>
      </trkpt>
      <trkpt lat="47.27619" lon="-1.69791">
        <ele>55.8</ele>
        <time>2022-04-02T06:19:11Z</time>
      </trkpt>
      <trkpt lat="47.27668" lon="-1.69772">
        <ele>55.2</ele>
        <time>2022-04-02T06:19:19Z</time>
      </trkpt>
      <trkpt lat="47.27699" lon="-1.69762">
        <ele>55</ele>
        <time>2022-04-02T06:19:25Z</time>
      </trkpt>
      <trkpt lat="47.27733" lon="-1.69757">
        <ele>55</ele>
        <time>2022-04-02T06:19:32Z</time>
      </trkpt>
      <trkpt lat="47.27755" lon="-1.69757">
        <ele>55</ele>
        <time>2022-04-02T06:19:37Z</time>
      </trkpt>
      <trkpt lat="47.27777" lon="-1.69756">
        <ele>55.6</ele>
        <time>2022-04-02T06:19:42Z</time>
      </trkpt>
      <trkpt lat="47.27782" lon="-1.69757">
        <ele>55.8</ele>
        <time>2022-04-02T06:19:43Z</time>
      </trkpt>
      <trkpt lat="47.27799" lon="-1.69757">
        <ele>55.6</ele>
        <time>2022-04-02T06:19:47Z</time>
      </trkpt>
      <trkpt lat="47.27807" lon="-1.69763">
        <ele>55.6</ele>
        <time>2022-04-02T06:19:49Z</time>
      </trkpt>
      <trkpt lat="47.27815" lon="-1.69789">
        <ele>55.4</ele>
        <time>2022-04-02T06:19:53Z</time>
      </trkpt>
      <trkpt lat="47.27817" lon="-1.69796">
        <ele>55.4</ele>
        <time>2022-04-02T06:19:54Z</time>
      </trkpt>
      <trkpt lat="47.27822" lon="-1.69818">
        <ele>55.2</ele>
        <time>2022-04-02T06:19:57Z</time>
      </trkpt>
      <trkpt lat="47.27824" lon="-1.69833">
        <ele>55</ele>
        <time>2022-04-02T06:19:59Z</time>
      </trkpt>
      <trkpt lat="47.27824" lon="-1.69849">
        <ele>55</ele>
        <time>2022-04-02T06:20:01Z</time>
      </trkpt>
      <trkpt lat="47.27828" lon="-1.69872">
        <ele>54.8</ele>
        <time>2022-04-02T06:20:04Z</time>
      </trkpt>
      <trkpt lat="47.27831" lon="-1.69885">
        <ele>54.8</ele>
        <time>2022-04-02T06:20:06Z</time>
      </trkpt>
      <trkpt lat="47.27837" lon="-1.69919">
        <ele>54.8</ele>
        <time>2022-04-02T06:20:11Z</time>
      </trkpt>
      <trkpt lat="47.27838" lon="-1.69926">
        <ele>54.6</ele>
        <time>2022-04-02T06:20:12Z</time>
      </trkpt>
      <trkpt lat="47.27843" lon="-1.69948">
        <ele>54.4</ele>
        <time>2022-04-02T06:20:15Z</time>
      </trkpt>
      <trkpt lat="47.27846" lon="-1.69963">
        <ele>54.4</ele>
        <time>2022-04-02T06:20:17Z</time>
      </trkpt>
      <trkpt lat="47.27849" lon="-1.69979">
        <ele>54.4</ele>
        <time>2022-04-02T06:20:19Z</time>
      </trkpt>
      <trkpt lat="47.27851" lon="-1.69993">
        <ele>54.4</ele>
        <time>2022-04-02T06:20:21Z</time>
      </trkpt>
      <trkpt lat="47.27852" lon="-1.7">
        <ele>54.4</ele>
        <time>2022-04-02T06:20:22Z</time>
      </trkpt>
      <trkpt lat="47.27853" lon="-1.70015">
        <ele>54.4</ele>
        <time>2022-04-02T06:20:24Z</time>
      </trkpt>
      <trkpt lat="47.27856" lon="-1.70037">
        <ele>54.4</ele>
        <time>2022-04-02T06:20:27Z</time>
      </trkpt>
      <trkpt lat="47.27858" lon="-1.70053">
        <ele>54.4</ele>
        <time>2022-04-02T06:20:29Z</time>
      </trkpt>
      <trkpt lat="47.2786" lon="-1.70067">
        <ele>54.2</ele>
        <time>2022-04-02T06:20:31Z</time>
      </trkpt>
      <trkpt lat="47.27862" lon="-1.70074">
        <ele>54</ele>
        <time>2022-04-02T06:20:32Z</time>
      </trkpt>
      <trkpt lat="47.27865" lon="-1.70097">
        <ele>53.8</ele>
        <time>2022-04-02T06:20:35Z</time>
      </trkpt>
      <trkpt lat="47.27867" lon="-1.70112">
        <ele>53.6</ele>
        <time>2022-04-02T06:20:37Z</time>
      </trkpt>
      <trkpt lat="47.27871" lon="-1.70135">
        <ele>53.4</ele>
        <time>2022-04-02T06:20:40Z</time>
      </trkpt>
      <trkpt lat="47.27879" lon="-1.70152">
        <ele>53.2</ele>
        <time>2022-04-02T06:20:42Z</time>
      </trkpt>
      <trkpt lat="47.27889" lon="-1.70163">
        <ele>53</ele>
        <time>2022-04-02T06:20:44Z</time>
      </trkpt>
      <trkpt lat="47.27894" lon="-1.70167">
        <ele>53</ele>
        <time>2022-04-02T06:20:45Z</time>
      </trkpt>
      <trkpt lat="47.27909" lon="-1.70183">
        <ele>52.8</ele>
        <time>2022-04-02T06:20:49Z</time>
      </trkpt>
      <trkpt lat="47.27913" lon="-1.70188">
        <ele>52.8</ele>
        <time>2022-04-02T06:20:50Z</time>
      </trkpt>
      <trkpt lat="47.27921" lon="-1.70199">
        <ele>52.6</ele>
        <time>2022-04-02T06:20:52Z</time>
      </trkpt>
      <trkpt lat="47.27929" lon="-1.70209">
        <ele>52.6</ele>
        <time>2022-04-02T06:20:54Z</time>
      </trkpt>
      <trkpt lat="47.27937" lon="-1.70218">
        <ele>52.8</ele>
        <time>2022-04-02T06:20:56Z</time>
      </trkpt>
      <trkpt lat="47.27947" lon="-1.70232">
        <ele>53</ele>
        <time>2022-04-02T06:20:59Z</time>
      </trkpt>
      <trkpt lat="47.27951" lon="-1.70237">
        <ele>52.6</ele>
        <time>2022-04-02T06:21:00Z</time>
      </trkpt>
      <trkpt lat="47.27966" lon="-1.70257">
        <ele>54.4</ele>
        <time>2022-04-02T06:21:04Z</time>
      </trkpt>
      <trkpt lat="47.27982" lon="-1.70282">
        <ele>53.8</ele>
        <time>2022-04-02T06:21:09Z</time>
      </trkpt>
      <trkpt lat="47.27985" lon="-1.70287">
        <ele>53.8</ele>
        <time>2022-04-02T06:21:10Z</time>
      </trkpt>
      <trkpt lat="47.27995" lon="-1.70302">
        <ele>54</ele>
        <time>2022-04-02T06:21:13Z</time>
      </trkpt>
      <trkpt lat="47.28006" lon="-1.70318">
        <ele>54.2</ele>
        <time>2022-04-02T06:21:16Z</time>
      </trkpt>
      <trkpt lat="47.28013" lon="-1.70327">
        <ele>54.4</ele>
        <time>2022-04-02T06:21:18Z</time>
      </trkpt>
      <trkpt lat="47.2802" lon="-1.70338">
        <ele>54.4</ele>
        <time>2022-04-02T06:21:20Z</time>
      </trkpt>
      <trkpt lat="47.28032" lon="-1.70357">
        <ele>55</ele>
        <time>2022-04-02T06:21:24Z</time>
      </trkpt>
      <trkpt lat="47.28045" lon="-1.70376">
        <ele>55.2</ele>
        <time>2022-04-02T06:21:28Z</time>
      </trkpt>
      <trkpt lat="47.28055" lon="-1.7039">
        <ele>55.4</ele>
        <time>2022-04-02T06:21:31Z</time>
      </trkpt>
      <trkpt lat="47.28058" lon="-1.70396">
        <ele>55.6</ele>
        <time>2022-04-02T06:21:32Z</time>
      </trkpt>
      <trkpt lat="47.28069" lon="-1.70416">
        <ele>55.8</ele>
        <time>2022-04-02T06:21:36Z</time>
      </trkpt>
      <trkpt lat="47.28072" lon="-1.70421">
        <ele>55.8</ele>
        <time>2022-04-02T06:21:37Z</time>
      </trkpt>
      <trkpt lat="47.28089" lon="-1.70454">
        <ele>55.8</ele>
        <time>2022-04-02T06:21:43Z</time>
      </trkpt>
      <trkpt lat="47.28114" lon="-1.70491">
        <ele>56</ele>
        <time>2022-04-02T06:21:50Z</time>
      </trkpt>
      <trkpt lat="47.28141" lon="-1.70531">
        <ele>56.6</ele>
        <time>2022-04-02T06:21:58Z</time>
      </trkpt>
      <trkpt lat="47.28155" lon="-1.70555">
        <ele>56.8</ele>
        <time>2022-04-02T06:22:03Z</time>
      </trkpt>
      <trkpt lat="47.28158" lon="-1.7056">
        <ele>56.8</ele>
        <time>2022-04-02T06:22:04Z</time>
      </trkpt>
      <trkpt lat="47.28174" lon="-1.7058">
        <ele>57</ele>
        <time>2022-04-02T06:22:08Z</time>
      </trkpt>
      <trkpt lat="47.28203" lon="-1.70625">
        <ele>57.8</ele>
        <time>2022-04-02T06:22:17Z</time>
      </trkpt>
      <trkpt lat="47.28207" lon="-1.70627">
        <ele>58</ele>
        <time>2022-04-02T06:22:18Z</time>
      </trkpt>
      <trkpt lat="47.28216" lon="-1.70624">
        <ele>58.4</ele>
        <time>2022-04-02T06:22:20Z</time>
      </trkpt>
      <trkpt lat="47.28255" lon="-1.70593">
        <ele>59.8</ele>
        <time>2022-04-02T06:22:28Z</time>
      </trkpt>
      <trkpt lat="47.28289" lon="-1.70562">
        <ele>60.4</ele>
        <time>2022-04-02T06:22:35Z</time>
      </trkpt>
      <trkpt lat="47.28311" lon="-1.70548">
        <ele>60.8</ele>
        <time>2022-04-02T06:22:39Z</time>
      </trkpt>
      <trkpt lat="47.28352" lon="-1.70528">
        <ele>61.4</ele>
        <time>2022-04-02T06:22:46Z</time>
      </trkpt>
      <trkpt lat="47.28391" lon="-1.70519">
        <ele>62</ele>
        <time>2022-04-02T06:22:53Z</time>
      </trkpt>
      <trkpt lat="47.28433" lon="-1.70518">
        <ele>62.6</ele>
        <time>2022-04-02T06:23:01Z</time>
      </trkpt>
      <trkpt lat="47.28462" lon="-1.70522">
        <ele>62.6</ele>
        <time>2022-04-02T06:23:07Z</time>
      </trkpt>
      <trkpt lat="47.28491" lon="-1.70524">
        <ele>62.4</ele>
        <time>2022-04-02T06:23:13Z</time>
      </trkpt>
      <trkpt lat="47.28496" lon="-1.70525">
        <ele>63.2</ele>
        <time>2022-04-02T06:23:14Z</time>
      </trkpt>
      <trkpt lat="47.2852" lon="-1.70527">
        <ele>61.8</ele>
        <time>2022-04-02T06:23:19Z</time>
      </trkpt>
      <trkpt lat="47.28548" lon="-1.70532">
        <ele>61.2</ele>
        <time>2022-04-02T06:23:24Z</time>
      </trkpt>
      <trkpt lat="47.28554" lon="-1.70533">
        <ele>61</ele>
        <time>2022-04-02T06:23:25Z</time>
      </trkpt>
      <trkpt lat="47.28569" lon="-1.70534">
        <ele>60.4</ele>
        <time>2022-04-02T06:23:28Z</time>
      </trkpt>
      <trkpt lat="47.28596" lon="-1.70536">
        <ele>59</ele>
        <time>2022-04-02T06:23:33Z</time>
      </trkpt>
      <trkpt lat="47.2863" lon="-1.70539">
        <ele>57.8</ele>
        <time>2022-04-02T06:23:38Z</time>
      </trkpt>
      <trkpt lat="47.28661" lon="-1.70541">
        <ele>56.4</ele>
        <time>2022-04-02T06:23:43Z</time>
      </trkpt>
      <trkpt lat="47.28685" lon="-1.70538">
        <ele>55.2</ele>
        <time>2022-04-02T06:23:47Z</time>
      </trkpt>
      <trkpt lat="47.28737" lon="-1.70529">
        <ele>55.4</ele>
        <time>2022-04-02T06:23:54Z</time>
      </trkpt>
      <trkpt lat="47.2878" lon="-1.70521">
        <ele>53.6</ele>
        <time>2022-04-02T06:24:00Z</time>
      </trkpt>
      <trkpt lat="47.28822" lon="-1.70509">
        <ele>57.6</ele>
        <time>2022-04-02T06:24:07Z</time>
      </trkpt>
      <trkpt lat="47.28852" lon="-1.705">
        <ele>58.2</ele>
        <time>2022-04-02T06:24:12Z</time>
      </trkpt>
      <trkpt lat="47.28873" lon="-1.70492">
        <ele>57.6</ele>
        <time>2022-04-02T06:24:16Z</time>
      </trkpt>
      <trkpt lat="47.28879" lon="-1.7049">
        <ele>57</ele>
        <time>2022-04-02T06:24:17Z</time>
      </trkpt>
      <trkpt lat="47.28897" lon="-1.70484">
        <ele>56.6</ele>
        <time>2022-04-02T06:24:20Z</time>
      </trkpt>
      <trkpt lat="47.2894" lon="-1.70473">
        <ele>56.2</ele>
        <time>2022-04-02T06:24:27Z</time>
      </trkpt>
      <trkpt lat="47.28969" lon="-1.70465">
        <ele>55.8</ele>
        <time>2022-04-02T06:24:32Z</time>
      </trkpt>
      <trkpt lat="47.29006" lon="-1.70457">
        <ele>56.2</ele>
        <time>2022-04-02T06:24:38Z</time>
      </trkpt>
      <trkpt lat="47.29031" lon="-1.70449">
        <ele>55.8</ele>
        <time>2022-04-02T06:24:42Z</time>
      </trkpt>
      <trkpt lat="47.29044" lon="-1.70445">
        <ele>55.4</ele>
        <time>2022-04-02T06:24:44Z</time>
      </trkpt>
      <trkpt lat="47.2905" lon="-1.70443">
        <ele>55.2</ele>
        <time>2022-04-02T06:24:45Z</time>
      </trkpt>
      <trkpt lat="47.29069" lon="-1.70438">
        <ele>55</ele>
        <time>2022-04-02T06:24:48Z</time>
      </trkpt>
      <trkpt lat="47.29111" lon="-1.70424">
        <ele>54.6</ele>
        <time>2022-04-02T06:24:54Z</time>
      </trkpt>
      <trkpt lat="47.29143" lon="-1.70409">
        <ele>54</ele>
        <time>2022-04-02T06:24:59Z</time>
      </trkpt>
      <trkpt lat="47.29185" lon="-1.70389">
        <ele>53.4</ele>
        <time>2022-04-02T06:25:05Z</time>
      </trkpt>
      <trkpt lat="47.29235" lon="-1.70364">
        <ele>53</ele>
        <time>2022-04-02T06:25:12Z</time>
      </trkpt>
      <trkpt lat="47.29256" lon="-1.70354">
        <ele>52.4</ele>
        <time>2022-04-02T06:25:15Z</time>
      </trkpt>
      <trkpt lat="47.29263" lon="-1.7035">
        <ele>52.2</ele>
        <time>2022-04-02T06:25:16Z</time>
      </trkpt>
      <trkpt lat="47.29305" lon="-1.70328">
        <ele>51.2</ele>
        <time>2022-04-02T06:25:22Z</time>
      </trkpt>
      <trkpt lat="47.29357" lon="-1.70303">
        <ele>50</ele>
        <time>2022-04-02T06:25:29Z</time>
      </trkpt>
      <trkpt lat="47.29381" lon="-1.70292">
        <ele>48.8</ele>
        <time>2022-04-02T06:25:33Z</time>
      </trkpt>
      <trkpt lat="47.29387" lon="-1.70291">
        <ele>48.4</ele>
        <time>2022-04-02T06:25:34Z</time>
      </trkpt>
      <trkpt lat="47.29402" lon="-1.70294">
        <ele>47.8</ele>
        <time>2022-04-02T06:25:36Z</time>
      </trkpt>
      <trkpt lat="47.29417" lon="-1.70304">
        <ele>47.6</ele>
        <time>2022-04-02T06:25:38Z</time>
      </trkpt>
      <trkpt lat="47.29424" lon="-1.70311">
        <ele>47.4</ele>
        <time>2022-04-02T06:25:39Z</time>
      </trkpt>
      <trkpt lat="47.29457" lon="-1.70348">
        <ele>47.2</ele>
        <time>2022-04-02T06:25:44Z</time>
      </trkpt>
      <trkpt lat="47.29495" lon="-1.70395">
        <ele>46.4</ele>
        <time>2022-04-02T06:25:51Z</time>
      </trkpt>
      <trkpt lat="47.295" lon="-1.70401">
        <ele>46.2</ele>
        <time>2022-04-02T06:25:52Z</time>
      </trkpt>
      <trkpt lat="47.29511" lon="-1.70414">
        <ele>46</ele>
        <time>2022-04-02T06:25:54Z</time>
      </trkpt>
      <trkpt lat="47.29515" lon="-1.70422">
        <ele>45.8</ele>
        <time>2022-04-02T06:25:55Z</time>
      </trkpt>
      <trkpt lat="47.29524" lon="-1.70437">
        <ele>45.4</ele>
        <time>2022-04-02T06:25:57Z</time>
      </trkpt>
      <trkpt lat="47.2953" lon="-1.70453">
        <ele>45.2</ele>
        <time>2022-04-02T06:25:59Z</time>
      </trkpt>
      <trkpt lat="47.29533" lon="-1.70461">
        <ele>45</ele>
        <time>2022-04-02T06:26:00Z</time>
      </trkpt>
      <trkpt lat="47.29542" lon="-1.70484">
        <ele>44.6</ele>
        <time>2022-04-02T06:26:03Z</time>
      </trkpt>
      <trkpt lat="47.29559" lon="-1.70527">
        <ele>44.2</ele>
        <time>2022-04-02T06:26:09Z</time>
      </trkpt>
      <trkpt lat="47.29564" lon="-1.7054">
        <ele>44.2</ele>
        <time>2022-04-02T06:26:11Z</time>
      </trkpt>
      <trkpt lat="47.2957" lon="-1.70552">
        <ele>44.2</ele>
        <time>2022-04-02T06:26:13Z</time>
      </trkpt>
      <trkpt lat="47.29575" lon="-1.70565">
        <ele>44.2</ele>
        <time>2022-04-02T06:26:15Z</time>
      </trkpt>
      <trkpt lat="47.2958" lon="-1.70576">
        <ele>44.2</ele>
        <time>2022-04-02T06:26:17Z</time>
      </trkpt>
      <trkpt lat="47.29584" lon="-1.70587">
        <ele>44.4</ele>
        <time>2022-04-02T06:26:19Z</time>
      </trkpt>
      <trkpt lat="47.2959" lon="-1.70611">
        <ele>44.4</ele>
        <time>2022-04-02T06:26:23Z</time>
      </trkpt>
      <trkpt lat="47.29592" lon="-1.70617">
        <ele>44.4</ele>
        <time>2022-04-02T06:26:24Z</time>
      </trkpt>
      <trkpt lat="47.29601" lon="-1.70644">
        <ele>44.2</ele>
        <time>2022-04-02T06:26:29Z</time>
      </trkpt>
      <trkpt lat="47.29607" lon="-1.70675">
        <ele>44</ele>
        <time>2022-04-02T06:26:35Z</time>
      </trkpt>
      <trkpt lat="47.29611" lon="-1.70707">
        <ele>44.6</ele>
        <time>2022-04-02T06:26:41Z</time>
      </trkpt>
      <trkpt lat="47.2962" lon="-1.70732">
        <ele>44.6</ele>
        <time>2022-04-02T06:26:46Z</time>
      </trkpt>
      <trkpt lat="47.29634" lon="-1.70759">
        <ele>45.2</ele>
        <time>2022-04-02T06:26:51Z</time>
      </trkpt>
      <trkpt lat="47.29644" lon="-1.70786">
        <ele>45.6</ele>
        <time>2022-04-02T06:26:56Z</time>
      </trkpt>
      <trkpt lat="47.29648" lon="-1.70791">
        <ele>45.8</ele>
        <time>2022-04-02T06:26:57Z</time>
      </trkpt>
      <trkpt lat="47.29671" lon="-1.70818">
        <ele>46.2</ele>
        <time>2022-04-02T06:27:03Z</time>
      </trkpt>
      <trkpt lat="47.29693" lon="-1.70834">
        <ele>46.4</ele>
        <time>2022-04-02T06:27:08Z</time>
      </trkpt>
      <trkpt lat="47.29718" lon="-1.70848">
        <ele>46.6</ele>
        <time>2022-04-02T06:27:13Z</time>
      </trkpt>
      <trkpt lat="47.29747" lon="-1.70866">
        <ele>46.4</ele>
        <time>2022-04-02T06:27:19Z</time>
      </trkpt>
      <trkpt lat="47.29771" lon="-1.7088">
        <ele>46.4</ele>
        <time>2022-04-02T06:27:24Z</time>
      </trkpt>
      <trkpt lat="47.29801" lon="-1.70897">
        <ele>47.2</ele>
        <time>2022-04-02T06:27:31Z</time>
      </trkpt>
      <trkpt lat="47.29826" lon="-1.70911">
        <ele>48</ele>
        <time>2022-04-02T06:27:37Z</time>
      </trkpt>
      <trkpt lat="47.29851" lon="-1.70924">
        <ele>48.8</ele>
        <time>2022-04-02T06:27:44Z</time>
      </trkpt>
      <trkpt lat="47.29877" lon="-1.70939">
        <ele>49</ele>
        <time>2022-04-02T06:27:52Z</time>
      </trkpt>
      <trkpt lat="47.29908" lon="-1.70955">
        <ele>49.6</ele>
        <time>2022-04-02T06:28:00Z</time>
      </trkpt>
      <trkpt lat="47.29937" lon="-1.7097">
        <ele>50.4</ele>
        <time>2022-04-02T06:28:07Z</time>
      </trkpt>
      <trkpt lat="47.29966" lon="-1.70987">
        <ele>51.4</ele>
        <time>2022-04-02T06:28:14Z</time>
      </trkpt>
      <trkpt lat="47.29996" lon="-1.71004">
        <ele>52.2</ele>
        <time>2022-04-02T06:28:22Z</time>
      </trkpt>
      <trkpt lat="47.30024" lon="-1.71018">
        <ele>53.4</ele>
        <time>2022-04-02T06:28:28Z</time>
      </trkpt>
      <trkpt lat="47.30055" lon="-1.71038">
        <ele>54.8</ele>
        <time>2022-04-02T06:28:36Z</time>
      </trkpt>
      <trkpt lat="47.30089" lon="-1.71056">
        <ele>56</ele>
        <time>2022-04-02T06:28:44Z</time>
      </trkpt>
      <trkpt lat="47.30111" lon="-1.71068">
        <ele>56.8</ele>
        <time>2022-04-02T06:28:49Z</time>
      </trkpt>
      <trkpt lat="47.30123" lon="-1.71075">
        <ele>57</ele>
        <time>2022-04-02T06:28:52Z</time>
      </trkpt>
      <trkpt lat="47.30136" lon="-1.71082">
        <ele>57.4</ele>
        <time>2022-04-02T06:28:55Z</time>
      </trkpt>
      <trkpt lat="47.30157" lon="-1.71093">
        <ele>58.4</ele>
        <time>2022-04-02T06:29:00Z</time>
      </trkpt>
      <trkpt lat="47.3017" lon="-1.71101">
        <ele>59</ele>
        <time>2022-04-02T06:29:03Z</time>
      </trkpt>
      <trkpt lat="47.30201" lon="-1.71118">
        <ele>60</ele>
        <time>2022-04-02T06:29:10Z</time>
      </trkpt>
      <trkpt lat="47.30244" lon="-1.71143">
        <ele>61.6</ele>
        <time>2022-04-02T06:29:20Z</time>
      </trkpt>
      <trkpt lat="47.30275" lon="-1.71168">
        <ele>62.2</ele>
        <time>2022-04-02T06:29:27Z</time>
      </trkpt>
      <trkpt lat="47.30285" lon="-1.71165">
        <ele>62.4</ele>
        <time>2022-04-02T06:29:29Z</time>
      </trkpt>
      <trkpt lat="47.30312" lon="-1.71132">
        <ele>63.4</ele>
        <time>2022-04-02T06:29:35Z</time>
      </trkpt>
      <trkpt lat="47.30335" lon="-1.71101">
        <ele>64</ele>
        <time>2022-04-02T06:29:41Z</time>
      </trkpt>
      <trkpt lat="47.30342" lon="-1.71092">
        <ele>64.2</ele>
        <time>2022-04-02T06:29:43Z</time>
      </trkpt>
      <trkpt lat="47.30346" lon="-1.71088">
        <ele>64.2</ele>
        <time>2022-04-02T06:29:44Z</time>
      </trkpt>
      <trkpt lat="47.30355" lon="-1.71081">
        <ele>64.4</ele>
        <time>2022-04-02T06:29:46Z</time>
      </trkpt>
      <trkpt lat="47.30364" lon="-1.71075">
        <ele>64.6</ele>
        <time>2022-04-02T06:29:48Z</time>
      </trkpt>
      <trkpt lat="47.30368" lon="-1.71073">
        <ele>64.4</ele>
        <time>2022-04-02T06:29:49Z</time>
      </trkpt>
      <trkpt lat="47.30379" lon="-1.71069">
        <ele>64.4</ele>
        <time>2022-04-02T06:29:51Z</time>
      </trkpt>
      <trkpt lat="47.30417" lon="-1.7106">
        <ele>64.6</ele>
        <time>2022-04-02T06:29:58Z</time>
      </trkpt>
      <trkpt lat="47.30453" lon="-1.71052">
        <ele>64.4</ele>
        <time>2022-04-02T06:30:05Z</time>
      </trkpt>
      <trkpt lat="47.30486" lon="-1.71043">
        <ele>64</ele>
        <time>2022-04-02T06:30:11Z</time>
      </trkpt>
      <trkpt lat="47.30497" lon="-1.7104">
        <ele>64.2</ele>
        <time>2022-04-02T06:30:13Z</time>
      </trkpt>
      <trkpt lat="47.30514" lon="-1.71037">
        <ele>64</ele>
        <time>2022-04-02T06:30:16Z</time>
      </trkpt>
      <trkpt lat="47.30555" lon="-1.71026">
        <ele>63.4</ele>
        <time>2022-04-02T06:30:23Z</time>
      </trkpt>
      <trkpt lat="47.30599" lon="-1.71015">
        <ele>62.6</ele>
        <time>2022-04-02T06:30:30Z</time>
      </trkpt>
      <trkpt lat="47.30633" lon="-1.71007">
        <ele>62.2</ele>
        <time>2022-04-02T06:30:35Z</time>
      </trkpt>
      <trkpt lat="47.30682" lon="-1.70997">
        <ele>62</ele>
        <time>2022-04-02T06:30:42Z</time>
      </trkpt>
      <trkpt lat="47.3072" lon="-1.70987">
        <ele>61.8</ele>
        <time>2022-04-02T06:30:48Z</time>
      </trkpt>
      <trkpt lat="47.30763" lon="-1.70977">
        <ele>61.4</ele>
        <time>2022-04-02T06:30:55Z</time>
      </trkpt>
      <trkpt lat="47.30801" lon="-1.70968">
        <ele>61</ele>
        <time>2022-04-02T06:31:01Z</time>
      </trkpt>
      <trkpt lat="47.30853" lon="-1.70956">
        <ele>60.8</ele>
        <time>2022-04-02T06:31:09Z</time>
      </trkpt>
      <trkpt lat="47.30899" lon="-1.70946">
        <ele>61</ele>
        <time>2022-04-02T06:31:16Z</time>
      </trkpt>
      <trkpt lat="47.30954" lon="-1.70932">
        <ele>60.8</ele>
        <time>2022-04-02T06:31:25Z</time>
      </trkpt>
      <trkpt lat="47.30995" lon="-1.70922">
        <ele>60.6</ele>
        <time>2022-04-02T06:31:32Z</time>
      </trkpt>
      <trkpt lat="47.31011" lon="-1.70916">
        <ele>60.6</ele>
        <time>2022-04-02T06:31:35Z</time>
      </trkpt>
      <trkpt lat="47.31023" lon="-1.70908">
        <ele>60.4</ele>
        <time>2022-04-02T06:31:37Z</time>
      </trkpt>
      <trkpt lat="47.31034" lon="-1.70898">
        <ele>60.4</ele>
        <time>2022-04-02T06:31:39Z</time>
      </trkpt>
      <trkpt lat="47.31052" lon="-1.70875">
        <ele>60.4</ele>
        <time>2022-04-02T06:31:43Z</time>
      </trkpt>
      <trkpt lat="47.3106" lon="-1.70864">
        <ele>60.4</ele>
        <time>2022-04-02T06:31:45Z</time>
      </trkpt>
      <trkpt lat="47.31073" lon="-1.70847">
        <ele>60.4</ele>
        <time>2022-04-02T06:31:48Z</time>
      </trkpt>
      <trkpt lat="47.31106" lon="-1.70805">
        <ele>61.2</ele>
        <time>2022-04-02T06:31:56Z</time>
      </trkpt>
      <trkpt lat="47.31137" lon="-1.70764">
        <ele>62</ele>
        <time>2022-04-02T06:32:04Z</time>
      </trkpt>
      <trkpt lat="47.31167" lon="-1.70724">
        <ele>62.8</ele>
        <time>2022-04-02T06:32:12Z</time>
      </trkpt>
      <trkpt lat="47.31209" lon="-1.7068">
        <ele>63.8</ele>
        <time>2022-04-02T06:32:22Z</time>
      </trkpt>
      <trkpt lat="47.31246" lon="-1.70644">
        <ele>64.6</ele>
        <time>2022-04-02T06:32:31Z</time>
      </trkpt>
      <trkpt lat="47.31274" lon="-1.70617">
        <ele>65.4</ele>
        <time>2022-04-02T06:32:38Z</time>
      </trkpt>
      <trkpt lat="47.31304" lon="-1.70589">
        <ele>66</ele>
        <time>2022-04-02T06:32:45Z</time>
      </trkpt>
      <trkpt lat="47.31341" lon="-1.70555">
        <ele>66.6</ele>
        <time>2022-04-02T06:32:54Z</time>
      </trkpt>
      <trkpt lat="47.31359" lon="-1.70534">
        <ele>67.2</ele>
        <time>2022-04-02T06:32:59Z</time>
      </trkpt>
      <trkpt lat="47.31365" lon="-1.70526">
        <ele>67.4</ele>
        <time>2022-04-02T06:33:01Z</time>
      </trkpt>
      <trkpt lat="47.31373" lon="-1.70516">
        <ele>67.8</ele>
        <time>2022-04-02T06:33:04Z</time>
      </trkpt>
      <trkpt lat="47.31377" lon="-1.70517">
        <ele>67.8</ele>
        <time>2022-04-02T06:33:05Z</time>
      </trkpt>
      <trkpt lat="47.3138" lon="-1.70521">
        <ele>68</ele>
        <time>2022-04-02T06:33:06Z</time>
      </trkpt>
      <trkpt lat="47.31389" lon="-1.70534">
        <ele>68.2</ele>
        <time>2022-04-02T06:33:09Z</time>
      </trkpt>
      <trkpt lat="47.31414" lon="-1.70573">
        <ele>68.8</ele>
        <time>2022-04-02T06:33:17Z</time>
      </trkpt>
      <trkpt lat="47.31441" lon="-1.70613">
        <ele>69.2</ele>
        <time>2022-04-02T06:33:24Z</time>
      </trkpt>
      <trkpt lat="47.31471" lon="-1.70662">
        <ele>69.6</ele>
        <time>2022-04-02T06:33:32Z</time>
      </trkpt>
      <trkpt lat="47.31492" lon="-1.70695">
        <ele>69.8</ele>
        <time>2022-04-02T06:33:38Z</time>
      </trkpt>
      <trkpt lat="47.31512" lon="-1.70727">
        <ele>70</ele>
        <time>2022-04-02T06:33:44Z</time>
      </trkpt>
      <trkpt lat="47.31526" lon="-1.70751">
        <ele>70.2</ele>
        <time>2022-04-02T06:33:48Z</time>
      </trkpt>
      <trkpt lat="47.31534" lon="-1.70771">
        <ele>70.4</ele>
        <time>2022-04-02T06:33:51Z</time>
      </trkpt>
      <trkpt lat="47.3156" lon="-1.7084">
        <ele>71</ele>
        <time>2022-04-02T06:34:01Z</time>
      </trkpt>
      <trkpt lat="47.31566" lon="-1.70854">
        <ele>71</ele>
        <time>2022-04-02T06:34:03Z</time>
      </trkpt>
      <trkpt lat="47.31574" lon="-1.70876">
        <ele>71.2</ele>
        <time>2022-04-02T06:34:06Z</time>
      </trkpt>
      <trkpt lat="47.31599" lon="-1.70943">
        <ele>71.4</ele>
        <time>2022-04-02T06:34:15Z</time>
      </trkpt>
      <trkpt lat="47.31603" lon="-1.70959">
        <ele>71.4</ele>
        <time>2022-04-02T06:34:17Z</time>
      </trkpt>
      <trkpt lat="47.31609" lon="-1.70974">
        <ele>71.6</ele>
        <time>2022-04-02T06:34:19Z</time>
      </trkpt>
      <trkpt lat="47.31611" lon="-1.70982">
        <ele>71.6</ele>
        <time>2022-04-02T06:34:20Z</time>
      </trkpt>
      <trkpt lat="47.31615" lon="-1.70997">
        <ele>71.6</ele>
        <time>2022-04-02T06:34:22Z</time>
      </trkpt>
      <trkpt lat="47.31623" lon="-1.71028">
        <ele>71.8</ele>
        <time>2022-04-02T06:34:26Z</time>
      </trkpt>
      <trkpt lat="47.31641" lon="-1.7109">
        <ele>72</ele>
        <time>2022-04-02T06:34:34Z</time>
      </trkpt>
      <trkpt lat="47.31664" lon="-1.71168">
        <ele>72.4</ele>
        <time>2022-04-02T06:34:44Z</time>
      </trkpt>
      <trkpt lat="47.31687" lon="-1.71246">
        <ele>72.6</ele>
        <time>2022-04-02T06:34:54Z</time>
      </trkpt>
      <trkpt lat="47.31705" lon="-1.71306">
        <ele>72.8</ele>
        <time>2022-04-02T06:35:02Z</time>
      </trkpt>
      <trkpt lat="47.31715" lon="-1.71341">
        <ele>73</ele>
        <time>2022-04-02T06:35:07Z</time>
      </trkpt>
      <trkpt lat="47.31719" lon="-1.71345">
        <ele>73</ele>
        <time>2022-04-02T06:35:08Z</time>
      </trkpt>
      <trkpt lat="47.31724" lon="-1.71347">
        <ele>73</ele>
        <time>2022-04-02T06:35:09Z</time>
      </trkpt>
      <trkpt lat="47.31735" lon="-1.71342">
        <ele>73</ele>
        <time>2022-04-02T06:35:11Z</time>
      </trkpt>
      <trkpt lat="47.31768" lon="-1.71315">
        <ele>73.4</ele>
        <time>2022-04-02T06:35:18Z</time>
      </trkpt>
      <trkpt lat="47.31804" lon="-1.71299">
        <ele>73.6</ele>
        <time>2022-04-02T06:35:25Z</time>
      </trkpt>
      <trkpt lat="47.31832" lon="-1.71292">
        <ele>73.6</ele>
        <time>2022-04-02T06:35:30Z</time>
      </trkpt>
      <trkpt lat="47.31855" lon="-1.71287">
        <ele>73.6</ele>
        <time>2022-04-02T06:35:34Z</time>
      </trkpt>
      <trkpt lat="47.31859" lon="-1.71285">
        <ele>73</ele>
        <time>2022-04-02T06:35:35Z</time>
      </trkpt>
      <trkpt lat="47.319" lon="-1.71277">
        <ele>71.8</ele>
        <time>2022-04-02T06:35:42Z</time>
      </trkpt>
      <trkpt lat="47.31949" lon="-1.71275">
        <ele>70.8</ele>
        <time>2022-04-02T06:35:50Z</time>
      </trkpt>
      <trkpt lat="47.32004" lon="-1.71273">
        <ele>69.4</ele>
        <time>2022-04-02T06:35:59Z</time>
      </trkpt>
      <trkpt lat="47.3205" lon="-1.71283">
        <ele>68.8</ele>
        <time>2022-04-02T06:36:06Z</time>
      </trkpt>
      <trkpt lat="47.32096" lon="-1.71299">
        <ele>68.6</ele>
        <time>2022-04-02T06:36:13Z</time>
      </trkpt>
      <trkpt lat="47.3214" lon="-1.71305">
        <ele>67.8</ele>
        <time>2022-04-02T06:36:20Z</time>
      </trkpt>
      <trkpt lat="47.32172" lon="-1.71307">
        <ele>67.6</ele>
        <time>2022-04-02T06:36:25Z</time>
      </trkpt>
      <trkpt lat="47.32184" lon="-1.71306">
        <ele>67.4</ele>
        <time>2022-04-02T06:36:27Z</time>
      </trkpt>
      <trkpt lat="47.32195" lon="-1.71304">
        <ele>67.2</ele>
        <time>2022-04-02T06:36:29Z</time>
      </trkpt>
      <trkpt lat="47.32202" lon="-1.713">
        <ele>67.4</ele>
        <time>2022-04-02T06:36:30Z</time>
      </trkpt>
      <trkpt lat="47.32208" lon="-1.71295">
        <ele>67.4</ele>
        <time>2022-04-02T06:36:31Z</time>
      </trkpt>
      <trkpt lat="47.32217" lon="-1.7128">
        <ele>67.4</ele>
        <time>2022-04-02T06:36:33Z</time>
      </trkpt>
      <trkpt lat="47.3224" lon="-1.71221">
        <ele>67.6</ele>
        <time>2022-04-02T06:36:40Z</time>
      </trkpt>
      <trkpt lat="47.32246" lon="-1.71203">
        <ele>67.6</ele>
        <time>2022-04-02T06:36:42Z</time>
      </trkpt>
      <trkpt lat="47.3225" lon="-1.71185">
        <ele>67.4</ele>
        <time>2022-04-02T06:36:44Z</time>
      </trkpt>
      <trkpt lat="47.32251" lon="-1.71176">
        <ele>67.4</ele>
        <time>2022-04-02T06:36:45Z</time>
      </trkpt>
      <trkpt lat="47.32265" lon="-1.7111">
        <ele>66.8</ele>
        <time>2022-04-02T06:36:52Z</time>
      </trkpt>
      <trkpt lat="47.32274" lon="-1.71095">
        <ele>66.6</ele>
        <time>2022-04-02T06:36:54Z</time>
      </trkpt>
      <trkpt lat="47.32285" lon="-1.71083">
        <ele>66.6</ele>
        <time>2022-04-02T06:36:56Z</time>
      </trkpt>
      <trkpt lat="47.32319" lon="-1.71048">
        <ele>66.2</ele>
        <time>2022-04-02T06:37:02Z</time>
      </trkpt>
      <trkpt lat="47.32355" lon="-1.71022">
        <ele>65.8</ele>
        <time>2022-04-02T06:37:08Z</time>
      </trkpt>
      <trkpt lat="47.32399" lon="-1.71005">
        <ele>65.4</ele>
        <time>2022-04-02T06:37:15Z</time>
      </trkpt>
      <trkpt lat="47.32442" lon="-1.71">
        <ele>65</ele>
        <time>2022-04-02T06:37:22Z</time>
      </trkpt>
      <trkpt lat="47.32459" lon="-1.70998">
        <ele>65</ele>
        <time>2022-04-02T06:37:25Z</time>
      </trkpt>
      <trkpt lat="47.32469" lon="-1.7099">
        <ele>64.8</ele>
        <time>2022-04-02T06:37:27Z</time>
      </trkpt>
      <trkpt lat="47.32482" lon="-1.70958">
        <ele>64.8</ele>
        <time>2022-04-02T06:37:31Z</time>
      </trkpt>
      <trkpt lat="47.32502" lon="-1.70885">
        <ele>63.8</ele>
        <time>2022-04-02T06:37:39Z</time>
      </trkpt>
      <trkpt lat="47.32507" lon="-1.70873">
        <ele>63.4</ele>
        <time>2022-04-02T06:37:42Z</time>
      </trkpt>
      <trkpt lat="47.32511" lon="-1.70871">
        <ele>63.2</ele>
        <time>2022-04-02T06:37:46Z</time>
      </trkpt>
      <trkpt lat="47.32513" lon="-1.70871">
        <ele>63</ele>
        <time>2022-04-02T06:37:47Z</time>
      </trkpt>
      <trkpt lat="47.32528" lon="-1.70876">
        <ele>62.2</ele>
        <time>2022-04-02T06:37:53Z</time>
      </trkpt>
      <trkpt lat="47.32551" lon="-1.70883">
        <ele>60.8</ele>
        <time>2022-04-02T06:37:59Z</time>
      </trkpt>
      <trkpt lat="47.32566" lon="-1.70887">
        <ele>59</ele>
        <time>2022-04-02T06:38:04Z</time>
      </trkpt>
      <trkpt lat="47.32584" lon="-1.7089">
        <ele>56.2</ele>
        <time>2022-04-02T06:38:09Z</time>
      </trkpt>
      <trkpt lat="47.32589" lon="-1.70891">
        <ele>55.4</ele>
        <time>2022-04-02T06:38:10Z</time>
      </trkpt>
      <trkpt lat="47.32598" lon="-1.70896">
        <ele>54</ele>
        <time>2022-04-02T06:38:12Z</time>
      </trkpt>
      <trkpt lat="47.32608" lon="-1.70902">
        <ele>52.4</ele>
        <time>2022-04-02T06:38:14Z</time>
      </trkpt>
      <trkpt lat="47.32617" lon="-1.70905">
        <ele>50.8</ele>
        <time>2022-04-02T06:38:16Z</time>
      </trkpt>
      <trkpt lat="47.32621" lon="-1.70905">
        <ele>50</ele>
        <time>2022-04-02T06:38:17Z</time>
      </trkpt>
      <trkpt lat="47.32628" lon="-1.70906">
        <ele>47.4</ele>
        <time>2022-04-02T06:38:20Z</time>
      </trkpt>
      <trkpt lat="47.3263" lon="-1.70905">
        <ele>46.6</ele>
        <time>2022-04-02T06:38:21Z</time>
      </trkpt>
      <trkpt lat="47.32639" lon="-1.70892">
        <ele>43.4</ele>
        <time>2022-04-02T06:38:25Z</time>
      </trkpt>
      <trkpt lat="47.32648" lon="-1.70883">
        <ele>42.2</ele>
        <time>2022-04-02T06:38:27Z</time>
      </trkpt>
      <trkpt lat="47.32655" lon="-1.70872">
        <ele>41</ele>
        <time>2022-04-02T06:38:29Z</time>
      </trkpt>
      <trkpt lat="47.32668" lon="-1.70851">
        <ele>38.8</ele>
        <time>2022-04-02T06:38:32Z</time>
      </trkpt>
      <trkpt lat="47.32671" lon="-1.70842">
        <ele>38.2</ele>
        <time>2022-04-02T06:38:33Z</time>
      </trkpt>
      <trkpt lat="47.32682" lon="-1.70818">
        <ele>36</ele>
        <time>2022-04-02T06:38:36Z</time>
      </trkpt>
      <trkpt lat="47.32684" lon="-1.70811">
        <ele>35.4</ele>
        <time>2022-04-02T06:38:37Z</time>
      </trkpt>
      <trkpt lat="47.32685" lon="-1.70805">
        <ele>34.6</ele>
        <time>2022-04-02T06:38:38Z</time>
      </trkpt>
      <trkpt lat="47.32695" lon="-1.70792">
        <ele>33.6</ele>
        <time>2022-04-02T06:38:40Z</time>
      </trkpt>
      <trkpt lat="47.32707" lon="-1.70777">
        <ele>30.4</ele>
        <time>2022-04-02T06:38:44Z</time>
      </trkpt>
      <trkpt lat="47.32723" lon="-1.70777">
        <ele>27.2</ele>
        <time>2022-04-02T06:38:48Z</time>
      </trkpt>
      <trkpt lat="47.32733" lon="-1.70777">
        <ele>26.6</ele>
        <time>2022-04-02T06:38:51Z</time>
      </trkpt>
      <trkpt lat="47.32772" lon="-1.70777">
        <ele>12</ele>
        <time>2022-04-02T06:39:49Z</time>
      </trkpt>
      <trkpt lat="47.3278" lon="-1.70782">
        <ele>12.6</ele>
        <time>2022-04-02T06:39:51Z</time>
      </trkpt>
      <trkpt lat="47.32788" lon="-1.70788">
        <ele>10.8</ele>
        <time>2022-04-02T06:39:53Z</time>
      </trkpt>
      <trkpt lat="47.32798" lon="-1.70798">
        <ele>10.8</ele>
        <time>2022-04-02T06:39:56Z</time>
      </trkpt>
      <trkpt lat="47.328" lon="-1.70802">
        <ele>10.2</ele>
        <time>2022-04-02T06:39:57Z</time>
      </trkpt>
      <trkpt lat="47.32809" lon="-1.70821">
        <ele>10.6</ele>
        <time>2022-04-02T06:40:02Z</time>
      </trkpt>
      <trkpt lat="47.32811" lon="-1.7083">
        <ele>9.8</ele>
        <time>2022-04-02T06:40:05Z</time>
      </trkpt>
      <trkpt lat="47.32809" lon="-1.70841">
        <ele>9.6</ele>
        <time>2022-04-02T06:40:08Z</time>
      </trkpt>
      <trkpt lat="47.3281" lon="-1.70852">
        <ele>9.2</ele>
        <time>2022-04-02T06:40:11Z</time>
      </trkpt>
      <trkpt lat="47.3281" lon="-1.70857">
        <ele>8.8</ele>
        <time>2022-04-02T06:40:14Z</time>
      </trkpt>
      <trkpt lat="47.32811" lon="-1.70863">
        <ele>8</ele>
        <time>2022-04-02T06:40:17Z</time>
      </trkpt>
      <trkpt lat="47.32813" lon="-1.70875">
        <ele>6.4</ele>
        <time>2022-04-02T06:40:22Z</time>
      </trkpt>
      <trkpt lat="47.32818" lon="-1.7088">
        <ele>4.2</ele>
        <time>2022-04-02T06:40:26Z</time>
      </trkpt>
      <trkpt lat="47.32824" lon="-1.7088">
        <ele>1.6</ele>
        <time>2022-04-02T06:40:30Z</time>
      </trkpt>
      <trkpt lat="47.32832" lon="-1.70878">
        <ele>0.19999999999999</ele>
        <time>2022-04-02T06:40:33Z</time>
      </trkpt>
      <trkpt lat="47.32835" lon="-1.70877">
        <ele>0.19999999999999</ele>
        <time>2022-04-02T06:40:34Z</time>
      </trkpt>
      <trkpt lat="47.32841" lon="-1.70874">
        <ele>-0.39999999999998</ele>
        <time>2022-04-02T06:40:36Z</time>
      </trkpt>
      <trkpt lat="47.32854" lon="-1.70871">
        <ele>-1.2</ele>
        <time>2022-04-02T06:40:40Z</time>
      </trkpt>
      <trkpt lat="47.32878" lon="-1.70875">
        <ele>-0.60000000000002</ele>
        <time>2022-04-02T06:40:45Z</time>
      </trkpt>
      <trkpt lat="47.32882" lon="-1.70876">
        <ele>-0.39999999999998</ele>
        <time>2022-04-02T06:40:46Z</time>
      </trkpt>
      <trkpt lat="47.32892" lon="-1.70884">
        <ele>0.39999999999998</ele>
        <time>2022-04-02T06:40:49Z</time>
      </trkpt>
      <trkpt lat="47.32908" lon="-1.70893">
        <ele>-2.6</ele>
        <time>2022-04-02T06:40:54Z</time>
      </trkpt>
      <trkpt lat="47.32912" lon="-1.70893">
        <ele>-2.4</ele>
        <time>2022-04-02T06:40:55Z</time>
      </trkpt>
      <trkpt lat="47.3292" lon="-1.70895">
        <ele>-1.4</ele>
        <time>2022-04-02T06:40:57Z</time>
      </trkpt>
      <trkpt lat="47.32932" lon="-1.709">
        <ele>0.80000000000001</ele>
        <time>2022-04-02T06:41:01Z</time>
      </trkpt>
      <trkpt lat="47.32946" lon="-1.70906">
        <ele>1.8</ele>
        <time>2022-04-02T06:41:05Z</time>
      </trkpt>
      <trkpt lat="47.32963" lon="-1.70913">
        <ele>0.19999999999999</ele>
        <time>2022-04-02T06:41:10Z</time>
      </trkpt>
      <trkpt lat="47.32982" lon="-1.70916">
        <ele>0.80000000000001</ele>
        <time>2022-04-02T06:41:15Z</time>
      </trkpt>
      <trkpt lat="47.32993" lon="-1.70911">
        <ele>2</ele>
        <time>2022-04-02T06:41:18Z</time>
      </trkpt>
      <trkpt lat="47.33014" lon="-1.70907">
        <ele>22</ele>
        <time>2022-04-02T06:44:18Z</time>
      </trkpt>
      <trkpt lat="47.33027" lon="-1.70909">
        <ele>22.6</ele>
        <time>2022-04-02T06:44:22Z</time>
      </trkpt>
      <trkpt lat="47.33047" lon="-1.709">
        <ele>23.2</ele>
        <time>2022-04-02T06:44:28Z</time>
      </trkpt>
      <trkpt lat="47.33061" lon="-1.70898">
        <ele>23.8</ele>
        <time>2022-04-02T06:44:32Z</time>
      </trkpt>
      <trkpt lat="47.33074" lon="-1.70908">
        <ele>25</ele>
        <time>2022-04-02T06:44:36Z</time>
      </trkpt>
      <trkpt lat="47.33075" lon="-1.70923">
        <ele>25.4</ele>
        <time>2022-04-02T06:44:39Z</time>
      </trkpt>
      <trkpt lat="47.33075" lon="-1.70946">
        <ele>26.4</ele>
        <time>2022-04-02T06:44:43Z</time>
      </trkpt>
      <trkpt lat="47.33074" lon="-1.70953">
        <ele>26.8</ele>
        <time>2022-04-02T06:44:44Z</time>
      </trkpt>
      <trkpt lat="47.33073" lon="-1.70967">
        <ele>27.2</ele>
        <time>2022-04-02T06:44:46Z</time>
      </trkpt>
      <trkpt lat="47.33073" lon="-1.71">
        <ele>28.4</ele>
        <time>2022-04-02T06:44:51Z</time>
      </trkpt>
      <trkpt lat="47.33072" lon="-1.71019">
        <ele>29</ele>
        <time>2022-04-02T06:44:54Z</time>
      </trkpt>
      <trkpt lat="47.33071" lon="-1.71038">
        <ele>29.6</ele>
        <time>2022-04-02T06:44:57Z</time>
      </trkpt>
      <trkpt lat="47.33072" lon="-1.71071">
        <ele>31</ele>
        <time>2022-04-02T06:45:03Z</time>
      </trkpt>
      <trkpt lat="47.33073" lon="-1.7109">
        <ele>31.8</ele>
        <time>2022-04-02T06:45:07Z</time>
      </trkpt>
      <trkpt lat="47.33073" lon="-1.71122">
        <ele>33</ele>
        <time>2022-04-02T06:45:13Z</time>
      </trkpt>
      <trkpt lat="47.33071" lon="-1.71161">
        <ele>34.8</ele>
        <time>2022-04-02T06:45:20Z</time>
      </trkpt>
      <trkpt lat="47.3307" lon="-1.71187">
        <ele>35.8</ele>
        <time>2022-04-02T06:45:25Z</time>
      </trkpt>
      <trkpt lat="47.33071" lon="-1.71192">
        <ele>36</ele>
        <time>2022-04-02T06:45:26Z</time>
      </trkpt>
      <trkpt lat="47.33073" lon="-1.71201">
        <ele>36.2</ele>
        <time>2022-04-02T06:45:28Z</time>
      </trkpt>
      <trkpt lat="47.33072" lon="-1.71206">
        <ele>36.2</ele>
        <time>2022-04-02T06:45:29Z</time>
      </trkpt>
      <trkpt lat="47.3307" lon="-1.71224">
        <ele>36.8</ele>
        <time>2022-04-02T06:45:32Z</time>
      </trkpt>
      <trkpt lat="47.33067" lon="-1.71266">
        <ele>38.4</ele>
        <time>2022-04-02T06:45:40Z</time>
      </trkpt>
      <trkpt lat="47.3306" lon="-1.71303">
        <ele>40.2</ele>
        <time>2022-04-02T06:45:47Z</time>
      </trkpt>
      <trkpt lat="47.33052" lon="-1.71328">
        <ele>41.6</ele>
        <time>2022-04-02T06:45:52Z</time>
      </trkpt>
      <trkpt lat="47.33041" lon="-1.71366">
        <ele>43</ele>
        <time>2022-04-02T06:45:59Z</time>
      </trkpt>
      <trkpt lat="47.33028" lon="-1.71406">
        <ele>44.4</ele>
        <time>2022-04-02T06:46:06Z</time>
      </trkpt>
      <trkpt lat="47.33024" lon="-1.71419">
        <ele>44.8</ele>
        <time>2022-04-02T06:46:08Z</time>
      </trkpt>
      <trkpt lat="47.33017" lon="-1.71437">
        <ele>45.4</ele>
        <time>2022-04-02T06:46:11Z</time>
      </trkpt>
      <trkpt lat="47.33015" lon="-1.71444">
        <ele>45.6</ele>
        <time>2022-04-02T06:46:12Z</time>
      </trkpt>
      <trkpt lat="47.33007" lon="-1.71471">
        <ele>46.2</ele>
        <time>2022-04-02T06:46:16Z</time>
      </trkpt>
      <trkpt lat="47.33005" lon="-1.71477">
        <ele>46.4</ele>
        <time>2022-04-02T06:46:17Z</time>
      </trkpt>
      <trkpt lat="47.33001" lon="-1.7149">
        <ele>46.6</ele>
        <time>2022-04-02T06:46:19Z</time>
      </trkpt>
      <trkpt lat="47.32997" lon="-1.71504">
        <ele>46.8</ele>
        <time>2022-04-02T06:46:21Z</time>
      </trkpt>
      <trkpt lat="47.33" lon="-1.71518">
        <ele>47</ele>
        <time>2022-04-02T06:46:23Z</time>
      </trkpt>
      <trkpt lat="47.33007" lon="-1.71529">
        <ele>47.2</ele>
        <time>2022-04-02T06:46:25Z</time>
      </trkpt>
      <trkpt lat="47.33016" lon="-1.71536">
        <ele>47.6</ele>
        <time>2022-04-02T06:46:27Z</time>
      </trkpt>
      <trkpt lat="47.33036" lon="-1.71557">
        <ele>48.2</ele>
        <time>2022-04-02T06:46:33Z</time>
      </trkpt>
      <trkpt lat="47.33052" lon="-1.71576">
        <ele>49</ele>
        <time>2022-04-02T06:46:38Z</time>
      </trkpt>
      <trkpt lat="47.33061" lon="-1.71581">
        <ele>49.4</ele>
        <time>2022-04-02T06:46:40Z</time>
      </trkpt>
      <trkpt lat="47.33092" lon="-1.71595">
        <ele>50.2</ele>
        <time>2022-04-02T06:46:48Z</time>
      </trkpt>
      <trkpt lat="47.3312" lon="-1.71605">
        <ele>50.8</ele>
        <time>2022-04-02T06:46:55Z</time>
      </trkpt>
      <trkpt lat="47.33136" lon="-1.71611">
        <ele>51.2</ele>
        <time>2022-04-02T06:46:59Z</time>
      </trkpt>
      <trkpt lat="47.33144" lon="-1.71613">
        <ele>51.4</ele>
        <time>2022-04-02T06:47:01Z</time>
      </trkpt>
      <trkpt lat="47.33172" lon="-1.7162">
        <ele>51.4</ele>
        <time>2022-04-02T06:47:08Z</time>
      </trkpt>
      <trkpt lat="47.33202" lon="-1.71628">
        <ele>51.2</ele>
        <time>2022-04-02T06:47:15Z</time>
      </trkpt>
      <trkpt lat="47.33207" lon="-1.71629">
        <ele>51.2</ele>
        <time>2022-04-02T06:47:16Z</time>
      </trkpt>
      <trkpt lat="47.33228" lon="-1.71633">
        <ele>51</ele>
        <time>2022-04-02T06:47:21Z</time>
      </trkpt>
      <trkpt lat="47.33244" lon="-1.71633">
        <ele>50.6</ele>
        <time>2022-04-02T06:47:25Z</time>
      </trkpt>
      <trkpt lat="47.33271" lon="-1.71638">
        <ele>51.8</ele>
        <time>2022-04-02T06:47:30Z</time>
      </trkpt>
      <trkpt lat="47.33276" lon="-1.71641">
        <ele>52</ele>
        <time>2022-04-02T06:47:31Z</time>
      </trkpt>
      <trkpt lat="47.33286" lon="-1.71648">
        <ele>52.2</ele>
        <time>2022-04-02T06:47:33Z</time>
      </trkpt>
      <trkpt lat="47.3329" lon="-1.71653">
        <ele>52.4</ele>
        <time>2022-04-02T06:47:34Z</time>
      </trkpt>
      <trkpt lat="47.33309" lon="-1.71678">
        <ele>52.8</ele>
        <time>2022-04-02T06:47:39Z</time>
      </trkpt>
      <trkpt lat="47.33313" lon="-1.71682">
        <ele>52.6</ele>
        <time>2022-04-02T06:47:40Z</time>
      </trkpt>
      <trkpt lat="47.33316" lon="-1.71685">
        <ele>52.6</ele>
        <time>2022-04-02T06:47:41Z</time>
      </trkpt>
      <trkpt lat="47.33328" lon="-1.71694">
        <ele>52.4</ele>
        <time>2022-04-02T06:47:44Z</time>
      </trkpt>
      <trkpt lat="47.33332" lon="-1.71696">
        <ele>52.2</ele>
        <time>2022-04-02T06:47:45Z</time>
      </trkpt>
      <trkpt lat="47.33355" lon="-1.717">
        <ele>51.4</ele>
        <time>2022-04-02T06:47:51Z</time>
      </trkpt>
      <trkpt lat="47.33375" lon="-1.71705">
        <ele>50.4</ele>
        <time>2022-04-02T06:47:57Z</time>
      </trkpt>
      <trkpt lat="47.33379" lon="-1.71705">
        <ele>50.2</ele>
        <time>2022-04-02T06:47:58Z</time>
      </trkpt>
      <trkpt lat="47.33404" lon="-1.71705">
        <ele>49.4</ele>
        <time>2022-04-02T06:48:03Z</time>
      </trkpt>
      <trkpt lat="47.33435" lon="-1.71707">
        <ele>49.4</ele>
        <time>2022-04-02T06:48:09Z</time>
      </trkpt>
      <trkpt lat="47.3345" lon="-1.71708">
        <ele>49.2</ele>
        <time>2022-04-02T06:48:12Z</time>
      </trkpt>
      <trkpt lat="47.33461" lon="-1.7171">
        <ele>49.2</ele>
        <time>2022-04-02T06:48:14Z</time>
      </trkpt>
      <trkpt lat="47.3349" lon="-1.71715">
        <ele>48.8</ele>
        <time>2022-04-02T06:48:20Z</time>
      </trkpt>
      <trkpt lat="47.33522" lon="-1.71714">
        <ele>48.2</ele>
        <time>2022-04-02T06:48:27Z</time>
      </trkpt>
      <trkpt lat="47.33526" lon="-1.71713">
        <ele>48.2</ele>
        <time>2022-04-02T06:48:28Z</time>
      </trkpt>
      <trkpt lat="47.33553" lon="-1.71706">
        <ele>48.2</ele>
        <time>2022-04-02T06:48:33Z</time>
      </trkpt>
      <trkpt lat="47.33584" lon="-1.71696">
        <ele>48.2</ele>
        <time>2022-04-02T06:48:40Z</time>
      </trkpt>
      <trkpt lat="47.33593" lon="-1.71694">
        <ele>48.2</ele>
        <time>2022-04-02T06:48:42Z</time>
      </trkpt>
      <trkpt lat="47.33608" lon="-1.71694">
        <ele>48.2</ele>
        <time>2022-04-02T06:48:45Z</time>
      </trkpt>
      <trkpt lat="47.33629" lon="-1.71698">
        <ele>47.6</ele>
        <time>2022-04-02T06:48:50Z</time>
      </trkpt>
      <trkpt lat="47.33638" lon="-1.71701">
        <ele>47</ele>
        <time>2022-04-02T06:48:52Z</time>
      </trkpt>
      <trkpt lat="47.33654" lon="-1.71705">
        <ele>46</ele>
        <time>2022-04-02T06:48:56Z</time>
      </trkpt>
      <trkpt lat="47.33675" lon="-1.71706">
        <ele>44.4</ele>
        <time>2022-04-02T06:49:01Z</time>
      </trkpt>
      <trkpt lat="47.33701" lon="-1.71708">
        <ele>42.4</ele>
        <time>2022-04-02T06:49:07Z</time>
      </trkpt>
      <trkpt lat="47.33734" lon="-1.71707">
        <ele>40.6</ele>
        <time>2022-04-02T06:49:14Z</time>
      </trkpt>
      <trkpt lat="47.33763" lon="-1.71705">
        <ele>39.6</ele>
        <time>2022-04-02T06:49:20Z</time>
      </trkpt>
      <trkpt lat="47.33794" lon="-1.71698">
        <ele>38.4</ele>
        <time>2022-04-02T06:49:26Z</time>
      </trkpt>
      <trkpt lat="47.33822" lon="-1.71692">
        <ele>37.8</ele>
        <time>2022-04-02T06:49:32Z</time>
      </trkpt>
      <trkpt lat="47.33845" lon="-1.71689">
        <ele>37.6</ele>
        <time>2022-04-02T06:49:37Z</time>
      </trkpt>
      <trkpt lat="47.33872" lon="-1.71681">
        <ele>36.6</ele>
        <time>2022-04-02T06:49:43Z</time>
      </trkpt>
      <trkpt lat="47.33916" lon="-1.71676">
        <ele>37.4</ele>
        <time>2022-04-02T06:49:51Z</time>
      </trkpt>
      <trkpt lat="47.33945" lon="-1.71673">
        <ele>37.2</ele>
        <time>2022-04-02T06:49:57Z</time>
      </trkpt>
      <trkpt lat="47.33975" lon="-1.7167">
        <ele>37.8</ele>
        <time>2022-04-02T06:50:03Z</time>
      </trkpt>
      <trkpt lat="47.34014" lon="-1.71668">
        <ele>38</ele>
        <time>2022-04-02T06:50:11Z</time>
      </trkpt>
      <trkpt lat="47.34054" lon="-1.71673">
        <ele>38.4</ele>
        <time>2022-04-02T06:50:19Z</time>
      </trkpt>
      <trkpt lat="47.34082" lon="-1.71681">
        <ele>38.6</ele>
        <time>2022-04-02T06:50:25Z</time>
      </trkpt>
      <trkpt lat="47.34115" lon="-1.71692">
        <ele>39.2</ele>
        <time>2022-04-02T06:50:32Z</time>
      </trkpt>
      <trkpt lat="47.34129" lon="-1.71696">
        <ele>39.4</ele>
        <time>2022-04-02T06:50:35Z</time>
      </trkpt>
      <trkpt lat="47.34139" lon="-1.71697">
        <ele>39.2</ele>
        <time>2022-04-02T06:50:37Z</time>
      </trkpt>
      <trkpt lat="47.34143" lon="-1.71699">
        <ele>39.2</ele>
        <time>2022-04-02T06:50:38Z</time>
      </trkpt>
      <trkpt lat="47.3417" lon="-1.71709">
        <ele>39.6</ele>
        <time>2022-04-02T06:50:44Z</time>
      </trkpt>
      <trkpt lat="47.34194" lon="-1.71717">
        <ele>40</ele>
        <time>2022-04-02T06:50:49Z</time>
      </trkpt>
      <trkpt lat="47.34217" lon="-1.71723">
        <ele>40.4</ele>
        <time>2022-04-02T06:50:54Z</time>
      </trkpt>
      <trkpt lat="47.34222" lon="-1.71725">
        <ele>40.4</ele>
        <time>2022-04-02T06:50:55Z</time>
      </trkpt>
      <trkpt lat="47.34232" lon="-1.71727">
        <ele>40.8</ele>
        <time>2022-04-02T06:50:57Z</time>
      </trkpt>
      <trkpt lat="47.34238" lon="-1.7173">
        <ele>40.8</ele>
        <time>2022-04-02T06:50:58Z</time>
      </trkpt>
      <trkpt lat="47.34252" lon="-1.71733">
        <ele>41.2</ele>
        <time>2022-04-02T06:51:02Z</time>
      </trkpt>
      <trkpt lat="47.34252" lon="-1.71734">
        <ele>41.4</ele>
        <time>2022-04-02T06:51:03Z</time>
      </trkpt>
      <trkpt lat="47.34257" lon="-1.7174">
        <ele>41.4</ele>
        <time>2022-04-02T06:51:05Z</time>
      </trkpt>
      <trkpt lat="47.3426" lon="-1.7174">
        <ele>41.4</ele>
        <time>2022-04-02T06:51:06Z</time>
      </trkpt>
      <trkpt lat="47.34262" lon="-1.71743">
        <ele>41.4</ele>
        <time>2022-04-02T06:51:08Z</time>
      </trkpt>
      <trkpt lat="47.34274" lon="-1.71746">
        <ele>41.6</ele>
        <time>2022-04-02T06:51:12Z</time>
      </trkpt>
      <trkpt lat="47.34278" lon="-1.71746">
        <ele>41.8</ele>
        <time>2022-04-02T06:51:13Z</time>
      </trkpt>
      <trkpt lat="47.34295" lon="-1.71751">
        <ele>41.8</ele>
        <time>2022-04-02T06:51:18Z</time>
      </trkpt>
      <trkpt lat="47.34307" lon="-1.71754">
        <ele>41.6</ele>
        <time>2022-04-02T06:51:22Z</time>
      </trkpt>
      <trkpt lat="47.34312" lon="-1.71755">
        <ele>41.8</ele>
        <time>2022-04-02T06:51:24Z</time>
      </trkpt>
      <trkpt lat="47.3432" lon="-1.71759">
        <ele>42.2</ele>
        <time>2022-04-02T06:51:26Z</time>
      </trkpt>
      <trkpt lat="47.34335" lon="-1.71762">
        <ele>44</ele>
        <time>2022-04-02T06:51:31Z</time>
      </trkpt>
      <trkpt lat="47.34339" lon="-1.71763">
        <ele>44.2</ele>
        <time>2022-04-02T06:51:33Z</time>
      </trkpt>
      <trkpt lat="47.34346" lon="-1.71764">
        <ele>44.4</ele>
        <time>2022-04-02T06:51:35Z</time>
      </trkpt>
      <trkpt lat="47.34349" lon="-1.71766">
        <ele>44.4</ele>
        <time>2022-04-02T06:51:36Z</time>
      </trkpt>
      <trkpt lat="47.3437" lon="-1.71773">
        <ele>44</ele>
        <time>2022-04-02T06:51:42Z</time>
      </trkpt>
      <trkpt lat="47.34384" lon="-1.71779">
        <ele>44</ele>
        <time>2022-04-02T06:51:46Z</time>
      </trkpt>
      <trkpt lat="47.34401" lon="-1.71785">
        <ele>43.8</ele>
        <time>2022-04-02T06:51:51Z</time>
      </trkpt>
      <trkpt lat="47.34438" lon="-1.71797">
        <ele>44.2</ele>
        <time>2022-04-02T06:51:59Z</time>
      </trkpt>
      <trkpt lat="47.34468" lon="-1.71806">
        <ele>44.6</ele>
        <time>2022-04-02T06:52:05Z</time>
      </trkpt>
      <trkpt lat="47.3449" lon="-1.71815">
        <ele>44.6</ele>
        <time>2022-04-02T06:52:10Z</time>
      </trkpt>
      <trkpt lat="47.34526" lon="-1.71827">
        <ele>45.4</ele>
        <time>2022-04-02T06:52:18Z</time>
      </trkpt>
      <trkpt lat="47.34531" lon="-1.71827">
        <ele>45.4</ele>
        <time>2022-04-02T06:52:19Z</time>
      </trkpt>
      <trkpt lat="47.34548" lon="-1.71831">
        <ele>45.6</ele>
        <time>2022-04-02T06:52:22Z</time>
      </trkpt>
      <trkpt lat="47.34553" lon="-1.71833">
        <ele>45.6</ele>
        <time>2022-04-02T06:52:23Z</time>
      </trkpt>
      <trkpt lat="47.34568" lon="-1.71837">
        <ele>45.6</ele>
        <time>2022-04-02T06:52:26Z</time>
      </trkpt>
      <trkpt lat="47.34577" lon="-1.71841">
        <ele>45.4</ele>
        <time>2022-04-02T06:52:28Z</time>
      </trkpt>
      <trkpt lat="47.34587" lon="-1.71845">
        <ele>45.2</ele>
        <time>2022-04-02T06:52:30Z</time>
      </trkpt>
      <trkpt lat="47.34605" lon="-1.71851">
        <ele>44.6</ele>
        <time>2022-04-02T06:52:34Z</time>
      </trkpt>
      <trkpt lat="47.3461" lon="-1.71853">
        <ele>44.4</ele>
        <time>2022-04-02T06:52:35Z</time>
      </trkpt>
      <trkpt lat="47.34619" lon="-1.71856">
        <ele>44.2</ele>
        <time>2022-04-02T06:52:37Z</time>
      </trkpt>
      <trkpt lat="47.34624" lon="-1.71857">
        <ele>44.2</ele>
        <time>2022-04-02T06:52:38Z</time>
      </trkpt>
      <trkpt lat="47.34653" lon="-1.71868">
        <ele>44</ele>
        <time>2022-04-02T06:52:44Z</time>
      </trkpt>
      <trkpt lat="47.3468" lon="-1.71876">
        <ele>44</ele>
        <time>2022-04-02T06:52:50Z</time>
      </trkpt>
      <trkpt lat="47.34689" lon="-1.71883">
        <ele>44.8</ele>
        <time>2022-04-02T06:52:52Z</time>
      </trkpt>
      <trkpt lat="47.34692" lon="-1.71888">
        <ele>45.4</ele>
        <time>2022-04-02T06:52:53Z</time>
      </trkpt>
      <trkpt lat="47.34698" lon="-1.71903">
        <ele>48.6</ele>
        <time>2022-04-02T06:52:56Z</time>
      </trkpt>
      <trkpt lat="47.34693" lon="-1.71925">
        <ele>50</ele>
        <time>2022-04-02T06:53:00Z</time>
      </trkpt>
      <trkpt lat="47.34691" lon="-1.71931">
        <ele>50.2</ele>
        <time>2022-04-02T06:53:01Z</time>
      </trkpt>
      <trkpt lat="47.34689" lon="-1.71937">
        <ele>50.6</ele>
        <time>2022-04-02T06:53:02Z</time>
      </trkpt>
      <trkpt lat="47.3468" lon="-1.71965">
        <ele>51.2</ele>
        <time>2022-04-02T06:53:06Z</time>
      </trkpt>
      <trkpt lat="47.34677" lon="-1.71972">
        <ele>51.4</ele>
        <time>2022-04-02T06:53:07Z</time>
      </trkpt>
      <trkpt lat="47.34674" lon="-1.71985">
        <ele>51.8</ele>
        <time>2022-04-02T06:53:09Z</time>
      </trkpt>
      <trkpt lat="47.34666" lon="-1.7201">
        <ele>52.8</ele>
        <time>2022-04-02T06:53:13Z</time>
      </trkpt>
      <trkpt lat="47.34657" lon="-1.72039">
        <ele>53.6</ele>
        <time>2022-04-02T06:53:17Z</time>
      </trkpt>
      <trkpt lat="47.34654" lon="-1.72046">
        <ele>53.8</ele>
        <time>2022-04-02T06:53:18Z</time>
      </trkpt>
      <trkpt lat="47.3465" lon="-1.7206">
        <ele>54.4</ele>
        <time>2022-04-02T06:53:20Z</time>
      </trkpt>
      <trkpt lat="47.34644" lon="-1.72083">
        <ele>55.4</ele>
        <time>2022-04-02T06:53:23Z</time>
      </trkpt>
      <trkpt lat="47.34641" lon="-1.72098">
        <ele>56</ele>
        <time>2022-04-02T06:53:25Z</time>
      </trkpt>
      <trkpt lat="47.3464" lon="-1.72106">
        <ele>56.2</ele>
        <time>2022-04-02T06:53:26Z</time>
      </trkpt>
      <trkpt lat="47.34634" lon="-1.72153">
        <ele>58</ele>
        <time>2022-04-02T06:53:32Z</time>
      </trkpt>
      <trkpt lat="47.3463" lon="-1.72215">
        <ele>59.8</ele>
        <time>2022-04-02T06:53:40Z</time>
      </trkpt>
      <trkpt lat="47.34629" lon="-1.72231">
        <ele>60.4</ele>
        <time>2022-04-02T06:53:42Z</time>
      </trkpt>
      <trkpt lat="47.34628" lon="-1.72263">
        <ele>61.2</ele>
        <time>2022-04-02T06:53:46Z</time>
      </trkpt>
      <trkpt lat="47.34628" lon="-1.72279">
        <ele>61.6</ele>
        <time>2022-04-02T06:53:48Z</time>
      </trkpt>
      <trkpt lat="47.3463" lon="-1.72293">
        <ele>62</ele>
        <time>2022-04-02T06:53:50Z</time>
      </trkpt>
      <trkpt lat="47.34635" lon="-1.7235">
        <ele>63.6</ele>
        <time>2022-04-02T06:53:58Z</time>
      </trkpt>
      <trkpt lat="47.34639" lon="-1.72395">
        <ele>64.4</ele>
        <time>2022-04-02T06:54:04Z</time>
      </trkpt>
      <trkpt lat="47.3464" lon="-1.7241">
        <ele>64.8</ele>
        <time>2022-04-02T06:54:06Z</time>
      </trkpt>
      <trkpt lat="47.34643" lon="-1.72424">
        <ele>65</ele>
        <time>2022-04-02T06:54:08Z</time>
      </trkpt>
      <trkpt lat="47.34644" lon="-1.72431">
        <ele>65.2</ele>
        <time>2022-04-02T06:54:09Z</time>
      </trkpt>
      <trkpt lat="47.34645" lon="-1.72439">
        <ele>65.2</ele>
        <time>2022-04-02T06:54:10Z</time>
      </trkpt>
      <trkpt lat="47.34649" lon="-1.72469">
        <ele>65.6</ele>
        <time>2022-04-02T06:54:14Z</time>
      </trkpt>
      <trkpt lat="47.34656" lon="-1.72513">
        <ele>66.2</ele>
        <time>2022-04-02T06:54:20Z</time>
      </trkpt>
      <trkpt lat="47.34658" lon="-1.72529">
        <ele>66.2</ele>
        <time>2022-04-02T06:54:22Z</time>
      </trkpt>
      <trkpt lat="47.34659" lon="-1.72537">
        <ele>66.4</ele>
        <time>2022-04-02T06:54:23Z</time>
      </trkpt>
      <trkpt lat="47.3466" lon="-1.72553">
        <ele>66.4</ele>
        <time>2022-04-02T06:54:25Z</time>
      </trkpt>
      <trkpt lat="47.34662" lon="-1.7256">
        <ele>66.6</ele>
        <time>2022-04-02T06:54:26Z</time>
      </trkpt>
      <trkpt lat="47.34664" lon="-1.72574">
        <ele>66.6</ele>
        <time>2022-04-02T06:54:28Z</time>
      </trkpt>
      <trkpt lat="47.34668" lon="-1.72605">
        <ele>66.8</ele>
        <time>2022-04-02T06:54:32Z</time>
      </trkpt>
      <trkpt lat="47.34671" lon="-1.7262">
        <ele>66.8</ele>
        <time>2022-04-02T06:54:34Z</time>
      </trkpt>
      <trkpt lat="47.34673" lon="-1.72635">
        <ele>67</ele>
        <time>2022-04-02T06:54:36Z</time>
      </trkpt>
      <trkpt lat="47.34674" lon="-1.72642">
        <ele>67</ele>
        <time>2022-04-02T06:54:37Z</time>
      </trkpt>
      <trkpt lat="47.34675" lon="-1.7265">
        <ele>67</ele>
        <time>2022-04-02T06:54:38Z</time>
      </trkpt>
      <trkpt lat="47.34676" lon="-1.72665">
        <ele>67</ele>
        <time>2022-04-02T06:54:40Z</time>
      </trkpt>
      <trkpt lat="47.34677" lon="-1.7268">
        <ele>67.2</ele>
        <time>2022-04-02T06:54:42Z</time>
      </trkpt>
      <trkpt lat="47.34679" lon="-1.72695">
        <ele>67.4</ele>
        <time>2022-04-02T06:54:44Z</time>
      </trkpt>
      <trkpt lat="47.34682" lon="-1.72709">
        <ele>67.6</ele>
        <time>2022-04-02T06:54:46Z</time>
      </trkpt>
      <trkpt lat="47.34684" lon="-1.72738">
        <ele>67.8</ele>
        <time>2022-04-02T06:54:50Z</time>
      </trkpt>
      <trkpt lat="47.34686" lon="-1.72752">
        <ele>67.8</ele>
        <time>2022-04-02T06:54:52Z</time>
      </trkpt>
      <trkpt lat="47.34688" lon="-1.72759">
        <ele>68</ele>
        <time>2022-04-02T06:54:53Z</time>
      </trkpt>
      <trkpt lat="47.34689" lon="-1.72766">
        <ele>68</ele>
        <time>2022-04-02T06:54:54Z</time>
      </trkpt>
      <trkpt lat="47.34694" lon="-1.72802">
        <ele>68.2</ele>
        <time>2022-04-02T06:54:59Z</time>
      </trkpt>
      <trkpt lat="47.34696" lon="-1.72817">
        <ele>68.4</ele>
        <time>2022-04-02T06:55:01Z</time>
      </trkpt>
      <trkpt lat="47.34699" lon="-1.72839">
        <ele>68.6</ele>
        <time>2022-04-02T06:55:04Z</time>
      </trkpt>
      <trkpt lat="47.34705" lon="-1.72893">
        <ele>68.8</ele>
        <time>2022-04-02T06:55:11Z</time>
      </trkpt>
      <trkpt lat="47.34707" lon="-1.72908">
        <ele>68.8</ele>
        <time>2022-04-02T06:55:13Z</time>
      </trkpt>
      <trkpt lat="47.34712" lon="-1.72937">
        <ele>69</ele>
        <time>2022-04-02T06:55:17Z</time>
      </trkpt>
      <trkpt lat="47.34717" lon="-1.72974">
        <ele>69.2</ele>
        <time>2022-04-02T06:55:22Z</time>
      </trkpt>
      <trkpt lat="47.34719" lon="-1.72988">
        <ele>69.4</ele>
        <time>2022-04-02T06:55:24Z</time>
      </trkpt>
      <trkpt lat="47.34722" lon="-1.73001">
        <ele>69.4</ele>
        <time>2022-04-02T06:55:26Z</time>
      </trkpt>
      <trkpt lat="47.34725" lon="-1.73029">
        <ele>69.2</ele>
        <time>2022-04-02T06:55:30Z</time>
      </trkpt>
      <trkpt lat="47.34726" lon="-1.73068">
        <ele>69.8</ele>
        <time>2022-04-02T06:55:36Z</time>
      </trkpt>
      <trkpt lat="47.34733" lon="-1.73094">
        <ele>70</ele>
        <time>2022-04-02T06:55:41Z</time>
      </trkpt>
      <trkpt lat="47.34735" lon="-1.731">
        <ele>70</ele>
        <time>2022-04-02T06:55:42Z</time>
      </trkpt>
      <trkpt lat="47.34741" lon="-1.73119">
        <ele>70.2</ele>
        <time>2022-04-02T06:55:45Z</time>
      </trkpt>
      <trkpt lat="47.34746" lon="-1.7313">
        <ele>70.2</ele>
        <time>2022-04-02T06:55:47Z</time>
      </trkpt>
      <trkpt lat="47.34749" lon="-1.73142">
        <ele>70.2</ele>
        <time>2022-04-02T06:55:49Z</time>
      </trkpt>
      <trkpt lat="47.34751" lon="-1.73149">
        <ele>70.2</ele>
        <time>2022-04-02T06:55:50Z</time>
      </trkpt>
      <trkpt lat="47.34754" lon="-1.73162">
        <ele>70.2</ele>
        <time>2022-04-02T06:55:52Z</time>
      </trkpt>
      <trkpt lat="47.34757" lon="-1.73177">
        <ele>70.2</ele>
        <time>2022-04-02T06:55:54Z</time>
      </trkpt>
      <trkpt lat="47.3476" lon="-1.73183">
        <ele>70.2</ele>
        <time>2022-04-02T06:55:55Z</time>
      </trkpt>
      <trkpt lat="47.34765" lon="-1.73197">
        <ele>70.2</ele>
        <time>2022-04-02T06:55:57Z</time>
      </trkpt>
      <trkpt lat="47.34768" lon="-1.73211">
        <ele>70.2</ele>
        <time>2022-04-02T06:55:59Z</time>
      </trkpt>
      <trkpt lat="47.34774" lon="-1.7325">
        <ele>70.4</ele>
        <time>2022-04-02T06:56:04Z</time>
      </trkpt>
      <trkpt lat="47.34775" lon="-1.73256">
        <ele>70.2</ele>
        <time>2022-04-02T06:56:05Z</time>
      </trkpt>
      <trkpt lat="47.34777" lon="-1.73263">
        <ele>70.2</ele>
        <time>2022-04-02T06:56:06Z</time>
      </trkpt>
      <trkpt lat="47.34779" lon="-1.73288">
        <ele>70.2</ele>
        <time>2022-04-02T06:56:09Z</time>
      </trkpt>
      <trkpt lat="47.34782" lon="-1.73302">
        <ele>70.2</ele>
        <time>2022-04-02T06:56:11Z</time>
      </trkpt>
      <trkpt lat="47.34782" lon="-1.73317">
        <ele>70</ele>
        <time>2022-04-02T06:56:13Z</time>
      </trkpt>
      <trkpt lat="47.34782" lon="-1.73332">
        <ele>70</ele>
        <time>2022-04-02T06:56:15Z</time>
      </trkpt>
      <trkpt lat="47.34782" lon="-1.73349">
        <ele>70</ele>
        <time>2022-04-02T06:56:17Z</time>
      </trkpt>
      <trkpt lat="47.34782" lon="-1.73357">
        <ele>70</ele>
        <time>2022-04-02T06:56:18Z</time>
      </trkpt>
      <trkpt lat="47.34782" lon="-1.73365">
        <ele>70</ele>
        <time>2022-04-02T06:56:19Z</time>
      </trkpt>
      <trkpt lat="47.34782" lon="-1.73387">
        <ele>69.8</ele>
        <time>2022-04-02T06:56:22Z</time>
      </trkpt>
      <trkpt lat="47.3478" lon="-1.73414">
        <ele>69.6</ele>
        <time>2022-04-02T06:56:25Z</time>
      </trkpt>
      <trkpt lat="47.34781" lon="-1.73422">
        <ele>69.6</ele>
        <time>2022-04-02T06:56:26Z</time>
      </trkpt>
      <trkpt lat="47.34783" lon="-1.73446">
        <ele>69.4</ele>
        <time>2022-04-02T06:56:29Z</time>
      </trkpt>
      <trkpt lat="47.34783" lon="-1.73462">
        <ele>69.4</ele>
        <time>2022-04-02T06:56:31Z</time>
      </trkpt>
      <trkpt lat="47.34783" lon="-1.73476">
        <ele>69.2</ele>
        <time>2022-04-02T06:56:33Z</time>
      </trkpt>
      <trkpt lat="47.34783" lon="-1.73484">
        <ele>69</ele>
        <time>2022-04-02T06:56:34Z</time>
      </trkpt>
      <trkpt lat="47.34781" lon="-1.73532">
        <ele>68.6</ele>
        <time>2022-04-02T06:56:40Z</time>
      </trkpt>
      <trkpt lat="47.34776" lon="-1.73568">
        <ele>69</ele>
        <time>2022-04-02T06:56:44Z</time>
      </trkpt>
      <trkpt lat="47.34776" lon="-1.73584">
        <ele>69</ele>
        <time>2022-04-02T06:56:46Z</time>
      </trkpt>
      <trkpt lat="47.34775" lon="-1.73592">
        <ele>69.8</ele>
        <time>2022-04-02T06:56:47Z</time>
      </trkpt>
      <trkpt lat="47.34775" lon="-1.736">
        <ele>70.2</ele>
        <time>2022-04-02T06:56:48Z</time>
      </trkpt>
      <trkpt lat="47.34775" lon="-1.73615">
        <ele>69.6</ele>
        <time>2022-04-02T06:56:50Z</time>
      </trkpt>
      <trkpt lat="47.34774" lon="-1.73623">
        <ele>69.6</ele>
        <time>2022-04-02T06:56:51Z</time>
      </trkpt>
      <trkpt lat="47.34774" lon="-1.73639">
        <ele>69.8</ele>
        <time>2022-04-02T06:56:53Z</time>
      </trkpt>
      <trkpt lat="47.34774" lon="-1.73655">
        <ele>70</ele>
        <time>2022-04-02T06:56:55Z</time>
      </trkpt>
      <trkpt lat="47.34774" lon="-1.73664">
        <ele>70</ele>
        <time>2022-04-02T06:56:56Z</time>
      </trkpt>
      <trkpt lat="47.34774" lon="-1.73677">
        <ele>70.2</ele>
        <time>2022-04-02T06:56:58Z</time>
      </trkpt>
      <trkpt lat="47.34773" lon="-1.73685">
        <ele>70.2</ele>
        <time>2022-04-02T06:56:59Z</time>
      </trkpt>
      <trkpt lat="47.34773" lon="-1.73702">
        <ele>70.2</ele>
        <time>2022-04-02T06:57:01Z</time>
      </trkpt>
      <trkpt lat="47.34773" lon="-1.73717">
        <ele>70.2</ele>
        <time>2022-04-02T06:57:03Z</time>
      </trkpt>
      <trkpt lat="47.34772" lon="-1.73733">
        <ele>70.4</ele>
        <time>2022-04-02T06:57:05Z</time>
      </trkpt>
      <trkpt lat="47.34772" lon="-1.7375">
        <ele>70.4</ele>
        <time>2022-04-02T06:57:07Z</time>
      </trkpt>
      <trkpt lat="47.3477" lon="-1.73766">
        <ele>70.6</ele>
        <time>2022-04-02T06:57:09Z</time>
      </trkpt>
      <trkpt lat="47.3477" lon="-1.73789">
        <ele>70.8</ele>
        <time>2022-04-02T06:57:12Z</time>
      </trkpt>
      <trkpt lat="47.3477" lon="-1.73805">
        <ele>71</ele>
        <time>2022-04-02T06:57:14Z</time>
      </trkpt>
      <trkpt lat="47.3477" lon="-1.73822">
        <ele>71</ele>
        <time>2022-04-02T06:57:16Z</time>
      </trkpt>
      <trkpt lat="47.34771" lon="-1.73829">
        <ele>71.2</ele>
        <time>2022-04-02T06:57:17Z</time>
      </trkpt>
      <trkpt lat="47.34772" lon="-1.73835">
        <ele>71.2</ele>
        <time>2022-04-02T06:57:18Z</time>
      </trkpt>
      <trkpt lat="47.34774" lon="-1.73849">
        <ele>71.2</ele>
        <time>2022-04-02T06:57:20Z</time>
      </trkpt>
      <trkpt lat="47.34774" lon="-1.73866">
        <ele>71.2</ele>
        <time>2022-04-02T06:57:22Z</time>
      </trkpt>
      <trkpt lat="47.34773" lon="-1.73881">
        <ele>71.2</ele>
        <time>2022-04-02T06:57:24Z</time>
      </trkpt>
      <trkpt lat="47.34773" lon="-1.73889">
        <ele>71.2</ele>
        <time>2022-04-02T06:57:25Z</time>
      </trkpt>
      <trkpt lat="47.34772" lon="-1.73905">
        <ele>71.2</ele>
        <time>2022-04-02T06:57:27Z</time>
      </trkpt>
      <trkpt lat="47.34771" lon="-1.73929">
        <ele>71.2</ele>
        <time>2022-04-02T06:57:30Z</time>
      </trkpt>
      <trkpt lat="47.34772" lon="-1.73946">
        <ele>71.2</ele>
        <time>2022-04-02T06:57:32Z</time>
      </trkpt>
      <trkpt lat="47.34773" lon="-1.73959">
        <ele>71.2</ele>
        <time>2022-04-02T06:57:34Z</time>
      </trkpt>
      <trkpt lat="47.34772" lon="-1.73967">
        <ele>71.4</ele>
        <time>2022-04-02T06:57:35Z</time>
      </trkpt>
      <trkpt lat="47.34771" lon="-1.73975">
        <ele>71.4</ele>
        <time>2022-04-02T06:57:36Z</time>
      </trkpt>
      <trkpt lat="47.34771" lon="-1.73993">
        <ele>71.4</ele>
        <time>2022-04-02T06:57:38Z</time>
      </trkpt>
      <trkpt lat="47.34768" lon="-1.74011">
        <ele>71.6</ele>
        <time>2022-04-02T06:57:40Z</time>
      </trkpt>
      <trkpt lat="47.34764" lon="-1.74036">
        <ele>71.6</ele>
        <time>2022-04-02T06:57:43Z</time>
      </trkpt>
      <trkpt lat="47.34763" lon="-1.74042">
        <ele>71.6</ele>
        <time>2022-04-02T06:57:44Z</time>
      </trkpt>
      <trkpt lat="47.34759" lon="-1.74058">
        <ele>71.6</ele>
        <time>2022-04-02T06:57:46Z</time>
      </trkpt>
      <trkpt lat="47.34757" lon="-1.74067">
        <ele>71.6</ele>
        <time>2022-04-02T06:57:47Z</time>
      </trkpt>
      <trkpt lat="47.34756" lon="-1.74076">
        <ele>71.6</ele>
        <time>2022-04-02T06:57:48Z</time>
      </trkpt>
      <trkpt lat="47.34753" lon="-1.74093">
        <ele>71.8</ele>
        <time>2022-04-02T06:57:50Z</time>
      </trkpt>
      <trkpt lat="47.34749" lon="-1.74116">
        <ele>71.8</ele>
        <time>2022-04-02T06:57:53Z</time>
      </trkpt>
      <trkpt lat="47.34747" lon="-1.74124">
        <ele>72</ele>
        <time>2022-04-02T06:57:54Z</time>
      </trkpt>
      <trkpt lat="47.34746" lon="-1.74132">
        <ele>72</ele>
        <time>2022-04-02T06:57:55Z</time>
      </trkpt>
      <trkpt lat="47.34746" lon="-1.74146">
        <ele>72</ele>
        <time>2022-04-02T06:57:57Z</time>
      </trkpt>
      <trkpt lat="47.34745" lon="-1.74154">
        <ele>72</ele>
        <time>2022-04-02T06:57:58Z</time>
      </trkpt>
      <trkpt lat="47.34743" lon="-1.74161">
        <ele>72</ele>
        <time>2022-04-02T06:57:59Z</time>
      </trkpt>
      <trkpt lat="47.34738" lon="-1.74185">
        <ele>72</ele>
        <time>2022-04-02T06:58:02Z</time>
      </trkpt>
      <trkpt lat="47.34735" lon="-1.74202">
        <ele>72.2</ele>
        <time>2022-04-02T06:58:04Z</time>
      </trkpt>
      <trkpt lat="47.34732" lon="-1.74218">
        <ele>72.4</ele>
        <time>2022-04-02T06:58:06Z</time>
      </trkpt>
      <trkpt lat="47.34729" lon="-1.74235">
        <ele>72.4</ele>
        <time>2022-04-02T06:58:08Z</time>
      </trkpt>
      <trkpt lat="47.34725" lon="-1.74252">
        <ele>72.6</ele>
        <time>2022-04-02T06:58:10Z</time>
      </trkpt>
      <trkpt lat="47.34724" lon="-1.74261">
        <ele>72.6</ele>
        <time>2022-04-02T06:58:11Z</time>
      </trkpt>
      <trkpt lat="47.34721" lon="-1.74285">
        <ele>72.8</ele>
        <time>2022-04-02T06:58:14Z</time>
      </trkpt>
      <trkpt lat="47.3472" lon="-1.74301">
        <ele>72.8</ele>
        <time>2022-04-02T06:58:16Z</time>
      </trkpt>
      <trkpt lat="47.34719" lon="-1.7431">
        <ele>72.8</ele>
        <time>2022-04-02T06:58:17Z</time>
      </trkpt>
      <trkpt lat="47.34719" lon="-1.74335">
        <ele>73</ele>
        <time>2022-04-02T06:58:20Z</time>
      </trkpt>
      <trkpt lat="47.3472" lon="-1.74343">
        <ele>73</ele>
        <time>2022-04-02T06:58:21Z</time>
      </trkpt>
      <trkpt lat="47.34721" lon="-1.74351">
        <ele>73</ele>
        <time>2022-04-02T06:58:22Z</time>
      </trkpt>
      <trkpt lat="47.34721" lon="-1.74384">
        <ele>73.2</ele>
        <time>2022-04-02T06:58:26Z</time>
      </trkpt>
      <trkpt lat="47.3472" lon="-1.74393">
        <ele>73.2</ele>
        <time>2022-04-02T06:58:27Z</time>
      </trkpt>
      <trkpt lat="47.34721" lon="-1.74426">
        <ele>73.2</ele>
        <time>2022-04-02T06:58:31Z</time>
      </trkpt>
      <trkpt lat="47.34721" lon="-1.74445">
        <ele>73.2</ele>
        <time>2022-04-02T06:58:33Z</time>
      </trkpt>
      <trkpt lat="47.34722" lon="-1.7447">
        <ele>73.4</ele>
        <time>2022-04-02T06:58:36Z</time>
      </trkpt>
      <trkpt lat="47.34722" lon="-1.74504">
        <ele>73.4</ele>
        <time>2022-04-02T06:58:40Z</time>
      </trkpt>
      <trkpt lat="47.34722" lon="-1.7452">
        <ele>73.6</ele>
        <time>2022-04-02T06:58:42Z</time>
      </trkpt>
      <trkpt lat="47.34724" lon="-1.74534">
        <ele>73.4</ele>
        <time>2022-04-02T06:58:44Z</time>
      </trkpt>
      <trkpt lat="47.34723" lon="-1.7455">
        <ele>73.4</ele>
        <time>2022-04-02T06:58:46Z</time>
      </trkpt>
      <trkpt lat="47.34722" lon="-1.74565">
        <ele>73.6</ele>
        <time>2022-04-02T06:58:48Z</time>
      </trkpt>
      <trkpt lat="47.34723" lon="-1.7458">
        <ele>73.6</ele>
        <time>2022-04-02T06:58:50Z</time>
      </trkpt>
      <trkpt lat="47.34724" lon="-1.74587">
        <ele>73.6</ele>
        <time>2022-04-02T06:58:51Z</time>
      </trkpt>
      <trkpt lat="47.34727" lon="-1.74605">
        <ele>73.6</ele>
        <time>2022-04-02T06:58:54Z</time>
      </trkpt>
      <trkpt lat="47.34727" lon="-1.74619">
        <ele>73.6</ele>
        <time>2022-04-02T06:58:56Z</time>
      </trkpt>
      <trkpt lat="47.34728" lon="-1.74626">
        <ele>73.4</ele>
        <time>2022-04-02T06:58:57Z</time>
      </trkpt>
      <trkpt lat="47.34729" lon="-1.74646">
        <ele>73.2</ele>
        <time>2022-04-02T06:59:00Z</time>
      </trkpt>
      <trkpt lat="47.34729" lon="-1.74653">
        <ele>73.2</ele>
        <time>2022-04-02T06:59:01Z</time>
      </trkpt>
      <trkpt lat="47.34728" lon="-1.74676">
        <ele>73</ele>
        <time>2022-04-02T06:59:04Z</time>
      </trkpt>
      <trkpt lat="47.34727" lon="-1.74684">
        <ele>73</ele>
        <time>2022-04-02T06:59:05Z</time>
      </trkpt>
      <trkpt lat="47.34727" lon="-1.74697">
        <ele>73</ele>
        <time>2022-04-02T06:59:07Z</time>
      </trkpt>
      <trkpt lat="47.3473" lon="-1.74707">
        <ele>73</ele>
        <time>2022-04-02T06:59:09Z</time>
      </trkpt>
      <trkpt lat="47.34732" lon="-1.74717">
        <ele>72.8</ele>
        <time>2022-04-02T06:59:11Z</time>
      </trkpt>
      <trkpt lat="47.34731" lon="-1.7473">
        <ele>72.4</ele>
        <time>2022-04-02T06:59:13Z</time>
      </trkpt>
      <trkpt lat="47.34732" lon="-1.74741">
        <ele>72.2</ele>
        <time>2022-04-02T06:59:15Z</time>
      </trkpt>
      <trkpt lat="47.34729" lon="-1.74765">
        <ele>72.2</ele>
        <time>2022-04-02T06:59:19Z</time>
      </trkpt>
      <trkpt lat="47.34729" lon="-1.74771">
        <ele>72.2</ele>
        <time>2022-04-02T06:59:20Z</time>
      </trkpt>
      <trkpt lat="47.3473" lon="-1.74781">
        <ele>72</ele>
        <time>2022-04-02T06:59:22Z</time>
      </trkpt>
      <trkpt lat="47.34733" lon="-1.74791">
        <ele>71.6</ele>
        <time>2022-04-02T06:59:24Z</time>
      </trkpt>
      <trkpt lat="47.34732" lon="-1.74798">
        <ele>71.4</ele>
        <time>2022-04-02T06:59:25Z</time>
      </trkpt>
      <trkpt lat="47.3473" lon="-1.74805">
        <ele>71.4</ele>
        <time>2022-04-02T06:59:26Z</time>
      </trkpt>
      <trkpt lat="47.34729" lon="-1.74817">
        <ele>71.2</ele>
        <time>2022-04-02T06:59:28Z</time>
      </trkpt>
      <trkpt lat="47.34728" lon="-1.74822">
        <ele>71.2</ele>
        <time>2022-04-02T06:59:29Z</time>
      </trkpt>
      <trkpt lat="47.34728" lon="-1.74833">
        <ele>71</ele>
        <time>2022-04-02T06:59:31Z</time>
      </trkpt>
      <trkpt lat="47.34734" lon="-1.7484">
        <ele>70.6</ele>
        <time>2022-04-02T06:59:33Z</time>
      </trkpt>
      <trkpt lat="47.34736" lon="-1.74845">
        <ele>70.2</ele>
        <time>2022-04-02T06:59:34Z</time>
      </trkpt>
      <trkpt lat="47.34737" lon="-1.74859">
        <ele>69.8</ele>
        <time>2022-04-02T06:59:36Z</time>
      </trkpt>
      <trkpt lat="47.34738" lon="-1.74866">
        <ele>69.6</ele>
        <time>2022-04-02T06:59:37Z</time>
      </trkpt>
      <trkpt lat="47.34736" lon="-1.74883">
        <ele>69.2</ele>
        <time>2022-04-02T06:59:39Z</time>
      </trkpt>
      <trkpt lat="47.34734" lon="-1.74903">
        <ele>69</ele>
        <time>2022-04-02T06:59:41Z</time>
      </trkpt>
      <trkpt lat="47.34734" lon="-1.74921">
        <ele>69</ele>
        <time>2022-04-02T06:59:43Z</time>
      </trkpt>
      <trkpt lat="47.34736" lon="-1.74928">
        <ele>69</ele>
        <time>2022-04-02T06:59:44Z</time>
      </trkpt>
      <trkpt lat="47.34737" lon="-1.74935">
        <ele>68.8</ele>
        <time>2022-04-02T06:59:45Z</time>
      </trkpt>
      <trkpt lat="47.34737" lon="-1.74943">
        <ele>68.8</ele>
        <time>2022-04-02T06:59:46Z</time>
      </trkpt>
      <trkpt lat="47.34737" lon="-1.7495">
        <ele>68.8</ele>
        <time>2022-04-02T06:59:47Z</time>
      </trkpt>
      <trkpt lat="47.34738" lon="-1.74965">
        <ele>68.6</ele>
        <time>2022-04-02T06:59:49Z</time>
      </trkpt>
      <trkpt lat="47.34738" lon="-1.74973">
        <ele>68.6</ele>
        <time>2022-04-02T06:59:50Z</time>
      </trkpt>
      <trkpt lat="47.34737" lon="-1.74981">
        <ele>68.6</ele>
        <time>2022-04-02T06:59:51Z</time>
      </trkpt>
      <trkpt lat="47.34736" lon="-1.75006">
        <ele>68.4</ele>
        <time>2022-04-02T06:59:54Z</time>
      </trkpt>
      <trkpt lat="47.34737" lon="-1.75014">
        <ele>68.4</ele>
        <time>2022-04-02T06:59:55Z</time>
      </trkpt>
      <trkpt lat="47.34737" lon="-1.75022">
        <ele>68.2</ele>
        <time>2022-04-02T06:59:56Z</time>
      </trkpt>
      <trkpt lat="47.34738" lon="-1.75037">
        <ele>68.2</ele>
        <time>2022-04-02T06:59:58Z</time>
      </trkpt>
      <trkpt lat="47.34738" lon="-1.75044">
        <ele>68.2</ele>
        <time>2022-04-02T06:59:59Z</time>
      </trkpt>
      <trkpt lat="47.34738" lon="-1.75052">
        <ele>68.4</ele>
        <time>2022-04-02T07:00:00Z</time>
      </trkpt>
      <trkpt lat="47.3474" lon="-1.75067">
        <ele>68.4</ele>
        <time>2022-04-02T07:00:02Z</time>
      </trkpt>
      <trkpt lat="47.3474" lon="-1.75081">
        <ele>68.4</ele>
        <time>2022-04-02T07:00:04Z</time>
      </trkpt>
      <trkpt lat="47.34739" lon="-1.75097">
        <ele>68.4</ele>
        <time>2022-04-02T07:00:06Z</time>
      </trkpt>
      <trkpt lat="47.34738" lon="-1.75105">
        <ele>68.2</ele>
        <time>2022-04-02T07:00:07Z</time>
      </trkpt>
      <trkpt lat="47.34738" lon="-1.75113">
        <ele>68.4</ele>
        <time>2022-04-02T07:00:08Z</time>
      </trkpt>
      <trkpt lat="47.34736" lon="-1.7514">
        <ele>69</ele>
        <time>2022-04-02T07:00:12Z</time>
      </trkpt>
      <trkpt lat="47.34735" lon="-1.75143">
        <ele>69.4</ele>
        <time>2022-04-02T07:00:14Z</time>
      </trkpt>
      <trkpt lat="47.34735" lon="-1.75139">
        <ele>74.4</ele>
        <time>2022-04-02T07:01:36Z</time>
      </trkpt>
      <trkpt lat="47.34733" lon="-1.75129">
        <ele>74.4</ele>
        <time>2022-04-02T07:01:39Z</time>
      </trkpt>
      <trkpt lat="47.34732" lon="-1.75126">
        <ele>74.4</ele>
        <time>2022-04-02T07:01:40Z</time>
      </trkpt>
      <trkpt lat="47.34731" lon="-1.75115">
        <ele>74.2</ele>
        <time>2022-04-02T07:01:43Z</time>
      </trkpt>
      <trkpt lat="47.34731" lon="-1.75099">
        <ele>74.2</ele>
        <time>2022-04-02T07:01:46Z</time>
      </trkpt>
      <trkpt lat="47.3473" lon="-1.75094">
        <ele>74.2</ele>
        <time>2022-04-02T07:01:47Z</time>
      </trkpt>
      <trkpt lat="47.3473" lon="-1.75087">
        <ele>74.2</ele>
        <time>2022-04-02T07:01:48Z</time>
      </trkpt>
      <trkpt lat="47.3473" lon="-1.75073">
        <ele>74.2</ele>
        <time>2022-04-02T07:01:50Z</time>
      </trkpt>
      <trkpt lat="47.34731" lon="-1.75045">
        <ele>74.4</ele>
        <time>2022-04-02T07:01:54Z</time>
      </trkpt>
      <trkpt lat="47.34731" lon="-1.75038">
        <ele>74.4</ele>
        <time>2022-04-02T07:01:55Z</time>
      </trkpt>
      <trkpt lat="47.34731" lon="-1.75025">
        <ele>74.4</ele>
        <time>2022-04-02T07:01:57Z</time>
      </trkpt>
      <trkpt lat="47.3473" lon="-1.75011">
        <ele>74.4</ele>
        <time>2022-04-02T07:01:59Z</time>
      </trkpt>
      <trkpt lat="47.34729" lon="-1.75004">
        <ele>74.2</ele>
        <time>2022-04-02T07:02:00Z</time>
      </trkpt>
      <trkpt lat="47.3473" lon="-1.74975">
        <ele>74.2</ele>
        <time>2022-04-02T07:02:04Z</time>
      </trkpt>
      <trkpt lat="47.3473" lon="-1.7496">
        <ele>74</ele>
        <time>2022-04-02T07:02:06Z</time>
      </trkpt>
      <trkpt lat="47.34727" lon="-1.74943">
        <ele>73.8</ele>
        <time>2022-04-02T07:02:09Z</time>
      </trkpt>
      <trkpt lat="47.34725" lon="-1.74938">
        <ele>73.6</ele>
        <time>2022-04-02T07:02:10Z</time>
      </trkpt>
      <trkpt lat="47.34727" lon="-1.74932">
        <ele>73.8</ele>
        <time>2022-04-02T07:02:11Z</time>
      </trkpt>
      <trkpt lat="47.34729" lon="-1.74922">
        <ele>74</ele>
        <time>2022-04-02T07:02:13Z</time>
      </trkpt>
      <trkpt lat="47.34729" lon="-1.74902">
        <ele>74.4</ele>
        <time>2022-04-02T07:02:18Z</time>
      </trkpt>
      <trkpt lat="47.34727" lon="-1.74879">
        <ele>74.2</ele>
        <time>2022-04-02T07:02:23Z</time>
      </trkpt>
      <trkpt lat="47.34728" lon="-1.74851">
        <ele>73.8</ele>
        <time>2022-04-02T07:02:28Z</time>
      </trkpt>
      <trkpt lat="47.34727" lon="-1.74829">
        <ele>74</ele>
        <time>2022-04-02T07:02:32Z</time>
      </trkpt>
      <trkpt lat="47.34725" lon="-1.74791">
        <ele>74.2</ele>
        <time>2022-04-02T07:02:38Z</time>
      </trkpt>
      <trkpt lat="47.34725" lon="-1.74778">
        <ele>74.4</ele>
        <time>2022-04-02T07:02:40Z</time>
      </trkpt>
      <trkpt lat="47.34725" lon="-1.74765">
        <ele>74</ele>
        <time>2022-04-02T07:02:42Z</time>
      </trkpt>
      <trkpt lat="47.34724" lon="-1.74758">
        <ele>74.2</ele>
        <time>2022-04-02T07:02:43Z</time>
      </trkpt>
      <trkpt lat="47.34724" lon="-1.74744">
        <ele>74.6</ele>
        <time>2022-04-02T07:02:45Z</time>
      </trkpt>
      <trkpt lat="47.34724" lon="-1.74732">
        <ele>74</ele>
        <time>2022-04-02T07:02:47Z</time>
      </trkpt>
      <trkpt lat="47.34722" lon="-1.74723">
        <ele>74</ele>
        <time>2022-04-02T07:02:49Z</time>
      </trkpt>
      <trkpt lat="47.34723" lon="-1.7471">
        <ele>74</ele>
        <time>2022-04-02T07:02:52Z</time>
      </trkpt>
      <trkpt lat="47.34723" lon="-1.74707">
        <ele>74</ele>
        <time>2022-04-02T07:02:53Z</time>
      </trkpt>
      <trkpt lat="47.34724" lon="-1.74706">
        <ele>74</ele>
        <time>2022-04-02T07:02:55Z</time>
      </trkpt>
      <trkpt lat="47.34724" lon="-1.74699">
        <ele>74.4</ele>
        <time>2022-04-02T07:03:15Z</time>
      </trkpt>
      <trkpt lat="47.34724" lon="-1.74695">
        <ele>74.4</ele>
        <time>2022-04-02T07:03:16Z</time>
      </trkpt>
      <trkpt lat="47.34725" lon="-1.74686">
        <ele>74.4</ele>
        <time>2022-04-02T07:03:18Z</time>
      </trkpt>
      <trkpt lat="47.34725" lon="-1.74681">
        <ele>74.4</ele>
        <time>2022-04-02T07:03:19Z</time>
      </trkpt>
      <trkpt lat="47.34724" lon="-1.74658">
        <ele>74.4</ele>
        <time>2022-04-02T07:03:23Z</time>
      </trkpt>
      <trkpt lat="47.34723" lon="-1.74652">
        <ele>74.4</ele>
        <time>2022-04-02T07:03:24Z</time>
      </trkpt>
      <trkpt lat="47.34719" lon="-1.74636">
        <ele>74.4</ele>
        <time>2022-04-02T07:03:27Z</time>
      </trkpt>
      <trkpt lat="47.34716" lon="-1.74632">
        <ele>74.4</ele>
        <time>2022-04-02T07:03:28Z</time>
      </trkpt>
      <trkpt lat="47.34709" lon="-1.74602">
        <ele>74.4</ele>
        <time>2022-04-02T07:03:33Z</time>
      </trkpt>
      <trkpt lat="47.34708" lon="-1.74588">
        <ele>74.4</ele>
        <time>2022-04-02T07:03:35Z</time>
      </trkpt>
      <trkpt lat="47.34712" lon="-1.74577">
        <ele>74.4</ele>
        <time>2022-04-02T07:03:36Z</time>
      </trkpt>
      <trkpt lat="47.34711" lon="-1.7457">
        <ele>74.4</ele>
        <time>2022-04-02T07:03:37Z</time>
      </trkpt>
      <trkpt lat="47.34716" lon="-1.74552">
        <ele>74.6</ele>
        <time>2022-04-02T07:03:39Z</time>
      </trkpt>
      <trkpt lat="47.34717" lon="-1.74529">
        <ele>74.6</ele>
        <time>2022-04-02T07:03:42Z</time>
      </trkpt>
      <trkpt lat="47.34716" lon="-1.74522">
        <ele>74.6</ele>
        <time>2022-04-02T07:03:43Z</time>
      </trkpt>
      <trkpt lat="47.34713" lon="-1.74505">
        <ele>74.6</ele>
        <time>2022-04-02T07:03:46Z</time>
      </trkpt>
      <trkpt lat="47.34713" lon="-1.7449">
        <ele>74.6</ele>
        <time>2022-04-02T07:03:48Z</time>
      </trkpt>
      <trkpt lat="47.34715" lon="-1.74481">
        <ele>74.8</ele>
        <time>2022-04-02T07:03:49Z</time>
      </trkpt>
      <trkpt lat="47.34714" lon="-1.74467">
        <ele>74.8</ele>
        <time>2022-04-02T07:03:51Z</time>
      </trkpt>
      <trkpt lat="47.34716" lon="-1.74451">
        <ele>74.8</ele>
        <time>2022-04-02T07:03:53Z</time>
      </trkpt>
      <trkpt lat="47.34716" lon="-1.74435">
        <ele>74.8</ele>
        <time>2022-04-02T07:03:55Z</time>
      </trkpt>
      <trkpt lat="47.34716" lon="-1.74419">
        <ele>74.8</ele>
        <time>2022-04-02T07:03:57Z</time>
      </trkpt>
      <trkpt lat="47.34714" lon="-1.74397">
        <ele>74.8</ele>
        <time>2022-04-02T07:04:00Z</time>
      </trkpt>
      <trkpt lat="47.34714" lon="-1.74382">
        <ele>74.8</ele>
        <time>2022-04-02T07:04:02Z</time>
      </trkpt>
      <trkpt lat="47.34714" lon="-1.74375">
        <ele>74.8</ele>
        <time>2022-04-02T07:04:03Z</time>
      </trkpt>
      <trkpt lat="47.34715" lon="-1.74367">
        <ele>75</ele>
        <time>2022-04-02T07:04:04Z</time>
      </trkpt>
      <trkpt lat="47.34716" lon="-1.74351">
        <ele>74.8</ele>
        <time>2022-04-02T07:04:06Z</time>
      </trkpt>
      <trkpt lat="47.34718" lon="-1.74322">
        <ele>74.8</ele>
        <time>2022-04-02T07:04:10Z</time>
      </trkpt>
      <trkpt lat="47.34718" lon="-1.74295">
        <ele>74.8</ele>
        <time>2022-04-02T07:04:14Z</time>
      </trkpt>
      <trkpt lat="47.34717" lon="-1.74276">
        <ele>74.6</ele>
        <time>2022-04-02T07:04:17Z</time>
      </trkpt>
      <trkpt lat="47.34717" lon="-1.7427">
        <ele>74.6</ele>
        <time>2022-04-02T07:04:18Z</time>
      </trkpt>
      <trkpt lat="47.34714" lon="-1.74247">
        <ele>74.6</ele>
        <time>2022-04-02T07:04:22Z</time>
      </trkpt>
      <trkpt lat="47.34712" lon="-1.74241">
        <ele>74.6</ele>
        <time>2022-04-02T07:04:23Z</time>
      </trkpt>
      <trkpt lat="47.34712" lon="-1.74229">
        <ele>74.4</ele>
        <time>2022-04-02T07:04:25Z</time>
      </trkpt>
      <trkpt lat="47.34722" lon="-1.7421">
        <ele>74.2</ele>
        <time>2022-04-02T07:04:27Z</time>
      </trkpt>
      <trkpt lat="47.3472" lon="-1.74206">
        <ele>74</ele>
        <time>2022-04-02T07:04:28Z</time>
      </trkpt>
      <trkpt lat="47.34716" lon="-1.74197">
        <ele>74</ele>
        <time>2022-04-02T07:04:30Z</time>
      </trkpt>
      <trkpt lat="47.34711" lon="-1.7419">
        <ele>74</ele>
        <time>2022-04-02T07:04:32Z</time>
      </trkpt>
      <trkpt lat="47.34706" lon="-1.74171">
        <ele>73.8</ele>
        <time>2022-04-02T07:04:36Z</time>
      </trkpt>
      <trkpt lat="47.34708" lon="-1.74161">
        <ele>73.6</ele>
        <time>2022-04-02T07:04:37Z</time>
      </trkpt>
      <trkpt lat="47.34709" lon="-1.74148">
        <ele>73.2</ele>
        <time>2022-04-02T07:04:39Z</time>
      </trkpt>
      <trkpt lat="47.34713" lon="-1.74126">
        <ele>72.8</ele>
        <time>2022-04-02T07:04:42Z</time>
      </trkpt>
      <trkpt lat="47.3472" lon="-1.74115">
        <ele>73</ele>
        <time>2022-04-02T07:04:43Z</time>
      </trkpt>
      <trkpt lat="47.34745" lon="-1.74079">
        <ele>73</ele>
        <time>2022-04-02T07:04:46Z</time>
      </trkpt>
      <trkpt lat="47.3475" lon="-1.7407">
        <ele>72.8</ele>
        <time>2022-04-02T07:04:47Z</time>
      </trkpt>
      <trkpt lat="47.34761" lon="-1.74041">
        <ele>72.8</ele>
        <time>2022-04-02T07:04:52Z</time>
      </trkpt>
      <trkpt lat="47.34765" lon="-1.74018">
        <ele>73</ele>
        <time>2022-04-02T07:04:57Z</time>
      </trkpt>
      <trkpt lat="47.34765" lon="-1.74014">
        <ele>73</ele>
        <time>2022-04-02T07:04:58Z</time>
      </trkpt>
      <trkpt lat="47.3477" lon="-1.74004">
        <ele>73.4</ele>
        <time>2022-04-02T07:05:01Z</time>
      </trkpt>
      <trkpt lat="47.34777" lon="-1.74">
        <ele>73.4</ele>
        <time>2022-04-02T07:05:04Z</time>
      </trkpt>
      <trkpt lat="47.34781" lon="-1.73999">
        <ele>73.4</ele>
        <time>2022-04-02T07:05:05Z</time>
      </trkpt>
      <trkpt lat="47.34793" lon="-1.74">
        <ele>72.8</ele>
        <time>2022-04-02T07:05:09Z</time>
      </trkpt>
      <trkpt lat="47.34801" lon="-1.74011">
        <ele>72.4</ele>
        <time>2022-04-02T07:05:14Z</time>
      </trkpt>
      <trkpt lat="47.34826" lon="-1.74021">
        <ele>72.2</ele>
        <time>2022-04-02T07:05:20Z</time>
      </trkpt>
      <trkpt lat="47.34842" lon="-1.74025">
        <ele>72.2</ele>
        <time>2022-04-02T07:05:25Z</time>
      </trkpt>
      <trkpt lat="47.34861" lon="-1.74031">
        <ele>72</ele>
        <time>2022-04-02T07:05:31Z</time>
      </trkpt>
      <trkpt lat="47.34871" lon="-1.74034">
        <ele>71.8</ele>
        <time>2022-04-02T07:05:35Z</time>
      </trkpt>
      <trkpt lat="47.34874" lon="-1.74034">
        <ele>71.8</ele>
        <time>2022-04-02T07:05:36Z</time>
      </trkpt>
      <trkpt lat="47.34879" lon="-1.7404">
        <ele>71.4</ele>
        <time>2022-04-02T07:05:38Z</time>
      </trkpt>
      <trkpt lat="47.34885" lon="-1.74045">
        <ele>70.8</ele>
        <time>2022-04-02T07:05:41Z</time>
      </trkpt>
      <trkpt lat="47.34888" lon="-1.74045">
        <ele>70.4</ele>
        <time>2022-04-02T07:05:43Z</time>
      </trkpt>
      <trkpt lat="47.349" lon="-1.74042">
        <ele>70.6</ele>
        <time>2022-04-02T07:05:45Z</time>
      </trkpt>
      <trkpt lat="47.34907" lon="-1.74038">
        <ele>70.8</ele>
        <time>2022-04-02T07:05:48Z</time>
      </trkpt>
      <trkpt lat="47.34937" lon="-1.74052">
        <ele>64</ele>
        <time>2022-04-02T07:07:07Z</time>
      </trkpt>
      <trkpt lat="47.34939" lon="-1.74053">
        <ele>64</ele>
        <time>2022-04-02T07:07:08Z</time>
      </trkpt>
      <trkpt lat="47.34944" lon="-1.74056">
        <ele>64</ele>
        <time>2022-04-02T07:07:11Z</time>
      </trkpt>
      <trkpt lat="47.34957" lon="-1.7406">
        <ele>63.6</ele>
        <time>2022-04-02T07:07:23Z</time>
      </trkpt>
      <trkpt lat="47.3498" lon="-1.74069">
        <ele>64.6</ele>
        <time>2022-04-02T07:07:29Z</time>
      </trkpt>
      <trkpt lat="47.34993" lon="-1.7407">
        <ele>65</ele>
        <time>2022-04-02T07:07:33Z</time>
      </trkpt>
      <trkpt lat="47.35001" lon="-1.74069">
        <ele>64.8</ele>
        <time>2022-04-02T07:07:36Z</time>
      </trkpt>
      <trkpt lat="47.35005" lon="-1.74068">
        <ele>64.8</ele>
        <time>2022-04-02T07:07:39Z</time>
      </trkpt>
      <trkpt lat="47.35012" lon="-1.74072">
        <ele>64.6</ele>
        <time>2022-04-02T07:07:43Z</time>
      </trkpt>
      <trkpt lat="47.35013" lon="-1.74075">
        <ele>64.6</ele>
        <time>2022-04-02T07:07:44Z</time>
      </trkpt>
      <trkpt lat="47.35026" lon="-1.74077">
        <ele>65</ele>
        <time>2022-04-02T07:07:48Z</time>
      </trkpt>
      <trkpt lat="47.35033" lon="-1.74081">
        <ele>64.2</ele>
        <time>2022-04-02T07:07:52Z</time>
      </trkpt>
      <trkpt lat="47.35039" lon="-1.74082">
        <ele>63.4</ele>
        <time>2022-04-02T07:07:55Z</time>
      </trkpt>
      <trkpt lat="47.35048" lon="-1.74084">
        <ele>62.8</ele>
        <time>2022-04-02T07:07:59Z</time>
      </trkpt>
      <trkpt lat="47.35065" lon="-1.7409">
        <ele>63.4</ele>
        <time>2022-04-02T07:08:03Z</time>
      </trkpt>
      <trkpt lat="47.3509" lon="-1.74093">
        <ele>63.8</ele>
        <time>2022-04-02T07:08:29Z</time>
      </trkpt>
      <trkpt lat="47.35092" lon="-1.74094">
        <ele>63.8</ele>
        <time>2022-04-02T07:08:32Z</time>
      </trkpt>
      <trkpt lat="47.35155" lon="-1.74105">
        <ele>65</ele>
        <time>2022-04-02T07:09:27Z</time>
      </trkpt>
      <trkpt lat="47.35165" lon="-1.74108">
        <ele>65.2</ele>
        <time>2022-04-02T07:09:31Z</time>
      </trkpt>
      <trkpt lat="47.35181" lon="-1.74119">
        <ele>64.6</ele>
        <time>2022-04-02T07:09:44Z</time>
      </trkpt>
      <trkpt lat="47.3519" lon="-1.74121">
        <ele>64.4</ele>
        <time>2022-04-02T07:09:47Z</time>
      </trkpt>
      <trkpt lat="47.3519" lon="-1.74122">
        <ele>64.4</ele>
        <time>2022-04-02T07:09:49Z</time>
      </trkpt>
      <trkpt lat="47.35225" lon="-1.74125">
        <ele>64.4</ele>
        <time>2022-04-02T07:10:11Z</time>
      </trkpt>
      <trkpt lat="47.35226" lon="-1.74126">
        <ele>64.4</ele>
        <time>2022-04-02T07:10:12Z</time>
      </trkpt>
      <trkpt lat="47.35233" lon="-1.74126">
        <ele>64.2</ele>
        <time>2022-04-02T07:10:16Z</time>
      </trkpt>
      <trkpt lat="47.35243" lon="-1.74126">
        <ele>64</ele>
        <time>2022-04-02T07:10:20Z</time>
      </trkpt>
      <trkpt lat="47.35249" lon="-1.7413">
        <ele>63.2</ele>
        <time>2022-04-02T07:11:22Z</time>
      </trkpt>
      <trkpt lat="47.35251" lon="-1.74134">
        <ele>63.6</ele>
        <time>2022-04-02T07:11:24Z</time>
      </trkpt>
      <trkpt lat="47.35255" lon="-1.74139">
        <ele>63.6</ele>
        <time>2022-04-02T07:11:29Z</time>
      </trkpt>
      <trkpt lat="47.35299" lon="-1.74147">
        <ele>66.8</ele>
        <time>2022-04-02T07:12:49Z</time>
      </trkpt>
      <trkpt lat="47.35304" lon="-1.74151">
        <ele>67</ele>
        <time>2022-04-02T07:12:51Z</time>
      </trkpt>
      <trkpt lat="47.35316" lon="-1.74152">
        <ele>67</ele>
        <time>2022-04-02T07:12:56Z</time>
      </trkpt>
      <trkpt lat="47.35326" lon="-1.74157">
        <ele>67</ele>
        <time>2022-04-02T07:13:02Z</time>
      </trkpt>
      <trkpt lat="47.35332" lon="-1.74161">
        <ele>67.2</ele>
        <time>2022-04-02T07:13:05Z</time>
      </trkpt>
      <trkpt lat="47.35333" lon="-1.74162">
        <ele>67.2</ele>
        <time>2022-04-02T07:13:06Z</time>
      </trkpt>
      <trkpt lat="47.35333" lon="-1.74163">
        <ele>67.2</ele>
        <time>2022-04-02T07:13:07Z</time>
      </trkpt>
      <trkpt lat="47.35345" lon="-1.74176">
        <ele>67.4</ele>
        <time>2022-04-02T07:13:12Z</time>
      </trkpt>
      <trkpt lat="47.35349" lon="-1.74179">
        <ele>67.4</ele>
        <time>2022-04-02T07:13:14Z</time>
      </trkpt>
      <trkpt lat="47.35359" lon="-1.74183">
        <ele>67.2</ele>
        <time>2022-04-02T07:13:19Z</time>
      </trkpt>
      <trkpt lat="47.3536" lon="-1.74183">
        <ele>67.4</ele>
        <time>2022-04-02T07:13:20Z</time>
      </trkpt>
      <trkpt lat="47.35393" lon="-1.74199">
        <ele>66.8</ele>
        <time>2022-04-02T07:13:55Z</time>
      </trkpt>
      <trkpt lat="47.35398" lon="-1.74202">
        <ele>67</ele>
        <time>2022-04-02T07:13:57Z</time>
      </trkpt>
      <trkpt lat="47.35403" lon="-1.74204">
        <ele>66.8</ele>
        <time>2022-04-02T07:14:01Z</time>
      </trkpt>
      <trkpt lat="47.35415" lon="-1.74213">
        <ele>66.4</ele>
        <time>2022-04-02T07:14:10Z</time>
      </trkpt>
      <trkpt lat="47.35425" lon="-1.74224">
        <ele>66.6</ele>
        <time>2022-04-02T07:14:15Z</time>
      </trkpt>
      <trkpt lat="47.35428" lon="-1.74226">
        <ele>66.4</ele>
        <time>2022-04-02T07:14:17Z</time>
      </trkpt>
      <trkpt lat="47.35444" lon="-1.74219">
        <ele>68</ele>
        <time>2022-04-02T07:15:01Z</time>
      </trkpt>
      <trkpt lat="47.35445" lon="-1.74217">
        <ele>68</ele>
        <time>2022-04-02T07:15:02Z</time>
      </trkpt>
      <trkpt lat="47.35447" lon="-1.74216">
        <ele>68</ele>
        <time>2022-04-02T07:15:03Z</time>
      </trkpt>
      <trkpt lat="47.35454" lon="-1.74212">
        <ele>68.2</ele>
        <time>2022-04-02T07:15:05Z</time>
      </trkpt>
      <trkpt lat="47.35463" lon="-1.74209">
        <ele>68.2</ele>
        <time>2022-04-02T07:15:08Z</time>
      </trkpt>
      <trkpt lat="47.3547" lon="-1.74207">
        <ele>68.2</ele>
        <time>2022-04-02T07:15:12Z</time>
      </trkpt>
      <trkpt lat="47.35475" lon="-1.74208">
        <ele>68.4</ele>
        <time>2022-04-02T07:15:15Z</time>
      </trkpt>
      <trkpt lat="47.35495" lon="-1.74201">
        <ele>68.6</ele>
        <time>2022-04-02T07:15:26Z</time>
      </trkpt>
      <trkpt lat="47.35498" lon="-1.74202">
        <ele>68.6</ele>
        <time>2022-04-02T07:15:27Z</time>
      </trkpt>
      <trkpt lat="47.35507" lon="-1.74202">
        <ele>68.6</ele>
        <time>2022-04-02T07:15:31Z</time>
      </trkpt>
      <trkpt lat="47.35509" lon="-1.74202">
        <ele>68.6</ele>
        <time>2022-04-02T07:15:33Z</time>
      </trkpt>
      <trkpt lat="47.35516" lon="-1.742">
        <ele>68.6</ele>
        <time>2022-04-02T07:15:35Z</time>
      </trkpt>
      <trkpt lat="47.35531" lon="-1.74199">
        <ele>68.6</ele>
        <time>2022-04-02T07:15:39Z</time>
      </trkpt>
      <trkpt lat="47.35543" lon="-1.74198">
        <ele>68.6</ele>
        <time>2022-04-02T07:15:43Z</time>
      </trkpt>
      <trkpt lat="47.35559" lon="-1.74194">
        <ele>68.6</ele>
        <time>2022-04-02T07:15:47Z</time>
      </trkpt>
      <trkpt lat="47.35572" lon="-1.74191">
        <ele>68.6</ele>
        <time>2022-04-02T07:15:50Z</time>
      </trkpt>
      <trkpt lat="47.35596" lon="-1.74189">
        <ele>69</ele>
        <time>2022-04-02T07:15:55Z</time>
      </trkpt>
      <trkpt lat="47.35617" lon="-1.74186">
        <ele>69</ele>
        <time>2022-04-02T07:16:00Z</time>
      </trkpt>
      <trkpt lat="47.35624" lon="-1.74185">
        <ele>69</ele>
        <time>2022-04-02T07:16:02Z</time>
      </trkpt>
      <trkpt lat="47.35631" lon="-1.74183">
        <ele>69</ele>
        <time>2022-04-02T07:16:04Z</time>
      </trkpt>
      <trkpt lat="47.35648" lon="-1.74182">
        <ele>69.2</ele>
        <time>2022-04-02T07:16:09Z</time>
      </trkpt>
      <trkpt lat="47.35664" lon="-1.7418">
        <ele>69.2</ele>
        <time>2022-04-02T07:16:14Z</time>
      </trkpt>
      <trkpt lat="47.35666" lon="-1.74179">
        <ele>69</ele>
        <time>2022-04-02T07:16:15Z</time>
      </trkpt>
      <trkpt lat="47.35673" lon="-1.74176">
        <ele>70.4</ele>
        <time>2022-04-02T07:18:32Z</time>
      </trkpt>
      <trkpt lat="47.35676" lon="-1.74175">
        <ele>70.4</ele>
        <time>2022-04-02T07:18:33Z</time>
      </trkpt>
      <trkpt lat="47.35691" lon="-1.74173">
        <ele>70.4</ele>
        <time>2022-04-02T07:18:37Z</time>
      </trkpt>
      <trkpt lat="47.35701" lon="-1.74172">
        <ele>70.4</ele>
        <time>2022-04-02T07:18:39Z</time>
      </trkpt>
      <trkpt lat="47.35721" lon="-1.74167">
        <ele>70.4</ele>
        <time>2022-04-02T07:18:43Z</time>
      </trkpt>
      <trkpt lat="47.35748" lon="-1.7416">
        <ele>70.2</ele>
        <time>2022-04-02T07:18:47Z</time>
      </trkpt>
      <trkpt lat="47.35786" lon="-1.74152">
        <ele>70</ele>
        <time>2022-04-02T07:18:52Z</time>
      </trkpt>
      <trkpt lat="47.35831" lon="-1.74142">
        <ele>69.8</ele>
        <time>2022-04-02T07:18:58Z</time>
      </trkpt>
      <trkpt lat="47.35889" lon="-1.74132">
        <ele>69.6</ele>
        <time>2022-04-02T07:19:05Z</time>
      </trkpt>
      <trkpt lat="47.35948" lon="-1.74125">
        <ele>69.2</ele>
        <time>2022-04-02T07:19:12Z</time>
      </trkpt>
      <trkpt lat="47.35956" lon="-1.74125">
        <ele>69.2</ele>
        <time>2022-04-02T07:19:13Z</time>
      </trkpt>
      <trkpt lat="47.36018" lon="-1.74119">
        <ele>68.4</ele>
        <time>2022-04-02T07:19:20Z</time>
      </trkpt>
      <trkpt lat="47.36027" lon="-1.74116">
        <ele>68.2</ele>
        <time>2022-04-02T07:19:21Z</time>
      </trkpt>
      <trkpt lat="47.36044" lon="-1.74108">
        <ele>68</ele>
        <time>2022-04-02T07:19:23Z</time>
      </trkpt>
      <trkpt lat="47.36052" lon="-1.74103">
        <ele>67.8</ele>
        <time>2022-04-02T07:19:24Z</time>
      </trkpt>
      <trkpt lat="47.36095" lon="-1.74078">
        <ele>67</ele>
        <time>2022-04-02T07:19:29Z</time>
      </trkpt>
      <trkpt lat="47.36113" lon="-1.74078">
        <ele>66.6</ele>
        <time>2022-04-02T07:19:31Z</time>
      </trkpt>
      <trkpt lat="47.36122" lon="-1.74082">
        <ele>66.4</ele>
        <time>2022-04-02T07:19:32Z</time>
      </trkpt>
      <trkpt lat="47.3613" lon="-1.7409">
        <ele>66.2</ele>
        <time>2022-04-02T07:19:33Z</time>
      </trkpt>
      <trkpt lat="47.36143" lon="-1.7411">
        <ele>65.6</ele>
        <time>2022-04-02T07:19:35Z</time>
      </trkpt>
      <trkpt lat="47.36174" lon="-1.74165">
        <ele>64.8</ele>
        <time>2022-04-02T07:19:40Z</time>
      </trkpt>
      <trkpt lat="47.36181" lon="-1.74173">
        <ele>64.8</ele>
        <time>2022-04-02T07:19:41Z</time>
      </trkpt>
      <trkpt lat="47.36189" lon="-1.7418">
        <ele>64.6</ele>
        <time>2022-04-02T07:19:42Z</time>
      </trkpt>
      <trkpt lat="47.36208" lon="-1.74184">
        <ele>64.4</ele>
        <time>2022-04-02T07:19:44Z</time>
      </trkpt>
      <trkpt lat="47.36246" lon="-1.74175">
        <ele>63.8</ele>
        <time>2022-04-02T07:19:48Z</time>
      </trkpt>
      <trkpt lat="47.363" lon="-1.74159">
        <ele>63</ele>
        <time>2022-04-02T07:19:54Z</time>
      </trkpt>
      <trkpt lat="47.36317" lon="-1.74155">
        <ele>62.6</ele>
        <time>2022-04-02T07:19:56Z</time>
      </trkpt>
      <trkpt lat="47.36374" lon="-1.74137">
        <ele>61.4</ele>
        <time>2022-04-02T07:20:03Z</time>
      </trkpt>
      <trkpt lat="47.3639" lon="-1.74132">
        <ele>61.2</ele>
        <time>2022-04-02T07:20:05Z</time>
      </trkpt>
      <trkpt lat="47.36413" lon="-1.74125">
        <ele>60.4</ele>
        <time>2022-04-02T07:20:08Z</time>
      </trkpt>
      <trkpt lat="47.36472" lon="-1.74107">
        <ele>59.2</ele>
        <time>2022-04-02T07:20:15Z</time>
      </trkpt>
      <trkpt lat="47.36479" lon="-1.74105">
        <ele>59</ele>
        <time>2022-04-02T07:20:16Z</time>
      </trkpt>
      <trkpt lat="47.36486" lon="-1.74103">
        <ele>59</ele>
        <time>2022-04-02T07:20:17Z</time>
      </trkpt>
      <trkpt lat="47.36497" lon="-1.74097">
        <ele>58.6</ele>
        <time>2022-04-02T07:20:19Z</time>
      </trkpt>
      <trkpt lat="47.36527" lon="-1.7409">
        <ele>58</ele>
        <time>2022-04-02T07:20:24Z</time>
      </trkpt>
      <trkpt lat="47.3655" lon="-1.74082">
        <ele>57.4</ele>
        <time>2022-04-02T07:20:28Z</time>
      </trkpt>
      <trkpt lat="47.36555" lon="-1.74081">
        <ele>57.4</ele>
        <time>2022-04-02T07:20:29Z</time>
      </trkpt>
      <trkpt lat="47.36576" lon="-1.74076">
        <ele>57</ele>
        <time>2022-04-02T07:20:33Z</time>
      </trkpt>
      <trkpt lat="47.3658" lon="-1.74074">
        <ele>56.8</ele>
        <time>2022-04-02T07:20:34Z</time>
      </trkpt>
      <trkpt lat="47.36607" lon="-1.74064">
        <ele>55.8</ele>
        <time>2022-04-02T07:20:40Z</time>
      </trkpt>
      <trkpt lat="47.36642" lon="-1.74053">
        <ele>54.8</ele>
        <time>2022-04-02T07:20:46Z</time>
      </trkpt>
      <trkpt lat="47.36679" lon="-1.74041">
        <ele>54.2</ele>
        <time>2022-04-02T07:20:52Z</time>
      </trkpt>
      <trkpt lat="47.36725" lon="-1.74027">
        <ele>53.6</ele>
        <time>2022-04-02T07:20:59Z</time>
      </trkpt>
      <trkpt lat="47.36756" lon="-1.74025">
        <ele>53.2</ele>
        <time>2022-04-02T07:21:04Z</time>
      </trkpt>
      <trkpt lat="47.36794" lon="-1.7403">
        <ele>53</ele>
        <time>2022-04-02T07:21:11Z</time>
      </trkpt>
      <trkpt lat="47.36829" lon="-1.74039">
        <ele>53</ele>
        <time>2022-04-02T07:21:18Z</time>
      </trkpt>
      <trkpt lat="47.36867" lon="-1.74048">
        <ele>53</ele>
        <time>2022-04-02T07:21:26Z</time>
      </trkpt>
      <trkpt lat="47.36903" lon="-1.74056">
        <ele>53.2</ele>
        <time>2022-04-02T07:21:34Z</time>
      </trkpt>
      <trkpt lat="47.3694" lon="-1.74064">
        <ele>53.6</ele>
        <time>2022-04-02T07:21:42Z</time>
      </trkpt>
      <trkpt lat="47.3697" lon="-1.74071">
        <ele>54</ele>
        <time>2022-04-02T07:21:49Z</time>
      </trkpt>
      <trkpt lat="47.36975" lon="-1.74072">
        <ele>54</ele>
        <time>2022-04-02T07:21:50Z</time>
      </trkpt>
      <trkpt lat="47.36991" lon="-1.74076">
        <ele>54.2</ele>
        <time>2022-04-02T07:21:54Z</time>
      </trkpt>
      <trkpt lat="47.37014" lon="-1.74082">
        <ele>54.6</ele>
        <time>2022-04-02T07:21:59Z</time>
      </trkpt>
      <trkpt lat="47.37023" lon="-1.74083">
        <ele>54.8</ele>
        <time>2022-04-02T07:22:01Z</time>
      </trkpt>
      <trkpt lat="47.37041" lon="-1.74084">
        <ele>55</ele>
        <time>2022-04-02T07:22:05Z</time>
      </trkpt>
      <trkpt lat="47.37058" lon="-1.74081">
        <ele>55.2</ele>
        <time>2022-04-02T07:22:09Z</time>
      </trkpt>
      <trkpt lat="47.37066" lon="-1.74076">
        <ele>55.4</ele>
        <time>2022-04-02T07:22:11Z</time>
      </trkpt>
      <trkpt lat="47.37078" lon="-1.7407">
        <ele>55.6</ele>
        <time>2022-04-02T07:22:14Z</time>
      </trkpt>
      <trkpt lat="47.3709" lon="-1.74062">
        <ele>55.8</ele>
        <time>2022-04-02T07:22:17Z</time>
      </trkpt>
      <trkpt lat="47.37107" lon="-1.74051">
        <ele>56</ele>
        <time>2022-04-02T07:22:21Z</time>
      </trkpt>
      <trkpt lat="47.37112" lon="-1.74049">
        <ele>56</ele>
        <time>2022-04-02T07:22:22Z</time>
      </trkpt>
      <trkpt lat="47.37122" lon="-1.74043">
        <ele>56.2</ele>
        <time>2022-04-02T07:22:24Z</time>
      </trkpt>
      <trkpt lat="47.3714" lon="-1.7403">
        <ele>56.6</ele>
        <time>2022-04-02T07:22:28Z</time>
      </trkpt>
      <trkpt lat="47.37153" lon="-1.74021">
        <ele>56.6</ele>
        <time>2022-04-02T07:22:31Z</time>
      </trkpt>
      <trkpt lat="47.37163" lon="-1.74016">
        <ele>56.8</ele>
        <time>2022-04-02T07:22:33Z</time>
      </trkpt>
      <trkpt lat="47.37189" lon="-1.74008">
        <ele>57</ele>
        <time>2022-04-02T07:22:38Z</time>
      </trkpt>
      <trkpt lat="47.37203" lon="-1.74007">
        <ele>57</ele>
        <time>2022-04-02T07:22:40Z</time>
      </trkpt>
      <trkpt lat="47.37222" lon="-1.74013">
        <ele>57</ele>
        <time>2022-04-02T07:22:43Z</time>
      </trkpt>
      <trkpt lat="47.37268" lon="-1.74039">
        <ele>57.2</ele>
        <time>2022-04-02T07:22:51Z</time>
      </trkpt>
      <trkpt lat="47.37285" lon="-1.74047">
        <ele>57.2</ele>
        <time>2022-04-02T07:22:54Z</time>
      </trkpt>
      <trkpt lat="47.3729" lon="-1.74046">
        <ele>57.2</ele>
        <time>2022-04-02T07:22:55Z</time>
      </trkpt>
      <trkpt lat="47.37296" lon="-1.74043">
        <ele>57.2</ele>
        <time>2022-04-02T07:22:56Z</time>
      </trkpt>
      <trkpt lat="47.37299" lon="-1.74036">
        <ele>57.2</ele>
        <time>2022-04-02T07:22:57Z</time>
      </trkpt>
      <trkpt lat="47.37302" lon="-1.74027">
        <ele>57.2</ele>
        <time>2022-04-02T07:22:58Z</time>
      </trkpt>
      <trkpt lat="47.37303" lon="-1.74009">
        <ele>57</ele>
        <time>2022-04-02T07:23:00Z</time>
      </trkpt>
      <trkpt lat="47.37303" lon="-1.73992">
        <ele>57.2</ele>
        <time>2022-04-02T07:23:02Z</time>
      </trkpt>
      <trkpt lat="47.37303" lon="-1.73965">
        <ele>56.8</ele>
        <time>2022-04-02T07:23:05Z</time>
      </trkpt>
      <trkpt lat="47.37303" lon="-1.73948">
        <ele>56.8</ele>
        <time>2022-04-02T07:23:07Z</time>
      </trkpt>
      <trkpt lat="47.37306" lon="-1.7393">
        <ele>56.8</ele>
        <time>2022-04-02T07:23:09Z</time>
      </trkpt>
      <trkpt lat="47.37311" lon="-1.73916">
        <ele>56.6</ele>
        <time>2022-04-02T07:23:11Z</time>
      </trkpt>
      <trkpt lat="47.37312" lon="-1.73909">
        <ele>56.6</ele>
        <time>2022-04-02T07:23:12Z</time>
      </trkpt>
      <trkpt lat="47.37316" lon="-1.73897">
        <ele>56.6</ele>
        <time>2022-04-02T07:23:14Z</time>
      </trkpt>
      <trkpt lat="47.37319" lon="-1.73892">
        <ele>56.4</ele>
        <time>2022-04-02T07:23:15Z</time>
      </trkpt>
      <trkpt lat="47.37327" lon="-1.73892">
        <ele>56.4</ele>
        <time>2022-04-02T07:23:16Z</time>
      </trkpt>
      <trkpt lat="47.37346" lon="-1.7389">
        <ele>56</ele>
        <time>2022-04-02T07:23:18Z</time>
      </trkpt>
      <trkpt lat="47.37385" lon="-1.73883">
        <ele>56</ele>
        <time>2022-04-02T07:23:23Z</time>
      </trkpt>
      <trkpt lat="47.37422" lon="-1.7388">
        <ele>56.2</ele>
        <time>2022-04-02T07:23:29Z</time>
      </trkpt>
      <trkpt lat="47.3745" lon="-1.73884">
        <ele>56.2</ele>
        <time>2022-04-02T07:23:34Z</time>
      </trkpt>
      <trkpt lat="47.37454" lon="-1.73886">
        <ele>56.2</ele>
        <time>2022-04-02T07:23:35Z</time>
      </trkpt>
      <trkpt lat="47.37464" lon="-1.73885">
        <ele>56</ele>
        <time>2022-04-02T07:23:38Z</time>
      </trkpt>
      <trkpt lat="47.37471" lon="-1.73884">
        <ele>56.4</ele>
        <time>2022-04-02T07:23:41Z</time>
      </trkpt>
      <trkpt lat="47.37475" lon="-1.73887">
        <ele>56.4</ele>
        <time>2022-04-02T07:23:42Z</time>
      </trkpt>
      <trkpt lat="47.37487" lon="-1.73912">
        <ele>56.4</ele>
        <time>2022-04-02T07:23:47Z</time>
      </trkpt>
      <trkpt lat="47.37508" lon="-1.73961">
        <ele>56.4</ele>
        <time>2022-04-02T07:23:56Z</time>
      </trkpt>
      <trkpt lat="47.37529" lon="-1.74014">
        <ele>56.6</ele>
        <time>2022-04-02T07:24:05Z</time>
      </trkpt>
      <trkpt lat="47.3755" lon="-1.74073">
        <ele>56.8</ele>
        <time>2022-04-02T07:24:14Z</time>
      </trkpt>
      <trkpt lat="47.37568" lon="-1.74119">
        <ele>57</ele>
        <time>2022-04-02T07:24:21Z</time>
      </trkpt>
      <trkpt lat="47.37585" lon="-1.74166">
        <ele>57</ele>
        <time>2022-04-02T07:24:28Z</time>
      </trkpt>
      <trkpt lat="47.37595" lon="-1.74194">
        <ele>56.8</ele>
        <time>2022-04-02T07:24:32Z</time>
      </trkpt>
      <trkpt lat="47.37603" lon="-1.74215">
        <ele>57</ele>
        <time>2022-04-02T07:24:35Z</time>
      </trkpt>
      <trkpt lat="47.3763" lon="-1.74286">
        <ele>56.6</ele>
        <time>2022-04-02T07:24:45Z</time>
      </trkpt>
      <trkpt lat="47.37649" lon="-1.74339">
        <ele>56.4</ele>
        <time>2022-04-02T07:24:52Z</time>
      </trkpt>
      <trkpt lat="47.37668" lon="-1.74387">
        <ele>56</ele>
        <time>2022-04-02T07:24:58Z</time>
      </trkpt>
      <trkpt lat="47.37693" lon="-1.74457">
        <ele>55.6</ele>
        <time>2022-04-02T07:25:05Z</time>
      </trkpt>
      <trkpt lat="47.3772" lon="-1.74529">
        <ele>55</ele>
        <time>2022-04-02T07:25:11Z</time>
      </trkpt>
      <trkpt lat="47.37724" lon="-1.74542">
        <ele>54.8</ele>
        <time>2022-04-02T07:25:12Z</time>
      </trkpt>
      <trkpt lat="47.37754" lon="-1.74621">
        <ele>53.8</ele>
        <time>2022-04-02T07:25:18Z</time>
      </trkpt>
      <trkpt lat="47.37764" lon="-1.74648">
        <ele>53.6</ele>
        <time>2022-04-02T07:25:20Z</time>
      </trkpt>
      <trkpt lat="47.37795" lon="-1.74732">
        <ele>52.4</ele>
        <time>2022-04-02T07:25:26Z</time>
      </trkpt>
      <trkpt lat="47.37826" lon="-1.74815">
        <ele>51.2</ele>
        <time>2022-04-02T07:25:32Z</time>
      </trkpt>
      <trkpt lat="47.37831" lon="-1.74829">
        <ele>51</ele>
        <time>2022-04-02T07:25:33Z</time>
      </trkpt>
      <trkpt lat="47.3786" lon="-1.7491">
        <ele>49.8</ele>
        <time>2022-04-02T07:25:39Z</time>
      </trkpt>
      <trkpt lat="47.37865" lon="-1.74923">
        <ele>49.6</ele>
        <time>2022-04-02T07:25:40Z</time>
      </trkpt>
      <trkpt lat="47.37893" lon="-1.74996">
        <ele>48.8</ele>
        <time>2022-04-02T07:25:46Z</time>
      </trkpt>
      <trkpt lat="47.37916" lon="-1.7506">
        <ele>48.4</ele>
        <time>2022-04-02T07:25:52Z</time>
      </trkpt>
      <trkpt lat="47.37935" lon="-1.75111">
        <ele>48.4</ele>
        <time>2022-04-02T07:25:58Z</time>
      </trkpt>
      <trkpt lat="47.37953" lon="-1.75159">
        <ele>48.2</ele>
        <time>2022-04-02T07:26:05Z</time>
      </trkpt>
      <trkpt lat="47.37972" lon="-1.75204">
        <ele>48.2</ele>
        <time>2022-04-02T07:26:13Z</time>
      </trkpt>
      <trkpt lat="47.37987" lon="-1.75238">
        <ele>48.6</ele>
        <time>2022-04-02T07:26:20Z</time>
      </trkpt>
      <trkpt lat="47.38007" lon="-1.75273">
        <ele>48.6</ele>
        <time>2022-04-02T07:26:28Z</time>
      </trkpt>
      <trkpt lat="47.38026" lon="-1.75304">
        <ele>48.6</ele>
        <time>2022-04-02T07:26:35Z</time>
      </trkpt>
      <trkpt lat="47.38048" lon="-1.7534">
        <ele>48.6</ele>
        <time>2022-04-02T07:26:43Z</time>
      </trkpt>
      <trkpt lat="47.3807" lon="-1.75376">
        <ele>48.8</ele>
        <time>2022-04-02T07:26:51Z</time>
      </trkpt>
      <trkpt lat="47.38095" lon="-1.75419">
        <ele>48.8</ele>
        <time>2022-04-02T07:27:00Z</time>
      </trkpt>
      <trkpt lat="47.38101" lon="-1.75429">
        <ele>48.8</ele>
        <time>2022-04-02T07:27:02Z</time>
      </trkpt>
      <trkpt lat="47.38112" lon="-1.7545">
        <ele>49</ele>
        <time>2022-04-02T07:27:06Z</time>
      </trkpt>
      <trkpt lat="47.38143" lon="-1.755">
        <ele>49.6</ele>
        <time>2022-04-02T07:27:16Z</time>
      </trkpt>
      <trkpt lat="47.38165" lon="-1.75537">
        <ele>49.8</ele>
        <time>2022-04-02T07:27:23Z</time>
      </trkpt>
      <trkpt lat="47.38171" lon="-1.75547">
        <ele>49.8</ele>
        <time>2022-04-02T07:27:25Z</time>
      </trkpt>
      <trkpt lat="47.38181" lon="-1.75562">
        <ele>50</ele>
        <time>2022-04-02T07:27:28Z</time>
      </trkpt>
      <trkpt lat="47.38188" lon="-1.75571">
        <ele>50</ele>
        <time>2022-04-02T07:27:30Z</time>
      </trkpt>
      <trkpt lat="47.38194" lon="-1.75583">
        <ele>50</ele>
        <time>2022-04-02T07:27:32Z</time>
      </trkpt>
      <trkpt lat="47.38219" lon="-1.75629">
        <ele>50.4</ele>
        <time>2022-04-02T07:27:40Z</time>
      </trkpt>
      <trkpt lat="47.38244" lon="-1.75673">
        <ele>50.8</ele>
        <time>2022-04-02T07:27:48Z</time>
      </trkpt>
      <trkpt lat="47.38273" lon="-1.75721">
        <ele>51.4</ele>
        <time>2022-04-02T07:27:57Z</time>
      </trkpt>
      <trkpt lat="47.38305" lon="-1.75776">
        <ele>52.2</ele>
        <time>2022-04-02T07:28:07Z</time>
      </trkpt>
      <trkpt lat="47.38329" lon="-1.75815">
        <ele>52.8</ele>
        <time>2022-04-02T07:28:14Z</time>
      </trkpt>
      <trkpt lat="47.38361" lon="-1.75867">
        <ele>53.4</ele>
        <time>2022-04-02T07:28:23Z</time>
      </trkpt>
      <trkpt lat="47.38394" lon="-1.75924">
        <ele>53.8</ele>
        <time>2022-04-02T07:28:32Z</time>
      </trkpt>
      <trkpt lat="47.38427" lon="-1.75978">
        <ele>54.2</ele>
        <time>2022-04-02T07:28:41Z</time>
      </trkpt>
      <trkpt lat="47.38459" lon="-1.76032">
        <ele>54.4</ele>
        <time>2022-04-02T07:28:50Z</time>
      </trkpt>
      <trkpt lat="47.38486" lon="-1.7608">
        <ele>54.6</ele>
        <time>2022-04-02T07:28:57Z</time>
      </trkpt>
      <trkpt lat="47.38525" lon="-1.76146">
        <ele>54.8</ele>
        <time>2022-04-02T07:29:07Z</time>
      </trkpt>
      <trkpt lat="47.38554" lon="-1.76192">
        <ele>54.8</ele>
        <time>2022-04-02T07:29:14Z</time>
      </trkpt>
      <trkpt lat="47.38592" lon="-1.76244">
        <ele>55</ele>
        <time>2022-04-02T07:29:22Z</time>
      </trkpt>
      <trkpt lat="47.38632" lon="-1.76284">
        <ele>55</ele>
        <time>2022-04-02T07:29:30Z</time>
      </trkpt>
      <trkpt lat="47.38637" lon="-1.76289">
        <ele>55</ele>
        <time>2022-04-02T07:29:31Z</time>
      </trkpt>
      <trkpt lat="47.38659" lon="-1.76308">
        <ele>54.8</ele>
        <time>2022-04-02T07:29:35Z</time>
      </trkpt>
      <trkpt lat="47.38694" lon="-1.7634">
        <ele>54.6</ele>
        <time>2022-04-02T07:29:42Z</time>
      </trkpt>
      <trkpt lat="47.38732" lon="-1.76377">
        <ele>54.4</ele>
        <time>2022-04-02T07:29:50Z</time>
      </trkpt>
      <trkpt lat="47.38736" lon="-1.76382">
        <ele>54.4</ele>
        <time>2022-04-02T07:29:51Z</time>
      </trkpt>
      <trkpt lat="47.38744" lon="-1.76392">
        <ele>54.6</ele>
        <time>2022-04-02T07:29:53Z</time>
      </trkpt>
      <trkpt lat="47.38753" lon="-1.764">
        <ele>54.6</ele>
        <time>2022-04-02T07:29:55Z</time>
      </trkpt>
      <trkpt lat="47.38758" lon="-1.76404">
        <ele>54.6</ele>
        <time>2022-04-02T07:29:56Z</time>
      </trkpt>
      <trkpt lat="47.38781" lon="-1.76429">
        <ele>54.4</ele>
        <time>2022-04-02T07:30:01Z</time>
      </trkpt>
      <trkpt lat="47.38818" lon="-1.76474">
        <ele>54</ele>
        <time>2022-04-02T07:30:09Z</time>
      </trkpt>
      <trkpt lat="47.38851" lon="-1.76513">
        <ele>53.6</ele>
        <time>2022-04-02T07:30:16Z</time>
      </trkpt>
      <trkpt lat="47.38885" lon="-1.76552">
        <ele>53</ele>
        <time>2022-04-02T07:30:23Z</time>
      </trkpt>
      <trkpt lat="47.38929" lon="-1.76604">
        <ele>52.4</ele>
        <time>2022-04-02T07:30:32Z</time>
      </trkpt>
      <trkpt lat="47.38934" lon="-1.76609">
        <ele>52.2</ele>
        <time>2022-04-02T07:30:33Z</time>
      </trkpt>
      <trkpt lat="47.38971" lon="-1.76654">
        <ele>51.6</ele>
        <time>2022-04-02T07:30:41Z</time>
      </trkpt>
      <trkpt lat="47.39001" lon="-1.76692">
        <ele>51.4</ele>
        <time>2022-04-02T07:30:48Z</time>
      </trkpt>
      <trkpt lat="47.39036" lon="-1.76733">
        <ele>51</ele>
        <time>2022-04-02T07:30:56Z</time>
      </trkpt>
      <trkpt lat="47.39063" lon="-1.76765">
        <ele>50.8</ele>
        <time>2022-04-02T07:31:03Z</time>
      </trkpt>
      <trkpt lat="47.39076" lon="-1.76781">
        <ele>50.8</ele>
        <time>2022-04-02T07:31:07Z</time>
      </trkpt>
      <trkpt lat="47.39079" lon="-1.76785">
        <ele>50.8</ele>
        <time>2022-04-02T07:31:08Z</time>
      </trkpt>
      <trkpt lat="47.39097" lon="-1.76809">
        <ele>50.6</ele>
        <time>2022-04-02T07:31:13Z</time>
      </trkpt>
      <trkpt lat="47.39101" lon="-1.76813">
        <ele>50.6</ele>
        <time>2022-04-02T07:31:14Z</time>
      </trkpt>
      <trkpt lat="47.39127" lon="-1.76842">
        <ele>50.4</ele>
        <time>2022-04-02T07:31:21Z</time>
      </trkpt>
      <trkpt lat="47.39164" lon="-1.76879">
        <ele>50.4</ele>
        <time>2022-04-02T07:31:31Z</time>
      </trkpt>
      <trkpt lat="47.39192" lon="-1.76904">
        <ele>50.6</ele>
        <time>2022-04-02T07:31:38Z</time>
      </trkpt>
      <trkpt lat="47.39221" lon="-1.76934">
        <ele>50.4</ele>
        <time>2022-04-02T07:31:45Z</time>
      </trkpt>
      <trkpt lat="47.3926" lon="-1.76972">
        <ele>50.2</ele>
        <time>2022-04-02T07:31:54Z</time>
      </trkpt>
      <trkpt lat="47.39288" lon="-1.77002">
        <ele>50</ele>
        <time>2022-04-02T07:32:01Z</time>
      </trkpt>
      <trkpt lat="47.39319" lon="-1.77033">
        <ele>50</ele>
        <time>2022-04-02T07:32:09Z</time>
      </trkpt>
      <trkpt lat="47.39328" lon="-1.77041">
        <ele>50</ele>
        <time>2022-04-02T07:32:12Z</time>
      </trkpt>
      <trkpt lat="47.39331" lon="-1.77041">
        <ele>50</ele>
        <time>2022-04-02T07:32:13Z</time>
      </trkpt>
      <trkpt lat="47.39334" lon="-1.7704">
        <ele>50</ele>
        <time>2022-04-02T07:32:14Z</time>
      </trkpt>
      <trkpt lat="47.39338" lon="-1.77039">
        <ele>50.2</ele>
        <time>2022-04-02T07:32:16Z</time>
      </trkpt>
      <trkpt lat="47.39341" lon="-1.77042">
        <ele>50.2</ele>
        <time>2022-04-02T07:32:19Z</time>
      </trkpt>
      <trkpt lat="47.39336" lon="-1.77046">
        <ele>54</ele>
        <time>2022-04-02T07:45:31Z</time>
      </trkpt>
      <trkpt lat="47.39337" lon="-1.77052">
        <ele>54</ele>
        <time>2022-04-02T07:45:33Z</time>
      </trkpt>
      <trkpt lat="47.39351" lon="-1.77066">
        <ele>53.6</ele>
        <time>2022-04-02T07:45:38Z</time>
      </trkpt>
      <trkpt lat="47.39377" lon="-1.77091">
        <ele>53</ele>
        <time>2022-04-02T07:45:45Z</time>
      </trkpt>
      <trkpt lat="47.39415" lon="-1.77128">
        <ele>52.4</ele>
        <time>2022-04-02T07:45:54Z</time>
      </trkpt>
      <trkpt lat="47.39445" lon="-1.77158">
        <ele>52</ele>
        <time>2022-04-02T07:46:01Z</time>
      </trkpt>
      <trkpt lat="47.3948" lon="-1.77192">
        <ele>51.4</ele>
        <time>2022-04-02T07:46:09Z</time>
      </trkpt>
      <trkpt lat="47.39526" lon="-1.77225">
        <ele>50.8</ele>
        <time>2022-04-02T07:46:18Z</time>
      </trkpt>
      <trkpt lat="47.39568" lon="-1.77255">
        <ele>50.6</ele>
        <time>2022-04-02T07:46:26Z</time>
      </trkpt>
      <trkpt lat="47.39593" lon="-1.77286">
        <ele>50</ele>
        <time>2022-04-02T07:46:32Z</time>
      </trkpt>
      <trkpt lat="47.39624" lon="-1.77333">
        <ele>49.2</ele>
        <time>2022-04-02T07:46:39Z</time>
      </trkpt>
      <trkpt lat="47.39657" lon="-1.77387">
        <ele>48.8</ele>
        <time>2022-04-02T07:46:47Z</time>
      </trkpt>
      <trkpt lat="47.39696" lon="-1.77446">
        <ele>48.4</ele>
        <time>2022-04-02T07:46:56Z</time>
      </trkpt>
      <trkpt lat="47.39705" lon="-1.77458">
        <ele>48.2</ele>
        <time>2022-04-02T07:46:58Z</time>
      </trkpt>
      <trkpt lat="47.39742" lon="-1.77502">
        <ele>48</ele>
        <time>2022-04-02T07:47:06Z</time>
      </trkpt>
      <trkpt lat="47.39785" lon="-1.7755">
        <ele>47.6</ele>
        <time>2022-04-02T07:47:15Z</time>
      </trkpt>
      <trkpt lat="47.39832" lon="-1.77604">
        <ele>47.6</ele>
        <time>2022-04-02T07:47:25Z</time>
      </trkpt>
      <trkpt lat="47.39876" lon="-1.77651">
        <ele>47.4</ele>
        <time>2022-04-02T07:47:34Z</time>
      </trkpt>
      <trkpt lat="47.39881" lon="-1.77656">
        <ele>47.6</ele>
        <time>2022-04-02T07:47:35Z</time>
      </trkpt>
      <trkpt lat="47.39925" lon="-1.77685">
        <ele>47.4</ele>
        <time>2022-04-02T07:47:43Z</time>
      </trkpt>
      <trkpt lat="47.39977" lon="-1.77711">
        <ele>47</ele>
        <time>2022-04-02T07:47:51Z</time>
      </trkpt>
      <trkpt lat="47.39984" lon="-1.77715">
        <ele>46.8</ele>
        <time>2022-04-02T07:47:52Z</time>
      </trkpt>
      <trkpt lat="47.40037" lon="-1.77742">
        <ele>46</ele>
        <time>2022-04-02T07:47:59Z</time>
      </trkpt>
      <trkpt lat="47.40092" lon="-1.77771">
        <ele>45.2</ele>
        <time>2022-04-02T07:48:06Z</time>
      </trkpt>
      <trkpt lat="47.401" lon="-1.77774">
        <ele>45.2</ele>
        <time>2022-04-02T07:48:07Z</time>
      </trkpt>
      <trkpt lat="47.40133" lon="-1.7779">
        <ele>45</ele>
        <time>2022-04-02T07:48:12Z</time>
      </trkpt>
      <trkpt lat="47.40164" lon="-1.77806">
        <ele>45.2</ele>
        <time>2022-04-02T07:48:18Z</time>
      </trkpt>
      <trkpt lat="47.40194" lon="-1.7782">
        <ele>44.4</ele>
        <time>2022-04-02T07:48:25Z</time>
      </trkpt>
      <trkpt lat="47.40231" lon="-1.77839">
        <ele>45.4</ele>
        <time>2022-04-02T07:48:34Z</time>
      </trkpt>
      <trkpt lat="47.40267" lon="-1.77857">
        <ele>45.8</ele>
        <time>2022-04-02T07:48:43Z</time>
      </trkpt>
      <trkpt lat="47.40296" lon="-1.77872">
        <ele>46</ele>
        <time>2022-04-02T07:48:50Z</time>
      </trkpt>
      <trkpt lat="47.40334" lon="-1.7789">
        <ele>46.6</ele>
        <time>2022-04-02T07:48:59Z</time>
      </trkpt>
      <trkpt lat="47.40371" lon="-1.77909">
        <ele>47.2</ele>
        <time>2022-04-02T07:49:08Z</time>
      </trkpt>
      <trkpt lat="47.40415" lon="-1.77931">
        <ele>48</ele>
        <time>2022-04-02T07:49:19Z</time>
      </trkpt>
      <trkpt lat="47.40455" lon="-1.77956">
        <ele>48.6</ele>
        <time>2022-04-02T07:49:29Z</time>
      </trkpt>
      <trkpt lat="47.40488" lon="-1.77979">
        <ele>49.2</ele>
        <time>2022-04-02T07:49:37Z</time>
      </trkpt>
      <trkpt lat="47.40528" lon="-1.78017">
        <ele>49.8</ele>
        <time>2022-04-02T07:49:47Z</time>
      </trkpt>
      <trkpt lat="47.40559" lon="-1.78052">
        <ele>50</ele>
        <time>2022-04-02T07:49:55Z</time>
      </trkpt>
      <trkpt lat="47.40602" lon="-1.78106">
        <ele>50.2</ele>
        <time>2022-04-02T07:50:06Z</time>
      </trkpt>
      <trkpt lat="47.40644" lon="-1.78159">
        <ele>50.4</ele>
        <time>2022-04-02T07:50:16Z</time>
      </trkpt>
      <trkpt lat="47.40648" lon="-1.78164">
        <ele>50.4</ele>
        <time>2022-04-02T07:50:17Z</time>
      </trkpt>
      <trkpt lat="47.40689" lon="-1.78216">
        <ele>50.2</ele>
        <time>2022-04-02T07:50:26Z</time>
      </trkpt>
      <trkpt lat="47.40694" lon="-1.78222">
        <ele>50.4</ele>
        <time>2022-04-02T07:50:27Z</time>
      </trkpt>
      <trkpt lat="47.40732" lon="-1.78272">
        <ele>50.4</ele>
        <time>2022-04-02T07:50:35Z</time>
      </trkpt>
      <trkpt lat="47.40772" lon="-1.78325">
        <ele>50.4</ele>
        <time>2022-04-02T07:50:43Z</time>
      </trkpt>
      <trkpt lat="47.40778" lon="-1.78333">
        <ele>50.4</ele>
        <time>2022-04-02T07:50:44Z</time>
      </trkpt>
      <trkpt lat="47.40819" lon="-1.78385">
        <ele>49.8</ele>
        <time>2022-04-02T07:50:51Z</time>
      </trkpt>
      <trkpt lat="47.40825" lon="-1.78393">
        <ele>49.6</ele>
        <time>2022-04-02T07:50:52Z</time>
      </trkpt>
      <trkpt lat="47.40872" lon="-1.78455">
        <ele>49</ele>
        <time>2022-04-02T07:50:59Z</time>
      </trkpt>
      <trkpt lat="47.40879" lon="-1.78464">
        <ele>48.8</ele>
        <time>2022-04-02T07:51:00Z</time>
      </trkpt>
      <trkpt lat="47.40923" lon="-1.78521">
        <ele>48.2</ele>
        <time>2022-04-02T07:51:06Z</time>
      </trkpt>
      <trkpt lat="47.40945" lon="-1.78551">
        <ele>47.8</ele>
        <time>2022-04-02T07:51:09Z</time>
      </trkpt>
      <trkpt lat="47.40988" lon="-1.78606">
        <ele>47.2</ele>
        <time>2022-04-02T07:51:15Z</time>
      </trkpt>
      <trkpt lat="47.40995" lon="-1.78615">
        <ele>47.2</ele>
        <time>2022-04-02T07:51:16Z</time>
      </trkpt>
      <trkpt lat="47.41041" lon="-1.78673">
        <ele>46.2</ele>
        <time>2022-04-02T07:51:23Z</time>
      </trkpt>
      <trkpt lat="47.41048" lon="-1.78681">
        <ele>46</ele>
        <time>2022-04-02T07:51:24Z</time>
      </trkpt>
      <trkpt lat="47.41092" lon="-1.78738">
        <ele>45.2</ele>
        <time>2022-04-02T07:51:31Z</time>
      </trkpt>
      <trkpt lat="47.41111" lon="-1.78762">
        <ele>44.8</ele>
        <time>2022-04-02T07:51:35Z</time>
      </trkpt>
      <trkpt lat="47.41154" lon="-1.78817">
        <ele>44</ele>
        <time>2022-04-02T07:51:42Z</time>
      </trkpt>
      <trkpt lat="47.41165" lon="-1.78832">
        <ele>43.8</ele>
        <time>2022-04-02T07:51:44Z</time>
      </trkpt>
      <trkpt lat="47.41172" lon="-1.78838">
        <ele>43.8</ele>
        <time>2022-04-02T07:51:45Z</time>
      </trkpt>
      <trkpt lat="47.4119" lon="-1.78858">
        <ele>43.4</ele>
        <time>2022-04-02T07:51:48Z</time>
      </trkpt>
      <trkpt lat="47.41217" lon="-1.78896">
        <ele>43</ele>
        <time>2022-04-02T07:51:53Z</time>
      </trkpt>
      <trkpt lat="47.41253" lon="-1.78944">
        <ele>42.8</ele>
        <time>2022-04-02T07:52:00Z</time>
      </trkpt>
      <trkpt lat="47.41262" lon="-1.78957">
        <ele>42.6</ele>
        <time>2022-04-02T07:52:02Z</time>
      </trkpt>
      <trkpt lat="47.41271" lon="-1.7897">
        <ele>42.6</ele>
        <time>2022-04-02T07:52:04Z</time>
      </trkpt>
      <trkpt lat="47.413" lon="-1.79007">
        <ele>42.6</ele>
        <time>2022-04-02T07:52:11Z</time>
      </trkpt>
      <trkpt lat="47.41316" lon="-1.79026">
        <ele>42.4</ele>
        <time>2022-04-02T07:52:15Z</time>
      </trkpt>
      <trkpt lat="47.41326" lon="-1.79032">
        <ele>42.6</ele>
        <time>2022-04-02T07:52:17Z</time>
      </trkpt>
      <trkpt lat="47.41374" lon="-1.79057">
        <ele>42.6</ele>
        <time>2022-04-02T07:52:27Z</time>
      </trkpt>
      <trkpt lat="47.41413" lon="-1.79074">
        <ele>42.8</ele>
        <time>2022-04-02T07:52:35Z</time>
      </trkpt>
      <trkpt lat="47.4145" lon="-1.79083">
        <ele>43.2</ele>
        <time>2022-04-02T07:52:42Z</time>
      </trkpt>
      <trkpt lat="47.41466" lon="-1.79086">
        <ele>43.2</ele>
        <time>2022-04-02T07:52:45Z</time>
      </trkpt>
      <trkpt lat="47.41477" lon="-1.79086">
        <ele>43.2</ele>
        <time>2022-04-02T07:52:47Z</time>
      </trkpt>
      <trkpt lat="47.41495" lon="-1.79086">
        <ele>43.2</ele>
        <time>2022-04-02T07:52:52Z</time>
      </trkpt>
      <trkpt lat="47.41504" lon="-1.79088">
        <ele>43.2</ele>
        <time>2022-04-02T07:52:56Z</time>
      </trkpt>
      <trkpt lat="47.41505" lon="-1.79092">
        <ele>43.2</ele>
        <time>2022-04-02T07:52:57Z</time>
      </trkpt>
      <trkpt lat="47.41509" lon="-1.7912">
        <ele>43</ele>
        <time>2022-04-02T07:53:02Z</time>
      </trkpt>
      <trkpt lat="47.41513" lon="-1.79145">
        <ele>42.8</ele>
        <time>2022-04-02T07:53:06Z</time>
      </trkpt>
      <trkpt lat="47.41515" lon="-1.79163">
        <ele>42.8</ele>
        <time>2022-04-02T07:53:09Z</time>
      </trkpt>
      <trkpt lat="47.41521" lon="-1.79189">
        <ele>42.6</ele>
        <time>2022-04-02T07:53:14Z</time>
      </trkpt>
      <trkpt lat="47.41532" lon="-1.79198">
        <ele>42.6</ele>
        <time>2022-04-02T07:53:17Z</time>
      </trkpt>
      <trkpt lat="47.41535" lon="-1.79203">
        <ele>42.6</ele>
        <time>2022-04-02T07:53:18Z</time>
      </trkpt>
      <trkpt lat="47.41536" lon="-1.79209">
        <ele>42.6</ele>
        <time>2022-04-02T07:53:19Z</time>
      </trkpt>
      <trkpt lat="47.41535" lon="-1.79223">
        <ele>42.6</ele>
        <time>2022-04-02T07:53:21Z</time>
      </trkpt>
      <trkpt lat="47.41535" lon="-1.7923">
        <ele>42.4</ele>
        <time>2022-04-02T07:53:22Z</time>
      </trkpt>
      <trkpt lat="47.41536" lon="-1.79245">
        <ele>42.4</ele>
        <time>2022-04-02T07:53:24Z</time>
      </trkpt>
      <trkpt lat="47.41537" lon="-1.79251">
        <ele>42.4</ele>
        <time>2022-04-02T07:53:25Z</time>
      </trkpt>
      <trkpt lat="47.41539" lon="-1.79257">
        <ele>42.2</ele>
        <time>2022-04-02T07:53:26Z</time>
      </trkpt>
      <trkpt lat="47.41543" lon="-1.79272">
        <ele>42.2</ele>
        <time>2022-04-02T07:53:28Z</time>
      </trkpt>
      <trkpt lat="47.41559" lon="-1.79326">
        <ele>41.8</ele>
        <time>2022-04-02T07:53:35Z</time>
      </trkpt>
      <trkpt lat="47.41569" lon="-1.79365">
        <ele>41.6</ele>
        <time>2022-04-02T07:53:40Z</time>
      </trkpt>
      <trkpt lat="47.4157" lon="-1.79373">
        <ele>41.6</ele>
        <time>2022-04-02T07:53:41Z</time>
      </trkpt>
      <trkpt lat="47.41581" lon="-1.79432">
        <ele>41.6</ele>
        <time>2022-04-02T07:53:48Z</time>
      </trkpt>
      <trkpt lat="47.41589" lon="-1.79485">
        <ele>41.2</ele>
        <time>2022-04-02T07:53:54Z</time>
      </trkpt>
      <trkpt lat="47.41591" lon="-1.79493">
        <ele>41.2</ele>
        <time>2022-04-02T07:53:55Z</time>
      </trkpt>
      <trkpt lat="47.41604" lon="-1.79564">
        <ele>41</ele>
        <time>2022-04-02T07:54:03Z</time>
      </trkpt>
      <trkpt lat="47.41613" lon="-1.79614">
        <ele>41</ele>
        <time>2022-04-02T07:54:09Z</time>
      </trkpt>
      <trkpt lat="47.41617" lon="-1.79621">
        <ele>41</ele>
        <time>2022-04-02T07:54:10Z</time>
      </trkpt>
      <trkpt lat="47.41621" lon="-1.79626">
        <ele>41</ele>
        <time>2022-04-02T07:54:11Z</time>
      </trkpt>
      <trkpt lat="47.41634" lon="-1.79627">
        <ele>41</ele>
        <time>2022-04-02T07:54:13Z</time>
      </trkpt>
      <trkpt lat="47.41673" lon="-1.79617">
        <ele>41</ele>
        <time>2022-04-02T07:54:19Z</time>
      </trkpt>
      <trkpt lat="47.41722" lon="-1.7961">
        <ele>41.2</ele>
        <time>2022-04-02T07:54:27Z</time>
      </trkpt>
      <trkpt lat="47.41728" lon="-1.79609">
        <ele>41.2</ele>
        <time>2022-04-02T07:54:28Z</time>
      </trkpt>
      <trkpt lat="47.41752" lon="-1.79605">
        <ele>41.2</ele>
        <time>2022-04-02T07:54:32Z</time>
      </trkpt>
      <trkpt lat="47.41785" lon="-1.79601">
        <ele>41.2</ele>
        <time>2022-04-02T07:54:38Z</time>
      </trkpt>
      <trkpt lat="47.41824" lon="-1.79602">
        <ele>41.6</ele>
        <time>2022-04-02T07:54:45Z</time>
      </trkpt>
      <trkpt lat="47.41867" lon="-1.79612">
        <ele>42</ele>
        <time>2022-04-02T07:54:53Z</time>
      </trkpt>
      <trkpt lat="47.41916" lon="-1.79625">
        <ele>42.6</ele>
        <time>2022-04-02T07:55:02Z</time>
      </trkpt>
      <trkpt lat="47.41969" lon="-1.79635">
        <ele>43.6</ele>
        <time>2022-04-02T07:55:12Z</time>
      </trkpt>
      <trkpt lat="47.42009" lon="-1.79643">
        <ele>44</ele>
        <time>2022-04-02T07:55:19Z</time>
      </trkpt>
      <trkpt lat="47.42065" lon="-1.79651">
        <ele>44.2</ele>
        <time>2022-04-02T07:55:27Z</time>
      </trkpt>
      <trkpt lat="47.42124" lon="-1.79657">
        <ele>44.2</ele>
        <time>2022-04-02T07:55:35Z</time>
      </trkpt>
      <trkpt lat="47.42139" lon="-1.79659">
        <ele>44.2</ele>
        <time>2022-04-02T07:55:37Z</time>
      </trkpt>
      <trkpt lat="47.42198" lon="-1.79669">
        <ele>44</ele>
        <time>2022-04-02T07:55:45Z</time>
      </trkpt>
      <trkpt lat="47.42254" lon="-1.79685">
        <ele>43.6</ele>
        <time>2022-04-02T07:55:53Z</time>
      </trkpt>
      <trkpt lat="47.42261" lon="-1.79687">
        <ele>43.6</ele>
        <time>2022-04-02T07:55:54Z</time>
      </trkpt>
      <trkpt lat="47.42316" lon="-1.79702">
        <ele>43</ele>
        <time>2022-04-02T07:56:02Z</time>
      </trkpt>
      <trkpt lat="47.42373" lon="-1.79719">
        <ele>42.4</ele>
        <time>2022-04-02T07:56:10Z</time>
      </trkpt>
      <trkpt lat="47.42415" lon="-1.7973">
        <ele>41.8</ele>
        <time>2022-04-02T07:56:16Z</time>
      </trkpt>
      <trkpt lat="47.42463" lon="-1.79744">
        <ele>41.4</ele>
        <time>2022-04-02T07:56:23Z</time>
      </trkpt>
      <trkpt lat="47.42518" lon="-1.79763">
        <ele>40.8</ele>
        <time>2022-04-02T07:56:31Z</time>
      </trkpt>
      <trkpt lat="47.42531" lon="-1.7977">
        <ele>40.8</ele>
        <time>2022-04-02T07:56:33Z</time>
      </trkpt>
      <trkpt lat="47.42583" lon="-1.79804">
        <ele>40.4</ele>
        <time>2022-04-02T07:56:41Z</time>
      </trkpt>
      <trkpt lat="47.42624" lon="-1.79834">
        <ele>40.2</ele>
        <time>2022-04-02T07:56:48Z</time>
      </trkpt>
      <trkpt lat="47.4263" lon="-1.79838">
        <ele>40.2</ele>
        <time>2022-04-02T07:56:49Z</time>
      </trkpt>
      <trkpt lat="47.42654" lon="-1.79851">
        <ele>40</ele>
        <time>2022-04-02T07:56:53Z</time>
      </trkpt>
      <trkpt lat="47.42691" lon="-1.79869">
        <ele>39.8</ele>
        <time>2022-04-02T07:56:59Z</time>
      </trkpt>
      <trkpt lat="47.42736" lon="-1.79888">
        <ele>39.4</ele>
        <time>2022-04-02T07:57:06Z</time>
      </trkpt>
      <trkpt lat="47.42748" lon="-1.79896">
        <ele>39.2</ele>
        <time>2022-04-02T07:57:08Z</time>
      </trkpt>
      <trkpt lat="47.42765" lon="-1.79912">
        <ele>39</ele>
        <time>2022-04-02T07:57:11Z</time>
      </trkpt>
      <trkpt lat="47.42774" lon="-1.79926">
        <ele>38.8</ele>
        <time>2022-04-02T07:57:13Z</time>
      </trkpt>
      <trkpt lat="47.42782" lon="-1.79941">
        <ele>38.8</ele>
        <time>2022-04-02T07:57:15Z</time>
      </trkpt>
      <trkpt lat="47.42789" lon="-1.79958">
        <ele>38.6</ele>
        <time>2022-04-02T07:57:17Z</time>
      </trkpt>
      <trkpt lat="47.42805" lon="-1.79987">
        <ele>38.2</ele>
        <time>2022-04-02T07:57:21Z</time>
      </trkpt>
      <trkpt lat="47.42835" lon="-1.80022">
        <ele>37.8</ele>
        <time>2022-04-02T07:57:27Z</time>
      </trkpt>
      <trkpt lat="47.42877" lon="-1.8005">
        <ele>37.4</ele>
        <time>2022-04-02T07:57:34Z</time>
      </trkpt>
      <trkpt lat="47.42926" lon="-1.80076">
        <ele>37</ele>
        <time>2022-04-02T07:57:42Z</time>
      </trkpt>
      <trkpt lat="47.42969" lon="-1.801">
        <ele>36.4</ele>
        <time>2022-04-02T07:57:49Z</time>
      </trkpt>
      <trkpt lat="47.43019" lon="-1.80125">
        <ele>36</ele>
        <time>2022-04-02T07:57:57Z</time>
      </trkpt>
      <trkpt lat="47.43071" lon="-1.80156">
        <ele>35.6</ele>
        <time>2022-04-02T07:58:06Z</time>
      </trkpt>
      <trkpt lat="47.4311" lon="-1.80188">
        <ele>35.4</ele>
        <time>2022-04-02T07:58:13Z</time>
      </trkpt>
      <trkpt lat="47.43149" lon="-1.80222">
        <ele>35</ele>
        <time>2022-04-02T07:58:20Z</time>
      </trkpt>
      <trkpt lat="47.43196" lon="-1.80262">
        <ele>34.4</ele>
        <time>2022-04-02T07:58:28Z</time>
      </trkpt>
      <trkpt lat="47.43234" lon="-1.80296">
        <ele>34</ele>
        <time>2022-04-02T07:58:35Z</time>
      </trkpt>
      <trkpt lat="47.43271" lon="-1.80327">
        <ele>33.6</ele>
        <time>2022-04-02T07:58:42Z</time>
      </trkpt>
      <trkpt lat="47.43306" lon="-1.80366">
        <ele>33.2</ele>
        <time>2022-04-02T07:58:49Z</time>
      </trkpt>
      <trkpt lat="47.4335" lon="-1.8042">
        <ele>32.6</ele>
        <time>2022-04-02T07:58:58Z</time>
      </trkpt>
      <trkpt lat="47.43387" lon="-1.80455">
        <ele>32.4</ele>
        <time>2022-04-02T07:59:05Z</time>
      </trkpt>
      <trkpt lat="47.43428" lon="-1.80484">
        <ele>32</ele>
        <time>2022-04-02T07:59:12Z</time>
      </trkpt>
      <trkpt lat="47.43474" lon="-1.80518">
        <ele>31.8</ele>
        <time>2022-04-02T07:59:20Z</time>
      </trkpt>
      <trkpt lat="47.43516" lon="-1.80548">
        <ele>31.4</ele>
        <time>2022-04-02T07:59:27Z</time>
      </trkpt>
      <trkpt lat="47.4355" lon="-1.80575">
        <ele>31.2</ele>
        <time>2022-04-02T07:59:33Z</time>
      </trkpt>
      <trkpt lat="47.43598" lon="-1.80612">
        <ele>30.8</ele>
        <time>2022-04-02T07:59:42Z</time>
      </trkpt>
      <trkpt lat="47.43603" lon="-1.80616">
        <ele>30.8</ele>
        <time>2022-04-02T07:59:43Z</time>
      </trkpt>
      <trkpt lat="47.43623" lon="-1.80635">
        <ele>30.6</ele>
        <time>2022-04-02T07:59:47Z</time>
      </trkpt>
      <trkpt lat="47.43648" lon="-1.80661">
        <ele>30.2</ele>
        <time>2022-04-02T07:59:52Z</time>
      </trkpt>
      <trkpt lat="47.43679" lon="-1.80691">
        <ele>29.6</ele>
        <time>2022-04-02T07:59:58Z</time>
      </trkpt>
      <trkpt lat="47.43701" lon="-1.80712">
        <ele>29.4</ele>
        <time>2022-04-02T08:00:03Z</time>
      </trkpt>
      <trkpt lat="47.43705" lon="-1.80713">
        <ele>29.4</ele>
        <time>2022-04-02T08:00:04Z</time>
      </trkpt>
      <trkpt lat="47.43709" lon="-1.80708">
        <ele>29.4</ele>
        <time>2022-04-02T08:00:06Z</time>
      </trkpt>
      <trkpt lat="47.4371" lon="-1.80705">
        <ele>29.4</ele>
        <time>2022-04-02T08:00:07Z</time>
      </trkpt>
      <trkpt lat="47.43713" lon="-1.80695">
        <ele>29</ele>
        <time>2022-04-02T08:00:11Z</time>
      </trkpt>
      <trkpt lat="47.43715" lon="-1.80693">
        <ele>28.8</ele>
        <time>2022-04-02T08:00:12Z</time>
      </trkpt>
      <trkpt lat="47.43718" lon="-1.80689">
        <ele>28.4</ele>
        <time>2022-04-02T08:00:14Z</time>
      </trkpt>
      <trkpt lat="47.43721" lon="-1.80683">
        <ele>28.2</ele>
        <time>2022-04-02T08:00:15Z</time>
      </trkpt>
      <trkpt lat="47.43729" lon="-1.8067">
        <ele>27.6</ele>
        <time>2022-04-02T08:00:17Z</time>
      </trkpt>
      <trkpt lat="47.43733" lon="-1.80664">
        <ele>27.2</ele>
        <time>2022-04-02T08:00:18Z</time>
      </trkpt>
      <trkpt lat="47.43741" lon="-1.80652">
        <ele>26.6</ele>
        <time>2022-04-02T08:00:20Z</time>
      </trkpt>
      <trkpt lat="47.43754" lon="-1.80635">
        <ele>25.6</ele>
        <time>2022-04-02T08:00:23Z</time>
      </trkpt>
      <trkpt lat="47.43779" lon="-1.80599">
        <ele>23.6</ele>
        <time>2022-04-02T08:00:29Z</time>
      </trkpt>
      <trkpt lat="47.438" lon="-1.80552">
        <ele>23.6</ele>
        <time>2022-04-02T08:00:35Z</time>
      </trkpt>
      <trkpt lat="47.43819" lon="-1.80525">
        <ele>23.4</ele>
        <time>2022-04-02T08:00:40Z</time>
      </trkpt>
      <trkpt lat="47.43823" lon="-1.80518">
        <ele>23.4</ele>
        <time>2022-04-02T08:00:41Z</time>
      </trkpt>
      <trkpt lat="47.43831" lon="-1.80504">
        <ele>23.2</ele>
        <time>2022-04-02T08:00:43Z</time>
      </trkpt>
      <trkpt lat="47.43844" lon="-1.80483">
        <ele>23</ele>
        <time>2022-04-02T08:00:46Z</time>
      </trkpt>
      <trkpt lat="47.43884" lon="-1.80424">
        <ele>22.8</ele>
        <time>2022-04-02T08:00:54Z</time>
      </trkpt>
      <trkpt lat="47.43922" lon="-1.80364">
        <ele>22.6</ele>
        <time>2022-04-02T08:01:02Z</time>
      </trkpt>
      <trkpt lat="47.43958" lon="-1.80312">
        <ele>22.4</ele>
        <time>2022-04-02T08:01:09Z</time>
      </trkpt>
      <trkpt lat="47.43995" lon="-1.80259">
        <ele>22.4</ele>
        <time>2022-04-02T08:01:16Z</time>
      </trkpt>
      <trkpt lat="47.44031" lon="-1.80206">
        <ele>22.2</ele>
        <time>2022-04-02T08:01:23Z</time>
      </trkpt>
      <trkpt lat="47.44068" lon="-1.80155">
        <ele>21.8</ele>
        <time>2022-04-02T08:01:30Z</time>
      </trkpt>
      <trkpt lat="47.44097" lon="-1.8011">
        <ele>21.6</ele>
        <time>2022-04-02T08:01:36Z</time>
      </trkpt>
      <trkpt lat="47.44127" lon="-1.80064">
        <ele>21.6</ele>
        <time>2022-04-02T08:01:42Z</time>
      </trkpt>
      <trkpt lat="47.44163" lon="-1.80012">
        <ele>21.4</ele>
        <time>2022-04-02T08:01:49Z</time>
      </trkpt>
      <trkpt lat="47.44188" lon="-1.79976">
        <ele>20.8</ele>
        <time>2022-04-02T08:01:54Z</time>
      </trkpt>
      <trkpt lat="47.44209" lon="-1.79948">
        <ele>20.6</ele>
        <time>2022-04-02T08:01:58Z</time>
      </trkpt>
      <trkpt lat="47.44243" lon="-1.79907">
        <ele>19.8</ele>
        <time>2022-04-02T08:02:04Z</time>
      </trkpt>
      <trkpt lat="47.44279" lon="-1.79858">
        <ele>19</ele>
        <time>2022-04-02T08:02:11Z</time>
      </trkpt>
      <trkpt lat="47.44284" lon="-1.7985">
        <ele>18.8</ele>
        <time>2022-04-02T08:02:12Z</time>
      </trkpt>
      <trkpt lat="47.44298" lon="-1.79826">
        <ele>18.6</ele>
        <time>2022-04-02T08:02:15Z</time>
      </trkpt>
      <trkpt lat="47.44329" lon="-1.79768">
        <ele>18.8</ele>
        <time>2022-04-02T08:02:22Z</time>
      </trkpt>
      <trkpt lat="47.44359" lon="-1.79722">
        <ele>18.8</ele>
        <time>2022-04-02T08:02:28Z</time>
      </trkpt>
      <trkpt lat="47.444" lon="-1.79662">
        <ele>18.6</ele>
        <time>2022-04-02T08:02:36Z</time>
      </trkpt>
      <trkpt lat="47.44405" lon="-1.79654">
        <ele>18.6</ele>
        <time>2022-04-02T08:02:37Z</time>
      </trkpt>
      <trkpt lat="47.44444" lon="-1.79594">
        <ele>18.2</ele>
        <time>2022-04-02T08:02:45Z</time>
      </trkpt>
      <trkpt lat="47.44478" lon="-1.79541">
        <ele>17.8</ele>
        <time>2022-04-02T08:02:52Z</time>
      </trkpt>
      <trkpt lat="47.4452" lon="-1.79479">
        <ele>17.4</ele>
        <time>2022-04-02T08:03:00Z</time>
      </trkpt>
      <trkpt lat="47.44557" lon="-1.79423">
        <ele>17.2</ele>
        <time>2022-04-02T08:03:07Z</time>
      </trkpt>
      <trkpt lat="47.44599" lon="-1.79361">
        <ele>17</ele>
        <time>2022-04-02T08:03:15Z</time>
      </trkpt>
      <trkpt lat="47.44623" lon="-1.79327">
        <ele>16.8</ele>
        <time>2022-04-02T08:03:20Z</time>
      </trkpt>
      <trkpt lat="47.44641" lon="-1.79306">
        <ele>16.8</ele>
        <time>2022-04-02T08:03:25Z</time>
      </trkpt>
      <trkpt lat="47.44662" lon="-1.79277">
        <ele>16.6</ele>
        <time>2022-04-02T08:03:30Z</time>
      </trkpt>
      <trkpt lat="47.44697" lon="-1.79225">
        <ele>17.2</ele>
        <time>2022-04-02T08:03:37Z</time>
      </trkpt>
      <trkpt lat="47.44737" lon="-1.79167">
        <ele>17.4</ele>
        <time>2022-04-02T08:03:45Z</time>
      </trkpt>
      <trkpt lat="47.44747" lon="-1.79153">
        <ele>17.4</ele>
        <time>2022-04-02T08:03:47Z</time>
      </trkpt>
      <trkpt lat="47.44788" lon="-1.7909">
        <ele>17.6</ele>
        <time>2022-04-02T08:03:56Z</time>
      </trkpt>
      <trkpt lat="47.44793" lon="-1.79083">
        <ele>17.6</ele>
        <time>2022-04-02T08:03:57Z</time>
      </trkpt>
      <trkpt lat="47.44831" lon="-1.79026">
        <ele>18</ele>
        <time>2022-04-02T08:04:05Z</time>
      </trkpt>
      <trkpt lat="47.44845" lon="-1.79005">
        <ele>18</ele>
        <time>2022-04-02T08:04:08Z</time>
      </trkpt>
      <trkpt lat="47.44888" lon="-1.78943">
        <ele>17.8</ele>
        <time>2022-04-02T08:04:17Z</time>
      </trkpt>
      <trkpt lat="47.44926" lon="-1.78885">
        <ele>18</ele>
        <time>2022-04-02T08:04:25Z</time>
      </trkpt>
      <trkpt lat="47.4494" lon="-1.78864">
        <ele>18.2</ele>
        <time>2022-04-02T08:04:28Z</time>
      </trkpt>
      <trkpt lat="47.44979" lon="-1.78807">
        <ele>18.2</ele>
        <time>2022-04-02T08:04:36Z</time>
      </trkpt>
      <trkpt lat="47.45017" lon="-1.78751">
        <ele>18</ele>
        <time>2022-04-02T08:04:44Z</time>
      </trkpt>
      <trkpt lat="47.45041" lon="-1.78715">
        <ele>18</ele>
        <time>2022-04-02T08:04:49Z</time>
      </trkpt>
      <trkpt lat="47.4505" lon="-1.787">
        <ele>17.8</ele>
        <time>2022-04-02T08:04:51Z</time>
      </trkpt>
      <trkpt lat="47.45069" lon="-1.78672">
        <ele>17.6</ele>
        <time>2022-04-02T08:04:55Z</time>
      </trkpt>
      <trkpt lat="47.45073" lon="-1.78665">
        <ele>17.6</ele>
        <time>2022-04-02T08:04:56Z</time>
      </trkpt>
      <trkpt lat="47.45093" lon="-1.78638">
        <ele>17</ele>
        <time>2022-04-02T08:05:01Z</time>
      </trkpt>
      <trkpt lat="47.45103" lon="-1.78622">
        <ele>16.6</ele>
        <time>2022-04-02T08:05:05Z</time>
      </trkpt>
      <trkpt lat="47.45115" lon="-1.78605">
        <ele>16.2</ele>
        <time>2022-04-02T08:05:09Z</time>
      </trkpt>
      <trkpt lat="47.45135" lon="-1.78574">
        <ele>16.2</ele>
        <time>2022-04-02T08:05:15Z</time>
      </trkpt>
      <trkpt lat="47.45144" lon="-1.78562">
        <ele>16</ele>
        <time>2022-04-02T08:05:17Z</time>
      </trkpt>
      <trkpt lat="47.45153" lon="-1.78549">
        <ele>15.8</ele>
        <time>2022-04-02T08:05:19Z</time>
      </trkpt>
      <trkpt lat="47.45156" lon="-1.78543">
        <ele>15.8</ele>
        <time>2022-04-02T08:05:20Z</time>
      </trkpt>
      <trkpt lat="47.4516" lon="-1.78536">
        <ele>15.8</ele>
        <time>2022-04-02T08:05:21Z</time>
      </trkpt>
      <trkpt lat="47.45168" lon="-1.78523">
        <ele>15.4</ele>
        <time>2022-04-02T08:05:23Z</time>
      </trkpt>
      <trkpt lat="47.45173" lon="-1.78517">
        <ele>15.4</ele>
        <time>2022-04-02T08:05:24Z</time>
      </trkpt>
      <trkpt lat="47.45198" lon="-1.78485">
        <ele>14.4</ele>
        <time>2022-04-02T08:05:29Z</time>
      </trkpt>
      <trkpt lat="47.45221" lon="-1.7845">
        <ele>13.4</ele>
        <time>2022-04-02T08:05:34Z</time>
      </trkpt>
      <trkpt lat="47.45249" lon="-1.78404">
        <ele>13</ele>
        <time>2022-04-02T08:05:40Z</time>
      </trkpt>
      <trkpt lat="47.45279" lon="-1.7836">
        <ele>12.6</ele>
        <time>2022-04-02T08:05:46Z</time>
      </trkpt>
      <trkpt lat="47.45283" lon="-1.78352">
        <ele>12.6</ele>
        <time>2022-04-02T08:05:47Z</time>
      </trkpt>
      <trkpt lat="47.45291" lon="-1.78337">
        <ele>12.4</ele>
        <time>2022-04-02T08:05:49Z</time>
      </trkpt>
      <trkpt lat="47.45301" lon="-1.78323">
        <ele>12.2</ele>
        <time>2022-04-02T08:05:51Z</time>
      </trkpt>
      <trkpt lat="47.45331" lon="-1.78281">
        <ele>11.8</ele>
        <time>2022-04-02T08:05:57Z</time>
      </trkpt>
      <trkpt lat="47.45349" lon="-1.78253">
        <ele>11.6</ele>
        <time>2022-04-02T08:06:01Z</time>
      </trkpt>
      <trkpt lat="47.45375" lon="-1.78222">
        <ele>11</ele>
        <time>2022-04-02T08:06:06Z</time>
      </trkpt>
      <trkpt lat="47.45402" lon="-1.78195">
        <ele>10.2</ele>
        <time>2022-04-02T08:06:11Z</time>
      </trkpt>
      <trkpt lat="47.45414" lon="-1.78184">
        <ele>9.8</ele>
        <time>2022-04-02T08:06:13Z</time>
      </trkpt>
      <trkpt lat="47.45425" lon="-1.78173">
        <ele>9.6</ele>
        <time>2022-04-02T08:06:15Z</time>
      </trkpt>
      <trkpt lat="47.45452" lon="-1.78145">
        <ele>9</ele>
        <time>2022-04-02T08:06:20Z</time>
      </trkpt>
      <trkpt lat="47.45478" lon="-1.78117">
        <ele>8.6</ele>
        <time>2022-04-02T08:06:25Z</time>
      </trkpt>
      <trkpt lat="47.45516" lon="-1.7808">
        <ele>8.6</ele>
        <time>2022-04-02T08:06:32Z</time>
      </trkpt>
      <trkpt lat="47.45562" lon="-1.78044">
        <ele>8.6</ele>
        <time>2022-04-02T08:06:40Z</time>
      </trkpt>
      <trkpt lat="47.45569" lon="-1.7804">
        <ele>8.6</ele>
        <time>2022-04-02T08:06:41Z</time>
      </trkpt>
      <trkpt lat="47.45587" lon="-1.78029">
        <ele>8.6</ele>
        <time>2022-04-02T08:06:44Z</time>
      </trkpt>
      <trkpt lat="47.45599" lon="-1.78022">
        <ele>8.6</ele>
        <time>2022-04-02T08:06:46Z</time>
      </trkpt>
      <trkpt lat="47.45611" lon="-1.78014">
        <ele>8.6</ele>
        <time>2022-04-02T08:06:48Z</time>
      </trkpt>
      <trkpt lat="47.45642" lon="-1.77997">
        <ele>8.4</ele>
        <time>2022-04-02T08:06:53Z</time>
      </trkpt>
      <trkpt lat="47.45654" lon="-1.7799">
        <ele>8.4</ele>
        <time>2022-04-02T08:06:55Z</time>
      </trkpt>
      <trkpt lat="47.45695" lon="-1.77968">
        <ele>8.4</ele>
        <time>2022-04-02T08:07:02Z</time>
      </trkpt>
      <trkpt lat="47.45732" lon="-1.77949">
        <ele>8.4</ele>
        <time>2022-04-02T08:07:08Z</time>
      </trkpt>
      <trkpt lat="47.45751" lon="-1.77942">
        <ele>8.4</ele>
        <time>2022-04-02T08:07:11Z</time>
      </trkpt>
      <trkpt lat="47.45757" lon="-1.7794">
        <ele>8.4</ele>
        <time>2022-04-02T08:07:12Z</time>
      </trkpt>
      <trkpt lat="47.45761" lon="-1.77937">
        <ele>8.4</ele>
        <time>2022-04-02T08:07:13Z</time>
      </trkpt>
      <trkpt lat="47.45772" lon="-1.7793">
        <ele>8.2</ele>
        <time>2022-04-02T08:07:15Z</time>
      </trkpt>
      <trkpt lat="47.45785" lon="-1.77924">
        <ele>8.2</ele>
        <time>2022-04-02T08:07:17Z</time>
      </trkpt>
      <trkpt lat="47.45804" lon="-1.77916">
        <ele>8.2</ele>
        <time>2022-04-02T08:07:20Z</time>
      </trkpt>
      <trkpt lat="47.45841" lon="-1.77898">
        <ele>8</ele>
        <time>2022-04-02T08:07:26Z</time>
      </trkpt>
      <trkpt lat="47.4586" lon="-1.77889">
        <ele>8</ele>
        <time>2022-04-02T08:07:29Z</time>
      </trkpt>
      <trkpt lat="47.45878" lon="-1.77879">
        <ele>8</ele>
        <time>2022-04-02T08:07:32Z</time>
      </trkpt>
      <trkpt lat="47.45915" lon="-1.7786">
        <ele>8.4</ele>
        <time>2022-04-02T08:07:38Z</time>
      </trkpt>
      <trkpt lat="47.45927" lon="-1.77855">
        <ele>8.4</ele>
        <time>2022-04-02T08:07:40Z</time>
      </trkpt>
      <trkpt lat="47.45938" lon="-1.77849">
        <ele>8.4</ele>
        <time>2022-04-02T08:07:42Z</time>
      </trkpt>
      <trkpt lat="47.45971" lon="-1.7783">
        <ele>8.6</ele>
        <time>2022-04-02T08:07:48Z</time>
      </trkpt>
      <trkpt lat="47.46005" lon="-1.77812">
        <ele>8.6</ele>
        <time>2022-04-02T08:07:54Z</time>
      </trkpt>
      <trkpt lat="47.46031" lon="-1.778">
        <ele>8.6</ele>
        <time>2022-04-02T08:07:59Z</time>
      </trkpt>
      <trkpt lat="47.46037" lon="-1.77797">
        <ele>8.8</ele>
        <time>2022-04-02T08:08:00Z</time>
      </trkpt>
      <trkpt lat="47.46053" lon="-1.77789">
        <ele>8.8</ele>
        <time>2022-04-02T08:08:03Z</time>
      </trkpt>
      <trkpt lat="47.46059" lon="-1.77787">
        <ele>8.8</ele>
        <time>2022-04-02T08:08:04Z</time>
      </trkpt>
      <trkpt lat="47.46065" lon="-1.77784">
        <ele>9</ele>
        <time>2022-04-02T08:08:05Z</time>
      </trkpt>
      <trkpt lat="47.46078" lon="-1.77777">
        <ele>9</ele>
        <time>2022-04-02T08:08:08Z</time>
      </trkpt>
      <trkpt lat="47.46091" lon="-1.77769">
        <ele>9.2</ele>
        <time>2022-04-02T08:08:11Z</time>
      </trkpt>
      <trkpt lat="47.46107" lon="-1.77759">
        <ele>9.4</ele>
        <time>2022-04-02T08:08:15Z</time>
      </trkpt>
      <trkpt lat="47.46121" lon="-1.77749">
        <ele>9.6</ele>
        <time>2022-04-02T08:08:19Z</time>
      </trkpt>
      <trkpt lat="47.46136" lon="-1.7774">
        <ele>9.8</ele>
        <time>2022-04-02T08:08:23Z</time>
      </trkpt>
      <trkpt lat="47.46146" lon="-1.77736">
        <ele>9.8</ele>
        <time>2022-04-02T08:08:25Z</time>
      </trkpt>
      <trkpt lat="47.4615" lon="-1.77734">
        <ele>9.8</ele>
        <time>2022-04-02T08:08:26Z</time>
      </trkpt>
      <trkpt lat="47.4617" lon="-1.77727">
        <ele>9.8</ele>
        <time>2022-04-02T08:08:30Z</time>
      </trkpt>
      <trkpt lat="47.46184" lon="-1.77719">
        <ele>10</ele>
        <time>2022-04-02T08:08:33Z</time>
      </trkpt>
      <trkpt lat="47.46194" lon="-1.77715">
        <ele>10</ele>
        <time>2022-04-02T08:08:35Z</time>
      </trkpt>
      <trkpt lat="47.46219" lon="-1.77701">
        <ele>10.4</ele>
        <time>2022-04-02T08:08:41Z</time>
      </trkpt>
      <trkpt lat="47.46233" lon="-1.77695">
        <ele>10.6</ele>
        <time>2022-04-02T08:08:44Z</time>
      </trkpt>
      <trkpt lat="47.46241" lon="-1.77691">
        <ele>10.8</ele>
        <time>2022-04-02T08:08:46Z</time>
      </trkpt>
      <trkpt lat="47.46244" lon="-1.77688">
        <ele>10.8</ele>
        <time>2022-04-02T08:08:47Z</time>
      </trkpt>
      <trkpt lat="47.46257" lon="-1.77682">
        <ele>11</ele>
        <time>2022-04-02T08:08:50Z</time>
      </trkpt>
      <trkpt lat="47.46278" lon="-1.77672">
        <ele>11.4</ele>
        <time>2022-04-02T08:08:55Z</time>
      </trkpt>
      <trkpt lat="47.46298" lon="-1.77661">
        <ele>11.8</ele>
        <time>2022-04-02T08:09:00Z</time>
      </trkpt>
      <trkpt lat="47.46313" lon="-1.77652">
        <ele>11.8</ele>
        <time>2022-04-02T08:09:04Z</time>
      </trkpt>
      <trkpt lat="47.46332" lon="-1.77644">
        <ele>12</ele>
        <time>2022-04-02T08:09:08Z</time>
      </trkpt>
      <trkpt lat="47.46353" lon="-1.77632">
        <ele>12.2</ele>
        <time>2022-04-02T08:09:13Z</time>
      </trkpt>
      <trkpt lat="47.46358" lon="-1.77629">
        <ele>12.2</ele>
        <time>2022-04-02T08:09:14Z</time>
      </trkpt>
      <trkpt lat="47.46367" lon="-1.77625">
        <ele>12.2</ele>
        <time>2022-04-02T08:09:16Z</time>
      </trkpt>
      <trkpt lat="47.46376" lon="-1.7762">
        <ele>12.2</ele>
        <time>2022-04-02T08:09:18Z</time>
      </trkpt>
      <trkpt lat="47.4639" lon="-1.77613">
        <ele>12.4</ele>
        <time>2022-04-02T08:09:21Z</time>
      </trkpt>
      <trkpt lat="47.46396" lon="-1.77609">
        <ele>12.4</ele>
        <time>2022-04-02T08:09:22Z</time>
      </trkpt>
      <trkpt lat="47.46406" lon="-1.77603">
        <ele>12.4</ele>
        <time>2022-04-02T08:09:24Z</time>
      </trkpt>
      <trkpt lat="47.46411" lon="-1.77603">
        <ele>12.4</ele>
        <time>2022-04-02T08:09:25Z</time>
      </trkpt>
      <trkpt lat="47.46424" lon="-1.77609">
        <ele>12.6</ele>
        <time>2022-04-02T08:09:29Z</time>
      </trkpt>
      <trkpt lat="47.4644" lon="-1.77621">
        <ele>13</ele>
        <time>2022-04-02T08:09:34Z</time>
      </trkpt>
      <trkpt lat="47.4645" lon="-1.77628">
        <ele>13.2</ele>
        <time>2022-04-02T08:09:37Z</time>
      </trkpt>
      <trkpt lat="47.46454" lon="-1.77627">
        <ele>13.2</ele>
        <time>2022-04-02T08:09:38Z</time>
      </trkpt>
      <trkpt lat="47.4646" lon="-1.77621">
        <ele>13.4</ele>
        <time>2022-04-02T08:09:40Z</time>
      </trkpt>
      <trkpt lat="47.46461" lon="-1.77616">
        <ele>13.4</ele>
        <time>2022-04-02T08:09:41Z</time>
      </trkpt>
      <trkpt lat="47.46459" lon="-1.77602">
        <ele>13.4</ele>
        <time>2022-04-02T08:09:44Z</time>
      </trkpt>
      <trkpt lat="47.46459" lon="-1.77598">
        <ele>13.4</ele>
        <time>2022-04-02T08:09:45Z</time>
      </trkpt>
      <trkpt lat="47.46464" lon="-1.77578">
        <ele>13.6</ele>
        <time>2022-04-02T08:09:50Z</time>
      </trkpt>
      <trkpt lat="47.46479" lon="-1.77568">
        <ele>13.8</ele>
        <time>2022-04-02T08:09:55Z</time>
      </trkpt>
      <trkpt lat="47.46503" lon="-1.77556">
        <ele>13.8</ele>
        <time>2022-04-02T08:10:01Z</time>
      </trkpt>
      <trkpt lat="47.46526" lon="-1.77546">
        <ele>14</ele>
        <time>2022-04-02T08:10:06Z</time>
      </trkpt>
      <trkpt lat="47.46554" lon="-1.77531">
        <ele>14.2</ele>
        <time>2022-04-02T08:10:12Z</time>
      </trkpt>
      <trkpt lat="47.4658" lon="-1.77517">
        <ele>14.2</ele>
        <time>2022-04-02T08:10:17Z</time>
      </trkpt>
      <trkpt lat="47.46609" lon="-1.77502">
        <ele>14.2</ele>
        <time>2022-04-02T08:10:22Z</time>
      </trkpt>
      <trkpt lat="47.46645" lon="-1.77483">
        <ele>14.2</ele>
        <time>2022-04-02T08:10:28Z</time>
      </trkpt>
      <trkpt lat="47.4667" lon="-1.77469">
        <ele>14.2</ele>
        <time>2022-04-02T08:10:32Z</time>
      </trkpt>
      <trkpt lat="47.46714" lon="-1.77442">
        <ele>14</ele>
        <time>2022-04-02T08:10:39Z</time>
      </trkpt>
      <trkpt lat="47.46767" lon="-1.77404">
        <ele>14</ele>
        <time>2022-04-02T08:10:47Z</time>
      </trkpt>
      <trkpt lat="47.46811" lon="-1.7737">
        <ele>14.4</ele>
        <time>2022-04-02T08:10:54Z</time>
      </trkpt>
      <trkpt lat="47.46858" lon="-1.77326">
        <ele>14.4</ele>
        <time>2022-04-02T08:11:02Z</time>
      </trkpt>
      <trkpt lat="47.46894" lon="-1.77287">
        <ele>14.6</ele>
        <time>2022-04-02T08:11:09Z</time>
      </trkpt>
      <trkpt lat="47.46936" lon="-1.77239">
        <ele>14.6</ele>
        <time>2022-04-02T08:11:17Z</time>
      </trkpt>
      <trkpt lat="47.46957" lon="-1.77212">
        <ele>14.2</ele>
        <time>2022-04-02T08:11:21Z</time>
      </trkpt>
      <trkpt lat="47.46962" lon="-1.77206">
        <ele>14.2</ele>
        <time>2022-04-02T08:11:22Z</time>
      </trkpt>
      <trkpt lat="47.46996" lon="-1.77154">
        <ele>14</ele>
        <time>2022-04-02T08:11:29Z</time>
      </trkpt>
      <trkpt lat="47.47009" lon="-1.77132">
        <ele>13.8</ele>
        <time>2022-04-02T08:11:32Z</time>
      </trkpt>
      <trkpt lat="47.47014" lon="-1.77124">
        <ele>13.8</ele>
        <time>2022-04-02T08:11:33Z</time>
      </trkpt>
      <trkpt lat="47.47044" lon="-1.77075">
        <ele>13.6</ele>
        <time>2022-04-02T08:11:40Z</time>
      </trkpt>
      <trkpt lat="47.47057" lon="-1.77054">
        <ele>13.4</ele>
        <time>2022-04-02T08:11:43Z</time>
      </trkpt>
      <trkpt lat="47.47064" lon="-1.77039">
        <ele>13.4</ele>
        <time>2022-04-02T08:11:45Z</time>
      </trkpt>
      <trkpt lat="47.4707" lon="-1.77023">
        <ele>13.2</ele>
        <time>2022-04-02T08:11:47Z</time>
      </trkpt>
      <trkpt lat="47.47078" lon="-1.77007">
        <ele>13</ele>
        <time>2022-04-02T08:11:49Z</time>
      </trkpt>
      <trkpt lat="47.47097" lon="-1.76968">
        <ele>12.8</ele>
        <time>2022-04-02T08:11:54Z</time>
      </trkpt>
      <trkpt lat="47.471" lon="-1.7696">
        <ele>12.8</ele>
        <time>2022-04-02T08:11:55Z</time>
      </trkpt>
      <trkpt lat="47.47111" lon="-1.76938">
        <ele>12.8</ele>
        <time>2022-04-02T08:11:58Z</time>
      </trkpt>
      <trkpt lat="47.47117" lon="-1.76924">
        <ele>12.8</ele>
        <time>2022-04-02T08:12:00Z</time>
      </trkpt>
      <trkpt lat="47.47127" lon="-1.76902">
        <ele>12.8</ele>
        <time>2022-04-02T08:12:04Z</time>
      </trkpt>
      <trkpt lat="47.47132" lon="-1.76892">
        <ele>12.4</ele>
        <time>2022-04-02T08:12:08Z</time>
      </trkpt>
      <trkpt lat="47.47132" lon="-1.76891">
        <ele>12.4</ele>
        <time>2022-04-02T08:12:09Z</time>
      </trkpt>
      <trkpt lat="47.47128" lon="-1.76889">
        <ele>13.2</ele>
        <time>2022-04-02T08:12:15Z</time>
      </trkpt>
      <trkpt lat="47.47126" lon="-1.76885">
        <ele>12.8</ele>
        <time>2022-04-02T08:12:17Z</time>
      </trkpt>
      <trkpt lat="47.47125" lon="-1.76883">
        <ele>12.8</ele>
        <time>2022-04-02T08:12:18Z</time>
      </trkpt>
      <trkpt lat="47.47123" lon="-1.7688">
        <ele>12.4</ele>
        <time>2022-04-02T08:12:21Z</time>
      </trkpt>
      <trkpt lat="47.47115" lon="-1.76875">
        <ele>11.8</ele>
        <time>2022-04-02T08:12:24Z</time>
      </trkpt>
      <trkpt lat="47.47112" lon="-1.76875">
        <ele>11.6</ele>
        <time>2022-04-02T08:12:25Z</time>
      </trkpt>
      <trkpt lat="47.4711" lon="-1.7688">
        <ele>11.2</ele>
        <time>2022-04-02T08:12:27Z</time>
      </trkpt>
      <trkpt lat="47.4711" lon="-1.76886">
        <ele>11.2</ele>
        <time>2022-04-02T08:12:28Z</time>
      </trkpt>
      <trkpt lat="47.47113" lon="-1.76898">
        <ele>10.8</ele>
        <time>2022-04-02T08:12:30Z</time>
      </trkpt>
      <trkpt lat="47.47115" lon="-1.76904">
        <ele>10.6</ele>
        <time>2022-04-02T08:12:31Z</time>
      </trkpt>
      <trkpt lat="47.47124" lon="-1.76919">
        <ele>9.4</ele>
        <time>2022-04-02T08:12:35Z</time>
      </trkpt>
      <trkpt lat="47.47134" lon="-1.76934">
        <ele>9</ele>
        <time>2022-04-02T08:12:39Z</time>
      </trkpt>
      <trkpt lat="47.47137" lon="-1.76939">
        <ele>9</ele>
        <time>2022-04-02T08:12:40Z</time>
      </trkpt>
      <trkpt lat="47.4714" lon="-1.76944">
        <ele>9</ele>
        <time>2022-04-02T08:12:41Z</time>
      </trkpt>
      <trkpt lat="47.47149" lon="-1.7696">
        <ele>8.6</ele>
        <time>2022-04-02T08:12:44Z</time>
      </trkpt>
      <trkpt lat="47.47159" lon="-1.76977">
        <ele>8.6</ele>
        <time>2022-04-02T08:12:47Z</time>
      </trkpt>
      <trkpt lat="47.47166" lon="-1.7699">
        <ele>8.4</ele>
        <time>2022-04-02T08:12:49Z</time>
      </trkpt>
      <trkpt lat="47.47182" lon="-1.77026">
        <ele>8.2</ele>
        <time>2022-04-02T08:12:54Z</time>
      </trkpt>
      <trkpt lat="47.47189" lon="-1.77042">
        <ele>8.2</ele>
        <time>2022-04-02T08:12:56Z</time>
      </trkpt>
      <trkpt lat="47.47197" lon="-1.77057">
        <ele>8</ele>
        <time>2022-04-02T08:12:58Z</time>
      </trkpt>
      <trkpt lat="47.472" lon="-1.77066">
        <ele>8</ele>
        <time>2022-04-02T08:12:59Z</time>
      </trkpt>
      <trkpt lat="47.47204" lon="-1.77074">
        <ele>7.8</ele>
        <time>2022-04-02T08:13:00Z</time>
      </trkpt>
      <trkpt lat="47.47212" lon="-1.7709">
        <ele>7.8</ele>
        <time>2022-04-02T08:13:02Z</time>
      </trkpt>
      <trkpt lat="47.47233" lon="-1.77141">
        <ele>7.8</ele>
        <time>2022-04-02T08:13:08Z</time>
      </trkpt>
      <trkpt lat="47.47249" lon="-1.77181">
        <ele>8</ele>
        <time>2022-04-02T08:13:13Z</time>
      </trkpt>
      <trkpt lat="47.47253" lon="-1.77188">
        <ele>8</ele>
        <time>2022-04-02T08:13:14Z</time>
      </trkpt>
      <trkpt lat="47.47271" lon="-1.77231">
        <ele>8</ele>
        <time>2022-04-02T08:13:20Z</time>
      </trkpt>
      <trkpt lat="47.47284" lon="-1.77262">
        <ele>8.4</ele>
        <time>2022-04-02T08:13:24Z</time>
      </trkpt>
      <trkpt lat="47.4729" lon="-1.77277">
        <ele>8.2</ele>
        <time>2022-04-02T08:13:26Z</time>
      </trkpt>
      <trkpt lat="47.47304" lon="-1.77338">
        <ele>8.4</ele>
        <time>2022-04-02T08:13:33Z</time>
      </trkpt>
      <trkpt lat="47.47317" lon="-1.7741">
        <ele>8.2</ele>
        <time>2022-04-02T08:13:41Z</time>
      </trkpt>
      <trkpt lat="47.4733" lon="-1.77495">
        <ele>8.4</ele>
        <time>2022-04-02T08:13:50Z</time>
      </trkpt>
      <trkpt lat="47.47338" lon="-1.77569">
        <ele>8.6</ele>
        <time>2022-04-02T08:13:58Z</time>
      </trkpt>
      <trkpt lat="47.47339" lon="-1.77595">
        <ele>8.8</ele>
        <time>2022-04-02T08:14:01Z</time>
      </trkpt>
      <trkpt lat="47.47341" lon="-1.77603">
        <ele>8.8</ele>
        <time>2022-04-02T08:14:02Z</time>
      </trkpt>
      <trkpt lat="47.47342" lon="-1.7761">
        <ele>8.8</ele>
        <time>2022-04-02T08:14:03Z</time>
      </trkpt>
      <trkpt lat="47.47342" lon="-1.77628">
        <ele>8.6</ele>
        <time>2022-04-02T08:14:05Z</time>
      </trkpt>
      <trkpt lat="47.47341" lon="-1.77638">
        <ele>8.6</ele>
        <time>2022-04-02T08:14:06Z</time>
      </trkpt>
      <trkpt lat="47.47337" lon="-1.77659">
        <ele>8.8</ele>
        <time>2022-04-02T08:14:08Z</time>
      </trkpt>
      <trkpt lat="47.47329" lon="-1.77698">
        <ele>8.8</ele>
        <time>2022-04-02T08:14:12Z</time>
      </trkpt>
      <trkpt lat="47.47319" lon="-1.77744">
        <ele>8.8</ele>
        <time>2022-04-02T08:14:17Z</time>
      </trkpt>
      <trkpt lat="47.47313" lon="-1.77772">
        <ele>9</ele>
        <time>2022-04-02T08:14:20Z</time>
      </trkpt>
      <trkpt lat="47.47312" lon="-1.77779">
        <ele>9</ele>
        <time>2022-04-02T08:14:21Z</time>
      </trkpt>
      <trkpt lat="47.4731" lon="-1.77788">
        <ele>9</ele>
        <time>2022-04-02T08:14:22Z</time>
      </trkpt>
      <trkpt lat="47.47306" lon="-1.77806">
        <ele>9</ele>
        <time>2022-04-02T08:14:24Z</time>
      </trkpt>
      <trkpt lat="47.47298" lon="-1.77846">
        <ele>9</ele>
        <time>2022-04-02T08:14:28Z</time>
      </trkpt>
      <trkpt lat="47.47285" lon="-1.77903">
        <ele>9</ele>
        <time>2022-04-02T08:14:34Z</time>
      </trkpt>
      <trkpt lat="47.47275" lon="-1.77948">
        <ele>8.8</ele>
        <time>2022-04-02T08:14:39Z</time>
      </trkpt>
      <trkpt lat="47.47264" lon="-1.78003">
        <ele>8.8</ele>
        <time>2022-04-02T08:14:45Z</time>
      </trkpt>
      <trkpt lat="47.47263" lon="-1.78013">
        <ele>8.8</ele>
        <time>2022-04-02T08:14:46Z</time>
      </trkpt>
      <trkpt lat="47.47254" lon="-1.78051">
        <ele>8.8</ele>
        <time>2022-04-02T08:14:50Z</time>
      </trkpt>
      <trkpt lat="47.47243" lon="-1.78103">
        <ele>9</ele>
        <time>2022-04-02T08:14:56Z</time>
      </trkpt>
      <trkpt lat="47.47229" lon="-1.78161">
        <ele>9.4</ele>
        <time>2022-04-02T08:15:03Z</time>
      </trkpt>
      <trkpt lat="47.47219" lon="-1.78218">
        <ele>9.4</ele>
        <time>2022-04-02T08:15:09Z</time>
      </trkpt>
      <trkpt lat="47.47205" lon="-1.78294">
        <ele>9.6</ele>
        <time>2022-04-02T08:15:17Z</time>
      </trkpt>
      <trkpt lat="47.4719" lon="-1.78366">
        <ele>9.8</ele>
        <time>2022-04-02T08:15:25Z</time>
      </trkpt>
      <trkpt lat="47.47183" lon="-1.78402">
        <ele>9.8</ele>
        <time>2022-04-02T08:15:29Z</time>
      </trkpt>
      <trkpt lat="47.47167" lon="-1.78476">
        <ele>10</ele>
        <time>2022-04-02T08:15:37Z</time>
      </trkpt>
      <trkpt lat="47.47151" lon="-1.78552">
        <ele>9.8</ele>
        <time>2022-04-02T08:15:45Z</time>
      </trkpt>
      <trkpt lat="47.47134" lon="-1.78627">
        <ele>10</ele>
        <time>2022-04-02T08:15:53Z</time>
      </trkpt>
      <trkpt lat="47.47118" lon="-1.78702">
        <ele>10.2</ele>
        <time>2022-04-02T08:16:01Z</time>
      </trkpt>
      <trkpt lat="47.47102" lon="-1.78774">
        <ele>10.2</ele>
        <time>2022-04-02T08:16:09Z</time>
      </trkpt>
      <trkpt lat="47.47086" lon="-1.78849">
        <ele>10</ele>
        <time>2022-04-02T08:16:17Z</time>
      </trkpt>
      <trkpt lat="47.47069" lon="-1.78931">
        <ele>9.8</ele>
        <time>2022-04-02T08:16:26Z</time>
      </trkpt>
      <trkpt lat="47.47052" lon="-1.79014">
        <ele>9.6</ele>
        <time>2022-04-02T08:16:35Z</time>
      </trkpt>
      <trkpt lat="47.47044" lon="-1.7905">
        <ele>9.6</ele>
        <time>2022-04-02T08:16:39Z</time>
      </trkpt>
      <trkpt lat="47.4704" lon="-1.79068">
        <ele>9.6</ele>
        <time>2022-04-02T08:16:41Z</time>
      </trkpt>
      <trkpt lat="47.47024" lon="-1.79142">
        <ele>9.6</ele>
        <time>2022-04-02T08:16:49Z</time>
      </trkpt>
      <trkpt lat="47.4701" lon="-1.79204">
        <ele>9.6</ele>
        <time>2022-04-02T08:16:56Z</time>
      </trkpt>
      <trkpt lat="47.46996" lon="-1.79272">
        <ele>9.6</ele>
        <time>2022-04-02T08:17:04Z</time>
      </trkpt>
      <trkpt lat="47.46983" lon="-1.79341">
        <ele>9.4</ele>
        <time>2022-04-02T08:17:12Z</time>
      </trkpt>
      <trkpt lat="47.46972" lon="-1.7942">
        <ele>9.4</ele>
        <time>2022-04-02T08:17:21Z</time>
      </trkpt>
      <trkpt lat="47.46962" lon="-1.79506">
        <ele>9.2</ele>
        <time>2022-04-02T08:17:31Z</time>
      </trkpt>
      <trkpt lat="47.4696" lon="-1.79524">
        <ele>9.2</ele>
        <time>2022-04-02T08:17:33Z</time>
      </trkpt>
      <trkpt lat="47.46951" lon="-1.7961">
        <ele>9</ele>
        <time>2022-04-02T08:17:43Z</time>
      </trkpt>
      <trkpt lat="47.46951" lon="-1.79619">
        <ele>9</ele>
        <time>2022-04-02T08:17:44Z</time>
      </trkpt>
      <trkpt lat="47.46947" lon="-1.79662">
        <ele>8.8</ele>
        <time>2022-04-02T08:17:49Z</time>
      </trkpt>
      <trkpt lat="47.46941" lon="-1.79704">
        <ele>8.6</ele>
        <time>2022-04-02T08:17:54Z</time>
      </trkpt>
      <trkpt lat="47.4693" lon="-1.79771">
        <ele>8.6</ele>
        <time>2022-04-02T08:18:02Z</time>
      </trkpt>
      <trkpt lat="47.46922" lon="-1.79846">
        <ele>9</ele>
        <time>2022-04-02T08:18:11Z</time>
      </trkpt>
      <trkpt lat="47.46912" lon="-1.79929">
        <ele>8.6</ele>
        <time>2022-04-02T08:18:21Z</time>
      </trkpt>
      <trkpt lat="47.46911" lon="-1.79937">
        <ele>8.6</ele>
        <time>2022-04-02T08:18:22Z</time>
      </trkpt>
      <trkpt lat="47.46903" lon="-1.80005">
        <ele>8.6</ele>
        <time>2022-04-02T08:18:30Z</time>
      </trkpt>
      <trkpt lat="47.46894" lon="-1.80087">
        <ele>8.8</ele>
        <time>2022-04-02T08:18:40Z</time>
      </trkpt>
      <trkpt lat="47.46884" lon="-1.80171">
        <ele>8.4</ele>
        <time>2022-04-02T08:18:50Z</time>
      </trkpt>
      <trkpt lat="47.46883" lon="-1.80179">
        <ele>8.6</ele>
        <time>2022-04-02T08:18:51Z</time>
      </trkpt>
      <trkpt lat="47.46873" lon="-1.80261">
        <ele>8.4</ele>
        <time>2022-04-02T08:19:01Z</time>
      </trkpt>
      <trkpt lat="47.46872" lon="-1.80278">
        <ele>8.4</ele>
        <time>2022-04-02T08:19:03Z</time>
      </trkpt>
      <trkpt lat="47.46863" lon="-1.80358">
        <ele>8.4</ele>
        <time>2022-04-02T08:19:13Z</time>
      </trkpt>
      <trkpt lat="47.46861" lon="-1.80374">
        <ele>8.4</ele>
        <time>2022-04-02T08:19:15Z</time>
      </trkpt>
      <trkpt lat="47.46851" lon="-1.80453">
        <ele>8.4</ele>
        <time>2022-04-02T08:19:25Z</time>
      </trkpt>
      <trkpt lat="47.46849" lon="-1.80469">
        <ele>8.4</ele>
        <time>2022-04-02T08:19:27Z</time>
      </trkpt>
      <trkpt lat="47.4684" lon="-1.80548">
        <ele>8.4</ele>
        <time>2022-04-02T08:19:37Z</time>
      </trkpt>
      <trkpt lat="47.46831" lon="-1.80628">
        <ele>8.6</ele>
        <time>2022-04-02T08:19:47Z</time>
      </trkpt>
      <trkpt lat="47.46827" lon="-1.80694">
        <ele>8.4</ele>
        <time>2022-04-02T08:19:55Z</time>
      </trkpt>
      <trkpt lat="47.46827" lon="-1.8075">
        <ele>8.4</ele>
        <time>2022-04-02T08:20:02Z</time>
      </trkpt>
      <trkpt lat="47.46837" lon="-1.80823">
        <ele>8.2</ele>
        <time>2022-04-02T08:20:11Z</time>
      </trkpt>
      <trkpt lat="47.46851" lon="-1.80875">
        <ele>8.2</ele>
        <time>2022-04-02T08:20:18Z</time>
      </trkpt>
      <trkpt lat="47.46862" lon="-1.80903">
        <ele>8</ele>
        <time>2022-04-02T08:20:22Z</time>
      </trkpt>
      <trkpt lat="47.46865" lon="-1.8091">
        <ele>8</ele>
        <time>2022-04-02T08:20:23Z</time>
      </trkpt>
      <trkpt lat="47.46872" lon="-1.80923">
        <ele>8</ele>
        <time>2022-04-02T08:20:25Z</time>
      </trkpt>
      <trkpt lat="47.46875" lon="-1.80929">
        <ele>8</ele>
        <time>2022-04-02T08:20:26Z</time>
      </trkpt>
      <trkpt lat="47.46887" lon="-1.80957">
        <ele>8</ele>
        <time>2022-04-02T08:20:30Z</time>
      </trkpt>
      <trkpt lat="47.46894" lon="-1.80969">
        <ele>8</ele>
        <time>2022-04-02T08:20:32Z</time>
      </trkpt>
      <trkpt lat="47.46901" lon="-1.80982">
        <ele>8</ele>
        <time>2022-04-02T08:20:34Z</time>
      </trkpt>
      <trkpt lat="47.46911" lon="-1.80999">
        <ele>8</ele>
        <time>2022-04-02T08:20:37Z</time>
      </trkpt>
      <trkpt lat="47.46916" lon="-1.81004">
        <ele>8</ele>
        <time>2022-04-02T08:20:38Z</time>
      </trkpt>
      <trkpt lat="47.46924" lon="-1.81014">
        <ele>8</ele>
        <time>2022-04-02T08:20:40Z</time>
      </trkpt>
      <trkpt lat="47.46932" lon="-1.81026">
        <ele>7.8</ele>
        <time>2022-04-02T08:20:42Z</time>
      </trkpt>
      <trkpt lat="47.46944" lon="-1.81044">
        <ele>7.6</ele>
        <time>2022-04-02T08:20:45Z</time>
      </trkpt>
      <trkpt lat="47.46951" lon="-1.81056">
        <ele>7.4</ele>
        <time>2022-04-02T08:20:47Z</time>
      </trkpt>
      <trkpt lat="47.4696" lon="-1.81066">
        <ele>7.2</ele>
        <time>2022-04-02T08:20:49Z</time>
      </trkpt>
      <trkpt lat="47.46963" lon="-1.81073">
        <ele>7.2</ele>
        <time>2022-04-02T08:20:50Z</time>
      </trkpt>
      <trkpt lat="47.46976" lon="-1.8109">
        <ele>7</ele>
        <time>2022-04-02T08:20:53Z</time>
      </trkpt>
      <trkpt lat="47.46979" lon="-1.81098">
        <ele>6.8</ele>
        <time>2022-04-02T08:20:54Z</time>
      </trkpt>
      <trkpt lat="47.46997" lon="-1.81141">
        <ele>6.2</ele>
        <time>2022-04-02T08:21:00Z</time>
      </trkpt>
      <trkpt lat="47.46999" lon="-1.81149">
        <ele>6</ele>
        <time>2022-04-02T08:21:01Z</time>
      </trkpt>
      <trkpt lat="47.47003" lon="-1.81163">
        <ele>5.6</ele>
        <time>2022-04-02T08:21:03Z</time>
      </trkpt>
      <trkpt lat="47.47005" lon="-1.81171">
        <ele>5.6</ele>
        <time>2022-04-02T08:21:04Z</time>
      </trkpt>
      <trkpt lat="47.47007" lon="-1.8118">
        <ele>5.6</ele>
        <time>2022-04-02T08:21:05Z</time>
      </trkpt>
      <trkpt lat="47.47016" lon="-1.8122">
        <ele>4.8</ele>
        <time>2022-04-02T08:21:10Z</time>
      </trkpt>
      <trkpt lat="47.47018" lon="-1.81236">
        <ele>4.8</ele>
        <time>2022-04-02T08:21:12Z</time>
      </trkpt>
      <trkpt lat="47.47022" lon="-1.8125">
        <ele>4.4</ele>
        <time>2022-04-02T08:21:14Z</time>
      </trkpt>
      <trkpt lat="47.47024" lon="-1.81285">
        <ele>4.2</ele>
        <time>2022-04-02T08:21:18Z</time>
      </trkpt>
      <trkpt lat="47.47026" lon="-1.81319">
        <ele>4.4</ele>
        <time>2022-04-02T08:21:22Z</time>
      </trkpt>
      <trkpt lat="47.47028" lon="-1.81325">
        <ele>4.2</ele>
        <time>2022-04-02T08:21:23Z</time>
      </trkpt>
      <trkpt lat="47.47031" lon="-1.81332">
        <ele>4.2</ele>
        <time>2022-04-02T08:21:24Z</time>
      </trkpt>
      <trkpt lat="47.4703" lon="-1.8135">
        <ele>4.2</ele>
        <time>2022-04-02T08:21:26Z</time>
      </trkpt>
      <trkpt lat="47.47029" lon="-1.81359">
        <ele>4.2</ele>
        <time>2022-04-02T08:21:27Z</time>
      </trkpt>
      <trkpt lat="47.47029" lon="-1.81368">
        <ele>4</ele>
        <time>2022-04-02T08:21:28Z</time>
      </trkpt>
      <trkpt lat="47.47029" lon="-1.81391">
        <ele>4</ele>
        <time>2022-04-02T08:21:31Z</time>
      </trkpt>
      <trkpt lat="47.4703" lon="-1.81407">
        <ele>4</ele>
        <time>2022-04-02T08:21:33Z</time>
      </trkpt>
      <trkpt lat="47.47029" lon="-1.81415">
        <ele>4</ele>
        <time>2022-04-02T08:21:34Z</time>
      </trkpt>
      <trkpt lat="47.4703" lon="-1.81431">
        <ele>4</ele>
        <time>2022-04-02T08:21:36Z</time>
      </trkpt>
      <trkpt lat="47.47031" lon="-1.81445">
        <ele>4.2</ele>
        <time>2022-04-02T08:21:38Z</time>
      </trkpt>
      <trkpt lat="47.4703" lon="-1.81479">
        <ele>4.2</ele>
        <time>2022-04-02T08:21:42Z</time>
      </trkpt>
      <trkpt lat="47.47032" lon="-1.81502">
        <ele>4.4</ele>
        <time>2022-04-02T08:21:45Z</time>
      </trkpt>
      <trkpt lat="47.47031" lon="-1.81528">
        <ele>4.2</ele>
        <time>2022-04-02T08:21:48Z</time>
      </trkpt>
      <trkpt lat="47.47031" lon="-1.81536">
        <ele>4.4</ele>
        <time>2022-04-02T08:21:49Z</time>
      </trkpt>
      <trkpt lat="47.47031" lon="-1.81543">
        <ele>4.4</ele>
        <time>2022-04-02T08:21:50Z</time>
      </trkpt>
      <trkpt lat="47.4703" lon="-1.81568">
        <ele>4.4</ele>
        <time>2022-04-02T08:21:53Z</time>
      </trkpt>
      <trkpt lat="47.4703" lon="-1.81577">
        <ele>4.4</ele>
        <time>2022-04-02T08:21:54Z</time>
      </trkpt>
      <trkpt lat="47.47027" lon="-1.81603">
        <ele>4.4</ele>
        <time>2022-04-02T08:21:57Z</time>
      </trkpt>
      <trkpt lat="47.47027" lon="-1.81611">
        <ele>4.4</ele>
        <time>2022-04-02T08:21:58Z</time>
      </trkpt>
      <trkpt lat="47.47024" lon="-1.81635">
        <ele>4.4</ele>
        <time>2022-04-02T08:22:01Z</time>
      </trkpt>
      <trkpt lat="47.47013" lon="-1.81683">
        <ele>4.6</ele>
        <time>2022-04-02T08:22:07Z</time>
      </trkpt>
      <trkpt lat="47.46992" lon="-1.81752">
        <ele>4.8</ele>
        <time>2022-04-02T08:22:16Z</time>
      </trkpt>
      <trkpt lat="47.46977" lon="-1.81821">
        <ele>5</ele>
        <time>2022-04-02T08:22:25Z</time>
      </trkpt>
      <trkpt lat="47.46974" lon="-1.81852">
        <ele>5</ele>
        <time>2022-04-02T08:22:29Z</time>
      </trkpt>
      <trkpt lat="47.46973" lon="-1.81868">
        <ele>5</ele>
        <time>2022-04-02T08:22:31Z</time>
      </trkpt>
      <trkpt lat="47.46973" lon="-1.81892">
        <ele>5.2</ele>
        <time>2022-04-02T08:22:34Z</time>
      </trkpt>
      <trkpt lat="47.46975" lon="-1.81923">
        <ele>5.2</ele>
        <time>2022-04-02T08:22:38Z</time>
      </trkpt>
      <trkpt lat="47.46977" lon="-1.81964">
        <ele>5.2</ele>
        <time>2022-04-02T08:22:43Z</time>
      </trkpt>
      <trkpt lat="47.46978" lon="-1.81972">
        <ele>5.2</ele>
        <time>2022-04-02T08:22:44Z</time>
      </trkpt>
      <trkpt lat="47.46982" lon="-1.82012">
        <ele>5</ele>
        <time>2022-04-02T08:22:49Z</time>
      </trkpt>
      <trkpt lat="47.46984" lon="-1.8202">
        <ele>5</ele>
        <time>2022-04-02T08:22:50Z</time>
      </trkpt>
      <trkpt lat="47.46995" lon="-1.82075">
        <ele>5</ele>
        <time>2022-04-02T08:22:57Z</time>
      </trkpt>
      <trkpt lat="47.46997" lon="-1.82082">
        <ele>5</ele>
        <time>2022-04-02T08:22:58Z</time>
      </trkpt>
      <trkpt lat="47.47012" lon="-1.82133">
        <ele>4.8</ele>
        <time>2022-04-02T08:23:05Z</time>
      </trkpt>
      <trkpt lat="47.4703" lon="-1.8218">
        <ele>4.8</ele>
        <time>2022-04-02T08:23:12Z</time>
      </trkpt>
      <trkpt lat="47.4705" lon="-1.82225">
        <ele>5</ele>
        <time>2022-04-02T08:23:19Z</time>
      </trkpt>
      <trkpt lat="47.47078" lon="-1.82283">
        <ele>4.8</ele>
        <time>2022-04-02T08:23:28Z</time>
      </trkpt>
      <trkpt lat="47.47098" lon="-1.82323">
        <ele>4.8</ele>
        <time>2022-04-02T08:23:34Z</time>
      </trkpt>
      <trkpt lat="47.47102" lon="-1.8233">
        <ele>4.8</ele>
        <time>2022-04-02T08:23:35Z</time>
      </trkpt>
      <trkpt lat="47.47105" lon="-1.82337">
        <ele>4.8</ele>
        <time>2022-04-02T08:23:36Z</time>
      </trkpt>
      <trkpt lat="47.47116" lon="-1.82367">
        <ele>4.6</ele>
        <time>2022-04-02T08:23:40Z</time>
      </trkpt>
      <trkpt lat="47.4713" lon="-1.82423">
        <ele>4.4</ele>
        <time>2022-04-02T08:23:47Z</time>
      </trkpt>
      <trkpt lat="47.47135" lon="-1.82446">
        <ele>4.2</ele>
        <time>2022-04-02T08:23:50Z</time>
      </trkpt>
      <trkpt lat="47.47139" lon="-1.82469">
        <ele>4.2</ele>
        <time>2022-04-02T08:23:53Z</time>
      </trkpt>
      <trkpt lat="47.47143" lon="-1.82493">
        <ele>4</ele>
        <time>2022-04-02T08:23:56Z</time>
      </trkpt>
      <trkpt lat="47.47149" lon="-1.82517">
        <ele>3.8</ele>
        <time>2022-04-02T08:23:59Z</time>
      </trkpt>
      <trkpt lat="47.47152" lon="-1.82524">
        <ele>3.8</ele>
        <time>2022-04-02T08:24:00Z</time>
      </trkpt>
      <trkpt lat="47.47158" lon="-1.82549">
        <ele>3.6</ele>
        <time>2022-04-02T08:24:03Z</time>
      </trkpt>
      <trkpt lat="47.47162" lon="-1.82564">
        <ele>3.6</ele>
        <time>2022-04-02T08:24:05Z</time>
      </trkpt>
      <trkpt lat="47.47171" lon="-1.82597">
        <ele>3.6</ele>
        <time>2022-04-02T08:24:09Z</time>
      </trkpt>
      <trkpt lat="47.47177" lon="-1.82613">
        <ele>3.4</ele>
        <time>2022-04-02T08:24:11Z</time>
      </trkpt>
      <trkpt lat="47.47186" lon="-1.82635">
        <ele>3.2</ele>
        <time>2022-04-02T08:24:14Z</time>
      </trkpt>
      <trkpt lat="47.47189" lon="-1.82642">
        <ele>3.2</ele>
        <time>2022-04-02T08:24:15Z</time>
      </trkpt>
      <trkpt lat="47.47198" lon="-1.82662">
        <ele>3</ele>
        <time>2022-04-02T08:24:18Z</time>
      </trkpt>
      <trkpt lat="47.47206" lon="-1.82684">
        <ele>3</ele>
        <time>2022-04-02T08:24:21Z</time>
      </trkpt>
      <trkpt lat="47.47215" lon="-1.82705">
        <ele>2.8</ele>
        <time>2022-04-02T08:24:24Z</time>
      </trkpt>
      <trkpt lat="47.47221" lon="-1.82719">
        <ele>2.8</ele>
        <time>2022-04-02T08:24:26Z</time>
      </trkpt>
      <trkpt lat="47.47225" lon="-1.82726">
        <ele>2.8</ele>
        <time>2022-04-02T08:24:27Z</time>
      </trkpt>
      <trkpt lat="47.47232" lon="-1.8274">
        <ele>2.6</ele>
        <time>2022-04-02T08:24:29Z</time>
      </trkpt>
      <trkpt lat="47.47238" lon="-1.82754">
        <ele>2.4</ele>
        <time>2022-04-02T08:24:31Z</time>
      </trkpt>
      <trkpt lat="47.47245" lon="-1.82767">
        <ele>2.4</ele>
        <time>2022-04-02T08:24:33Z</time>
      </trkpt>
      <trkpt lat="47.47254" lon="-1.82789">
        <ele>2.2</ele>
        <time>2022-04-02T08:24:36Z</time>
      </trkpt>
      <trkpt lat="47.47258" lon="-1.82797">
        <ele>2.2</ele>
        <time>2022-04-02T08:24:37Z</time>
      </trkpt>
      <trkpt lat="47.4727" lon="-1.82827">
        <ele>2.2</ele>
        <time>2022-04-02T08:24:41Z</time>
      </trkpt>
      <trkpt lat="47.47293" lon="-1.82871">
        <ele>2.2</ele>
        <time>2022-04-02T08:24:48Z</time>
      </trkpt>
      <trkpt lat="47.47301" lon="-1.82883">
        <ele>2.6</ele>
        <time>2022-04-02T08:24:50Z</time>
      </trkpt>
      <trkpt lat="47.47313" lon="-1.82899">
        <ele>2.8</ele>
        <time>2022-04-02T08:24:53Z</time>
      </trkpt>
      <trkpt lat="47.47326" lon="-1.82915">
        <ele>2.4</ele>
        <time>2022-04-02T08:24:56Z</time>
      </trkpt>
      <trkpt lat="47.4733" lon="-1.82921">
        <ele>2.4</ele>
        <time>2022-04-02T08:24:57Z</time>
      </trkpt>
      <trkpt lat="47.47346" lon="-1.82941">
        <ele>2.2</ele>
        <time>2022-04-02T08:25:01Z</time>
      </trkpt>
      <trkpt lat="47.47355" lon="-1.82949">
        <ele>2.6</ele>
        <time>2022-04-02T08:25:03Z</time>
      </trkpt>
      <trkpt lat="47.47373" lon="-1.82969">
        <ele>2.8</ele>
        <time>2022-04-02T08:25:07Z</time>
      </trkpt>
      <trkpt lat="47.47383" lon="-1.82977">
        <ele>2.6</ele>
        <time>2022-04-02T08:25:09Z</time>
      </trkpt>
      <trkpt lat="47.47404" lon="-1.83003">
        <ele>2</ele>
        <time>2022-04-02T08:25:14Z</time>
      </trkpt>
      <trkpt lat="47.47416" lon="-1.83019">
        <ele>2.2</ele>
        <time>2022-04-02T08:25:17Z</time>
      </trkpt>
      <trkpt lat="47.47423" lon="-1.83032">
        <ele>2.2</ele>
        <time>2022-04-02T08:25:19Z</time>
      </trkpt>
      <trkpt lat="47.47432" lon="-1.83051">
        <ele>2.2</ele>
        <time>2022-04-02T08:25:22Z</time>
      </trkpt>
      <trkpt lat="47.47435" lon="-1.83057">
        <ele>2.2</ele>
        <time>2022-04-02T08:25:23Z</time>
      </trkpt>
      <trkpt lat="47.47441" lon="-1.83071">
        <ele>2.2</ele>
        <time>2022-04-02T08:25:25Z</time>
      </trkpt>
      <trkpt lat="47.47449" lon="-1.83092">
        <ele>2.2</ele>
        <time>2022-04-02T08:25:28Z</time>
      </trkpt>
      <trkpt lat="47.47454" lon="-1.83106">
        <ele>2</ele>
        <time>2022-04-02T08:25:30Z</time>
      </trkpt>
      <trkpt lat="47.47459" lon="-1.83122">
        <ele>1.8</ele>
        <time>2022-04-02T08:25:32Z</time>
      </trkpt>
      <trkpt lat="47.4748" lon="-1.83185">
        <ele>1.8</ele>
        <time>2022-04-02T08:25:40Z</time>
      </trkpt>
      <trkpt lat="47.47483" lon="-1.83193">
        <ele>2</ele>
        <time>2022-04-02T08:25:41Z</time>
      </trkpt>
      <trkpt lat="47.47489" lon="-1.83206">
        <ele>2</ele>
        <time>2022-04-02T08:25:43Z</time>
      </trkpt>
      <trkpt lat="47.47492" lon="-1.83214">
        <ele>2</ele>
        <time>2022-04-02T08:25:44Z</time>
      </trkpt>
      <trkpt lat="47.47494" lon="-1.83221">
        <ele>2</ele>
        <time>2022-04-02T08:25:45Z</time>
      </trkpt>
      <trkpt lat="47.47503" lon="-1.83251">
        <ele>1.8</ele>
        <time>2022-04-02T08:25:49Z</time>
      </trkpt>
      <trkpt lat="47.47509" lon="-1.83264">
        <ele>1.8</ele>
        <time>2022-04-02T08:25:51Z</time>
      </trkpt>
      <trkpt lat="47.47512" lon="-1.83272">
        <ele>1.8</ele>
        <time>2022-04-02T08:25:52Z</time>
      </trkpt>
      <trkpt lat="47.47515" lon="-1.83287">
        <ele>1.6</ele>
        <time>2022-04-02T08:25:54Z</time>
      </trkpt>
      <trkpt lat="47.4752" lon="-1.83302">
        <ele>1.6</ele>
        <time>2022-04-02T08:25:56Z</time>
      </trkpt>
      <trkpt lat="47.47522" lon="-1.83309">
        <ele>1.6</ele>
        <time>2022-04-02T08:25:57Z</time>
      </trkpt>
      <trkpt lat="47.47524" lon="-1.83324">
        <ele>1.6</ele>
        <time>2022-04-02T08:25:59Z</time>
      </trkpt>
      <trkpt lat="47.47527" lon="-1.8334">
        <ele>1.6</ele>
        <time>2022-04-02T08:26:01Z</time>
      </trkpt>
      <trkpt lat="47.47532" lon="-1.83398">
        <ele>1.8</ele>
        <time>2022-04-02T08:26:08Z</time>
      </trkpt>
      <trkpt lat="47.47535" lon="-1.83421">
        <ele>2</ele>
        <time>2022-04-02T08:26:11Z</time>
      </trkpt>
      <trkpt lat="47.47537" lon="-1.83438">
        <ele>2</ele>
        <time>2022-04-02T08:26:13Z</time>
      </trkpt>
      <trkpt lat="47.47543" lon="-1.83513">
        <ele>2.2</ele>
        <time>2022-04-02T08:26:22Z</time>
      </trkpt>
      <trkpt lat="47.47546" lon="-1.83578">
        <ele>2.6</ele>
        <time>2022-04-02T08:26:30Z</time>
      </trkpt>
      <trkpt lat="47.47547" lon="-1.83648">
        <ele>2.8</ele>
        <time>2022-04-02T08:26:39Z</time>
      </trkpt>
      <trkpt lat="47.47537" lon="-1.83701">
        <ele>3</ele>
        <time>2022-04-02T08:26:46Z</time>
      </trkpt>
      <trkpt lat="47.47521" lon="-1.83769">
        <ele>3</ele>
        <time>2022-04-02T08:26:55Z</time>
      </trkpt>
      <trkpt lat="47.47505" lon="-1.83826">
        <ele>3.2</ele>
        <time>2022-04-02T08:27:03Z</time>
      </trkpt>
      <trkpt lat="47.47492" lon="-1.83876">
        <ele>3.2</ele>
        <time>2022-04-02T08:27:10Z</time>
      </trkpt>
      <trkpt lat="47.4748" lon="-1.83919">
        <ele>3.2</ele>
        <time>2022-04-02T08:27:16Z</time>
      </trkpt>
      <trkpt lat="47.47467" lon="-1.83972">
        <ele>3.4</ele>
        <time>2022-04-02T08:27:24Z</time>
      </trkpt>
      <trkpt lat="47.47466" lon="-1.83981">
        <ele>3.6</ele>
        <time>2022-04-02T08:27:26Z</time>
      </trkpt>
      <trkpt lat="47.47468" lon="-1.83984">
        <ele>3.6</ele>
        <time>2022-04-02T08:27:27Z</time>
      </trkpt>
      <trkpt lat="47.47487" lon="-1.83992">
        <ele>3.8</ele>
        <time>2022-04-02T08:27:32Z</time>
      </trkpt>
      <trkpt lat="47.47512" lon="-1.84002">
        <ele>4.2</ele>
        <time>2022-04-02T08:27:38Z</time>
      </trkpt>
      <trkpt lat="47.4754" lon="-1.83998">
        <ele>4.6</ele>
        <time>2022-04-02T08:27:45Z</time>
      </trkpt>
      <trkpt lat="47.47567" lon="-1.83991">
        <ele>5.4</ele>
        <time>2022-04-02T08:27:52Z</time>
      </trkpt>
      <trkpt lat="47.47594" lon="-1.83986">
        <ele>6.2</ele>
        <time>2022-04-02T08:27:59Z</time>
      </trkpt>
      <trkpt lat="47.47624" lon="-1.83978">
        <ele>7</ele>
        <time>2022-04-02T08:28:07Z</time>
      </trkpt>
      <trkpt lat="47.47662" lon="-1.8397">
        <ele>8.4</ele>
        <time>2022-04-02T08:28:17Z</time>
      </trkpt>
      <trkpt lat="47.47691" lon="-1.83965">
        <ele>9.4</ele>
        <time>2022-04-02T08:28:25Z</time>
      </trkpt>
      <trkpt lat="47.47718" lon="-1.83964">
        <ele>10.6</ele>
        <time>2022-04-02T08:28:33Z</time>
      </trkpt>
      <trkpt lat="47.47737" lon="-1.83964">
        <ele>11.4</ele>
        <time>2022-04-02T08:28:39Z</time>
      </trkpt>
      <trkpt lat="47.47765" lon="-1.83965">
        <ele>12.6</ele>
        <time>2022-04-02T08:28:48Z</time>
      </trkpt>
      <trkpt lat="47.47789" lon="-1.8397">
        <ele>13.6</ele>
        <time>2022-04-02T08:28:56Z</time>
      </trkpt>
      <trkpt lat="47.47814" lon="-1.83982">
        <ele>15</ele>
        <time>2022-04-02T08:29:04Z</time>
      </trkpt>
      <trkpt lat="47.47831" lon="-1.83994">
        <ele>15.8</ele>
        <time>2022-04-02T08:29:10Z</time>
      </trkpt>
      <trkpt lat="47.47842" lon="-1.84003">
        <ele>16.2</ele>
        <time>2022-04-02T08:29:14Z</time>
      </trkpt>
      <trkpt lat="47.47853" lon="-1.84018">
        <ele>16.8</ele>
        <time>2022-04-02T08:29:19Z</time>
      </trkpt>
      <trkpt lat="47.47868" lon="-1.84039">
        <ele>17.4</ele>
        <time>2022-04-02T08:29:26Z</time>
      </trkpt>
      <trkpt lat="47.47882" lon="-1.84062">
        <ele>18.2</ele>
        <time>2022-04-02T08:29:33Z</time>
      </trkpt>
      <trkpt lat="47.4789" lon="-1.84078">
        <ele>18.6</ele>
        <time>2022-04-02T08:29:38Z</time>
      </trkpt>
      <trkpt lat="47.47899" lon="-1.84092">
        <ele>18.8</ele>
        <time>2022-04-02T08:29:43Z</time>
      </trkpt>
      <trkpt lat="47.47916" lon="-1.84119">
        <ele>19.2</ele>
        <time>2022-04-02T08:29:51Z</time>
      </trkpt>
      <trkpt lat="47.47931" lon="-1.84145">
        <ele>19.6</ele>
        <time>2022-04-02T08:29:58Z</time>
      </trkpt>
      <trkpt lat="47.47937" lon="-1.84155">
        <ele>19.6</ele>
        <time>2022-04-02T08:30:01Z</time>
      </trkpt>
      <trkpt lat="47.47939" lon="-1.8416">
        <ele>19.6</ele>
        <time>2022-04-02T08:30:02Z</time>
      </trkpt>
      <trkpt lat="47.47954" lon="-1.8418">
        <ele>19.8</ele>
        <time>2022-04-02T08:30:07Z</time>
      </trkpt>
      <trkpt lat="47.47975" lon="-1.84211">
        <ele>20</ele>
        <time>2022-04-02T08:30:14Z</time>
      </trkpt>
      <trkpt lat="47.47996" lon="-1.84246">
        <ele>20.4</ele>
        <time>2022-04-02T08:30:21Z</time>
      </trkpt>
      <trkpt lat="47.48003" lon="-1.84256">
        <ele>20.4</ele>
        <time>2022-04-02T08:30:23Z</time>
      </trkpt>
      <trkpt lat="47.48014" lon="-1.84272">
        <ele>20.6</ele>
        <time>2022-04-02T08:30:26Z</time>
      </trkpt>
      <trkpt lat="47.48043" lon="-1.84303">
        <ele>21</ele>
        <time>2022-04-02T08:30:32Z</time>
      </trkpt>
      <trkpt lat="47.48084" lon="-1.84343">
        <ele>21.2</ele>
        <time>2022-04-02T08:30:39Z</time>
      </trkpt>
      <trkpt lat="47.48133" lon="-1.84392">
        <ele>21.2</ele>
        <time>2022-04-02T08:30:47Z</time>
      </trkpt>
      <trkpt lat="47.48156" lon="-1.84423">
        <ele>21.4</ele>
        <time>2022-04-02T08:30:52Z</time>
      </trkpt>
      <trkpt lat="47.48161" lon="-1.84428">
        <ele>21.6</ele>
        <time>2022-04-02T08:30:53Z</time>
      </trkpt>
      <trkpt lat="47.48189" lon="-1.84466">
        <ele>22.2</ele>
        <time>2022-04-02T08:31:01Z</time>
      </trkpt>
      <trkpt lat="47.48192" lon="-1.84471">
        <ele>22.2</ele>
        <time>2022-04-02T08:31:02Z</time>
      </trkpt>
      <trkpt lat="47.4821" lon="-1.84495">
        <ele>22.8</ele>
        <time>2022-04-02T08:31:08Z</time>
      </trkpt>
      <trkpt lat="47.48233" lon="-1.84526">
        <ele>23.4</ele>
        <time>2022-04-02T08:31:16Z</time>
      </trkpt>
      <trkpt lat="47.48256" lon="-1.84556">
        <ele>24.4</ele>
        <time>2022-04-02T08:31:24Z</time>
      </trkpt>
      <trkpt lat="47.4829" lon="-1.84604">
        <ele>25.6</ele>
        <time>2022-04-02T08:31:36Z</time>
      </trkpt>
      <trkpt lat="47.48312" lon="-1.84635">
        <ele>26.2</ele>
        <time>2022-04-02T08:31:43Z</time>
      </trkpt>
      <trkpt lat="47.48341" lon="-1.84673">
        <ele>26.8</ele>
        <time>2022-04-02T08:31:52Z</time>
      </trkpt>
      <trkpt lat="47.48353" lon="-1.84687">
        <ele>27.2</ele>
        <time>2022-04-02T08:31:57Z</time>
      </trkpt>
      <trkpt lat="47.48358" lon="-1.84694">
        <ele>27.6</ele>
        <time>2022-04-02T08:32:02Z</time>
      </trkpt>
      <trkpt lat="47.4836" lon="-1.847">
        <ele>34.4</ele>
        <time>2022-04-02T08:38:15Z</time>
      </trkpt>
      <trkpt lat="47.48364" lon="-1.84707">
        <ele>34.4</ele>
        <time>2022-04-02T08:38:17Z</time>
      </trkpt>
      <trkpt lat="47.48384" lon="-1.8473">
        <ele>34.2</ele>
        <time>2022-04-02T08:38:23Z</time>
      </trkpt>
      <trkpt lat="47.48416" lon="-1.8475">
        <ele>33.6</ele>
        <time>2022-04-02T08:38:31Z</time>
      </trkpt>
      <trkpt lat="47.4842" lon="-1.84752">
        <ele>33.6</ele>
        <time>2022-04-02T08:38:32Z</time>
      </trkpt>
      <trkpt lat="47.48429" lon="-1.84756">
        <ele>33.6</ele>
        <time>2022-04-02T08:38:34Z</time>
      </trkpt>
      <trkpt lat="47.48438" lon="-1.84761">
        <ele>33.4</ele>
        <time>2022-04-02T08:38:36Z</time>
      </trkpt>
      <trkpt lat="47.48474" lon="-1.84784">
        <ele>32.8</ele>
        <time>2022-04-02T08:38:43Z</time>
      </trkpt>
      <trkpt lat="47.4849" lon="-1.84794">
        <ele>32.4</ele>
        <time>2022-04-02T08:38:46Z</time>
      </trkpt>
      <trkpt lat="47.48501" lon="-1.848">
        <ele>32.2</ele>
        <time>2022-04-02T08:38:48Z</time>
      </trkpt>
      <trkpt lat="47.48506" lon="-1.84803">
        <ele>32</ele>
        <time>2022-04-02T08:38:49Z</time>
      </trkpt>
      <trkpt lat="47.48543" lon="-1.84818">
        <ele>31.2</ele>
        <time>2022-04-02T08:38:55Z</time>
      </trkpt>
      <trkpt lat="47.48556" lon="-1.84818">
        <ele>30.8</ele>
        <time>2022-04-02T08:38:58Z</time>
      </trkpt>
      <trkpt lat="47.48563" lon="-1.84818">
        <ele>30.4</ele>
        <time>2022-04-02T08:39:01Z</time>
      </trkpt>
      <trkpt lat="47.48566" lon="-1.84821">
        <ele>30.2</ele>
        <time>2022-04-02T08:39:02Z</time>
      </trkpt>
      <trkpt lat="47.48569" lon="-1.84824">
        <ele>30</ele>
        <time>2022-04-02T08:39:03Z</time>
      </trkpt>
      <trkpt lat="47.48572" lon="-1.84839">
        <ele>29.6</ele>
        <time>2022-04-02T08:39:05Z</time>
      </trkpt>
      <trkpt lat="47.48574" lon="-1.84888">
        <ele>28.6</ele>
        <time>2022-04-02T08:39:10Z</time>
      </trkpt>
      <trkpt lat="47.48577" lon="-1.84962">
        <ele>27.6</ele>
        <time>2022-04-02T08:39:16Z</time>
      </trkpt>
      <trkpt lat="47.48582" lon="-1.85037">
        <ele>26.8</ele>
        <time>2022-04-02T08:39:22Z</time>
      </trkpt>
      <trkpt lat="47.48588" lon="-1.85103">
        <ele>26</ele>
        <time>2022-04-02T08:39:28Z</time>
      </trkpt>
      <trkpt lat="47.4859" lon="-1.85112">
        <ele>26</ele>
        <time>2022-04-02T08:39:29Z</time>
      </trkpt>
      <trkpt lat="47.48597" lon="-1.85123">
        <ele>25.8</ele>
        <time>2022-04-02T08:39:31Z</time>
      </trkpt>
      <trkpt lat="47.48608" lon="-1.85123">
        <ele>25.6</ele>
        <time>2022-04-02T08:39:34Z</time>
      </trkpt>
      <trkpt lat="47.48621" lon="-1.85113">
        <ele>25</ele>
        <time>2022-04-02T08:39:38Z</time>
      </trkpt>
      <trkpt lat="47.48636" lon="-1.85101">
        <ele>24.2</ele>
        <time>2022-04-02T08:39:44Z</time>
      </trkpt>
      <trkpt lat="47.48652" lon="-1.85091">
        <ele>24</ele>
        <time>2022-04-02T08:39:49Z</time>
      </trkpt>
      <trkpt lat="47.4868" lon="-1.85074">
        <ele>23.8</ele>
        <time>2022-04-02T08:39:57Z</time>
      </trkpt>
      <trkpt lat="47.4869" lon="-1.85066">
        <ele>23.8</ele>
        <time>2022-04-02T08:40:00Z</time>
      </trkpt>
      <trkpt lat="47.48698" lon="-1.85061">
        <ele>23.8</ele>
        <time>2022-04-02T08:40:02Z</time>
      </trkpt>
      <trkpt lat="47.48706" lon="-1.85056">
        <ele>23.8</ele>
        <time>2022-04-02T08:40:04Z</time>
      </trkpt>
      <trkpt lat="47.48713" lon="-1.8505">
        <ele>23.8</ele>
        <time>2022-04-02T08:40:06Z</time>
      </trkpt>
      <trkpt lat="47.48726" lon="-1.85043">
        <ele>23.8</ele>
        <time>2022-04-02T08:40:09Z</time>
      </trkpt>
      <trkpt lat="47.48734" lon="-1.85036">
        <ele>23.8</ele>
        <time>2022-04-02T08:40:11Z</time>
      </trkpt>
      <trkpt lat="47.48747" lon="-1.85028">
        <ele>23.6</ele>
        <time>2022-04-02T08:40:14Z</time>
      </trkpt>
      <trkpt lat="47.48756" lon="-1.85023">
        <ele>23.6</ele>
        <time>2022-04-02T08:40:16Z</time>
      </trkpt>
      <trkpt lat="47.4876" lon="-1.85021">
        <ele>23.6</ele>
        <time>2022-04-02T08:40:17Z</time>
      </trkpt>
      <trkpt lat="47.48783" lon="-1.8501">
        <ele>23.6</ele>
        <time>2022-04-02T08:40:22Z</time>
      </trkpt>
      <trkpt lat="47.48787" lon="-1.85008">
        <ele>23.6</ele>
        <time>2022-04-02T08:40:23Z</time>
      </trkpt>
      <trkpt lat="47.48795" lon="-1.85001">
        <ele>23.6</ele>
        <time>2022-04-02T08:40:25Z</time>
      </trkpt>
      <trkpt lat="47.48807" lon="-1.84992">
        <ele>23.2</ele>
        <time>2022-04-02T08:40:28Z</time>
      </trkpt>
      <trkpt lat="47.48825" lon="-1.84984">
        <ele>23.2</ele>
        <time>2022-04-02T08:40:32Z</time>
      </trkpt>
      <trkpt lat="47.48848" lon="-1.84974">
        <ele>23</ele>
        <time>2022-04-02T08:40:37Z</time>
      </trkpt>
      <trkpt lat="47.48887" lon="-1.84951">
        <ele>23.6</ele>
        <time>2022-04-02T08:40:46Z</time>
      </trkpt>
      <trkpt lat="47.48892" lon="-1.84947">
        <ele>23.6</ele>
        <time>2022-04-02T08:40:47Z</time>
      </trkpt>
      <trkpt lat="47.48901" lon="-1.84942">
        <ele>23.6</ele>
        <time>2022-04-02T08:40:49Z</time>
      </trkpt>
      <trkpt lat="47.48915" lon="-1.84935">
        <ele>23.8</ele>
        <time>2022-04-02T08:40:52Z</time>
      </trkpt>
      <trkpt lat="47.48924" lon="-1.8493">
        <ele>24</ele>
        <time>2022-04-02T08:40:54Z</time>
      </trkpt>
      <trkpt lat="47.48928" lon="-1.84927">
        <ele>24</ele>
        <time>2022-04-02T08:40:55Z</time>
      </trkpt>
      <trkpt lat="47.48952" lon="-1.84914">
        <ele>24</ele>
        <time>2022-04-02T08:41:00Z</time>
      </trkpt>
      <trkpt lat="47.48968" lon="-1.84904">
        <ele>24</ele>
        <time>2022-04-02T08:41:04Z</time>
      </trkpt>
      <trkpt lat="47.48982" lon="-1.84898">
        <ele>24.2</ele>
        <time>2022-04-02T08:41:09Z</time>
      </trkpt>
      <trkpt lat="47.48992" lon="-1.84893">
        <ele>24.6</ele>
        <time>2022-04-02T08:41:15Z</time>
      </trkpt>
      <trkpt lat="47.49005" lon="-1.84886">
        <ele>25</ele>
        <time>2022-04-02T08:41:21Z</time>
      </trkpt>
      <trkpt lat="47.49031" lon="-1.84872">
        <ele>25.4</ele>
        <time>2022-04-02T08:41:31Z</time>
      </trkpt>
      <trkpt lat="47.49053" lon="-1.8486">
        <ele>25.6</ele>
        <time>2022-04-02T08:41:38Z</time>
      </trkpt>
      <trkpt lat="47.49081" lon="-1.84844">
        <ele>25.4</ele>
        <time>2022-04-02T08:41:44Z</time>
      </trkpt>
      <trkpt lat="47.49117" lon="-1.84821">
        <ele>25.6</ele>
        <time>2022-04-02T08:41:52Z</time>
      </trkpt>
      <trkpt lat="47.49129" lon="-1.84813">
        <ele>25.6</ele>
        <time>2022-04-02T08:41:55Z</time>
      </trkpt>
      <trkpt lat="47.49147" lon="-1.84803">
        <ele>25.6</ele>
        <time>2022-04-02T08:41:59Z</time>
      </trkpt>
      <trkpt lat="47.4918" lon="-1.84784">
        <ele>25.6</ele>
        <time>2022-04-02T08:42:07Z</time>
      </trkpt>
      <trkpt lat="47.49212" lon="-1.84764">
        <ele>25.4</ele>
        <time>2022-04-02T08:42:15Z</time>
      </trkpt>
      <trkpt lat="47.49243" lon="-1.84746">
        <ele>25.6</ele>
        <time>2022-04-02T08:42:23Z</time>
      </trkpt>
      <trkpt lat="47.49273" lon="-1.84727">
        <ele>25.6</ele>
        <time>2022-04-02T08:42:31Z</time>
      </trkpt>
      <trkpt lat="47.4928" lon="-1.84722">
        <ele>25.6</ele>
        <time>2022-04-02T08:42:33Z</time>
      </trkpt>
      <trkpt lat="47.49295" lon="-1.84713">
        <ele>25.4</ele>
        <time>2022-04-02T08:42:37Z</time>
      </trkpt>
      <trkpt lat="47.49316" lon="-1.84701">
        <ele>25.4</ele>
        <time>2022-04-02T08:42:43Z</time>
      </trkpt>
      <trkpt lat="47.49336" lon="-1.84688">
        <ele>25.2</ele>
        <time>2022-04-02T08:42:49Z</time>
      </trkpt>
      <trkpt lat="47.49361" lon="-1.84673">
        <ele>25.6</ele>
        <time>2022-04-02T08:42:56Z</time>
      </trkpt>
      <trkpt lat="47.4939" lon="-1.84656">
        <ele>25.8</ele>
        <time>2022-04-02T08:43:04Z</time>
      </trkpt>
      <trkpt lat="47.49413" lon="-1.84643">
        <ele>26.4</ele>
        <time>2022-04-02T08:43:11Z</time>
      </trkpt>
      <trkpt lat="47.4943" lon="-1.84632">
        <ele>26.6</ele>
        <time>2022-04-02T08:43:16Z</time>
      </trkpt>
      <trkpt lat="47.49448" lon="-1.84618">
        <ele>26.8</ele>
        <time>2022-04-02T08:43:22Z</time>
      </trkpt>
      <trkpt lat="47.49473" lon="-1.84605">
        <ele>27.2</ele>
        <time>2022-04-02T08:43:28Z</time>
      </trkpt>
      <trkpt lat="47.49492" lon="-1.84592">
        <ele>27.4</ele>
        <time>2022-04-02T08:43:33Z</time>
      </trkpt>
      <trkpt lat="47.49505" lon="-1.84585">
        <ele>27.4</ele>
        <time>2022-04-02T08:43:36Z</time>
      </trkpt>
      <trkpt lat="47.49514" lon="-1.84579">
        <ele>27.6</ele>
        <time>2022-04-02T08:43:38Z</time>
      </trkpt>
      <trkpt lat="47.49541" lon="-1.84564">
        <ele>27.8</ele>
        <time>2022-04-02T08:43:44Z</time>
      </trkpt>
      <trkpt lat="47.49548" lon="-1.84558">
        <ele>27.8</ele>
        <time>2022-04-02T08:43:46Z</time>
      </trkpt>
      <trkpt lat="47.49559" lon="-1.84549">
        <ele>27.8</ele>
        <time>2022-04-02T08:43:49Z</time>
      </trkpt>
      <trkpt lat="47.49581" lon="-1.84535">
        <ele>27.8</ele>
        <time>2022-04-02T08:43:54Z</time>
      </trkpt>
      <trkpt lat="47.49585" lon="-1.84532">
        <ele>27.8</ele>
        <time>2022-04-02T08:43:55Z</time>
      </trkpt>
      <trkpt lat="47.496" lon="-1.84523">
        <ele>27.8</ele>
        <time>2022-04-02T08:43:59Z</time>
      </trkpt>
      <trkpt lat="47.49604" lon="-1.84519">
        <ele>27.4</ele>
        <time>2022-04-02T08:44:00Z</time>
      </trkpt>
      <trkpt lat="47.49633" lon="-1.84502">
        <ele>27</ele>
        <time>2022-04-02T08:44:07Z</time>
      </trkpt>
      <trkpt lat="47.49665" lon="-1.84485">
        <ele>26.6</ele>
        <time>2022-04-02T08:44:14Z</time>
      </trkpt>
      <trkpt lat="47.49695" lon="-1.84472">
        <ele>27</ele>
        <time>2022-04-02T08:44:20Z</time>
      </trkpt>
      <trkpt lat="47.497" lon="-1.84469">
        <ele>26.4</ele>
        <time>2022-04-02T08:44:21Z</time>
      </trkpt>
      <trkpt lat="47.49732" lon="-1.84449">
        <ele>26.6</ele>
        <time>2022-04-02T08:44:28Z</time>
      </trkpt>
      <trkpt lat="47.49769" lon="-1.84428">
        <ele>26.2</ele>
        <time>2022-04-02T08:44:35Z</time>
      </trkpt>
      <trkpt lat="47.49809" lon="-1.84403">
        <ele>26.8</ele>
        <time>2022-04-02T08:44:43Z</time>
      </trkpt>
      <trkpt lat="47.49856" lon="-1.84375">
        <ele>27</ele>
        <time>2022-04-02T08:44:52Z</time>
      </trkpt>
      <trkpt lat="47.49897" lon="-1.84351">
        <ele>27</ele>
        <time>2022-04-02T08:45:00Z</time>
      </trkpt>
      <trkpt lat="47.49929" lon="-1.84333">
        <ele>27</ele>
        <time>2022-04-02T08:45:07Z</time>
      </trkpt>
      <trkpt lat="47.4997" lon="-1.84306">
        <ele>27.2</ele>
        <time>2022-04-02T08:45:17Z</time>
      </trkpt>
      <trkpt lat="47.49982" lon="-1.84297">
        <ele>27.2</ele>
        <time>2022-04-02T08:45:20Z</time>
      </trkpt>
      <trkpt lat="47.49997" lon="-1.84289">
        <ele>27.2</ele>
        <time>2022-04-02T08:45:23Z</time>
      </trkpt>
      <trkpt lat="47.50031" lon="-1.84268">
        <ele>27.6</ele>
        <time>2022-04-02T08:45:31Z</time>
      </trkpt>
      <trkpt lat="47.50042" lon="-1.84259">
        <ele>27.6</ele>
        <time>2022-04-02T08:45:34Z</time>
      </trkpt>
      <trkpt lat="47.50046" lon="-1.84254">
        <ele>27.6</ele>
        <time>2022-04-02T08:45:35Z</time>
      </trkpt>
      <trkpt lat="47.50088" lon="-1.84231">
        <ele>27.8</ele>
        <time>2022-04-02T08:45:45Z</time>
      </trkpt>
      <trkpt lat="47.5011" lon="-1.84222">
        <ele>28</ele>
        <time>2022-04-02T08:45:50Z</time>
      </trkpt>
      <trkpt lat="47.50115" lon="-1.8422">
        <ele>28</ele>
        <time>2022-04-02T08:45:51Z</time>
      </trkpt>
      <trkpt lat="47.50119" lon="-1.84216">
        <ele>28</ele>
        <time>2022-04-02T08:45:52Z</time>
      </trkpt>
      <trkpt lat="47.50132" lon="-1.84208">
        <ele>28.4</ele>
        <time>2022-04-02T08:45:55Z</time>
      </trkpt>
      <trkpt lat="47.50142" lon="-1.84203">
        <ele>28.4</ele>
        <time>2022-04-02T08:45:57Z</time>
      </trkpt>
      <trkpt lat="47.50176" lon="-1.8418">
        <ele>28.8</ele>
        <time>2022-04-02T08:46:05Z</time>
      </trkpt>
      <trkpt lat="47.50194" lon="-1.8417">
        <ele>29</ele>
        <time>2022-04-02T08:46:09Z</time>
      </trkpt>
      <trkpt lat="47.50203" lon="-1.84165">
        <ele>29.2</ele>
        <time>2022-04-02T08:46:11Z</time>
      </trkpt>
      <trkpt lat="47.50226" lon="-1.84151">
        <ele>29.2</ele>
        <time>2022-04-02T08:46:16Z</time>
      </trkpt>
      <trkpt lat="47.50236" lon="-1.84145">
        <ele>29.2</ele>
        <time>2022-04-02T08:46:18Z</time>
      </trkpt>
      <trkpt lat="47.50261" lon="-1.8413">
        <ele>29.2</ele>
        <time>2022-04-02T08:46:23Z</time>
      </trkpt>
      <trkpt lat="47.50269" lon="-1.84126">
        <ele>29.2</ele>
        <time>2022-04-02T08:46:25Z</time>
      </trkpt>
      <trkpt lat="47.50273" lon="-1.84123">
        <ele>29.2</ele>
        <time>2022-04-02T08:46:26Z</time>
      </trkpt>
      <trkpt lat="47.50302" lon="-1.84106">
        <ele>29.4</ele>
        <time>2022-04-02T08:46:32Z</time>
      </trkpt>
      <trkpt lat="47.50337" lon="-1.84083">
        <ele>29.6</ele>
        <time>2022-04-02T08:46:40Z</time>
      </trkpt>
      <trkpt lat="47.5035" lon="-1.84075">
        <ele>29.8</ele>
        <time>2022-04-02T08:46:43Z</time>
      </trkpt>
      <trkpt lat="47.50369" lon="-1.84063">
        <ele>29.8</ele>
        <time>2022-04-02T08:46:47Z</time>
      </trkpt>
      <trkpt lat="47.50385" lon="-1.84054">
        <ele>29.8</ele>
        <time>2022-04-02T08:46:50Z</time>
      </trkpt>
      <trkpt lat="47.50394" lon="-1.84048">
        <ele>29.8</ele>
        <time>2022-04-02T08:46:52Z</time>
      </trkpt>
      <trkpt lat="47.50413" lon="-1.84038">
        <ele>29.8</ele>
        <time>2022-04-02T08:46:56Z</time>
      </trkpt>
      <trkpt lat="47.50422" lon="-1.84034">
        <ele>30</ele>
        <time>2022-04-02T08:46:58Z</time>
      </trkpt>
      <trkpt lat="47.50427" lon="-1.84031">
        <ele>30</ele>
        <time>2022-04-02T08:46:59Z</time>
      </trkpt>
      <trkpt lat="47.50436" lon="-1.84025">
        <ele>30.2</ele>
        <time>2022-04-02T08:47:01Z</time>
      </trkpt>
      <trkpt lat="47.50445" lon="-1.84018">
        <ele>30.2</ele>
        <time>2022-04-02T08:47:03Z</time>
      </trkpt>
      <trkpt lat="47.50465" lon="-1.84006">
        <ele>30.2</ele>
        <time>2022-04-02T08:47:08Z</time>
      </trkpt>
      <trkpt lat="47.50469" lon="-1.84002">
        <ele>30.2</ele>
        <time>2022-04-02T08:47:09Z</time>
      </trkpt>
      <trkpt lat="47.50484" lon="-1.83993">
        <ele>30.2</ele>
        <time>2022-04-02T08:47:12Z</time>
      </trkpt>
      <trkpt lat="47.50499" lon="-1.83985">
        <ele>30</ele>
        <time>2022-04-02T08:47:15Z</time>
      </trkpt>
      <trkpt lat="47.50508" lon="-1.83979">
        <ele>29.8</ele>
        <time>2022-04-02T08:47:17Z</time>
      </trkpt>
      <trkpt lat="47.50545" lon="-1.83956">
        <ele>29.2</ele>
        <time>2022-04-02T08:47:25Z</time>
      </trkpt>
      <trkpt lat="47.50576" lon="-1.83937">
        <ele>29</ele>
        <time>2022-04-02T08:47:32Z</time>
      </trkpt>
      <trkpt lat="47.50605" lon="-1.8392">
        <ele>28.6</ele>
        <time>2022-04-02T08:47:38Z</time>
      </trkpt>
      <trkpt lat="47.50615" lon="-1.83912">
        <ele>28.2</ele>
        <time>2022-04-02T08:47:41Z</time>
      </trkpt>
      <trkpt lat="47.50631" lon="-1.83902">
        <ele>28</ele>
        <time>2022-04-02T08:47:45Z</time>
      </trkpt>
      <trkpt lat="47.50635" lon="-1.83897">
        <ele>27.8</ele>
        <time>2022-04-02T08:47:46Z</time>
      </trkpt>
      <trkpt lat="47.50638" lon="-1.83891">
        <ele>27.8</ele>
        <time>2022-04-02T08:47:47Z</time>
      </trkpt>
      <trkpt lat="47.50644" lon="-1.83863">
        <ele>27.2</ele>
        <time>2022-04-02T08:47:51Z</time>
      </trkpt>
      <trkpt lat="47.50649" lon="-1.83848">
        <ele>27</ele>
        <time>2022-04-02T08:47:53Z</time>
      </trkpt>
      <trkpt lat="47.50658" lon="-1.83818">
        <ele>26.8</ele>
        <time>2022-04-02T08:47:57Z</time>
      </trkpt>
      <trkpt lat="47.50672" lon="-1.83763">
        <ele>26</ele>
        <time>2022-04-02T08:48:04Z</time>
      </trkpt>
      <trkpt lat="47.50691" lon="-1.8371">
        <ele>25.8</ele>
        <time>2022-04-02T08:48:11Z</time>
      </trkpt>
      <trkpt lat="47.50708" lon="-1.83646">
        <ele>25.6</ele>
        <time>2022-04-02T08:48:19Z</time>
      </trkpt>
      <trkpt lat="47.50723" lon="-1.8359">
        <ele>25.4</ele>
        <time>2022-04-02T08:48:26Z</time>
      </trkpt>
      <trkpt lat="47.50739" lon="-1.83533">
        <ele>25.4</ele>
        <time>2022-04-02T08:48:33Z</time>
      </trkpt>
      <trkpt lat="47.50741" lon="-1.83525">
        <ele>25.4</ele>
        <time>2022-04-02T08:48:34Z</time>
      </trkpt>
      <trkpt lat="47.50754" lon="-1.83477">
        <ele>25.4</ele>
        <time>2022-04-02T08:48:40Z</time>
      </trkpt>
      <trkpt lat="47.50767" lon="-1.83427">
        <ele>25</ele>
        <time>2022-04-02T08:48:46Z</time>
      </trkpt>
      <trkpt lat="47.50782" lon="-1.83364">
        <ele>24.4</ele>
        <time>2022-04-02T08:48:54Z</time>
      </trkpt>
      <trkpt lat="47.50798" lon="-1.83301">
        <ele>24</ele>
        <time>2022-04-02T08:49:02Z</time>
      </trkpt>
      <trkpt lat="47.50809" lon="-1.83255">
        <ele>23.4</ele>
        <time>2022-04-02T08:49:08Z</time>
      </trkpt>
      <trkpt lat="47.50823" lon="-1.83192">
        <ele>22</ele>
        <time>2022-04-02T08:49:16Z</time>
      </trkpt>
      <trkpt lat="47.50835" lon="-1.83142">
        <ele>20.6</ele>
        <time>2022-04-02T08:49:22Z</time>
      </trkpt>
      <trkpt lat="47.50855" lon="-1.83067">
        <ele>19.4</ele>
        <time>2022-04-02T08:49:31Z</time>
      </trkpt>
      <trkpt lat="47.50871" lon="-1.83003">
        <ele>17.8</ele>
        <time>2022-04-02T08:49:39Z</time>
      </trkpt>
      <trkpt lat="47.50889" lon="-1.82939">
        <ele>16.6</ele>
        <time>2022-04-02T08:49:47Z</time>
      </trkpt>
      <trkpt lat="47.50902" lon="-1.82884">
        <ele>15.6</ele>
        <time>2022-04-02T08:49:54Z</time>
      </trkpt>
      <trkpt lat="47.5092" lon="-1.82812">
        <ele>14</ele>
        <time>2022-04-02T08:50:03Z</time>
      </trkpt>
      <trkpt lat="47.50941" lon="-1.82737">
        <ele>12.4</ele>
        <time>2022-04-02T08:50:12Z</time>
      </trkpt>
      <trkpt lat="47.50959" lon="-1.8266">
        <ele>10.4</ele>
        <time>2022-04-02T08:50:21Z</time>
      </trkpt>
      <trkpt lat="47.5098" lon="-1.82604">
        <ele>11</ele>
        <time>2022-04-02T08:50:28Z</time>
      </trkpt>
      <trkpt lat="47.51005" lon="-1.82536">
        <ele>13.2</ele>
        <time>2022-04-02T08:50:37Z</time>
      </trkpt>
      <trkpt lat="47.51011" lon="-1.82512">
        <ele>13</ele>
        <time>2022-04-02T08:50:40Z</time>
      </trkpt>
      <trkpt lat="47.51018" lon="-1.82489">
        <ele>12.2</ele>
        <time>2022-04-02T08:50:43Z</time>
      </trkpt>
      <trkpt lat="47.51041" lon="-1.82418">
        <ele>12.8</ele>
        <time>2022-04-02T08:50:52Z</time>
      </trkpt>
      <trkpt lat="47.51058" lon="-1.82345">
        <ele>13.2</ele>
        <time>2022-04-02T08:51:01Z</time>
      </trkpt>
      <trkpt lat="47.51065" lon="-1.82313">
        <ele>13.2</ele>
        <time>2022-04-02T08:51:05Z</time>
      </trkpt>
      <trkpt lat="47.51069" lon="-1.82297">
        <ele>13.2</ele>
        <time>2022-04-02T08:51:07Z</time>
      </trkpt>
      <trkpt lat="47.51086" lon="-1.8222">
        <ele>12.6</ele>
        <time>2022-04-02T08:51:16Z</time>
      </trkpt>
      <trkpt lat="47.51104" lon="-1.82142">
        <ele>11.4</ele>
        <time>2022-04-02T08:51:25Z</time>
      </trkpt>
      <trkpt lat="47.51106" lon="-1.82133">
        <ele>11.2</ele>
        <time>2022-04-02T08:51:26Z</time>
      </trkpt>
      <trkpt lat="47.51122" lon="-1.82064">
        <ele>9.8</ele>
        <time>2022-04-02T08:51:34Z</time>
      </trkpt>
      <trkpt lat="47.51135" lon="-1.82014">
        <ele>9</ele>
        <time>2022-04-02T08:51:40Z</time>
      </trkpt>
      <trkpt lat="47.51138" lon="-1.82006">
        <ele>8.8</ele>
        <time>2022-04-02T08:51:41Z</time>
      </trkpt>
      <trkpt lat="47.51153" lon="-1.81941">
        <ele>7.4</ele>
        <time>2022-04-02T08:51:49Z</time>
      </trkpt>
      <trkpt lat="47.51173" lon="-1.81871">
        <ele>7.4</ele>
        <time>2022-04-02T08:51:58Z</time>
      </trkpt>
      <trkpt lat="47.51191" lon="-1.81803">
        <ele>7.2</ele>
        <time>2022-04-02T08:52:07Z</time>
      </trkpt>
      <trkpt lat="47.51213" lon="-1.81732">
        <ele>7</ele>
        <time>2022-04-02T08:52:17Z</time>
      </trkpt>
      <trkpt lat="47.51231" lon="-1.8168">
        <ele>8</ele>
        <time>2022-04-02T08:52:25Z</time>
      </trkpt>
      <trkpt lat="47.51246" lon="-1.8162">
        <ele>8.2</ele>
        <time>2022-04-02T08:52:34Z</time>
      </trkpt>
      <trkpt lat="47.5127" lon="-1.81559">
        <ele>10.4</ele>
        <time>2022-04-02T08:52:43Z</time>
      </trkpt>
      <trkpt lat="47.51291" lon="-1.81496">
        <ele>11.8</ele>
        <time>2022-04-02T08:52:52Z</time>
      </trkpt>
      <trkpt lat="47.51311" lon="-1.81433">
        <ele>13.8</ele>
        <time>2022-04-02T08:53:00Z</time>
      </trkpt>
      <trkpt lat="47.51325" lon="-1.81379">
        <ele>14.6</ele>
        <time>2022-04-02T08:53:07Z</time>
      </trkpt>
      <trkpt lat="47.51339" lon="-1.81323">
        <ele>15.2</ele>
        <time>2022-04-02T08:53:14Z</time>
      </trkpt>
      <trkpt lat="47.51355" lon="-1.81266">
        <ele>15.8</ele>
        <time>2022-04-02T08:53:21Z</time>
      </trkpt>
      <trkpt lat="47.51361" lon="-1.81241">
        <ele>15.8</ele>
        <time>2022-04-02T08:53:24Z</time>
      </trkpt>
      <trkpt lat="47.51364" lon="-1.81225">
        <ele>15.8</ele>
        <time>2022-04-02T08:53:26Z</time>
      </trkpt>
      <trkpt lat="47.51367" lon="-1.81208">
        <ele>15.6</ele>
        <time>2022-04-02T08:53:28Z</time>
      </trkpt>
      <trkpt lat="47.51373" lon="-1.81183">
        <ele>15.6</ele>
        <time>2022-04-02T08:53:31Z</time>
      </trkpt>
      <trkpt lat="47.51387" lon="-1.81126">
        <ele>14.8</ele>
        <time>2022-04-02T08:53:38Z</time>
      </trkpt>
      <trkpt lat="47.51399" lon="-1.81079">
        <ele>14</ele>
        <time>2022-04-02T08:53:44Z</time>
      </trkpt>
      <trkpt lat="47.5141" lon="-1.81034">
        <ele>14</ele>
        <time>2022-04-02T08:53:50Z</time>
      </trkpt>
      <trkpt lat="47.51424" lon="-1.8099">
        <ele>13.8</ele>
        <time>2022-04-02T08:53:56Z</time>
      </trkpt>
      <trkpt lat="47.51435" lon="-1.80946">
        <ele>13.4</ele>
        <time>2022-04-02T08:54:02Z</time>
      </trkpt>
      <trkpt lat="47.51454" lon="-1.80884">
        <ele>13.6</ele>
        <time>2022-04-02T08:54:10Z</time>
      </trkpt>
      <trkpt lat="47.51467" lon="-1.80828">
        <ele>13.2</ele>
        <time>2022-04-02T08:54:17Z</time>
      </trkpt>
      <trkpt lat="47.51482" lon="-1.80765">
        <ele>12.6</ele>
        <time>2022-04-02T08:54:25Z</time>
      </trkpt>
      <trkpt lat="47.51506" lon="-1.80684">
        <ele>12.6</ele>
        <time>2022-04-02T08:54:35Z</time>
      </trkpt>
      <trkpt lat="47.51524" lon="-1.80627">
        <ele>13.2</ele>
        <time>2022-04-02T08:54:42Z</time>
      </trkpt>
      <trkpt lat="47.51538" lon="-1.80585">
        <ele>13.2</ele>
        <time>2022-04-02T08:54:47Z</time>
      </trkpt>
      <trkpt lat="47.51541" lon="-1.80577">
        <ele>13.2</ele>
        <time>2022-04-02T08:54:48Z</time>
      </trkpt>
      <trkpt lat="47.51554" lon="-1.80531">
        <ele>13.4</ele>
        <time>2022-04-02T08:54:54Z</time>
      </trkpt>
      <trkpt lat="47.51558" lon="-1.80516">
        <ele>13.4</ele>
        <time>2022-04-02T08:54:56Z</time>
      </trkpt>
      <trkpt lat="47.51564" lon="-1.80492">
        <ele>13.4</ele>
        <time>2022-04-02T08:54:59Z</time>
      </trkpt>
      <trkpt lat="47.51577" lon="-1.80434">
        <ele>12.4</ele>
        <time>2022-04-02T08:55:06Z</time>
      </trkpt>
      <trkpt lat="47.51587" lon="-1.8039">
        <ele>12.2</ele>
        <time>2022-04-02T08:55:12Z</time>
      </trkpt>
      <trkpt lat="47.51599" lon="-1.80348">
        <ele>12.2</ele>
        <time>2022-04-02T08:55:18Z</time>
      </trkpt>
      <trkpt lat="47.51605" lon="-1.80329">
        <ele>12</ele>
        <time>2022-04-02T08:55:21Z</time>
      </trkpt>
      <trkpt lat="47.51603" lon="-1.80316">
        <ele>11.8</ele>
        <time>2022-04-02T08:55:23Z</time>
      </trkpt>
      <trkpt lat="47.51598" lon="-1.80295">
        <ele>11.2</ele>
        <time>2022-04-02T08:55:26Z</time>
      </trkpt>
      <trkpt lat="47.51597" lon="-1.8028">
        <ele>10.8</ele>
        <time>2022-04-02T08:55:28Z</time>
      </trkpt>
      <trkpt lat="47.51601" lon="-1.80266">
        <ele>10.4</ele>
        <time>2022-04-02T08:55:30Z</time>
      </trkpt>
      <trkpt lat="47.51604" lon="-1.8026">
        <ele>10.2</ele>
        <time>2022-04-02T08:55:31Z</time>
      </trkpt>
      <trkpt lat="47.51615" lon="-1.80251">
        <ele>10.6</ele>
        <time>2022-04-02T08:55:33Z</time>
      </trkpt>
      <trkpt lat="47.51623" lon="-1.80238">
        <ele>10.6</ele>
        <time>2022-04-02T08:55:35Z</time>
      </trkpt>
      <trkpt lat="47.51634" lon="-1.80203">
        <ele>10.2</ele>
        <time>2022-04-02T08:55:40Z</time>
      </trkpt>
      <trkpt lat="47.51636" lon="-1.80196">
        <ele>10</ele>
        <time>2022-04-02T08:55:41Z</time>
      </trkpt>
      <trkpt lat="47.51639" lon="-1.80181">
        <ele>9.6</ele>
        <time>2022-04-02T08:55:43Z</time>
      </trkpt>
      <trkpt lat="47.51642" lon="-1.80166">
        <ele>9.2</ele>
        <time>2022-04-02T08:55:45Z</time>
      </trkpt>
      <trkpt lat="47.5165" lon="-1.80133">
        <ele>8</ele>
        <time>2022-04-02T08:55:49Z</time>
      </trkpt>
      <trkpt lat="47.51654" lon="-1.80116">
        <ele>7.2</ele>
        <time>2022-04-02T08:55:51Z</time>
      </trkpt>
      <trkpt lat="47.5166" lon="-1.80091">
        <ele>6</ele>
        <time>2022-04-02T08:55:54Z</time>
      </trkpt>
      <trkpt lat="47.51665" lon="-1.80074">
        <ele>5.6</ele>
        <time>2022-04-02T08:55:56Z</time>
      </trkpt>
      <trkpt lat="47.51673" lon="-1.8004">
        <ele>4</ele>
        <time>2022-04-02T08:56:00Z</time>
      </trkpt>
      <trkpt lat="47.51685" lon="-1.79982">
        <ele>0.60000000000002</ele>
        <time>2022-04-02T08:56:07Z</time>
      </trkpt>
      <trkpt lat="47.517" lon="-1.79914">
        <ele>-3.4</ele>
        <time>2022-04-02T08:56:15Z</time>
      </trkpt>
      <trkpt lat="47.51701" lon="-1.79905">
        <ele>-4</ele>
        <time>2022-04-02T08:56:16Z</time>
      </trkpt>
      <trkpt lat="47.51706" lon="-1.79888">
        <ele>-4.4</ele>
        <time>2022-04-02T08:56:18Z</time>
      </trkpt>
      <trkpt lat="47.51712" lon="-1.79864">
        <ele>-5</ele>
        <time>2022-04-02T08:56:21Z</time>
      </trkpt>
      <trkpt lat="47.51714" lon="-1.79857">
        <ele>-5.2</ele>
        <time>2022-04-02T08:56:22Z</time>
      </trkpt>
      <trkpt lat="47.51735" lon="-1.79793">
        <ele>-6.4</ele>
        <time>2022-04-02T08:56:30Z</time>
      </trkpt>
      <trkpt lat="47.51739" lon="-1.79785">
        <ele>-6</ele>
        <time>2022-04-02T08:56:31Z</time>
      </trkpt>
      <trkpt lat="47.51752" lon="-1.79751">
        <ele>-5.2</ele>
        <time>2022-04-02T08:56:35Z</time>
      </trkpt>
      <trkpt lat="47.51773" lon="-1.79692">
        <ele>-3.6</ele>
        <time>2022-04-02T08:56:42Z</time>
      </trkpt>
      <trkpt lat="47.51791" lon="-1.79635">
        <ele>-4.4</ele>
        <time>2022-04-02T08:56:49Z</time>
      </trkpt>
      <trkpt lat="47.51799" lon="-1.79602">
        <ele>-3.4</ele>
        <time>2022-04-02T08:56:53Z</time>
      </trkpt>
      <trkpt lat="47.51804" lon="-1.79585">
        <ele>-4.4</ele>
        <time>2022-04-02T08:56:55Z</time>
      </trkpt>
      <trkpt lat="47.51813" lon="-1.7955">
        <ele>-6.6</ele>
        <time>2022-04-02T08:56:59Z</time>
      </trkpt>
      <trkpt lat="47.5182" lon="-1.79524">
        <ele>-7.4</ele>
        <time>2022-04-02T08:57:02Z</time>
      </trkpt>
      <trkpt lat="47.51835" lon="-1.79464">
        <ele>-6.6</ele>
        <time>2022-04-02T08:57:09Z</time>
      </trkpt>
      <trkpt lat="47.51851" lon="-1.79399">
        <ele>-7.6</ele>
        <time>2022-04-02T08:57:16Z</time>
      </trkpt>
      <trkpt lat="47.51869" lon="-1.79335">
        <ele>-9</ele>
        <time>2022-04-02T08:57:23Z</time>
      </trkpt>
      <trkpt lat="47.51887" lon="-1.79257">
        <ele>-11</ele>
        <time>2022-04-02T08:57:31Z</time>
      </trkpt>
      <trkpt lat="47.519" lon="-1.79211">
        <ele>-12.6</ele>
        <time>2022-04-02T08:57:36Z</time>
      </trkpt>
      <trkpt lat="47.51903" lon="-1.79202">
        <ele>-13</ele>
        <time>2022-04-02T08:57:37Z</time>
      </trkpt>
      <trkpt lat="47.51905" lon="-1.79192">
        <ele>-13.2</ele>
        <time>2022-04-02T08:57:38Z</time>
      </trkpt>
      <trkpt lat="47.51913" lon="-1.79155">
        <ele>-14.6</ele>
        <time>2022-04-02T08:57:42Z</time>
      </trkpt>
      <trkpt lat="47.51927" lon="-1.79103">
        <ele>-15.4</ele>
        <time>2022-04-02T08:57:48Z</time>
      </trkpt>
      <trkpt lat="47.51942" lon="-1.79051">
        <ele>-15.8</ele>
        <time>2022-04-02T08:57:54Z</time>
      </trkpt>
      <trkpt lat="47.51956" lon="-1.79001">
        <ele>-16.2</ele>
        <time>2022-04-02T08:58:00Z</time>
      </trkpt>
      <trkpt lat="47.51964" lon="-1.78978">
        <ele>-16</ele>
        <time>2022-04-02T08:58:03Z</time>
      </trkpt>
      <trkpt lat="47.51971" lon="-1.78954">
        <ele>-16.2</ele>
        <time>2022-04-02T08:58:06Z</time>
      </trkpt>
      <trkpt lat="47.51986" lon="-1.789">
        <ele>-16.2</ele>
        <time>2022-04-02T08:58:13Z</time>
      </trkpt>
      <trkpt lat="47.52002" lon="-1.7884">
        <ele>-16.2</ele>
        <time>2022-04-02T08:58:21Z</time>
      </trkpt>
      <trkpt lat="47.52019" lon="-1.78791">
        <ele>-15.2</ele>
        <time>2022-04-02T08:58:27Z</time>
      </trkpt>
      <trkpt lat="47.52032" lon="-1.78741">
        <ele>-15.6</ele>
        <time>2022-04-02T08:58:33Z</time>
      </trkpt>
      <trkpt lat="47.52044" lon="-1.7869">
        <ele>-16</ele>
        <time>2022-04-02T08:58:39Z</time>
      </trkpt>
      <trkpt lat="47.5206" lon="-1.78628">
        <ele>-16.6</ele>
        <time>2022-04-02T08:58:46Z</time>
      </trkpt>
      <trkpt lat="47.52063" lon="-1.7861">
        <ele>-16.6</ele>
        <time>2022-04-02T08:58:48Z</time>
      </trkpt>
      <trkpt lat="47.52076" lon="-1.78564">
        <ele>-16.6</ele>
        <time>2022-04-02T08:58:53Z</time>
      </trkpt>
      <trkpt lat="47.52089" lon="-1.78508">
        <ele>-17.2</ele>
        <time>2022-04-02T08:58:59Z</time>
      </trkpt>
      <trkpt lat="47.5211" lon="-1.7845">
        <ele>-17.4</ele>
        <time>2022-04-02T08:59:05Z</time>
      </trkpt>
      <trkpt lat="47.52122" lon="-1.78398">
        <ele>-18.2</ele>
        <time>2022-04-02T08:59:11Z</time>
      </trkpt>
      <trkpt lat="47.52129" lon="-1.78382">
        <ele>-17.8</ele>
        <time>2022-04-02T08:59:13Z</time>
      </trkpt>
      <trkpt lat="47.52139" lon="-1.78356">
        <ele>-16.6</ele>
        <time>2022-04-02T08:59:16Z</time>
      </trkpt>
      <trkpt lat="47.52148" lon="-1.78328">
        <ele>-16.6</ele>
        <time>2022-04-02T08:59:19Z</time>
      </trkpt>
      <trkpt lat="47.52153" lon="-1.78311">
        <ele>-16.6</ele>
        <time>2022-04-02T08:59:21Z</time>
      </trkpt>
      <trkpt lat="47.52172" lon="-1.78239">
        <ele>-17</ele>
        <time>2022-04-02T08:59:29Z</time>
      </trkpt>
      <trkpt lat="47.52192" lon="-1.78186">
        <ele>-16</ele>
        <time>2022-04-02T08:59:35Z</time>
      </trkpt>
      <trkpt lat="47.52211" lon="-1.78122">
        <ele>-15.2</ele>
        <time>2022-04-02T08:59:42Z</time>
      </trkpt>
      <trkpt lat="47.52218" lon="-1.78097">
        <ele>-14.8</ele>
        <time>2022-04-02T08:59:45Z</time>
      </trkpt>
      <trkpt lat="47.52226" lon="-1.78071">
        <ele>-14</ele>
        <time>2022-04-02T08:59:48Z</time>
      </trkpt>
      <trkpt lat="47.52242" lon="-1.7801">
        <ele>-13.2</ele>
        <time>2022-04-02T08:59:55Z</time>
      </trkpt>
      <trkpt lat="47.52245" lon="-1.78002">
        <ele>-13.2</ele>
        <time>2022-04-02T08:59:56Z</time>
      </trkpt>
      <trkpt lat="47.52248" lon="-1.77985">
        <ele>-13</ele>
        <time>2022-04-02T08:59:58Z</time>
      </trkpt>
      <trkpt lat="47.52252" lon="-1.77967">
        <ele>-13</ele>
        <time>2022-04-02T09:00:00Z</time>
      </trkpt>
      <trkpt lat="47.52265" lon="-1.77913">
        <ele>-12.6</ele>
        <time>2022-04-02T09:00:06Z</time>
      </trkpt>
      <trkpt lat="47.52281" lon="-1.77857">
        <ele>-12.4</ele>
        <time>2022-04-02T09:00:12Z</time>
      </trkpt>
      <trkpt lat="47.52302" lon="-1.77783">
        <ele>-12.2</ele>
        <time>2022-04-02T09:00:20Z</time>
      </trkpt>
      <trkpt lat="47.52309" lon="-1.77757">
        <ele>-12.2</ele>
        <time>2022-04-02T09:00:23Z</time>
      </trkpt>
      <trkpt lat="47.52313" lon="-1.7774">
        <ele>-12</ele>
        <time>2022-04-02T09:00:25Z</time>
      </trkpt>
      <trkpt lat="47.52328" lon="-1.77689">
        <ele>-12.2</ele>
        <time>2022-04-02T09:00:31Z</time>
      </trkpt>
      <trkpt lat="47.52343" lon="-1.77629">
        <ele>-12</ele>
        <time>2022-04-02T09:00:38Z</time>
      </trkpt>
      <trkpt lat="47.52348" lon="-1.77597">
        <ele>-12.8</ele>
        <time>2022-04-02T09:00:42Z</time>
      </trkpt>
      <trkpt lat="47.52349" lon="-1.77589">
        <ele>-13.2</ele>
        <time>2022-04-02T09:00:43Z</time>
      </trkpt>
      <trkpt lat="47.52351" lon="-1.77564">
        <ele>-14.4</ele>
        <time>2022-04-02T09:00:46Z</time>
      </trkpt>
      <trkpt lat="47.52354" lon="-1.77548">
        <ele>-15.2</ele>
        <time>2022-04-02T09:00:48Z</time>
      </trkpt>
      <trkpt lat="47.5236" lon="-1.77506">
        <ele>-17.8</ele>
        <time>2022-04-02T09:00:53Z</time>
      </trkpt>
      <trkpt lat="47.52367" lon="-1.7748">
        <ele>-19.2</ele>
        <time>2022-04-02T09:00:56Z</time>
      </trkpt>
      <trkpt lat="47.52372" lon="-1.77463">
        <ele>-19.4</ele>
        <time>2022-04-02T09:00:58Z</time>
      </trkpt>
      <trkpt lat="47.52378" lon="-1.77439">
        <ele>-20.6</ele>
        <time>2022-04-02T09:01:01Z</time>
      </trkpt>
      <trkpt lat="47.5238" lon="-1.77432">
        <ele>-21</ele>
        <time>2022-04-02T09:01:02Z</time>
      </trkpt>
      <trkpt lat="47.52384" lon="-1.77417">
        <ele>-21.8</ele>
        <time>2022-04-02T09:01:04Z</time>
      </trkpt>
      <trkpt lat="47.52388" lon="-1.77403">
        <ele>-22.4</ele>
        <time>2022-04-02T09:01:06Z</time>
      </trkpt>
      <trkpt lat="47.524" lon="-1.77367">
        <ele>-22.6</ele>
        <time>2022-04-02T09:01:11Z</time>
      </trkpt>
      <trkpt lat="47.52407" lon="-1.77334">
        <ele>-24.6</ele>
        <time>2022-04-02T09:01:17Z</time>
      </trkpt>
      <trkpt lat="47.52412" lon="-1.77323">
        <ele>-24.8</ele>
        <time>2022-04-02T09:01:19Z</time>
      </trkpt>
      <trkpt lat="47.52411" lon="-1.77317">
        <ele>-25.2</ele>
        <time>2022-04-02T09:01:20Z</time>
      </trkpt>
      <trkpt lat="47.52417" lon="-1.77286">
        <ele>-27</ele>
        <time>2022-04-02T09:01:25Z</time>
      </trkpt>
      <trkpt lat="47.52421" lon="-1.77272">
        <ele>-27.6</ele>
        <time>2022-04-02T09:01:27Z</time>
      </trkpt>
      <trkpt lat="47.52424" lon="-1.77265">
        <ele>-27.8</ele>
        <time>2022-04-02T09:01:28Z</time>
      </trkpt>
      <trkpt lat="47.52426" lon="-1.77257">
        <ele>-28</ele>
        <time>2022-04-02T09:01:29Z</time>
      </trkpt>
      <trkpt lat="47.52429" lon="-1.77233">
        <ele>-28.8</ele>
        <time>2022-04-02T09:01:32Z</time>
      </trkpt>
      <trkpt lat="47.5243" lon="-1.77217">
        <ele>-29.4</ele>
        <time>2022-04-02T09:01:34Z</time>
      </trkpt>
      <trkpt lat="47.52438" lon="-1.77189">
        <ele>-30</ele>
        <time>2022-04-02T09:01:38Z</time>
      </trkpt>
      <trkpt lat="47.52442" lon="-1.77171">
        <ele>-30.6</ele>
        <time>2022-04-02T09:01:41Z</time>
      </trkpt>
      <trkpt lat="47.52447" lon="-1.77138">
        <ele>-32.8</ele>
        <time>2022-04-02T09:01:47Z</time>
      </trkpt>
      <trkpt lat="47.5245" lon="-1.77108">
        <ele>-35.2</ele>
        <time>2022-04-02T09:01:54Z</time>
      </trkpt>
      <trkpt lat="47.52463" lon="-1.77085">
        <ele>-35.6</ele>
        <time>2022-04-02T09:01:59Z</time>
      </trkpt>
      <trkpt lat="47.52487" lon="-1.77052">
        <ele>-34.6</ele>
        <time>2022-04-02T09:02:05Z</time>
      </trkpt>
      <trkpt lat="47.5249" lon="-1.77027">
        <ele>-35.8</ele>
        <time>2022-04-02T09:02:10Z</time>
      </trkpt>
      <trkpt lat="47.52496" lon="-1.76988">
        <ele>-36.6</ele>
        <time>2022-04-02T09:02:16Z</time>
      </trkpt>
      <trkpt lat="47.525" lon="-1.76973">
        <ele>-36.6</ele>
        <time>2022-04-02T09:02:18Z</time>
      </trkpt>
      <trkpt lat="47.52506" lon="-1.76958">
        <ele>-36.6</ele>
        <time>2022-04-02T09:02:20Z</time>
      </trkpt>
      <trkpt lat="47.52513" lon="-1.76938">
        <ele>-36.6</ele>
        <time>2022-04-02T09:02:23Z</time>
      </trkpt>
      <trkpt lat="47.52519" lon="-1.76919">
        <ele>-37.2</ele>
        <time>2022-04-02T09:02:26Z</time>
      </trkpt>
      <trkpt lat="47.52521" lon="-1.76913">
        <ele>-36.4</ele>
        <time>2022-04-02T09:02:27Z</time>
      </trkpt>
      <trkpt lat="47.5253" lon="-1.76885">
        <ele>-35.6</ele>
        <time>2022-04-02T09:02:31Z</time>
      </trkpt>
      <trkpt lat="47.52541" lon="-1.76843">
        <ele>-34.8</ele>
        <time>2022-04-02T09:02:37Z</time>
      </trkpt>
      <trkpt lat="47.52543" lon="-1.76836">
        <ele>-34.8</ele>
        <time>2022-04-02T09:02:38Z</time>
      </trkpt>
      <trkpt lat="47.52554" lon="-1.76794">
        <ele>-34</ele>
        <time>2022-04-02T09:02:44Z</time>
      </trkpt>
      <trkpt lat="47.52556" lon="-1.76788">
        <ele>-34</ele>
        <time>2022-04-02T09:02:45Z</time>
      </trkpt>
      <trkpt lat="47.5256" lon="-1.76783">
        <ele>-34</ele>
        <time>2022-04-02T09:02:46Z</time>
      </trkpt>
      <trkpt lat="47.52572" lon="-1.76779">
        <ele>-33.4</ele>
        <time>2022-04-02T09:02:48Z</time>
      </trkpt>
      <trkpt lat="47.52593" lon="-1.7678">
        <ele>-31.4</ele>
        <time>2022-04-02T09:02:51Z</time>
      </trkpt>
      <trkpt lat="47.52601" lon="-1.7678">
        <ele>-30.6</ele>
        <time>2022-04-02T09:02:52Z</time>
      </trkpt>
      <trkpt lat="47.52613" lon="-1.76781">
        <ele>-29.6</ele>
        <time>2022-04-02T09:02:54Z</time>
      </trkpt>
      <trkpt lat="47.52625" lon="-1.76786">
        <ele>-28</ele>
        <time>2022-04-02T09:02:56Z</time>
      </trkpt>
      <trkpt lat="47.52634" lon="-1.76792">
        <ele>-27.2</ele>
        <time>2022-04-02T09:02:58Z</time>
      </trkpt>
      <trkpt lat="47.52644" lon="-1.76794">
        <ele>-26.4</ele>
        <time>2022-04-02T09:03:00Z</time>
      </trkpt>
      <trkpt lat="47.52654" lon="-1.76798">
        <ele>-25.8</ele>
        <time>2022-04-02T09:03:02Z</time>
      </trkpt>
      <trkpt lat="47.52669" lon="-1.76806">
        <ele>-24.8</ele>
        <time>2022-04-02T09:03:05Z</time>
      </trkpt>
      <trkpt lat="47.52698" lon="-1.76821">
        <ele>-22</ele>
        <time>2022-04-02T09:03:10Z</time>
      </trkpt>
      <trkpt lat="47.52703" lon="-1.76823">
        <ele>-21.6</ele>
        <time>2022-04-02T09:03:11Z</time>
      </trkpt>
      <trkpt lat="47.52717" lon="-1.76827">
        <ele>-20</ele>
        <time>2022-04-02T09:03:14Z</time>
      </trkpt>
      <trkpt lat="47.52729" lon="-1.76828">
        <ele>-18.8</ele>
        <time>2022-04-02T09:03:16Z</time>
      </trkpt>
      <trkpt lat="47.52745" lon="-1.76828">
        <ele>-17.4</ele>
        <time>2022-04-02T09:03:19Z</time>
      </trkpt>
      <trkpt lat="47.52773" lon="-1.76831">
        <ele>-14.2</ele>
        <time>2022-04-02T09:03:25Z</time>
      </trkpt>
      <trkpt lat="47.52795" lon="-1.76833">
        <ele>-11.8</ele>
        <time>2022-04-02T09:03:30Z</time>
      </trkpt>
      <trkpt lat="47.528" lon="-1.76833">
        <ele>-11.2</ele>
        <time>2022-04-02T09:03:31Z</time>
      </trkpt>
      <trkpt lat="47.52825" lon="-1.7683">
        <ele>-9</ele>
        <time>2022-04-02T09:03:36Z</time>
      </trkpt>
      <trkpt lat="47.52829" lon="-1.76829">
        <ele>-8.6</ele>
        <time>2022-04-02T09:03:37Z</time>
      </trkpt>
      <trkpt lat="47.52864" lon="-1.76815">
        <ele>-5.4</ele>
        <time>2022-04-02T09:03:45Z</time>
      </trkpt>
      <trkpt lat="47.52879" lon="-1.76809">
        <ele>-4</ele>
        <time>2022-04-02T09:03:49Z</time>
      </trkpt>
      <trkpt lat="47.52886" lon="-1.76805">
        <ele>-3.4</ele>
        <time>2022-04-02T09:03:51Z</time>
      </trkpt>
      <trkpt lat="47.52889" lon="-1.76804">
        <ele>-3</ele>
        <time>2022-04-02T09:03:52Z</time>
      </trkpt>
      <trkpt lat="47.52913" lon="-1.7679">
        <ele>-1</ele>
        <time>2022-04-02T09:03:58Z</time>
      </trkpt>
      <trkpt lat="47.52917" lon="-1.76787">
        <ele>-0.60000000000002</ele>
        <time>2022-04-02T09:03:59Z</time>
      </trkpt>
      <trkpt lat="47.5293" lon="-1.76772">
        <ele>0.80000000000001</ele>
        <time>2022-04-02T09:04:03Z</time>
      </trkpt>
      <trkpt lat="47.52945" lon="-1.76748">
        <ele>2.4</ele>
        <time>2022-04-02T09:04:08Z</time>
      </trkpt>
      <trkpt lat="47.52961" lon="-1.76717">
        <ele>4</ele>
        <time>2022-04-02T09:04:14Z</time>
      </trkpt>
      <trkpt lat="47.52974" lon="-1.76692">
        <ele>5.4</ele>
        <time>2022-04-02T09:04:19Z</time>
      </trkpt>
      <trkpt lat="47.52976" lon="-1.76687">
        <ele>5.6</ele>
        <time>2022-04-02T09:04:20Z</time>
      </trkpt>
      <trkpt lat="47.52985" lon="-1.76672">
        <ele>6.2</ele>
        <time>2022-04-02T09:04:23Z</time>
      </trkpt>
      <trkpt lat="47.53006" lon="-1.76644">
        <ele>7.4</ele>
        <time>2022-04-02T09:04:29Z</time>
      </trkpt>
      <trkpt lat="47.53024" lon="-1.76619">
        <ele>8.8</ele>
        <time>2022-04-02T09:04:34Z</time>
      </trkpt>
      <trkpt lat="47.5303" lon="-1.76607">
        <ele>9.2</ele>
        <time>2022-04-02T09:04:36Z</time>
      </trkpt>
      <trkpt lat="47.53039" lon="-1.76589">
        <ele>9.8</ele>
        <time>2022-04-02T09:04:39Z</time>
      </trkpt>
      <trkpt lat="47.53043" lon="-1.76577">
        <ele>10</ele>
        <time>2022-04-02T09:04:41Z</time>
      </trkpt>
      <trkpt lat="47.53046" lon="-1.76571">
        <ele>10.2</ele>
        <time>2022-04-02T09:04:42Z</time>
      </trkpt>
      <trkpt lat="47.53063" lon="-1.76528">
        <ele>11.6</ele>
        <time>2022-04-02T09:04:49Z</time>
      </trkpt>
      <trkpt lat="47.53065" lon="-1.76522">
        <ele>11.8</ele>
        <time>2022-04-02T09:04:50Z</time>
      </trkpt>
      <trkpt lat="47.53073" lon="-1.7649">
        <ele>12.8</ele>
        <time>2022-04-02T09:04:55Z</time>
      </trkpt>
      <trkpt lat="47.53075" lon="-1.76476">
        <ele>13</ele>
        <time>2022-04-02T09:04:57Z</time>
      </trkpt>
      <trkpt lat="47.53076" lon="-1.76448">
        <ele>13.8</ele>
        <time>2022-04-02T09:05:01Z</time>
      </trkpt>
      <trkpt lat="47.5308" lon="-1.76423">
        <ele>14.6</ele>
        <time>2022-04-02T09:05:05Z</time>
      </trkpt>
      <trkpt lat="47.53083" lon="-1.76413">
        <ele>14.8</ele>
        <time>2022-04-02T09:05:07Z</time>
      </trkpt>
      <trkpt lat="47.53086" lon="-1.76402">
        <ele>15.2</ele>
        <time>2022-04-02T09:05:09Z</time>
      </trkpt>
      <trkpt lat="47.53092" lon="-1.76393">
        <ele>15.2</ele>
        <time>2022-04-02T09:05:11Z</time>
      </trkpt>
      <trkpt lat="47.53099" lon="-1.76384">
        <ele>15.4</ele>
        <time>2022-04-02T09:05:13Z</time>
      </trkpt>
      <trkpt lat="47.5311" lon="-1.76369">
        <ele>15.8</ele>
        <time>2022-04-02T09:05:16Z</time>
      </trkpt>
      <trkpt lat="47.53115" lon="-1.76365">
        <ele>15.8</ele>
        <time>2022-04-02T09:05:17Z</time>
      </trkpt>
      <trkpt lat="47.53124" lon="-1.76357">
        <ele>16</ele>
        <time>2022-04-02T09:05:19Z</time>
      </trkpt>
      <trkpt lat="47.53128" lon="-1.76353">
        <ele>16.2</ele>
        <time>2022-04-02T09:05:20Z</time>
      </trkpt>
      <trkpt lat="47.53131" lon="-1.76348">
        <ele>16.4</ele>
        <time>2022-04-02T09:05:21Z</time>
      </trkpt>
      <trkpt lat="47.53134" lon="-1.76335">
        <ele>16.6</ele>
        <time>2022-04-02T09:05:23Z</time>
      </trkpt>
      <trkpt lat="47.53131" lon="-1.76322">
        <ele>16.8</ele>
        <time>2022-04-02T09:05:25Z</time>
      </trkpt>
      <trkpt lat="47.53129" lon="-1.76315">
        <ele>16.8</ele>
        <time>2022-04-02T09:05:26Z</time>
      </trkpt>
      <trkpt lat="47.53115" lon="-1.76278">
        <ele>17.6</ele>
        <time>2022-04-02T09:05:32Z</time>
      </trkpt>
      <trkpt lat="47.53111" lon="-1.76265">
        <ele>17.6</ele>
        <time>2022-04-02T09:05:34Z</time>
      </trkpt>
      <trkpt lat="47.53111" lon="-1.76252">
        <ele>17.8</ele>
        <time>2022-04-02T09:05:36Z</time>
      </trkpt>
      <trkpt lat="47.53113" lon="-1.7624">
        <ele>17.8</ele>
        <time>2022-04-02T09:05:38Z</time>
      </trkpt>
      <trkpt lat="47.5312" lon="-1.76224">
        <ele>18</ele>
        <time>2022-04-02T09:05:41Z</time>
      </trkpt>
      <trkpt lat="47.53127" lon="-1.76211">
        <ele>18</ele>
        <time>2022-04-02T09:05:44Z</time>
      </trkpt>
      <trkpt lat="47.53131" lon="-1.76209">
        <ele>18.2</ele>
        <time>2022-04-02T09:05:45Z</time>
      </trkpt>
      <trkpt lat="47.53136" lon="-1.76208">
        <ele>18.2</ele>
        <time>2022-04-02T09:05:46Z</time>
      </trkpt>
      <trkpt lat="47.53152" lon="-1.76208">
        <ele>18.8</ele>
        <time>2022-04-02T09:05:49Z</time>
      </trkpt>
      <trkpt lat="47.53158" lon="-1.76208">
        <ele>19</ele>
        <time>2022-04-02T09:05:50Z</time>
      </trkpt>
      <trkpt lat="47.53163" lon="-1.76208">
        <ele>19</ele>
        <time>2022-04-02T09:05:51Z</time>
      </trkpt>
      <trkpt lat="47.5319" lon="-1.76217">
        <ele>19.8</ele>
        <time>2022-04-02T09:05:56Z</time>
      </trkpt>
      <trkpt lat="47.53211" lon="-1.76225">
        <ele>20.2</ele>
        <time>2022-04-02T09:06:00Z</time>
      </trkpt>
      <trkpt lat="47.5322" lon="-1.76232">
        <ele>20.4</ele>
        <time>2022-04-02T09:06:02Z</time>
      </trkpt>
      <trkpt lat="47.53235" lon="-1.7624">
        <ele>20.6</ele>
        <time>2022-04-02T09:06:05Z</time>
      </trkpt>
      <trkpt lat="47.53245" lon="-1.76249">
        <ele>20.8</ele>
        <time>2022-04-02T09:06:07Z</time>
      </trkpt>
      <trkpt lat="47.53256" lon="-1.76257">
        <ele>21</ele>
        <time>2022-04-02T09:06:09Z</time>
      </trkpt>
      <trkpt lat="47.53276" lon="-1.76273">
        <ele>21.2</ele>
        <time>2022-04-02T09:06:13Z</time>
      </trkpt>
      <trkpt lat="47.53281" lon="-1.76277">
        <ele>21.2</ele>
        <time>2022-04-02T09:06:14Z</time>
      </trkpt>
      <trkpt lat="47.5329" lon="-1.76285">
        <ele>21.4</ele>
        <time>2022-04-02T09:06:16Z</time>
      </trkpt>
      <trkpt lat="47.53299" lon="-1.76289">
        <ele>21.4</ele>
        <time>2022-04-02T09:06:18Z</time>
      </trkpt>
      <trkpt lat="47.53307" lon="-1.76284">
        <ele>21.6</ele>
        <time>2022-04-02T09:06:20Z</time>
      </trkpt>
      <trkpt lat="47.5331" lon="-1.76279">
        <ele>21.6</ele>
        <time>2022-04-02T09:06:21Z</time>
      </trkpt>
      <trkpt lat="47.53321" lon="-1.7623">
        <ele>22.2</ele>
        <time>2022-04-02T09:06:28Z</time>
      </trkpt>
      <trkpt lat="47.53336" lon="-1.76165">
        <ele>22.6</ele>
        <time>2022-04-02T09:06:37Z</time>
      </trkpt>
      <trkpt lat="47.53343" lon="-1.76106">
        <ele>22.8</ele>
        <time>2022-04-02T09:06:45Z</time>
      </trkpt>
      <trkpt lat="47.53351" lon="-1.76037">
        <ele>23.4</ele>
        <time>2022-04-02T09:06:54Z</time>
      </trkpt>
      <trkpt lat="47.53357" lon="-1.75973">
        <ele>23.6</ele>
        <time>2022-04-02T09:07:02Z</time>
      </trkpt>
      <trkpt lat="47.53362" lon="-1.75922">
        <ele>23.8</ele>
        <time>2022-04-02T09:07:09Z</time>
      </trkpt>
      <trkpt lat="47.53368" lon="-1.75862">
        <ele>23.8</ele>
        <time>2022-04-02T09:07:17Z</time>
      </trkpt>
      <trkpt lat="47.53375" lon="-1.758">
        <ele>24.2</ele>
        <time>2022-04-02T09:07:25Z</time>
      </trkpt>
      <trkpt lat="47.5338" lon="-1.75737">
        <ele>24.6</ele>
        <time>2022-04-02T09:07:33Z</time>
      </trkpt>
      <trkpt lat="47.53384" lon="-1.75681">
        <ele>25</ele>
        <time>2022-04-02T09:07:40Z</time>
      </trkpt>
      <trkpt lat="47.53386" lon="-1.75634">
        <ele>25</ele>
        <time>2022-04-02T09:07:47Z</time>
      </trkpt>
      <trkpt lat="47.53385" lon="-1.75625">
        <ele>25.2</ele>
        <time>2022-04-02T09:07:51Z</time>
      </trkpt>
      <trkpt lat="47.53385" lon="-1.7562">
        <ele>25.2</ele>
        <time>2022-04-02T09:07:56Z</time>
      </trkpt>
      <trkpt lat="47.53385" lon="-1.75612">
        <ele>25.4</ele>
        <time>2022-04-02T09:07:58Z</time>
      </trkpt>
      <trkpt lat="47.53389" lon="-1.75577">
        <ele>25.6</ele>
        <time>2022-04-02T09:08:04Z</time>
      </trkpt>
      <trkpt lat="47.53392" lon="-1.75527">
        <ele>25.6</ele>
        <time>2022-04-02T09:08:11Z</time>
      </trkpt>
      <trkpt lat="47.53395" lon="-1.75467">
        <ele>25.8</ele>
        <time>2022-04-02T09:08:19Z</time>
      </trkpt>
      <trkpt lat="47.53398" lon="-1.75428">
        <ele>25.8</ele>
        <time>2022-04-02T09:08:24Z</time>
      </trkpt>
      <trkpt lat="47.53403" lon="-1.75363">
        <ele>26.2</ele>
        <time>2022-04-02T09:08:32Z</time>
      </trkpt>
      <trkpt lat="47.53408" lon="-1.75289">
        <ele>26.4</ele>
        <time>2022-04-02T09:08:41Z</time>
      </trkpt>
      <trkpt lat="47.53413" lon="-1.75214">
        <ele>26.8</ele>
        <time>2022-04-02T09:08:50Z</time>
      </trkpt>
      <trkpt lat="47.53414" lon="-1.75157">
        <ele>26.8</ele>
        <time>2022-04-02T09:08:57Z</time>
      </trkpt>
      <trkpt lat="47.53416" lon="-1.75124">
        <ele>26.8</ele>
        <time>2022-04-02T09:09:01Z</time>
      </trkpt>
      <trkpt lat="47.53422" lon="-1.75061">
        <ele>26.8</ele>
        <time>2022-04-02T09:09:09Z</time>
      </trkpt>
      <trkpt lat="47.53425" lon="-1.75008">
        <ele>26.8</ele>
        <time>2022-04-02T09:09:16Z</time>
      </trkpt>
      <trkpt lat="47.53429" lon="-1.74947">
        <ele>27</ele>
        <time>2022-04-02T09:09:24Z</time>
      </trkpt>
      <trkpt lat="47.53432" lon="-1.74886">
        <ele>27.4</ele>
        <time>2022-04-02T09:09:32Z</time>
      </trkpt>
      <trkpt lat="47.53433" lon="-1.74864">
        <ele>27.4</ele>
        <time>2022-04-02T09:09:35Z</time>
      </trkpt>
      <trkpt lat="47.53434" lon="-1.74853">
        <ele>27.6</ele>
        <time>2022-04-02T09:09:37Z</time>
      </trkpt>
      <trkpt lat="47.53436" lon="-1.74815">
        <ele>27.6</ele>
        <time>2022-04-02T09:09:42Z</time>
      </trkpt>
      <trkpt lat="47.5344" lon="-1.74764">
        <ele>27.8</ele>
        <time>2022-04-02T09:09:49Z</time>
      </trkpt>
      <trkpt lat="47.53441" lon="-1.74742">
        <ele>27.6</ele>
        <time>2022-04-02T09:09:52Z</time>
      </trkpt>
      <trkpt lat="47.53442" lon="-1.7472">
        <ele>27.6</ele>
        <time>2022-04-02T09:09:55Z</time>
      </trkpt>
      <trkpt lat="47.53445" lon="-1.74668">
        <ele>27.4</ele>
        <time>2022-04-02T09:10:02Z</time>
      </trkpt>
      <trkpt lat="47.53447" lon="-1.74623">
        <ele>27.8</ele>
        <time>2022-04-02T09:10:08Z</time>
      </trkpt>
      <trkpt lat="47.53451" lon="-1.74564">
        <ele>27.8</ele>
        <time>2022-04-02T09:10:16Z</time>
      </trkpt>
      <trkpt lat="47.53455" lon="-1.74506">
        <ele>28</ele>
        <time>2022-04-02T09:10:24Z</time>
      </trkpt>
      <trkpt lat="47.53456" lon="-1.74472">
        <ele>28</ele>
        <time>2022-04-02T09:10:29Z</time>
      </trkpt>
      <trkpt lat="47.53459" lon="-1.74426">
        <ele>28</ele>
        <time>2022-04-02T09:10:36Z</time>
      </trkpt>
      <trkpt lat="47.53462" lon="-1.74386">
        <ele>28.2</ele>
        <time>2022-04-02T09:10:42Z</time>
      </trkpt>
      <trkpt lat="47.53463" lon="-1.7436">
        <ele>28.2</ele>
        <time>2022-04-02T09:10:46Z</time>
      </trkpt>
      <trkpt lat="47.53464" lon="-1.74346">
        <ele>28.2</ele>
        <time>2022-04-02T09:10:48Z</time>
      </trkpt>
      <trkpt lat="47.53466" lon="-1.74299">
        <ele>28.6</ele>
        <time>2022-04-02T09:10:55Z</time>
      </trkpt>
      <trkpt lat="47.53469" lon="-1.74284">
        <ele>28.8</ele>
        <time>2022-04-02T09:10:58Z</time>
      </trkpt>
      <trkpt lat="47.53472" lon="-1.74281">
        <ele>28.8</ele>
        <time>2022-04-02T09:10:59Z</time>
      </trkpt>
      <trkpt lat="47.53484" lon="-1.74276">
        <ele>29</ele>
        <time>2022-04-02T09:11:02Z</time>
      </trkpt>
      <trkpt lat="47.53491" lon="-1.74269">
        <ele>29</ele>
        <time>2022-04-02T09:11:04Z</time>
      </trkpt>
      <trkpt lat="47.53493" lon="-1.74256">
        <ele>29.2</ele>
        <time>2022-04-02T09:11:06Z</time>
      </trkpt>
      <trkpt lat="47.53493" lon="-1.74249">
        <ele>29.2</ele>
        <time>2022-04-02T09:11:07Z</time>
      </trkpt>
      <trkpt lat="47.5349" lon="-1.74198">
        <ele>29.6</ele>
        <time>2022-04-02T09:11:14Z</time>
      </trkpt>
      <trkpt lat="47.53487" lon="-1.74147">
        <ele>29.8</ele>
        <time>2022-04-02T09:11:21Z</time>
      </trkpt>
      <trkpt lat="47.53486" lon="-1.7414">
        <ele>29.8</ele>
        <time>2022-04-02T09:11:22Z</time>
      </trkpt>
      <trkpt lat="47.53484" lon="-1.74126">
        <ele>29.8</ele>
        <time>2022-04-02T09:11:24Z</time>
      </trkpt>
      <trkpt lat="47.53483" lon="-1.74112">
        <ele>29.8</ele>
        <time>2022-04-02T09:11:26Z</time>
      </trkpt>
      <trkpt lat="47.53481" lon="-1.74061">
        <ele>29.8</ele>
        <time>2022-04-02T09:11:33Z</time>
      </trkpt>
      <trkpt lat="47.53479" lon="-1.74008">
        <ele>30</ele>
        <time>2022-04-02T09:11:40Z</time>
      </trkpt>
      <trkpt lat="47.53484" lon="-1.73952">
        <ele>29.6</ele>
        <time>2022-04-02T09:11:47Z</time>
      </trkpt>
      <trkpt lat="47.53491" lon="-1.73877">
        <ele>29.6</ele>
        <time>2022-04-02T09:11:56Z</time>
      </trkpt>
      <trkpt lat="47.53497" lon="-1.73801">
        <ele>29.8</ele>
        <time>2022-04-02T09:12:05Z</time>
      </trkpt>
      <trkpt lat="47.53502" lon="-1.7375">
        <ele>30</ele>
        <time>2022-04-02T09:12:11Z</time>
      </trkpt>
      <trkpt lat="47.53508" lon="-1.73683">
        <ele>29.8</ele>
        <time>2022-04-02T09:12:19Z</time>
      </trkpt>
      <trkpt lat="47.5351" lon="-1.73652">
        <ele>29.6</ele>
        <time>2022-04-02T09:12:23Z</time>
      </trkpt>
      <trkpt lat="47.53513" lon="-1.7363">
        <ele>29.6</ele>
        <time>2022-04-02T09:12:26Z</time>
      </trkpt>
      <trkpt lat="47.53516" lon="-1.73616">
        <ele>29.6</ele>
        <time>2022-04-02T09:12:28Z</time>
      </trkpt>
      <trkpt lat="47.53522" lon="-1.73597">
        <ele>29.8</ele>
        <time>2022-04-02T09:12:31Z</time>
      </trkpt>
      <trkpt lat="47.53524" lon="-1.73591">
        <ele>29.8</ele>
        <time>2022-04-02T09:12:32Z</time>
      </trkpt>
      <trkpt lat="47.53541" lon="-1.73565">
        <ele>29.8</ele>
        <time>2022-04-02T09:12:38Z</time>
      </trkpt>
      <trkpt lat="47.53556" lon="-1.73553">
        <ele>30</ele>
        <time>2022-04-02T09:12:42Z</time>
      </trkpt>
      <trkpt lat="47.5356" lon="-1.73551">
        <ele>30</ele>
        <time>2022-04-02T09:12:43Z</time>
      </trkpt>
      <trkpt lat="47.53592" lon="-1.73546">
        <ele>30.2</ele>
        <time>2022-04-02T09:12:51Z</time>
      </trkpt>
      <trkpt lat="47.53622" lon="-1.73548">
        <ele>30.4</ele>
        <time>2022-04-02T09:12:59Z</time>
      </trkpt>
      <trkpt lat="47.53654" lon="-1.73551">
        <ele>30.6</ele>
        <time>2022-04-02T09:13:07Z</time>
      </trkpt>
      <trkpt lat="47.53688" lon="-1.73549">
        <ele>31.2</ele>
        <time>2022-04-02T09:13:15Z</time>
      </trkpt>
      <trkpt lat="47.53722" lon="-1.73549">
        <ele>31.8</ele>
        <time>2022-04-02T09:13:23Z</time>
      </trkpt>
      <trkpt lat="47.53725" lon="-1.73549">
        <ele>31.8</ele>
        <time>2022-04-02T09:13:24Z</time>
      </trkpt>
      <trkpt lat="47.53732" lon="-1.73543">
        <ele>32</ele>
        <time>2022-04-02T09:13:26Z</time>
      </trkpt>
      <trkpt lat="47.53734" lon="-1.73533">
        <ele>32</ele>
        <time>2022-04-02T09:13:28Z</time>
      </trkpt>
      <trkpt lat="47.53734" lon="-1.73529">
        <ele>32</ele>
        <time>2022-04-02T09:13:29Z</time>
      </trkpt>
      <trkpt lat="47.53735" lon="-1.73512">
        <ele>32.4</ele>
        <time>2022-04-02T09:13:34Z</time>
      </trkpt>
      <trkpt lat="47.5374" lon="-1.73482">
        <ele>32.8</ele>
        <time>2022-04-02T09:13:42Z</time>
      </trkpt>
      <trkpt lat="47.53743" lon="-1.73456">
        <ele>33.4</ele>
        <time>2022-04-02T09:13:49Z</time>
      </trkpt>
      <trkpt lat="47.53746" lon="-1.73441">
        <ele>33.6</ele>
        <time>2022-04-02T09:13:53Z</time>
      </trkpt>
      <trkpt lat="47.5375" lon="-1.73408">
        <ele>34.2</ele>
        <time>2022-04-02T09:14:01Z</time>
      </trkpt>
      <trkpt lat="47.53757" lon="-1.73372">
        <ele>34.8</ele>
        <time>2022-04-02T09:14:09Z</time>
      </trkpt>
      <trkpt lat="47.5376" lon="-1.73349">
        <ele>35</ele>
        <time>2022-04-02T09:14:14Z</time>
      </trkpt>
      <trkpt lat="47.53761" lon="-1.73306">
        <ele>35.6</ele>
        <time>2022-04-02T09:14:22Z</time>
      </trkpt>
      <trkpt lat="47.53758" lon="-1.73272">
        <ele>36</ele>
        <time>2022-04-02T09:14:28Z</time>
      </trkpt>
      <trkpt lat="47.53758" lon="-1.73244">
        <ele>36.2</ele>
        <time>2022-04-02T09:14:33Z</time>
      </trkpt>
      <trkpt lat="47.53759" lon="-1.73204">
        <ele>36</ele>
        <time>2022-04-02T09:14:40Z</time>
      </trkpt>
      <trkpt lat="47.53759" lon="-1.73198">
        <ele>36</ele>
        <time>2022-04-02T09:14:41Z</time>
      </trkpt>
      <trkpt lat="47.53759" lon="-1.73183">
        <ele>35.8</ele>
        <time>2022-04-02T09:14:43Z</time>
      </trkpt>
      <trkpt lat="47.5376" lon="-1.73132">
        <ele>35.4</ele>
        <time>2022-04-02T09:14:49Z</time>
      </trkpt>
      <trkpt lat="47.53765" lon="-1.73069">
        <ele>34.8</ele>
        <time>2022-04-02T09:14:56Z</time>
      </trkpt>
      <trkpt lat="47.53767" lon="-1.72997">
        <ele>34.8</ele>
        <time>2022-04-02T09:15:04Z</time>
      </trkpt>
      <trkpt lat="47.53766" lon="-1.72944">
        <ele>34.6</ele>
        <time>2022-04-02T09:15:11Z</time>
      </trkpt>
      <trkpt lat="47.53762" lon="-1.72906">
        <ele>34</ele>
        <time>2022-04-02T09:15:17Z</time>
      </trkpt>
      <trkpt lat="47.53762" lon="-1.729">
        <ele>34.2</ele>
        <time>2022-04-02T09:15:18Z</time>
      </trkpt>
      <trkpt lat="47.53763" lon="-1.72886">
        <ele>34.2</ele>
        <time>2022-04-02T09:15:20Z</time>
      </trkpt>
      <trkpt lat="47.53764" lon="-1.72879">
        <ele>34.4</ele>
        <time>2022-04-02T09:15:21Z</time>
      </trkpt>
      <trkpt lat="47.53767" lon="-1.7283">
        <ele>34.8</ele>
        <time>2022-04-02T09:15:28Z</time>
      </trkpt>
      <trkpt lat="47.53768" lon="-1.72823">
        <ele>35</ele>
        <time>2022-04-02T09:15:29Z</time>
      </trkpt>
      <trkpt lat="47.53775" lon="-1.7279">
        <ele>34.8</ele>
        <time>2022-04-02T09:15:34Z</time>
      </trkpt>
      <trkpt lat="47.53778" lon="-1.72777">
        <ele>35</ele>
        <time>2022-04-02T09:15:36Z</time>
      </trkpt>
      <trkpt lat="47.53787" lon="-1.72755">
        <ele>35</ele>
        <time>2022-04-02T09:15:40Z</time>
      </trkpt>
      <trkpt lat="47.53798" lon="-1.72736">
        <ele>35.2</ele>
        <time>2022-04-02T09:15:44Z</time>
      </trkpt>
      <trkpt lat="47.53811" lon="-1.7272">
        <ele>35.4</ele>
        <time>2022-04-02T09:15:48Z</time>
      </trkpt>
      <trkpt lat="47.53821" lon="-1.72708">
        <ele>35.6</ele>
        <time>2022-04-02T09:15:51Z</time>
      </trkpt>
      <trkpt lat="47.53827" lon="-1.727">
        <ele>35.8</ele>
        <time>2022-04-02T09:15:53Z</time>
      </trkpt>
      <trkpt lat="47.53836" lon="-1.7269">
        <ele>36</ele>
        <time>2022-04-02T09:15:56Z</time>
      </trkpt>
      <trkpt lat="47.53851" lon="-1.72671">
        <ele>36.2</ele>
        <time>2022-04-02T09:16:01Z</time>
      </trkpt>
      <trkpt lat="47.53872" lon="-1.72645">
        <ele>36.8</ele>
        <time>2022-04-02T09:16:08Z</time>
      </trkpt>
      <trkpt lat="47.53891" lon="-1.72622">
        <ele>37.2</ele>
        <time>2022-04-02T09:16:14Z</time>
      </trkpt>
      <trkpt lat="47.53898" lon="-1.72615">
        <ele>37.4</ele>
        <time>2022-04-02T09:16:16Z</time>
      </trkpt>
      <trkpt lat="47.53903" lon="-1.72608">
        <ele>37.6</ele>
        <time>2022-04-02T09:16:18Z</time>
      </trkpt>
      <trkpt lat="47.53915" lon="-1.72593">
        <ele>38</ele>
        <time>2022-04-02T09:16:22Z</time>
      </trkpt>
      <trkpt lat="47.53924" lon="-1.72579">
        <ele>38.2</ele>
        <time>2022-04-02T09:16:26Z</time>
      </trkpt>
      <trkpt lat="47.53935" lon="-1.7256">
        <ele>38.6</ele>
        <time>2022-04-02T09:16:31Z</time>
      </trkpt>
      <trkpt lat="47.53949" lon="-1.72531">
        <ele>39</ele>
        <time>2022-04-02T09:16:37Z</time>
      </trkpt>
      <trkpt lat="47.53965" lon="-1.72496">
        <ele>40</ele>
        <time>2022-04-02T09:16:45Z</time>
      </trkpt>
      <trkpt lat="47.53976" lon="-1.72471">
        <ele>40.6</ele>
        <time>2022-04-02T09:16:51Z</time>
      </trkpt>
      <trkpt lat="47.53985" lon="-1.7245">
        <ele>41</ele>
        <time>2022-04-02T09:16:56Z</time>
      </trkpt>
      <trkpt lat="47.53994" lon="-1.7243">
        <ele>41.4</ele>
        <time>2022-04-02T09:17:01Z</time>
      </trkpt>
      <trkpt lat="47.54009" lon="-1.72393">
        <ele>42.4</ele>
        <time>2022-04-02T09:17:10Z</time>
      </trkpt>
      <trkpt lat="47.54012" lon="-1.7238">
        <ele>42.8</ele>
        <time>2022-04-02T09:17:13Z</time>
      </trkpt>
      <trkpt lat="47.54012" lon="-1.72371">
        <ele>43</ele>
        <time>2022-04-02T09:17:15Z</time>
      </trkpt>
      <trkpt lat="47.54009" lon="-1.72349">
        <ele>43.4</ele>
        <time>2022-04-02T09:17:20Z</time>
      </trkpt>
      <trkpt lat="47.54007" lon="-1.72316">
        <ele>44</ele>
        <time>2022-04-02T09:17:27Z</time>
      </trkpt>
      <trkpt lat="47.54004" lon="-1.72279">
        <ele>44</ele>
        <time>2022-04-02T09:17:35Z</time>
      </trkpt>
      <trkpt lat="47.54002" lon="-1.72244">
        <ele>44.2</ele>
        <time>2022-04-02T09:17:42Z</time>
      </trkpt>
      <trkpt lat="47.53998" lon="-1.7221">
        <ele>44.6</ele>
        <time>2022-04-02T09:17:49Z</time>
      </trkpt>
      <trkpt lat="47.53996" lon="-1.72181">
        <ele>44.8</ele>
        <time>2022-04-02T09:17:55Z</time>
      </trkpt>
      <trkpt lat="47.53992" lon="-1.72145">
        <ele>45</ele>
        <time>2022-04-02T09:18:02Z</time>
      </trkpt>
      <trkpt lat="47.53991" lon="-1.72105">
        <ele>45.6</ele>
        <time>2022-04-02T09:18:09Z</time>
      </trkpt>
      <trkpt lat="47.53988" lon="-1.72072">
        <ele>46</ele>
        <time>2022-04-02T09:18:15Z</time>
      </trkpt>
      <trkpt lat="47.53983" lon="-1.7203">
        <ele>46.6</ele>
        <time>2022-04-02T09:18:23Z</time>
      </trkpt>
      <trkpt lat="47.53975" lon="-1.71996">
        <ele>46.8</ele>
        <time>2022-04-02T09:18:30Z</time>
      </trkpt>
      <trkpt lat="47.5396" lon="-1.71948">
        <ele>47.2</ele>
        <time>2022-04-02T09:18:39Z</time>
      </trkpt>
      <trkpt lat="47.53946" lon="-1.71918">
        <ele>47.2</ele>
        <time>2022-04-02T09:18:45Z</time>
      </trkpt>
      <trkpt lat="47.53943" lon="-1.71912">
        <ele>47.2</ele>
        <time>2022-04-02T09:18:46Z</time>
      </trkpt>
      <trkpt lat="47.53933" lon="-1.71878">
        <ele>47.8</ele>
        <time>2022-04-02T09:18:51Z</time>
      </trkpt>
      <trkpt lat="47.53923" lon="-1.71836">
        <ele>48.2</ele>
        <time>2022-04-02T09:18:57Z</time>
      </trkpt>
      <trkpt lat="47.53916" lon="-1.71778">
        <ele>48.4</ele>
        <time>2022-04-02T09:19:04Z</time>
      </trkpt>
      <trkpt lat="47.53909" lon="-1.71722">
        <ele>48.2</ele>
        <time>2022-04-02T09:19:10Z</time>
      </trkpt>
      <trkpt lat="47.53905" lon="-1.71692">
        <ele>48</ele>
        <time>2022-04-02T09:19:13Z</time>
      </trkpt>
      <trkpt lat="47.53905" lon="-1.71682">
        <ele>48.8</ele>
        <time>2022-04-02T09:19:14Z</time>
      </trkpt>
      <trkpt lat="47.53903" lon="-1.71645">
        <ele>48.4</ele>
        <time>2022-04-02T09:19:18Z</time>
      </trkpt>
      <trkpt lat="47.53903" lon="-1.71636">
        <ele>48.2</ele>
        <time>2022-04-02T09:19:19Z</time>
      </trkpt>
      <trkpt lat="47.53905" lon="-1.71576">
        <ele>48</ele>
        <time>2022-04-02T09:19:26Z</time>
      </trkpt>
      <trkpt lat="47.53897" lon="-1.7149">
        <ele>47.8</ele>
        <time>2022-04-02T09:19:36Z</time>
      </trkpt>
      <trkpt lat="47.53892" lon="-1.71424">
        <ele>48.2</ele>
        <time>2022-04-02T09:19:43Z</time>
      </trkpt>
      <trkpt lat="47.53887" lon="-1.71375">
        <ele>48</ele>
        <time>2022-04-02T09:19:49Z</time>
      </trkpt>
      <trkpt lat="47.53887" lon="-1.7136">
        <ele>47.8</ele>
        <time>2022-04-02T09:19:52Z</time>
      </trkpt>
      <trkpt lat="47.53903" lon="-1.71346">
        <ele>47.8</ele>
        <time>2022-04-02T09:19:56Z</time>
      </trkpt>
      <trkpt lat="47.53926" lon="-1.71328">
        <ele>47.8</ele>
        <time>2022-04-02T09:20:01Z</time>
      </trkpt>
      <trkpt lat="47.53936" lon="-1.71321">
        <ele>47.8</ele>
        <time>2022-04-02T09:20:03Z</time>
      </trkpt>
      <trkpt lat="47.5396" lon="-1.71301">
        <ele>48.2</ele>
        <time>2022-04-02T09:20:08Z</time>
      </trkpt>
      <trkpt lat="47.53964" lon="-1.71296">
        <ele>48.2</ele>
        <time>2022-04-02T09:20:09Z</time>
      </trkpt>
      <trkpt lat="47.54013" lon="-1.71258">
        <ele>47.8</ele>
        <time>2022-04-02T09:20:18Z</time>
      </trkpt>
      <trkpt lat="47.54018" lon="-1.71254">
        <ele>47.8</ele>
        <time>2022-04-02T09:20:19Z</time>
      </trkpt>
      <trkpt lat="47.54067" lon="-1.71214">
        <ele>47.8</ele>
        <time>2022-04-02T09:20:28Z</time>
      </trkpt>
      <trkpt lat="47.54072" lon="-1.7121">
        <ele>47.8</ele>
        <time>2022-04-02T09:20:29Z</time>
      </trkpt>
      <trkpt lat="47.54112" lon="-1.71179">
        <ele>47.6</ele>
        <time>2022-04-02T09:20:36Z</time>
      </trkpt>
      <trkpt lat="47.54152" lon="-1.71145">
        <ele>47.4</ele>
        <time>2022-04-02T09:20:43Z</time>
      </trkpt>
      <trkpt lat="47.54199" lon="-1.71108">
        <ele>47.2</ele>
        <time>2022-04-02T09:20:51Z</time>
      </trkpt>
      <trkpt lat="47.54237" lon="-1.71077">
        <ele>47.2</ele>
        <time>2022-04-02T09:20:58Z</time>
      </trkpt>
      <trkpt lat="47.54274" lon="-1.71047">
        <ele>47</ele>
        <time>2022-04-02T09:21:05Z</time>
      </trkpt>
      <trkpt lat="47.54308" lon="-1.71018">
        <ele>47</ele>
        <time>2022-04-02T09:21:12Z</time>
      </trkpt>
      <trkpt lat="47.54341" lon="-1.7099">
        <ele>47.4</ele>
        <time>2022-04-02T09:21:20Z</time>
      </trkpt>
      <trkpt lat="47.5437" lon="-1.70965">
        <ele>47.4</ele>
        <time>2022-04-02T09:21:28Z</time>
      </trkpt>
      <trkpt lat="47.54394" lon="-1.70944">
        <ele>47.8</ele>
        <time>2022-04-02T09:21:35Z</time>
      </trkpt>
      <trkpt lat="47.54415" lon="-1.70923">
        <ele>48.2</ele>
        <time>2022-04-02T09:21:42Z</time>
      </trkpt>
      <trkpt lat="47.54443" lon="-1.70894">
        <ele>48.8</ele>
        <time>2022-04-02T09:21:51Z</time>
      </trkpt>
      <trkpt lat="47.54461" lon="-1.70875">
        <ele>49</ele>
        <time>2022-04-02T09:21:57Z</time>
      </trkpt>
      <trkpt lat="47.54468" lon="-1.70866">
        <ele>49.2</ele>
        <time>2022-04-02T09:22:00Z</time>
      </trkpt>
      <trkpt lat="47.54483" lon="-1.7085">
        <ele>49.4</ele>
        <time>2022-04-02T09:22:05Z</time>
      </trkpt>
      <trkpt lat="47.54503" lon="-1.70828">
        <ele>49.6</ele>
        <time>2022-04-02T09:22:11Z</time>
      </trkpt>
      <trkpt lat="47.54527" lon="-1.70801">
        <ele>50</ele>
        <time>2022-04-02T09:22:18Z</time>
      </trkpt>
      <trkpt lat="47.54543" lon="-1.70783">
        <ele>50.6</ele>
        <time>2022-04-02T09:22:23Z</time>
      </trkpt>
      <trkpt lat="47.54546" lon="-1.7078">
        <ele>50.8</ele>
        <time>2022-04-02T09:22:24Z</time>
      </trkpt>
      <trkpt lat="47.54559" lon="-1.70765">
        <ele>51</ele>
        <time>2022-04-02T09:22:28Z</time>
      </trkpt>
      <trkpt lat="47.54574" lon="-1.70748">
        <ele>51.4</ele>
        <time>2022-04-02T09:22:33Z</time>
      </trkpt>
      <trkpt lat="47.54592" lon="-1.70729">
        <ele>51.8</ele>
        <time>2022-04-02T09:22:39Z</time>
      </trkpt>
      <trkpt lat="47.54609" lon="-1.70712">
        <ele>52.2</ele>
        <time>2022-04-02T09:22:45Z</time>
      </trkpt>
      <trkpt lat="47.54625" lon="-1.70694">
        <ele>52.8</ele>
        <time>2022-04-02T09:22:51Z</time>
      </trkpt>
      <trkpt lat="47.54639" lon="-1.70678">
        <ele>53.2</ele>
        <time>2022-04-02T09:22:57Z</time>
      </trkpt>
      <trkpt lat="47.54649" lon="-1.70667">
        <ele>53.6</ele>
        <time>2022-04-02T09:23:01Z</time>
      </trkpt>
      <trkpt lat="47.5466" lon="-1.70655">
        <ele>54</ele>
        <time>2022-04-02T09:23:05Z</time>
      </trkpt>
      <trkpt lat="47.54681" lon="-1.70636">
        <ele>55</ele>
        <time>2022-04-02T09:23:13Z</time>
      </trkpt>
      <trkpt lat="47.54698" lon="-1.7062">
        <ele>55.8</ele>
        <time>2022-04-02T09:23:21Z</time>
      </trkpt>
      <trkpt lat="47.54707" lon="-1.70612">
        <ele>56.4</ele>
        <time>2022-04-02T09:23:26Z</time>
      </trkpt>
      <trkpt lat="47.54719" lon="-1.70602">
        <ele>57.2</ele>
        <time>2022-04-02T09:23:32Z</time>
      </trkpt>
      <trkpt lat="47.5473" lon="-1.70592">
        <ele>58</ele>
        <time>2022-04-02T09:23:37Z</time>
      </trkpt>
      <trkpt lat="47.54747" lon="-1.70579">
        <ele>59</ele>
        <time>2022-04-02T09:23:45Z</time>
      </trkpt>
      <trkpt lat="47.54758" lon="-1.70569">
        <ele>59.8</ele>
        <time>2022-04-02T09:23:50Z</time>
      </trkpt>
      <trkpt lat="47.54775" lon="-1.70557">
        <ele>61</ele>
        <time>2022-04-02T09:23:57Z</time>
      </trkpt>
      <trkpt lat="47.54784" lon="-1.7055">
        <ele>61.8</ele>
        <time>2022-04-02T09:24:02Z</time>
      </trkpt>
      <trkpt lat="47.54799" lon="-1.7054">
        <ele>62.6</ele>
        <time>2022-04-02T09:24:09Z</time>
      </trkpt>
      <trkpt lat="47.54808" lon="-1.70533">
        <ele>63</ele>
        <time>2022-04-02T09:24:13Z</time>
      </trkpt>
      <trkpt lat="47.54819" lon="-1.70524">
        <ele>63.2</ele>
        <time>2022-04-02T09:24:17Z</time>
      </trkpt>
      <trkpt lat="47.54828" lon="-1.70517">
        <ele>63.6</ele>
        <time>2022-04-02T09:24:21Z</time>
      </trkpt>
      <trkpt lat="47.54835" lon="-1.70503">
        <ele>64</ele>
        <time>2022-04-02T09:24:26Z</time>
      </trkpt>
      <trkpt lat="47.54835" lon="-1.705">
        <ele>64</ele>
        <time>2022-04-02T09:24:27Z</time>
      </trkpt>
      <trkpt lat="47.54835" lon="-1.70492">
        <ele>64.2</ele>
        <time>2022-04-02T09:24:31Z</time>
      </trkpt>
      <trkpt lat="47.54837" lon="-1.70491">
        <ele>69</ele>
        <time>2022-04-02T09:27:53Z</time>
      </trkpt>
      <trkpt lat="47.54838" lon="-1.70483">
        <ele>69</ele>
        <time>2022-04-02T09:27:55Z</time>
      </trkpt>
      <trkpt lat="47.54842" lon="-1.70457">
        <ele>69.2</ele>
        <time>2022-04-02T09:28:00Z</time>
      </trkpt>
      <trkpt lat="47.54848" lon="-1.70422">
        <ele>69.4</ele>
        <time>2022-04-02T09:28:06Z</time>
      </trkpt>
      <trkpt lat="47.54852" lon="-1.70395">
        <ele>69.6</ele>
        <time>2022-04-02T09:28:10Z</time>
      </trkpt>
      <trkpt lat="47.54854" lon="-1.7038">
        <ele>69.8</ele>
        <time>2022-04-02T09:28:12Z</time>
      </trkpt>
      <trkpt lat="47.54863" lon="-1.70326">
        <ele>69.8</ele>
        <time>2022-04-02T09:28:19Z</time>
      </trkpt>
      <trkpt lat="47.54873" lon="-1.7027">
        <ele>69.6</ele>
        <time>2022-04-02T09:28:26Z</time>
      </trkpt>
      <trkpt lat="47.5488" lon="-1.70224">
        <ele>69.4</ele>
        <time>2022-04-02T09:28:32Z</time>
      </trkpt>
      <trkpt lat="47.5489" lon="-1.70174">
        <ele>69</ele>
        <time>2022-04-02T09:28:38Z</time>
      </trkpt>
      <trkpt lat="47.54905" lon="-1.70114">
        <ele>68.6</ele>
        <time>2022-04-02T09:28:45Z</time>
      </trkpt>
      <trkpt lat="47.54919" lon="-1.70063">
        <ele>68.2</ele>
        <time>2022-04-02T09:28:51Z</time>
      </trkpt>
      <trkpt lat="47.54933" lon="-1.70004">
        <ele>68</ele>
        <time>2022-04-02T09:28:58Z</time>
      </trkpt>
      <trkpt lat="47.54943" lon="-1.69963">
        <ele>67.8</ele>
        <time>2022-04-02T09:29:03Z</time>
      </trkpt>
      <trkpt lat="47.54947" lon="-1.69947">
        <ele>67.8</ele>
        <time>2022-04-02T09:29:05Z</time>
      </trkpt>
      <trkpt lat="47.54956" lon="-1.69892">
        <ele>67.8</ele>
        <time>2022-04-02T09:29:12Z</time>
      </trkpt>
      <trkpt lat="47.5496" lon="-1.69861">
        <ele>68.4</ele>
        <time>2022-04-02T09:29:16Z</time>
      </trkpt>
      <trkpt lat="47.54961" lon="-1.69838">
        <ele>68.4</ele>
        <time>2022-04-02T09:29:19Z</time>
      </trkpt>
      <trkpt lat="47.54959" lon="-1.69794">
        <ele>68.8</ele>
        <time>2022-04-02T09:29:25Z</time>
      </trkpt>
      <trkpt lat="47.54955" lon="-1.6974">
        <ele>69.2</ele>
        <time>2022-04-02T09:29:33Z</time>
      </trkpt>
      <trkpt lat="47.54954" lon="-1.69734">
        <ele>69.4</ele>
        <time>2022-04-02T09:29:34Z</time>
      </trkpt>
      <trkpt lat="47.54948" lon="-1.69724">
        <ele>69.4</ele>
        <time>2022-04-02T09:29:36Z</time>
      </trkpt>
      <trkpt lat="47.54926" lon="-1.69703">
        <ele>69.8</ele>
        <time>2022-04-02T09:29:42Z</time>
      </trkpt>
      <trkpt lat="47.54905" lon="-1.69683">
        <ele>70</ele>
        <time>2022-04-02T09:29:48Z</time>
      </trkpt>
      <trkpt lat="47.54876" lon="-1.69657">
        <ele>70.2</ele>
        <time>2022-04-02T09:29:56Z</time>
      </trkpt>
      <trkpt lat="47.5485" lon="-1.69633">
        <ele>70.2</ele>
        <time>2022-04-02T09:30:03Z</time>
      </trkpt>
      <trkpt lat="47.54822" lon="-1.6961">
        <ele>70.2</ele>
        <time>2022-04-02T09:30:10Z</time>
      </trkpt>
      <trkpt lat="47.54793" lon="-1.69586">
        <ele>70.2</ele>
        <time>2022-04-02T09:30:17Z</time>
      </trkpt>
      <trkpt lat="47.54764" lon="-1.69563">
        <ele>70.6</ele>
        <time>2022-04-02T09:30:24Z</time>
      </trkpt>
      <trkpt lat="47.54742" lon="-1.69545">
        <ele>70.8</ele>
        <time>2022-04-02T09:30:29Z</time>
      </trkpt>
      <trkpt lat="47.54738" lon="-1.69541">
        <ele>70.8</ele>
        <time>2022-04-02T09:30:30Z</time>
      </trkpt>
      <trkpt lat="47.54714" lon="-1.69521">
        <ele>71</ele>
        <time>2022-04-02T09:30:36Z</time>
      </trkpt>
      <trkpt lat="47.54699" lon="-1.69509">
        <ele>71</ele>
        <time>2022-04-02T09:30:40Z</time>
      </trkpt>
      <trkpt lat="47.54691" lon="-1.69508">
        <ele>71.2</ele>
        <time>2022-04-02T09:30:42Z</time>
      </trkpt>
      <trkpt lat="47.54689" lon="-1.69504">
        <ele>71.2</ele>
        <time>2022-04-02T09:30:43Z</time>
      </trkpt>
      <trkpt lat="47.54685" lon="-1.69491">
        <ele>71.4</ele>
        <time>2022-04-02T09:30:45Z</time>
      </trkpt>
      <trkpt lat="47.54679" lon="-1.6948">
        <ele>71.4</ele>
        <time>2022-04-02T09:30:47Z</time>
      </trkpt>
      <trkpt lat="47.54672" lon="-1.69469">
        <ele>71.4</ele>
        <time>2022-04-02T09:30:49Z</time>
      </trkpt>
      <trkpt lat="47.54665" lon="-1.6946">
        <ele>71.4</ele>
        <time>2022-04-02T09:30:51Z</time>
      </trkpt>
      <trkpt lat="47.54657" lon="-1.69449">
        <ele>71.2</ele>
        <time>2022-04-02T09:30:53Z</time>
      </trkpt>
      <trkpt lat="47.5465" lon="-1.69436">
        <ele>71.4</ele>
        <time>2022-04-02T09:30:55Z</time>
      </trkpt>
      <trkpt lat="47.54644" lon="-1.69423">
        <ele>70.8</ele>
        <time>2022-04-02T09:30:57Z</time>
      </trkpt>
      <trkpt lat="47.54634" lon="-1.69405">
        <ele>70.8</ele>
        <time>2022-04-02T09:31:00Z</time>
      </trkpt>
      <trkpt lat="47.54628" lon="-1.69395">
        <ele>70.8</ele>
        <time>2022-04-02T09:31:02Z</time>
      </trkpt>
      <trkpt lat="47.54621" lon="-1.69389">
        <ele>70.6</ele>
        <time>2022-04-02T09:31:04Z</time>
      </trkpt>
      <trkpt lat="47.54615" lon="-1.69379">
        <ele>70.2</ele>
        <time>2022-04-02T09:31:06Z</time>
      </trkpt>
      <trkpt lat="47.54613" lon="-1.69374">
        <ele>70.2</ele>
        <time>2022-04-02T09:31:07Z</time>
      </trkpt>
      <trkpt lat="47.54605" lon="-1.69355">
        <ele>70</ele>
        <time>2022-04-02T09:31:11Z</time>
      </trkpt>
      <trkpt lat="47.54602" lon="-1.6935">
        <ele>69.8</ele>
        <time>2022-04-02T09:31:12Z</time>
      </trkpt>
      <trkpt lat="47.54594" lon="-1.69333">
        <ele>69.6</ele>
        <time>2022-04-02T09:31:15Z</time>
      </trkpt>
      <trkpt lat="47.54591" lon="-1.69327">
        <ele>69.4</ele>
        <time>2022-04-02T09:31:16Z</time>
      </trkpt>
      <trkpt lat="47.54578" lon="-1.693">
        <ele>69.2</ele>
        <time>2022-04-02T09:31:20Z</time>
      </trkpt>
      <trkpt lat="47.54564" lon="-1.69273">
        <ele>69.2</ele>
        <time>2022-04-02T09:31:24Z</time>
      </trkpt>
      <trkpt lat="47.54562" lon="-1.69265">
        <ele>69</ele>
        <time>2022-04-02T09:31:25Z</time>
      </trkpt>
      <trkpt lat="47.54561" lon="-1.69258">
        <ele>69</ele>
        <time>2022-04-02T09:31:26Z</time>
      </trkpt>
      <trkpt lat="47.54564" lon="-1.69242">
        <ele>69</ele>
        <time>2022-04-02T09:31:28Z</time>
      </trkpt>
      <trkpt lat="47.54574" lon="-1.69223">
        <ele>69</ele>
        <time>2022-04-02T09:31:31Z</time>
      </trkpt>
      <trkpt lat="47.54578" lon="-1.69219">
        <ele>69</ele>
        <time>2022-04-02T09:31:32Z</time>
      </trkpt>
      <trkpt lat="47.54583" lon="-1.69215">
        <ele>68.8</ele>
        <time>2022-04-02T09:31:33Z</time>
      </trkpt>
      <trkpt lat="47.54593" lon="-1.6921">
        <ele>68.8</ele>
        <time>2022-04-02T09:31:35Z</time>
      </trkpt>
      <trkpt lat="47.54598" lon="-1.69208">
        <ele>69</ele>
        <time>2022-04-02T09:31:36Z</time>
      </trkpt>
      <trkpt lat="47.54616" lon="-1.69203">
        <ele>68.8</ele>
        <time>2022-04-02T09:31:40Z</time>
      </trkpt>
      <trkpt lat="47.54622" lon="-1.69193">
        <ele>69.2</ele>
        <time>2022-04-02T09:31:42Z</time>
      </trkpt>
      <trkpt lat="47.54623" lon="-1.69178">
        <ele>69.4</ele>
        <time>2022-04-02T09:31:44Z</time>
      </trkpt>
      <trkpt lat="47.54622" lon="-1.6917">
        <ele>69.4</ele>
        <time>2022-04-02T09:31:45Z</time>
      </trkpt>
      <trkpt lat="47.5462" lon="-1.69162">
        <ele>69.2</ele>
        <time>2022-04-02T09:31:46Z</time>
      </trkpt>
      <trkpt lat="47.54618" lon="-1.69147">
        <ele>68.8</ele>
        <time>2022-04-02T09:31:48Z</time>
      </trkpt>
      <trkpt lat="47.54618" lon="-1.69128">
        <ele>69</ele>
        <time>2022-04-02T09:31:50Z</time>
      </trkpt>
      <trkpt lat="47.54618" lon="-1.6911">
        <ele>69</ele>
        <time>2022-04-02T09:31:52Z</time>
      </trkpt>
      <trkpt lat="47.54618" lon="-1.69101">
        <ele>69</ele>
        <time>2022-04-02T09:31:53Z</time>
      </trkpt>
      <trkpt lat="47.54619" lon="-1.69083">
        <ele>68.8</ele>
        <time>2022-04-02T09:31:55Z</time>
      </trkpt>
      <trkpt lat="47.54621" lon="-1.69074">
        <ele>68.8</ele>
        <time>2022-04-02T09:31:56Z</time>
      </trkpt>
      <trkpt lat="47.54624" lon="-1.69066">
        <ele>68.8</ele>
        <time>2022-04-02T09:31:57Z</time>
      </trkpt>
      <trkpt lat="47.54634" lon="-1.69053">
        <ele>68.8</ele>
        <time>2022-04-02T09:31:59Z</time>
      </trkpt>
      <trkpt lat="47.5464" lon="-1.6904">
        <ele>68.6</ele>
        <time>2022-04-02T09:32:01Z</time>
      </trkpt>
      <trkpt lat="47.54641" lon="-1.69033">
        <ele>68.8</ele>
        <time>2022-04-02T09:32:02Z</time>
      </trkpt>
      <trkpt lat="47.54646" lon="-1.69">
        <ele>69</ele>
        <time>2022-04-02T09:32:06Z</time>
      </trkpt>
      <trkpt lat="47.5465" lon="-1.68993">
        <ele>69</ele>
        <time>2022-04-02T09:32:07Z</time>
      </trkpt>
      <trkpt lat="47.54655" lon="-1.6899">
        <ele>69</ele>
        <time>2022-04-02T09:32:08Z</time>
      </trkpt>
      <trkpt lat="47.54667" lon="-1.68985">
        <ele>69</ele>
        <time>2022-04-02T09:32:10Z</time>
      </trkpt>
      <trkpt lat="47.54696" lon="-1.68969">
        <ele>68.6</ele>
        <time>2022-04-02T09:32:15Z</time>
      </trkpt>
      <trkpt lat="47.547" lon="-1.68964">
        <ele>68.6</ele>
        <time>2022-04-02T09:32:16Z</time>
      </trkpt>
      <trkpt lat="47.54704" lon="-1.68958">
        <ele>68.6</ele>
        <time>2022-04-02T09:32:17Z</time>
      </trkpt>
      <trkpt lat="47.5471" lon="-1.68941">
        <ele>68.6</ele>
        <time>2022-04-02T09:32:19Z</time>
      </trkpt>
      <trkpt lat="47.54713" lon="-1.68921">
        <ele>68.8</ele>
        <time>2022-04-02T09:32:21Z</time>
      </trkpt>
      <trkpt lat="47.54713" lon="-1.68901">
        <ele>68.6</ele>
        <time>2022-04-02T09:32:23Z</time>
      </trkpt>
      <trkpt lat="47.54712" lon="-1.68848">
        <ele>68.4</ele>
        <time>2022-04-02T09:32:28Z</time>
      </trkpt>
      <trkpt lat="47.54716" lon="-1.68827">
        <ele>68</ele>
        <time>2022-04-02T09:32:30Z</time>
      </trkpt>
      <trkpt lat="47.5472" lon="-1.68819">
        <ele>68</ele>
        <time>2022-04-02T09:32:31Z</time>
      </trkpt>
      <trkpt lat="47.54725" lon="-1.68811">
        <ele>67.8</ele>
        <time>2022-04-02T09:32:32Z</time>
      </trkpt>
      <trkpt lat="47.5474" lon="-1.6879">
        <ele>67.8</ele>
        <time>2022-04-02T09:32:35Z</time>
      </trkpt>
      <trkpt lat="47.54745" lon="-1.68784">
        <ele>67.8</ele>
        <time>2022-04-02T09:32:36Z</time>
      </trkpt>
      <trkpt lat="47.54757" lon="-1.68765">
        <ele>67.8</ele>
        <time>2022-04-02T09:32:39Z</time>
      </trkpt>
      <trkpt lat="47.54785" lon="-1.68725">
        <ele>67.8</ele>
        <time>2022-04-02T09:32:45Z</time>
      </trkpt>
      <trkpt lat="47.54793" lon="-1.68712">
        <ele>67.8</ele>
        <time>2022-04-02T09:32:47Z</time>
      </trkpt>
      <trkpt lat="47.54802" lon="-1.68695">
        <ele>68</ele>
        <time>2022-04-02T09:32:50Z</time>
      </trkpt>
      <trkpt lat="47.54821" lon="-1.68659">
        <ele>68.4</ele>
        <time>2022-04-02T09:32:56Z</time>
      </trkpt>
      <trkpt lat="47.54824" lon="-1.68653">
        <ele>68.4</ele>
        <time>2022-04-02T09:32:57Z</time>
      </trkpt>
      <trkpt lat="47.54834" lon="-1.68631">
        <ele>68.4</ele>
        <time>2022-04-02T09:33:01Z</time>
      </trkpt>
      <trkpt lat="47.54837" lon="-1.68625">
        <ele>68.4</ele>
        <time>2022-04-02T09:33:02Z</time>
      </trkpt>
      <trkpt lat="47.54848" lon="-1.68606">
        <ele>68</ele>
        <time>2022-04-02T09:33:06Z</time>
      </trkpt>
      <trkpt lat="47.54851" lon="-1.68601">
        <ele>68.2</ele>
        <time>2022-04-02T09:33:07Z</time>
      </trkpt>
      <trkpt lat="47.54863" lon="-1.68579">
        <ele>68.2</ele>
        <time>2022-04-02T09:33:12Z</time>
      </trkpt>
      <trkpt lat="47.54878" lon="-1.68552">
        <ele>68.4</ele>
        <time>2022-04-02T09:33:18Z</time>
      </trkpt>
      <trkpt lat="47.54887" lon="-1.68537">
        <ele>68.4</ele>
        <time>2022-04-02T09:33:22Z</time>
      </trkpt>
      <trkpt lat="47.54896" lon="-1.68517">
        <ele>68.4</ele>
        <time>2022-04-02T09:33:27Z</time>
      </trkpt>
      <trkpt lat="47.54905" lon="-1.68491">
        <ele>68.4</ele>
        <time>2022-04-02T09:33:33Z</time>
      </trkpt>
      <trkpt lat="47.54914" lon="-1.68462">
        <ele>69</ele>
        <time>2022-04-02T09:33:40Z</time>
      </trkpt>
      <trkpt lat="47.54922" lon="-1.68432">
        <ele>69.4</ele>
        <time>2022-04-02T09:33:47Z</time>
      </trkpt>
      <trkpt lat="47.5493" lon="-1.68398">
        <ele>70</ele>
        <time>2022-04-02T09:33:54Z</time>
      </trkpt>
      <trkpt lat="47.54934" lon="-1.6837">
        <ele>70.6</ele>
        <time>2022-04-02T09:34:00Z</time>
      </trkpt>
      <trkpt lat="47.54933" lon="-1.68349">
        <ele>70.6</ele>
        <time>2022-04-02T09:34:05Z</time>
      </trkpt>
      <trkpt lat="47.54934" lon="-1.6834">
        <ele>70.6</ele>
        <time>2022-04-02T09:34:07Z</time>
      </trkpt>
      <trkpt lat="47.54933" lon="-1.68332">
        <ele>70.6</ele>
        <time>2022-04-02T09:34:09Z</time>
      </trkpt>
      <trkpt lat="47.54934" lon="-1.68298">
        <ele>70.8</ele>
        <time>2022-04-02T09:34:16Z</time>
      </trkpt>
      <trkpt lat="47.54936" lon="-1.68265">
        <ele>71.2</ele>
        <time>2022-04-02T09:34:23Z</time>
      </trkpt>
      <trkpt lat="47.54938" lon="-1.6824">
        <ele>71.4</ele>
        <time>2022-04-02T09:34:28Z</time>
      </trkpt>
      <trkpt lat="47.54939" lon="-1.68213">
        <ele>71.6</ele>
        <time>2022-04-02T09:34:33Z</time>
      </trkpt>
      <trkpt lat="47.54941" lon="-1.68182">
        <ele>72</ele>
        <time>2022-04-02T09:34:39Z</time>
      </trkpt>
      <trkpt lat="47.54946" lon="-1.68142">
        <ele>72</ele>
        <time>2022-04-02T09:34:46Z</time>
      </trkpt>
      <trkpt lat="47.54952" lon="-1.68105">
        <ele>72.4</ele>
        <time>2022-04-02T09:34:53Z</time>
      </trkpt>
      <trkpt lat="47.54959" lon="-1.68085">
        <ele>72.6</ele>
        <time>2022-04-02T09:34:58Z</time>
      </trkpt>
      <trkpt lat="47.54971" lon="-1.68064">
        <ele>73</ele>
        <time>2022-04-02T09:35:04Z</time>
      </trkpt>
      <trkpt lat="47.54981" lon="-1.68047">
        <ele>73.4</ele>
        <time>2022-04-02T09:35:09Z</time>
      </trkpt>
      <trkpt lat="47.54992" lon="-1.68026">
        <ele>73.2</ele>
        <time>2022-04-02T09:35:15Z</time>
      </trkpt>
      <trkpt lat="47.55005" lon="-1.68002">
        <ele>73.2</ele>
        <time>2022-04-02T09:35:21Z</time>
      </trkpt>
      <trkpt lat="47.55019" lon="-1.67976">
        <ele>73.2</ele>
        <time>2022-04-02T09:35:27Z</time>
      </trkpt>
      <trkpt lat="47.5503" lon="-1.67955">
        <ele>73</ele>
        <time>2022-04-02T09:35:32Z</time>
      </trkpt>
      <trkpt lat="47.55041" lon="-1.67933">
        <ele>73</ele>
        <time>2022-04-02T09:35:37Z</time>
      </trkpt>
      <trkpt lat="47.55062" lon="-1.67895">
        <ele>73</ele>
        <time>2022-04-02T09:35:45Z</time>
      </trkpt>
      <trkpt lat="47.55073" lon="-1.67871">
        <ele>73.4</ele>
        <time>2022-04-02T09:35:50Z</time>
      </trkpt>
      <trkpt lat="47.55088" lon="-1.67842">
        <ele>73.6</ele>
        <time>2022-04-02T09:35:56Z</time>
      </trkpt>
      <trkpt lat="47.55104" lon="-1.67811">
        <ele>73.6</ele>
        <time>2022-04-02T09:36:02Z</time>
      </trkpt>
      <trkpt lat="47.55113" lon="-1.67795">
        <ele>73.8</ele>
        <time>2022-04-02T09:36:05Z</time>
      </trkpt>
      <trkpt lat="47.55119" lon="-1.67785">
        <ele>74</ele>
        <time>2022-04-02T09:36:07Z</time>
      </trkpt>
      <trkpt lat="47.55132" lon="-1.67757">
        <ele>74.2</ele>
        <time>2022-04-02T09:36:12Z</time>
      </trkpt>
      <trkpt lat="47.55135" lon="-1.67751">
        <ele>74.2</ele>
        <time>2022-04-02T09:36:13Z</time>
      </trkpt>
      <trkpt lat="47.55137" lon="-1.67746">
        <ele>74</ele>
        <time>2022-04-02T09:36:14Z</time>
      </trkpt>
      <trkpt lat="47.55146" lon="-1.6773">
        <ele>74.2</ele>
        <time>2022-04-02T09:36:17Z</time>
      </trkpt>
      <trkpt lat="47.55149" lon="-1.67724">
        <ele>74.2</ele>
        <time>2022-04-02T09:36:18Z</time>
      </trkpt>
      <trkpt lat="47.55174" lon="-1.67681">
        <ele>74.2</ele>
        <time>2022-04-02T09:36:25Z</time>
      </trkpt>
      <trkpt lat="47.55178" lon="-1.67675">
        <ele>74.2</ele>
        <time>2022-04-02T09:36:26Z</time>
      </trkpt>
      <trkpt lat="47.55187" lon="-1.67666">
        <ele>74.2</ele>
        <time>2022-04-02T09:36:28Z</time>
      </trkpt>
      <trkpt lat="47.55197" lon="-1.67661">
        <ele>74.2</ele>
        <time>2022-04-02T09:36:30Z</time>
      </trkpt>
      <trkpt lat="47.55207" lon="-1.67662">
        <ele>74.2</ele>
        <time>2022-04-02T09:36:32Z</time>
      </trkpt>
      <trkpt lat="47.55217" lon="-1.67664">
        <ele>74.2</ele>
        <time>2022-04-02T09:36:34Z</time>
      </trkpt>
      <trkpt lat="47.55227" lon="-1.67667">
        <ele>74.2</ele>
        <time>2022-04-02T09:36:36Z</time>
      </trkpt>
      <trkpt lat="47.55242" lon="-1.67667">
        <ele>74.2</ele>
        <time>2022-04-02T09:36:39Z</time>
      </trkpt>
      <trkpt lat="47.55274" lon="-1.67673">
        <ele>73.8</ele>
        <time>2022-04-02T09:36:46Z</time>
      </trkpt>
      <trkpt lat="47.55296" lon="-1.67677">
        <ele>73.6</ele>
        <time>2022-04-02T09:36:51Z</time>
      </trkpt>
      <trkpt lat="47.55304" lon="-1.67678">
        <ele>73.6</ele>
        <time>2022-04-02T09:36:53Z</time>
      </trkpt>
      <trkpt lat="47.55312" lon="-1.67676">
        <ele>73.6</ele>
        <time>2022-04-02T09:36:57Z</time>
      </trkpt>
      <trkpt lat="47.55313" lon="-1.67676">
        <ele>73.6</ele>
        <time>2022-04-02T09:36:59Z</time>
      </trkpt>
      <trkpt lat="47.55314" lon="-1.67674">
        <ele>73.6</ele>
        <time>2022-04-02T09:37:03Z</time>
      </trkpt>
      <trkpt lat="47.55315" lon="-1.6767">
        <ele>73.6</ele>
        <time>2022-04-02T09:37:04Z</time>
      </trkpt>
      <trkpt lat="47.55319" lon="-1.67641">
        <ele>73.6</ele>
        <time>2022-04-02T09:37:09Z</time>
      </trkpt>
      <trkpt lat="47.55325" lon="-1.67583">
        <ele>73.4</ele>
        <time>2022-04-02T09:37:17Z</time>
      </trkpt>
      <trkpt lat="47.55327" lon="-1.6756">
        <ele>73.4</ele>
        <time>2022-04-02T09:37:20Z</time>
      </trkpt>
      <trkpt lat="47.55329" lon="-1.67535">
        <ele>73.6</ele>
        <time>2022-04-02T09:37:23Z</time>
      </trkpt>
      <trkpt lat="47.55337" lon="-1.67465">
        <ele>73.4</ele>
        <time>2022-04-02T09:37:31Z</time>
      </trkpt>
      <trkpt lat="47.55338" lon="-1.67456">
        <ele>73.4</ele>
        <time>2022-04-02T09:37:32Z</time>
      </trkpt>
      <trkpt lat="47.55342" lon="-1.67427">
        <ele>73</ele>
        <time>2022-04-02T09:37:35Z</time>
      </trkpt>
      <trkpt lat="47.55348" lon="-1.6737">
        <ele>72.6</ele>
        <time>2022-04-02T09:37:41Z</time>
      </trkpt>
      <trkpt lat="47.5535" lon="-1.67351">
        <ele>72.4</ele>
        <time>2022-04-02T09:37:43Z</time>
      </trkpt>
      <trkpt lat="47.55354" lon="-1.67312">
        <ele>72.4</ele>
        <time>2022-04-02T09:37:47Z</time>
      </trkpt>
      <trkpt lat="47.5536" lon="-1.67256">
        <ele>72.2</ele>
        <time>2022-04-02T09:37:53Z</time>
      </trkpt>
      <trkpt lat="47.55364" lon="-1.67209">
        <ele>72</ele>
        <time>2022-04-02T09:37:58Z</time>
      </trkpt>
      <trkpt lat="47.55365" lon="-1.672">
        <ele>72</ele>
        <time>2022-04-02T09:37:59Z</time>
      </trkpt>
      <trkpt lat="47.55366" lon="-1.67191">
        <ele>72</ele>
        <time>2022-04-02T09:38:00Z</time>
      </trkpt>
      <trkpt lat="47.55369" lon="-1.67174">
        <ele>71.8</ele>
        <time>2022-04-02T09:38:02Z</time>
      </trkpt>
      <trkpt lat="47.55371" lon="-1.67156">
        <ele>71.8</ele>
        <time>2022-04-02T09:38:04Z</time>
      </trkpt>
      <trkpt lat="47.55382" lon="-1.67073">
        <ele>71.2</ele>
        <time>2022-04-02T09:38:13Z</time>
      </trkpt>
      <trkpt lat="47.55392" lon="-1.66987">
        <ele>71.2</ele>
        <time>2022-04-02T09:38:23Z</time>
      </trkpt>
      <trkpt lat="47.55393" lon="-1.66979">
        <ele>71.2</ele>
        <time>2022-04-02T09:38:24Z</time>
      </trkpt>
      <trkpt lat="47.554" lon="-1.66911">
        <ele>71.2</ele>
        <time>2022-04-02T09:38:32Z</time>
      </trkpt>
      <trkpt lat="47.55405" lon="-1.66855">
        <ele>71.2</ele>
        <time>2022-04-02T09:38:39Z</time>
      </trkpt>
      <trkpt lat="47.55411" lon="-1.66801">
        <ele>71.4</ele>
        <time>2022-04-02T09:38:46Z</time>
      </trkpt>
      <trkpt lat="47.55418" lon="-1.66743">
        <ele>71</ele>
        <time>2022-04-02T09:38:53Z</time>
      </trkpt>
      <trkpt lat="47.55426" lon="-1.6667">
        <ele>70.4</ele>
        <time>2022-04-02T09:39:01Z</time>
      </trkpt>
      <trkpt lat="47.55434" lon="-1.66597">
        <ele>70.2</ele>
        <time>2022-04-02T09:39:09Z</time>
      </trkpt>
      <trkpt lat="47.55443" lon="-1.66513">
        <ele>69.6</ele>
        <time>2022-04-02T09:39:18Z</time>
      </trkpt>
      <trkpt lat="47.55445" lon="-1.66504">
        <ele>69.6</ele>
        <time>2022-04-02T09:39:19Z</time>
      </trkpt>
      <trkpt lat="47.55452" lon="-1.66441">
        <ele>69.2</ele>
        <time>2022-04-02T09:39:26Z</time>
      </trkpt>
      <trkpt lat="47.55459" lon="-1.66373">
        <ele>69</ele>
        <time>2022-04-02T09:39:34Z</time>
      </trkpt>
      <trkpt lat="47.55467" lon="-1.66309">
        <ele>69.2</ele>
        <time>2022-04-02T09:39:43Z</time>
      </trkpt>
      <trkpt lat="47.55472" lon="-1.66263">
        <ele>69.8</ele>
        <time>2022-04-02T09:39:50Z</time>
      </trkpt>
      <trkpt lat="47.55478" lon="-1.66209">
        <ele>69.8</ele>
        <time>2022-04-02T09:39:58Z</time>
      </trkpt>
      <trkpt lat="47.55484" lon="-1.66163">
        <ele>70.2</ele>
        <time>2022-04-02T09:40:05Z</time>
      </trkpt>
      <trkpt lat="47.55492" lon="-1.66096">
        <ele>71</ele>
        <time>2022-04-02T09:40:15Z</time>
      </trkpt>
      <trkpt lat="47.55498" lon="-1.66044">
        <ele>71.6</ele>
        <time>2022-04-02T09:40:23Z</time>
      </trkpt>
      <trkpt lat="47.55503" lon="-1.65993">
        <ele>72.4</ele>
        <time>2022-04-02T09:40:31Z</time>
      </trkpt>
      <trkpt lat="47.55508" lon="-1.65944">
        <ele>73.2</ele>
        <time>2022-04-02T09:40:39Z</time>
      </trkpt>
      <trkpt lat="47.55514" lon="-1.65887">
        <ele>74.2</ele>
        <time>2022-04-02T09:40:48Z</time>
      </trkpt>
      <trkpt lat="47.5552" lon="-1.6583">
        <ele>74.8</ele>
        <time>2022-04-02T09:40:57Z</time>
      </trkpt>
      <trkpt lat="47.55522" lon="-1.65817">
        <ele>75</ele>
        <time>2022-04-02T09:40:59Z</time>
      </trkpt>
      <trkpt lat="47.55524" lon="-1.65797">
        <ele>75.2</ele>
        <time>2022-04-02T09:41:02Z</time>
      </trkpt>
      <trkpt lat="47.55531" lon="-1.65741">
        <ele>76</ele>
        <time>2022-04-02T09:41:10Z</time>
      </trkpt>
      <trkpt lat="47.55538" lon="-1.65678">
        <ele>76.2</ele>
        <time>2022-04-02T09:41:18Z</time>
      </trkpt>
      <trkpt lat="47.5554" lon="-1.65647">
        <ele>76.2</ele>
        <time>2022-04-02T09:41:22Z</time>
      </trkpt>
      <trkpt lat="47.55543" lon="-1.65623">
        <ele>76.4</ele>
        <time>2022-04-02T09:41:25Z</time>
      </trkpt>
      <trkpt lat="47.5555" lon="-1.65567">
        <ele>76.6</ele>
        <time>2022-04-02T09:41:32Z</time>
      </trkpt>
      <trkpt lat="47.55558" lon="-1.65507">
        <ele>76.6</ele>
        <time>2022-04-02T09:41:39Z</time>
      </trkpt>
      <trkpt lat="47.55567" lon="-1.65428">
        <ele>76.6</ele>
        <time>2022-04-02T09:41:48Z</time>
      </trkpt>
      <trkpt lat="47.55573" lon="-1.65377">
        <ele>76.2</ele>
        <time>2022-04-02T09:41:54Z</time>
      </trkpt>
      <trkpt lat="47.55576" lon="-1.65353">
        <ele>76.2</ele>
        <time>2022-04-02T09:41:57Z</time>
      </trkpt>
      <trkpt lat="47.55578" lon="-1.65339">
        <ele>76.2</ele>
        <time>2022-04-02T09:41:59Z</time>
      </trkpt>
      <trkpt lat="47.55579" lon="-1.65331">
        <ele>76.2</ele>
        <time>2022-04-02T09:42:00Z</time>
      </trkpt>
      <trkpt lat="47.5558" lon="-1.65323">
        <ele>76.2</ele>
        <time>2022-04-02T09:42:01Z</time>
      </trkpt>
      <trkpt lat="47.55586" lon="-1.65293">
        <ele>76</ele>
        <time>2022-04-02T09:42:05Z</time>
      </trkpt>
      <trkpt lat="47.5559" lon="-1.65279">
        <ele>76</ele>
        <time>2022-04-02T09:42:07Z</time>
      </trkpt>
      <trkpt lat="47.55596" lon="-1.65258">
        <ele>76</ele>
        <time>2022-04-02T09:42:10Z</time>
      </trkpt>
      <trkpt lat="47.5561" lon="-1.65212">
        <ele>75.8</ele>
        <time>2022-04-02T09:42:17Z</time>
      </trkpt>
      <trkpt lat="47.55623" lon="-1.65179">
        <ele>75.8</ele>
        <time>2022-04-02T09:42:23Z</time>
      </trkpt>
      <trkpt lat="47.55625" lon="-1.65173">
        <ele>75.8</ele>
        <time>2022-04-02T09:42:24Z</time>
      </trkpt>
      <trkpt lat="47.55626" lon="-1.65167">
        <ele>75.8</ele>
        <time>2022-04-02T09:42:25Z</time>
      </trkpt>
      <trkpt lat="47.55631" lon="-1.65156">
        <ele>76</ele>
        <time>2022-04-02T09:42:27Z</time>
      </trkpt>
      <trkpt lat="47.55636" lon="-1.65146">
        <ele>75.8</ele>
        <time>2022-04-02T09:42:29Z</time>
      </trkpt>
      <trkpt lat="47.55649" lon="-1.65117">
        <ele>76</ele>
        <time>2022-04-02T09:42:35Z</time>
      </trkpt>
      <trkpt lat="47.55664" lon="-1.65088">
        <ele>75.8</ele>
        <time>2022-04-02T09:42:41Z</time>
      </trkpt>
      <trkpt lat="47.55681" lon="-1.65055">
        <ele>75.6</ele>
        <time>2022-04-02T09:42:48Z</time>
      </trkpt>
      <trkpt lat="47.55696" lon="-1.65028">
        <ele>75.6</ele>
        <time>2022-04-02T09:42:54Z</time>
      </trkpt>
      <trkpt lat="47.55708" lon="-1.65006">
        <ele>75.8</ele>
        <time>2022-04-02T09:42:59Z</time>
      </trkpt>
      <trkpt lat="47.55719" lon="-1.64985">
        <ele>76</ele>
        <time>2022-04-02T09:43:04Z</time>
      </trkpt>
      <trkpt lat="47.55737" lon="-1.64951">
        <ele>76.2</ele>
        <time>2022-04-02T09:43:12Z</time>
      </trkpt>
      <trkpt lat="47.55753" lon="-1.64923">
        <ele>76.4</ele>
        <time>2022-04-02T09:43:19Z</time>
      </trkpt>
      <trkpt lat="47.55768" lon="-1.64894">
        <ele>76.4</ele>
        <time>2022-04-02T09:43:26Z</time>
      </trkpt>
      <trkpt lat="47.55791" lon="-1.64855">
        <ele>77</ele>
        <time>2022-04-02T09:43:35Z</time>
      </trkpt>
      <trkpt lat="47.55812" lon="-1.64806">
        <ele>77.6</ele>
        <time>2022-04-02T09:43:45Z</time>
      </trkpt>
      <trkpt lat="47.55823" lon="-1.64769">
        <ele>77.8</ele>
        <time>2022-04-02T09:43:52Z</time>
      </trkpt>
      <trkpt lat="47.55824" lon="-1.64763">
        <ele>78</ele>
        <time>2022-04-02T09:43:53Z</time>
      </trkpt>
      <trkpt lat="47.55833" lon="-1.64718">
        <ele>78.4</ele>
        <time>2022-04-02T09:44:01Z</time>
      </trkpt>
      <trkpt lat="47.55838" lon="-1.64658">
        <ele>79</ele>
        <time>2022-04-02T09:44:11Z</time>
      </trkpt>
      <trkpt lat="47.55839" lon="-1.64618">
        <ele>79</ele>
        <time>2022-04-02T09:44:17Z</time>
      </trkpt>
      <trkpt lat="47.5584" lon="-1.64569">
        <ele>79</ele>
        <time>2022-04-02T09:44:24Z</time>
      </trkpt>
      <trkpt lat="47.5584" lon="-1.64524">
        <ele>79.2</ele>
        <time>2022-04-02T09:44:30Z</time>
      </trkpt>
      <trkpt lat="47.55842" lon="-1.64473">
        <ele>79.4</ele>
        <time>2022-04-02T09:44:37Z</time>
      </trkpt>
      <trkpt lat="47.55844" lon="-1.64417">
        <ele>79.4</ele>
        <time>2022-04-02T09:44:44Z</time>
      </trkpt>
      <trkpt lat="47.55846" lon="-1.6434">
        <ele>79</ele>
        <time>2022-04-02T09:44:53Z</time>
      </trkpt>
      <trkpt lat="47.55849" lon="-1.64258">
        <ele>79</ele>
        <time>2022-04-02T09:45:02Z</time>
      </trkpt>
      <trkpt lat="47.5585" lon="-1.64183">
        <ele>78.8</ele>
        <time>2022-04-02T09:45:10Z</time>
      </trkpt>
      <trkpt lat="47.55852" lon="-1.64096">
        <ele>78.2</ele>
        <time>2022-04-02T09:45:19Z</time>
      </trkpt>
      <trkpt lat="47.55853" lon="-1.64057">
        <ele>78</ele>
        <time>2022-04-02T09:45:23Z</time>
      </trkpt>
      <trkpt lat="47.55855" lon="-1.63991">
        <ele>77.4</ele>
        <time>2022-04-02T09:45:30Z</time>
      </trkpt>
      <trkpt lat="47.55857" lon="-1.63945">
        <ele>77.2</ele>
        <time>2022-04-02T09:45:35Z</time>
      </trkpt>
      <trkpt lat="47.55856" lon="-1.63937">
        <ele>77</ele>
        <time>2022-04-02T09:45:36Z</time>
      </trkpt>
      <trkpt lat="47.55856" lon="-1.63862">
        <ele>76.2</ele>
        <time>2022-04-02T09:45:44Z</time>
      </trkpt>
      <trkpt lat="47.55847" lon="-1.63794">
        <ele>75.6</ele>
        <time>2022-04-02T09:45:52Z</time>
      </trkpt>
      <trkpt lat="47.55834" lon="-1.6374">
        <ele>75</ele>
        <time>2022-04-02T09:45:59Z</time>
      </trkpt>
      <trkpt lat="47.55827" lon="-1.63716">
        <ele>74.8</ele>
        <time>2022-04-02T09:46:02Z</time>
      </trkpt>
      <trkpt lat="47.55817" lon="-1.63686">
        <ele>74.4</ele>
        <time>2022-04-02T09:46:06Z</time>
      </trkpt>
      <trkpt lat="47.55804" lon="-1.63641">
        <ele>73.8</ele>
        <time>2022-04-02T09:46:12Z</time>
      </trkpt>
      <trkpt lat="47.558" lon="-1.63619">
        <ele>73.6</ele>
        <time>2022-04-02T09:46:15Z</time>
      </trkpt>
      <trkpt lat="47.55799" lon="-1.63605">
        <ele>73.4</ele>
        <time>2022-04-02T09:46:17Z</time>
      </trkpt>
      <trkpt lat="47.55797" lon="-1.63592">
        <ele>73.2</ele>
        <time>2022-04-02T09:46:19Z</time>
      </trkpt>
      <trkpt lat="47.55794" lon="-1.6357">
        <ele>73</ele>
        <time>2022-04-02T09:46:22Z</time>
      </trkpt>
      <trkpt lat="47.55796" lon="-1.63516">
        <ele>72.4</ele>
        <time>2022-04-02T09:46:28Z</time>
      </trkpt>
      <trkpt lat="47.55799" lon="-1.63489">
        <ele>72</ele>
        <time>2022-04-02T09:46:31Z</time>
      </trkpt>
      <trkpt lat="47.558" lon="-1.63482">
        <ele>71.8</ele>
        <time>2022-04-02T09:46:32Z</time>
      </trkpt>
      <trkpt lat="47.55798" lon="-1.63468">
        <ele>71.4</ele>
        <time>2022-04-02T09:46:35Z</time>
      </trkpt>
      <trkpt lat="47.55794" lon="-1.63465">
        <ele>71.2</ele>
        <time>2022-04-02T09:46:37Z</time>
      </trkpt>
      <trkpt lat="47.55793" lon="-1.63464">
        <ele>70.8</ele>
        <time>2022-04-02T09:46:39Z</time>
      </trkpt>
      <trkpt lat="47.55791" lon="-1.63461">
        <ele>68.6</ele>
        <time>2022-04-02T09:47:12Z</time>
      </trkpt>
      <trkpt lat="47.55786" lon="-1.63459">
        <ele>68.4</ele>
        <time>2022-04-02T09:47:15Z</time>
      </trkpt>
      <trkpt lat="47.55785" lon="-1.63458">
        <ele>68.4</ele>
        <time>2022-04-02T09:47:19Z</time>
      </trkpt>
      <trkpt lat="47.55785" lon="-1.63458">
        <ele>68.2</ele>
        <time>2022-04-02T09:47:20Z</time>
      </trkpt>
      <trkpt lat="47.55791" lon="-1.63461">
        <ele>65.8</ele>
        <time>2022-04-02T09:51:12Z</time>
      </trkpt>
      <trkpt lat="47.55796" lon="-1.63465">
        <ele>65.6</ele>
        <time>2022-04-02T09:51:14Z</time>
      </trkpt>
      <trkpt lat="47.55799" lon="-1.63468">
        <ele>65.4</ele>
        <time>2022-04-02T09:51:16Z</time>
      </trkpt>
      <trkpt lat="47.55803" lon="-1.63468">
        <ele>65</ele>
        <time>2022-04-02T09:51:18Z</time>
      </trkpt>
      <trkpt lat="47.55805" lon="-1.63466">
        <ele>65</ele>
        <time>2022-04-02T09:51:21Z</time>
      </trkpt>
      <trkpt lat="47.55806" lon="-1.63465">
        <ele>65</ele>
        <time>2022-04-02T09:51:22Z</time>
      </trkpt>
      <trkpt lat="47.55811" lon="-1.63451">
        <ele>65.2</ele>
        <time>2022-04-02T09:51:26Z</time>
      </trkpt>
      <trkpt lat="47.5582" lon="-1.63422">
        <ele>65.2</ele>
        <time>2022-04-02T09:51:32Z</time>
      </trkpt>
      <trkpt lat="47.55823" lon="-1.63411">
        <ele>65</ele>
        <time>2022-04-02T09:51:34Z</time>
      </trkpt>
      <trkpt lat="47.55826" lon="-1.63406">
        <ele>64.8</ele>
        <time>2022-04-02T09:51:35Z</time>
      </trkpt>
      <trkpt lat="47.5583" lon="-1.63397">
        <ele>64.4</ele>
        <time>2022-04-02T09:51:37Z</time>
      </trkpt>
      <trkpt lat="47.55836" lon="-1.63385">
        <ele>64.2</ele>
        <time>2022-04-02T09:51:39Z</time>
      </trkpt>
      <trkpt lat="47.55843" lon="-1.63372">
        <ele>64</ele>
        <time>2022-04-02T09:51:41Z</time>
      </trkpt>
      <trkpt lat="47.55859" lon="-1.63353">
        <ele>64</ele>
        <time>2022-04-02T09:51:45Z</time>
      </trkpt>
      <trkpt lat="47.55867" lon="-1.63344">
        <ele>63.8</ele>
        <time>2022-04-02T09:51:47Z</time>
      </trkpt>
      <trkpt lat="47.55879" lon="-1.63332">
        <ele>63.6</ele>
        <time>2022-04-02T09:51:50Z</time>
      </trkpt>
      <trkpt lat="47.55893" lon="-1.63319">
        <ele>63.2</ele>
        <time>2022-04-02T09:51:53Z</time>
      </trkpt>
      <trkpt lat="47.55902" lon="-1.63311">
        <ele>62.8</ele>
        <time>2022-04-02T09:51:55Z</time>
      </trkpt>
      <trkpt lat="47.55922" lon="-1.63286">
        <ele>62.2</ele>
        <time>2022-04-02T09:52:00Z</time>
      </trkpt>
      <trkpt lat="47.55925" lon="-1.63281">
        <ele>62</ele>
        <time>2022-04-02T09:52:01Z</time>
      </trkpt>
      <trkpt lat="47.55952" lon="-1.63235">
        <ele>61.6</ele>
        <time>2022-04-02T09:52:09Z</time>
      </trkpt>
      <trkpt lat="47.55971" lon="-1.63183">
        <ele>61.6</ele>
        <time>2022-04-02T09:52:17Z</time>
      </trkpt>
      <trkpt lat="47.55981" lon="-1.63132">
        <ele>61.4</ele>
        <time>2022-04-02T09:52:24Z</time>
      </trkpt>
      <trkpt lat="47.55986" lon="-1.63071">
        <ele>61</ele>
        <time>2022-04-02T09:52:31Z</time>
      </trkpt>
      <trkpt lat="47.55984" lon="-1.63007">
        <ele>60.4</ele>
        <time>2022-04-02T09:52:37Z</time>
      </trkpt>
      <trkpt lat="47.55979" lon="-1.6296">
        <ele>59.8</ele>
        <time>2022-04-02T09:52:42Z</time>
      </trkpt>
      <trkpt lat="47.55974" lon="-1.62945">
        <ele>59.6</ele>
        <time>2022-04-02T09:52:45Z</time>
      </trkpt>
      <trkpt lat="47.55972" lon="-1.62936">
        <ele>59.4</ele>
        <time>2022-04-02T09:52:48Z</time>
      </trkpt>
      <trkpt lat="47.55973" lon="-1.62933">
        <ele>59.4</ele>
        <time>2022-04-02T09:52:49Z</time>
      </trkpt>
      <trkpt lat="47.55981" lon="-1.62922">
        <ele>59.2</ele>
        <time>2022-04-02T09:52:53Z</time>
      </trkpt>
      <trkpt lat="47.56006" lon="-1.62901">
        <ele>58.8</ele>
        <time>2022-04-02T09:52:59Z</time>
      </trkpt>
      <trkpt lat="47.56035" lon="-1.62874">
        <ele>58.4</ele>
        <time>2022-04-02T09:53:05Z</time>
      </trkpt>
      <trkpt lat="47.56067" lon="-1.62846">
        <ele>57.6</ele>
        <time>2022-04-02T09:53:11Z</time>
      </trkpt>
      <trkpt lat="47.56072" lon="-1.62841">
        <ele>57.4</ele>
        <time>2022-04-02T09:53:12Z</time>
      </trkpt>
      <trkpt lat="47.56098" lon="-1.62819">
        <ele>57</ele>
        <time>2022-04-02T09:53:17Z</time>
      </trkpt>
      <trkpt lat="47.56135" lon="-1.62787">
        <ele>56.4</ele>
        <time>2022-04-02T09:53:24Z</time>
      </trkpt>
      <trkpt lat="47.56178" lon="-1.6275">
        <ele>55.6</ele>
        <time>2022-04-02T09:53:32Z</time>
      </trkpt>
      <trkpt lat="47.56214" lon="-1.6272">
        <ele>54.6</ele>
        <time>2022-04-02T09:53:39Z</time>
      </trkpt>
      <trkpt lat="47.56254" lon="-1.62686">
        <ele>53.8</ele>
        <time>2022-04-02T09:53:47Z</time>
      </trkpt>
      <trkpt lat="47.56284" lon="-1.62658">
        <ele>52.8</ele>
        <time>2022-04-02T09:53:54Z</time>
      </trkpt>
      <trkpt lat="47.56302" lon="-1.62639">
        <ele>52.2</ele>
        <time>2022-04-02T09:53:59Z</time>
      </trkpt>
      <trkpt lat="47.56317" lon="-1.62626">
        <ele>51.6</ele>
        <time>2022-04-02T09:54:04Z</time>
      </trkpt>
      <trkpt lat="47.5632" lon="-1.62624">
        <ele>51.6</ele>
        <time>2022-04-02T09:54:05Z</time>
      </trkpt>
      <trkpt lat="47.56326" lon="-1.62625">
        <ele>51.2</ele>
        <time>2022-04-02T09:54:07Z</time>
      </trkpt>
      <trkpt lat="47.5634" lon="-1.62629">
        <ele>50.6</ele>
        <time>2022-04-02T09:54:11Z</time>
      </trkpt>
      <trkpt lat="47.56358" lon="-1.62643">
        <ele>49.2</ele>
        <time>2022-04-02T09:54:18Z</time>
      </trkpt>
      <trkpt lat="47.56367" lon="-1.62656">
        <ele>48.2</ele>
        <time>2022-04-02T09:54:24Z</time>
      </trkpt>
      <trkpt lat="47.56367" lon="-1.62656">
        <ele>48.2</ele>
        <time>2022-04-02T09:54:25Z</time>
      </trkpt>
      <trkpt lat="47.56394" lon="-1.6267">
        <ele>43.2</ele>
        <time>2022-04-02T09:55:22Z</time>
      </trkpt>
      <trkpt lat="47.56398" lon="-1.6267">
        <ele>43.2</ele>
        <time>2022-04-02T09:55:24Z</time>
      </trkpt>
      <trkpt lat="47.56405" lon="-1.62668">
        <ele>42.6</ele>
        <time>2022-04-02T09:55:29Z</time>
      </trkpt>
      <trkpt lat="47.56405" lon="-1.62667">
        <ele>42.6</ele>
        <time>2022-04-02T09:55:30Z</time>
      </trkpt>
      <trkpt lat="47.56442" lon="-1.62669">
        <ele>67.6</ele>
        <time>2022-04-02T10:44:56Z</time>
      </trkpt>
      <trkpt lat="47.56442" lon="-1.62669">
        <ele>67.6</ele>
        <time>2022-04-02T10:44:57Z</time>
      </trkpt>
      <trkpt lat="47.56449" lon="-1.62666">
        <ele>68.8</ele>
        <time>2022-04-02T10:47:08Z</time>
      </trkpt>
      <trkpt lat="47.5645" lon="-1.62666">
        <ele>68.4</ele>
        <time>2022-04-02T10:47:09Z</time>
      </trkpt>
      <trkpt lat="47.5645" lon="-1.62663">
        <ele>67.8</ele>
        <time>2022-04-02T10:47:11Z</time>
      </trkpt>
      <trkpt lat="47.56451" lon="-1.62655">
        <ele>66.8</ele>
        <time>2022-04-02T10:47:14Z</time>
      </trkpt>
      <trkpt lat="47.5645" lon="-1.62654">
        <ele>66.6</ele>
        <time>2022-04-02T10:47:15Z</time>
      </trkpt>
      <trkpt lat="47.56447" lon="-1.62656">
        <ele>65.8</ele>
        <time>2022-04-02T10:47:17Z</time>
      </trkpt>
      <trkpt lat="47.56432" lon="-1.62663">
        <ele>64</ele>
        <time>2022-04-02T10:47:23Z</time>
      </trkpt>
      <trkpt lat="47.56408" lon="-1.6267">
        <ele>62</ele>
        <time>2022-04-02T10:47:30Z</time>
      </trkpt>
      <trkpt lat="47.564" lon="-1.62671">
        <ele>61.6</ele>
        <time>2022-04-02T10:47:32Z</time>
      </trkpt>
      <trkpt lat="47.56388" lon="-1.62669">
        <ele>60.8</ele>
        <time>2022-04-02T10:47:35Z</time>
      </trkpt>
      <trkpt lat="47.56384" lon="-1.62668">
        <ele>60.6</ele>
        <time>2022-04-02T10:47:36Z</time>
      </trkpt>
      <trkpt lat="47.56371" lon="-1.62659">
        <ele>59.8</ele>
        <time>2022-04-02T10:47:39Z</time>
      </trkpt>
      <trkpt lat="47.56363" lon="-1.62653">
        <ele>59.4</ele>
        <time>2022-04-02T10:47:41Z</time>
      </trkpt>
      <trkpt lat="47.56359" lon="-1.6265">
        <ele>59.2</ele>
        <time>2022-04-02T10:47:42Z</time>
      </trkpt>
      <trkpt lat="47.56334" lon="-1.62629">
        <ele>57</ele>
        <time>2022-04-02T10:47:49Z</time>
      </trkpt>
      <trkpt lat="47.56329" lon="-1.62625">
        <ele>56.6</ele>
        <time>2022-04-02T10:47:51Z</time>
      </trkpt>
      <trkpt lat="47.56328" lon="-1.6262">
        <ele>56.6</ele>
        <time>2022-04-02T10:47:52Z</time>
      </trkpt>
      <trkpt lat="47.56332" lon="-1.62595">
        <ele>56</ele>
        <time>2022-04-02T10:47:56Z</time>
      </trkpt>
      <trkpt lat="47.56338" lon="-1.6255">
        <ele>55</ele>
        <time>2022-04-02T10:48:02Z</time>
      </trkpt>
      <trkpt lat="47.56342" lon="-1.6251">
        <ele>54.2</ele>
        <time>2022-04-02T10:48:07Z</time>
      </trkpt>
      <trkpt lat="47.56343" lon="-1.62494">
        <ele>53.8</ele>
        <time>2022-04-02T10:48:09Z</time>
      </trkpt>
      <trkpt lat="47.56349" lon="-1.62433">
        <ele>52.4</ele>
        <time>2022-04-02T10:48:17Z</time>
      </trkpt>
      <trkpt lat="47.56354" lon="-1.6237">
        <ele>51.4</ele>
        <time>2022-04-02T10:48:25Z</time>
      </trkpt>
      <trkpt lat="47.56359" lon="-1.62311">
        <ele>50.4</ele>
        <time>2022-04-02T10:48:33Z</time>
      </trkpt>
      <trkpt lat="47.56361" lon="-1.62255">
        <ele>49.4</ele>
        <time>2022-04-02T10:48:41Z</time>
      </trkpt>
      <trkpt lat="47.56361" lon="-1.62248">
        <ele>49.4</ele>
        <time>2022-04-02T10:48:42Z</time>
      </trkpt>
      <trkpt lat="47.56366" lon="-1.62211">
        <ele>48.8</ele>
        <time>2022-04-02T10:48:47Z</time>
      </trkpt>
      <trkpt lat="47.56368" lon="-1.62166">
        <ele>48</ele>
        <time>2022-04-02T10:48:53Z</time>
      </trkpt>
      <trkpt lat="47.5637" lon="-1.6211">
        <ele>47.4</ele>
        <time>2022-04-02T10:49:00Z</time>
      </trkpt>
      <trkpt lat="47.56368" lon="-1.62045">
        <ele>46.6</ele>
        <time>2022-04-02T10:49:08Z</time>
      </trkpt>
      <trkpt lat="47.56362" lon="-1.61976">
        <ele>45.8</ele>
        <time>2022-04-02T10:49:16Z</time>
      </trkpt>
      <trkpt lat="47.56353" lon="-1.6191">
        <ele>45.2</ele>
        <time>2022-04-02T10:49:23Z</time>
      </trkpt>
      <trkpt lat="47.56345" lon="-1.61844">
        <ele>44.2</ele>
        <time>2022-04-02T10:49:30Z</time>
      </trkpt>
      <trkpt lat="47.5634" lon="-1.61808">
        <ele>44</ele>
        <time>2022-04-02T10:49:34Z</time>
      </trkpt>
      <trkpt lat="47.56335" lon="-1.6179">
        <ele>43.8</ele>
        <time>2022-04-02T10:49:36Z</time>
      </trkpt>
      <trkpt lat="47.56334" lon="-1.61781">
        <ele>43.6</ele>
        <time>2022-04-02T10:49:37Z</time>
      </trkpt>
      <trkpt lat="47.56333" lon="-1.61753">
        <ele>43.2</ele>
        <time>2022-04-02T10:49:40Z</time>
      </trkpt>
      <trkpt lat="47.56326" lon="-1.61687">
        <ele>42.4</ele>
        <time>2022-04-02T10:49:47Z</time>
      </trkpt>
      <trkpt lat="47.56315" lon="-1.61602">
        <ele>41.6</ele>
        <time>2022-04-02T10:49:56Z</time>
      </trkpt>
      <trkpt lat="47.56312" lon="-1.61583">
        <ele>41.6</ele>
        <time>2022-04-02T10:49:58Z</time>
      </trkpt>
      <trkpt lat="47.56301" lon="-1.61499">
        <ele>40.6</ele>
        <time>2022-04-02T10:50:07Z</time>
      </trkpt>
      <trkpt lat="47.56291" lon="-1.61416">
        <ele>39.8</ele>
        <time>2022-04-02T10:50:16Z</time>
      </trkpt>
      <trkpt lat="47.56287" lon="-1.61389">
        <ele>39.8</ele>
        <time>2022-04-02T10:50:19Z</time>
      </trkpt>
      <trkpt lat="47.56282" lon="-1.61346">
        <ele>39.2</ele>
        <time>2022-04-02T10:50:24Z</time>
      </trkpt>
      <trkpt lat="47.56279" lon="-1.6132">
        <ele>39</ele>
        <time>2022-04-02T10:50:27Z</time>
      </trkpt>
      <trkpt lat="47.56276" lon="-1.61286">
        <ele>38.8</ele>
        <time>2022-04-02T10:50:31Z</time>
      </trkpt>
      <trkpt lat="47.56276" lon="-1.61277">
        <ele>38.6</ele>
        <time>2022-04-02T10:50:32Z</time>
      </trkpt>
      <trkpt lat="47.56275" lon="-1.61218">
        <ele>38</ele>
        <time>2022-04-02T10:50:39Z</time>
      </trkpt>
      <trkpt lat="47.56275" lon="-1.61192">
        <ele>37.8</ele>
        <time>2022-04-02T10:50:42Z</time>
      </trkpt>
      <trkpt lat="47.56274" lon="-1.61175">
        <ele>37.6</ele>
        <time>2022-04-02T10:50:44Z</time>
      </trkpt>
      <trkpt lat="47.56275" lon="-1.61124">
        <ele>36.8</ele>
        <time>2022-04-02T10:50:50Z</time>
      </trkpt>
      <trkpt lat="47.56276" lon="-1.61107">
        <ele>36.4</ele>
        <time>2022-04-02T10:50:52Z</time>
      </trkpt>
      <trkpt lat="47.56277" lon="-1.6108">
        <ele>36</ele>
        <time>2022-04-02T10:50:55Z</time>
      </trkpt>
      <trkpt lat="47.56277" lon="-1.61062">
        <ele>35.6</ele>
        <time>2022-04-02T10:50:57Z</time>
      </trkpt>
      <trkpt lat="47.56277" lon="-1.61044">
        <ele>35</ele>
        <time>2022-04-02T10:50:59Z</time>
      </trkpt>
      <trkpt lat="47.56277" lon="-1.61034">
        <ele>34.8</ele>
        <time>2022-04-02T10:51:00Z</time>
      </trkpt>
      <trkpt lat="47.56281" lon="-1.61006">
        <ele>34.2</ele>
        <time>2022-04-02T10:51:03Z</time>
      </trkpt>
      <trkpt lat="47.56282" lon="-1.60996">
        <ele>34</ele>
        <time>2022-04-02T10:51:04Z</time>
      </trkpt>
      <trkpt lat="47.56292" lon="-1.6093">
        <ele>32.8</ele>
        <time>2022-04-02T10:51:11Z</time>
      </trkpt>
      <trkpt lat="47.56299" lon="-1.60873">
        <ele>31.8</ele>
        <time>2022-04-02T10:51:17Z</time>
      </trkpt>
      <trkpt lat="47.56308" lon="-1.60807">
        <ele>30.8</ele>
        <time>2022-04-02T10:51:24Z</time>
      </trkpt>
      <trkpt lat="47.56312" lon="-1.6077">
        <ele>30.2</ele>
        <time>2022-04-02T10:51:28Z</time>
      </trkpt>
      <trkpt lat="47.56325" lon="-1.60692">
        <ele>29.8</ele>
        <time>2022-04-02T10:51:36Z</time>
      </trkpt>
      <trkpt lat="47.56326" lon="-1.60683">
        <ele>29.8</ele>
        <time>2022-04-02T10:51:37Z</time>
      </trkpt>
      <trkpt lat="47.5633" lon="-1.60645">
        <ele>29.4</ele>
        <time>2022-04-02T10:51:41Z</time>
      </trkpt>
      <trkpt lat="47.56331" lon="-1.60636">
        <ele>29.2</ele>
        <time>2022-04-02T10:51:42Z</time>
      </trkpt>
      <trkpt lat="47.56338" lon="-1.60584">
        <ele>28.6</ele>
        <time>2022-04-02T10:51:48Z</time>
      </trkpt>
      <trkpt lat="47.56342" lon="-1.60546">
        <ele>28.6</ele>
        <time>2022-04-02T10:51:52Z</time>
      </trkpt>
      <trkpt lat="47.56343" lon="-1.60528">
        <ele>28.4</ele>
        <time>2022-04-02T10:51:54Z</time>
      </trkpt>
      <trkpt lat="47.56346" lon="-1.605">
        <ele>28.4</ele>
        <time>2022-04-02T10:51:57Z</time>
      </trkpt>
      <trkpt lat="47.56347" lon="-1.60492">
        <ele>28.2</ele>
        <time>2022-04-02T10:51:58Z</time>
      </trkpt>
      <trkpt lat="47.56355" lon="-1.60428">
        <ele>28</ele>
        <time>2022-04-02T10:52:05Z</time>
      </trkpt>
      <trkpt lat="47.56358" lon="-1.60374">
        <ele>27.6</ele>
        <time>2022-04-02T10:52:11Z</time>
      </trkpt>
      <trkpt lat="47.56358" lon="-1.60366">
        <ele>27.6</ele>
        <time>2022-04-02T10:52:12Z</time>
      </trkpt>
      <trkpt lat="47.56357" lon="-1.60332">
        <ele>27.4</ele>
        <time>2022-04-02T10:52:16Z</time>
      </trkpt>
      <trkpt lat="47.56353" lon="-1.60268">
        <ele>27.6</ele>
        <time>2022-04-02T10:52:23Z</time>
      </trkpt>
      <trkpt lat="47.56346" lon="-1.60206">
        <ele>27.2</ele>
        <time>2022-04-02T10:52:30Z</time>
      </trkpt>
      <trkpt lat="47.56337" lon="-1.60134">
        <ele>27.4</ele>
        <time>2022-04-02T10:52:38Z</time>
      </trkpt>
      <trkpt lat="47.56329" lon="-1.60068">
        <ele>27</ele>
        <time>2022-04-02T10:52:45Z</time>
      </trkpt>
      <trkpt lat="47.56319" lon="-1.59993">
        <ele>26.8</ele>
        <time>2022-04-02T10:52:53Z</time>
      </trkpt>
      <trkpt lat="47.56308" lon="-1.59913">
        <ele>26.8</ele>
        <time>2022-04-02T10:53:02Z</time>
      </trkpt>
      <trkpt lat="47.56307" lon="-1.59905">
        <ele>27</ele>
        <time>2022-04-02T10:53:03Z</time>
      </trkpt>
      <trkpt lat="47.56299" lon="-1.59842">
        <ele>27.4</ele>
        <time>2022-04-02T10:53:11Z</time>
      </trkpt>
      <trkpt lat="47.5629" lon="-1.59778">
        <ele>27.4</ele>
        <time>2022-04-02T10:53:19Z</time>
      </trkpt>
      <trkpt lat="47.5628" lon="-1.59695">
        <ele>27.4</ele>
        <time>2022-04-02T10:53:29Z</time>
      </trkpt>
      <trkpt lat="47.56278" lon="-1.59679">
        <ele>27.4</ele>
        <time>2022-04-02T10:53:31Z</time>
      </trkpt>
      <trkpt lat="47.56267" lon="-1.59598">
        <ele>28</ele>
        <time>2022-04-02T10:53:41Z</time>
      </trkpt>
      <trkpt lat="47.56266" lon="-1.59591">
        <ele>28</ele>
        <time>2022-04-02T10:53:42Z</time>
      </trkpt>
      <trkpt lat="47.56258" lon="-1.59517">
        <ele>28.2</ele>
        <time>2022-04-02T10:53:51Z</time>
      </trkpt>
      <trkpt lat="47.56253" lon="-1.59439">
        <ele>28.4</ele>
        <time>2022-04-02T10:54:00Z</time>
      </trkpt>
      <trkpt lat="47.56251" lon="-1.59353">
        <ele>28.8</ele>
        <time>2022-04-02T10:54:10Z</time>
      </trkpt>
      <trkpt lat="47.56251" lon="-1.59344">
        <ele>28.8</ele>
        <time>2022-04-02T10:54:11Z</time>
      </trkpt>
      <trkpt lat="47.56249" lon="-1.59318">
        <ele>28.8</ele>
        <time>2022-04-02T10:54:14Z</time>
      </trkpt>
      <trkpt lat="47.56247" lon="-1.59311">
        <ele>28.8</ele>
        <time>2022-04-02T10:54:15Z</time>
      </trkpt>
      <trkpt lat="47.56243" lon="-1.59305">
        <ele>28.8</ele>
        <time>2022-04-02T10:54:16Z</time>
      </trkpt>
      <trkpt lat="47.56236" lon="-1.59296">
        <ele>29</ele>
        <time>2022-04-02T10:54:18Z</time>
      </trkpt>
      <trkpt lat="47.56233" lon="-1.59294">
        <ele>29</ele>
        <time>2022-04-02T10:54:19Z</time>
      </trkpt>
      <trkpt lat="47.5622" lon="-1.59282">
        <ele>29</ele>
        <time>2022-04-02T10:54:24Z</time>
      </trkpt>
      <trkpt lat="47.56217" lon="-1.59279">
        <ele>29</ele>
        <time>2022-04-02T10:54:27Z</time>
      </trkpt>
      <trkpt lat="47.56217" lon="-1.59278">
        <ele>29</ele>
        <time>2022-04-02T10:54:28Z</time>
      </trkpt>
      <trkpt lat="47.56209" lon="-1.59272">
        <ele>29</ele>
        <time>2022-04-02T10:55:10Z</time>
      </trkpt>
      <trkpt lat="47.56206" lon="-1.59269">
        <ele>28.8</ele>
        <time>2022-04-02T10:55:12Z</time>
      </trkpt>
      <trkpt lat="47.56198" lon="-1.59261">
        <ele>28.4</ele>
        <time>2022-04-02T10:55:18Z</time>
      </trkpt>
      <trkpt lat="47.56185" lon="-1.59251">
        <ele>27.8</ele>
        <time>2022-04-02T10:55:24Z</time>
      </trkpt>
      <trkpt lat="47.56169" lon="-1.59238">
        <ele>26.6</ele>
        <time>2022-04-02T10:55:30Z</time>
      </trkpt>
      <trkpt lat="47.56156" lon="-1.59225">
        <ele>25</ele>
        <time>2022-04-02T10:55:35Z</time>
      </trkpt>
      <trkpt lat="47.56141" lon="-1.59209">
        <ele>23.4</ele>
        <time>2022-04-02T10:55:41Z</time>
      </trkpt>
      <trkpt lat="47.56127" lon="-1.59192">
        <ele>22.2</ele>
        <time>2022-04-02T10:55:47Z</time>
      </trkpt>
      <trkpt lat="47.56105" lon="-1.59164">
        <ele>22.6</ele>
        <time>2022-04-02T10:55:55Z</time>
      </trkpt>
      <trkpt lat="47.56086" lon="-1.59138">
        <ele>22.6</ele>
        <time>2022-04-02T10:56:02Z</time>
      </trkpt>
      <trkpt lat="47.56068" lon="-1.59105">
        <ele>21.8</ele>
        <time>2022-04-02T10:56:10Z</time>
      </trkpt>
      <trkpt lat="47.56054" lon="-1.59069">
        <ele>23.2</ele>
        <time>2022-04-02T10:56:18Z</time>
      </trkpt>
      <trkpt lat="47.56047" lon="-1.5904">
        <ele>23.8</ele>
        <time>2022-04-02T10:56:24Z</time>
      </trkpt>
      <trkpt lat="47.56045" lon="-1.59027">
        <ele>24.2</ele>
        <time>2022-04-02T10:56:26Z</time>
      </trkpt>
      <trkpt lat="47.56041" lon="-1.59001">
        <ele>24.6</ele>
        <time>2022-04-02T10:56:30Z</time>
      </trkpt>
      <trkpt lat="47.56037" lon="-1.5895">
        <ele>25.6</ele>
        <time>2022-04-02T10:56:38Z</time>
      </trkpt>
      <trkpt lat="47.5604" lon="-1.58892">
        <ele>26.4</ele>
        <time>2022-04-02T10:56:46Z</time>
      </trkpt>
      <trkpt lat="47.56036" lon="-1.58837">
        <ele>27.2</ele>
        <time>2022-04-02T10:56:53Z</time>
      </trkpt>
      <trkpt lat="47.56026" lon="-1.58768">
        <ele>27.8</ele>
        <time>2022-04-02T10:57:02Z</time>
      </trkpt>
      <trkpt lat="47.56015" lon="-1.58725">
        <ele>28</ele>
        <time>2022-04-02T10:57:08Z</time>
      </trkpt>
      <trkpt lat="47.56003" lon="-1.58696">
        <ele>28.2</ele>
        <time>2022-04-02T10:57:13Z</time>
      </trkpt>
      <trkpt lat="47.56" lon="-1.5869">
        <ele>28.2</ele>
        <time>2022-04-02T10:57:14Z</time>
      </trkpt>
      <trkpt lat="47.55979" lon="-1.5864">
        <ele>28.6</ele>
        <time>2022-04-02T10:57:22Z</time>
      </trkpt>
      <trkpt lat="47.55961" lon="-1.58598">
        <ele>29</ele>
        <time>2022-04-02T10:57:29Z</time>
      </trkpt>
      <trkpt lat="47.55944" lon="-1.58556">
        <ele>29.4</ele>
        <time>2022-04-02T10:57:36Z</time>
      </trkpt>
      <trkpt lat="47.5594" lon="-1.58544">
        <ele>29.4</ele>
        <time>2022-04-02T10:57:38Z</time>
      </trkpt>
      <trkpt lat="47.55931" lon="-1.5852">
        <ele>29.6</ele>
        <time>2022-04-02T10:57:42Z</time>
      </trkpt>
      <trkpt lat="47.55916" lon="-1.58473">
        <ele>30</ele>
        <time>2022-04-02T10:57:50Z</time>
      </trkpt>
      <trkpt lat="47.55916" lon="-1.58448">
        <ele>30.2</ele>
        <time>2022-04-02T10:57:54Z</time>
      </trkpt>
      <trkpt lat="47.55924" lon="-1.58429">
        <ele>30.6</ele>
        <time>2022-04-02T10:57:58Z</time>
      </trkpt>
      <trkpt lat="47.55932" lon="-1.58406">
        <ele>31</ele>
        <time>2022-04-02T10:58:02Z</time>
      </trkpt>
      <trkpt lat="47.55937" lon="-1.58393">
        <ele>31</ele>
        <time>2022-04-02T10:58:04Z</time>
      </trkpt>
      <trkpt lat="47.5595" lon="-1.58355">
        <ele>31.4</ele>
        <time>2022-04-02T10:58:10Z</time>
      </trkpt>
      <trkpt lat="47.55955" lon="-1.58336">
        <ele>31.6</ele>
        <time>2022-04-02T10:58:13Z</time>
      </trkpt>
      <trkpt lat="47.55961" lon="-1.58322">
        <ele>31.6</ele>
        <time>2022-04-02T10:58:15Z</time>
      </trkpt>
      <trkpt lat="47.55964" lon="-1.58315">
        <ele>31.6</ele>
        <time>2022-04-02T10:58:16Z</time>
      </trkpt>
      <trkpt lat="47.55967" lon="-1.58308">
        <ele>31.6</ele>
        <time>2022-04-02T10:58:17Z</time>
      </trkpt>
      <trkpt lat="47.55969" lon="-1.58293">
        <ele>31.6</ele>
        <time>2022-04-02T10:58:19Z</time>
      </trkpt>
      <trkpt lat="47.55969" lon="-1.58286">
        <ele>31.6</ele>
        <time>2022-04-02T10:58:20Z</time>
      </trkpt>
      <trkpt lat="47.55969" lon="-1.58265">
        <ele>31.8</ele>
        <time>2022-04-02T10:58:23Z</time>
      </trkpt>
      <trkpt lat="47.55968" lon="-1.58251">
        <ele>31.8</ele>
        <time>2022-04-02T10:58:25Z</time>
      </trkpt>
      <trkpt lat="47.55969" lon="-1.58237">
        <ele>32</ele>
        <time>2022-04-02T10:58:27Z</time>
      </trkpt>
      <trkpt lat="47.55969" lon="-1.58224">
        <ele>32</ele>
        <time>2022-04-02T10:58:29Z</time>
      </trkpt>
      <trkpt lat="47.55969" lon="-1.58218">
        <ele>31.8</ele>
        <time>2022-04-02T10:58:30Z</time>
      </trkpt>
      <trkpt lat="47.55968" lon="-1.58197">
        <ele>31.8</ele>
        <time>2022-04-02T10:58:33Z</time>
      </trkpt>
      <trkpt lat="47.55969" lon="-1.58183">
        <ele>31.8</ele>
        <time>2022-04-02T10:58:35Z</time>
      </trkpt>
      <trkpt lat="47.55974" lon="-1.58122">
        <ele>31.4</ele>
        <time>2022-04-02T10:58:44Z</time>
      </trkpt>
      <trkpt lat="47.55969" lon="-1.58074">
        <ele>31.4</ele>
        <time>2022-04-02T10:58:51Z</time>
      </trkpt>
      <trkpt lat="47.55953" lon="-1.58024">
        <ele>31.8</ele>
        <time>2022-04-02T10:58:59Z</time>
      </trkpt>
      <trkpt lat="47.55937" lon="-1.57975">
        <ele>32</ele>
        <time>2022-04-02T10:59:07Z</time>
      </trkpt>
      <trkpt lat="47.5592" lon="-1.57924">
        <ele>31.8</ele>
        <time>2022-04-02T10:59:15Z</time>
      </trkpt>
      <trkpt lat="47.55915" lon="-1.57904">
        <ele>31.8</ele>
        <time>2022-04-02T10:59:18Z</time>
      </trkpt>
      <trkpt lat="47.55913" lon="-1.57881">
        <ele>31.8</ele>
        <time>2022-04-02T10:59:21Z</time>
      </trkpt>
      <trkpt lat="47.55908" lon="-1.57798">
        <ele>32.6</ele>
        <time>2022-04-02T10:59:32Z</time>
      </trkpt>
      <trkpt lat="47.55904" lon="-1.57747">
        <ele>32.8</ele>
        <time>2022-04-02T10:59:39Z</time>
      </trkpt>
      <trkpt lat="47.55898" lon="-1.57679">
        <ele>33.4</ele>
        <time>2022-04-02T10:59:48Z</time>
      </trkpt>
      <trkpt lat="47.55891" lon="-1.57624">
        <ele>33.4</ele>
        <time>2022-04-02T10:59:55Z</time>
      </trkpt>
      <trkpt lat="47.55882" lon="-1.57567">
        <ele>33.4</ele>
        <time>2022-04-02T11:00:02Z</time>
      </trkpt>
      <trkpt lat="47.55877" lon="-1.5754">
        <ele>33.6</ele>
        <time>2022-04-02T11:00:06Z</time>
      </trkpt>
      <trkpt lat="47.55866" lon="-1.57488">
        <ele>32.8</ele>
        <time>2022-04-02T11:00:13Z</time>
      </trkpt>
      <trkpt lat="47.55854" lon="-1.57437">
        <ele>32.4</ele>
        <time>2022-04-02T11:00:20Z</time>
      </trkpt>
      <trkpt lat="47.55845" lon="-1.57402">
        <ele>32.4</ele>
        <time>2022-04-02T11:00:25Z</time>
      </trkpt>
      <trkpt lat="47.55844" lon="-1.57396">
        <ele>32.2</ele>
        <time>2022-04-02T11:00:26Z</time>
      </trkpt>
      <trkpt lat="47.55833" lon="-1.57372">
        <ele>31.8</ele>
        <time>2022-04-02T11:00:31Z</time>
      </trkpt>
      <trkpt lat="47.5583" lon="-1.5737">
        <ele>31.6</ele>
        <time>2022-04-02T11:00:32Z</time>
      </trkpt>
      <trkpt lat="47.55826" lon="-1.5737">
        <ele>31.4</ele>
        <time>2022-04-02T11:00:33Z</time>
      </trkpt>
      <trkpt lat="47.55822" lon="-1.57371">
        <ele>31.2</ele>
        <time>2022-04-02T11:00:34Z</time>
      </trkpt>
      <trkpt lat="47.55811" lon="-1.57378">
        <ele>30.4</ele>
        <time>2022-04-02T11:00:37Z</time>
      </trkpt>
      <trkpt lat="47.55785" lon="-1.57393">
        <ele>29.6</ele>
        <time>2022-04-02T11:00:43Z</time>
      </trkpt>
      <trkpt lat="47.55776" lon="-1.57395">
        <ele>29.8</ele>
        <time>2022-04-02T11:00:45Z</time>
      </trkpt>
      <trkpt lat="47.55761" lon="-1.57394">
        <ele>30.2</ele>
        <time>2022-04-02T11:00:48Z</time>
      </trkpt>
      <trkpt lat="47.55719" lon="-1.57395">
        <ele>31.4</ele>
        <time>2022-04-02T11:00:57Z</time>
      </trkpt>
      <trkpt lat="47.55697" lon="-1.574">
        <ele>31.2</ele>
        <time>2022-04-02T11:01:02Z</time>
      </trkpt>
      <trkpt lat="47.55688" lon="-1.57401">
        <ele>31.2</ele>
        <time>2022-04-02T11:01:04Z</time>
      </trkpt>
      <trkpt lat="47.5566" lon="-1.57398">
        <ele>31.6</ele>
        <time>2022-04-02T11:01:10Z</time>
      </trkpt>
      <trkpt lat="47.55618" lon="-1.57382">
        <ele>32.2</ele>
        <time>2022-04-02T11:01:19Z</time>
      </trkpt>
      <trkpt lat="47.55587" lon="-1.57369">
        <ele>32.6</ele>
        <time>2022-04-02T11:01:26Z</time>
      </trkpt>
      <trkpt lat="47.55563" lon="-1.5735">
        <ele>32.8</ele>
        <time>2022-04-02T11:01:32Z</time>
      </trkpt>
      <trkpt lat="47.55552" lon="-1.5734">
        <ele>33</ele>
        <time>2022-04-02T11:01:35Z</time>
      </trkpt>
      <trkpt lat="47.55546" lon="-1.5733">
        <ele>33</ele>
        <time>2022-04-02T11:01:37Z</time>
      </trkpt>
      <trkpt lat="47.55545" lon="-1.57318">
        <ele>33.2</ele>
        <time>2022-04-02T11:01:39Z</time>
      </trkpt>
      <trkpt lat="47.55544" lon="-1.57306">
        <ele>33.4</ele>
        <time>2022-04-02T11:01:41Z</time>
      </trkpt>
      <trkpt lat="47.55548" lon="-1.57261">
        <ele>33.8</ele>
        <time>2022-04-02T11:01:48Z</time>
      </trkpt>
      <trkpt lat="47.55549" lon="-1.57249">
        <ele>34</ele>
        <time>2022-04-02T11:01:50Z</time>
      </trkpt>
      <trkpt lat="47.5555" lon="-1.57231">
        <ele>34</ele>
        <time>2022-04-02T11:01:53Z</time>
      </trkpt>
      <trkpt lat="47.5555" lon="-1.57225">
        <ele>34.2</ele>
        <time>2022-04-02T11:01:54Z</time>
      </trkpt>
      <trkpt lat="47.55553" lon="-1.57208">
        <ele>34.2</ele>
        <time>2022-04-02T11:01:57Z</time>
      </trkpt>
      <trkpt lat="47.55553" lon="-1.5718">
        <ele>34.4</ele>
        <time>2022-04-02T11:02:02Z</time>
      </trkpt>
      <trkpt lat="47.55555" lon="-1.57171">
        <ele>34.4</ele>
        <time>2022-04-02T11:02:04Z</time>
      </trkpt>
      <trkpt lat="47.55556" lon="-1.57166">
        <ele>34.4</ele>
        <time>2022-04-02T11:02:05Z</time>
      </trkpt>
      <trkpt lat="47.55558" lon="-1.57136">
        <ele>34.4</ele>
        <time>2022-04-02T11:02:11Z</time>
      </trkpt>
      <trkpt lat="47.55559" lon="-1.57109">
        <ele>34.6</ele>
        <time>2022-04-02T11:02:16Z</time>
      </trkpt>
      <trkpt lat="47.55557" lon="-1.57063">
        <ele>35</ele>
        <time>2022-04-02T11:02:24Z</time>
      </trkpt>
      <trkpt lat="47.55554" lon="-1.57019">
        <ele>35.4</ele>
        <time>2022-04-02T11:02:32Z</time>
      </trkpt>
      <trkpt lat="47.55548" lon="-1.56973">
        <ele>36</ele>
        <time>2022-04-02T11:02:40Z</time>
      </trkpt>
      <trkpt lat="47.55544" lon="-1.56948">
        <ele>36.2</ele>
        <time>2022-04-02T11:02:45Z</time>
      </trkpt>
      <trkpt lat="47.55535" lon="-1.56909">
        <ele>36.4</ele>
        <time>2022-04-02T11:02:52Z</time>
      </trkpt>
      <trkpt lat="47.55519" lon="-1.56868">
        <ele>37</ele>
        <time>2022-04-02T11:03:00Z</time>
      </trkpt>
      <trkpt lat="47.55507" lon="-1.56839">
        <ele>37.4</ele>
        <time>2022-04-02T11:03:06Z</time>
      </trkpt>
      <trkpt lat="47.55496" lon="-1.56809">
        <ele>37.8</ele>
        <time>2022-04-02T11:03:12Z</time>
      </trkpt>
      <trkpt lat="47.55482" lon="-1.56773">
        <ele>38.4</ele>
        <time>2022-04-02T11:03:19Z</time>
      </trkpt>
      <trkpt lat="47.55467" lon="-1.5674">
        <ele>39</ele>
        <time>2022-04-02T11:03:26Z</time>
      </trkpt>
      <trkpt lat="47.55454" lon="-1.56706">
        <ele>39.6</ele>
        <time>2022-04-02T11:03:33Z</time>
      </trkpt>
      <trkpt lat="47.5544" lon="-1.56673">
        <ele>40.2</ele>
        <time>2022-04-02T11:03:40Z</time>
      </trkpt>
      <trkpt lat="47.55421" lon="-1.56626">
        <ele>41.4</ele>
        <time>2022-04-02T11:03:50Z</time>
      </trkpt>
      <trkpt lat="47.55411" lon="-1.566">
        <ele>42</ele>
        <time>2022-04-02T11:03:56Z</time>
      </trkpt>
      <trkpt lat="47.55398" lon="-1.56568">
        <ele>42.8</ele>
        <time>2022-04-02T11:04:03Z</time>
      </trkpt>
      <trkpt lat="47.55385" lon="-1.56535">
        <ele>43.4</ele>
        <time>2022-04-02T11:04:10Z</time>
      </trkpt>
      <trkpt lat="47.55372" lon="-1.56503">
        <ele>44</ele>
        <time>2022-04-02T11:04:17Z</time>
      </trkpt>
      <trkpt lat="47.55355" lon="-1.56462">
        <ele>44.8</ele>
        <time>2022-04-02T11:04:26Z</time>
      </trkpt>
      <trkpt lat="47.55338" lon="-1.56419">
        <ele>45.8</ele>
        <time>2022-04-02T11:04:35Z</time>
      </trkpt>
      <trkpt lat="47.55335" lon="-1.56415">
        <ele>45.8</ele>
        <time>2022-04-02T11:04:36Z</time>
      </trkpt>
      <trkpt lat="47.55324" lon="-1.56388">
        <ele>46</ele>
        <time>2022-04-02T11:04:42Z</time>
      </trkpt>
      <trkpt lat="47.55315" lon="-1.56364">
        <ele>46</ele>
        <time>2022-04-02T11:04:47Z</time>
      </trkpt>
      <trkpt lat="47.55302" lon="-1.56332">
        <ele>46</ele>
        <time>2022-04-02T11:04:54Z</time>
      </trkpt>
      <trkpt lat="47.55285" lon="-1.56289">
        <ele>46.4</ele>
        <time>2022-04-02T11:05:03Z</time>
      </trkpt>
      <trkpt lat="47.5527" lon="-1.56255">
        <ele>46.8</ele>
        <time>2022-04-02T11:05:10Z</time>
      </trkpt>
      <trkpt lat="47.55262" lon="-1.56232">
        <ele>47</ele>
        <time>2022-04-02T11:05:15Z</time>
      </trkpt>
      <trkpt lat="47.5525" lon="-1.56198">
        <ele>47.2</ele>
        <time>2022-04-02T11:05:22Z</time>
      </trkpt>
      <trkpt lat="47.55237" lon="-1.56159">
        <ele>48</ele>
        <time>2022-04-02T11:05:30Z</time>
      </trkpt>
      <trkpt lat="47.55229" lon="-1.56138">
        <ele>48.4</ele>
        <time>2022-04-02T11:05:35Z</time>
      </trkpt>
      <trkpt lat="47.55229" lon="-1.56135">
        <ele>48.4</ele>
        <time>2022-04-02T11:05:36Z</time>
      </trkpt>
      <trkpt lat="47.5523" lon="-1.56131">
        <ele>48.6</ele>
        <time>2022-04-02T11:05:37Z</time>
      </trkpt>
      <trkpt lat="47.55234" lon="-1.56126">
        <ele>48.6</ele>
        <time>2022-04-02T11:05:39Z</time>
      </trkpt>
      <trkpt lat="47.55257" lon="-1.56116">
        <ele>48.6</ele>
        <time>2022-04-02T11:05:45Z</time>
      </trkpt>
      <trkpt lat="47.55276" lon="-1.5611">
        <ele>48.6</ele>
        <time>2022-04-02T11:05:50Z</time>
      </trkpt>
      <trkpt lat="47.55281" lon="-1.56109">
        <ele>48.6</ele>
        <time>2022-04-02T11:05:51Z</time>
      </trkpt>
      <trkpt lat="47.55299" lon="-1.56103">
        <ele>49</ele>
        <time>2022-04-02T11:05:55Z</time>
      </trkpt>
      <trkpt lat="47.55313" lon="-1.56099">
        <ele>47.8</ele>
        <time>2022-04-02T11:05:58Z</time>
      </trkpt>
      <trkpt lat="47.55323" lon="-1.56094">
        <ele>48</ele>
        <time>2022-04-02T11:06:00Z</time>
      </trkpt>
      <trkpt lat="47.55356" lon="-1.56083">
        <ele>47.2</ele>
        <time>2022-04-02T11:06:07Z</time>
      </trkpt>
      <trkpt lat="47.55374" lon="-1.56079">
        <ele>46.6</ele>
        <time>2022-04-02T11:06:11Z</time>
      </trkpt>
      <trkpt lat="47.55399" lon="-1.56073">
        <ele>46</ele>
        <time>2022-04-02T11:06:16Z</time>
      </trkpt>
      <trkpt lat="47.55415" lon="-1.56069">
        <ele>45.8</ele>
        <time>2022-04-02T11:06:20Z</time>
      </trkpt>
      <trkpt lat="47.5542" lon="-1.56069">
        <ele>45.8</ele>
        <time>2022-04-02T11:06:23Z</time>
      </trkpt>
      <trkpt lat="47.55434" lon="-1.56066">
        <ele>44.6</ele>
        <time>2022-04-02T11:06:44Z</time>
      </trkpt>
      <trkpt lat="47.55447" lon="-1.56065">
        <ele>44.8</ele>
        <time>2022-04-02T11:06:48Z</time>
      </trkpt>
      <trkpt lat="47.55469" lon="-1.56068">
        <ele>45.2</ele>
        <time>2022-04-02T11:06:53Z</time>
      </trkpt>
      <trkpt lat="47.55478" lon="-1.56066">
        <ele>45.8</ele>
        <time>2022-04-02T11:06:56Z</time>
      </trkpt>
      <trkpt lat="47.55481" lon="-1.56065">
        <ele>45.8</ele>
        <time>2022-04-02T11:06:57Z</time>
      </trkpt>
      <trkpt lat="47.55483" lon="-1.56064">
        <ele>46</ele>
        <time>2022-04-02T11:06:58Z</time>
      </trkpt>
      <trkpt lat="47.55491" lon="-1.56062">
        <ele>46</ele>
        <time>2022-04-02T11:07:01Z</time>
      </trkpt>
      <trkpt lat="47.55502" lon="-1.56062">
        <ele>46.2</ele>
        <time>2022-04-02T11:07:05Z</time>
      </trkpt>
      <trkpt lat="47.55504" lon="-1.56063">
        <ele>46.2</ele>
        <time>2022-04-02T11:07:06Z</time>
      </trkpt>
      <trkpt lat="47.55508" lon="-1.56066">
        <ele>46.4</ele>
        <time>2022-04-02T11:07:08Z</time>
      </trkpt>
      <trkpt lat="47.55511" lon="-1.56066">
        <ele>46.6</ele>
        <time>2022-04-02T11:07:10Z</time>
      </trkpt>
      <trkpt lat="47.55516" lon="-1.56065">
        <ele>46.8</ele>
        <time>2022-04-02T11:07:12Z</time>
      </trkpt>
      <trkpt lat="47.55521" lon="-1.56065">
        <ele>47</ele>
        <time>2022-04-02T11:07:14Z</time>
      </trkpt>
      <trkpt lat="47.55528" lon="-1.56067">
        <ele>47.4</ele>
        <time>2022-04-02T11:07:18Z</time>
      </trkpt>
      <trkpt lat="47.55533" lon="-1.56064">
        <ele>47.8</ele>
        <time>2022-04-02T11:07:22Z</time>
      </trkpt>
      <trkpt lat="47.55536" lon="-1.56059">
        <ele>47.8</ele>
        <time>2022-04-02T11:07:24Z</time>
      </trkpt>
      <trkpt lat="47.5554" lon="-1.56059">
        <ele>47.8</ele>
        <time>2022-04-02T11:07:26Z</time>
      </trkpt>
      <trkpt lat="47.55554" lon="-1.56055">
        <ele>47.6</ele>
        <time>2022-04-02T11:07:31Z</time>
      </trkpt>
      <trkpt lat="47.55568" lon="-1.56053">
        <ele>47.6</ele>
        <time>2022-04-02T11:07:36Z</time>
      </trkpt>
      <trkpt lat="47.55578" lon="-1.56052">
        <ele>47.2</ele>
        <time>2022-04-02T11:07:43Z</time>
      </trkpt>
      <trkpt lat="47.55579" lon="-1.56051">
        <ele>47</ele>
        <time>2022-04-02T11:07:44Z</time>
      </trkpt>
      <trkpt lat="47.55579" lon="-1.56048">
        <ele>47</ele>
        <time>2022-04-02T11:07:46Z</time>
      </trkpt>
      <trkpt lat="47.55578" lon="-1.56041">
        <ele>46.6</ele>
        <time>2022-04-02T11:07:49Z</time>
      </trkpt>
      <trkpt lat="47.55579" lon="-1.56037">
        <ele>46.4</ele>
        <time>2022-04-02T11:07:50Z</time>
      </trkpt>
      <trkpt lat="47.55576" lon="-1.56025">
        <ele>45.6</ele>
        <time>2022-04-02T11:07:54Z</time>
      </trkpt>
      <trkpt lat="47.55578" lon="-1.56019">
        <ele>45.2</ele>
        <time>2022-04-02T11:07:58Z</time>
      </trkpt>
      <trkpt lat="47.55571" lon="-1.55995">
        <ele>43.2</ele>
        <time>2022-04-02T11:08:26Z</time>
      </trkpt>
      <trkpt lat="47.55568" lon="-1.55989">
        <ele>43.4</ele>
        <time>2022-04-02T11:08:28Z</time>
      </trkpt>
      <trkpt lat="47.55568" lon="-1.55986">
        <ele>43.4</ele>
        <time>2022-04-02T11:08:29Z</time>
      </trkpt>
      <trkpt lat="47.55567" lon="-1.55981">
        <ele>43.4</ele>
        <time>2022-04-02T11:08:30Z</time>
      </trkpt>
      <trkpt lat="47.55566" lon="-1.55974">
        <ele>43.2</ele>
        <time>2022-04-02T11:08:34Z</time>
      </trkpt>
      <trkpt lat="47.55557" lon="-1.55946">
        <ele>44</ele>
        <time>2022-04-02T11:08:55Z</time>
      </trkpt>
      <trkpt lat="47.55555" lon="-1.55938">
        <ele>43.8</ele>
        <time>2022-04-02T11:08:57Z</time>
      </trkpt>
      <trkpt lat="47.55549" lon="-1.5592">
        <ele>44</ele>
        <time>2022-04-02T11:09:01Z</time>
      </trkpt>
      <trkpt lat="47.55544" lon="-1.559">
        <ele>43.4</ele>
        <time>2022-04-02T11:09:05Z</time>
      </trkpt>
      <trkpt lat="47.5554" lon="-1.55884">
        <ele>43</ele>
        <time>2022-04-02T11:09:08Z</time>
      </trkpt>
      <trkpt lat="47.55535" lon="-1.55867">
        <ele>42.6</ele>
        <time>2022-04-02T11:09:11Z</time>
      </trkpt>
      <trkpt lat="47.55533" lon="-1.5586">
        <ele>42.6</ele>
        <time>2022-04-02T11:09:12Z</time>
      </trkpt>
      <trkpt lat="47.55523" lon="-1.55822">
        <ele>42.4</ele>
        <time>2022-04-02T11:09:17Z</time>
      </trkpt>
      <trkpt lat="47.55518" lon="-1.55796">
        <ele>42.4</ele>
        <time>2022-04-02T11:09:21Z</time>
      </trkpt>
      <trkpt lat="47.55519" lon="-1.5579">
        <ele>42.4</ele>
        <time>2022-04-02T11:09:22Z</time>
      </trkpt>
      <trkpt lat="47.55521" lon="-1.55783">
        <ele>42.2</ele>
        <time>2022-04-02T11:09:23Z</time>
      </trkpt>
      <trkpt lat="47.55528" lon="-1.55759">
        <ele>42.2</ele>
        <time>2022-04-02T11:09:26Z</time>
      </trkpt>
      <trkpt lat="47.55551" lon="-1.55723">
        <ele>42</ele>
        <time>2022-04-02T11:09:32Z</time>
      </trkpt>
      <trkpt lat="47.55558" lon="-1.55712">
        <ele>42</ele>
        <time>2022-04-02T11:09:34Z</time>
      </trkpt>
      <trkpt lat="47.5557" lon="-1.55693">
        <ele>42</ele>
        <time>2022-04-02T11:09:37Z</time>
      </trkpt>
      <trkpt lat="47.55575" lon="-1.55687">
        <ele>42</ele>
        <time>2022-04-02T11:09:38Z</time>
      </trkpt>
      <trkpt lat="47.55595" lon="-1.55661">
        <ele>41.8</ele>
        <time>2022-04-02T11:09:42Z</time>
      </trkpt>
      <trkpt lat="47.55625" lon="-1.55621">
        <ele>42.4</ele>
        <time>2022-04-02T11:09:48Z</time>
      </trkpt>
      <trkpt lat="47.55635" lon="-1.55609">
        <ele>42.4</ele>
        <time>2022-04-02T11:09:50Z</time>
      </trkpt>
      <trkpt lat="47.5565" lon="-1.55589">
        <ele>42.6</ele>
        <time>2022-04-02T11:09:53Z</time>
      </trkpt>
      <trkpt lat="47.55682" lon="-1.55549">
        <ele>42.8</ele>
        <time>2022-04-02T11:09:59Z</time>
      </trkpt>
      <trkpt lat="47.55727" lon="-1.55491">
        <ele>43.2</ele>
        <time>2022-04-02T11:10:08Z</time>
      </trkpt>
      <trkpt lat="47.55774" lon="-1.55437">
        <ele>43.8</ele>
        <time>2022-04-02T11:10:17Z</time>
      </trkpt>
      <trkpt lat="47.55812" lon="-1.55399">
        <ele>43.8</ele>
        <time>2022-04-02T11:10:24Z</time>
      </trkpt>
      <trkpt lat="47.5584" lon="-1.55372">
        <ele>44</ele>
        <time>2022-04-02T11:10:29Z</time>
      </trkpt>
      <trkpt lat="47.55872" lon="-1.55342">
        <ele>43.8</ele>
        <time>2022-04-02T11:10:35Z</time>
      </trkpt>
      <trkpt lat="47.55877" lon="-1.55338">
        <ele>43.8</ele>
        <time>2022-04-02T11:10:36Z</time>
      </trkpt>
      <trkpt lat="47.55885" lon="-1.55326">
        <ele>44.2</ele>
        <time>2022-04-02T11:10:38Z</time>
      </trkpt>
      <trkpt lat="47.55885" lon="-1.5531">
        <ele>43.8</ele>
        <time>2022-04-02T11:10:40Z</time>
      </trkpt>
      <trkpt lat="47.55875" lon="-1.55275">
        <ele>44</ele>
        <time>2022-04-02T11:10:45Z</time>
      </trkpt>
      <trkpt lat="47.55869" lon="-1.55244">
        <ele>44.2</ele>
        <time>2022-04-02T11:10:50Z</time>
      </trkpt>
      <trkpt lat="47.55872" lon="-1.55235">
        <ele>43.8</ele>
        <time>2022-04-02T11:10:52Z</time>
      </trkpt>
      <trkpt lat="47.55875" lon="-1.55233">
        <ele>43.8</ele>
        <time>2022-04-02T11:10:53Z</time>
      </trkpt>
      <trkpt lat="47.55889" lon="-1.55226">
        <ele>43.6</ele>
        <time>2022-04-02T11:10:59Z</time>
      </trkpt>
      <trkpt lat="47.55889" lon="-1.55226">
        <ele>43.6</ele>
        <time>2022-04-02T11:11:01Z</time>
      </trkpt>
      <trkpt lat="47.5589" lon="-1.55223">
        <ele>43.4</ele>
        <time>2022-04-02T11:11:12Z</time>
      </trkpt>
      <trkpt lat="47.5589" lon="-1.5522">
        <ele>43.2</ele>
        <time>2022-04-02T11:11:13Z</time>
      </trkpt>
      <trkpt lat="47.55888" lon="-1.55198">
        <ele>43.4</ele>
        <time>2022-04-02T11:11:19Z</time>
      </trkpt>
      <trkpt lat="47.55884" lon="-1.55158">
        <ele>43.2</ele>
        <time>2022-04-02T11:11:26Z</time>
      </trkpt>
      <trkpt lat="47.55881" lon="-1.55106">
        <ele>43.8</ele>
        <time>2022-04-02T11:11:34Z</time>
      </trkpt>
      <trkpt lat="47.55878" lon="-1.55059">
        <ele>43.8</ele>
        <time>2022-04-02T11:11:41Z</time>
      </trkpt>
      <trkpt lat="47.55878" lon="-1.55052">
        <ele>43.8</ele>
        <time>2022-04-02T11:11:42Z</time>
      </trkpt>
      <trkpt lat="47.55876" lon="-1.55018">
        <ele>43.6</ele>
        <time>2022-04-02T11:11:47Z</time>
      </trkpt>
      <trkpt lat="47.55876" lon="-1.55011">
        <ele>44</ele>
        <time>2022-04-02T11:11:48Z</time>
      </trkpt>
      <trkpt lat="47.55875" lon="-1.55004">
        <ele>44</ele>
        <time>2022-04-02T11:11:49Z</time>
      </trkpt>
      <trkpt lat="47.55871" lon="-1.54975">
        <ele>43.6</ele>
        <time>2022-04-02T11:11:53Z</time>
      </trkpt>
      <trkpt lat="47.55872" lon="-1.54945">
        <ele>43.4</ele>
        <time>2022-04-02T11:11:57Z</time>
      </trkpt>
      <trkpt lat="47.55873" lon="-1.54931">
        <ele>43.4</ele>
        <time>2022-04-02T11:11:59Z</time>
      </trkpt>
      <trkpt lat="47.55874" lon="-1.54923">
        <ele>43.4</ele>
        <time>2022-04-02T11:12:00Z</time>
      </trkpt>
      <trkpt lat="47.55877" lon="-1.54895">
        <ele>43.4</ele>
        <time>2022-04-02T11:12:04Z</time>
      </trkpt>
      <trkpt lat="47.55877" lon="-1.54888">
        <ele>43.6</ele>
        <time>2022-04-02T11:12:05Z</time>
      </trkpt>
      <trkpt lat="47.55877" lon="-1.54881">
        <ele>43.6</ele>
        <time>2022-04-02T11:12:06Z</time>
      </trkpt>
      <trkpt lat="47.55879" lon="-1.54853">
        <ele>43.8</ele>
        <time>2022-04-02T11:12:10Z</time>
      </trkpt>
      <trkpt lat="47.5588" lon="-1.54832">
        <ele>43.8</ele>
        <time>2022-04-02T11:12:13Z</time>
      </trkpt>
      <trkpt lat="47.55881" lon="-1.54819">
        <ele>44</ele>
        <time>2022-04-02T11:12:15Z</time>
      </trkpt>
      <trkpt lat="47.55882" lon="-1.54812">
        <ele>44</ele>
        <time>2022-04-02T11:12:16Z</time>
      </trkpt>
      <trkpt lat="47.55883" lon="-1.54791">
        <ele>44.2</ele>
        <time>2022-04-02T11:12:19Z</time>
      </trkpt>
      <trkpt lat="47.55883" lon="-1.54778">
        <ele>44.2</ele>
        <time>2022-04-02T11:12:21Z</time>
      </trkpt>
      <trkpt lat="47.55883" lon="-1.54771">
        <ele>44.2</ele>
        <time>2022-04-02T11:12:22Z</time>
      </trkpt>
      <trkpt lat="47.55885" lon="-1.54742">
        <ele>44.2</ele>
        <time>2022-04-02T11:12:26Z</time>
      </trkpt>
      <trkpt lat="47.55885" lon="-1.54735">
        <ele>44.2</ele>
        <time>2022-04-02T11:12:27Z</time>
      </trkpt>
      <trkpt lat="47.55886" lon="-1.54712">
        <ele>44.2</ele>
        <time>2022-04-02T11:12:30Z</time>
      </trkpt>
      <trkpt lat="47.55886" lon="-1.54697">
        <ele>44.2</ele>
        <time>2022-04-02T11:12:32Z</time>
      </trkpt>
      <trkpt lat="47.55888" lon="-1.54676">
        <ele>44.2</ele>
        <time>2022-04-02T11:12:35Z</time>
      </trkpt>
      <trkpt lat="47.55888" lon="-1.54668">
        <ele>44.2</ele>
        <time>2022-04-02T11:12:36Z</time>
      </trkpt>
      <trkpt lat="47.55889" lon="-1.54627">
        <ele>44.2</ele>
        <time>2022-04-02T11:12:42Z</time>
      </trkpt>
      <trkpt lat="47.55889" lon="-1.54615">
        <ele>44.2</ele>
        <time>2022-04-02T11:12:45Z</time>
      </trkpt>
      <trkpt lat="47.55889" lon="-1.54611">
        <ele>44.2</ele>
        <time>2022-04-02T11:12:46Z</time>
      </trkpt>
      <trkpt lat="47.55891" lon="-1.54604">
        <ele>44.2</ele>
        <time>2022-04-02T11:12:48Z</time>
      </trkpt>
      <trkpt lat="47.55892" lon="-1.54605">
        <ele>44</ele>
        <time>2022-04-02T11:12:49Z</time>
      </trkpt>
      <trkpt lat="47.55895" lon="-1.54613">
        <ele>43.8</ele>
        <time>2022-04-02T11:12:52Z</time>
      </trkpt>
      <trkpt lat="47.55895" lon="-1.54628">
        <ele>43.2</ele>
        <time>2022-04-02T11:12:56Z</time>
      </trkpt>
      <trkpt lat="47.55894" lon="-1.54639">
        <ele>42.6</ele>
        <time>2022-04-02T11:13:00Z</time>
      </trkpt>
      <trkpt lat="47.55895" lon="-1.54641">
        <ele>42.4</ele>
        <time>2022-04-02T11:13:01Z</time>
      </trkpt>
      <trkpt lat="47.55896" lon="-1.54644">
        <ele>42.2</ele>
        <time>2022-04-02T11:13:04Z</time>
      </trkpt>
      <trkpt lat="47.55913" lon="-1.54629">
        <ele>40.2</ele>
        <time>2022-04-02T11:14:39Z</time>
      </trkpt>
      <trkpt lat="47.55918" lon="-1.54627">
        <ele>40.2</ele>
        <time>2022-04-02T11:14:43Z</time>
      </trkpt>
      <trkpt lat="47.55921" lon="-1.54623">
        <ele>40</ele>
        <time>2022-04-02T11:14:45Z</time>
      </trkpt>
      <trkpt lat="47.55927" lon="-1.54624">
        <ele>40</ele>
        <time>2022-04-02T11:14:47Z</time>
      </trkpt>
      <trkpt lat="47.55943" lon="-1.54627">
        <ele>39.6</ele>
        <time>2022-04-02T11:14:50Z</time>
      </trkpt>
      <trkpt lat="47.55948" lon="-1.54627">
        <ele>39.4</ele>
        <time>2022-04-02T11:14:51Z</time>
      </trkpt>
      <trkpt lat="47.55954" lon="-1.54626">
        <ele>39.4</ele>
        <time>2022-04-02T11:14:52Z</time>
      </trkpt>
      <trkpt lat="47.55964" lon="-1.54624">
        <ele>39</ele>
        <time>2022-04-02T11:14:54Z</time>
      </trkpt>
      <trkpt lat="47.55969" lon="-1.54621">
        <ele>38.8</ele>
        <time>2022-04-02T11:14:55Z</time>
      </trkpt>
      <trkpt lat="47.55973" lon="-1.54617">
        <ele>38.8</ele>
        <time>2022-04-02T11:14:56Z</time>
      </trkpt>
      <trkpt lat="47.55976" lon="-1.54607">
        <ele>38.6</ele>
        <time>2022-04-02T11:14:58Z</time>
      </trkpt>
      <trkpt lat="47.55981" lon="-1.54599">
        <ele>38.6</ele>
        <time>2022-04-02T11:15:00Z</time>
      </trkpt>
      <trkpt lat="47.55985" lon="-1.54597">
        <ele>38.6</ele>
        <time>2022-04-02T11:15:01Z</time>
      </trkpt>
      <trkpt lat="47.56005" lon="-1.54599">
        <ele>38.6</ele>
        <time>2022-04-02T11:15:05Z</time>
      </trkpt>
      <trkpt lat="47.56009" lon="-1.54599">
        <ele>38.6</ele>
        <time>2022-04-02T11:15:06Z</time>
      </trkpt>
      <trkpt lat="47.5602" lon="-1.54595">
        <ele>38.6</ele>
        <time>2022-04-02T11:15:08Z</time>
      </trkpt>
      <trkpt lat="47.56025" lon="-1.54592">
        <ele>38.4</ele>
        <time>2022-04-02T11:15:09Z</time>
      </trkpt>
      <trkpt lat="47.5603" lon="-1.54589">
        <ele>38.4</ele>
        <time>2022-04-02T11:15:10Z</time>
      </trkpt>
      <trkpt lat="47.56049" lon="-1.54573">
        <ele>38.4</ele>
        <time>2022-04-02T11:15:14Z</time>
      </trkpt>
      <trkpt lat="47.56053" lon="-1.54572">
        <ele>38.4</ele>
        <time>2022-04-02T11:15:15Z</time>
      </trkpt>
      <trkpt lat="47.56061" lon="-1.54573">
        <ele>38.2</ele>
        <time>2022-04-02T11:15:17Z</time>
      </trkpt>
      <trkpt lat="47.56087" lon="-1.54578">
        <ele>37.8</ele>
        <time>2022-04-02T11:15:22Z</time>
      </trkpt>
      <trkpt lat="47.56102" lon="-1.54588">
        <ele>37.6</ele>
        <time>2022-04-02T11:15:26Z</time>
      </trkpt>
      <trkpt lat="47.5611" lon="-1.54593">
        <ele>37.6</ele>
        <time>2022-04-02T11:15:28Z</time>
      </trkpt>
      <trkpt lat="47.5612" lon="-1.54595">
        <ele>37.6</ele>
        <time>2022-04-02T11:15:30Z</time>
      </trkpt>
      <trkpt lat="47.56131" lon="-1.54593">
        <ele>37.6</ele>
        <time>2022-04-02T11:15:32Z</time>
      </trkpt>
      <trkpt lat="47.5614" lon="-1.54587">
        <ele>37.8</ele>
        <time>2022-04-02T11:15:34Z</time>
      </trkpt>
      <trkpt lat="47.56159" lon="-1.54571">
        <ele>38.2</ele>
        <time>2022-04-02T11:15:40Z</time>
      </trkpt>
      <trkpt lat="47.56174" lon="-1.54569">
        <ele>38.8</ele>
        <time>2022-04-02T11:15:45Z</time>
      </trkpt>
      <trkpt lat="47.56187" lon="-1.54565">
        <ele>39</ele>
        <time>2022-04-02T11:15:50Z</time>
      </trkpt>
      <trkpt lat="47.56206" lon="-1.54561">
        <ele>39.2</ele>
        <time>2022-04-02T11:15:55Z</time>
      </trkpt>
      <trkpt lat="47.56221" lon="-1.54556">
        <ele>39.2</ele>
        <time>2022-04-02T11:15:58Z</time>
      </trkpt>
      <trkpt lat="47.56226" lon="-1.54554">
        <ele>39.2</ele>
        <time>2022-04-02T11:15:59Z</time>
      </trkpt>
      <trkpt lat="47.5625" lon="-1.54544">
        <ele>39.2</ele>
        <time>2022-04-02T11:16:04Z</time>
      </trkpt>
      <trkpt lat="47.56265" lon="-1.54537">
        <ele>39.2</ele>
        <time>2022-04-02T11:16:07Z</time>
      </trkpt>
      <trkpt lat="47.56275" lon="-1.5453">
        <ele>39.2</ele>
        <time>2022-04-02T11:16:09Z</time>
      </trkpt>
      <trkpt lat="47.56283" lon="-1.5452">
        <ele>39.2</ele>
        <time>2022-04-02T11:16:11Z</time>
      </trkpt>
      <trkpt lat="47.5629" lon="-1.54509">
        <ele>39.2</ele>
        <time>2022-04-02T11:16:13Z</time>
      </trkpt>
      <trkpt lat="47.56292" lon="-1.54503">
        <ele>39.2</ele>
        <time>2022-04-02T11:16:14Z</time>
      </trkpt>
      <trkpt lat="47.56295" lon="-1.54498">
        <ele>39.2</ele>
        <time>2022-04-02T11:16:15Z</time>
      </trkpt>
      <trkpt lat="47.56303" lon="-1.54489">
        <ele>39.2</ele>
        <time>2022-04-02T11:16:17Z</time>
      </trkpt>
      <trkpt lat="47.56312" lon="-1.54478">
        <ele>39.2</ele>
        <time>2022-04-02T11:16:20Z</time>
      </trkpt>
      <trkpt lat="47.56315" lon="-1.54472">
        <ele>39</ele>
        <time>2022-04-02T11:16:21Z</time>
      </trkpt>
      <trkpt lat="47.5632" lon="-1.5446">
        <ele>39</ele>
        <time>2022-04-02T11:16:23Z</time>
      </trkpt>
      <trkpt lat="47.56323" lon="-1.54448">
        <ele>39</ele>
        <time>2022-04-02T11:16:25Z</time>
      </trkpt>
      <trkpt lat="47.56325" lon="-1.54442">
        <ele>39</ele>
        <time>2022-04-02T11:16:26Z</time>
      </trkpt>
      <trkpt lat="47.5633" lon="-1.54428">
        <ele>39</ele>
        <time>2022-04-02T11:16:28Z</time>
      </trkpt>
      <trkpt lat="47.56333" lon="-1.54423">
        <ele>39</ele>
        <time>2022-04-02T11:16:29Z</time>
      </trkpt>
      <trkpt lat="47.56336" lon="-1.54417">
        <ele>39</ele>
        <time>2022-04-02T11:16:30Z</time>
      </trkpt>
      <trkpt lat="47.56343" lon="-1.54406">
        <ele>38.8</ele>
        <time>2022-04-02T11:16:32Z</time>
      </trkpt>
      <trkpt lat="47.56352" lon="-1.54395">
        <ele>38.8</ele>
        <time>2022-04-02T11:16:34Z</time>
      </trkpt>
      <trkpt lat="47.56363" lon="-1.54375">
        <ele>38.8</ele>
        <time>2022-04-02T11:16:37Z</time>
      </trkpt>
      <trkpt lat="47.5637" lon="-1.54363">
        <ele>38.8</ele>
        <time>2022-04-02T11:16:39Z</time>
      </trkpt>
      <trkpt lat="47.56378" lon="-1.54355">
        <ele>38.8</ele>
        <time>2022-04-02T11:16:41Z</time>
      </trkpt>
      <trkpt lat="47.56392" lon="-1.54344">
        <ele>38.8</ele>
        <time>2022-04-02T11:16:44Z</time>
      </trkpt>
      <trkpt lat="47.56402" lon="-1.54335">
        <ele>38.8</ele>
        <time>2022-04-02T11:16:46Z</time>
      </trkpt>
      <trkpt lat="47.56437" lon="-1.54299">
        <ele>38.8</ele>
        <time>2022-04-02T11:16:53Z</time>
      </trkpt>
      <trkpt lat="47.56441" lon="-1.54294">
        <ele>38.6</ele>
        <time>2022-04-02T11:16:54Z</time>
      </trkpt>
      <trkpt lat="47.56447" lon="-1.54281">
        <ele>38.6</ele>
        <time>2022-04-02T11:16:56Z</time>
      </trkpt>
      <trkpt lat="47.56447" lon="-1.54274">
        <ele>38.6</ele>
        <time>2022-04-02T11:16:57Z</time>
      </trkpt>
      <trkpt lat="47.56446" lon="-1.54266">
        <ele>38.6</ele>
        <time>2022-04-02T11:16:58Z</time>
      </trkpt>
      <trkpt lat="47.56441" lon="-1.54254">
        <ele>38.6</ele>
        <time>2022-04-02T11:17:00Z</time>
      </trkpt>
      <trkpt lat="47.56435" lon="-1.54243">
        <ele>38.6</ele>
        <time>2022-04-02T11:17:02Z</time>
      </trkpt>
      <trkpt lat="47.56429" lon="-1.54232">
        <ele>38.6</ele>
        <time>2022-04-02T11:17:04Z</time>
      </trkpt>
      <trkpt lat="47.56427" lon="-1.54225">
        <ele>38.6</ele>
        <time>2022-04-02T11:17:05Z</time>
      </trkpt>
      <trkpt lat="47.56425" lon="-1.54219">
        <ele>38.4</ele>
        <time>2022-04-02T11:17:06Z</time>
      </trkpt>
      <trkpt lat="47.56424" lon="-1.54205">
        <ele>38.4</ele>
        <time>2022-04-02T11:17:08Z</time>
      </trkpt>
      <trkpt lat="47.56425" lon="-1.54199">
        <ele>38.2</ele>
        <time>2022-04-02T11:17:09Z</time>
      </trkpt>
      <trkpt lat="47.56428" lon="-1.54193">
        <ele>38.2</ele>
        <time>2022-04-02T11:17:10Z</time>
      </trkpt>
      <trkpt lat="47.56434" lon="-1.54187">
        <ele>38</ele>
        <time>2022-04-02T11:17:11Z</time>
      </trkpt>
      <trkpt lat="47.56469" lon="-1.54163">
        <ele>37.4</ele>
        <time>2022-04-02T11:17:16Z</time>
      </trkpt>
      <trkpt lat="47.56475" lon="-1.54159">
        <ele>37.4</ele>
        <time>2022-04-02T11:17:17Z</time>
      </trkpt>
      <trkpt lat="47.56492" lon="-1.54144">
        <ele>37.2</ele>
        <time>2022-04-02T11:17:20Z</time>
      </trkpt>
      <trkpt lat="47.56502" lon="-1.54133">
        <ele>37.2</ele>
        <time>2022-04-02T11:17:22Z</time>
      </trkpt>
      <trkpt lat="47.56512" lon="-1.54125">
        <ele>37.2</ele>
        <time>2022-04-02T11:17:24Z</time>
      </trkpt>
      <trkpt lat="47.56516" lon="-1.54122">
        <ele>37.2</ele>
        <time>2022-04-02T11:17:25Z</time>
      </trkpt>
      <trkpt lat="47.56523" lon="-1.54116">
        <ele>37</ele>
        <time>2022-04-02T11:17:27Z</time>
      </trkpt>
      <trkpt lat="47.56524" lon="-1.54115">
        <ele>36.8</ele>
        <time>2022-04-02T11:17:28Z</time>
      </trkpt>
      <trkpt lat="47.56523" lon="-1.54113">
        <ele>36.8</ele>
        <time>2022-04-02T11:17:29Z</time>
      </trkpt>
      <trkpt lat="47.56523" lon="-1.54112">
        <ele>36.8</ele>
        <time>2022-04-02T11:17:30Z</time>
      </trkpt>
      <trkpt lat="47.56524" lon="-1.54104">
        <ele>36.4</ele>
        <time>2022-04-02T11:17:33Z</time>
      </trkpt>
      <trkpt lat="47.56524" lon="-1.54089">
        <ele>36</ele>
        <time>2022-04-02T11:17:37Z</time>
      </trkpt>
      <trkpt lat="47.56525" lon="-1.54083">
        <ele>35.6</ele>
        <time>2022-04-02T11:17:39Z</time>
      </trkpt>
      <trkpt lat="47.56524" lon="-1.54079">
        <ele>35.4</ele>
        <time>2022-04-02T11:17:40Z</time>
      </trkpt>
      <trkpt lat="47.56524" lon="-1.54076">
        <ele>35.4</ele>
        <time>2022-04-02T11:17:41Z</time>
      </trkpt>
      <trkpt lat="47.56524" lon="-1.54069">
        <ele>34.8</ele>
        <time>2022-04-02T11:17:45Z</time>
      </trkpt>
      <trkpt lat="47.56525" lon="-1.54056">
        <ele>33.8</ele>
        <time>2022-04-02T11:17:50Z</time>
      </trkpt>
      <trkpt lat="47.56524" lon="-1.54047">
        <ele>32.8</ele>
        <time>2022-04-02T11:17:55Z</time>
      </trkpt>
      <trkpt lat="47.56522" lon="-1.54039">
        <ele>32.4</ele>
        <time>2022-04-02T11:17:57Z</time>
      </trkpt>
      <trkpt lat="47.56523" lon="-1.54037">
        <ele>32</ele>
        <time>2022-04-02T11:17:58Z</time>
      </trkpt>
      <trkpt lat="47.56523" lon="-1.5403">
        <ele>31.6</ele>
        <time>2022-04-02T11:18:00Z</time>
      </trkpt>
      <trkpt lat="47.56523" lon="-1.54024">
        <ele>31</ele>
        <time>2022-04-02T11:18:02Z</time>
      </trkpt>
      <trkpt lat="47.56524" lon="-1.54016">
        <ele>30.2</ele>
        <time>2022-04-02T11:18:05Z</time>
      </trkpt>
      <trkpt lat="47.56524" lon="-1.54013">
        <ele>29.8</ele>
        <time>2022-04-02T11:18:06Z</time>
      </trkpt>
      <trkpt lat="47.56525" lon="-1.54002">
        <ele>28.6</ele>
        <time>2022-04-02T11:18:10Z</time>
      </trkpt>
      <trkpt lat="47.56524" lon="-1.53987">
        <ele>28.2</ele>
        <time>2022-04-02T11:18:13Z</time>
      </trkpt>
      <trkpt lat="47.56524" lon="-1.53982">
        <ele>27.8</ele>
        <time>2022-04-02T11:18:14Z</time>
      </trkpt>
      <trkpt lat="47.56522" lon="-1.53968">
        <ele>27.2</ele>
        <time>2022-04-02T11:18:17Z</time>
      </trkpt>
      <trkpt lat="47.56522" lon="-1.53965">
        <ele>26.8</ele>
        <time>2022-04-02T11:18:18Z</time>
      </trkpt>
      <trkpt lat="47.56522" lon="-1.5396">
        <ele>26.6</ele>
        <time>2022-04-02T11:18:19Z</time>
      </trkpt>
      <trkpt lat="47.56521" lon="-1.53951">
        <ele>26</ele>
        <time>2022-04-02T11:18:21Z</time>
      </trkpt>
      <trkpt lat="47.56523" lon="-1.53933">
        <ele>25.2</ele>
        <time>2022-04-02T11:18:26Z</time>
      </trkpt>
      <trkpt lat="47.56524" lon="-1.53926">
        <ele>24.8</ele>
        <time>2022-04-02T11:18:28Z</time>
      </trkpt>
      <trkpt lat="47.56525" lon="-1.53923">
        <ele>24.4</ele>
        <time>2022-04-02T11:18:30Z</time>
      </trkpt>
      <trkpt lat="47.56525" lon="-1.53915">
        <ele>23.8</ele>
        <time>2022-04-02T11:18:32Z</time>
      </trkpt>
      <trkpt lat="47.56521" lon="-1.53889">
        <ele>23</ele>
        <time>2022-04-02T11:18:37Z</time>
      </trkpt>
      <trkpt lat="47.56523" lon="-1.53886">
        <ele>22.8</ele>
        <time>2022-04-02T11:18:38Z</time>
      </trkpt>
      <trkpt lat="47.5652" lon="-1.53868">
        <ele>22.8</ele>
        <time>2022-04-02T11:18:41Z</time>
      </trkpt>
      <trkpt lat="47.56519" lon="-1.5385">
        <ele>22.8</ele>
        <time>2022-04-02T11:18:44Z</time>
      </trkpt>
      <trkpt lat="47.56521" lon="-1.53838">
        <ele>22.4</ele>
        <time>2022-04-02T11:18:47Z</time>
      </trkpt>
      <trkpt lat="47.56523" lon="-1.53829">
        <ele>22</ele>
        <time>2022-04-02T11:18:49Z</time>
      </trkpt>
      <trkpt lat="47.56523" lon="-1.53812">
        <ele>21.2</ele>
        <time>2022-04-02T11:18:53Z</time>
      </trkpt>
      <trkpt lat="47.56522" lon="-1.53785">
        <ele>21</ele>
        <time>2022-04-02T11:18:57Z</time>
      </trkpt>
      <trkpt lat="47.5652" lon="-1.53765">
        <ele>20.8</ele>
        <time>2022-04-02T11:19:01Z</time>
      </trkpt>
      <trkpt lat="47.5652" lon="-1.53746">
        <ele>20.6</ele>
        <time>2022-04-02T11:19:05Z</time>
      </trkpt>
      <trkpt lat="47.56523" lon="-1.53738">
        <ele>20.8</ele>
        <time>2022-04-02T11:19:07Z</time>
      </trkpt>
      <trkpt lat="47.56525" lon="-1.53733">
        <ele>21.2</ele>
        <time>2022-04-02T11:19:08Z</time>
      </trkpt>
      <trkpt lat="47.56521" lon="-1.53728">
        <ele>20.8</ele>
        <time>2022-04-02T11:19:11Z</time>
      </trkpt>
      <trkpt lat="47.56518" lon="-1.53727">
        <ele>21</ele>
        <time>2022-04-02T11:19:13Z</time>
      </trkpt>
      <trkpt lat="47.56513" lon="-1.53725">
        <ele>23</ele>
        <time>2022-04-02T11:19:16Z</time>
      </trkpt>
      <trkpt lat="47.56503" lon="-1.53721">
        <ele>22</ele>
        <time>2022-04-02T11:19:21Z</time>
      </trkpt>
      <trkpt lat="47.56494" lon="-1.53717">
        <ele>22</ele>
        <time>2022-04-02T11:19:24Z</time>
      </trkpt>
      <trkpt lat="47.56481" lon="-1.53709">
        <ele>22.4</ele>
        <time>2022-04-02T11:19:28Z</time>
      </trkpt>
      <trkpt lat="47.56472" lon="-1.53703">
        <ele>22.6</ele>
        <time>2022-04-02T11:19:33Z</time>
      </trkpt>
      <trkpt lat="47.56462" lon="-1.537">
        <ele>23.2</ele>
        <time>2022-04-02T11:19:36Z</time>
      </trkpt>
      <trkpt lat="47.56458" lon="-1.53698">
        <ele>23.4</ele>
        <time>2022-04-02T11:19:37Z</time>
      </trkpt>
      <trkpt lat="47.56446" lon="-1.53692">
        <ele>24</ele>
        <time>2022-04-02T11:19:41Z</time>
      </trkpt>
      <trkpt lat="47.56445" lon="-1.53692">
        <ele>24.2</ele>
        <time>2022-04-02T11:19:42Z</time>
      </trkpt>
      <trkpt lat="47.56444" lon="-1.53684">
        <ele>30.4</ele>
        <time>2022-04-02T11:21:44Z</time>
      </trkpt>
      <trkpt lat="47.56444" lon="-1.53676">
        <ele>30.4</ele>
        <time>2022-04-02T11:21:46Z</time>
      </trkpt>
      <trkpt lat="47.5645" lon="-1.53671">
        <ele>30.2</ele>
        <time>2022-04-02T11:21:49Z</time>
      </trkpt>
      <trkpt lat="47.56452" lon="-1.53669">
        <ele>30.6</ele>
        <time>2022-04-02T11:21:50Z</time>
      </trkpt>
      <trkpt lat="47.56454" lon="-1.53665">
        <ele>30.8</ele>
        <time>2022-04-02T11:21:51Z</time>
      </trkpt>
      <trkpt lat="47.56455" lon="-1.53655">
        <ele>31</ele>
        <time>2022-04-02T11:21:53Z</time>
      </trkpt>
      <trkpt lat="47.56461" lon="-1.53628">
        <ele>31.4</ele>
        <time>2022-04-02T11:21:58Z</time>
      </trkpt>
      <trkpt lat="47.56466" lon="-1.53598">
        <ele>31.4</ele>
        <time>2022-04-02T11:22:03Z</time>
      </trkpt>
      <trkpt lat="47.5647" lon="-1.5358">
        <ele>31.4</ele>
        <time>2022-04-02T11:22:06Z</time>
      </trkpt>
      <trkpt lat="47.56471" lon="-1.53569">
        <ele>31.4</ele>
        <time>2022-04-02T11:22:08Z</time>
      </trkpt>
      <trkpt lat="47.5648" lon="-1.53539">
        <ele>31.4</ele>
        <time>2022-04-02T11:22:13Z</time>
      </trkpt>
      <trkpt lat="47.56484" lon="-1.53511">
        <ele>31.4</ele>
        <time>2022-04-02T11:22:17Z</time>
      </trkpt>
      <trkpt lat="47.5649" lon="-1.53498">
        <ele>31.6</ele>
        <time>2022-04-02T11:22:19Z</time>
      </trkpt>
      <trkpt lat="47.56496" lon="-1.53473">
        <ele>31.6</ele>
        <time>2022-04-02T11:22:23Z</time>
      </trkpt>
      <trkpt lat="47.56497" lon="-1.53466">
        <ele>31.6</ele>
        <time>2022-04-02T11:22:24Z</time>
      </trkpt>
      <trkpt lat="47.565" lon="-1.53451">
        <ele>31.6</ele>
        <time>2022-04-02T11:22:26Z</time>
      </trkpt>
      <trkpt lat="47.56502" lon="-1.53445">
        <ele>31.6</ele>
        <time>2022-04-02T11:22:27Z</time>
      </trkpt>
      <trkpt lat="47.56503" lon="-1.53438">
        <ele>31.6</ele>
        <time>2022-04-02T11:22:28Z</time>
      </trkpt>
      <trkpt lat="47.56506" lon="-1.53422">
        <ele>31.2</ele>
        <time>2022-04-02T11:22:30Z</time>
      </trkpt>
      <trkpt lat="47.56507" lon="-1.53414">
        <ele>31.2</ele>
        <time>2022-04-02T11:22:31Z</time>
      </trkpt>
      <trkpt lat="47.56509" lon="-1.53398">
        <ele>31</ele>
        <time>2022-04-02T11:22:33Z</time>
      </trkpt>
      <trkpt lat="47.56511" lon="-1.53382">
        <ele>31</ele>
        <time>2022-04-02T11:22:35Z</time>
      </trkpt>
      <trkpt lat="47.56516" lon="-1.5335">
        <ele>30.6</ele>
        <time>2022-04-02T11:22:39Z</time>
      </trkpt>
      <trkpt lat="47.56518" lon="-1.53334">
        <ele>30.4</ele>
        <time>2022-04-02T11:22:41Z</time>
      </trkpt>
      <trkpt lat="47.56518" lon="-1.53319">
        <ele>30</ele>
        <time>2022-04-02T11:22:43Z</time>
      </trkpt>
      <trkpt lat="47.56519" lon="-1.53304">
        <ele>29.6</ele>
        <time>2022-04-02T11:22:45Z</time>
      </trkpt>
      <trkpt lat="47.56525" lon="-1.53297">
        <ele>30</ele>
        <time>2022-04-02T11:22:46Z</time>
      </trkpt>
      <trkpt lat="47.56529" lon="-1.53288">
        <ele>30</ele>
        <time>2022-04-02T11:22:47Z</time>
      </trkpt>
      <trkpt lat="47.56534" lon="-1.53273">
        <ele>30.2</ele>
        <time>2022-04-02T11:22:49Z</time>
      </trkpt>
      <trkpt lat="47.56533" lon="-1.53266">
        <ele>30</ele>
        <time>2022-04-02T11:22:50Z</time>
      </trkpt>
      <trkpt lat="47.56533" lon="-1.5325">
        <ele>29.8</ele>
        <time>2022-04-02T11:22:52Z</time>
      </trkpt>
      <trkpt lat="47.56532" lon="-1.53234">
        <ele>29.8</ele>
        <time>2022-04-02T11:22:54Z</time>
      </trkpt>
      <trkpt lat="47.56532" lon="-1.53221">
        <ele>29.6</ele>
        <time>2022-04-02T11:22:56Z</time>
      </trkpt>
      <trkpt lat="47.56532" lon="-1.53214">
        <ele>29.4</ele>
        <time>2022-04-02T11:22:57Z</time>
      </trkpt>
      <trkpt lat="47.56533" lon="-1.53207">
        <ele>29.2</ele>
        <time>2022-04-02T11:22:58Z</time>
      </trkpt>
      <trkpt lat="47.56533" lon="-1.53184">
        <ele>28.6</ele>
        <time>2022-04-02T11:23:01Z</time>
      </trkpt>
      <trkpt lat="47.56531" lon="-1.53151">
        <ele>28.4</ele>
        <time>2022-04-02T11:23:05Z</time>
      </trkpt>
      <trkpt lat="47.56528" lon="-1.53134">
        <ele>28.6</ele>
        <time>2022-04-02T11:23:07Z</time>
      </trkpt>
      <trkpt lat="47.56525" lon="-1.53113">
        <ele>28.2</ele>
        <time>2022-04-02T11:23:10Z</time>
      </trkpt>
      <trkpt lat="47.56525" lon="-1.53091">
        <ele>28.2</ele>
        <time>2022-04-02T11:23:14Z</time>
      </trkpt>
      <trkpt lat="47.56524" lon="-1.53063">
        <ele>27.6</ele>
        <time>2022-04-02T11:23:18Z</time>
      </trkpt>
      <trkpt lat="47.56519" lon="-1.53027">
        <ele>27</ele>
        <time>2022-04-02T11:23:23Z</time>
      </trkpt>
      <trkpt lat="47.56515" lon="-1.53013">
        <ele>27</ele>
        <time>2022-04-02T11:23:25Z</time>
      </trkpt>
      <trkpt lat="47.56509" lon="-1.53006">
        <ele>27.2</ele>
        <time>2022-04-02T11:23:27Z</time>
      </trkpt>
      <trkpt lat="47.56486" lon="-1.53015">
        <ele>27.8</ele>
        <time>2022-04-02T11:23:33Z</time>
      </trkpt>
      <trkpt lat="47.56451" lon="-1.53034">
        <ele>28.6</ele>
        <time>2022-04-02T11:23:41Z</time>
      </trkpt>
      <trkpt lat="47.56423" lon="-1.53051">
        <ele>29.2</ele>
        <time>2022-04-02T11:23:48Z</time>
      </trkpt>
      <trkpt lat="47.5642" lon="-1.53054">
        <ele>29.4</ele>
        <time>2022-04-02T11:23:49Z</time>
      </trkpt>
      <trkpt lat="47.56396" lon="-1.53069">
        <ele>29.8</ele>
        <time>2022-04-02T11:23:55Z</time>
      </trkpt>
      <trkpt lat="47.56387" lon="-1.53075">
        <ele>30</ele>
        <time>2022-04-02T11:23:57Z</time>
      </trkpt>
      <trkpt lat="47.56379" lon="-1.53079">
        <ele>30.4</ele>
        <time>2022-04-02T11:23:59Z</time>
      </trkpt>
      <trkpt lat="47.56357" lon="-1.53093">
        <ele>30.8</ele>
        <time>2022-04-02T11:24:04Z</time>
      </trkpt>
      <trkpt lat="47.56329" lon="-1.53111">
        <ele>31.6</ele>
        <time>2022-04-02T11:24:11Z</time>
      </trkpt>
      <trkpt lat="47.56321" lon="-1.53116">
        <ele>31.8</ele>
        <time>2022-04-02T11:24:13Z</time>
      </trkpt>
      <trkpt lat="47.56308" lon="-1.53124">
        <ele>32</ele>
        <time>2022-04-02T11:24:16Z</time>
      </trkpt>
      <trkpt lat="47.56299" lon="-1.53129">
        <ele>32.2</ele>
        <time>2022-04-02T11:24:18Z</time>
      </trkpt>
      <trkpt lat="47.56287" lon="-1.53137">
        <ele>32.4</ele>
        <time>2022-04-02T11:24:21Z</time>
      </trkpt>
      <trkpt lat="47.56263" lon="-1.53154">
        <ele>33</ele>
        <time>2022-04-02T11:24:27Z</time>
      </trkpt>
      <trkpt lat="47.5626" lon="-1.53158">
        <ele>33.2</ele>
        <time>2022-04-02T11:24:28Z</time>
      </trkpt>
      <trkpt lat="47.56254" lon="-1.53167">
        <ele>33.4</ele>
        <time>2022-04-02T11:24:30Z</time>
      </trkpt>
      <trkpt lat="47.56241" lon="-1.53192">
        <ele>33.8</ele>
        <time>2022-04-02T11:24:35Z</time>
      </trkpt>
      <trkpt lat="47.56235" lon="-1.53203">
        <ele>33.8</ele>
        <time>2022-04-02T11:24:37Z</time>
      </trkpt>
      <trkpt lat="47.5623" lon="-1.53214">
        <ele>34</ele>
        <time>2022-04-02T11:24:39Z</time>
      </trkpt>
      <trkpt lat="47.56227" lon="-1.53219">
        <ele>34</ele>
        <time>2022-04-02T11:24:40Z</time>
      </trkpt>
      <trkpt lat="47.56197" lon="-1.53258">
        <ele>34.6</ele>
        <time>2022-04-02T11:24:49Z</time>
      </trkpt>
      <trkpt lat="47.5619" lon="-1.53264">
        <ele>34.8</ele>
        <time>2022-04-02T11:24:51Z</time>
      </trkpt>
      <trkpt lat="47.56178" lon="-1.53269">
        <ele>35.2</ele>
        <time>2022-04-02T11:24:54Z</time>
      </trkpt>
      <trkpt lat="47.56159" lon="-1.53267">
        <ele>35.6</ele>
        <time>2022-04-02T11:24:59Z</time>
      </trkpt>
      <trkpt lat="47.56131" lon="-1.53264">
        <ele>36.4</ele>
        <time>2022-04-02T11:25:06Z</time>
      </trkpt>
      <trkpt lat="47.56104" lon="-1.53261">
        <ele>36.8</ele>
        <time>2022-04-02T11:25:13Z</time>
      </trkpt>
      <trkpt lat="47.56083" lon="-1.53266">
        <ele>37.4</ele>
        <time>2022-04-02T11:25:19Z</time>
      </trkpt>
      <trkpt lat="47.5606" lon="-1.53286">
        <ele>38.2</ele>
        <time>2022-04-02T11:25:26Z</time>
      </trkpt>
      <trkpt lat="47.56043" lon="-1.53311">
        <ele>38.8</ele>
        <time>2022-04-02T11:25:32Z</time>
      </trkpt>
      <trkpt lat="47.56025" lon="-1.53344">
        <ele>39.2</ele>
        <time>2022-04-02T11:25:39Z</time>
      </trkpt>
      <trkpt lat="47.56017" lon="-1.53359">
        <ele>39.2</ele>
        <time>2022-04-02T11:25:42Z</time>
      </trkpt>
      <trkpt lat="47.56011" lon="-1.53367">
        <ele>39.4</ele>
        <time>2022-04-02T11:25:44Z</time>
      </trkpt>
      <trkpt lat="47.56008" lon="-1.53371">
        <ele>39.4</ele>
        <time>2022-04-02T11:25:45Z</time>
      </trkpt>
      <trkpt lat="47.56004" lon="-1.53374">
        <ele>39.6</ele>
        <time>2022-04-02T11:25:46Z</time>
      </trkpt>
      <trkpt lat="47.55988" lon="-1.5338">
        <ele>40</ele>
        <time>2022-04-02T11:25:50Z</time>
      </trkpt>
      <trkpt lat="47.55972" lon="-1.53378">
        <ele>40.4</ele>
        <time>2022-04-02T11:25:55Z</time>
      </trkpt>
      <trkpt lat="47.5595" lon="-1.53375">
        <ele>41.2</ele>
        <time>2022-04-02T11:26:02Z</time>
      </trkpt>
      <trkpt lat="47.55932" lon="-1.5337">
        <ele>41.6</ele>
        <time>2022-04-02T11:26:08Z</time>
      </trkpt>
      <trkpt lat="47.55915" lon="-1.53363">
        <ele>42.4</ele>
        <time>2022-04-02T11:26:14Z</time>
      </trkpt>
      <trkpt lat="47.55897" lon="-1.53352">
        <ele>43.4</ele>
        <time>2022-04-02T11:26:21Z</time>
      </trkpt>
      <trkpt lat="47.55885" lon="-1.53345">
        <ele>44.2</ele>
        <time>2022-04-02T11:26:26Z</time>
      </trkpt>
      <trkpt lat="47.55881" lon="-1.53342">
        <ele>44.4</ele>
        <time>2022-04-02T11:26:28Z</time>
      </trkpt>
      <trkpt lat="47.55873" lon="-1.53339">
        <ele>44.8</ele>
        <time>2022-04-02T11:26:31Z</time>
      </trkpt>
      <trkpt lat="47.55862" lon="-1.53332">
        <ele>45.4</ele>
        <time>2022-04-02T11:26:36Z</time>
      </trkpt>
      <trkpt lat="47.55847" lon="-1.53329">
        <ele>46.4</ele>
        <time>2022-04-02T11:26:42Z</time>
      </trkpt>
      <trkpt lat="47.55836" lon="-1.53325">
        <ele>47</ele>
        <time>2022-04-02T11:26:46Z</time>
      </trkpt>
      <trkpt lat="47.55819" lon="-1.53313">
        <ele>47.8</ele>
        <time>2022-04-02T11:26:53Z</time>
      </trkpt>
      <trkpt lat="47.55798" lon="-1.53299">
        <ele>48.6</ele>
        <time>2022-04-02T11:27:00Z</time>
      </trkpt>
      <trkpt lat="47.55781" lon="-1.53288">
        <ele>49.4</ele>
        <time>2022-04-02T11:27:06Z</time>
      </trkpt>
      <trkpt lat="47.55767" lon="-1.53279">
        <ele>50</ele>
        <time>2022-04-02T11:27:11Z</time>
      </trkpt>
      <trkpt lat="47.55757" lon="-1.53267">
        <ele>49.8</ele>
        <time>2022-04-02T11:27:16Z</time>
      </trkpt>
      <trkpt lat="47.55742" lon="-1.5325">
        <ele>50.6</ele>
        <time>2022-04-02T11:27:21Z</time>
      </trkpt>
      <trkpt lat="47.55721" lon="-1.53214">
        <ele>51.6</ele>
        <time>2022-04-02T11:27:28Z</time>
      </trkpt>
      <trkpt lat="47.5571" lon="-1.53185">
        <ele>52.2</ele>
        <time>2022-04-02T11:27:33Z</time>
      </trkpt>
      <trkpt lat="47.55706" lon="-1.53173">
        <ele>52.4</ele>
        <time>2022-04-02T11:27:35Z</time>
      </trkpt>
      <trkpt lat="47.55704" lon="-1.53167">
        <ele>52.4</ele>
        <time>2022-04-02T11:27:36Z</time>
      </trkpt>
      <trkpt lat="47.55698" lon="-1.53158">
        <ele>52.6</ele>
        <time>2022-04-02T11:27:38Z</time>
      </trkpt>
      <trkpt lat="47.55694" lon="-1.53155">
        <ele>52.8</ele>
        <time>2022-04-02T11:27:39Z</time>
      </trkpt>
      <trkpt lat="47.5569" lon="-1.53153">
        <ele>52.8</ele>
        <time>2022-04-02T11:27:40Z</time>
      </trkpt>
      <trkpt lat="47.55668" lon="-1.53147">
        <ele>53.2</ele>
        <time>2022-04-02T11:27:45Z</time>
      </trkpt>
      <trkpt lat="47.5562" lon="-1.53135">
        <ele>54</ele>
        <time>2022-04-02T11:27:55Z</time>
      </trkpt>
      <trkpt lat="47.55577" lon="-1.53122">
        <ele>54.4</ele>
        <time>2022-04-02T11:28:03Z</time>
      </trkpt>
      <trkpt lat="47.55572" lon="-1.53121">
        <ele>54.4</ele>
        <time>2022-04-02T11:28:04Z</time>
      </trkpt>
      <trkpt lat="47.55562" lon="-1.53126">
        <ele>54.6</ele>
        <time>2022-04-02T11:28:06Z</time>
      </trkpt>
      <trkpt lat="47.55555" lon="-1.5313">
        <ele>54.8</ele>
        <time>2022-04-02T11:28:08Z</time>
      </trkpt>
      <trkpt lat="47.55551" lon="-1.53129">
        <ele>54.8</ele>
        <time>2022-04-02T11:28:09Z</time>
      </trkpt>
      <trkpt lat="47.55547" lon="-1.53126">
        <ele>54.8</ele>
        <time>2022-04-02T11:28:10Z</time>
      </trkpt>
      <trkpt lat="47.55533" lon="-1.53118">
        <ele>55</ele>
        <time>2022-04-02T11:28:13Z</time>
      </trkpt>
      <trkpt lat="47.55524" lon="-1.53117">
        <ele>55</ele>
        <time>2022-04-02T11:28:15Z</time>
      </trkpt>
      <trkpt lat="47.55514" lon="-1.53118">
        <ele>55</ele>
        <time>2022-04-02T11:28:17Z</time>
      </trkpt>
      <trkpt lat="47.55506" lon="-1.53123">
        <ele>55.2</ele>
        <time>2022-04-02T11:28:19Z</time>
      </trkpt>
      <trkpt lat="47.55497" lon="-1.53129">
        <ele>55.4</ele>
        <time>2022-04-02T11:28:21Z</time>
      </trkpt>
      <trkpt lat="47.55459" lon="-1.53146">
        <ele>55.8</ele>
        <time>2022-04-02T11:28:29Z</time>
      </trkpt>
      <trkpt lat="47.5542" lon="-1.53165">
        <ele>56.2</ele>
        <time>2022-04-02T11:28:38Z</time>
      </trkpt>
      <trkpt lat="47.55395" lon="-1.53177">
        <ele>56.4</ele>
        <time>2022-04-02T11:28:44Z</time>
      </trkpt>
      <trkpt lat="47.55387" lon="-1.53182">
        <ele>56.6</ele>
        <time>2022-04-02T11:28:46Z</time>
      </trkpt>
      <trkpt lat="47.55384" lon="-1.53184">
        <ele>56.6</ele>
        <time>2022-04-02T11:28:47Z</time>
      </trkpt>
      <trkpt lat="47.5536" lon="-1.53193">
        <ele>57</ele>
        <time>2022-04-02T11:28:53Z</time>
      </trkpt>
      <trkpt lat="47.55349" lon="-1.53197">
        <ele>57.2</ele>
        <time>2022-04-02T11:28:56Z</time>
      </trkpt>
      <trkpt lat="47.55324" lon="-1.53209">
        <ele>57.6</ele>
        <time>2022-04-02T11:29:03Z</time>
      </trkpt>
      <trkpt lat="47.55306" lon="-1.53219">
        <ele>58</ele>
        <time>2022-04-02T11:29:09Z</time>
      </trkpt>
      <trkpt lat="47.5529" lon="-1.53226">
        <ele>58.4</ele>
        <time>2022-04-02T11:29:14Z</time>
      </trkpt>
      <trkpt lat="47.55272" lon="-1.53233">
        <ele>59</ele>
        <time>2022-04-02T11:29:20Z</time>
      </trkpt>
      <trkpt lat="47.55257" lon="-1.53237">
        <ele>59.4</ele>
        <time>2022-04-02T11:29:26Z</time>
      </trkpt>
      <trkpt lat="47.55239" lon="-1.53235">
        <ele>59.8</ele>
        <time>2022-04-02T11:29:33Z</time>
      </trkpt>
      <trkpt lat="47.55223" lon="-1.53229">
        <ele>60</ele>
        <time>2022-04-02T11:29:37Z</time>
      </trkpt>
      <trkpt lat="47.55194" lon="-1.53223">
        <ele>60</ele>
        <time>2022-04-02T11:29:42Z</time>
      </trkpt>
      <trkpt lat="47.5516" lon="-1.53217">
        <ele>59.8</ele>
        <time>2022-04-02T11:29:47Z</time>
      </trkpt>
      <trkpt lat="47.55119" lon="-1.53211">
        <ele>59.2</ele>
        <time>2022-04-02T11:29:52Z</time>
      </trkpt>
      <trkpt lat="47.55065" lon="-1.53208">
        <ele>59</ele>
        <time>2022-04-02T11:29:58Z</time>
      </trkpt>
      <trkpt lat="47.55034" lon="-1.53212">
        <ele>58.6</ele>
        <time>2022-04-02T11:30:02Z</time>
      </trkpt>
      <trkpt lat="47.55026" lon="-1.5321">
        <ele>58.4</ele>
        <time>2022-04-02T11:30:03Z</time>
      </trkpt>
      <trkpt lat="47.55018" lon="-1.53208">
        <ele>58.4</ele>
        <time>2022-04-02T11:30:04Z</time>
      </trkpt>
      <trkpt lat="47.55002" lon="-1.53209">
        <ele>58</ele>
        <time>2022-04-02T11:30:06Z</time>
      </trkpt>
      <trkpt lat="47.54959" lon="-1.53209">
        <ele>57.2</ele>
        <time>2022-04-02T11:30:11Z</time>
      </trkpt>
      <trkpt lat="47.54905" lon="-1.53213">
        <ele>56.4</ele>
        <time>2022-04-02T11:30:17Z</time>
      </trkpt>
      <trkpt lat="47.54896" lon="-1.53215">
        <ele>56.2</ele>
        <time>2022-04-02T11:30:18Z</time>
      </trkpt>
      <trkpt lat="47.54844" lon="-1.53237">
        <ele>55</ele>
        <time>2022-04-02T11:30:24Z</time>
      </trkpt>
      <trkpt lat="47.54835" lon="-1.53242">
        <ele>54.8</ele>
        <time>2022-04-02T11:30:25Z</time>
      </trkpt>
      <trkpt lat="47.54786" lon="-1.53269">
        <ele>54</ele>
        <time>2022-04-02T11:30:31Z</time>
      </trkpt>
      <trkpt lat="47.54728" lon="-1.53301">
        <ele>53</ele>
        <time>2022-04-02T11:30:38Z</time>
      </trkpt>
      <trkpt lat="47.54704" lon="-1.53317">
        <ele>52.4</ele>
        <time>2022-04-02T11:30:41Z</time>
      </trkpt>
      <trkpt lat="47.54653" lon="-1.53347">
        <ele>51.4</ele>
        <time>2022-04-02T11:30:47Z</time>
      </trkpt>
      <trkpt lat="47.54611" lon="-1.53371">
        <ele>50.4</ele>
        <time>2022-04-02T11:30:52Z</time>
      </trkpt>
      <trkpt lat="47.54553" lon="-1.53406">
        <ele>49.6</ele>
        <time>2022-04-02T11:30:59Z</time>
      </trkpt>
      <trkpt lat="47.54521" lon="-1.53426">
        <ele>49.2</ele>
        <time>2022-04-02T11:31:03Z</time>
      </trkpt>
      <trkpt lat="47.54465" lon="-1.53459">
        <ele>48.4</ele>
        <time>2022-04-02T11:31:10Z</time>
      </trkpt>
      <trkpt lat="47.54442" lon="-1.53472">
        <ele>48.2</ele>
        <time>2022-04-02T11:31:13Z</time>
      </trkpt>
      <trkpt lat="47.54387" lon="-1.53498">
        <ele>47.4</ele>
        <time>2022-04-02T11:31:20Z</time>
      </trkpt>
      <trkpt lat="47.5433" lon="-1.53515">
        <ele>46.8</ele>
        <time>2022-04-02T11:31:27Z</time>
      </trkpt>
      <trkpt lat="47.54313" lon="-1.53519">
        <ele>46.6</ele>
        <time>2022-04-02T11:31:29Z</time>
      </trkpt>
      <trkpt lat="47.54251" lon="-1.5353">
        <ele>45.8</ele>
        <time>2022-04-02T11:31:36Z</time>
      </trkpt>
      <trkpt lat="47.542" lon="-1.53538">
        <ele>45</ele>
        <time>2022-04-02T11:31:42Z</time>
      </trkpt>
      <trkpt lat="47.54142" lon="-1.53549">
        <ele>44.2</ele>
        <time>2022-04-02T11:31:49Z</time>
      </trkpt>
      <trkpt lat="47.54082" lon="-1.53559">
        <ele>43.2</ele>
        <time>2022-04-02T11:31:56Z</time>
      </trkpt>
      <trkpt lat="47.54073" lon="-1.5356">
        <ele>43.2</ele>
        <time>2022-04-02T11:31:57Z</time>
      </trkpt>
      <trkpt lat="47.54019" lon="-1.53568">
        <ele>42.2</ele>
        <time>2022-04-02T11:32:03Z</time>
      </trkpt>
      <trkpt lat="47.53974" lon="-1.53574">
        <ele>41.6</ele>
        <time>2022-04-02T11:32:08Z</time>
      </trkpt>
      <trkpt lat="47.53915" lon="-1.53588">
        <ele>40.6</ele>
        <time>2022-04-02T11:32:15Z</time>
      </trkpt>
      <trkpt lat="47.5389" lon="-1.53596">
        <ele>40.4</ele>
        <time>2022-04-02T11:32:18Z</time>
      </trkpt>
      <trkpt lat="47.53833" lon="-1.53613">
        <ele>39.6</ele>
        <time>2022-04-02T11:32:25Z</time>
      </trkpt>
      <trkpt lat="47.5381" lon="-1.5362">
        <ele>39.2</ele>
        <time>2022-04-02T11:32:28Z</time>
      </trkpt>
      <trkpt lat="47.53761" lon="-1.53635">
        <ele>38.6</ele>
        <time>2022-04-02T11:32:35Z</time>
      </trkpt>
      <trkpt lat="47.53727" lon="-1.53645">
        <ele>38</ele>
        <time>2022-04-02T11:32:41Z</time>
      </trkpt>
      <trkpt lat="47.53692" lon="-1.53656">
        <ele>37.6</ele>
        <time>2022-04-02T11:32:47Z</time>
      </trkpt>
      <trkpt lat="47.53646" lon="-1.5367">
        <ele>37</ele>
        <time>2022-04-02T11:32:54Z</time>
      </trkpt>
      <trkpt lat="47.53596" lon="-1.53685">
        <ele>36.4</ele>
        <time>2022-04-02T11:33:01Z</time>
      </trkpt>
      <trkpt lat="47.53542" lon="-1.53701">
        <ele>36</ele>
        <time>2022-04-02T11:33:08Z</time>
      </trkpt>
      <trkpt lat="47.53535" lon="-1.53704">
        <ele>36</ele>
        <time>2022-04-02T11:33:09Z</time>
      </trkpt>
      <trkpt lat="47.53505" lon="-1.53722">
        <ele>35.8</ele>
        <time>2022-04-02T11:33:13Z</time>
      </trkpt>
      <trkpt lat="47.53498" lon="-1.53727">
        <ele>35.8</ele>
        <time>2022-04-02T11:33:14Z</time>
      </trkpt>
      <trkpt lat="47.53464" lon="-1.53755">
        <ele>35.4</ele>
        <time>2022-04-02T11:33:19Z</time>
      </trkpt>
      <trkpt lat="47.53449" lon="-1.53764">
        <ele>35.4</ele>
        <time>2022-04-02T11:33:21Z</time>
      </trkpt>
      <trkpt lat="47.53395" lon="-1.53792">
        <ele>34.8</ele>
        <time>2022-04-02T11:33:28Z</time>
      </trkpt>
      <trkpt lat="47.53341" lon="-1.53819">
        <ele>34.6</ele>
        <time>2022-04-02T11:33:35Z</time>
      </trkpt>
      <trkpt lat="47.53287" lon="-1.53845">
        <ele>34.2</ele>
        <time>2022-04-02T11:33:42Z</time>
      </trkpt>
      <trkpt lat="47.53279" lon="-1.5385">
        <ele>34</ele>
        <time>2022-04-02T11:33:43Z</time>
      </trkpt>
      <trkpt lat="47.53226" lon="-1.53876">
        <ele>33.8</ele>
        <time>2022-04-02T11:33:50Z</time>
      </trkpt>
      <trkpt lat="47.53219" lon="-1.5388">
        <ele>33.6</ele>
        <time>2022-04-02T11:33:51Z</time>
      </trkpt>
      <trkpt lat="47.53166" lon="-1.53908">
        <ele>33.4</ele>
        <time>2022-04-02T11:33:58Z</time>
      </trkpt>
      <trkpt lat="47.53158" lon="-1.53912">
        <ele>33.2</ele>
        <time>2022-04-02T11:33:59Z</time>
      </trkpt>
      <trkpt lat="47.53108" lon="-1.53939">
        <ele>32.8</ele>
        <time>2022-04-02T11:34:06Z</time>
      </trkpt>
      <trkpt lat="47.53071" lon="-1.53959">
        <ele>32.8</ele>
        <time>2022-04-02T11:34:11Z</time>
      </trkpt>
      <trkpt lat="47.53016" lon="-1.53987">
        <ele>32.6</ele>
        <time>2022-04-02T11:34:18Z</time>
      </trkpt>
      <trkpt lat="47.53001" lon="-1.53994">
        <ele>32.6</ele>
        <time>2022-04-02T11:34:20Z</time>
      </trkpt>
      <trkpt lat="47.5295" lon="-1.54021">
        <ele>32.4</ele>
        <time>2022-04-02T11:34:27Z</time>
      </trkpt>
      <trkpt lat="47.52942" lon="-1.54025">
        <ele>32.4</ele>
        <time>2022-04-02T11:34:28Z</time>
      </trkpt>
      <trkpt lat="47.52905" lon="-1.5404">
        <ele>32.4</ele>
        <time>2022-04-02T11:34:33Z</time>
      </trkpt>
      <trkpt lat="47.5285" lon="-1.54059">
        <ele>32.2</ele>
        <time>2022-04-02T11:34:40Z</time>
      </trkpt>
      <trkpt lat="47.52842" lon="-1.54062">
        <ele>32.2</ele>
        <time>2022-04-02T11:34:41Z</time>
      </trkpt>
      <trkpt lat="47.52787" lon="-1.5409">
        <ele>32</ele>
        <time>2022-04-02T11:34:48Z</time>
      </trkpt>
      <trkpt lat="47.52746" lon="-1.5413">
        <ele>31.8</ele>
        <time>2022-04-02T11:34:54Z</time>
      </trkpt>
      <trkpt lat="47.52705" lon="-1.54187">
        <ele>31.4</ele>
        <time>2022-04-02T11:35:01Z</time>
      </trkpt>
      <trkpt lat="47.52699" lon="-1.54195">
        <ele>31.4</ele>
        <time>2022-04-02T11:35:02Z</time>
      </trkpt>
      <trkpt lat="47.52659" lon="-1.5425">
        <ele>31</ele>
        <time>2022-04-02T11:35:09Z</time>
      </trkpt>
      <trkpt lat="47.52648" lon="-1.54267">
        <ele>31</ele>
        <time>2022-04-02T11:35:11Z</time>
      </trkpt>
      <trkpt lat="47.52613" lon="-1.54316">
        <ele>30.4</ele>
        <time>2022-04-02T11:35:17Z</time>
      </trkpt>
      <trkpt lat="47.52573" lon="-1.54372">
        <ele>30</ele>
        <time>2022-04-02T11:35:24Z</time>
      </trkpt>
      <trkpt lat="47.52532" lon="-1.5443">
        <ele>29.8</ele>
        <time>2022-04-02T11:35:31Z</time>
      </trkpt>
      <trkpt lat="47.52498" lon="-1.54493">
        <ele>29.4</ele>
        <time>2022-04-02T11:35:38Z</time>
      </trkpt>
      <trkpt lat="47.52472" lon="-1.54548">
        <ele>28.8</ele>
        <time>2022-04-02T11:35:44Z</time>
      </trkpt>
      <trkpt lat="47.5244" lon="-1.54612">
        <ele>28.4</ele>
        <time>2022-04-02T11:35:51Z</time>
      </trkpt>
      <trkpt lat="47.52407" lon="-1.54669">
        <ele>28.4</ele>
        <time>2022-04-02T11:35:58Z</time>
      </trkpt>
      <trkpt lat="47.52377" lon="-1.54699">
        <ele>28.2</ele>
        <time>2022-04-02T11:36:03Z</time>
      </trkpt>
      <trkpt lat="47.52336" lon="-1.54719">
        <ele>28.2</ele>
        <time>2022-04-02T11:36:09Z</time>
      </trkpt>
      <trkpt lat="47.52285" lon="-1.54728">
        <ele>28.2</ele>
        <time>2022-04-02T11:36:16Z</time>
      </trkpt>
      <trkpt lat="47.52244" lon="-1.54735">
        <ele>28.2</ele>
        <time>2022-04-02T11:36:22Z</time>
      </trkpt>
      <trkpt lat="47.52202" lon="-1.54748">
        <ele>28.2</ele>
        <time>2022-04-02T11:36:28Z</time>
      </trkpt>
      <trkpt lat="47.52196" lon="-1.54752">
        <ele>28.2</ele>
        <time>2022-04-02T11:36:29Z</time>
      </trkpt>
      <trkpt lat="47.5217" lon="-1.54784">
        <ele>28.4</ele>
        <time>2022-04-02T11:36:34Z</time>
      </trkpt>
      <trkpt lat="47.52135" lon="-1.5484">
        <ele>28.6</ele>
        <time>2022-04-02T11:36:42Z</time>
      </trkpt>
      <trkpt lat="47.52101" lon="-1.54884">
        <ele>28.8</ele>
        <time>2022-04-02T11:36:49Z</time>
      </trkpt>
      <trkpt lat="47.52092" lon="-1.54892">
        <ele>28.8</ele>
        <time>2022-04-02T11:36:51Z</time>
      </trkpt>
      <trkpt lat="47.52086" lon="-1.54903">
        <ele>29</ele>
        <time>2022-04-02T11:36:53Z</time>
      </trkpt>
      <trkpt lat="47.52081" lon="-1.54927">
        <ele>29</ele>
        <time>2022-04-02T11:36:57Z</time>
      </trkpt>
      <trkpt lat="47.52075" lon="-1.54955">
        <ele>29.2</ele>
        <time>2022-04-02T11:37:03Z</time>
      </trkpt>
      <trkpt lat="47.52058" lon="-1.55007">
        <ele>29.4</ele>
        <time>2022-04-02T11:37:13Z</time>
      </trkpt>
      <trkpt lat="47.52045" lon="-1.55042">
        <ele>29.4</ele>
        <time>2022-04-02T11:37:20Z</time>
      </trkpt>
      <trkpt lat="47.52036" lon="-1.55077">
        <ele>29.6</ele>
        <time>2022-04-02T11:37:27Z</time>
      </trkpt>
      <trkpt lat="47.52029" lon="-1.55112">
        <ele>30</ele>
        <time>2022-04-02T11:37:34Z</time>
      </trkpt>
      <trkpt lat="47.52027" lon="-1.55119">
        <ele>30</ele>
        <time>2022-04-02T11:37:36Z</time>
      </trkpt>
      <trkpt lat="47.52028" lon="-1.55126">
        <ele>30.2</ele>
        <time>2022-04-02T11:37:38Z</time>
      </trkpt>
      <trkpt lat="47.52024" lon="-1.55146">
        <ele>30.2</ele>
        <time>2022-04-02T11:37:43Z</time>
      </trkpt>
      <trkpt lat="47.5202" lon="-1.55182">
        <ele>30.8</ele>
        <time>2022-04-02T11:37:51Z</time>
      </trkpt>
      <trkpt lat="47.52021" lon="-1.55216">
        <ele>31.4</ele>
        <time>2022-04-02T11:37:59Z</time>
      </trkpt>
      <trkpt lat="47.52025" lon="-1.55234">
        <ele>31.8</ele>
        <time>2022-04-02T11:38:04Z</time>
      </trkpt>
      <trkpt lat="47.52028" lon="-1.55252">
        <ele>32.4</ele>
        <time>2022-04-02T11:38:09Z</time>
      </trkpt>
      <trkpt lat="47.52031" lon="-1.55291">
        <ele>32.6</ele>
        <time>2022-04-02T11:38:17Z</time>
      </trkpt>
      <trkpt lat="47.52036" lon="-1.5534">
        <ele>33</ele>
        <time>2022-04-02T11:38:26Z</time>
      </trkpt>
      <trkpt lat="47.5204" lon="-1.55371">
        <ele>33.2</ele>
        <time>2022-04-02T11:38:31Z</time>
      </trkpt>
      <trkpt lat="47.5204" lon="-1.55378">
        <ele>33.2</ele>
        <time>2022-04-02T11:38:32Z</time>
      </trkpt>
      <trkpt lat="47.52041" lon="-1.55429">
        <ele>33.4</ele>
        <time>2022-04-02T11:38:39Z</time>
      </trkpt>
      <trkpt lat="47.52037" lon="-1.55477">
        <ele>33.2</ele>
        <time>2022-04-02T11:38:45Z</time>
      </trkpt>
      <trkpt lat="47.52026" lon="-1.55523">
        <ele>33</ele>
        <time>2022-04-02T11:38:51Z</time>
      </trkpt>
      <trkpt lat="47.52002" lon="-1.55592">
        <ele>32.6</ele>
        <time>2022-04-02T11:39:00Z</time>
      </trkpt>
      <trkpt lat="47.51983" lon="-1.55645">
        <ele>32.6</ele>
        <time>2022-04-02T11:39:07Z</time>
      </trkpt>
      <trkpt lat="47.51981" lon="-1.55653">
        <ele>32.6</ele>
        <time>2022-04-02T11:39:08Z</time>
      </trkpt>
      <trkpt lat="47.51967" lon="-1.55695">
        <ele>32.4</ele>
        <time>2022-04-02T11:39:14Z</time>
      </trkpt>
      <trkpt lat="47.51943" lon="-1.55755">
        <ele>32.6</ele>
        <time>2022-04-02T11:39:23Z</time>
      </trkpt>
      <trkpt lat="47.5194" lon="-1.55761">
        <ele>32.4</ele>
        <time>2022-04-02T11:39:24Z</time>
      </trkpt>
      <trkpt lat="47.51932" lon="-1.55773">
        <ele>32.6</ele>
        <time>2022-04-02T11:39:26Z</time>
      </trkpt>
      <trkpt lat="47.51924" lon="-1.55782">
        <ele>32.6</ele>
        <time>2022-04-02T11:39:28Z</time>
      </trkpt>
      <trkpt lat="47.51919" lon="-1.55786">
        <ele>32.6</ele>
        <time>2022-04-02T11:39:29Z</time>
      </trkpt>
      <trkpt lat="47.51897" lon="-1.55798">
        <ele>32.8</ele>
        <time>2022-04-02T11:39:33Z</time>
      </trkpt>
      <trkpt lat="47.51886" lon="-1.55803">
        <ele>32.8</ele>
        <time>2022-04-02T11:39:35Z</time>
      </trkpt>
      <trkpt lat="47.51876" lon="-1.55813">
        <ele>32.6</ele>
        <time>2022-04-02T11:39:37Z</time>
      </trkpt>
      <trkpt lat="47.51868" lon="-1.5583">
        <ele>32.6</ele>
        <time>2022-04-02T11:39:39Z</time>
      </trkpt>
      <trkpt lat="47.51867" lon="-1.55839">
        <ele>32.4</ele>
        <time>2022-04-02T11:39:40Z</time>
      </trkpt>
      <trkpt lat="47.51868" lon="-1.55848">
        <ele>32.4</ele>
        <time>2022-04-02T11:39:41Z</time>
      </trkpt>
      <trkpt lat="47.51873" lon="-1.55864">
        <ele>32.4</ele>
        <time>2022-04-02T11:39:43Z</time>
      </trkpt>
      <trkpt lat="47.51877" lon="-1.55871">
        <ele>32.4</ele>
        <time>2022-04-02T11:39:44Z</time>
      </trkpt>
      <trkpt lat="47.51887" lon="-1.5589">
        <ele>32.4</ele>
        <time>2022-04-02T11:39:47Z</time>
      </trkpt>
      <trkpt lat="47.5189" lon="-1.55897">
        <ele>32.4</ele>
        <time>2022-04-02T11:39:48Z</time>
      </trkpt>
      <trkpt lat="47.51904" lon="-1.55924">
        <ele>32.4</ele>
        <time>2022-04-02T11:39:53Z</time>
      </trkpt>
      <trkpt lat="47.51906" lon="-1.5593">
        <ele>32.4</ele>
        <time>2022-04-02T11:39:54Z</time>
      </trkpt>
      <trkpt lat="47.51907" lon="-1.55935">
        <ele>32.4</ele>
        <time>2022-04-02T11:39:55Z</time>
      </trkpt>
      <trkpt lat="47.51903" lon="-1.55945">
        <ele>32</ele>
        <time>2022-04-02T11:39:57Z</time>
      </trkpt>
      <trkpt lat="47.51886" lon="-1.55954">
        <ele>32.2</ele>
        <time>2022-04-02T11:40:01Z</time>
      </trkpt>
      <trkpt lat="47.51859" lon="-1.55967">
        <ele>32.4</ele>
        <time>2022-04-02T11:40:06Z</time>
      </trkpt>
      <trkpt lat="47.51825" lon="-1.55978">
        <ele>32.2</ele>
        <time>2022-04-02T11:40:11Z</time>
      </trkpt>
      <trkpt lat="47.51818" lon="-1.55977">
        <ele>32</ele>
        <time>2022-04-02T11:40:12Z</time>
      </trkpt>
      <trkpt lat="47.51796" lon="-1.55975">
        <ele>32</ele>
        <time>2022-04-02T11:40:15Z</time>
      </trkpt>
      <trkpt lat="47.51754" lon="-1.55975">
        <ele>32</ele>
        <time>2022-04-02T11:40:21Z</time>
      </trkpt>
      <trkpt lat="47.51715" lon="-1.5598">
        <ele>31.8</ele>
        <time>2022-04-02T11:40:27Z</time>
      </trkpt>
      <trkpt lat="47.51675" lon="-1.55976">
        <ele>31.8</ele>
        <time>2022-04-02T11:40:33Z</time>
      </trkpt>
      <trkpt lat="47.51636" lon="-1.55979">
        <ele>31.8</ele>
        <time>2022-04-02T11:40:39Z</time>
      </trkpt>
      <trkpt lat="47.51587" lon="-1.55988">
        <ele>31.6</ele>
        <time>2022-04-02T11:40:47Z</time>
      </trkpt>
      <trkpt lat="47.51547" lon="-1.55989">
        <ele>31.4</ele>
        <time>2022-04-02T11:40:54Z</time>
      </trkpt>
      <trkpt lat="47.5153" lon="-1.55989">
        <ele>31.4</ele>
        <time>2022-04-02T11:40:57Z</time>
      </trkpt>
      <trkpt lat="47.51526" lon="-1.5599">
        <ele>31.2</ele>
        <time>2022-04-02T11:40:58Z</time>
      </trkpt>
      <trkpt lat="47.51521" lon="-1.5599">
        <ele>31.2</ele>
        <time>2022-04-02T11:40:59Z</time>
      </trkpt>
      <trkpt lat="47.51508" lon="-1.55989">
        <ele>31.2</ele>
        <time>2022-04-02T11:41:01Z</time>
      </trkpt>
      <trkpt lat="47.51501" lon="-1.55989">
        <ele>31.2</ele>
        <time>2022-04-02T11:41:02Z</time>
      </trkpt>
      <trkpt lat="47.51478" lon="-1.55985">
        <ele>31</ele>
        <time>2022-04-02T11:41:05Z</time>
      </trkpt>
      <trkpt lat="47.51433" lon="-1.55984">
        <ele>30.2</ele>
        <time>2022-04-02T11:41:10Z</time>
      </trkpt>
      <trkpt lat="47.51387" lon="-1.55979">
        <ele>29.4</ele>
        <time>2022-04-02T11:41:15Z</time>
      </trkpt>
      <trkpt lat="47.51378" lon="-1.55976">
        <ele>29.2</ele>
        <time>2022-04-02T11:41:16Z</time>
      </trkpt>
      <trkpt lat="47.51337" lon="-1.5596">
        <ele>28.6</ele>
        <time>2022-04-02T11:41:21Z</time>
      </trkpt>
      <trkpt lat="47.51314" lon="-1.55951">
        <ele>28.2</ele>
        <time>2022-04-02T11:41:24Z</time>
      </trkpt>
      <trkpt lat="47.51306" lon="-1.55949">
        <ele>28.2</ele>
        <time>2022-04-02T11:41:25Z</time>
      </trkpt>
      <trkpt lat="47.51299" lon="-1.5595">
        <ele>28</ele>
        <time>2022-04-02T11:41:26Z</time>
      </trkpt>
      <trkpt lat="47.51291" lon="-1.55953">
        <ele>27.8</ele>
        <time>2022-04-02T11:41:27Z</time>
      </trkpt>
      <trkpt lat="47.51279" lon="-1.55964">
        <ele>27.6</ele>
        <time>2022-04-02T11:41:29Z</time>
      </trkpt>
      <trkpt lat="47.51232" lon="-1.56004">
        <ele>26.8</ele>
        <time>2022-04-02T11:41:37Z</time>
      </trkpt>
      <trkpt lat="47.51222" lon="-1.56015">
        <ele>26.6</ele>
        <time>2022-04-02T11:41:39Z</time>
      </trkpt>
      <trkpt lat="47.51218" lon="-1.56022">
        <ele>26.4</ele>
        <time>2022-04-02T11:41:40Z</time>
      </trkpt>
      <trkpt lat="47.51202" lon="-1.56049">
        <ele>26</ele>
        <time>2022-04-02T11:41:44Z</time>
      </trkpt>
      <trkpt lat="47.51199" lon="-1.56056">
        <ele>25.8</ele>
        <time>2022-04-02T11:41:45Z</time>
      </trkpt>
      <trkpt lat="47.51179" lon="-1.56094">
        <ele>25.2</ele>
        <time>2022-04-02T11:41:51Z</time>
      </trkpt>
      <trkpt lat="47.5116" lon="-1.56136">
        <ele>25.2</ele>
        <time>2022-04-02T11:41:58Z</time>
      </trkpt>
      <trkpt lat="47.51139" lon="-1.56175">
        <ele>25.2</ele>
        <time>2022-04-02T11:42:05Z</time>
      </trkpt>
      <trkpt lat="47.51127" lon="-1.56195">
        <ele>25.2</ele>
        <time>2022-04-02T11:42:09Z</time>
      </trkpt>
      <trkpt lat="47.51122" lon="-1.56205">
        <ele>25.2</ele>
        <time>2022-04-02T11:42:11Z</time>
      </trkpt>
      <trkpt lat="47.51096" lon="-1.56251">
        <ele>25.6</ele>
        <time>2022-04-02T11:42:20Z</time>
      </trkpt>
      <trkpt lat="47.51088" lon="-1.56268">
        <ele>25.6</ele>
        <time>2022-04-02T11:42:23Z</time>
      </trkpt>
      <trkpt lat="47.51072" lon="-1.56295">
        <ele>26</ele>
        <time>2022-04-02T11:42:28Z</time>
      </trkpt>
      <trkpt lat="47.51042" lon="-1.56347">
        <ele>26.2</ele>
        <time>2022-04-02T11:42:37Z</time>
      </trkpt>
      <trkpt lat="47.51006" lon="-1.56409">
        <ele>26.6</ele>
        <time>2022-04-02T11:42:47Z</time>
      </trkpt>
      <trkpt lat="47.50969" lon="-1.56475">
        <ele>26.8</ele>
        <time>2022-04-02T11:42:57Z</time>
      </trkpt>
      <trkpt lat="47.50965" lon="-1.56481">
        <ele>26.8</ele>
        <time>2022-04-02T11:42:58Z</time>
      </trkpt>
      <trkpt lat="47.50935" lon="-1.56532">
        <ele>27</ele>
        <time>2022-04-02T11:43:06Z</time>
      </trkpt>
      <trkpt lat="47.50909" lon="-1.5658">
        <ele>27</ele>
        <time>2022-04-02T11:43:13Z</time>
      </trkpt>
      <trkpt lat="47.50876" lon="-1.56637">
        <ele>27</ele>
        <time>2022-04-02T11:43:21Z</time>
      </trkpt>
      <trkpt lat="47.50838" lon="-1.56703">
        <ele>26.8</ele>
        <time>2022-04-02T11:43:30Z</time>
      </trkpt>
      <trkpt lat="47.50803" lon="-1.56764">
        <ele>26</ele>
        <time>2022-04-02T11:43:38Z</time>
      </trkpt>
      <trkpt lat="47.50798" lon="-1.56771">
        <ele>25.8</ele>
        <time>2022-04-02T11:43:39Z</time>
      </trkpt>
      <trkpt lat="47.50761" lon="-1.56834">
        <ele>25.2</ele>
        <time>2022-04-02T11:43:48Z</time>
      </trkpt>
      <trkpt lat="47.50735" lon="-1.5688">
        <ele>24.8</ele>
        <time>2022-04-02T11:43:55Z</time>
      </trkpt>
      <trkpt lat="47.50707" lon="-1.56927">
        <ele>24.4</ele>
        <time>2022-04-02T11:44:02Z</time>
      </trkpt>
      <trkpt lat="47.50671" lon="-1.5699">
        <ele>24</ele>
        <time>2022-04-02T11:44:11Z</time>
      </trkpt>
      <trkpt lat="47.50667" lon="-1.56997">
        <ele>24</ele>
        <time>2022-04-02T11:44:12Z</time>
      </trkpt>
      <trkpt lat="47.50641" lon="-1.57048">
        <ele>23.8</ele>
        <time>2022-04-02T11:44:19Z</time>
      </trkpt>
      <trkpt lat="47.5061" lon="-1.57101">
        <ele>23.6</ele>
        <time>2022-04-02T11:44:27Z</time>
      </trkpt>
      <trkpt lat="47.50592" lon="-1.57134">
        <ele>23.4</ele>
        <time>2022-04-02T11:44:33Z</time>
      </trkpt>
      <trkpt lat="47.50584" lon="-1.57149">
        <ele>23.4</ele>
        <time>2022-04-02T11:44:37Z</time>
      </trkpt>
      <trkpt lat="47.50583" lon="-1.5715">
        <ele>23.2</ele>
        <time>2022-04-02T11:44:39Z</time>
      </trkpt>
      <trkpt lat="47.50576" lon="-1.57152">
        <ele>23.2</ele>
        <time>2022-04-02T11:44:53Z</time>
      </trkpt>
      <trkpt lat="47.50564" lon="-1.57159">
        <ele>23.4</ele>
        <time>2022-04-02T11:44:57Z</time>
      </trkpt>
      <trkpt lat="47.50556" lon="-1.57166">
        <ele>23</ele>
        <time>2022-04-02T11:44:59Z</time>
      </trkpt>
      <trkpt lat="47.50547" lon="-1.57172">
        <ele>23.2</ele>
        <time>2022-04-02T11:45:01Z</time>
      </trkpt>
      <trkpt lat="47.50518" lon="-1.57195">
        <ele>23.2</ele>
        <time>2022-04-02T11:45:08Z</time>
      </trkpt>
      <trkpt lat="47.5051" lon="-1.57202">
        <ele>23.2</ele>
        <time>2022-04-02T11:45:10Z</time>
      </trkpt>
      <trkpt lat="47.50498" lon="-1.57211">
        <ele>23</ele>
        <time>2022-04-02T11:45:13Z</time>
      </trkpt>
      <trkpt lat="47.50488" lon="-1.57221">
        <ele>23</ele>
        <time>2022-04-02T11:45:16Z</time>
      </trkpt>
      <trkpt lat="47.50484" lon="-1.57224">
        <ele>22.8</ele>
        <time>2022-04-02T11:45:17Z</time>
      </trkpt>
      <trkpt lat="47.50464" lon="-1.57241">
        <ele>22.6</ele>
        <time>2022-04-02T11:45:22Z</time>
      </trkpt>
      <trkpt lat="47.50442" lon="-1.57258">
        <ele>22.4</ele>
        <time>2022-04-02T11:45:27Z</time>
      </trkpt>
      <trkpt lat="47.50419" lon="-1.57276">
        <ele>21.6</ele>
        <time>2022-04-02T11:45:32Z</time>
      </trkpt>
      <trkpt lat="47.50408" lon="-1.57285">
        <ele>21.4</ele>
        <time>2022-04-02T11:45:34Z</time>
      </trkpt>
      <trkpt lat="47.50394" lon="-1.57296">
        <ele>21</ele>
        <time>2022-04-02T11:45:37Z</time>
      </trkpt>
      <trkpt lat="47.50381" lon="-1.57306">
        <ele>20.8</ele>
        <time>2022-04-02T11:45:40Z</time>
      </trkpt>
      <trkpt lat="47.50372" lon="-1.57313">
        <ele>20.4</ele>
        <time>2022-04-02T11:45:42Z</time>
      </trkpt>
      <trkpt lat="47.50362" lon="-1.57321">
        <ele>20.4</ele>
        <time>2022-04-02T11:45:44Z</time>
      </trkpt>
      <trkpt lat="47.50346" lon="-1.57333">
        <ele>20.2</ele>
        <time>2022-04-02T11:45:47Z</time>
      </trkpt>
      <trkpt lat="47.50303" lon="-1.57374">
        <ele>20.2</ele>
        <time>2022-04-02T11:45:56Z</time>
      </trkpt>
      <trkpt lat="47.50299" lon="-1.57378">
        <ele>20</ele>
        <time>2022-04-02T11:45:57Z</time>
      </trkpt>
      <trkpt lat="47.5029" lon="-1.57385">
        <ele>20</ele>
        <time>2022-04-02T11:45:59Z</time>
      </trkpt>
      <trkpt lat="47.50286" lon="-1.57387">
        <ele>19.8</ele>
        <time>2022-04-02T11:46:00Z</time>
      </trkpt>
      <trkpt lat="47.50268" lon="-1.57403">
        <ele>20</ele>
        <time>2022-04-02T11:46:06Z</time>
      </trkpt>
      <trkpt lat="47.50255" lon="-1.5742">
        <ele>20</ele>
        <time>2022-04-02T11:46:11Z</time>
      </trkpt>
      <trkpt lat="47.50236" lon="-1.57449">
        <ele>19.8</ele>
        <time>2022-04-02T11:46:17Z</time>
      </trkpt>
      <trkpt lat="47.50227" lon="-1.57464">
        <ele>19.8</ele>
        <time>2022-04-02T11:46:20Z</time>
      </trkpt>
      <trkpt lat="47.50218" lon="-1.5748">
        <ele>19.8</ele>
        <time>2022-04-02T11:46:23Z</time>
      </trkpt>
      <trkpt lat="47.50214" lon="-1.57484">
        <ele>19.8</ele>
        <time>2022-04-02T11:46:24Z</time>
      </trkpt>
      <trkpt lat="47.50209" lon="-1.57486">
        <ele>19.8</ele>
        <time>2022-04-02T11:46:25Z</time>
      </trkpt>
      <trkpt lat="47.50199" lon="-1.57488">
        <ele>19.8</ele>
        <time>2022-04-02T11:46:27Z</time>
      </trkpt>
      <trkpt lat="47.50195" lon="-1.57489">
        <ele>19.8</ele>
        <time>2022-04-02T11:46:28Z</time>
      </trkpt>
      <trkpt lat="47.50176" lon="-1.57501">
        <ele>19.8</ele>
        <time>2022-04-02T11:46:32Z</time>
      </trkpt>
      <trkpt lat="47.50162" lon="-1.57509">
        <ele>19.8</ele>
        <time>2022-04-02T11:46:35Z</time>
      </trkpt>
      <trkpt lat="47.5013" lon="-1.57527">
        <ele>20</ele>
        <time>2022-04-02T11:46:42Z</time>
      </trkpt>
      <trkpt lat="47.50103" lon="-1.57542">
        <ele>20</ele>
        <time>2022-04-02T11:46:49Z</time>
      </trkpt>
      <trkpt lat="47.50091" lon="-1.57548">
        <ele>20</ele>
        <time>2022-04-02T11:46:54Z</time>
      </trkpt>
      <trkpt lat="47.50086" lon="-1.57549">
        <ele>19.8</ele>
        <time>2022-04-02T11:46:57Z</time>
      </trkpt>
      <trkpt lat="47.50084" lon="-1.57547">
        <ele>19.8</ele>
        <time>2022-04-02T11:46:58Z</time>
      </trkpt>
      <trkpt lat="47.50079" lon="-1.57523">
        <ele>19.8</ele>
        <time>2022-04-02T11:47:03Z</time>
      </trkpt>
      <trkpt lat="47.50073" lon="-1.57501">
        <ele>19.8</ele>
        <time>2022-04-02T11:47:07Z</time>
      </trkpt>
      <trkpt lat="47.5007" lon="-1.57498">
        <ele>19.6</ele>
        <time>2022-04-02T11:47:08Z</time>
      </trkpt>
      <trkpt lat="47.50068" lon="-1.57495">
        <ele>19.6</ele>
        <time>2022-04-02T11:47:09Z</time>
      </trkpt>
      <trkpt lat="47.50067" lon="-1.57486">
        <ele>19.6</ele>
        <time>2022-04-02T11:47:11Z</time>
      </trkpt>
      <trkpt lat="47.50062" lon="-1.57463">
        <ele>19.8</ele>
        <time>2022-04-02T11:47:15Z</time>
      </trkpt>
      <trkpt lat="47.50055" lon="-1.57431">
        <ele>20</ele>
        <time>2022-04-02T11:47:20Z</time>
      </trkpt>
      <trkpt lat="47.50055" lon="-1.57425">
        <ele>20.2</ele>
        <time>2022-04-02T11:47:21Z</time>
      </trkpt>
      <trkpt lat="47.50053" lon="-1.57402">
        <ele>20.6</ele>
        <time>2022-04-02T11:47:25Z</time>
      </trkpt>
      <trkpt lat="47.50047" lon="-1.57386">
        <ele>20.6</ele>
        <time>2022-04-02T11:47:28Z</time>
      </trkpt>
      <trkpt lat="47.5004" lon="-1.57383">
        <ele>20.6</ele>
        <time>2022-04-02T11:47:30Z</time>
      </trkpt>
      <trkpt lat="47.50016" lon="-1.57387">
        <ele>20.8</ele>
        <time>2022-04-02T11:47:36Z</time>
      </trkpt>
      <trkpt lat="47.50004" lon="-1.5739">
        <ele>20.8</ele>
        <time>2022-04-02T11:47:40Z</time>
      </trkpt>
      <trkpt lat="47.50002" lon="-1.57392">
        <ele>21</ele>
        <time>2022-04-02T11:47:41Z</time>
      </trkpt>
      <trkpt lat="47.50002" lon="-1.57395">
        <ele>21</ele>
        <time>2022-04-02T11:47:42Z</time>
      </trkpt>
      <trkpt lat="47.50002" lon="-1.57403">
        <ele>21</ele>
        <time>2022-04-02T11:47:45Z</time>
      </trkpt>
      <trkpt lat="47.50003" lon="-1.57405">
        <ele>21</ele>
        <time>2022-04-02T11:47:48Z</time>
      </trkpt>
      <trkpt lat="47.49998" lon="-1.57408">
        <ele>21.2</ele>
        <time>2022-04-02T11:47:54Z</time>
      </trkpt>
      <trkpt lat="47.49987" lon="-1.5741">
        <ele>21.2</ele>
        <time>2022-04-02T11:47:58Z</time>
      </trkpt>
      <trkpt lat="47.49972" lon="-1.57412">
        <ele>21.6</ele>
        <time>2022-04-02T11:48:03Z</time>
      </trkpt>
      <trkpt lat="47.49955" lon="-1.57416">
        <ele>22</ele>
        <time>2022-04-02T11:48:09Z</time>
      </trkpt>
      <trkpt lat="47.49935" lon="-1.5742">
        <ele>22.4</ele>
        <time>2022-04-02T11:48:14Z</time>
      </trkpt>
      <trkpt lat="47.49931" lon="-1.5742">
        <ele>22.4</ele>
        <time>2022-04-02T11:48:15Z</time>
      </trkpt>
      <trkpt lat="47.49923" lon="-1.57422">
        <ele>22.4</ele>
        <time>2022-04-02T11:48:17Z</time>
      </trkpt>
      <trkpt lat="47.49918" lon="-1.57422">
        <ele>22.4</ele>
        <time>2022-04-02T11:48:18Z</time>
      </trkpt>
      <trkpt lat="47.49902" lon="-1.57425">
        <ele>22.6</ele>
        <time>2022-04-02T11:48:22Z</time>
      </trkpt>
      <trkpt lat="47.49896" lon="-1.57426">
        <ele>22.6</ele>
        <time>2022-04-02T11:48:23Z</time>
      </trkpt>
      <trkpt lat="47.49891" lon="-1.57428">
        <ele>22.8</ele>
        <time>2022-04-02T11:48:24Z</time>
      </trkpt>
      <trkpt lat="47.49877" lon="-1.5743">
        <ele>23</ele>
        <time>2022-04-02T11:48:27Z</time>
      </trkpt>
      <trkpt lat="47.49855" lon="-1.57435">
        <ele>23.4</ele>
        <time>2022-04-02T11:48:32Z</time>
      </trkpt>
      <trkpt lat="47.4984" lon="-1.5744">
        <ele>23.6</ele>
        <time>2022-04-02T11:48:36Z</time>
      </trkpt>
      <trkpt lat="47.49822" lon="-1.57444">
        <ele>24</ele>
        <time>2022-04-02T11:48:40Z</time>
      </trkpt>
      <trkpt lat="47.49818" lon="-1.57444">
        <ele>24</ele>
        <time>2022-04-02T11:48:41Z</time>
      </trkpt>
      <trkpt lat="47.49804" lon="-1.57448">
        <ele>24.2</ele>
        <time>2022-04-02T11:48:44Z</time>
      </trkpt>
      <trkpt lat="47.49798" lon="-1.57449">
        <ele>24.2</ele>
        <time>2022-04-02T11:48:45Z</time>
      </trkpt>
      <trkpt lat="47.49784" lon="-1.57451">
        <ele>24.4</ele>
        <time>2022-04-02T11:48:48Z</time>
      </trkpt>
      <trkpt lat="47.49773" lon="-1.57452">
        <ele>24.4</ele>
        <time>2022-04-02T11:48:50Z</time>
      </trkpt>
      <trkpt lat="47.49761" lon="-1.57456">
        <ele>24.4</ele>
        <time>2022-04-02T11:48:53Z</time>
      </trkpt>
      <trkpt lat="47.49756" lon="-1.57456">
        <ele>24.6</ele>
        <time>2022-04-02T11:48:54Z</time>
      </trkpt>
      <trkpt lat="47.49746" lon="-1.57457">
        <ele>24.6</ele>
        <time>2022-04-02T11:48:56Z</time>
      </trkpt>
      <trkpt lat="47.49742" lon="-1.57459">
        <ele>24.6</ele>
        <time>2022-04-02T11:48:57Z</time>
      </trkpt>
      <trkpt lat="47.49719" lon="-1.57464">
        <ele>24.8</ele>
        <time>2022-04-02T11:49:02Z</time>
      </trkpt>
      <trkpt lat="47.49707" lon="-1.57466">
        <ele>24.8</ele>
        <time>2022-04-02T11:49:06Z</time>
      </trkpt>
      <trkpt lat="47.49687" lon="-1.57465">
        <ele>24.6</ele>
        <time>2022-04-02T11:49:09Z</time>
      </trkpt>
      <trkpt lat="47.49678" lon="-1.57466">
        <ele>24.2</ele>
        <time>2022-04-02T11:49:11Z</time>
      </trkpt>
      <trkpt lat="47.49676" lon="-1.57467">
        <ele>24.2</ele>
        <time>2022-04-02T11:49:12Z</time>
      </trkpt>
      <trkpt lat="47.49657" lon="-1.57468">
        <ele>24.4</ele>
        <time>2022-04-02T11:49:17Z</time>
      </trkpt>
      <trkpt lat="47.49636" lon="-1.57463">
        <ele>24.2</ele>
        <time>2022-04-02T11:49:23Z</time>
      </trkpt>
      <trkpt lat="47.49625" lon="-1.57459">
        <ele>24.2</ele>
        <time>2022-04-02T11:49:27Z</time>
      </trkpt>
      <trkpt lat="47.49623" lon="-1.57457">
        <ele>24</ele>
        <time>2022-04-02T11:49:28Z</time>
      </trkpt>
      <trkpt lat="47.49619" lon="-1.57453">
        <ele>23.8</ele>
        <time>2022-04-02T11:49:31Z</time>
      </trkpt>
      <trkpt lat="47.49615" lon="-1.57454">
        <ele>23.6</ele>
        <time>2022-04-02T11:49:34Z</time>
      </trkpt>
      <trkpt lat="47.49608" lon="-1.57454">
        <ele>23.2</ele>
        <time>2022-04-02T11:49:38Z</time>
      </trkpt>
      <trkpt lat="47.49593" lon="-1.57451">
        <ele>23</ele>
        <time>2022-04-02T11:49:43Z</time>
      </trkpt>
      <trkpt lat="47.49575" lon="-1.57446">
        <ele>22.8</ele>
        <time>2022-04-02T11:49:48Z</time>
      </trkpt>
      <trkpt lat="47.4955" lon="-1.57442">
        <ele>22.2</ele>
        <time>2022-04-02T11:49:54Z</time>
      </trkpt>
      <trkpt lat="47.4953" lon="-1.57437">
        <ele>22.2</ele>
        <time>2022-04-02T11:49:59Z</time>
      </trkpt>
      <trkpt lat="47.49519" lon="-1.57441">
        <ele>22</ele>
        <time>2022-04-02T11:50:03Z</time>
      </trkpt>
      <trkpt lat="47.4951" lon="-1.57441">
        <ele>22</ele>
        <time>2022-04-02T11:50:07Z</time>
      </trkpt>
      <trkpt lat="47.49508" lon="-1.57441">
        <ele>21.8</ele>
        <time>2022-04-02T11:50:08Z</time>
      </trkpt>
      <trkpt lat="47.49491" lon="-1.57434">
        <ele>21.6</ele>
        <time>2022-04-02T11:50:12Z</time>
      </trkpt>
      <trkpt lat="47.49473" lon="-1.57431">
        <ele>21.6</ele>
        <time>2022-04-02T11:50:16Z</time>
      </trkpt>
      <trkpt lat="47.49454" lon="-1.57426">
        <ele>21.6</ele>
        <time>2022-04-02T11:50:20Z</time>
      </trkpt>
      <trkpt lat="47.49446" lon="-1.57422">
        <ele>21.6</ele>
        <time>2022-04-02T11:50:22Z</time>
      </trkpt>
      <trkpt lat="47.49442" lon="-1.57421">
        <ele>21.6</ele>
        <time>2022-04-02T11:50:23Z</time>
      </trkpt>
      <trkpt lat="47.4943" lon="-1.57405">
        <ele>21.6</ele>
        <time>2022-04-02T11:50:27Z</time>
      </trkpt>
      <trkpt lat="47.49423" lon="-1.5739">
        <ele>21.6</ele>
        <time>2022-04-02T11:50:31Z</time>
      </trkpt>
      <trkpt lat="47.49421" lon="-1.57387">
        <ele>21.6</ele>
        <time>2022-04-02T11:50:32Z</time>
      </trkpt>
      <trkpt lat="47.4942" lon="-1.57382">
        <ele>21.6</ele>
        <time>2022-04-02T11:50:33Z</time>
      </trkpt>
      <trkpt lat="47.49415" lon="-1.57374">
        <ele>21.6</ele>
        <time>2022-04-02T11:50:35Z</time>
      </trkpt>
      <trkpt lat="47.49406" lon="-1.57358">
        <ele>21.4</ele>
        <time>2022-04-02T11:50:39Z</time>
      </trkpt>
      <trkpt lat="47.49405" lon="-1.57355">
        <ele>21.2</ele>
        <time>2022-04-02T11:50:40Z</time>
      </trkpt>
      <trkpt lat="47.494" lon="-1.5735">
        <ele>21.2</ele>
        <time>2022-04-02T11:50:44Z</time>
      </trkpt>
      <trkpt lat="47.49396" lon="-1.57353">
        <ele>21.2</ele>
        <time>2022-04-02T11:50:46Z</time>
      </trkpt>
      <trkpt lat="47.49392" lon="-1.57357">
        <ele>21.2</ele>
        <time>2022-04-02T11:50:48Z</time>
      </trkpt>
      <trkpt lat="47.49392" lon="-1.57363">
        <ele>20.8</ele>
        <time>2022-04-02T11:50:50Z</time>
      </trkpt>
      <trkpt lat="47.49391" lon="-1.57367">
        <ele>20.8</ele>
        <time>2022-04-02T11:50:51Z</time>
      </trkpt>
      <trkpt lat="47.4939" lon="-1.57374">
        <ele>20.6</ele>
        <time>2022-04-02T11:50:53Z</time>
      </trkpt>
      <trkpt lat="47.49391" lon="-1.57376">
        <ele>20.2</ele>
        <time>2022-04-02T11:50:54Z</time>
      </trkpt>
      <trkpt lat="47.4939" lon="-1.57383">
        <ele>19.6</ele>
        <time>2022-04-02T11:50:56Z</time>
      </trkpt>
      <trkpt lat="47.49387" lon="-1.57393">
        <ele>19</ele>
        <time>2022-04-02T11:50:58Z</time>
      </trkpt>
      <trkpt lat="47.49387" lon="-1.57403">
        <ele>18.6</ele>
        <time>2022-04-02T11:51:00Z</time>
      </trkpt>
      <trkpt lat="47.49386" lon="-1.57409">
        <ele>18.4</ele>
        <time>2022-04-02T11:51:01Z</time>
      </trkpt>
      <trkpt lat="47.4938" lon="-1.57435">
        <ele>17.8</ele>
        <time>2022-04-02T11:51:05Z</time>
      </trkpt>
      <trkpt lat="47.49372" lon="-1.57476">
        <ele>17.8</ele>
        <time>2022-04-02T11:51:11Z</time>
      </trkpt>
      <trkpt lat="47.49367" lon="-1.5749">
        <ele>18</ele>
        <time>2022-04-02T11:51:15Z</time>
      </trkpt>
      <trkpt lat="47.49364" lon="-1.57503">
        <ele>16.2</ele>
        <time>2022-04-02T11:53:02Z</time>
      </trkpt>
      <trkpt lat="47.49363" lon="-1.5751">
        <ele>16.4</ele>
        <time>2022-04-02T11:53:04Z</time>
      </trkpt>
      <trkpt lat="47.4936" lon="-1.57531">
        <ele>16.6</ele>
        <time>2022-04-02T11:53:09Z</time>
      </trkpt>
      <trkpt lat="47.49355" lon="-1.57563">
        <ele>17</ele>
        <time>2022-04-02T11:53:16Z</time>
      </trkpt>
      <trkpt lat="47.49351" lon="-1.57598">
        <ele>17.2</ele>
        <time>2022-04-02T11:53:23Z</time>
      </trkpt>
      <trkpt lat="47.4935" lon="-1.57603">
        <ele>17.2</ele>
        <time>2022-04-02T11:53:24Z</time>
      </trkpt>
      <trkpt lat="47.49347" lon="-1.5762">
        <ele>17.4</ele>
        <time>2022-04-02T11:53:27Z</time>
      </trkpt>
      <trkpt lat="47.49345" lon="-1.57626">
        <ele>17.4</ele>
        <time>2022-04-02T11:53:28Z</time>
      </trkpt>
      <trkpt lat="47.49344" lon="-1.57638">
        <ele>17.4</ele>
        <time>2022-04-02T11:53:30Z</time>
      </trkpt>
      <trkpt lat="47.49343" lon="-1.57645">
        <ele>17.4</ele>
        <time>2022-04-02T11:53:31Z</time>
      </trkpt>
      <trkpt lat="47.49338" lon="-1.57674">
        <ele>17.6</ele>
        <time>2022-04-02T11:53:35Z</time>
      </trkpt>
      <trkpt lat="47.49337" lon="-1.57688">
        <ele>17.6</ele>
        <time>2022-04-02T11:53:37Z</time>
      </trkpt>
      <trkpt lat="47.49334" lon="-1.57702">
        <ele>17.6</ele>
        <time>2022-04-02T11:53:39Z</time>
      </trkpt>
      <trkpt lat="47.49335" lon="-1.57713">
        <ele>17.6</ele>
        <time>2022-04-02T11:53:41Z</time>
      </trkpt>
      <trkpt lat="47.49332" lon="-1.57739">
        <ele>17.4</ele>
        <time>2022-04-02T11:53:45Z</time>
      </trkpt>
      <trkpt lat="47.49325" lon="-1.57779">
        <ele>17.2</ele>
        <time>2022-04-02T11:53:50Z</time>
      </trkpt>
      <trkpt lat="47.49323" lon="-1.57794">
        <ele>17.2</ele>
        <time>2022-04-02T11:53:52Z</time>
      </trkpt>
      <trkpt lat="47.49321" lon="-1.57809">
        <ele>17.2</ele>
        <time>2022-04-02T11:53:54Z</time>
      </trkpt>
      <trkpt lat="47.4932" lon="-1.57815">
        <ele>17.2</ele>
        <time>2022-04-02T11:53:55Z</time>
      </trkpt>
      <trkpt lat="47.49317" lon="-1.5783">
        <ele>17.2</ele>
        <time>2022-04-02T11:53:57Z</time>
      </trkpt>
      <trkpt lat="47.49315" lon="-1.57838">
        <ele>17.4</ele>
        <time>2022-04-02T11:53:58Z</time>
      </trkpt>
      <trkpt lat="47.49313" lon="-1.57846">
        <ele>17.2</ele>
        <time>2022-04-02T11:53:59Z</time>
      </trkpt>
      <trkpt lat="47.49308" lon="-1.57864">
        <ele>17.2</ele>
        <time>2022-04-02T11:54:02Z</time>
      </trkpt>
      <trkpt lat="47.49302" lon="-1.57882">
        <ele>17</ele>
        <time>2022-04-02T11:54:06Z</time>
      </trkpt>
      <trkpt lat="47.49301" lon="-1.57891">
        <ele>17</ele>
        <time>2022-04-02T11:54:08Z</time>
      </trkpt>
      <trkpt lat="47.49301" lon="-1.57895">
        <ele>17</ele>
        <time>2022-04-02T11:54:09Z</time>
      </trkpt>
      <trkpt lat="47.49302" lon="-1.57909">
        <ele>16.8</ele>
        <time>2022-04-02T11:54:12Z</time>
      </trkpt>
      <trkpt lat="47.49303" lon="-1.57916">
        <ele>16.6</ele>
        <time>2022-04-02T11:54:13Z</time>
      </trkpt>
      <trkpt lat="47.49305" lon="-1.57929">
        <ele>16.6</ele>
        <time>2022-04-02T11:54:15Z</time>
      </trkpt>
      <trkpt lat="47.49306" lon="-1.57953">
        <ele>16.2</ele>
        <time>2022-04-02T11:54:18Z</time>
      </trkpt>
      <trkpt lat="47.49306" lon="-1.5796">
        <ele>16.2</ele>
        <time>2022-04-02T11:54:19Z</time>
      </trkpt>
      <trkpt lat="47.49307" lon="-1.57975">
        <ele>16</ele>
        <time>2022-04-02T11:54:21Z</time>
      </trkpt>
      <trkpt lat="47.49308" lon="-1.57981">
        <ele>16</ele>
        <time>2022-04-02T11:54:22Z</time>
      </trkpt>
      <trkpt lat="47.49309" lon="-1.57994">
        <ele>15.8</ele>
        <time>2022-04-02T11:54:25Z</time>
      </trkpt>
      <trkpt lat="47.49306" lon="-1.57999">
        <ele>16</ele>
        <time>2022-04-02T11:54:27Z</time>
      </trkpt>
      <trkpt lat="47.49299" lon="-1.58005">
        <ele>16.2</ele>
        <time>2022-04-02T11:54:32Z</time>
      </trkpt>
      <trkpt lat="47.49295" lon="-1.58007">
        <ele>15.8</ele>
        <time>2022-04-02T11:54:34Z</time>
      </trkpt>
      <trkpt lat="47.49293" lon="-1.58006">
        <ele>16.2</ele>
        <time>2022-04-02T11:54:36Z</time>
      </trkpt>
      <trkpt lat="47.49288" lon="-1.58002">
        <ele>16.6</ele>
        <time>2022-04-02T11:54:38Z</time>
      </trkpt>
      <trkpt lat="47.49287" lon="-1.57995">
        <ele>17</ele>
        <time>2022-04-02T11:54:40Z</time>
      </trkpt>
      <trkpt lat="47.4928" lon="-1.57968">
        <ele>16.8</ele>
        <time>2022-04-02T11:54:47Z</time>
      </trkpt>
      <trkpt lat="47.49277" lon="-1.57938">
        <ele>16.8</ele>
        <time>2022-04-02T11:54:53Z</time>
      </trkpt>
      <trkpt lat="47.49276" lon="-1.57896">
        <ele>17.2</ele>
        <time>2022-04-02T11:55:00Z</time>
      </trkpt>
      <trkpt lat="47.49277" lon="-1.5789">
        <ele>17.2</ele>
        <time>2022-04-02T11:55:01Z</time>
      </trkpt>
      <trkpt lat="47.49284" lon="-1.5786">
        <ele>17.4</ele>
        <time>2022-04-02T11:55:06Z</time>
      </trkpt>
      <trkpt lat="47.49292" lon="-1.57828">
        <ele>17.4</ele>
        <time>2022-04-02T11:55:11Z</time>
      </trkpt>
      <trkpt lat="47.49298" lon="-1.57796">
        <ele>17.4</ele>
        <time>2022-04-02T11:55:16Z</time>
      </trkpt>
      <trkpt lat="47.49304" lon="-1.57756">
        <ele>17.4</ele>
        <time>2022-04-02T11:55:22Z</time>
      </trkpt>
      <trkpt lat="47.49305" lon="-1.57749">
        <ele>17.4</ele>
        <time>2022-04-02T11:55:23Z</time>
      </trkpt>
      <trkpt lat="47.49311" lon="-1.57701">
        <ele>17</ele>
        <time>2022-04-02T11:55:30Z</time>
      </trkpt>
      <trkpt lat="47.49312" lon="-1.57666">
        <ele>17.2</ele>
        <time>2022-04-02T11:55:35Z</time>
      </trkpt>
      <trkpt lat="47.49312" lon="-1.57653">
        <ele>17.2</ele>
        <time>2022-04-02T11:55:37Z</time>
      </trkpt>
      <trkpt lat="47.4931" lon="-1.5764">
        <ele>17.2</ele>
        <time>2022-04-02T11:55:40Z</time>
      </trkpt>
      <trkpt lat="47.49312" lon="-1.57639">
        <ele>17</ele>
        <time>2022-04-02T11:55:43Z</time>
      </trkpt>
      <trkpt lat="47.49314" lon="-1.57642">
        <ele>17</ele>
        <time>2022-04-02T11:55:47Z</time>
      </trkpt>
      <trkpt lat="47.49315" lon="-1.57642">
        <ele>16.8</ele>
        <time>2022-04-02T11:55:49Z</time>
      </trkpt>
      <trkpt lat="47.49307" lon="-1.57631">
        <ele>21.8</ele>
        <time>2022-04-02T12:11:16Z</time>
      </trkpt>
      <trkpt lat="47.49307" lon="-1.57626">
        <ele>21.6</ele>
        <time>2022-04-02T12:11:17Z</time>
      </trkpt>
      <trkpt lat="47.49304" lon="-1.5761">
        <ele>21.6</ele>
        <time>2022-04-02T12:11:20Z</time>
      </trkpt>
      <trkpt lat="47.49301" lon="-1.57605">
        <ele>21.4</ele>
        <time>2022-04-02T12:11:21Z</time>
      </trkpt>
      <trkpt lat="47.49296" lon="-1.57595">
        <ele>21.4</ele>
        <time>2022-04-02T12:11:23Z</time>
      </trkpt>
      <trkpt lat="47.49286" lon="-1.57574">
        <ele>21.4</ele>
        <time>2022-04-02T12:11:27Z</time>
      </trkpt>
      <trkpt lat="47.49284" lon="-1.57569">
        <ele>21.6</ele>
        <time>2022-04-02T12:11:28Z</time>
      </trkpt>
      <trkpt lat="47.49275" lon="-1.57551">
        <ele>21.6</ele>
        <time>2022-04-02T12:11:32Z</time>
      </trkpt>
      <trkpt lat="47.49266" lon="-1.57531">
        <ele>21.6</ele>
        <time>2022-04-02T12:11:37Z</time>
      </trkpt>
      <trkpt lat="47.49254" lon="-1.57517">
        <ele>21.8</ele>
        <time>2022-04-02T12:11:42Z</time>
      </trkpt>
      <trkpt lat="47.49238" lon="-1.57512">
        <ele>21.8</ele>
        <time>2022-04-02T12:11:46Z</time>
      </trkpt>
      <trkpt lat="47.49207" lon="-1.57505">
        <ele>22</ele>
        <time>2022-04-02T12:11:54Z</time>
      </trkpt>
      <trkpt lat="47.49188" lon="-1.57503">
        <ele>22.2</ele>
        <time>2022-04-02T12:11:59Z</time>
      </trkpt>
      <trkpt lat="47.49179" lon="-1.57501">
        <ele>22.4</ele>
        <time>2022-04-02T12:12:01Z</time>
      </trkpt>
      <trkpt lat="47.49151" lon="-1.57498">
        <ele>22.6</ele>
        <time>2022-04-02T12:12:08Z</time>
      </trkpt>
      <trkpt lat="47.49119" lon="-1.57495">
        <ele>22.8</ele>
        <time>2022-04-02T12:12:15Z</time>
      </trkpt>
      <trkpt lat="47.49088" lon="-1.57494">
        <ele>23.2</ele>
        <time>2022-04-02T12:12:22Z</time>
      </trkpt>
      <trkpt lat="47.49071" lon="-1.57501">
        <ele>23.4</ele>
        <time>2022-04-02T12:12:26Z</time>
      </trkpt>
      <trkpt lat="47.49067" lon="-1.57503">
        <ele>23.6</ele>
        <time>2022-04-02T12:12:27Z</time>
      </trkpt>
      <trkpt lat="47.49039" lon="-1.57525">
        <ele>24</ele>
        <time>2022-04-02T12:12:34Z</time>
      </trkpt>
      <trkpt lat="47.49016" lon="-1.57547">
        <ele>24.6</ele>
        <time>2022-04-02T12:12:40Z</time>
      </trkpt>
      <trkpt lat="47.48991" lon="-1.57566">
        <ele>25.2</ele>
        <time>2022-04-02T12:12:46Z</time>
      </trkpt>
      <trkpt lat="47.48972" lon="-1.57574">
        <ele>25.6</ele>
        <time>2022-04-02T12:12:51Z</time>
      </trkpt>
      <trkpt lat="47.48947" lon="-1.57571">
        <ele>26.4</ele>
        <time>2022-04-02T12:12:57Z</time>
      </trkpt>
      <trkpt lat="47.4893" lon="-1.57568">
        <ele>27</ele>
        <time>2022-04-02T12:13:02Z</time>
      </trkpt>
      <trkpt lat="47.48912" lon="-1.57563">
        <ele>27.6</ele>
        <time>2022-04-02T12:13:08Z</time>
      </trkpt>
      <trkpt lat="47.48892" lon="-1.57555">
        <ele>28.4</ele>
        <time>2022-04-02T12:13:15Z</time>
      </trkpt>
      <trkpt lat="47.48877" lon="-1.57549">
        <ele>29</ele>
        <time>2022-04-02T12:13:21Z</time>
      </trkpt>
      <trkpt lat="47.48862" lon="-1.57543">
        <ele>29.2</ele>
        <time>2022-04-02T12:13:27Z</time>
      </trkpt>
      <trkpt lat="47.48852" lon="-1.5754">
        <ele>29.4</ele>
        <time>2022-04-02T12:13:31Z</time>
      </trkpt>
      <trkpt lat="47.4885" lon="-1.57539">
        <ele>29.6</ele>
        <time>2022-04-02T12:13:32Z</time>
      </trkpt>
      <trkpt lat="47.4884" lon="-1.57535">
        <ele>30</ele>
        <time>2022-04-02T12:13:36Z</time>
      </trkpt>
      <trkpt lat="47.48822" lon="-1.57527">
        <ele>30.6</ele>
        <time>2022-04-02T12:13:43Z</time>
      </trkpt>
      <trkpt lat="47.48812" lon="-1.57522">
        <ele>31</ele>
        <time>2022-04-02T12:13:47Z</time>
      </trkpt>
      <trkpt lat="47.48804" lon="-1.57519">
        <ele>31.2</ele>
        <time>2022-04-02T12:13:51Z</time>
      </trkpt>
      <trkpt lat="47.48797" lon="-1.57516">
        <ele>31.4</ele>
        <time>2022-04-02T12:13:54Z</time>
      </trkpt>
      <trkpt lat="47.48789" lon="-1.57512">
        <ele>31.6</ele>
        <time>2022-04-02T12:13:57Z</time>
      </trkpt>
      <trkpt lat="47.48771" lon="-1.57504">
        <ele>32.8</ele>
        <time>2022-04-02T12:14:04Z</time>
      </trkpt>
      <trkpt lat="47.48754" lon="-1.57495">
        <ele>33.6</ele>
        <time>2022-04-02T12:14:11Z</time>
      </trkpt>
      <trkpt lat="47.48737" lon="-1.57483">
        <ele>34.6</ele>
        <time>2022-04-02T12:14:18Z</time>
      </trkpt>
      <trkpt lat="47.48711" lon="-1.57467">
        <ele>36.2</ele>
        <time>2022-04-02T12:14:28Z</time>
      </trkpt>
      <trkpt lat="47.48689" lon="-1.57465">
        <ele>37.8</ele>
        <time>2022-04-02T12:14:37Z</time>
      </trkpt>
      <trkpt lat="47.48671" lon="-1.57468">
        <ele>39.2</ele>
        <time>2022-04-02T12:14:44Z</time>
      </trkpt>
      <trkpt lat="47.48652" lon="-1.57473">
        <ele>40.6</ele>
        <time>2022-04-02T12:14:52Z</time>
      </trkpt>
      <trkpt lat="47.48638" lon="-1.57475">
        <ele>41.8</ele>
        <time>2022-04-02T12:14:58Z</time>
      </trkpt>
      <trkpt lat="47.48626" lon="-1.57478">
        <ele>42.6</ele>
        <time>2022-04-02T12:15:03Z</time>
      </trkpt>
      <trkpt lat="47.48613" lon="-1.5748">
        <ele>43.6</ele>
        <time>2022-04-02T12:15:09Z</time>
      </trkpt>
      <trkpt lat="47.48602" lon="-1.57482">
        <ele>44.2</ele>
        <time>2022-04-02T12:15:13Z</time>
      </trkpt>
      <trkpt lat="47.48586" lon="-1.57485">
        <ele>45.6</ele>
        <time>2022-04-02T12:15:20Z</time>
      </trkpt>
      <trkpt lat="47.48569" lon="-1.57487">
        <ele>46.6</ele>
        <time>2022-04-02T12:15:27Z</time>
      </trkpt>
      <trkpt lat="47.48552" lon="-1.57488">
        <ele>47.8</ele>
        <time>2022-04-02T12:15:34Z</time>
      </trkpt>
      <trkpt lat="47.48536" lon="-1.57487">
        <ele>48.6</ele>
        <time>2022-04-02T12:15:40Z</time>
      </trkpt>
      <trkpt lat="47.4852" lon="-1.57485">
        <ele>49.8</ele>
        <time>2022-04-02T12:15:47Z</time>
      </trkpt>
      <trkpt lat="47.48518" lon="-1.57485">
        <ele>50</ele>
        <time>2022-04-02T12:15:48Z</time>
      </trkpt>
      <trkpt lat="47.4851" lon="-1.57484">
        <ele>50.2</ele>
        <time>2022-04-02T12:15:51Z</time>
      </trkpt>
      <trkpt lat="47.48497" lon="-1.57485">
        <ele>50.6</ele>
        <time>2022-04-02T12:15:56Z</time>
      </trkpt>
      <trkpt lat="47.48484" lon="-1.57484">
        <ele>51</ele>
        <time>2022-04-02T12:16:00Z</time>
      </trkpt>
      <trkpt lat="47.48459" lon="-1.57481">
        <ele>51.8</ele>
        <time>2022-04-02T12:16:07Z</time>
      </trkpt>
      <trkpt lat="47.48438" lon="-1.57475">
        <ele>52.4</ele>
        <time>2022-04-02T12:16:13Z</time>
      </trkpt>
      <trkpt lat="47.4843" lon="-1.57457">
        <ele>52.8</ele>
        <time>2022-04-02T12:16:17Z</time>
      </trkpt>
      <trkpt lat="47.4843" lon="-1.57412">
        <ele>53.8</ele>
        <time>2022-04-02T12:16:25Z</time>
      </trkpt>
      <trkpt lat="47.48432" lon="-1.5736">
        <ele>55</ele>
        <time>2022-04-02T12:16:34Z</time>
      </trkpt>
      <trkpt lat="47.48427" lon="-1.57323">
        <ele>55.8</ele>
        <time>2022-04-02T12:16:41Z</time>
      </trkpt>
      <trkpt lat="47.48412" lon="-1.5731">
        <ele>56.2</ele>
        <time>2022-04-02T12:16:46Z</time>
      </trkpt>
      <trkpt lat="47.48386" lon="-1.57293">
        <ele>57</ele>
        <time>2022-04-02T12:16:54Z</time>
      </trkpt>
      <trkpt lat="47.48363" lon="-1.57271">
        <ele>57.8</ele>
        <time>2022-04-02T12:17:01Z</time>
      </trkpt>
      <trkpt lat="47.48335" lon="-1.57235">
        <ele>58.4</ele>
        <time>2022-04-02T12:17:10Z</time>
      </trkpt>
      <trkpt lat="47.48312" lon="-1.57207">
        <ele>59</ele>
        <time>2022-04-02T12:17:17Z</time>
      </trkpt>
      <trkpt lat="47.4828" lon="-1.5718">
        <ele>59.4</ele>
        <time>2022-04-02T12:17:25Z</time>
      </trkpt>
      <trkpt lat="47.48245" lon="-1.5715">
        <ele>59.8</ele>
        <time>2022-04-02T12:17:33Z</time>
      </trkpt>
      <trkpt lat="47.48208" lon="-1.57117">
        <ele>59.8</ele>
        <time>2022-04-02T12:17:41Z</time>
      </trkpt>
      <trkpt lat="47.48197" lon="-1.5711">
        <ele>59.8</ele>
        <time>2022-04-02T12:17:43Z</time>
      </trkpt>
      <trkpt lat="47.48179" lon="-1.571">
        <ele>59.8</ele>
        <time>2022-04-02T12:17:46Z</time>
      </trkpt>
      <trkpt lat="47.48146" lon="-1.57084">
        <ele>59.8</ele>
        <time>2022-04-02T12:17:52Z</time>
      </trkpt>
      <trkpt lat="47.48119" lon="-1.5707">
        <ele>60</ele>
        <time>2022-04-02T12:17:57Z</time>
      </trkpt>
      <trkpt lat="47.48108" lon="-1.57064">
        <ele>59.8</ele>
        <time>2022-04-02T12:17:59Z</time>
      </trkpt>
      <trkpt lat="47.48087" lon="-1.57056">
        <ele>59.8</ele>
        <time>2022-04-02T12:18:04Z</time>
      </trkpt>
      <trkpt lat="47.48066" lon="-1.5705">
        <ele>59.6</ele>
        <time>2022-04-02T12:18:10Z</time>
      </trkpt>
      <trkpt lat="47.48052" lon="-1.57045">
        <ele>59.2</ele>
        <time>2022-04-02T12:18:15Z</time>
      </trkpt>
      <trkpt lat="47.48031" lon="-1.5704">
        <ele>59</ele>
        <time>2022-04-02T12:18:22Z</time>
      </trkpt>
      <trkpt lat="47.48005" lon="-1.57031">
        <ele>58.6</ele>
        <time>2022-04-02T12:18:31Z</time>
      </trkpt>
      <trkpt lat="47.4798" lon="-1.57025">
        <ele>58.8</ele>
        <time>2022-04-02T12:18:39Z</time>
      </trkpt>
      <trkpt lat="47.47958" lon="-1.5702">
        <ele>59.2</ele>
        <time>2022-04-02T12:18:46Z</time>
      </trkpt>
      <trkpt lat="47.47935" lon="-1.57014">
        <ele>59.4</ele>
        <time>2022-04-02T12:18:54Z</time>
      </trkpt>
      <trkpt lat="47.47907" lon="-1.57007">
        <ele>60</ele>
        <time>2022-04-02T12:19:03Z</time>
      </trkpt>
      <trkpt lat="47.47883" lon="-1.57001">
        <ele>60.6</ele>
        <time>2022-04-02T12:19:11Z</time>
      </trkpt>
      <trkpt lat="47.47862" lon="-1.56996">
        <ele>61</ele>
        <time>2022-04-02T12:19:18Z</time>
      </trkpt>
      <trkpt lat="47.47841" lon="-1.56983">
        <ele>61.6</ele>
        <time>2022-04-02T12:19:26Z</time>
      </trkpt>
      <trkpt lat="47.4784" lon="-1.56968">
        <ele>61.8</ele>
        <time>2022-04-02T12:19:30Z</time>
      </trkpt>
      <trkpt lat="47.47843" lon="-1.56942">
        <ele>62.4</ele>
        <time>2022-04-02T12:19:36Z</time>
      </trkpt>
      <trkpt lat="47.47844" lon="-1.56915">
        <ele>63.2</ele>
        <time>2022-04-02T12:19:43Z</time>
      </trkpt>
      <trkpt lat="47.47847" lon="-1.56887">
        <ele>63.6</ele>
        <time>2022-04-02T12:19:51Z</time>
      </trkpt>
      <trkpt lat="47.47848" lon="-1.56866">
        <ele>64.2</ele>
        <time>2022-04-02T12:19:59Z</time>
      </trkpt>
      <trkpt lat="47.47849" lon="-1.56855">
        <ele>64.4</ele>
        <time>2022-04-02T12:20:05Z</time>
      </trkpt>
      <trkpt lat="47.47849" lon="-1.56851">
        <ele>67.6</ele>
        <time>2022-04-02T12:21:58Z</time>
      </trkpt>
      <trkpt lat="47.4785" lon="-1.56844">
        <ele>67.6</ele>
        <time>2022-04-02T12:22:01Z</time>
      </trkpt>
      <trkpt lat="47.47852" lon="-1.56831">
        <ele>67.2</ele>
        <time>2022-04-02T12:22:07Z</time>
      </trkpt>
      <trkpt lat="47.47853" lon="-1.56829">
        <ele>67.2</ele>
        <time>2022-04-02T12:22:08Z</time>
      </trkpt>
      <trkpt lat="47.47854" lon="-1.56827">
        <ele>67</ele>
        <time>2022-04-02T12:22:11Z</time>
      </trkpt>
      <trkpt lat="47.47852" lon="-1.56836">
        <ele>65.8</ele>
        <time>2022-04-02T12:28:10Z</time>
      </trkpt>
      <trkpt lat="47.47851" lon="-1.56839">
        <ele>65.8</ele>
        <time>2022-04-02T12:28:11Z</time>
      </trkpt>
      <trkpt lat="47.4785" lon="-1.56865">
        <ele>66</ele>
        <time>2022-04-02T12:28:17Z</time>
      </trkpt>
      <trkpt lat="47.47848" lon="-1.56891">
        <ele>66.2</ele>
        <time>2022-04-02T12:28:23Z</time>
      </trkpt>
      <trkpt lat="47.47845" lon="-1.56926">
        <ele>66.4</ele>
        <time>2022-04-02T12:28:29Z</time>
      </trkpt>
      <trkpt lat="47.47841" lon="-1.56968">
        <ele>66.6</ele>
        <time>2022-04-02T12:28:36Z</time>
      </trkpt>
      <trkpt lat="47.47844" lon="-1.5699">
        <ele>66.6</ele>
        <time>2022-04-02T12:28:40Z</time>
      </trkpt>
      <trkpt lat="47.47847" lon="-1.56992">
        <ele>66.6</ele>
        <time>2022-04-02T12:28:41Z</time>
      </trkpt>
      <trkpt lat="47.47868" lon="-1.56997">
        <ele>66.6</ele>
        <time>2022-04-02T12:28:46Z</time>
      </trkpt>
      <trkpt lat="47.47892" lon="-1.57003">
        <ele>66.6</ele>
        <time>2022-04-02T12:28:53Z</time>
      </trkpt>
      <trkpt lat="47.47908" lon="-1.57006">
        <ele>66.4</ele>
        <time>2022-04-02T12:28:59Z</time>
      </trkpt>
      <trkpt lat="47.47913" lon="-1.57008">
        <ele>66.4</ele>
        <time>2022-04-02T12:29:03Z</time>
      </trkpt>
      <trkpt lat="47.47903" lon="-1.57007">
        <ele>67.2</ele>
        <time>2022-04-02T12:38:26Z</time>
      </trkpt>
      <trkpt lat="47.47897" lon="-1.57005">
        <ele>67.2</ele>
        <time>2022-04-02T12:38:28Z</time>
      </trkpt>
      <trkpt lat="47.47868" lon="-1.56997">
        <ele>67.2</ele>
        <time>2022-04-02T12:38:36Z</time>
      </trkpt>
      <trkpt lat="47.47843" lon="-1.56986">
        <ele>67.2</ele>
        <time>2022-04-02T12:38:43Z</time>
      </trkpt>
      <trkpt lat="47.47838" lon="-1.56977">
        <ele>67.2</ele>
        <time>2022-04-02T12:38:45Z</time>
      </trkpt>
      <trkpt lat="47.47838" lon="-1.56972">
        <ele>67.2</ele>
        <time>2022-04-02T12:38:46Z</time>
      </trkpt>
      <trkpt lat="47.47844" lon="-1.5693">
        <ele>67.2</ele>
        <time>2022-04-02T12:38:53Z</time>
      </trkpt>
      <trkpt lat="47.47848" lon="-1.5688">
        <ele>67.4</ele>
        <time>2022-04-02T12:39:01Z</time>
      </trkpt>
      <trkpt lat="47.47851" lon="-1.56841">
        <ele>67.4</ele>
        <time>2022-04-02T12:39:07Z</time>
      </trkpt>
      <trkpt lat="47.47856" lon="-1.56785">
        <ele>67.4</ele>
        <time>2022-04-02T12:39:15Z</time>
      </trkpt>
      <trkpt lat="47.47861" lon="-1.56729">
        <ele>67.2</ele>
        <time>2022-04-02T12:39:23Z</time>
      </trkpt>
      <trkpt lat="47.47865" lon="-1.56679">
        <ele>67</ele>
        <time>2022-04-02T12:39:29Z</time>
      </trkpt>
      <trkpt lat="47.47869" lon="-1.5666">
        <ele>66.8</ele>
        <time>2022-04-02T12:39:31Z</time>
      </trkpt>
      <trkpt lat="47.47879" lon="-1.56633">
        <ele>66.4</ele>
        <time>2022-04-02T12:39:34Z</time>
      </trkpt>
      <trkpt lat="47.47899" lon="-1.56585">
        <ele>65.6</ele>
        <time>2022-04-02T12:39:39Z</time>
      </trkpt>
      <trkpt lat="47.47903" lon="-1.56575">
        <ele>65.4</ele>
        <time>2022-04-02T12:39:40Z</time>
      </trkpt>
      <trkpt lat="47.47908" lon="-1.56564">
        <ele>65.2</ele>
        <time>2022-04-02T12:39:41Z</time>
      </trkpt>
      <trkpt lat="47.47914" lon="-1.5654">
        <ele>64.8</ele>
        <time>2022-04-02T12:39:43Z</time>
      </trkpt>
      <trkpt lat="47.4792" lon="-1.56487">
        <ele>64</ele>
        <time>2022-04-02T12:39:47Z</time>
      </trkpt>
      <trkpt lat="47.4792" lon="-1.56473">
        <ele>63.8</ele>
        <time>2022-04-02T12:39:48Z</time>
      </trkpt>
      <trkpt lat="47.4792" lon="-1.56389">
        <ele>62.8</ele>
        <time>2022-04-02T12:39:54Z</time>
      </trkpt>
      <trkpt lat="47.47917" lon="-1.56326">
        <ele>61.8</ele>
        <time>2022-04-02T12:39:59Z</time>
      </trkpt>
      <trkpt lat="47.47913" lon="-1.56316">
        <ele>61.4</ele>
        <time>2022-04-02T12:40:01Z</time>
      </trkpt>
      <trkpt lat="47.47908" lon="-1.56313">
        <ele>61.2</ele>
        <time>2022-04-02T12:40:02Z</time>
      </trkpt>
      <trkpt lat="47.47899" lon="-1.56309">
        <ele>60.8</ele>
        <time>2022-04-02T12:40:04Z</time>
      </trkpt>
      <trkpt lat="47.47884" lon="-1.56302">
        <ele>60.2</ele>
        <time>2022-04-02T12:40:07Z</time>
      </trkpt>
      <trkpt lat="47.47838" lon="-1.5628">
        <ele>58.8</ele>
        <time>2022-04-02T12:40:16Z</time>
      </trkpt>
      <trkpt lat="47.4781" lon="-1.56265">
        <ele>58.2</ele>
        <time>2022-04-02T12:40:22Z</time>
      </trkpt>
      <trkpt lat="47.47791" lon="-1.56256">
        <ele>57.6</ele>
        <time>2022-04-02T12:40:27Z</time>
      </trkpt>
      <trkpt lat="47.47769" lon="-1.56248">
        <ele>56.8</ele>
        <time>2022-04-02T12:40:33Z</time>
      </trkpt>
      <trkpt lat="47.47761" lon="-1.56245">
        <ele>56.4</ele>
        <time>2022-04-02T12:40:35Z</time>
      </trkpt>
      <trkpt lat="47.4775" lon="-1.56241">
        <ele>56</ele>
        <time>2022-04-02T12:40:38Z</time>
      </trkpt>
      <trkpt lat="47.47727" lon="-1.56231">
        <ele>55.2</ele>
        <time>2022-04-02T12:40:44Z</time>
      </trkpt>
      <trkpt lat="47.47719" lon="-1.5623">
        <ele>54.8</ele>
        <time>2022-04-02T12:40:46Z</time>
      </trkpt>
      <trkpt lat="47.47711" lon="-1.56229">
        <ele>54.6</ele>
        <time>2022-04-02T12:40:48Z</time>
      </trkpt>
      <trkpt lat="47.47688" lon="-1.56228">
        <ele>54</ele>
        <time>2022-04-02T12:40:54Z</time>
      </trkpt>
      <trkpt lat="47.47661" lon="-1.5623">
        <ele>53.6</ele>
        <time>2022-04-02T12:41:01Z</time>
      </trkpt>
      <trkpt lat="47.47637" lon="-1.5624">
        <ele>53.2</ele>
        <time>2022-04-02T12:41:07Z</time>
      </trkpt>
      <trkpt lat="47.47608" lon="-1.56255">
        <ele>52.8</ele>
        <time>2022-04-02T12:41:14Z</time>
      </trkpt>
      <trkpt lat="47.47605" lon="-1.56258">
        <ele>52.8</ele>
        <time>2022-04-02T12:41:15Z</time>
      </trkpt>
      <trkpt lat="47.47597" lon="-1.56264">
        <ele>52.8</ele>
        <time>2022-04-02T12:41:17Z</time>
      </trkpt>
      <trkpt lat="47.47589" lon="-1.56269">
        <ele>52.6</ele>
        <time>2022-04-02T12:41:19Z</time>
      </trkpt>
      <trkpt lat="47.47562" lon="-1.56285">
        <ele>52.6</ele>
        <time>2022-04-02T12:41:26Z</time>
      </trkpt>
      <trkpt lat="47.47527" lon="-1.56296">
        <ele>52.6</ele>
        <time>2022-04-02T12:41:34Z</time>
      </trkpt>
      <trkpt lat="47.47495" lon="-1.56308">
        <ele>53</ele>
        <time>2022-04-02T12:41:42Z</time>
      </trkpt>
      <trkpt lat="47.47471" lon="-1.56327">
        <ele>53.8</ele>
        <time>2022-04-02T12:41:49Z</time>
      </trkpt>
      <trkpt lat="47.47449" lon="-1.56353">
        <ele>54.6</ele>
        <time>2022-04-02T12:41:57Z</time>
      </trkpt>
      <trkpt lat="47.47426" lon="-1.56383">
        <ele>55.4</ele>
        <time>2022-04-02T12:42:06Z</time>
      </trkpt>
      <trkpt lat="47.47405" lon="-1.56404">
        <ele>56.4</ele>
        <time>2022-04-02T12:42:13Z</time>
      </trkpt>
      <trkpt lat="47.47382" lon="-1.5642">
        <ele>57.4</ele>
        <time>2022-04-02T12:42:20Z</time>
      </trkpt>
      <trkpt lat="47.47353" lon="-1.56432">
        <ele>58.4</ele>
        <time>2022-04-02T12:42:28Z</time>
      </trkpt>
      <trkpt lat="47.47324" lon="-1.56442">
        <ele>59.2</ele>
        <time>2022-04-02T12:42:35Z</time>
      </trkpt>
      <trkpt lat="47.47286" lon="-1.56461">
        <ele>60.2</ele>
        <time>2022-04-02T12:42:44Z</time>
      </trkpt>
      <trkpt lat="47.47254" lon="-1.56481">
        <ele>61</ele>
        <time>2022-04-02T12:42:51Z</time>
      </trkpt>
      <trkpt lat="47.47226" lon="-1.56497">
        <ele>61.2</ele>
        <time>2022-04-02T12:42:57Z</time>
      </trkpt>
      <trkpt lat="47.47189" lon="-1.56519">
        <ele>61.2</ele>
        <time>2022-04-02T12:43:04Z</time>
      </trkpt>
      <trkpt lat="47.47154" lon="-1.56542">
        <ele>61</ele>
        <time>2022-04-02T12:43:10Z</time>
      </trkpt>
      <trkpt lat="47.47108" lon="-1.56571">
        <ele>60.4</ele>
        <time>2022-04-02T12:43:17Z</time>
      </trkpt>
      <trkpt lat="47.47081" lon="-1.56587">
        <ele>60</ele>
        <time>2022-04-02T12:43:21Z</time>
      </trkpt>
      <trkpt lat="47.47044" lon="-1.5661">
        <ele>58.8</ele>
        <time>2022-04-02T12:43:26Z</time>
      </trkpt>
      <trkpt lat="47.47002" lon="-1.56637">
        <ele>57.6</ele>
        <time>2022-04-02T12:43:31Z</time>
      </trkpt>
      <trkpt lat="47.46981" lon="-1.56654">
        <ele>56.8</ele>
        <time>2022-04-02T12:43:34Z</time>
      </trkpt>
      <trkpt lat="47.46975" lon="-1.56663">
        <ele>56.6</ele>
        <time>2022-04-02T12:43:35Z</time>
      </trkpt>
      <trkpt lat="47.46971" lon="-1.56674">
        <ele>56.4</ele>
        <time>2022-04-02T12:43:36Z</time>
      </trkpt>
      <trkpt lat="47.4697" lon="-1.56686">
        <ele>56.2</ele>
        <time>2022-04-02T12:43:37Z</time>
      </trkpt>
      <trkpt lat="47.46972" lon="-1.56697">
        <ele>56</ele>
        <time>2022-04-02T12:43:38Z</time>
      </trkpt>
      <trkpt lat="47.46977" lon="-1.56708">
        <ele>55.8</ele>
        <time>2022-04-02T12:43:39Z</time>
      </trkpt>
      <trkpt lat="47.46991" lon="-1.56735">
        <ele>55.2</ele>
        <time>2022-04-02T12:43:42Z</time>
      </trkpt>
      <trkpt lat="47.46993" lon="-1.56742">
        <ele>55</ele>
        <time>2022-04-02T12:43:43Z</time>
      </trkpt>
      <trkpt lat="47.46991" lon="-1.56754">
        <ele>54.6</ele>
        <time>2022-04-02T12:43:45Z</time>
      </trkpt>
      <trkpt lat="47.46988" lon="-1.56759">
        <ele>54.4</ele>
        <time>2022-04-02T12:43:46Z</time>
      </trkpt>
      <trkpt lat="47.46987" lon="-1.56766">
        <ele>54.2</ele>
        <time>2022-04-02T12:43:47Z</time>
      </trkpt>
      <trkpt lat="47.46984" lon="-1.56783">
        <ele>53.8</ele>
        <time>2022-04-02T12:43:49Z</time>
      </trkpt>
      <trkpt lat="47.46984" lon="-1.56794">
        <ele>53.8</ele>
        <time>2022-04-02T12:43:50Z</time>
      </trkpt>
      <trkpt lat="47.4698" lon="-1.56822">
        <ele>53.4</ele>
        <time>2022-04-02T12:43:52Z</time>
      </trkpt>
      <trkpt lat="47.46974" lon="-1.56852">
        <ele>53</ele>
        <time>2022-04-02T12:43:54Z</time>
      </trkpt>
      <trkpt lat="47.46965" lon="-1.56878">
        <ele>52.6</ele>
        <time>2022-04-02T12:43:56Z</time>
      </trkpt>
      <trkpt lat="47.4695" lon="-1.56898">
        <ele>52.2</ele>
        <time>2022-04-02T12:43:58Z</time>
      </trkpt>
      <trkpt lat="47.46927" lon="-1.56912">
        <ele>52</ele>
        <time>2022-04-02T12:44:00Z</time>
      </trkpt>
      <trkpt lat="47.46913" lon="-1.5693">
        <ele>51.8</ele>
        <time>2022-04-02T12:44:01Z</time>
      </trkpt>
      <trkpt lat="47.46901" lon="-1.56948">
        <ele>51.6</ele>
        <time>2022-04-02T12:44:02Z</time>
      </trkpt>
      <trkpt lat="47.4688" lon="-1.56983">
        <ele>51</ele>
        <time>2022-04-02T12:44:04Z</time>
      </trkpt>
      <trkpt lat="47.4685" lon="-1.57058">
        <ele>50.4</ele>
        <time>2022-04-02T12:44:08Z</time>
      </trkpt>
      <trkpt lat="47.46833" lon="-1.57097">
        <ele>49.8</ele>
        <time>2022-04-02T12:44:10Z</time>
      </trkpt>
      <trkpt lat="47.46824" lon="-1.57113">
        <ele>49.4</ele>
        <time>2022-04-02T12:44:11Z</time>
      </trkpt>
      <trkpt lat="47.46783" lon="-1.57169">
        <ele>48</ele>
        <time>2022-04-02T12:44:16Z</time>
      </trkpt>
      <trkpt lat="47.46736" lon="-1.57226">
        <ele>46.6</ele>
        <time>2022-04-02T12:44:22Z</time>
      </trkpt>
      <trkpt lat="47.46728" lon="-1.57234">
        <ele>46.4</ele>
        <time>2022-04-02T12:44:23Z</time>
      </trkpt>
      <trkpt lat="47.46702" lon="-1.57252">
        <ele>45.6</ele>
        <time>2022-04-02T12:44:26Z</time>
      </trkpt>
      <trkpt lat="47.46693" lon="-1.57255">
        <ele>45.4</ele>
        <time>2022-04-02T12:44:27Z</time>
      </trkpt>
      <trkpt lat="47.46646" lon="-1.57258">
        <ele>44</ele>
        <time>2022-04-02T12:44:32Z</time>
      </trkpt>
      <trkpt lat="47.46587" lon="-1.57257">
        <ele>42.4</ele>
        <time>2022-04-02T12:44:39Z</time>
      </trkpt>
      <trkpt lat="47.46533" lon="-1.57253">
        <ele>41</ele>
        <time>2022-04-02T12:44:46Z</time>
      </trkpt>
      <trkpt lat="47.46511" lon="-1.57242">
        <ele>40.6</ele>
        <time>2022-04-02T12:44:49Z</time>
      </trkpt>
      <trkpt lat="47.46504" lon="-1.57236">
        <ele>40.4</ele>
        <time>2022-04-02T12:44:50Z</time>
      </trkpt>
      <trkpt lat="47.4647" lon="-1.57207">
        <ele>39.6</ele>
        <time>2022-04-02T12:44:55Z</time>
      </trkpt>
      <trkpt lat="47.46465" lon="-1.572">
        <ele>39.4</ele>
        <time>2022-04-02T12:44:56Z</time>
      </trkpt>
      <trkpt lat="47.4646" lon="-1.57192">
        <ele>39.4</ele>
        <time>2022-04-02T12:44:57Z</time>
      </trkpt>
      <trkpt lat="47.46453" lon="-1.57176">
        <ele>39.2</ele>
        <time>2022-04-02T12:44:59Z</time>
      </trkpt>
      <trkpt lat="47.4645" lon="-1.57167">
        <ele>39</ele>
        <time>2022-04-02T12:45:00Z</time>
      </trkpt>
      <trkpt lat="47.46448" lon="-1.57158">
        <ele>38.8</ele>
        <time>2022-04-02T12:45:01Z</time>
      </trkpt>
      <trkpt lat="47.46447" lon="-1.57128">
        <ele>38.4</ele>
        <time>2022-04-02T12:45:04Z</time>
      </trkpt>
      <trkpt lat="47.46446" lon="-1.57057">
        <ele>37.4</ele>
        <time>2022-04-02T12:45:12Z</time>
      </trkpt>
      <trkpt lat="47.46444" lon="-1.57">
        <ele>36.8</ele>
        <time>2022-04-02T12:45:19Z</time>
      </trkpt>
      <trkpt lat="47.46442" lon="-1.56979">
        <ele>36.4</ele>
        <time>2022-04-02T12:45:22Z</time>
      </trkpt>
      <trkpt lat="47.4644" lon="-1.56948">
        <ele>36</ele>
        <time>2022-04-02T12:45:26Z</time>
      </trkpt>
      <trkpt lat="47.46438" lon="-1.56887">
        <ele>35</ele>
        <time>2022-04-02T12:45:34Z</time>
      </trkpt>
      <trkpt lat="47.46436" lon="-1.56828">
        <ele>34.2</ele>
        <time>2022-04-02T12:45:42Z</time>
      </trkpt>
      <trkpt lat="47.46432" lon="-1.56766">
        <ele>33.8</ele>
        <time>2022-04-02T12:45:50Z</time>
      </trkpt>
      <trkpt lat="47.46432" lon="-1.5671">
        <ele>33</ele>
        <time>2022-04-02T12:45:57Z</time>
      </trkpt>
      <trkpt lat="47.46426" lon="-1.56648">
        <ele>31.8</ele>
        <time>2022-04-02T12:46:05Z</time>
      </trkpt>
      <trkpt lat="47.46421" lon="-1.56619">
        <ele>31</ele>
        <time>2022-04-02T12:46:09Z</time>
      </trkpt>
      <trkpt lat="47.46417" lon="-1.56605">
        <ele>30.6</ele>
        <time>2022-04-02T12:46:11Z</time>
      </trkpt>
      <trkpt lat="47.46401" lon="-1.56553">
        <ele>29.8</ele>
        <time>2022-04-02T12:46:18Z</time>
      </trkpt>
      <trkpt lat="47.46387" lon="-1.56514">
        <ele>29</ele>
        <time>2022-04-02T12:46:24Z</time>
      </trkpt>
      <trkpt lat="47.46385" lon="-1.56507">
        <ele>29</ele>
        <time>2022-04-02T12:46:25Z</time>
      </trkpt>
      <trkpt lat="47.46372" lon="-1.56463">
        <ele>28.2</ele>
        <time>2022-04-02T12:46:31Z</time>
      </trkpt>
      <trkpt lat="47.46354" lon="-1.56395">
        <ele>27.4</ele>
        <time>2022-04-02T12:46:40Z</time>
      </trkpt>
      <trkpt lat="47.46333" lon="-1.56328">
        <ele>27.6</ele>
        <time>2022-04-02T12:46:49Z</time>
      </trkpt>
      <trkpt lat="47.46314" lon="-1.56269">
        <ele>27.6</ele>
        <time>2022-04-02T12:46:57Z</time>
      </trkpt>
      <trkpt lat="47.46293" lon="-1.56204">
        <ele>28</ele>
        <time>2022-04-02T12:47:06Z</time>
      </trkpt>
      <trkpt lat="47.46288" lon="-1.56192">
        <ele>28</ele>
        <time>2022-04-02T12:47:08Z</time>
      </trkpt>
      <trkpt lat="47.4628" lon="-1.56183">
        <ele>28.2</ele>
        <time>2022-04-02T12:47:10Z</time>
      </trkpt>
      <trkpt lat="47.4627" lon="-1.56185">
        <ele>28.2</ele>
        <time>2022-04-02T12:47:12Z</time>
      </trkpt>
      <trkpt lat="47.46265" lon="-1.56187">
        <ele>28.2</ele>
        <time>2022-04-02T12:47:13Z</time>
      </trkpt>
      <trkpt lat="47.46227" lon="-1.56207">
        <ele>28</ele>
        <time>2022-04-02T12:47:20Z</time>
      </trkpt>
      <trkpt lat="47.46192" lon="-1.56228">
        <ele>27.8</ele>
        <time>2022-04-02T12:47:26Z</time>
      </trkpt>
      <trkpt lat="47.46147" lon="-1.56254">
        <ele>27.4</ele>
        <time>2022-04-02T12:47:33Z</time>
      </trkpt>
      <trkpt lat="47.46098" lon="-1.56292">
        <ele>26.8</ele>
        <time>2022-04-02T12:47:41Z</time>
      </trkpt>
      <trkpt lat="47.4606" lon="-1.56332">
        <ele>26.6</ele>
        <time>2022-04-02T12:47:48Z</time>
      </trkpt>
      <trkpt lat="47.4603" lon="-1.5637">
        <ele>26.4</ele>
        <time>2022-04-02T12:47:54Z</time>
      </trkpt>
      <trkpt lat="47.45992" lon="-1.56425">
        <ele>25.8</ele>
        <time>2022-04-02T12:48:02Z</time>
      </trkpt>
      <trkpt lat="47.45972" lon="-1.56451">
        <ele>25.2</ele>
        <time>2022-04-02T12:48:06Z</time>
      </trkpt>
      <trkpt lat="47.45942" lon="-1.56472">
        <ele>24.2</ele>
        <time>2022-04-02T12:48:11Z</time>
      </trkpt>
      <trkpt lat="47.45886" lon="-1.56497">
        <ele>22.8</ele>
        <time>2022-04-02T12:48:20Z</time>
      </trkpt>
      <trkpt lat="47.45881" lon="-1.565">
        <ele>22.6</ele>
        <time>2022-04-02T12:48:21Z</time>
      </trkpt>
      <trkpt lat="47.4584" lon="-1.56527">
        <ele>21.8</ele>
        <time>2022-04-02T12:48:28Z</time>
      </trkpt>
      <trkpt lat="47.45812" lon="-1.56546">
        <ele>21.4</ele>
        <time>2022-04-02T12:48:33Z</time>
      </trkpt>
      <trkpt lat="47.45806" lon="-1.56548">
        <ele>21.4</ele>
        <time>2022-04-02T12:48:34Z</time>
      </trkpt>
      <trkpt lat="47.45799" lon="-1.5655">
        <ele>21.4</ele>
        <time>2022-04-02T12:48:35Z</time>
      </trkpt>
      <trkpt lat="47.45787" lon="-1.56551">
        <ele>21.2</ele>
        <time>2022-04-02T12:48:37Z</time>
      </trkpt>
      <trkpt lat="47.45774" lon="-1.56549">
        <ele>21.2</ele>
        <time>2022-04-02T12:48:39Z</time>
      </trkpt>
      <trkpt lat="47.45746" lon="-1.56535">
        <ele>21</ele>
        <time>2022-04-02T12:48:44Z</time>
      </trkpt>
      <trkpt lat="47.457" lon="-1.56505">
        <ele>21.2</ele>
        <time>2022-04-02T12:48:53Z</time>
      </trkpt>
      <trkpt lat="47.45662" lon="-1.56496">
        <ele>21.2</ele>
        <time>2022-04-02T12:49:00Z</time>
      </trkpt>
      <trkpt lat="47.45624" lon="-1.565">
        <ele>21.8</ele>
        <time>2022-04-02T12:49:07Z</time>
      </trkpt>
      <trkpt lat="47.45588" lon="-1.56507">
        <ele>22.4</ele>
        <time>2022-04-02T12:49:14Z</time>
      </trkpt>
      <trkpt lat="47.45553" lon="-1.56516">
        <ele>22.8</ele>
        <time>2022-04-02T12:49:21Z</time>
      </trkpt>
      <trkpt lat="47.45538" lon="-1.5652">
        <ele>22.8</ele>
        <time>2022-04-02T12:49:24Z</time>
      </trkpt>
      <trkpt lat="47.45523" lon="-1.56523">
        <ele>22.8</ele>
        <time>2022-04-02T12:49:27Z</time>
      </trkpt>
      <trkpt lat="47.45495" lon="-1.56531">
        <ele>22.6</ele>
        <time>2022-04-02T12:49:33Z</time>
      </trkpt>
      <trkpt lat="47.45475" lon="-1.56539">
        <ele>22.8</ele>
        <time>2022-04-02T12:49:37Z</time>
      </trkpt>
      <trkpt lat="47.4547" lon="-1.56542">
        <ele>22.8</ele>
        <time>2022-04-02T12:49:38Z</time>
      </trkpt>
      <trkpt lat="47.45443" lon="-1.56558">
        <ele>23.4</ele>
        <time>2022-04-02T12:49:44Z</time>
      </trkpt>
      <trkpt lat="47.45412" lon="-1.56581">
        <ele>24</ele>
        <time>2022-04-02T12:49:51Z</time>
      </trkpt>
      <trkpt lat="47.45386" lon="-1.5661">
        <ele>24.6</ele>
        <time>2022-04-02T12:49:57Z</time>
      </trkpt>
      <trkpt lat="47.45356" lon="-1.56659">
        <ele>25.2</ele>
        <time>2022-04-02T12:50:05Z</time>
      </trkpt>
      <trkpt lat="47.45352" lon="-1.56665">
        <ele>25.4</ele>
        <time>2022-04-02T12:50:06Z</time>
      </trkpt>
      <trkpt lat="47.45329" lon="-1.5669">
        <ele>25.8</ele>
        <time>2022-04-02T12:50:11Z</time>
      </trkpt>
      <trkpt lat="47.45288" lon="-1.56727">
        <ele>26.2</ele>
        <time>2022-04-02T12:50:19Z</time>
      </trkpt>
      <trkpt lat="47.45249" lon="-1.56762">
        <ele>26.4</ele>
        <time>2022-04-02T12:50:26Z</time>
      </trkpt>
      <trkpt lat="47.45236" lon="-1.5677">
        <ele>26.6</ele>
        <time>2022-04-02T12:50:28Z</time>
      </trkpt>
      <trkpt lat="47.45223" lon="-1.56769">
        <ele>26.6</ele>
        <time>2022-04-02T12:50:30Z</time>
      </trkpt>
      <trkpt lat="47.45189" lon="-1.56747">
        <ele>26.6</ele>
        <time>2022-04-02T12:50:35Z</time>
      </trkpt>
      <trkpt lat="47.45183" lon="-1.56742">
        <ele>26.8</ele>
        <time>2022-04-02T12:50:36Z</time>
      </trkpt>
      <trkpt lat="47.45174" lon="-1.56729">
        <ele>26.8</ele>
        <time>2022-04-02T12:50:38Z</time>
      </trkpt>
      <trkpt lat="47.4517" lon="-1.56721">
        <ele>26.8</ele>
        <time>2022-04-02T12:50:39Z</time>
      </trkpt>
      <trkpt lat="47.45156" lon="-1.56676">
        <ele>27.4</ele>
        <time>2022-04-02T12:50:45Z</time>
      </trkpt>
      <trkpt lat="47.45142" lon="-1.56614">
        <ele>27.8</ele>
        <time>2022-04-02T12:50:53Z</time>
      </trkpt>
      <trkpt lat="47.45122" lon="-1.5656">
        <ele>28</ele>
        <time>2022-04-02T12:51:00Z</time>
      </trkpt>
      <trkpt lat="47.45094" lon="-1.56505">
        <ele>28</ele>
        <time>2022-04-02T12:51:07Z</time>
      </trkpt>
      <trkpt lat="47.45089" lon="-1.56497">
        <ele>28</ele>
        <time>2022-04-02T12:51:08Z</time>
      </trkpt>
      <trkpt lat="47.45078" lon="-1.56483">
        <ele>28</ele>
        <time>2022-04-02T12:51:10Z</time>
      </trkpt>
      <trkpt lat="47.4507" lon="-1.5648">
        <ele>28</ele>
        <time>2022-04-02T12:51:11Z</time>
      </trkpt>
      <trkpt lat="47.45062" lon="-1.5648">
        <ele>28.4</ele>
        <time>2022-04-02T12:51:12Z</time>
      </trkpt>
      <trkpt lat="47.45048" lon="-1.56485">
        <ele>28</ele>
        <time>2022-04-02T12:51:14Z</time>
      </trkpt>
      <trkpt lat="47.45014" lon="-1.56497">
        <ele>27.6</ele>
        <time>2022-04-02T12:51:19Z</time>
      </trkpt>
      <trkpt lat="47.44962" lon="-1.56516">
        <ele>27</ele>
        <time>2022-04-02T12:51:27Z</time>
      </trkpt>
      <trkpt lat="47.44918" lon="-1.56531">
        <ele>26.8</ele>
        <time>2022-04-02T12:51:34Z</time>
      </trkpt>
      <trkpt lat="47.44859" lon="-1.56553">
        <ele>26</ele>
        <time>2022-04-02T12:51:43Z</time>
      </trkpt>
      <trkpt lat="47.44809" lon="-1.56562">
        <ele>25</ele>
        <time>2022-04-02T12:51:50Z</time>
      </trkpt>
      <trkpt lat="47.44754" lon="-1.56567">
        <ele>24.2</ele>
        <time>2022-04-02T12:51:57Z</time>
      </trkpt>
      <trkpt lat="47.44747" lon="-1.56568">
        <ele>24</ele>
        <time>2022-04-02T12:51:58Z</time>
      </trkpt>
      <trkpt lat="47.44717" lon="-1.56576">
        <ele>23.4</ele>
        <time>2022-04-02T12:52:02Z</time>
      </trkpt>
      <trkpt lat="47.44709" lon="-1.56581">
        <ele>23.2</ele>
        <time>2022-04-02T12:52:03Z</time>
      </trkpt>
      <trkpt lat="47.44671" lon="-1.5661">
        <ele>22.2</ele>
        <time>2022-04-02T12:52:08Z</time>
      </trkpt>
      <trkpt lat="47.44631" lon="-1.56631">
        <ele>21.2</ele>
        <time>2022-04-02T12:52:13Z</time>
      </trkpt>
      <trkpt lat="47.44588" lon="-1.56649">
        <ele>20.4</ele>
        <time>2022-04-02T12:52:19Z</time>
      </trkpt>
      <trkpt lat="47.4456" lon="-1.56661">
        <ele>19.8</ele>
        <time>2022-04-02T12:52:24Z</time>
      </trkpt>
      <trkpt lat="47.44552" lon="-1.56663">
        <ele>19.6</ele>
        <time>2022-04-02T12:52:26Z</time>
      </trkpt>
      <trkpt lat="47.44549" lon="-1.56661">
        <ele>19.6</ele>
        <time>2022-04-02T12:52:27Z</time>
      </trkpt>
      <trkpt lat="47.44545" lon="-1.56652">
        <ele>19.4</ele>
        <time>2022-04-02T12:52:29Z</time>
      </trkpt>
      <trkpt lat="47.44542" lon="-1.56636">
        <ele>19</ele>
        <time>2022-04-02T12:52:31Z</time>
      </trkpt>
      <trkpt lat="47.4454" lon="-1.56626">
        <ele>18.8</ele>
        <time>2022-04-02T12:52:32Z</time>
      </trkpt>
      <trkpt lat="47.44539" lon="-1.56596">
        <ele>18.2</ele>
        <time>2022-04-02T12:52:35Z</time>
      </trkpt>
      <trkpt lat="47.44539" lon="-1.56541">
        <ele>17</ele>
        <time>2022-04-02T12:52:41Z</time>
      </trkpt>
      <trkpt lat="47.44538" lon="-1.56517">
        <ele>16.4</ele>
        <time>2022-04-02T12:52:44Z</time>
      </trkpt>
      <trkpt lat="47.44537" lon="-1.56503">
        <ele>16.2</ele>
        <time>2022-04-02T12:52:46Z</time>
      </trkpt>
      <trkpt lat="47.44535" lon="-1.56462">
        <ele>15.2</ele>
        <time>2022-04-02T12:52:52Z</time>
      </trkpt>
      <trkpt lat="47.44529" lon="-1.56419">
        <ele>14.4</ele>
        <time>2022-04-02T12:52:58Z</time>
      </trkpt>
      <trkpt lat="47.44527" lon="-1.56412">
        <ele>14.4</ele>
        <time>2022-04-02T12:52:59Z</time>
      </trkpt>
      <trkpt lat="47.44516" lon="-1.56385">
        <ele>14.2</ele>
        <time>2022-04-02T12:53:03Z</time>
      </trkpt>
      <trkpt lat="47.44509" lon="-1.56375">
        <ele>14.2</ele>
        <time>2022-04-02T12:53:05Z</time>
      </trkpt>
      <trkpt lat="47.44506" lon="-1.5637">
        <ele>14</ele>
        <time>2022-04-02T12:53:06Z</time>
      </trkpt>
      <trkpt lat="47.44488" lon="-1.56354">
        <ele>13.6</ele>
        <time>2022-04-02T12:53:10Z</time>
      </trkpt>
      <trkpt lat="47.44459" lon="-1.56343">
        <ele>12.8</ele>
        <time>2022-04-02T12:53:16Z</time>
      </trkpt>
      <trkpt lat="47.4443" lon="-1.56334">
        <ele>12.2</ele>
        <time>2022-04-02T12:53:22Z</time>
      </trkpt>
      <trkpt lat="47.44421" lon="-1.56329">
        <ele>12</ele>
        <time>2022-04-02T12:53:24Z</time>
      </trkpt>
      <trkpt lat="47.4441" lon="-1.56316">
        <ele>11.4</ele>
        <time>2022-04-02T12:53:27Z</time>
      </trkpt>
      <trkpt lat="47.44407" lon="-1.56311">
        <ele>11.4</ele>
        <time>2022-04-02T12:53:28Z</time>
      </trkpt>
      <trkpt lat="47.44404" lon="-1.56304">
        <ele>11.2</ele>
        <time>2022-04-02T12:53:29Z</time>
      </trkpt>
      <trkpt lat="47.44401" lon="-1.56291">
        <ele>10.8</ele>
        <time>2022-04-02T12:53:31Z</time>
      </trkpt>
      <trkpt lat="47.444" lon="-1.56284">
        <ele>10.8</ele>
        <time>2022-04-02T12:53:32Z</time>
      </trkpt>
      <trkpt lat="47.44398" lon="-1.56269">
        <ele>10.6</ele>
        <time>2022-04-02T12:53:34Z</time>
      </trkpt>
      <trkpt lat="47.44398" lon="-1.56248">
        <ele>10.4</ele>
        <time>2022-04-02T12:53:37Z</time>
      </trkpt>
      <trkpt lat="47.44397" lon="-1.56192">
        <ele>9.6</ele>
        <time>2022-04-02T12:53:44Z</time>
      </trkpt>
      <trkpt lat="47.44396" lon="-1.56185">
        <ele>9.6</ele>
        <time>2022-04-02T12:53:45Z</time>
      </trkpt>
      <trkpt lat="47.4439" lon="-1.56162">
        <ele>9.4</ele>
        <time>2022-04-02T12:53:48Z</time>
      </trkpt>
      <trkpt lat="47.44387" lon="-1.56154">
        <ele>9.4</ele>
        <time>2022-04-02T12:53:49Z</time>
      </trkpt>
      <trkpt lat="47.44381" lon="-1.5614">
        <ele>9.4</ele>
        <time>2022-04-02T12:53:51Z</time>
      </trkpt>
      <trkpt lat="47.4437" lon="-1.56121">
        <ele>9.4</ele>
        <time>2022-04-02T12:53:54Z</time>
      </trkpt>
      <trkpt lat="47.44334" lon="-1.56085">
        <ele>9</ele>
        <time>2022-04-02T12:54:02Z</time>
      </trkpt>
      <trkpt lat="47.44294" lon="-1.56049">
        <ele>8.4</ele>
        <time>2022-04-02T12:54:11Z</time>
      </trkpt>
      <trkpt lat="47.44289" lon="-1.56044">
        <ele>8.4</ele>
        <time>2022-04-02T12:54:12Z</time>
      </trkpt>
      <trkpt lat="47.44268" lon="-1.56022">
        <ele>7.8</ele>
        <time>2022-04-02T12:54:17Z</time>
      </trkpt>
      <trkpt lat="47.44246" lon="-1.56001">
        <ele>7.4</ele>
        <time>2022-04-02T12:54:21Z</time>
      </trkpt>
      <trkpt lat="47.44209" lon="-1.55964">
        <ele>6.8</ele>
        <time>2022-04-02T12:54:28Z</time>
      </trkpt>
      <trkpt lat="47.44182" lon="-1.55931">
        <ele>6.4</ele>
        <time>2022-04-02T12:54:34Z</time>
      </trkpt>
      <trkpt lat="47.44159" lon="-1.55893">
        <ele>6.4</ele>
        <time>2022-04-02T12:54:40Z</time>
      </trkpt>
      <trkpt lat="47.44156" lon="-1.55886">
        <ele>6.4</ele>
        <time>2022-04-02T12:54:41Z</time>
      </trkpt>
      <trkpt lat="47.44141" lon="-1.55854">
        <ele>6.2</ele>
        <time>2022-04-02T12:54:46Z</time>
      </trkpt>
      <trkpt lat="47.44138" lon="-1.55849">
        <ele>6.2</ele>
        <time>2022-04-02T12:54:47Z</time>
      </trkpt>
      <trkpt lat="47.44133" lon="-1.55838">
        <ele>6</ele>
        <time>2022-04-02T12:54:49Z</time>
      </trkpt>
      <trkpt lat="47.44127" lon="-1.55825">
        <ele>5.8</ele>
        <time>2022-04-02T12:54:51Z</time>
      </trkpt>
      <trkpt lat="47.44114" lon="-1.55796">
        <ele>5.4</ele>
        <time>2022-04-02T12:54:55Z</time>
      </trkpt>
      <trkpt lat="47.44111" lon="-1.5579">
        <ele>5.2</ele>
        <time>2022-04-02T12:54:56Z</time>
      </trkpt>
      <trkpt lat="47.44109" lon="-1.55784">
        <ele>5.2</ele>
        <time>2022-04-02T12:54:57Z</time>
      </trkpt>
      <trkpt lat="47.441" lon="-1.55764">
        <ele>4.8</ele>
        <time>2022-04-02T12:55:00Z</time>
      </trkpt>
      <trkpt lat="47.44097" lon="-1.55757">
        <ele>4.6</ele>
        <time>2022-04-02T12:55:01Z</time>
      </trkpt>
      <trkpt lat="47.44091" lon="-1.55744">
        <ele>4.4</ele>
        <time>2022-04-02T12:55:03Z</time>
      </trkpt>
      <trkpt lat="47.44089" lon="-1.55739">
        <ele>4.2</ele>
        <time>2022-04-02T12:55:04Z</time>
      </trkpt>
      <trkpt lat="47.44085" lon="-1.55727">
        <ele>3.8</ele>
        <time>2022-04-02T12:55:06Z</time>
      </trkpt>
      <trkpt lat="47.44081" lon="-1.55705">
        <ele>3.4</ele>
        <time>2022-04-02T12:55:09Z</time>
      </trkpt>
      <trkpt lat="47.4408" lon="-1.55671">
        <ele>2.8</ele>
        <time>2022-04-02T12:55:13Z</time>
      </trkpt>
      <trkpt lat="47.44079" lon="-1.55648">
        <ele>2.4</ele>
        <time>2022-04-02T12:55:16Z</time>
      </trkpt>
      <trkpt lat="47.44076" lon="-1.55609">
        <ele>1</ele>
        <time>2022-04-02T12:55:21Z</time>
      </trkpt>
      <trkpt lat="47.44065" lon="-1.55568">
        <ele>-0.39999999999998</ele>
        <time>2022-04-02T12:55:26Z</time>
      </trkpt>
      <trkpt lat="47.44047" lon="-1.55531">
        <ele>-0.60000000000002</ele>
        <time>2022-04-02T12:55:31Z</time>
      </trkpt>
      <trkpt lat="47.44039" lon="-1.55518">
        <ele>-1</ele>
        <time>2022-04-02T12:55:33Z</time>
      </trkpt>
      <trkpt lat="47.4403" lon="-1.55508">
        <ele>-1.2</ele>
        <time>2022-04-02T12:55:35Z</time>
      </trkpt>
      <trkpt lat="47.44026" lon="-1.55503">
        <ele>-1.4</ele>
        <time>2022-04-02T12:55:36Z</time>
      </trkpt>
      <trkpt lat="47.44009" lon="-1.55481">
        <ele>-1.6</ele>
        <time>2022-04-02T12:55:40Z</time>
      </trkpt>
      <trkpt lat="47.44" lon="-1.5547">
        <ele>-1.6</ele>
        <time>2022-04-02T12:55:42Z</time>
      </trkpt>
      <trkpt lat="47.43988" lon="-1.55454">
        <ele>-2</ele>
        <time>2022-04-02T12:55:45Z</time>
      </trkpt>
      <trkpt lat="47.4398" lon="-1.55444">
        <ele>-2.2</ele>
        <time>2022-04-02T12:55:47Z</time>
      </trkpt>
      <trkpt lat="47.43976" lon="-1.55438">
        <ele>-2.4</ele>
        <time>2022-04-02T12:55:48Z</time>
      </trkpt>
      <trkpt lat="47.43957" lon="-1.55407">
        <ele>-2.8</ele>
        <time>2022-04-02T12:55:53Z</time>
      </trkpt>
      <trkpt lat="47.43941" lon="-1.55363">
        <ele>-3</ele>
        <time>2022-04-02T12:55:59Z</time>
      </trkpt>
      <trkpt lat="47.43937" lon="-1.55347">
        <ele>-3</ele>
        <time>2022-04-02T12:56:01Z</time>
      </trkpt>
      <trkpt lat="47.43934" lon="-1.55322">
        <ele>-3</ele>
        <time>2022-04-02T12:56:04Z</time>
      </trkpt>
      <trkpt lat="47.43933" lon="-1.55313">
        <ele>-3</ele>
        <time>2022-04-02T12:56:05Z</time>
      </trkpt>
      <trkpt lat="47.43934" lon="-1.55281">
        <ele>-2.8</ele>
        <time>2022-04-02T12:56:09Z</time>
      </trkpt>
      <trkpt lat="47.43935" lon="-1.55273">
        <ele>-2.8</ele>
        <time>2022-04-02T12:56:10Z</time>
      </trkpt>
      <trkpt lat="47.43938" lon="-1.5525">
        <ele>-3.4</ele>
        <time>2022-04-02T12:56:13Z</time>
      </trkpt>
      <trkpt lat="47.43947" lon="-1.55198">
        <ele>-2.8</ele>
        <time>2022-04-02T12:56:20Z</time>
      </trkpt>
      <trkpt lat="47.43954" lon="-1.5516">
        <ele>-2.8</ele>
        <time>2022-04-02T12:56:25Z</time>
      </trkpt>
      <trkpt lat="47.43966" lon="-1.55086">
        <ele>-2.6</ele>
        <time>2022-04-02T12:56:34Z</time>
      </trkpt>
      <trkpt lat="47.43971" lon="-1.55052">
        <ele>-2.2</ele>
        <time>2022-04-02T12:56:38Z</time>
      </trkpt>
      <trkpt lat="47.43974" lon="-1.55037">
        <ele>-2</ele>
        <time>2022-04-02T12:56:40Z</time>
      </trkpt>
      <trkpt lat="47.43982" lon="-1.54989">
        <ele>-1.6</ele>
        <time>2022-04-02T12:56:46Z</time>
      </trkpt>
      <trkpt lat="47.43993" lon="-1.54933">
        <ele>-0.80000000000001</ele>
        <time>2022-04-02T12:56:53Z</time>
      </trkpt>
      <trkpt lat="47.44002" lon="-1.54886">
        <ele>-0.60000000000002</ele>
        <time>2022-04-02T12:56:58Z</time>
      </trkpt>
      <trkpt lat="47.4401" lon="-1.54846">
        <ele>-0.60000000000002</ele>
        <time>2022-04-02T12:57:03Z</time>
      </trkpt>
      <trkpt lat="47.44017" lon="-1.54817">
        <ele>-0.39999999999998</ele>
        <time>2022-04-02T12:57:07Z</time>
      </trkpt>
      <trkpt lat="47.4402" lon="-1.54803">
        <ele>-0.39999999999998</ele>
        <time>2022-04-02T12:57:09Z</time>
      </trkpt>
      <trkpt lat="47.44029" lon="-1.54759">
        <ele>-0.39999999999998</ele>
        <time>2022-04-02T12:57:15Z</time>
      </trkpt>
      <trkpt lat="47.44038" lon="-1.54716">
        <ele>-0.19999999999999</ele>
        <time>2022-04-02T12:57:21Z</time>
      </trkpt>
      <trkpt lat="47.44046" lon="-1.5468">
        <ele>-0.80000000000001</ele>
        <time>2022-04-02T12:57:26Z</time>
      </trkpt>
      <trkpt lat="47.44053" lon="-1.54635">
        <ele>-0.19999999999999</ele>
        <time>2022-04-02T12:57:32Z</time>
      </trkpt>
      <trkpt lat="47.44059" lon="-1.54597">
        <ele>0.19999999999999</ele>
        <time>2022-04-02T12:57:37Z</time>
      </trkpt>
      <trkpt lat="47.44064" lon="-1.54558">
        <ele>0.39999999999998</ele>
        <time>2022-04-02T12:57:42Z</time>
      </trkpt>
      <trkpt lat="47.44065" lon="-1.5455">
        <ele>0.39999999999998</ele>
        <time>2022-04-02T12:57:43Z</time>
      </trkpt>
      <trkpt lat="47.44065" lon="-1.54516">
        <ele>0.39999999999998</ele>
        <time>2022-04-02T12:57:47Z</time>
      </trkpt>
      <trkpt lat="47.44065" lon="-1.54502">
        <ele>0.39999999999998</ele>
        <time>2022-04-02T12:57:49Z</time>
      </trkpt>
      <trkpt lat="47.44065" lon="-1.54486">
        <ele>0.39999999999998</ele>
        <time>2022-04-02T12:57:51Z</time>
      </trkpt>
      <trkpt lat="47.44062" lon="-1.54438">
        <ele>0.80000000000001</ele>
        <time>2022-04-02T12:57:57Z</time>
      </trkpt>
      <trkpt lat="47.44061" lon="-1.54431">
        <ele>0.60000000000002</ele>
        <time>2022-04-02T12:57:58Z</time>
      </trkpt>
      <trkpt lat="47.44057" lon="-1.54409">
        <ele>0.19999999999999</ele>
        <time>2022-04-02T12:58:01Z</time>
      </trkpt>
      <trkpt lat="47.44051" lon="-1.54374">
        <ele>0.19999999999999</ele>
        <time>2022-04-02T12:58:06Z</time>
      </trkpt>
      <trkpt lat="47.44047" lon="-1.54342">
        <ele>-0.19999999999999</ele>
        <time>2022-04-02T12:58:10Z</time>
      </trkpt>
      <trkpt lat="47.44045" lon="-1.54318">
        <ele>-0.19999999999999</ele>
        <time>2022-04-02T12:58:13Z</time>
      </trkpt>
      <trkpt lat="47.44039" lon="-1.54295">
        <ele>-0.19999999999999</ele>
        <time>2022-04-02T12:58:16Z</time>
      </trkpt>
      <trkpt lat="47.44027" lon="-1.54247">
        <ele>0.19999999999999</ele>
        <time>2022-04-02T12:58:22Z</time>
      </trkpt>
      <trkpt lat="47.44023" lon="-1.54233">
        <ele>0.19999999999999</ele>
        <time>2022-04-02T12:58:24Z</time>
      </trkpt>
      <trkpt lat="47.4402" lon="-1.54219">
        <ele>0.39999999999998</ele>
        <time>2022-04-02T12:58:26Z</time>
      </trkpt>
      <trkpt lat="47.44017" lon="-1.54206">
        <ele>0.60000000000002</ele>
        <time>2022-04-02T12:58:28Z</time>
      </trkpt>
      <trkpt lat="47.44013" lon="-1.54183">
        <ele>0.60000000000002</ele>
        <time>2022-04-02T12:58:31Z</time>
      </trkpt>
      <trkpt lat="47.44004" lon="-1.54141">
        <ele>0.80000000000001</ele>
        <time>2022-04-02T12:58:36Z</time>
      </trkpt>
      <trkpt lat="47.44" lon="-1.54123">
        <ele>0.80000000000001</ele>
        <time>2022-04-02T12:58:38Z</time>
      </trkpt>
      <trkpt lat="47.43998" lon="-1.54107">
        <ele>1</ele>
        <time>2022-04-02T12:58:40Z</time>
      </trkpt>
      <trkpt lat="47.43989" lon="-1.54065">
        <ele>1.2</ele>
        <time>2022-04-02T12:58:45Z</time>
      </trkpt>
      <trkpt lat="47.43987" lon="-1.54057">
        <ele>1.4</ele>
        <time>2022-04-02T12:58:46Z</time>
      </trkpt>
      <trkpt lat="47.43975" lon="-1.54006">
        <ele>1.8</ele>
        <time>2022-04-02T12:58:52Z</time>
      </trkpt>
      <trkpt lat="47.43956" lon="-1.53954">
        <ele>2.2</ele>
        <time>2022-04-02T12:58:59Z</time>
      </trkpt>
      <trkpt lat="47.43939" lon="-1.53922">
        <ele>2.6</ele>
        <time>2022-04-02T12:59:04Z</time>
      </trkpt>
      <trkpt lat="47.43926" lon="-1.53905">
        <ele>2.6</ele>
        <time>2022-04-02T12:59:07Z</time>
      </trkpt>
      <trkpt lat="47.43914" lon="-1.53888">
        <ele>2.6</ele>
        <time>2022-04-02T12:59:10Z</time>
      </trkpt>
      <trkpt lat="47.43881" lon="-1.53859">
        <ele>2.6</ele>
        <time>2022-04-02T12:59:17Z</time>
      </trkpt>
      <trkpt lat="47.43843" lon="-1.53844">
        <ele>3</ele>
        <time>2022-04-02T12:59:24Z</time>
      </trkpt>
      <trkpt lat="47.4379" lon="-1.53832">
        <ele>1.8</ele>
        <time>2022-04-02T12:59:34Z</time>
      </trkpt>
      <trkpt lat="47.43745" lon="-1.53822">
        <ele>1.6</ele>
        <time>2022-04-02T12:59:43Z</time>
      </trkpt>
      <trkpt lat="47.43732" lon="-1.53818">
        <ele>1.4</ele>
        <time>2022-04-02T12:59:47Z</time>
      </trkpt>
      <trkpt lat="47.43728" lon="-1.53817">
        <ele>1.6</ele>
        <time>2022-04-02T12:59:50Z</time>
      </trkpt>
      <trkpt lat="47.43725" lon="-1.53816">
        <ele>1.2</ele>
        <time>2022-04-02T12:59:58Z</time>
      </trkpt>
      <trkpt lat="47.43722" lon="-1.53816">
        <ele>1</ele>
        <time>2022-04-02T12:59:59Z</time>
      </trkpt>
      <trkpt lat="47.43714" lon="-1.53814">
        <ele>1.4</ele>
        <time>2022-04-02T13:00:01Z</time>
      </trkpt>
      <trkpt lat="47.43689" lon="-1.53808">
        <ele>0.80000000000001</ele>
        <time>2022-04-02T13:00:05Z</time>
      </trkpt>
      <trkpt lat="47.43642" lon="-1.53797">
        <ele>-0.19999999999999</ele>
        <time>2022-04-02T13:00:12Z</time>
      </trkpt>
      <trkpt lat="47.43632" lon="-1.53794">
        <ele>-0.60000000000002</ele>
        <time>2022-04-02T13:00:14Z</time>
      </trkpt>
      <trkpt lat="47.43615" lon="-1.53787">
        <ele>-1.2</ele>
        <time>2022-04-02T13:00:18Z</time>
      </trkpt>
      <trkpt lat="47.43596" lon="-1.53777">
        <ele>-2.2</ele>
        <time>2022-04-02T13:00:23Z</time>
      </trkpt>
      <trkpt lat="47.43576" lon="-1.53765">
        <ele>-3</ele>
        <time>2022-04-02T13:00:28Z</time>
      </trkpt>
      <trkpt lat="47.4355" lon="-1.53744">
        <ele>-3.8</ele>
        <time>2022-04-02T13:00:34Z</time>
      </trkpt>
      <trkpt lat="47.43524" lon="-1.53714">
        <ele>-5.4</ele>
        <time>2022-04-02T13:00:41Z</time>
      </trkpt>
      <trkpt lat="47.4352" lon="-1.5371">
        <ele>-5.6</ele>
        <time>2022-04-02T13:00:42Z</time>
      </trkpt>
      <trkpt lat="47.43514" lon="-1.53699">
        <ele>-6.2</ele>
        <time>2022-04-02T13:00:44Z</time>
      </trkpt>
      <trkpt lat="47.43511" lon="-1.53695">
        <ele>-6.4</ele>
        <time>2022-04-02T13:00:45Z</time>
      </trkpt>
      <trkpt lat="47.43491" lon="-1.53662">
        <ele>-7.6</ele>
        <time>2022-04-02T13:00:51Z</time>
      </trkpt>
      <trkpt lat="47.43475" lon="-1.53635">
        <ele>-8.4</ele>
        <time>2022-04-02T13:00:56Z</time>
      </trkpt>
      <trkpt lat="47.43454" lon="-1.53591">
        <ele>-8</ele>
        <time>2022-04-02T13:01:03Z</time>
      </trkpt>
      <trkpt lat="47.43444" lon="-1.53575">
        <ele>-7.4</ele>
        <time>2022-04-02T13:01:06Z</time>
      </trkpt>
      <trkpt lat="47.43439" lon="-1.53564">
        <ele>-9</ele>
        <time>2022-04-02T13:01:08Z</time>
      </trkpt>
      <trkpt lat="47.43418" lon="-1.53511">
        <ele>-6.6</ele>
        <time>2022-04-02T13:01:16Z</time>
      </trkpt>
      <trkpt lat="47.43402" lon="-1.53464">
        <ele>-6.4</ele>
        <time>2022-04-02T13:01:23Z</time>
      </trkpt>
      <trkpt lat="47.434" lon="-1.53456">
        <ele>-6.2</ele>
        <time>2022-04-02T13:01:24Z</time>
      </trkpt>
      <trkpt lat="47.43397" lon="-1.53433">
        <ele>-6.2</ele>
        <time>2022-04-02T13:01:27Z</time>
      </trkpt>
      <trkpt lat="47.43395" lon="-1.53419">
        <ele>-6.2</ele>
        <time>2022-04-02T13:01:29Z</time>
      </trkpt>
      <trkpt lat="47.43392" lon="-1.53398">
        <ele>-6.2</ele>
        <time>2022-04-02T13:01:32Z</time>
      </trkpt>
      <trkpt lat="47.43392" lon="-1.5338">
        <ele>-6.4</ele>
        <time>2022-04-02T13:01:35Z</time>
      </trkpt>
      <trkpt lat="47.43391" lon="-1.5334">
        <ele>-6.2</ele>
        <time>2022-04-02T13:01:40Z</time>
      </trkpt>
      <trkpt lat="47.43394" lon="-1.5328">
        <ele>-5.8</ele>
        <time>2022-04-02T13:01:47Z</time>
      </trkpt>
      <trkpt lat="47.43398" lon="-1.53242">
        <ele>-5.4</ele>
        <time>2022-04-02T13:01:52Z</time>
      </trkpt>
      <trkpt lat="47.43402" lon="-1.53202">
        <ele>-5.2</ele>
        <time>2022-04-02T13:01:57Z</time>
      </trkpt>
      <trkpt lat="47.43404" lon="-1.53179">
        <ele>-5.2</ele>
        <time>2022-04-02T13:02:00Z</time>
      </trkpt>
      <trkpt lat="47.43406" lon="-1.53165">
        <ele>-5</ele>
        <time>2022-04-02T13:02:02Z</time>
      </trkpt>
      <trkpt lat="47.43406" lon="-1.53159">
        <ele>-5</ele>
        <time>2022-04-02T13:02:03Z</time>
      </trkpt>
      <trkpt lat="47.43411" lon="-1.53132">
        <ele>-5.2</ele>
        <time>2022-04-02T13:02:07Z</time>
      </trkpt>
      <trkpt lat="47.43413" lon="-1.53119">
        <ele>-5.2</ele>
        <time>2022-04-02T13:02:09Z</time>
      </trkpt>
      <trkpt lat="47.43415" lon="-1.53101">
        <ele>-5.2</ele>
        <time>2022-04-02T13:02:11Z</time>
      </trkpt>
      <trkpt lat="47.43415" lon="-1.53093">
        <ele>-5.2</ele>
        <time>2022-04-02T13:02:12Z</time>
      </trkpt>
      <trkpt lat="47.43417" lon="-1.5305">
        <ele>-5.2</ele>
        <time>2022-04-02T13:02:17Z</time>
      </trkpt>
      <trkpt lat="47.43417" lon="-1.53012">
        <ele>-5</ele>
        <time>2022-04-02T13:02:22Z</time>
      </trkpt>
      <trkpt lat="47.43415" lon="-1.52975">
        <ele>-5</ele>
        <time>2022-04-02T13:02:27Z</time>
      </trkpt>
      <trkpt lat="47.43407" lon="-1.52936">
        <ele>-5.6</ele>
        <time>2022-04-02T13:02:32Z</time>
      </trkpt>
      <trkpt lat="47.43393" lon="-1.52897">
        <ele>-5.4</ele>
        <time>2022-04-02T13:02:37Z</time>
      </trkpt>
      <trkpt lat="47.4339" lon="-1.5289">
        <ele>-5.4</ele>
        <time>2022-04-02T13:02:38Z</time>
      </trkpt>
      <trkpt lat="47.43386" lon="-1.52884">
        <ele>-5.4</ele>
        <time>2022-04-02T13:02:39Z</time>
      </trkpt>
      <trkpt lat="47.43373" lon="-1.52868">
        <ele>-5.2</ele>
        <time>2022-04-02T13:02:42Z</time>
      </trkpt>
      <trkpt lat="47.43364" lon="-1.52859">
        <ele>-5.2</ele>
        <time>2022-04-02T13:02:44Z</time>
      </trkpt>
      <trkpt lat="47.43334" lon="-1.52838">
        <ele>-5.2</ele>
        <time>2022-04-02T13:02:50Z</time>
      </trkpt>
      <trkpt lat="47.43291" lon="-1.52826">
        <ele>-5.4</ele>
        <time>2022-04-02T13:02:58Z</time>
      </trkpt>
      <trkpt lat="47.43266" lon="-1.52822">
        <ele>-5.6</ele>
        <time>2022-04-02T13:03:03Z</time>
      </trkpt>
      <trkpt lat="47.43238" lon="-1.52818">
        <ele>-5.6</ele>
        <time>2022-04-02T13:03:08Z</time>
      </trkpt>
      <trkpt lat="47.43212" lon="-1.52818">
        <ele>-5.6</ele>
        <time>2022-04-02T13:03:13Z</time>
      </trkpt>
      <trkpt lat="47.43186" lon="-1.52823">
        <ele>-5.2</ele>
        <time>2022-04-02T13:03:18Z</time>
      </trkpt>
      <trkpt lat="47.43173" lon="-1.52825">
        <ele>-4.6</ele>
        <time>2022-04-02T13:03:22Z</time>
      </trkpt>
      <trkpt lat="47.43155" lon="-1.52833">
        <ele>-3</ele>
        <time>2022-04-02T13:03:29Z</time>
      </trkpt>
      <trkpt lat="47.4314" lon="-1.52846">
        <ele>-2.6</ele>
        <time>2022-04-02T13:03:33Z</time>
      </trkpt>
      <trkpt lat="47.43117" lon="-1.52872">
        <ele>-2.2</ele>
        <time>2022-04-02T13:03:37Z</time>
      </trkpt>
      <trkpt lat="47.43107" lon="-1.52887">
        <ele>-2.2</ele>
        <time>2022-04-02T13:03:39Z</time>
      </trkpt>
      <trkpt lat="47.43099" lon="-1.52904">
        <ele>-2.2</ele>
        <time>2022-04-02T13:03:41Z</time>
      </trkpt>
      <trkpt lat="47.43075" lon="-1.52956">
        <ele>-2</ele>
        <time>2022-04-02T13:03:47Z</time>
      </trkpt>
      <trkpt lat="47.43051" lon="-1.52994">
        <ele>-1.4</ele>
        <time>2022-04-02T13:03:52Z</time>
      </trkpt>
      <trkpt lat="47.4302" lon="-1.53026">
        <ele>-0.60000000000002</ele>
        <time>2022-04-02T13:03:58Z</time>
      </trkpt>
      <trkpt lat="47.43014" lon="-1.53029">
        <ele>-0.60000000000002</ele>
        <time>2022-04-02T13:03:59Z</time>
      </trkpt>
      <trkpt lat="47.42999" lon="-1.53038">
        <ele>-0.60000000000002</ele>
        <time>2022-04-02T13:04:02Z</time>
      </trkpt>
      <trkpt lat="47.42982" lon="-1.53045">
        <ele>0.60000000000002</ele>
        <time>2022-04-02T13:04:05Z</time>
      </trkpt>
      <trkpt lat="47.4297" lon="-1.53048">
        <ele>1</ele>
        <time>2022-04-02T13:04:07Z</time>
      </trkpt>
      <trkpt lat="47.42933" lon="-1.53052">
        <ele>2.4</ele>
        <time>2022-04-02T13:04:13Z</time>
      </trkpt>
      <trkpt lat="47.42922" lon="-1.53051">
        <ele>2.8</ele>
        <time>2022-04-02T13:04:15Z</time>
      </trkpt>
      <trkpt lat="47.42916" lon="-1.53051">
        <ele>3</ele>
        <time>2022-04-02T13:04:16Z</time>
      </trkpt>
      <trkpt lat="47.42878" lon="-1.53047">
        <ele>4</ele>
        <time>2022-04-02T13:04:22Z</time>
      </trkpt>
      <trkpt lat="47.42846" lon="-1.53046">
        <ele>4.6</ele>
        <time>2022-04-02T13:04:27Z</time>
      </trkpt>
      <trkpt lat="47.42816" lon="-1.53045">
        <ele>5.2</ele>
        <time>2022-04-02T13:04:32Z</time>
      </trkpt>
      <trkpt lat="47.42778" lon="-1.53049">
        <ele>5.6</ele>
        <time>2022-04-02T13:04:38Z</time>
      </trkpt>
      <trkpt lat="47.42745" lon="-1.53058">
        <ele>6.2</ele>
        <time>2022-04-02T13:04:43Z</time>
      </trkpt>
      <trkpt lat="47.42715" lon="-1.53072">
        <ele>6.6</ele>
        <time>2022-04-02T13:04:48Z</time>
      </trkpt>
      <trkpt lat="47.42686" lon="-1.53096">
        <ele>6.6</ele>
        <time>2022-04-02T13:04:53Z</time>
      </trkpt>
      <trkpt lat="47.4268" lon="-1.53101">
        <ele>6.8</ele>
        <time>2022-04-02T13:04:54Z</time>
      </trkpt>
      <trkpt lat="47.42649" lon="-1.53135">
        <ele>7.2</ele>
        <time>2022-04-02T13:05:00Z</time>
      </trkpt>
      <trkpt lat="47.42623" lon="-1.53174">
        <ele>7.8</ele>
        <time>2022-04-02T13:05:06Z</time>
      </trkpt>
      <trkpt lat="47.42595" lon="-1.53212">
        <ele>7.8</ele>
        <time>2022-04-02T13:05:12Z</time>
      </trkpt>
      <trkpt lat="47.42567" lon="-1.53247">
        <ele>8</ele>
        <time>2022-04-02T13:05:18Z</time>
      </trkpt>
      <trkpt lat="47.42557" lon="-1.53257">
        <ele>8.2</ele>
        <time>2022-04-02T13:05:20Z</time>
      </trkpt>
      <trkpt lat="47.42541" lon="-1.53269">
        <ele>8.4</ele>
        <time>2022-04-02T13:05:23Z</time>
      </trkpt>
      <trkpt lat="47.42536" lon="-1.53273">
        <ele>8.4</ele>
        <time>2022-04-02T13:05:24Z</time>
      </trkpt>
      <trkpt lat="47.42519" lon="-1.53279">
        <ele>8.4</ele>
        <time>2022-04-02T13:05:27Z</time>
      </trkpt>
      <trkpt lat="47.42482" lon="-1.53291">
        <ele>8.6</ele>
        <time>2022-04-02T13:05:33Z</time>
      </trkpt>
      <trkpt lat="47.42448" lon="-1.53301">
        <ele>8.8</ele>
        <time>2022-04-02T13:05:39Z</time>
      </trkpt>
      <trkpt lat="47.42406" lon="-1.53315">
        <ele>9.2</ele>
        <time>2022-04-02T13:05:46Z</time>
      </trkpt>
      <trkpt lat="47.42364" lon="-1.53328">
        <ele>9.6</ele>
        <time>2022-04-02T13:05:53Z</time>
      </trkpt>
      <trkpt lat="47.42336" lon="-1.53337">
        <ele>10</ele>
        <time>2022-04-02T13:05:58Z</time>
      </trkpt>
      <trkpt lat="47.42307" lon="-1.53348">
        <ele>10.4</ele>
        <time>2022-04-02T13:06:03Z</time>
      </trkpt>
      <trkpt lat="47.42301" lon="-1.53351">
        <ele>10.6</ele>
        <time>2022-04-02T13:06:04Z</time>
      </trkpt>
      <trkpt lat="47.4226" lon="-1.53375">
        <ele>11.2</ele>
        <time>2022-04-02T13:06:11Z</time>
      </trkpt>
      <trkpt lat="47.42226" lon="-1.53394">
        <ele>11.8</ele>
        <time>2022-04-02T13:06:17Z</time>
      </trkpt>
      <trkpt lat="47.42198" lon="-1.53412">
        <ele>12.6</ele>
        <time>2022-04-02T13:06:22Z</time>
      </trkpt>
      <trkpt lat="47.42174" lon="-1.53425">
        <ele>13.2</ele>
        <time>2022-04-02T13:06:26Z</time>
      </trkpt>
      <trkpt lat="47.42163" lon="-1.53432">
        <ele>13</ele>
        <time>2022-04-02T13:06:28Z</time>
      </trkpt>
      <trkpt lat="47.42157" lon="-1.53435">
        <ele>13</ele>
        <time>2022-04-02T13:06:29Z</time>
      </trkpt>
      <trkpt lat="47.42134" lon="-1.5345">
        <ele>13.4</ele>
        <time>2022-04-02T13:06:33Z</time>
      </trkpt>
      <trkpt lat="47.42096" lon="-1.53474">
        <ele>13.8</ele>
        <time>2022-04-02T13:06:40Z</time>
      </trkpt>
      <trkpt lat="47.42059" lon="-1.53497">
        <ele>13.2</ele>
        <time>2022-04-02T13:06:47Z</time>
      </trkpt>
      <trkpt lat="47.42038" lon="-1.53511">
        <ele>13.4</ele>
        <time>2022-04-02T13:06:51Z</time>
      </trkpt>
      <trkpt lat="47.42021" lon="-1.53519">
        <ele>13</ele>
        <time>2022-04-02T13:06:54Z</time>
      </trkpt>
      <trkpt lat="47.41972" lon="-1.53548">
        <ele>12.8</ele>
        <time>2022-04-02T13:07:03Z</time>
      </trkpt>
      <trkpt lat="47.41933" lon="-1.53571">
        <ele>12.4</ele>
        <time>2022-04-02T13:07:10Z</time>
      </trkpt>
      <trkpt lat="47.41927" lon="-1.53575">
        <ele>12.2</ele>
        <time>2022-04-02T13:07:11Z</time>
      </trkpt>
      <trkpt lat="47.41894" lon="-1.53595">
        <ele>11.4</ele>
        <time>2022-04-02T13:07:16Z</time>
      </trkpt>
      <trkpt lat="47.41862" lon="-1.53608">
        <ele>10.8</ele>
        <time>2022-04-02T13:07:21Z</time>
      </trkpt>
      <trkpt lat="47.41855" lon="-1.53608">
        <ele>10.8</ele>
        <time>2022-04-02T13:07:22Z</time>
      </trkpt>
      <trkpt lat="47.41836" lon="-1.53606">
        <ele>10.4</ele>
        <time>2022-04-02T13:07:25Z</time>
      </trkpt>
      <trkpt lat="47.41805" lon="-1.53592">
        <ele>10</ele>
        <time>2022-04-02T13:07:30Z</time>
      </trkpt>
      <trkpt lat="47.4177" lon="-1.5357">
        <ele>9.4</ele>
        <time>2022-04-02T13:07:36Z</time>
      </trkpt>
      <trkpt lat="47.41736" lon="-1.5355">
        <ele>8.8</ele>
        <time>2022-04-02T13:07:42Z</time>
      </trkpt>
      <trkpt lat="47.41695" lon="-1.53525">
        <ele>8</ele>
        <time>2022-04-02T13:07:49Z</time>
      </trkpt>
      <trkpt lat="47.41663" lon="-1.53505">
        <ele>7.4</ele>
        <time>2022-04-02T13:07:55Z</time>
      </trkpt>
      <trkpt lat="47.41637" lon="-1.53489">
        <ele>6.8</ele>
        <time>2022-04-02T13:08:00Z</time>
      </trkpt>
      <trkpt lat="47.41614" lon="-1.53476">
        <ele>6.4</ele>
        <time>2022-04-02T13:08:04Z</time>
      </trkpt>
      <trkpt lat="47.4158" lon="-1.5346">
        <ele>5.8</ele>
        <time>2022-04-02T13:08:10Z</time>
      </trkpt>
      <trkpt lat="47.41551" lon="-1.53451">
        <ele>5.2</ele>
        <time>2022-04-02T13:08:15Z</time>
      </trkpt>
      <trkpt lat="47.41518" lon="-1.53448">
        <ele>4.4</ele>
        <time>2022-04-02T13:08:21Z</time>
      </trkpt>
      <trkpt lat="47.41506" lon="-1.53447">
        <ele>4.2</ele>
        <time>2022-04-02T13:08:23Z</time>
      </trkpt>
      <trkpt lat="47.41488" lon="-1.53448">
        <ele>4</ele>
        <time>2022-04-02T13:08:26Z</time>
      </trkpt>
      <trkpt lat="47.41449" lon="-1.53457">
        <ele>3.6</ele>
        <time>2022-04-02T13:08:33Z</time>
      </trkpt>
      <trkpt lat="47.41438" lon="-1.5346">
        <ele>3.4</ele>
        <time>2022-04-02T13:08:35Z</time>
      </trkpt>
      <trkpt lat="47.41428" lon="-1.53464">
        <ele>3.4</ele>
        <time>2022-04-02T13:08:37Z</time>
      </trkpt>
      <trkpt lat="47.41401" lon="-1.53473">
        <ele>3.4</ele>
        <time>2022-04-02T13:08:42Z</time>
      </trkpt>
      <trkpt lat="47.4136" lon="-1.53485">
        <ele>3.4</ele>
        <time>2022-04-02T13:08:49Z</time>
      </trkpt>
      <trkpt lat="47.4132" lon="-1.53498">
        <ele>3.4</ele>
        <time>2022-04-02T13:08:56Z</time>
      </trkpt>
      <trkpt lat="47.41299" lon="-1.53504">
        <ele>4</ele>
        <time>2022-04-02T13:09:00Z</time>
      </trkpt>
      <trkpt lat="47.41294" lon="-1.53506">
        <ele>3.6</ele>
        <time>2022-04-02T13:09:01Z</time>
      </trkpt>
      <trkpt lat="47.41278" lon="-1.53509">
        <ele>4</ele>
        <time>2022-04-02T13:09:04Z</time>
      </trkpt>
      <trkpt lat="47.41245" lon="-1.5352">
        <ele>4.4</ele>
        <time>2022-04-02T13:09:10Z</time>
      </trkpt>
      <trkpt lat="47.41212" lon="-1.53532">
        <ele>5</ele>
        <time>2022-04-02T13:09:16Z</time>
      </trkpt>
      <trkpt lat="47.41206" lon="-1.53534">
        <ele>5</ele>
        <time>2022-04-02T13:09:17Z</time>
      </trkpt>
      <trkpt lat="47.41172" lon="-1.53544">
        <ele>5.8</ele>
        <time>2022-04-02T13:09:24Z</time>
      </trkpt>
      <trkpt lat="47.41147" lon="-1.53546">
        <ele>6.2</ele>
        <time>2022-04-02T13:09:30Z</time>
      </trkpt>
      <trkpt lat="47.41125" lon="-1.53543">
        <ele>6</ele>
        <time>2022-04-02T13:09:36Z</time>
      </trkpt>
      <trkpt lat="47.41121" lon="-1.53542">
        <ele>6</ele>
        <time>2022-04-02T13:09:37Z</time>
      </trkpt>
      <trkpt lat="47.41108" lon="-1.53535">
        <ele>5.8</ele>
        <time>2022-04-02T13:09:40Z</time>
      </trkpt>
      <trkpt lat="47.411" lon="-1.53529">
        <ele>6.8</ele>
        <time>2022-04-02T13:09:42Z</time>
      </trkpt>
      <trkpt lat="47.41082" lon="-1.53515">
        <ele>5.2</ele>
        <time>2022-04-02T13:09:46Z</time>
      </trkpt>
      <trkpt lat="47.41063" lon="-1.53498">
        <ele>4.6</ele>
        <time>2022-04-02T13:09:51Z</time>
      </trkpt>
      <trkpt lat="47.41046" lon="-1.5348">
        <ele>4.4</ele>
        <time>2022-04-02T13:09:56Z</time>
      </trkpt>
      <trkpt lat="47.4104" lon="-1.53472">
        <ele>4</ele>
        <time>2022-04-02T13:09:59Z</time>
      </trkpt>
      <trkpt lat="47.41038" lon="-1.53471">
        <ele>4</ele>
        <time>2022-04-02T13:10:00Z</time>
      </trkpt>
      <trkpt lat="47.41029" lon="-1.53481">
        <ele>4</ele>
        <time>2022-04-02T13:10:04Z</time>
      </trkpt>
      <trkpt lat="47.41025" lon="-1.53489">
        <ele>4.2</ele>
        <time>2022-04-02T13:10:09Z</time>
      </trkpt>
      <trkpt lat="47.41021" lon="-1.53499">
        <ele>4.2</ele>
        <time>2022-04-02T13:10:14Z</time>
      </trkpt>
      <trkpt lat="47.41017" lon="-1.53506">
        <ele>3.4</ele>
        <time>2022-04-02T13:10:17Z</time>
      </trkpt>
      <trkpt lat="47.41014" lon="-1.53509">
        <ele>4.2</ele>
        <time>2022-04-02T13:10:19Z</time>
      </trkpt>
      <trkpt lat="47.41013" lon="-1.53504">
        <ele>4.2</ele>
        <time>2022-04-02T13:10:21Z</time>
      </trkpt>
      <trkpt lat="47.41013" lon="-1.53501">
        <ele>4.4</ele>
        <time>2022-04-02T13:10:22Z</time>
      </trkpt>
      <trkpt lat="47.41021" lon="-1.53485">
        <ele>4.2</ele>
        <time>2022-04-02T13:10:27Z</time>
      </trkpt>
      <trkpt lat="47.41029" lon="-1.53463">
        <ele>3.6</ele>
        <time>2022-04-02T13:10:33Z</time>
      </trkpt>
      <trkpt lat="47.41021" lon="-1.53455">
        <ele>3.8</ele>
        <time>2022-04-02T13:10:35Z</time>
      </trkpt>
      <trkpt lat="47.40993" lon="-1.53426">
        <ele>3.6</ele>
        <time>2022-04-02T13:10:40Z</time>
      </trkpt>
      <trkpt lat="47.40972" lon="-1.53408">
        <ele>3.2</ele>
        <time>2022-04-02T13:10:44Z</time>
      </trkpt>
      <trkpt lat="47.40951" lon="-1.53396">
        <ele>2.8</ele>
        <time>2022-04-02T13:10:48Z</time>
      </trkpt>
      <trkpt lat="47.40945" lon="-1.53394">
        <ele>2.8</ele>
        <time>2022-04-02T13:10:49Z</time>
      </trkpt>
      <trkpt lat="47.40928" lon="-1.53385">
        <ele>2.4</ele>
        <time>2022-04-02T13:10:52Z</time>
      </trkpt>
      <trkpt lat="47.40922" lon="-1.53382">
        <ele>2.4</ele>
        <time>2022-04-02T13:10:53Z</time>
      </trkpt>
      <trkpt lat="47.40894" lon="-1.53369">
        <ele>1.8</ele>
        <time>2022-04-02T13:10:58Z</time>
      </trkpt>
      <trkpt lat="47.40867" lon="-1.5336">
        <ele>1.4</ele>
        <time>2022-04-02T13:11:03Z</time>
      </trkpt>
      <trkpt lat="47.40846" lon="-1.5335">
        <ele>1.4</ele>
        <time>2022-04-02T13:11:07Z</time>
      </trkpt>
      <trkpt lat="47.40836" lon="-1.53345">
        <ele>1</ele>
        <time>2022-04-02T13:11:09Z</time>
      </trkpt>
      <trkpt lat="47.40815" lon="-1.53337">
        <ele>0.60000000000002</ele>
        <time>2022-04-02T13:11:13Z</time>
      </trkpt>
      <trkpt lat="47.40802" lon="-1.53332">
        <ele>0.19999999999999</ele>
        <time>2022-04-02T13:11:16Z</time>
      </trkpt>
      <trkpt lat="47.40781" lon="-1.53323">
        <ele>-0.39999999999998</ele>
        <time>2022-04-02T13:11:20Z</time>
      </trkpt>
      <trkpt lat="47.4076" lon="-1.53316">
        <ele>-1</ele>
        <time>2022-04-02T13:11:24Z</time>
      </trkpt>
      <trkpt lat="47.40752" lon="-1.53312">
        <ele>-1.4</ele>
        <time>2022-04-02T13:11:26Z</time>
      </trkpt>
      <trkpt lat="47.4073" lon="-1.53304">
        <ele>-2.6</ele>
        <time>2022-04-02T13:11:31Z</time>
      </trkpt>
      <trkpt lat="47.40716" lon="-1.53298">
        <ele>-3</ele>
        <time>2022-04-02T13:11:34Z</time>
      </trkpt>
      <trkpt lat="47.40708" lon="-1.53295">
        <ele>-3.6</ele>
        <time>2022-04-02T13:11:36Z</time>
      </trkpt>
      <trkpt lat="47.40682" lon="-1.53283">
        <ele>-4.4</ele>
        <time>2022-04-02T13:11:41Z</time>
      </trkpt>
      <trkpt lat="47.40677" lon="-1.5328">
        <ele>-4.6</ele>
        <time>2022-04-02T13:11:42Z</time>
      </trkpt>
      <trkpt lat="47.40665" lon="-1.53266">
        <ele>-5</ele>
        <time>2022-04-02T13:11:45Z</time>
      </trkpt>
      <trkpt lat="47.40662" lon="-1.53261">
        <ele>-5.2</ele>
        <time>2022-04-02T13:11:46Z</time>
      </trkpt>
      <trkpt lat="47.40659" lon="-1.53255">
        <ele>-5.2</ele>
        <time>2022-04-02T13:11:47Z</time>
      </trkpt>
      <trkpt lat="47.40651" lon="-1.53229">
        <ele>-6.2</ele>
        <time>2022-04-02T13:11:51Z</time>
      </trkpt>
      <trkpt lat="47.40649" lon="-1.53216">
        <ele>-6.8</ele>
        <time>2022-04-02T13:11:53Z</time>
      </trkpt>
      <trkpt lat="47.40649" lon="-1.53195">
        <ele>-7.2</ele>
        <time>2022-04-02T13:11:56Z</time>
      </trkpt>
      <trkpt lat="47.40652" lon="-1.53146">
        <ele>-8.4</ele>
        <time>2022-04-02T13:12:02Z</time>
      </trkpt>
      <trkpt lat="47.4066" lon="-1.53091">
        <ele>-8.2</ele>
        <time>2022-04-02T13:12:09Z</time>
      </trkpt>
      <trkpt lat="47.40666" lon="-1.53061">
        <ele>-7.8</ele>
        <time>2022-04-02T13:12:14Z</time>
      </trkpt>
      <trkpt lat="47.4067" lon="-1.5304">
        <ele>-8</ele>
        <time>2022-04-02T13:12:18Z</time>
      </trkpt>
      <trkpt lat="47.40677" lon="-1.53008">
        <ele>-7.6</ele>
        <time>2022-04-02T13:12:23Z</time>
      </trkpt>
      <trkpt lat="47.40683" lon="-1.52977">
        <ele>-7.6</ele>
        <time>2022-04-02T13:12:28Z</time>
      </trkpt>
      <trkpt lat="47.4069" lon="-1.52949">
        <ele>-7.4</ele>
        <time>2022-04-02T13:12:33Z</time>
      </trkpt>
      <trkpt lat="47.40697" lon="-1.52907">
        <ele>-7</ele>
        <time>2022-04-02T13:12:39Z</time>
      </trkpt>
      <trkpt lat="47.40701" lon="-1.52875">
        <ele>-6.8</ele>
        <time>2022-04-02T13:12:43Z</time>
      </trkpt>
      <trkpt lat="47.40703" lon="-1.52815">
        <ele>-6.4</ele>
        <time>2022-04-02T13:12:50Z</time>
      </trkpt>
      <trkpt lat="47.40703" lon="-1.52786">
        <ele>-6.2</ele>
        <time>2022-04-02T13:12:54Z</time>
      </trkpt>
      <trkpt lat="47.40702" lon="-1.52753">
        <ele>-6</ele>
        <time>2022-04-02T13:12:58Z</time>
      </trkpt>
      <trkpt lat="47.40698" lon="-1.52707">
        <ele>-5.8</ele>
        <time>2022-04-02T13:13:04Z</time>
      </trkpt>
      <trkpt lat="47.40693" lon="-1.52671">
        <ele>-5.8</ele>
        <time>2022-04-02T13:13:08Z</time>
      </trkpt>
      <trkpt lat="47.40692" lon="-1.52663">
        <ele>-5.8</ele>
        <time>2022-04-02T13:13:09Z</time>
      </trkpt>
      <trkpt lat="47.40686" lon="-1.5264">
        <ele>-5.6</ele>
        <time>2022-04-02T13:13:12Z</time>
      </trkpt>
      <trkpt lat="47.40685" lon="-1.52632">
        <ele>-5.6</ele>
        <time>2022-04-02T13:13:13Z</time>
      </trkpt>
      <trkpt lat="47.40675" lon="-1.52591">
        <ele>-5.4</ele>
        <time>2022-04-02T13:13:19Z</time>
      </trkpt>
      <trkpt lat="47.40664" lon="-1.52553">
        <ele>-5.2</ele>
        <time>2022-04-02T13:13:25Z</time>
      </trkpt>
      <trkpt lat="47.40656" lon="-1.52533">
        <ele>-5.2</ele>
        <time>2022-04-02T13:13:28Z</time>
      </trkpt>
      <trkpt lat="47.40651" lon="-1.52521">
        <ele>-5.2</ele>
        <time>2022-04-02T13:13:30Z</time>
      </trkpt>
      <trkpt lat="47.40643" lon="-1.52501">
        <ele>-5.2</ele>
        <time>2022-04-02T13:13:33Z</time>
      </trkpt>
      <trkpt lat="47.40636" lon="-1.52488">
        <ele>-5.2</ele>
        <time>2022-04-02T13:13:35Z</time>
      </trkpt>
      <trkpt lat="47.40611" lon="-1.52447">
        <ele>-5.2</ele>
        <time>2022-04-02T13:13:42Z</time>
      </trkpt>
      <trkpt lat="47.40588" lon="-1.52414">
        <ele>-5.4</ele>
        <time>2022-04-02T13:13:48Z</time>
      </trkpt>
      <trkpt lat="47.40575" lon="-1.52397">
        <ele>-5.4</ele>
        <time>2022-04-02T13:13:51Z</time>
      </trkpt>
      <trkpt lat="47.40571" lon="-1.52391">
        <ele>-5.4</ele>
        <time>2022-04-02T13:13:52Z</time>
      </trkpt>
      <trkpt lat="47.40542" lon="-1.52349">
        <ele>-5.4</ele>
        <time>2022-04-02T13:13:59Z</time>
      </trkpt>
      <trkpt lat="47.40517" lon="-1.52314">
        <ele>-5.4</ele>
        <time>2022-04-02T13:14:05Z</time>
      </trkpt>
      <trkpt lat="47.40513" lon="-1.52308">
        <ele>-5.6</ele>
        <time>2022-04-02T13:14:06Z</time>
      </trkpt>
      <trkpt lat="47.40485" lon="-1.5227">
        <ele>-6</ele>
        <time>2022-04-02T13:14:13Z</time>
      </trkpt>
      <trkpt lat="47.40462" lon="-1.52236">
        <ele>-6.4</ele>
        <time>2022-04-02T13:14:19Z</time>
      </trkpt>
      <trkpt lat="47.40433" lon="-1.52196">
        <ele>-6.8</ele>
        <time>2022-04-02T13:14:26Z</time>
      </trkpt>
      <trkpt lat="47.40424" lon="-1.52187">
        <ele>-6.8</ele>
        <time>2022-04-02T13:14:28Z</time>
      </trkpt>
      <trkpt lat="47.40415" lon="-1.52177">
        <ele>-7</ele>
        <time>2022-04-02T13:14:30Z</time>
      </trkpt>
      <trkpt lat="47.40411" lon="-1.52171">
        <ele>-7.2</ele>
        <time>2022-04-02T13:14:31Z</time>
      </trkpt>
      <trkpt lat="47.40396" lon="-1.52145">
        <ele>-7.4</ele>
        <time>2022-04-02T13:14:35Z</time>
      </trkpt>
      <trkpt lat="47.40388" lon="-1.52132">
        <ele>-7.4</ele>
        <time>2022-04-02T13:14:37Z</time>
      </trkpt>
      <trkpt lat="47.40358" lon="-1.52089">
        <ele>-7.8</ele>
        <time>2022-04-02T13:14:44Z</time>
      </trkpt>
      <trkpt lat="47.40337" lon="-1.52061">
        <ele>-8.2</ele>
        <time>2022-04-02T13:14:49Z</time>
      </trkpt>
      <trkpt lat="47.40332" lon="-1.52055">
        <ele>-8.4</ele>
        <time>2022-04-02T13:14:50Z</time>
      </trkpt>
      <trkpt lat="47.40315" lon="-1.52032">
        <ele>-8.6</ele>
        <time>2022-04-02T13:14:54Z</time>
      </trkpt>
      <trkpt lat="47.40281" lon="-1.51981">
        <ele>-8.8</ele>
        <time>2022-04-02T13:15:02Z</time>
      </trkpt>
      <trkpt lat="47.40253" lon="-1.5194">
        <ele>-8.6</ele>
        <time>2022-04-02T13:15:09Z</time>
      </trkpt>
      <trkpt lat="47.40241" lon="-1.51923">
        <ele>-9</ele>
        <time>2022-04-02T13:15:13Z</time>
      </trkpt>
      <trkpt lat="47.40226" lon="-1.519">
        <ele>-8.4</ele>
        <time>2022-04-02T13:15:19Z</time>
      </trkpt>
      <trkpt lat="47.40223" lon="-1.51899">
        <ele>-8.4</ele>
        <time>2022-04-02T13:15:20Z</time>
      </trkpt>
      <trkpt lat="47.40217" lon="-1.51902">
        <ele>-8.2</ele>
        <time>2022-04-02T13:15:22Z</time>
      </trkpt>
      <trkpt lat="47.40207" lon="-1.51917">
        <ele>-7.8</ele>
        <time>2022-04-02T13:15:27Z</time>
      </trkpt>
      <trkpt lat="47.40213" lon="-1.51925">
        <ele>-7.4</ele>
        <time>2022-04-02T13:15:30Z</time>
      </trkpt>
      <trkpt lat="47.40229" lon="-1.51947">
        <ele>-7.4</ele>
        <time>2022-04-02T13:15:34Z</time>
      </trkpt>
      <trkpt lat="47.40252" lon="-1.51979">
        <ele>-7</ele>
        <time>2022-04-02T13:15:39Z</time>
      </trkpt>
      <trkpt lat="47.40277" lon="-1.52015">
        <ele>-6.8</ele>
        <time>2022-04-02T13:15:45Z</time>
      </trkpt>
      <trkpt lat="47.40303" lon="-1.52054">
        <ele>-6.4</ele>
        <time>2022-04-02T13:15:52Z</time>
      </trkpt>
      <trkpt lat="47.40315" lon="-1.5207">
        <ele>-6.2</ele>
        <time>2022-04-02T13:15:55Z</time>
      </trkpt>
      <trkpt lat="47.40325" lon="-1.52085">
        <ele>-6.2</ele>
        <time>2022-04-02T13:15:58Z</time>
      </trkpt>
      <trkpt lat="47.40328" lon="-1.5209">
        <ele>-6.2</ele>
        <time>2022-04-02T13:15:59Z</time>
      </trkpt>
      <trkpt lat="47.40341" lon="-1.52109">
        <ele>-6</ele>
        <time>2022-04-02T13:16:03Z</time>
      </trkpt>
      <trkpt lat="47.40359" lon="-1.52134">
        <ele>-6</ele>
        <time>2022-04-02T13:16:08Z</time>
      </trkpt>
      <trkpt lat="47.40378" lon="-1.5216">
        <ele>-6</ele>
        <time>2022-04-02T13:16:13Z</time>
      </trkpt>
      <trkpt lat="47.40382" lon="-1.52164">
        <ele>-6</ele>
        <time>2022-04-02T13:16:14Z</time>
      </trkpt>
      <trkpt lat="47.40394" lon="-1.52177">
        <ele>-6</ele>
        <time>2022-04-02T13:16:17Z</time>
      </trkpt>
      <trkpt lat="47.404" lon="-1.52187">
        <ele>-6</ele>
        <time>2022-04-02T13:16:19Z</time>
      </trkpt>
      <trkpt lat="47.4042" lon="-1.52219">
        <ele>-6</ele>
        <time>2022-04-02T13:16:25Z</time>
      </trkpt>
      <trkpt lat="47.40449" lon="-1.5226">
        <ele>-5.8</ele>
        <time>2022-04-02T13:16:33Z</time>
      </trkpt>
      <trkpt lat="47.40474" lon="-1.52296">
        <ele>-6</ele>
        <time>2022-04-02T13:16:40Z</time>
      </trkpt>
      <trkpt lat="47.40503" lon="-1.52337">
        <ele>-6.6</ele>
        <time>2022-04-02T13:16:48Z</time>
      </trkpt>
      <trkpt lat="47.40524" lon="-1.52367">
        <ele>-7</ele>
        <time>2022-04-02T13:16:54Z</time>
      </trkpt>
      <trkpt lat="47.40527" lon="-1.52372">
        <ele>-7</ele>
        <time>2022-04-02T13:16:55Z</time>
      </trkpt>
      <trkpt lat="47.40549" lon="-1.52402">
        <ele>-7.2</ele>
        <time>2022-04-02T13:17:01Z</time>
      </trkpt>
      <trkpt lat="47.40574" lon="-1.52439">
        <ele>-7.6</ele>
        <time>2022-04-02T13:17:08Z</time>
      </trkpt>
      <trkpt lat="47.40603" lon="-1.52481">
        <ele>-8</ele>
        <time>2022-04-02T13:17:16Z</time>
      </trkpt>
      <trkpt lat="47.40625" lon="-1.52519">
        <ele>-8.6</ele>
        <time>2022-04-02T13:17:23Z</time>
      </trkpt>
      <trkpt lat="47.40638" lon="-1.52547">
        <ele>-9</ele>
        <time>2022-04-02T13:17:28Z</time>
      </trkpt>
      <trkpt lat="47.40649" lon="-1.52577">
        <ele>-9.4</ele>
        <time>2022-04-02T13:17:33Z</time>
      </trkpt>
      <trkpt lat="47.4066" lon="-1.526">
        <ele>-9.8</ele>
        <time>2022-04-02T13:17:38Z</time>
      </trkpt>
      <trkpt lat="47.40664" lon="-1.52612">
        <ele>-10</ele>
        <time>2022-04-02T13:17:40Z</time>
      </trkpt>
      <trkpt lat="47.4067" lon="-1.5263">
        <ele>-10</ele>
        <time>2022-04-02T13:17:43Z</time>
      </trkpt>
      <trkpt lat="47.40674" lon="-1.52643">
        <ele>-10.2</ele>
        <time>2022-04-02T13:17:45Z</time>
      </trkpt>
      <trkpt lat="47.40677" lon="-1.52656">
        <ele>-10.2</ele>
        <time>2022-04-02T13:17:47Z</time>
      </trkpt>
      <trkpt lat="47.40683" lon="-1.52685">
        <ele>-10.6</ele>
        <time>2022-04-02T13:17:52Z</time>
      </trkpt>
      <trkpt lat="47.40683" lon="-1.52695">
        <ele>-10.6</ele>
        <time>2022-04-02T13:17:53Z</time>
      </trkpt>
      <trkpt lat="47.40685" lon="-1.52722">
        <ele>-10.6</ele>
        <time>2022-04-02T13:17:56Z</time>
      </trkpt>
      <trkpt lat="47.40687" lon="-1.52738">
        <ele>-10.6</ele>
        <time>2022-04-02T13:17:58Z</time>
      </trkpt>
      <trkpt lat="47.40687" lon="-1.52754">
        <ele>-10.6</ele>
        <time>2022-04-02T13:18:00Z</time>
      </trkpt>
      <trkpt lat="47.40687" lon="-1.52767">
        <ele>-10.4</ele>
        <time>2022-04-02T13:18:02Z</time>
      </trkpt>
      <trkpt lat="47.40686" lon="-1.52801">
        <ele>-10.6</ele>
        <time>2022-04-02T13:18:06Z</time>
      </trkpt>
      <trkpt lat="47.40686" lon="-1.52809">
        <ele>-10.2</ele>
        <time>2022-04-02T13:18:07Z</time>
      </trkpt>
      <trkpt lat="47.40683" lon="-1.52848">
        <ele>-10</ele>
        <time>2022-04-02T13:18:12Z</time>
      </trkpt>
      <trkpt lat="47.40676" lon="-1.52897">
        <ele>-9.8</ele>
        <time>2022-04-02T13:18:18Z</time>
      </trkpt>
      <trkpt lat="47.40665" lon="-1.52952">
        <ele>-9</ele>
        <time>2022-04-02T13:18:25Z</time>
      </trkpt>
      <trkpt lat="47.40656" lon="-1.52996">
        <ele>-8.4</ele>
        <time>2022-04-02T13:18:31Z</time>
      </trkpt>
      <trkpt lat="47.40648" lon="-1.53034">
        <ele>-8</ele>
        <time>2022-04-02T13:18:37Z</time>
      </trkpt>
      <trkpt lat="47.40643" lon="-1.53054">
        <ele>-7.4</ele>
        <time>2022-04-02T13:18:41Z</time>
      </trkpt>
      <trkpt lat="47.4064" lon="-1.53063">
        <ele>-7.2</ele>
        <time>2022-04-02T13:18:43Z</time>
      </trkpt>
      <trkpt lat="47.40637" lon="-1.53064">
        <ele>-7.2</ele>
        <time>2022-04-02T13:18:44Z</time>
      </trkpt>
      <trkpt lat="47.40622" lon="-1.53059">
        <ele>-7.6</ele>
        <time>2022-04-02T13:18:48Z</time>
      </trkpt>
      <trkpt lat="47.4061" lon="-1.53059">
        <ele>-7.8</ele>
        <time>2022-04-02T13:18:51Z</time>
      </trkpt>
      <trkpt lat="47.40606" lon="-1.5306">
        <ele>-7.8</ele>
        <time>2022-04-02T13:18:52Z</time>
      </trkpt>
      <trkpt lat="47.40602" lon="-1.53062">
        <ele>-7.8</ele>
        <time>2022-04-02T13:18:53Z</time>
      </trkpt>
      <trkpt lat="47.40583" lon="-1.53072">
        <ele>-8.2</ele>
        <time>2022-04-02T13:18:57Z</time>
      </trkpt>
      <trkpt lat="47.40559" lon="-1.53085">
        <ele>-8.4</ele>
        <time>2022-04-02T13:19:03Z</time>
      </trkpt>
      <trkpt lat="47.4054" lon="-1.53098">
        <ele>-8.2</ele>
        <time>2022-04-02T13:19:08Z</time>
      </trkpt>
      <trkpt lat="47.40513" lon="-1.53114">
        <ele>-8.6</ele>
        <time>2022-04-02T13:19:14Z</time>
      </trkpt>
      <trkpt lat="47.40508" lon="-1.53117">
        <ele>-8.4</ele>
        <time>2022-04-02T13:19:15Z</time>
      </trkpt>
      <trkpt lat="47.40494" lon="-1.53125">
        <ele>-8</ele>
        <time>2022-04-02T13:19:18Z</time>
      </trkpt>
      <trkpt lat="47.4047" lon="-1.53139">
        <ele>-7.6</ele>
        <time>2022-04-02T13:19:23Z</time>
      </trkpt>
      <trkpt lat="47.4044" lon="-1.53158">
        <ele>-8</ele>
        <time>2022-04-02T13:19:29Z</time>
      </trkpt>
      <trkpt lat="47.40432" lon="-1.53167">
        <ele>-7.8</ele>
        <time>2022-04-02T13:19:31Z</time>
      </trkpt>
      <trkpt lat="47.40425" lon="-1.53178">
        <ele>-8</ele>
        <time>2022-04-02T13:19:33Z</time>
      </trkpt>
      <trkpt lat="47.40407" lon="-1.53215">
        <ele>-7.6</ele>
        <time>2022-04-02T13:19:39Z</time>
      </trkpt>
      <trkpt lat="47.40399" lon="-1.53235">
        <ele>-7.4</ele>
        <time>2022-04-02T13:19:43Z</time>
      </trkpt>
      <trkpt lat="47.40387" lon="-1.53254">
        <ele>-7.2</ele>
        <time>2022-04-02T13:19:47Z</time>
      </trkpt>
      <trkpt lat="47.40382" lon="-1.53266">
        <ele>-7</ele>
        <time>2022-04-02T13:19:49Z</time>
      </trkpt>
      <trkpt lat="47.40376" lon="-1.53278">
        <ele>-6.8</ele>
        <time>2022-04-02T13:19:51Z</time>
      </trkpt>
      <trkpt lat="47.40364" lon="-1.53296">
        <ele>-6.4</ele>
        <time>2022-04-02T13:19:55Z</time>
      </trkpt>
      <trkpt lat="47.4036" lon="-1.533">
        <ele>-6.4</ele>
        <time>2022-04-02T13:19:56Z</time>
      </trkpt>
      <trkpt lat="47.40343" lon="-1.53328">
        <ele>-5.8</ele>
        <time>2022-04-02T13:20:01Z</time>
      </trkpt>
      <trkpt lat="47.40327" lon="-1.53355">
        <ele>-5</ele>
        <time>2022-04-02T13:20:06Z</time>
      </trkpt>
      <trkpt lat="47.40323" lon="-1.53361">
        <ele>-4.8</ele>
        <time>2022-04-02T13:20:07Z</time>
      </trkpt>
      <trkpt lat="47.40312" lon="-1.53378">
        <ele>-4.2</ele>
        <time>2022-04-02T13:20:10Z</time>
      </trkpt>
      <trkpt lat="47.40305" lon="-1.53389">
        <ele>-4</ele>
        <time>2022-04-02T13:20:12Z</time>
      </trkpt>
      <trkpt lat="47.40302" lon="-1.53395">
        <ele>-3.8</ele>
        <time>2022-04-02T13:20:13Z</time>
      </trkpt>
      <trkpt lat="47.40291" lon="-1.53413">
        <ele>-3.2</ele>
        <time>2022-04-02T13:20:16Z</time>
      </trkpt>
      <trkpt lat="47.40277" lon="-1.53434">
        <ele>-2.6</ele>
        <time>2022-04-02T13:20:20Z</time>
      </trkpt>
      <trkpt lat="47.4026" lon="-1.53465">
        <ele>-2</ele>
        <time>2022-04-02T13:20:25Z</time>
      </trkpt>
      <trkpt lat="47.40251" lon="-1.53485">
        <ele>-1.8</ele>
        <time>2022-04-02T13:20:28Z</time>
      </trkpt>
      <trkpt lat="47.40248" lon="-1.53498">
        <ele>-1.6</ele>
        <time>2022-04-02T13:20:30Z</time>
      </trkpt>
      <trkpt lat="47.40247" lon="-1.53504">
        <ele>-1.4</ele>
        <time>2022-04-02T13:20:31Z</time>
      </trkpt>
      <trkpt lat="47.40243" lon="-1.53529">
        <ele>-0.80000000000001</ele>
        <time>2022-04-02T13:20:35Z</time>
      </trkpt>
      <trkpt lat="47.40242" lon="-1.53536">
        <ele>-0.80000000000001</ele>
        <time>2022-04-02T13:20:36Z</time>
      </trkpt>
      <trkpt lat="47.4024" lon="-1.5355">
        <ele>-0.39999999999998</ele>
        <time>2022-04-02T13:20:38Z</time>
      </trkpt>
      <trkpt lat="47.40237" lon="-1.53577">
        <ele>0.39999999999998</ele>
        <time>2022-04-02T13:20:42Z</time>
      </trkpt>
      <trkpt lat="47.40234" lon="-1.53598">
        <ele>1</ele>
        <time>2022-04-02T13:20:45Z</time>
      </trkpt>
      <trkpt lat="47.40232" lon="-1.53611">
        <ele>1.2</ele>
        <time>2022-04-02T13:20:47Z</time>
      </trkpt>
      <trkpt lat="47.40229" lon="-1.53634">
        <ele>1.6</ele>
        <time>2022-04-02T13:20:51Z</time>
      </trkpt>
      <trkpt lat="47.40227" lon="-1.53637">
        <ele>1.8</ele>
        <time>2022-04-02T13:20:52Z</time>
      </trkpt>
      <trkpt lat="47.40221" lon="-1.5364">
        <ele>2</ele>
        <time>2022-04-02T13:20:54Z</time>
      </trkpt>
      <trkpt lat="47.4021" lon="-1.53644">
        <ele>2.4</ele>
        <time>2022-04-02T13:20:57Z</time>
      </trkpt>
      <trkpt lat="47.40208" lon="-1.53647">
        <ele>2.4</ele>
        <time>2022-04-02T13:20:58Z</time>
      </trkpt>
      <trkpt lat="47.40207" lon="-1.5365">
        <ele>2.6</ele>
        <time>2022-04-02T13:20:59Z</time>
      </trkpt>
      <trkpt lat="47.40206" lon="-1.53655">
        <ele>2.8</ele>
        <time>2022-04-02T13:21:01Z</time>
      </trkpt>
      <trkpt lat="47.40205" lon="-1.53658">
        <ele>2.8</ele>
        <time>2022-04-02T13:21:02Z</time>
      </trkpt>
      <trkpt lat="47.40204" lon="-1.53659">
        <ele>2.8</ele>
        <time>2022-04-02T13:21:03Z</time>
      </trkpt>
      <trkpt lat="47.40198" lon="-1.53658">
        <ele>2.6</ele>
        <time>2022-04-02T13:21:06Z</time>
      </trkpt>
      <trkpt lat="47.40197" lon="-1.53656">
        <ele>2.6</ele>
        <time>2022-04-02T13:21:08Z</time>
      </trkpt>
      <trkpt lat="47.40198" lon="-1.53652">
        <ele>2.8</ele>
        <time>2022-04-02T13:21:11Z</time>
      </trkpt>
      <trkpt lat="47.40199" lon="-1.53651">
        <ele>2.8</ele>
        <time>2022-04-02T13:21:12Z</time>
      </trkpt>
      <trkpt lat="47.40199" lon="-1.53651">
        <ele>3</ele>
        <time>2022-04-02T13:21:13Z</time>
      </trkpt>
      <trkpt lat="47.40199" lon="-1.53649">
        <ele>3.2</ele>
        <time>2022-04-02T13:21:16Z</time>
      </trkpt>
      <trkpt lat="47.40199" lon="-1.53641">
        <ele>3.2</ele>
        <time>2022-04-02T13:21:18Z</time>
      </trkpt>
      <trkpt lat="47.40198" lon="-1.5362">
        <ele>3.6</ele>
        <time>2022-04-02T13:21:23Z</time>
      </trkpt>
      <trkpt lat="47.40198" lon="-1.536">
        <ele>3.4</ele>
        <time>2022-04-02T13:21:29Z</time>
      </trkpt>
      <trkpt lat="47.40197" lon="-1.53591">
        <ele>3.6</ele>
        <time>2022-04-02T13:21:33Z</time>
      </trkpt>
      <trkpt lat="47.40196" lon="-1.5359">
        <ele>3.6</ele>
        <time>2022-04-02T13:21:35Z</time>
      </trkpt>
      <trkpt lat="47.40196" lon="-1.53589">
        <ele>3.6</ele>
        <time>2022-04-02T13:21:36Z</time>
      </trkpt>
      <trkpt lat="47.40195" lon="-1.53588">
        <ele>3.6</ele>
        <time>2022-04-02T13:21:39Z</time>
      </trkpt>
      <trkpt lat="47.40196" lon="-1.53602">
        <ele>4.4</ele>
        <time>2022-04-02T13:25:08Z</time>
      </trkpt>
      <trkpt lat="47.40197" lon="-1.53606">
        <ele>4.2</ele>
        <time>2022-04-02T13:25:10Z</time>
      </trkpt>
      <trkpt lat="47.40199" lon="-1.53613">
        <ele>4.2</ele>
        <time>2022-04-02T13:25:12Z</time>
      </trkpt>
      <trkpt lat="47.40201" lon="-1.53637">
        <ele>3.8</ele>
        <time>2022-04-02T13:25:18Z</time>
      </trkpt>
      <trkpt lat="47.40201" lon="-1.53657">
        <ele>3.6</ele>
        <time>2022-04-02T13:25:23Z</time>
      </trkpt>
      <trkpt lat="47.40191" lon="-1.53661">
        <ele>3.2</ele>
        <time>2022-04-02T13:25:26Z</time>
      </trkpt>
      <trkpt lat="47.40175" lon="-1.53661">
        <ele>3</ele>
        <time>2022-04-02T13:25:32Z</time>
      </trkpt>
      <trkpt lat="47.40153" lon="-1.53662">
        <ele>3</ele>
        <time>2022-04-02T13:25:40Z</time>
      </trkpt>
      <trkpt lat="47.40131" lon="-1.53661">
        <ele>3.6</ele>
        <time>2022-04-02T13:25:48Z</time>
      </trkpt>
      <trkpt lat="47.40119" lon="-1.53668">
        <ele>3.6</ele>
        <time>2022-04-02T13:25:53Z</time>
      </trkpt>
      <trkpt lat="47.40107" lon="-1.53693">
        <ele>2.8</ele>
        <time>2022-04-02T13:26:00Z</time>
      </trkpt>
      <trkpt lat="47.40105" lon="-1.53696">
        <ele>2.8</ele>
        <time>2022-04-02T13:26:01Z</time>
      </trkpt>
      <trkpt lat="47.40096" lon="-1.53699">
        <ele>2.6</ele>
        <time>2022-04-02T13:26:04Z</time>
      </trkpt>
      <trkpt lat="47.40077" lon="-1.53696">
        <ele>3</ele>
        <time>2022-04-02T13:26:11Z</time>
      </trkpt>
      <trkpt lat="47.40053" lon="-1.53694">
        <ele>3</ele>
        <time>2022-04-02T13:26:18Z</time>
      </trkpt>
      <trkpt lat="47.40027" lon="-1.5369">
        <ele>3.4</ele>
        <time>2022-04-02T13:26:24Z</time>
      </trkpt>
      <trkpt lat="47.40018" lon="-1.53689">
        <ele>3.4</ele>
        <time>2022-04-02T13:26:26Z</time>
      </trkpt>
      <trkpt lat="47.40004" lon="-1.53688">
        <ele>3.4</ele>
        <time>2022-04-02T13:26:29Z</time>
      </trkpt>
      <trkpt lat="47.39986" lon="-1.53683">
        <ele>3.2</ele>
        <time>2022-04-02T13:26:33Z</time>
      </trkpt>
      <trkpt lat="47.3998" lon="-1.5368">
        <ele>3.2</ele>
        <time>2022-04-02T13:26:35Z</time>
      </trkpt>
      <trkpt lat="47.39978" lon="-1.53676">
        <ele>3.4</ele>
        <time>2022-04-02T13:26:36Z</time>
      </trkpt>
      <trkpt lat="47.39976" lon="-1.5367">
        <ele>3.4</ele>
        <time>2022-04-02T13:26:37Z</time>
      </trkpt>
      <trkpt lat="47.39968" lon="-1.5365">
        <ele>2.8</ele>
        <time>2022-04-02T13:26:40Z</time>
      </trkpt>
      <trkpt lat="47.39943" lon="-1.53599">
        <ele>2.8</ele>
        <time>2022-04-02T13:26:47Z</time>
      </trkpt>
      <trkpt lat="47.3992" lon="-1.53553">
        <ele>2.6</ele>
        <time>2022-04-02T13:26:53Z</time>
      </trkpt>
      <trkpt lat="47.39897" lon="-1.53505">
        <ele>2.6</ele>
        <time>2022-04-02T13:26:59Z</time>
      </trkpt>
      <trkpt lat="47.39871" lon="-1.53455">
        <ele>2.6</ele>
        <time>2022-04-02T13:27:05Z</time>
      </trkpt>
      <trkpt lat="47.39849" lon="-1.53412">
        <ele>2.4</ele>
        <time>2022-04-02T13:27:10Z</time>
      </trkpt>
      <trkpt lat="47.39828" lon="-1.53369">
        <ele>2.2</ele>
        <time>2022-04-02T13:27:15Z</time>
      </trkpt>
      <trkpt lat="47.39804" lon="-1.53321">
        <ele>2</ele>
        <time>2022-04-02T13:27:21Z</time>
      </trkpt>
      <trkpt lat="47.39781" lon="-1.53276">
        <ele>1.4</ele>
        <time>2022-04-02T13:27:27Z</time>
      </trkpt>
      <trkpt lat="47.39778" lon="-1.53269">
        <ele>1.4</ele>
        <time>2022-04-02T13:27:28Z</time>
      </trkpt>
      <trkpt lat="47.39766" lon="-1.53244">
        <ele>1.2</ele>
        <time>2022-04-02T13:27:31Z</time>
      </trkpt>
      <trkpt lat="47.39742" lon="-1.53197">
        <ele>0.60000000000002</ele>
        <time>2022-04-02T13:27:37Z</time>
      </trkpt>
      <trkpt lat="47.3972" lon="-1.53153">
        <ele>0.19999999999999</ele>
        <time>2022-04-02T13:27:42Z</time>
      </trkpt>
      <trkpt lat="47.39698" lon="-1.53109">
        <ele>-0.60000000000002</ele>
        <time>2022-04-02T13:27:47Z</time>
      </trkpt>
      <trkpt lat="47.39681" lon="-1.53076">
        <ele>-1.2</ele>
        <time>2022-04-02T13:27:51Z</time>
      </trkpt>
      <trkpt lat="47.39673" lon="-1.5306">
        <ele>-1.4</ele>
        <time>2022-04-02T13:27:53Z</time>
      </trkpt>
      <trkpt lat="47.39652" lon="-1.53018">
        <ele>-1.4</ele>
        <time>2022-04-02T13:27:58Z</time>
      </trkpt>
      <trkpt lat="47.39624" lon="-1.52962">
        <ele>-1.6</ele>
        <time>2022-04-02T13:28:05Z</time>
      </trkpt>
      <trkpt lat="47.39601" lon="-1.52916">
        <ele>-1.6</ele>
        <time>2022-04-02T13:28:11Z</time>
      </trkpt>
      <trkpt lat="47.39584" lon="-1.5288">
        <ele>-1.8</ele>
        <time>2022-04-02T13:28:16Z</time>
      </trkpt>
      <trkpt lat="47.39568" lon="-1.52849">
        <ele>-1.6</ele>
        <time>2022-04-02T13:28:20Z</time>
      </trkpt>
      <trkpt lat="47.39539" lon="-1.52792">
        <ele>-1.4</ele>
        <time>2022-04-02T13:28:28Z</time>
      </trkpt>
      <trkpt lat="47.39534" lon="-1.5278">
        <ele>-1.4</ele>
        <time>2022-04-02T13:28:30Z</time>
      </trkpt>
      <trkpt lat="47.39533" lon="-1.52773">
        <ele>-1.2</ele>
        <time>2022-04-02T13:28:31Z</time>
      </trkpt>
      <trkpt lat="47.39534" lon="-1.52766">
        <ele>-1.4</ele>
        <time>2022-04-02T13:28:32Z</time>
      </trkpt>
      <trkpt lat="47.39541" lon="-1.52752">
        <ele>-1.2</ele>
        <time>2022-04-02T13:28:34Z</time>
      </trkpt>
      <trkpt lat="47.39544" lon="-1.52745">
        <ele>-1.2</ele>
        <time>2022-04-02T13:28:35Z</time>
      </trkpt>
      <trkpt lat="47.39552" lon="-1.52714">
        <ele>-1</ele>
        <time>2022-04-02T13:28:39Z</time>
      </trkpt>
      <trkpt lat="47.39558" lon="-1.52696">
        <ele>-1</ele>
        <time>2022-04-02T13:28:42Z</time>
      </trkpt>
      <trkpt lat="47.39562" lon="-1.52688">
        <ele>-0.80000000000001</ele>
        <time>2022-04-02T13:28:44Z</time>
      </trkpt>
      <trkpt lat="47.39564" lon="-1.52686">
        <ele>-0.80000000000001</ele>
        <time>2022-04-02T13:28:45Z</time>
      </trkpt>
      <trkpt lat="47.39565" lon="-1.52687">
        <ele>-0.80000000000001</ele>
        <time>2022-04-02T13:28:47Z</time>
      </trkpt>
      <trkpt lat="47.39565" lon="-1.52683">
        <ele>-0.60000000000002</ele>
        <time>2022-04-02T13:28:50Z</time>
      </trkpt>
      <trkpt lat="47.39561" lon="-1.52679">
        <ele>-0.80000000000001</ele>
        <time>2022-04-02T13:28:52Z</time>
      </trkpt>
      <trkpt lat="47.39544" lon="-1.52661">
        <ele>-0.60000000000002</ele>
        <time>2022-04-02T13:28:57Z</time>
      </trkpt>
      <trkpt lat="47.3952" lon="-1.52636">
        <ele>-0.60000000000002</ele>
        <time>2022-04-02T13:29:02Z</time>
      </trkpt>
      <trkpt lat="47.39515" lon="-1.52631">
        <ele>-0.80000000000001</ele>
        <time>2022-04-02T13:29:03Z</time>
      </trkpt>
      <trkpt lat="47.39504" lon="-1.5262">
        <ele>-0.60000000000002</ele>
        <time>2022-04-02T13:29:05Z</time>
      </trkpt>
      <trkpt lat="47.39472" lon="-1.52598">
        <ele>-1</ele>
        <time>2022-04-02T13:29:10Z</time>
      </trkpt>
      <trkpt lat="47.39433" lon="-1.52578">
        <ele>-1</ele>
        <time>2022-04-02T13:29:16Z</time>
      </trkpt>
      <trkpt lat="47.39392" lon="-1.52559">
        <ele>-0.60000000000002</ele>
        <time>2022-04-02T13:29:22Z</time>
      </trkpt>
      <trkpt lat="47.39338" lon="-1.52532">
        <ele>-0.19999999999999</ele>
        <time>2022-04-02T13:29:30Z</time>
      </trkpt>
      <trkpt lat="47.39284" lon="-1.52504">
        <ele>-0.19999999999999</ele>
        <time>2022-04-02T13:29:38Z</time>
      </trkpt>
      <trkpt lat="47.39236" lon="-1.5248">
        <ele>0.19999999999999</ele>
        <time>2022-04-02T13:29:45Z</time>
      </trkpt>
      <trkpt lat="47.39187" lon="-1.52469">
        <ele>0.39999999999998</ele>
        <time>2022-04-02T13:29:52Z</time>
      </trkpt>
      <trkpt lat="47.39141" lon="-1.52468">
        <ele>0.39999999999998</ele>
        <time>2022-04-02T13:29:59Z</time>
      </trkpt>
      <trkpt lat="47.39135" lon="-1.5247">
        <ele>0.39999999999998</ele>
        <time>2022-04-02T13:30:00Z</time>
      </trkpt>
      <trkpt lat="47.39116" lon="-1.52476">
        <ele>0.39999999999998</ele>
        <time>2022-04-02T13:30:03Z</time>
      </trkpt>
      <trkpt lat="47.39063" lon="-1.52494">
        <ele>0.39999999999998</ele>
        <time>2022-04-02T13:30:11Z</time>
      </trkpt>
      <trkpt lat="47.3903" lon="-1.52504">
        <ele>0.39999999999998</ele>
        <time>2022-04-02T13:30:16Z</time>
      </trkpt>
      <trkpt lat="47.38977" lon="-1.52521">
        <ele>0.60000000000002</ele>
        <time>2022-04-02T13:30:24Z</time>
      </trkpt>
      <trkpt lat="47.3897" lon="-1.52523">
        <ele>0.60000000000002</ele>
        <time>2022-04-02T13:30:25Z</time>
      </trkpt>
      <trkpt lat="47.38912" lon="-1.52541">
        <ele>0.80000000000001</ele>
        <time>2022-04-02T13:30:34Z</time>
      </trkpt>
      <trkpt lat="47.38893" lon="-1.52547">
        <ele>1</ele>
        <time>2022-04-02T13:30:37Z</time>
      </trkpt>
      <trkpt lat="47.38856" lon="-1.52556">
        <ele>1.2</ele>
        <time>2022-04-02T13:30:43Z</time>
      </trkpt>
      <trkpt lat="47.38851" lon="-1.52557">
        <ele>1.2</ele>
        <time>2022-04-02T13:30:44Z</time>
      </trkpt>
      <trkpt lat="47.38846" lon="-1.52553">
        <ele>1.2</ele>
        <time>2022-04-02T13:30:45Z</time>
      </trkpt>
      <trkpt lat="47.38842" lon="-1.52539">
        <ele>1.2</ele>
        <time>2022-04-02T13:30:47Z</time>
      </trkpt>
      <trkpt lat="47.38841" lon="-1.52531">
        <ele>1.2</ele>
        <time>2022-04-02T13:30:48Z</time>
      </trkpt>
      <trkpt lat="47.38838" lon="-1.52516">
        <ele>1.2</ele>
        <time>2022-04-02T13:30:50Z</time>
      </trkpt>
      <trkpt lat="47.38836" lon="-1.52502">
        <ele>1.2</ele>
        <time>2022-04-02T13:30:52Z</time>
      </trkpt>
      <trkpt lat="47.38834" lon="-1.52495">
        <ele>1</ele>
        <time>2022-04-02T13:30:53Z</time>
      </trkpt>
      <trkpt lat="47.38828" lon="-1.52447">
        <ele>1</ele>
        <time>2022-04-02T13:30:59Z</time>
      </trkpt>
      <trkpt lat="47.38821" lon="-1.52398">
        <ele>0.60000000000002</ele>
        <time>2022-04-02T13:31:05Z</time>
      </trkpt>
      <trkpt lat="47.38814" lon="-1.52359">
        <ele>0.19999999999999</ele>
        <time>2022-04-02T13:31:10Z</time>
      </trkpt>
      <trkpt lat="47.38813" lon="-1.52351">
        <ele>0.19999999999999</ele>
        <time>2022-04-02T13:31:11Z</time>
      </trkpt>
      <trkpt lat="47.38804" lon="-1.52287">
        <ele>0.19999999999999</ele>
        <time>2022-04-02T13:31:19Z</time>
      </trkpt>
      <trkpt lat="47.38799" lon="-1.52256">
        <ele>-0.19999999999999</ele>
        <time>2022-04-02T13:31:23Z</time>
      </trkpt>
      <trkpt lat="47.38797" lon="-1.52243">
        <ele>-0.19999999999999</ele>
        <time>2022-04-02T13:31:25Z</time>
      </trkpt>
      <trkpt lat="47.38787" lon="-1.52196">
        <ele>-0.80000000000001</ele>
        <time>2022-04-02T13:31:31Z</time>
      </trkpt>
      <trkpt lat="47.38779" lon="-1.52149">
        <ele>-1</ele>
        <time>2022-04-02T13:31:37Z</time>
      </trkpt>
      <trkpt lat="47.38776" lon="-1.52134">
        <ele>-1</ele>
        <time>2022-04-02T13:31:39Z</time>
      </trkpt>
      <trkpt lat="47.38773" lon="-1.52113">
        <ele>-1.2</ele>
        <time>2022-04-02T13:31:42Z</time>
      </trkpt>
      <trkpt lat="47.3877" lon="-1.521">
        <ele>-1.4</ele>
        <time>2022-04-02T13:31:44Z</time>
      </trkpt>
      <trkpt lat="47.38768" lon="-1.52087">
        <ele>-1.4</ele>
        <time>2022-04-02T13:31:46Z</time>
      </trkpt>
      <trkpt lat="47.38767" lon="-1.52081">
        <ele>-1.6</ele>
        <time>2022-04-02T13:31:47Z</time>
      </trkpt>
      <trkpt lat="47.38766" lon="-1.52075">
        <ele>-1.6</ele>
        <time>2022-04-02T13:31:48Z</time>
      </trkpt>
      <trkpt lat="47.3876" lon="-1.52044">
        <ele>-2</ele>
        <time>2022-04-02T13:31:53Z</time>
      </trkpt>
      <trkpt lat="47.3875" lon="-1.52003">
        <ele>-2</ele>
        <time>2022-04-02T13:31:59Z</time>
      </trkpt>
      <trkpt lat="47.38746" lon="-1.5199">
        <ele>-2</ele>
        <time>2022-04-02T13:32:01Z</time>
      </trkpt>
      <trkpt lat="47.3874" lon="-1.51973">
        <ele>-2.2</ele>
        <time>2022-04-02T13:32:04Z</time>
      </trkpt>
      <trkpt lat="47.38734" lon="-1.51953">
        <ele>-2.6</ele>
        <time>2022-04-02T13:32:08Z</time>
      </trkpt>
      <trkpt lat="47.3872" lon="-1.51917">
        <ele>-3.4</ele>
        <time>2022-04-02T13:32:14Z</time>
      </trkpt>
      <trkpt lat="47.38716" lon="-1.51903">
        <ele>-3.6</ele>
        <time>2022-04-02T13:32:16Z</time>
      </trkpt>
      <trkpt lat="47.38708" lon="-1.51883">
        <ele>-3.8</ele>
        <time>2022-04-02T13:32:19Z</time>
      </trkpt>
      <trkpt lat="47.38701" lon="-1.51865">
        <ele>-4.2</ele>
        <time>2022-04-02T13:32:22Z</time>
      </trkpt>
      <trkpt lat="47.38698" lon="-1.51859">
        <ele>-4.2</ele>
        <time>2022-04-02T13:32:23Z</time>
      </trkpt>
      <trkpt lat="47.38682" lon="-1.51818">
        <ele>-4.6</ele>
        <time>2022-04-02T13:32:29Z</time>
      </trkpt>
      <trkpt lat="47.38665" lon="-1.51767">
        <ele>-4.4</ele>
        <time>2022-04-02T13:32:36Z</time>
      </trkpt>
      <trkpt lat="47.3866" lon="-1.51753">
        <ele>-4.4</ele>
        <time>2022-04-02T13:32:38Z</time>
      </trkpt>
      <trkpt lat="47.38655" lon="-1.51739">
        <ele>-4.4</ele>
        <time>2022-04-02T13:32:40Z</time>
      </trkpt>
      <trkpt lat="47.38653" lon="-1.51731">
        <ele>-4.4</ele>
        <time>2022-04-02T13:32:41Z</time>
      </trkpt>
      <trkpt lat="47.38648" lon="-1.51718">
        <ele>-4.6</ele>
        <time>2022-04-02T13:32:43Z</time>
      </trkpt>
      <trkpt lat="47.38637" lon="-1.51689">
        <ele>-4.6</ele>
        <time>2022-04-02T13:32:47Z</time>
      </trkpt>
      <trkpt lat="47.38615" lon="-1.5163">
        <ele>-4.8</ele>
        <time>2022-04-02T13:32:55Z</time>
      </trkpt>
      <trkpt lat="47.38592" lon="-1.5157">
        <ele>-4.8</ele>
        <time>2022-04-02T13:33:03Z</time>
      </trkpt>
      <trkpt lat="47.38578" lon="-1.51533">
        <ele>-4.4</ele>
        <time>2022-04-02T13:33:08Z</time>
      </trkpt>
      <trkpt lat="47.38558" lon="-1.51482">
        <ele>-4.4</ele>
        <time>2022-04-02T13:33:15Z</time>
      </trkpt>
      <trkpt lat="47.38541" lon="-1.5144">
        <ele>-5</ele>
        <time>2022-04-02T13:33:21Z</time>
      </trkpt>
      <trkpt lat="47.38524" lon="-1.51397">
        <ele>-5.6</ele>
        <time>2022-04-02T13:33:27Z</time>
      </trkpt>
      <trkpt lat="47.38507" lon="-1.51356">
        <ele>-7.4</ele>
        <time>2022-04-02T13:33:33Z</time>
      </trkpt>
      <trkpt lat="47.38499" lon="-1.51343">
        <ele>-8</ele>
        <time>2022-04-02T13:33:35Z</time>
      </trkpt>
      <trkpt lat="47.38487" lon="-1.51326">
        <ele>-8.8</ele>
        <time>2022-04-02T13:33:38Z</time>
      </trkpt>
      <trkpt lat="47.38457" lon="-1.51287">
        <ele>-10.6</ele>
        <time>2022-04-02T13:33:45Z</time>
      </trkpt>
      <trkpt lat="47.38453" lon="-1.5128">
        <ele>-10.8</ele>
        <time>2022-04-02T13:33:46Z</time>
      </trkpt>
      <trkpt lat="47.38427" lon="-1.51228">
        <ele>-12.8</ele>
        <time>2022-04-02T13:33:53Z</time>
      </trkpt>
      <trkpt lat="47.384" lon="-1.51169">
        <ele>-14</ele>
        <time>2022-04-02T13:34:01Z</time>
      </trkpt>
      <trkpt lat="47.38376" lon="-1.51115">
        <ele>-14.6</ele>
        <time>2022-04-02T13:34:09Z</time>
      </trkpt>
      <trkpt lat="47.38357" lon="-1.51075">
        <ele>-16.2</ele>
        <time>2022-04-02T13:34:15Z</time>
      </trkpt>
      <trkpt lat="47.38347" lon="-1.51057">
        <ele>-17</ele>
        <time>2022-04-02T13:34:18Z</time>
      </trkpt>
      <trkpt lat="47.38337" lon="-1.5105">
        <ele>-17.6</ele>
        <time>2022-04-02T13:34:20Z</time>
      </trkpt>
      <trkpt lat="47.38318" lon="-1.51048">
        <ele>-18.2</ele>
        <time>2022-04-02T13:34:24Z</time>
      </trkpt>
      <trkpt lat="47.38314" lon="-1.51046">
        <ele>-18.2</ele>
        <time>2022-04-02T13:34:25Z</time>
      </trkpt>
      <trkpt lat="47.38306" lon="-1.51034">
        <ele>-17.4</ele>
        <time>2022-04-02T13:34:28Z</time>
      </trkpt>
      <trkpt lat="47.38293" lon="-1.51017">
        <ele>-17.8</ele>
        <time>2022-04-02T13:34:33Z</time>
      </trkpt>
      <trkpt lat="47.38279" lon="-1.51007">
        <ele>-17.8</ele>
        <time>2022-04-02T13:34:37Z</time>
      </trkpt>
      <trkpt lat="47.38276" lon="-1.51002">
        <ele>-17.6</ele>
        <time>2022-04-02T13:34:38Z</time>
      </trkpt>
      <trkpt lat="47.38274" lon="-1.50996">
        <ele>-17.4</ele>
        <time>2022-04-02T13:34:39Z</time>
      </trkpt>
      <trkpt lat="47.38269" lon="-1.50977">
        <ele>-17.6</ele>
        <time>2022-04-02T13:34:42Z</time>
      </trkpt>
      <trkpt lat="47.38259" lon="-1.50941">
        <ele>-16.8</ele>
        <time>2022-04-02T13:34:48Z</time>
      </trkpt>
      <trkpt lat="47.38256" lon="-1.50924">
        <ele>-16.4</ele>
        <time>2022-04-02T13:34:52Z</time>
      </trkpt>
      <trkpt lat="47.38254" lon="-1.50914">
        <ele>-16.4</ele>
        <time>2022-04-02T13:34:57Z</time>
      </trkpt>
      <trkpt lat="47.38243" lon="-1.50871">
        <ele>0.39999999999998</ele>
        <time>2022-04-02T13:45:01Z</time>
      </trkpt>
      <trkpt lat="47.38238" lon="-1.50856">
        <ele>-1.4</ele>
        <time>2022-04-02T13:45:05Z</time>
      </trkpt>
      <trkpt lat="47.38227" lon="-1.50842">
        <ele>-3.6</ele>
        <time>2022-04-02T13:45:10Z</time>
      </trkpt>
      <trkpt lat="47.38211" lon="-1.50822">
        <ele>-4.8</ele>
        <time>2022-04-02T13:45:17Z</time>
      </trkpt>
      <trkpt lat="47.3819" lon="-1.50798">
        <ele>-4.4</ele>
        <time>2022-04-02T13:45:23Z</time>
      </trkpt>
      <trkpt lat="47.38168" lon="-1.50779">
        <ele>-4.8</ele>
        <time>2022-04-02T13:45:29Z</time>
      </trkpt>
      <trkpt lat="47.38156" lon="-1.50777">
        <ele>-4.4</ele>
        <time>2022-04-02T13:45:32Z</time>
      </trkpt>
      <trkpt lat="47.38151" lon="-1.50777">
        <ele>-4.2</ele>
        <time>2022-04-02T13:45:33Z</time>
      </trkpt>
      <trkpt lat="47.38142" lon="-1.50777">
        <ele>-4.2</ele>
        <time>2022-04-02T13:45:35Z</time>
      </trkpt>
      <trkpt lat="47.38132" lon="-1.50774">
        <ele>-3.6</ele>
        <time>2022-04-02T13:45:37Z</time>
      </trkpt>
      <trkpt lat="47.38123" lon="-1.50769">
        <ele>-2.8</ele>
        <time>2022-04-02T13:45:39Z</time>
      </trkpt>
      <trkpt lat="47.38114" lon="-1.50762">
        <ele>-2.2</ele>
        <time>2022-04-02T13:45:41Z</time>
      </trkpt>
      <trkpt lat="47.38105" lon="-1.50754">
        <ele>-1.4</ele>
        <time>2022-04-02T13:45:43Z</time>
      </trkpt>
      <trkpt lat="47.38096" lon="-1.50743">
        <ele>-1</ele>
        <time>2022-04-02T13:45:45Z</time>
      </trkpt>
      <trkpt lat="47.38092" lon="-1.50739">
        <ele>-1.2</ele>
        <time>2022-04-02T13:45:46Z</time>
      </trkpt>
      <trkpt lat="47.38087" lon="-1.50735">
        <ele>-1</ele>
        <time>2022-04-02T13:45:47Z</time>
      </trkpt>
      <trkpt lat="47.38068" lon="-1.50723">
        <ele>-0.19999999999999</ele>
        <time>2022-04-02T13:45:51Z</time>
      </trkpt>
      <trkpt lat="47.38053" lon="-1.50719">
        <ele>0.19999999999999</ele>
        <time>2022-04-02T13:45:54Z</time>
      </trkpt>
      <trkpt lat="47.38047" lon="-1.50719">
        <ele>0.19999999999999</ele>
        <time>2022-04-02T13:45:55Z</time>
      </trkpt>
      <trkpt lat="47.38035" lon="-1.5072">
        <ele>0.19999999999999</ele>
        <time>2022-04-02T13:45:57Z</time>
      </trkpt>
      <trkpt lat="47.38021" lon="-1.50718">
        <ele>0.19999999999999</ele>
        <time>2022-04-02T13:46:00Z</time>
      </trkpt>
      <trkpt lat="47.38004" lon="-1.50711">
        <ele>0.19999999999999</ele>
        <time>2022-04-02T13:46:04Z</time>
      </trkpt>
      <trkpt lat="47.38" lon="-1.50708">
        <ele>0.39999999999998</ele>
        <time>2022-04-02T13:46:05Z</time>
      </trkpt>
      <trkpt lat="47.37993" lon="-1.50701">
        <ele>0.60000000000002</ele>
        <time>2022-04-02T13:46:07Z</time>
      </trkpt>
      <trkpt lat="47.3799" lon="-1.50698">
        <ele>0.80000000000001</ele>
        <time>2022-04-02T13:46:08Z</time>
      </trkpt>
      <trkpt lat="47.37981" lon="-1.50687">
        <ele>1</ele>
        <time>2022-04-02T13:46:11Z</time>
      </trkpt>
      <trkpt lat="47.37977" lon="-1.50683">
        <ele>1.2</ele>
        <time>2022-04-02T13:46:12Z</time>
      </trkpt>
      <trkpt lat="47.37953" lon="-1.50659">
        <ele>0.80000000000001</ele>
        <time>2022-04-02T13:46:19Z</time>
      </trkpt>
      <trkpt lat="47.37938" lon="-1.50662">
        <ele>1.4</ele>
        <time>2022-04-02T13:46:23Z</time>
      </trkpt>
      <trkpt lat="47.37924" lon="-1.50669">
        <ele>1.8</ele>
        <time>2022-04-02T13:46:28Z</time>
      </trkpt>
      <trkpt lat="47.37912" lon="-1.50667">
        <ele>2.2</ele>
        <time>2022-04-02T13:46:32Z</time>
      </trkpt>
      <trkpt lat="47.37901" lon="-1.50652">
        <ele>3</ele>
        <time>2022-04-02T13:46:37Z</time>
      </trkpt>
      <trkpt lat="47.37889" lon="-1.50648">
        <ele>3.6</ele>
        <time>2022-04-02T13:46:41Z</time>
      </trkpt>
      <trkpt lat="47.37886" lon="-1.50648">
        <ele>3.8</ele>
        <time>2022-04-02T13:46:42Z</time>
      </trkpt>
      <trkpt lat="47.37877" lon="-1.50648">
        <ele>4.6</ele>
        <time>2022-04-02T13:46:45Z</time>
      </trkpt>
      <trkpt lat="47.37861" lon="-1.5065">
        <ele>5.6</ele>
        <time>2022-04-02T13:46:50Z</time>
      </trkpt>
      <trkpt lat="47.37849" lon="-1.50652">
        <ele>6.4</ele>
        <time>2022-04-02T13:46:54Z</time>
      </trkpt>
      <trkpt lat="47.37847" lon="-1.50654">
        <ele>6.8</ele>
        <time>2022-04-02T13:46:55Z</time>
      </trkpt>
      <trkpt lat="47.37831" lon="-1.50658">
        <ele>8.2</ele>
        <time>2022-04-02T13:47:00Z</time>
      </trkpt>
      <trkpt lat="47.37826" lon="-1.50661">
        <ele>8.6</ele>
        <time>2022-04-02T13:47:01Z</time>
      </trkpt>
      <trkpt lat="47.37806" lon="-1.50664">
        <ele>9.2</ele>
        <time>2022-04-02T13:47:04Z</time>
      </trkpt>
      <trkpt lat="47.37767" lon="-1.50668">
        <ele>9.4</ele>
        <time>2022-04-02T13:47:09Z</time>
      </trkpt>
      <trkpt lat="47.3773" lon="-1.50671">
        <ele>9.2</ele>
        <time>2022-04-02T13:47:13Z</time>
      </trkpt>
      <trkpt lat="47.37721" lon="-1.50671">
        <ele>9.4</ele>
        <time>2022-04-02T13:47:14Z</time>
      </trkpt>
      <trkpt lat="47.37689" lon="-1.50671">
        <ele>9.2</ele>
        <time>2022-04-02T13:47:18Z</time>
      </trkpt>
      <trkpt lat="47.37683" lon="-1.50672">
        <ele>9.2</ele>
        <time>2022-04-02T13:47:19Z</time>
      </trkpt>
      <trkpt lat="47.37674" lon="-1.50674">
        <ele>9.2</ele>
        <time>2022-04-02T13:47:21Z</time>
      </trkpt>
      <trkpt lat="47.37657" lon="-1.50673">
        <ele>10.6</ele>
        <time>2022-04-02T13:47:26Z</time>
      </trkpt>
      <trkpt lat="47.37648" lon="-1.50673">
        <ele>8.2</ele>
        <time>2022-04-02T13:47:31Z</time>
      </trkpt>
      <trkpt lat="47.37646" lon="-1.50672">
        <ele>8.6</ele>
        <time>2022-04-02T13:47:33Z</time>
      </trkpt>
      <trkpt lat="47.37644" lon="-1.50676">
        <ele>8.2</ele>
        <time>2022-04-02T13:47:35Z</time>
      </trkpt>
      <trkpt lat="47.37643" lon="-1.50679">
        <ele>8</ele>
        <time>2022-04-02T13:47:36Z</time>
      </trkpt>
      <trkpt lat="47.37641" lon="-1.50698">
        <ele>7</ele>
        <time>2022-04-02T13:47:40Z</time>
      </trkpt>
      <trkpt lat="47.37641" lon="-1.50704">
        <ele>6.6</ele>
        <time>2022-04-02T13:47:41Z</time>
      </trkpt>
      <trkpt lat="47.37642" lon="-1.50721">
        <ele>6</ele>
        <time>2022-04-02T13:47:44Z</time>
      </trkpt>
      <trkpt lat="47.37641" lon="-1.50727">
        <ele>5.8</ele>
        <time>2022-04-02T13:47:45Z</time>
      </trkpt>
      <trkpt lat="47.37639" lon="-1.50732">
        <ele>5.6</ele>
        <time>2022-04-02T13:47:46Z</time>
      </trkpt>
      <trkpt lat="47.37633" lon="-1.50743">
        <ele>5.2</ele>
        <time>2022-04-02T13:47:48Z</time>
      </trkpt>
      <trkpt lat="47.37631" lon="-1.5075">
        <ele>5.2</ele>
        <time>2022-04-02T13:47:49Z</time>
      </trkpt>
      <trkpt lat="47.37623" lon="-1.5078">
        <ele>4.2</ele>
        <time>2022-04-02T13:47:54Z</time>
      </trkpt>
      <trkpt lat="47.3762" lon="-1.50787">
        <ele>4</ele>
        <time>2022-04-02T13:47:55Z</time>
      </trkpt>
      <trkpt lat="47.37598" lon="-1.50824">
        <ele>3.2</ele>
        <time>2022-04-02T13:48:01Z</time>
      </trkpt>
      <trkpt lat="47.37595" lon="-1.50831">
        <ele>3</ele>
        <time>2022-04-02T13:48:02Z</time>
      </trkpt>
      <trkpt lat="47.37588" lon="-1.50846">
        <ele>2.6</ele>
        <time>2022-04-02T13:48:04Z</time>
      </trkpt>
      <trkpt lat="47.3758" lon="-1.50859">
        <ele>2.4</ele>
        <time>2022-04-02T13:48:06Z</time>
      </trkpt>
      <trkpt lat="47.37576" lon="-1.50864">
        <ele>2.2</ele>
        <time>2022-04-02T13:48:07Z</time>
      </trkpt>
      <trkpt lat="47.37571" lon="-1.50867">
        <ele>2</ele>
        <time>2022-04-02T13:48:08Z</time>
      </trkpt>
      <trkpt lat="47.37559" lon="-1.50872">
        <ele>1.6</ele>
        <time>2022-04-02T13:48:10Z</time>
      </trkpt>
      <trkpt lat="47.37554" lon="-1.50873">
        <ele>1.6</ele>
        <time>2022-04-02T13:48:11Z</time>
      </trkpt>
      <trkpt lat="47.37541" lon="-1.50871">
        <ele>1.2</ele>
        <time>2022-04-02T13:48:13Z</time>
      </trkpt>
      <trkpt lat="47.37522" lon="-1.50868">
        <ele>0.80000000000001</ele>
        <time>2022-04-02T13:48:16Z</time>
      </trkpt>
      <trkpt lat="47.3751" lon="-1.50866">
        <ele>0.60000000000002</ele>
        <time>2022-04-02T13:48:18Z</time>
      </trkpt>
      <trkpt lat="47.37497" lon="-1.50867">
        <ele>0.39999999999998</ele>
        <time>2022-04-02T13:48:20Z</time>
      </trkpt>
      <trkpt lat="47.37491" lon="-1.50868">
        <ele>0.39999999999998</ele>
        <time>2022-04-02T13:48:21Z</time>
      </trkpt>
      <trkpt lat="47.37485" lon="-1.50871">
        <ele>0.19999999999999</ele>
        <time>2022-04-02T13:48:22Z</time>
      </trkpt>
      <trkpt lat="47.37469" lon="-1.50885">
        <ele>0.19999999999999</ele>
        <time>2022-04-02T13:48:25Z</time>
      </trkpt>
      <trkpt lat="47.37452" lon="-1.50895">
        <ele>-0.19999999999999</ele>
        <time>2022-04-02T13:48:29Z</time>
      </trkpt>
      <trkpt lat="47.37431" lon="-1.50902">
        <ele>-0.80000000000001</ele>
        <time>2022-04-02T13:48:35Z</time>
      </trkpt>
      <trkpt lat="47.37426" lon="-1.50902">
        <ele>-0.80000000000001</ele>
        <time>2022-04-02T13:48:36Z</time>
      </trkpt>
      <trkpt lat="47.37405" lon="-1.509">
        <ele>-1.4</ele>
        <time>2022-04-02T13:48:40Z</time>
      </trkpt>
      <trkpt lat="47.37368" lon="-1.50896">
        <ele>-1.8</ele>
        <time>2022-04-02T13:48:46Z</time>
      </trkpt>
      <trkpt lat="47.37332" lon="-1.50892">
        <ele>-1.6</ele>
        <time>2022-04-02T13:48:52Z</time>
      </trkpt>
      <trkpt lat="47.37289" lon="-1.50887">
        <ele>-1.6</ele>
        <time>2022-04-02T13:48:59Z</time>
      </trkpt>
      <trkpt lat="47.37257" lon="-1.50883">
        <ele>-1.8</ele>
        <time>2022-04-02T13:49:04Z</time>
      </trkpt>
      <trkpt lat="47.37211" lon="-1.50876">
        <ele>-1.4</ele>
        <time>2022-04-02T13:49:11Z</time>
      </trkpt>
      <trkpt lat="47.37156" lon="-1.50869">
        <ele>-1.4</ele>
        <time>2022-04-02T13:49:20Z</time>
      </trkpt>
      <trkpt lat="47.37143" lon="-1.50868">
        <ele>-1.4</ele>
        <time>2022-04-02T13:49:22Z</time>
      </trkpt>
      <trkpt lat="47.37098" lon="-1.50867">
        <ele>-1.2</ele>
        <time>2022-04-02T13:49:29Z</time>
      </trkpt>
      <trkpt lat="47.37048" lon="-1.50876">
        <ele>-1.2</ele>
        <time>2022-04-02T13:49:37Z</time>
      </trkpt>
      <trkpt lat="47.37029" lon="-1.5088">
        <ele>-1</ele>
        <time>2022-04-02T13:49:40Z</time>
      </trkpt>
      <trkpt lat="47.37017" lon="-1.50885">
        <ele>-1.2</ele>
        <time>2022-04-02T13:49:42Z</time>
      </trkpt>
      <trkpt lat="47.36967" lon="-1.50894">
        <ele>-0.80000000000001</ele>
        <time>2022-04-02T13:49:50Z</time>
      </trkpt>
      <trkpt lat="47.36921" lon="-1.50905">
        <ele>-0.60000000000002</ele>
        <time>2022-04-02T13:49:57Z</time>
      </trkpt>
      <trkpt lat="47.36915" lon="-1.50907">
        <ele>-0.39999999999998</ele>
        <time>2022-04-02T13:49:58Z</time>
      </trkpt>
      <trkpt lat="47.36904" lon="-1.50915">
        <ele>-0.60000000000002</ele>
        <time>2022-04-02T13:50:00Z</time>
      </trkpt>
      <trkpt lat="47.36899" lon="-1.50921">
        <ele>-0.39999999999998</ele>
        <time>2022-04-02T13:50:01Z</time>
      </trkpt>
      <trkpt lat="47.36895" lon="-1.50928">
        <ele>-0.39999999999998</ele>
        <time>2022-04-02T13:50:02Z</time>
      </trkpt>
      <trkpt lat="47.36886" lon="-1.50951">
        <ele>-0.39999999999998</ele>
        <time>2022-04-02T13:50:05Z</time>
      </trkpt>
      <trkpt lat="47.36879" lon="-1.50966">
        <ele>-0.19999999999999</ele>
        <time>2022-04-02T13:50:07Z</time>
      </trkpt>
      <trkpt lat="47.36866" lon="-1.50985">
        <ele>-0.19999999999999</ele>
        <time>2022-04-02T13:50:10Z</time>
      </trkpt>
      <trkpt lat="47.36831" lon="-1.51029">
        <ele>-0.19999999999999</ele>
        <time>2022-04-02T13:50:17Z</time>
      </trkpt>
      <trkpt lat="47.368" lon="-1.51064">
        <ele>-0.19999999999999</ele>
        <time>2022-04-02T13:50:23Z</time>
      </trkpt>
      <trkpt lat="47.36767" lon="-1.51097">
        <ele>-0.80000000000001</ele>
        <time>2022-04-02T13:50:29Z</time>
      </trkpt>
      <trkpt lat="47.36747" lon="-1.51121">
        <ele>-1.4</ele>
        <time>2022-04-02T13:50:33Z</time>
      </trkpt>
      <trkpt lat="47.36742" lon="-1.51128">
        <ele>-1.4</ele>
        <time>2022-04-02T13:50:34Z</time>
      </trkpt>
      <trkpt lat="47.36739" lon="-1.51136">
        <ele>-1.6</ele>
        <time>2022-04-02T13:50:35Z</time>
      </trkpt>
      <trkpt lat="47.3673" lon="-1.51163">
        <ele>-1.8</ele>
        <time>2022-04-02T13:50:38Z</time>
      </trkpt>
      <trkpt lat="47.36714" lon="-1.51224">
        <ele>-2</ele>
        <time>2022-04-02T13:50:45Z</time>
      </trkpt>
      <trkpt lat="47.36712" lon="-1.51233">
        <ele>-2</ele>
        <time>2022-04-02T13:50:46Z</time>
      </trkpt>
      <trkpt lat="47.36702" lon="-1.51294">
        <ele>-2</ele>
        <time>2022-04-02T13:50:53Z</time>
      </trkpt>
      <trkpt lat="47.36699" lon="-1.51333">
        <ele>-2</ele>
        <time>2022-04-02T13:50:58Z</time>
      </trkpt>
      <trkpt lat="47.36699" lon="-1.51341">
        <ele>-2</ele>
        <time>2022-04-02T13:50:59Z</time>
      </trkpt>
      <trkpt lat="47.367" lon="-1.51355">
        <ele>-2</ele>
        <time>2022-04-02T13:51:01Z</time>
      </trkpt>
      <trkpt lat="47.36704" lon="-1.51375">
        <ele>-1.8</ele>
        <time>2022-04-02T13:51:04Z</time>
      </trkpt>
      <trkpt lat="47.36715" lon="-1.51418">
        <ele>-1.6</ele>
        <time>2022-04-02T13:51:11Z</time>
      </trkpt>
      <trkpt lat="47.36729" lon="-1.51466">
        <ele>-1.4</ele>
        <time>2022-04-02T13:51:19Z</time>
      </trkpt>
      <trkpt lat="47.36744" lon="-1.51527">
        <ele>-0.80000000000001</ele>
        <time>2022-04-02T13:51:28Z</time>
      </trkpt>
      <trkpt lat="47.36759" lon="-1.51581">
        <ele>-0.80000000000001</ele>
        <time>2022-04-02T13:51:35Z</time>
      </trkpt>
      <trkpt lat="47.36775" lon="-1.51632">
        <ele>-0.60000000000002</ele>
        <time>2022-04-02T13:51:41Z</time>
      </trkpt>
      <trkpt lat="47.36792" lon="-1.51681">
        <ele>-0.80000000000001</ele>
        <time>2022-04-02T13:51:47Z</time>
      </trkpt>
      <trkpt lat="47.36799" lon="-1.51706">
        <ele>-0.80000000000001</ele>
        <time>2022-04-02T13:51:50Z</time>
      </trkpt>
      <trkpt lat="47.36801" lon="-1.51724">
        <ele>-0.60000000000002</ele>
        <time>2022-04-02T13:51:52Z</time>
      </trkpt>
      <trkpt lat="47.36809" lon="-1.51801">
        <ele>-1.2</ele>
        <time>2022-04-02T13:52:00Z</time>
      </trkpt>
      <trkpt lat="47.36807" lon="-1.5183">
        <ele>-1</ele>
        <time>2022-04-02T13:52:03Z</time>
      </trkpt>
      <trkpt lat="47.36804" lon="-1.51839">
        <ele>-1</ele>
        <time>2022-04-02T13:52:04Z</time>
      </trkpt>
      <trkpt lat="47.36796" lon="-1.51866">
        <ele>-1</ele>
        <time>2022-04-02T13:52:07Z</time>
      </trkpt>
      <trkpt lat="47.36794" lon="-1.51874">
        <ele>-1.2</ele>
        <time>2022-04-02T13:52:08Z</time>
      </trkpt>
      <trkpt lat="47.36779" lon="-1.51913">
        <ele>-0.80000000000001</ele>
        <time>2022-04-02T13:52:13Z</time>
      </trkpt>
      <trkpt lat="47.36757" lon="-1.5197">
        <ele>-0.39999999999998</ele>
        <time>2022-04-02T13:52:20Z</time>
      </trkpt>
      <trkpt lat="47.36733" lon="-1.52033">
        <ele>-0.19999999999999</ele>
        <time>2022-04-02T13:52:28Z</time>
      </trkpt>
      <trkpt lat="47.36706" lon="-1.52103">
        <ele>0.19999999999999</ele>
        <time>2022-04-02T13:52:37Z</time>
      </trkpt>
      <trkpt lat="47.36703" lon="-1.5211">
        <ele>0.19999999999999</ele>
        <time>2022-04-02T13:52:38Z</time>
      </trkpt>
      <trkpt lat="47.36684" lon="-1.52155">
        <ele>0.19999999999999</ele>
        <time>2022-04-02T13:52:44Z</time>
      </trkpt>
      <trkpt lat="47.36661" lon="-1.52206">
        <ele>0.19999999999999</ele>
        <time>2022-04-02T13:52:51Z</time>
      </trkpt>
      <trkpt lat="47.36653" lon="-1.52229">
        <ele>0.19999999999999</ele>
        <time>2022-04-02T13:52:54Z</time>
      </trkpt>
      <trkpt lat="47.3665" lon="-1.52246">
        <ele>0.19999999999999</ele>
        <time>2022-04-02T13:52:56Z</time>
      </trkpt>
      <trkpt lat="47.36648" lon="-1.52263">
        <ele>0.19999999999999</ele>
        <time>2022-04-02T13:52:58Z</time>
      </trkpt>
      <trkpt lat="47.36645" lon="-1.52304">
        <ele>0.19999999999999</ele>
        <time>2022-04-02T13:53:03Z</time>
      </trkpt>
      <trkpt lat="47.36641" lon="-1.5235">
        <ele>0.19999999999999</ele>
        <time>2022-04-02T13:53:09Z</time>
      </trkpt>
      <trkpt lat="47.36633" lon="-1.52409">
        <ele>0.19999999999999</ele>
        <time>2022-04-02T13:53:17Z</time>
      </trkpt>
      <trkpt lat="47.36625" lon="-1.52442">
        <ele>0.19999999999999</ele>
        <time>2022-04-02T13:53:22Z</time>
      </trkpt>
      <trkpt lat="47.36621" lon="-1.52454">
        <ele>0.39999999999998</ele>
        <time>2022-04-02T13:53:24Z</time>
      </trkpt>
      <trkpt lat="47.36612" lon="-1.5247">
        <ele>0.60000000000002</ele>
        <time>2022-04-02T13:53:27Z</time>
      </trkpt>
      <trkpt lat="47.36608" lon="-1.52482">
        <ele>0.60000000000002</ele>
        <time>2022-04-02T13:53:29Z</time>
      </trkpt>
      <trkpt lat="47.36605" lon="-1.52496">
        <ele>0.80000000000001</ele>
        <time>2022-04-02T13:53:31Z</time>
      </trkpt>
      <trkpt lat="47.366" lon="-1.52508">
        <ele>0.80000000000001</ele>
        <time>2022-04-02T13:53:33Z</time>
      </trkpt>
      <trkpt lat="47.36596" lon="-1.52514">
        <ele>0.80000000000001</ele>
        <time>2022-04-02T13:53:34Z</time>
      </trkpt>
      <trkpt lat="47.36572" lon="-1.5255">
        <ele>1.2</ele>
        <time>2022-04-02T13:53:41Z</time>
      </trkpt>
      <trkpt lat="47.36545" lon="-1.52588">
        <ele>1.2</ele>
        <time>2022-04-02T13:53:49Z</time>
      </trkpt>
      <trkpt lat="47.36528" lon="-1.52604">
        <ele>1.2</ele>
        <time>2022-04-02T13:53:53Z</time>
      </trkpt>
      <trkpt lat="47.36512" lon="-1.52615">
        <ele>1</ele>
        <time>2022-04-02T13:53:56Z</time>
      </trkpt>
      <trkpt lat="47.36471" lon="-1.52632">
        <ele>0.80000000000001</ele>
        <time>2022-04-02T13:54:03Z</time>
      </trkpt>
      <trkpt lat="47.36455" lon="-1.52635">
        <ele>0.80000000000001</ele>
        <time>2022-04-02T13:54:06Z</time>
      </trkpt>
      <trkpt lat="47.36451" lon="-1.52636">
        <ele>0.60000000000002</ele>
        <time>2022-04-02T13:54:07Z</time>
      </trkpt>
      <trkpt lat="47.36436" lon="-1.52638">
        <ele>0.39999999999998</ele>
        <time>2022-04-02T13:54:11Z</time>
      </trkpt>
      <trkpt lat="47.36432" lon="-1.52641">
        <ele>0.19999999999999</ele>
        <time>2022-04-02T13:54:12Z</time>
      </trkpt>
      <trkpt lat="47.36428" lon="-1.52643">
        <ele>0.19999999999999</ele>
        <time>2022-04-02T13:54:13Z</time>
      </trkpt>
      <trkpt lat="47.36418" lon="-1.52644">
        <ele>0.19999999999999</ele>
        <time>2022-04-02T13:54:15Z</time>
      </trkpt>
      <trkpt lat="47.36414" lon="-1.52642">
        <ele>0.19999999999999</ele>
        <time>2022-04-02T13:54:16Z</time>
      </trkpt>
      <trkpt lat="47.3641" lon="-1.52637">
        <ele>0.19999999999999</ele>
        <time>2022-04-02T13:54:17Z</time>
      </trkpt>
      <trkpt lat="47.36399" lon="-1.5262">
        <ele>0.19999999999999</ele>
        <time>2022-04-02T13:54:20Z</time>
      </trkpt>
      <trkpt lat="47.36373" lon="-1.52579">
        <ele>-0.19999999999999</ele>
        <time>2022-04-02T13:54:28Z</time>
      </trkpt>
      <trkpt lat="47.36343" lon="-1.52538">
        <ele>-0.19999999999999</ele>
        <time>2022-04-02T13:54:37Z</time>
      </trkpt>
      <trkpt lat="47.36322" lon="-1.52515">
        <ele>0.19999999999999</ele>
        <time>2022-04-02T13:54:43Z</time>
      </trkpt>
      <trkpt lat="47.36313" lon="-1.52501">
        <ele>0.39999999999998</ele>
        <time>2022-04-02T13:54:46Z</time>
      </trkpt>
      <trkpt lat="47.36308" lon="-1.52489">
        <ele>0.39999999999998</ele>
        <time>2022-04-02T13:54:48Z</time>
      </trkpt>
      <trkpt lat="47.36293" lon="-1.52452">
        <ele>0.60000000000002</ele>
        <time>2022-04-02T13:54:55Z</time>
      </trkpt>
      <trkpt lat="47.36288" lon="-1.52442">
        <ele>0.60000000000002</ele>
        <time>2022-04-02T13:54:57Z</time>
      </trkpt>
      <trkpt lat="47.36281" lon="-1.52426">
        <ele>0.80000000000001</ele>
        <time>2022-04-02T13:55:00Z</time>
      </trkpt>
      <trkpt lat="47.36266" lon="-1.52396">
        <ele>0.80000000000001</ele>
        <time>2022-04-02T13:55:06Z</time>
      </trkpt>
      <trkpt lat="47.36258" lon="-1.52379">
        <ele>0.80000000000001</ele>
        <time>2022-04-02T13:55:09Z</time>
      </trkpt>
      <trkpt lat="47.36254" lon="-1.52364">
        <ele>1.2</ele>
        <time>2022-04-02T13:55:11Z</time>
      </trkpt>
      <trkpt lat="47.3624" lon="-1.52317">
        <ele>1.2</ele>
        <time>2022-04-02T13:55:17Z</time>
      </trkpt>
      <trkpt lat="47.36234" lon="-1.52303">
        <ele>-0.19999999999999</ele>
        <time>2022-04-02T13:55:19Z</time>
      </trkpt>
      <trkpt lat="47.36225" lon="-1.52291">
        <ele>-0.60000000000002</ele>
        <time>2022-04-02T13:55:21Z</time>
      </trkpt>
      <trkpt lat="47.36214" lon="-1.52283">
        <ele>-0.80000000000001</ele>
        <time>2022-04-02T13:55:23Z</time>
      </trkpt>
      <trkpt lat="47.36203" lon="-1.52278">
        <ele>-1.2</ele>
        <time>2022-04-02T13:55:25Z</time>
      </trkpt>
      <trkpt lat="47.36189" lon="-1.52276">
        <ele>-1.4</ele>
        <time>2022-04-02T13:55:28Z</time>
      </trkpt>
      <trkpt lat="47.36183" lon="-1.52275">
        <ele>-1.4</ele>
        <time>2022-04-02T13:55:29Z</time>
      </trkpt>
      <trkpt lat="47.3615" lon="-1.52261">
        <ele>-1.4</ele>
        <time>2022-04-02T13:55:34Z</time>
      </trkpt>
      <trkpt lat="47.36106" lon="-1.52248">
        <ele>-1.8</ele>
        <time>2022-04-02T13:55:40Z</time>
      </trkpt>
      <trkpt lat="47.3607" lon="-1.52234">
        <ele>-2.6</ele>
        <time>2022-04-02T13:55:45Z</time>
      </trkpt>
      <trkpt lat="47.36064" lon="-1.52229">
        <ele>-2.6</ele>
        <time>2022-04-02T13:55:46Z</time>
      </trkpt>
      <trkpt lat="47.36059" lon="-1.52222">
        <ele>-2.6</ele>
        <time>2022-04-02T13:55:47Z</time>
      </trkpt>
      <trkpt lat="47.36049" lon="-1.52199">
        <ele>-2.6</ele>
        <time>2022-04-02T13:55:50Z</time>
      </trkpt>
      <trkpt lat="47.36025" lon="-1.52149">
        <ele>-2.6</ele>
        <time>2022-04-02T13:55:57Z</time>
      </trkpt>
      <trkpt lat="47.3602" lon="-1.52136">
        <ele>-2.4</ele>
        <time>2022-04-02T13:55:59Z</time>
      </trkpt>
      <trkpt lat="47.36011" lon="-1.52127">
        <ele>-2.6</ele>
        <time>2022-04-02T13:56:01Z</time>
      </trkpt>
      <trkpt lat="47.36001" lon="-1.52128">
        <ele>-2.6</ele>
        <time>2022-04-02T13:56:03Z</time>
      </trkpt>
      <trkpt lat="47.35997" lon="-1.5213">
        <ele>-2.4</ele>
        <time>2022-04-02T13:56:04Z</time>
      </trkpt>
      <trkpt lat="47.35976" lon="-1.52153">
        <ele>-2.2</ele>
        <time>2022-04-02T13:56:10Z</time>
      </trkpt>
      <trkpt lat="47.35959" lon="-1.52182">
        <ele>-2.2</ele>
        <time>2022-04-02T13:56:16Z</time>
      </trkpt>
      <trkpt lat="47.35934" lon="-1.52226">
        <ele>-1.8</ele>
        <time>2022-04-02T13:56:25Z</time>
      </trkpt>
      <trkpt lat="47.35919" lon="-1.52249">
        <ele>-1.6</ele>
        <time>2022-04-02T13:56:30Z</time>
      </trkpt>
      <trkpt lat="47.35915" lon="-1.52252">
        <ele>-1.4</ele>
        <time>2022-04-02T13:56:31Z</time>
      </trkpt>
      <trkpt lat="47.35911" lon="-1.52253">
        <ele>-1.4</ele>
        <time>2022-04-02T13:56:32Z</time>
      </trkpt>
      <trkpt lat="47.35902" lon="-1.52255">
        <ele>-1.2</ele>
        <time>2022-04-02T13:56:34Z</time>
      </trkpt>
      <trkpt lat="47.35884" lon="-1.52266">
        <ele>-0.60000000000002</ele>
        <time>2022-04-02T13:56:39Z</time>
      </trkpt>
      <trkpt lat="47.35865" lon="-1.52277">
        <ele>-0.60000000000002</ele>
        <time>2022-04-02T13:56:44Z</time>
      </trkpt>
      <trkpt lat="47.35853" lon="-1.52278">
        <ele>-0.60000000000002</ele>
        <time>2022-04-02T13:56:47Z</time>
      </trkpt>
      <trkpt lat="47.35846" lon="-1.52275">
        <ele>-0.60000000000002</ele>
        <time>2022-04-02T13:56:49Z</time>
      </trkpt>
      <trkpt lat="47.35825" lon="-1.52262">
        <ele>0.39999999999998</ele>
        <time>2022-04-02T13:56:54Z</time>
      </trkpt>
      <trkpt lat="47.3582" lon="-1.52259">
        <ele>0.39999999999998</ele>
        <time>2022-04-02T13:56:55Z</time>
      </trkpt>
      <trkpt lat="47.35798" lon="-1.52243">
        <ele>1</ele>
        <time>2022-04-02T13:57:00Z</time>
      </trkpt>
      <trkpt lat="47.35771" lon="-1.52225">
        <ele>1.4</ele>
        <time>2022-04-02T13:57:06Z</time>
      </trkpt>
      <trkpt lat="47.35748" lon="-1.52206">
        <ele>2.4</ele>
        <time>2022-04-02T13:57:11Z</time>
      </trkpt>
      <trkpt lat="47.35717" lon="-1.52183">
        <ele>3</ele>
        <time>2022-04-02T13:57:18Z</time>
      </trkpt>
      <trkpt lat="47.35685" lon="-1.52156">
        <ele>3.4</ele>
        <time>2022-04-02T13:57:26Z</time>
      </trkpt>
      <trkpt lat="47.35681" lon="-1.52153">
        <ele>3.6</ele>
        <time>2022-04-02T13:57:27Z</time>
      </trkpt>
      <trkpt lat="47.35669" lon="-1.52142">
        <ele>3.6</ele>
        <time>2022-04-02T13:57:30Z</time>
      </trkpt>
      <trkpt lat="47.35665" lon="-1.52139">
        <ele>3.8</ele>
        <time>2022-04-02T13:57:31Z</time>
      </trkpt>
      <trkpt lat="47.3565" lon="-1.52124">
        <ele>4</ele>
        <time>2022-04-02T13:57:35Z</time>
      </trkpt>
      <trkpt lat="47.35642" lon="-1.52119">
        <ele>4.2</ele>
        <time>2022-04-02T13:57:37Z</time>
      </trkpt>
      <trkpt lat="47.35634" lon="-1.52112">
        <ele>4.4</ele>
        <time>2022-04-02T13:57:40Z</time>
      </trkpt>
      <trkpt lat="47.35623" lon="-1.52104">
        <ele>4.4</ele>
        <time>2022-04-02T13:57:43Z</time>
      </trkpt>
      <trkpt lat="47.3562" lon="-1.52104">
        <ele>4.4</ele>
        <time>2022-04-02T13:57:44Z</time>
      </trkpt>
      <trkpt lat="47.3561" lon="-1.52117">
        <ele>4.2</ele>
        <time>2022-04-02T13:57:48Z</time>
      </trkpt>
      <trkpt lat="47.35591" lon="-1.52125">
        <ele>4.6</ele>
        <time>2022-04-02T13:57:53Z</time>
      </trkpt>
      <trkpt lat="47.3556" lon="-1.52136">
        <ele>3.4</ele>
        <time>2022-04-02T13:58:00Z</time>
      </trkpt>
      <trkpt lat="47.35552" lon="-1.52139">
        <ele>3.8</ele>
        <time>2022-04-02T13:58:02Z</time>
      </trkpt>
      <trkpt lat="47.35538" lon="-1.52141">
        <ele>3.8</ele>
        <time>2022-04-02T13:58:05Z</time>
      </trkpt>
      <trkpt lat="47.35533" lon="-1.52142">
        <ele>4</ele>
        <time>2022-04-02T13:58:06Z</time>
      </trkpt>
      <trkpt lat="47.35496" lon="-1.52151">
        <ele>4.4</ele>
        <time>2022-04-02T13:58:13Z</time>
      </trkpt>
      <trkpt lat="47.35469" lon="-1.52163">
        <ele>4.6</ele>
        <time>2022-04-02T13:58:18Z</time>
      </trkpt>
      <trkpt lat="47.35465" lon="-1.52168">
        <ele>4.2</ele>
        <time>2022-04-02T13:58:19Z</time>
      </trkpt>
      <trkpt lat="47.35461" lon="-1.52174">
        <ele>4.4</ele>
        <time>2022-04-02T13:58:20Z</time>
      </trkpt>
      <trkpt lat="47.35457" lon="-1.5219">
        <ele>4</ele>
        <time>2022-04-02T13:58:22Z</time>
      </trkpt>
      <trkpt lat="47.3545" lon="-1.52204">
        <ele>3.8</ele>
        <time>2022-04-02T13:58:24Z</time>
      </trkpt>
      <trkpt lat="47.35442" lon="-1.52217">
        <ele>3.6</ele>
        <time>2022-04-02T13:58:26Z</time>
      </trkpt>
      <trkpt lat="47.35425" lon="-1.52229">
        <ele>3.4</ele>
        <time>2022-04-02T13:58:29Z</time>
      </trkpt>
      <trkpt lat="47.35413" lon="-1.52234">
        <ele>3</ele>
        <time>2022-04-02T13:58:31Z</time>
      </trkpt>
      <trkpt lat="47.35406" lon="-1.52239">
        <ele>3</ele>
        <time>2022-04-02T13:58:32Z</time>
      </trkpt>
      <trkpt lat="47.35389" lon="-1.52247">
        <ele>2.6</ele>
        <time>2022-04-02T13:58:35Z</time>
      </trkpt>
      <trkpt lat="47.35369" lon="-1.52257">
        <ele>2.2</ele>
        <time>2022-04-02T13:58:38Z</time>
      </trkpt>
      <trkpt lat="47.35324" lon="-1.52288">
        <ele>1.6</ele>
        <time>2022-04-02T13:58:43Z</time>
      </trkpt>
      <trkpt lat="47.35293" lon="-1.52313">
        <ele>1.4</ele>
        <time>2022-04-02T13:58:47Z</time>
      </trkpt>
      <trkpt lat="47.35275" lon="-1.52316">
        <ele>1.4</ele>
        <time>2022-04-02T13:58:50Z</time>
      </trkpt>
      <trkpt lat="47.3527" lon="-1.52316">
        <ele>1.6</ele>
        <time>2022-04-02T13:58:51Z</time>
      </trkpt>
      <trkpt lat="47.3526" lon="-1.52316">
        <ele>1.8</ele>
        <time>2022-04-02T13:58:53Z</time>
      </trkpt>
      <trkpt lat="47.35254" lon="-1.52316">
        <ele>2</ele>
        <time>2022-04-02T13:58:54Z</time>
      </trkpt>
      <trkpt lat="47.35245" lon="-1.52315">
        <ele>0.80000000000001</ele>
        <time>2022-04-02T13:58:56Z</time>
      </trkpt>
      <trkpt lat="47.35237" lon="-1.52316">
        <ele>2</ele>
        <time>2022-04-02T13:58:58Z</time>
      </trkpt>
      <trkpt lat="47.35217" lon="-1.52313">
        <ele>2.8</ele>
        <time>2022-04-02T13:59:03Z</time>
      </trkpt>
      <trkpt lat="47.35204" lon="-1.52311">
        <ele>3.2</ele>
        <time>2022-04-02T13:59:07Z</time>
      </trkpt>
      <trkpt lat="47.35201" lon="-1.52312">
        <ele>3.2</ele>
        <time>2022-04-02T13:59:08Z</time>
      </trkpt>
      <trkpt lat="47.35188" lon="-1.5231">
        <ele>3.8</ele>
        <time>2022-04-02T13:59:13Z</time>
      </trkpt>
      <trkpt lat="47.35173" lon="-1.52308">
        <ele>4.2</ele>
        <time>2022-04-02T13:59:19Z</time>
      </trkpt>
      <trkpt lat="47.35162" lon="-1.52307">
        <ele>4.8</ele>
        <time>2022-04-02T13:59:24Z</time>
      </trkpt>
      <trkpt lat="47.35154" lon="-1.52305">
        <ele>5.4</ele>
        <time>2022-04-02T13:59:28Z</time>
      </trkpt>
      <trkpt lat="47.35146" lon="-1.52305">
        <ele>5.6</ele>
        <time>2022-04-02T13:59:31Z</time>
      </trkpt>
      <trkpt lat="47.35142" lon="-1.52307">
        <ele>6</ele>
        <time>2022-04-02T13:59:33Z</time>
      </trkpt>
      <trkpt lat="47.3514" lon="-1.52311">
        <ele>6.2</ele>
        <time>2022-04-02T13:59:35Z</time>
      </trkpt>
      <trkpt lat="47.35138" lon="-1.52315">
        <ele>6.2</ele>
        <time>2022-04-02T13:59:37Z</time>
      </trkpt>
      <trkpt lat="47.35136" lon="-1.52332">
        <ele>6.4</ele>
        <time>2022-04-02T13:59:42Z</time>
      </trkpt>
      <trkpt lat="47.35134" lon="-1.52355">
        <ele>6.8</ele>
        <time>2022-04-02T13:59:48Z</time>
      </trkpt>
      <trkpt lat="47.35131" lon="-1.52373">
        <ele>7</ele>
        <time>2022-04-02T13:59:53Z</time>
      </trkpt>
      <trkpt lat="47.35129" lon="-1.52381">
        <ele>7</ele>
        <time>2022-04-02T13:59:56Z</time>
      </trkpt>
      <trkpt lat="47.35128" lon="-1.52386">
        <ele>7</ele>
        <time>2022-04-02T13:59:57Z</time>
      </trkpt>
      <trkpt lat="47.35122" lon="-1.5241">
        <ele>7</ele>
        <time>2022-04-02T14:00:03Z</time>
      </trkpt>
      <trkpt lat="47.3511" lon="-1.52434">
        <ele>7.6</ele>
        <time>2022-04-02T14:00:09Z</time>
      </trkpt>
      <trkpt lat="47.35093" lon="-1.52451">
        <ele>8.4</ele>
        <time>2022-04-02T14:00:15Z</time>
      </trkpt>
      <trkpt lat="47.35069" lon="-1.52467">
        <ele>9.4</ele>
        <time>2022-04-02T14:00:22Z</time>
      </trkpt>
      <trkpt lat="47.35066" lon="-1.52469">
        <ele>9.4</ele>
        <time>2022-04-02T14:00:23Z</time>
      </trkpt>
      <trkpt lat="47.35042" lon="-1.52484">
        <ele>9.4</ele>
        <time>2022-04-02T14:00:29Z</time>
      </trkpt>
      <trkpt lat="47.35027" lon="-1.52491">
        <ele>9.2</ele>
        <time>2022-04-02T14:00:33Z</time>
      </trkpt>
      <trkpt lat="47.35024" lon="-1.52494">
        <ele>9.2</ele>
        <time>2022-04-02T14:00:34Z</time>
      </trkpt>
      <trkpt lat="47.35019" lon="-1.52497">
        <ele>9.2</ele>
        <time>2022-04-02T14:00:35Z</time>
      </trkpt>
      <trkpt lat="47.3501" lon="-1.52505">
        <ele>9.2</ele>
        <time>2022-04-02T14:00:37Z</time>
      </trkpt>
      <trkpt lat="47.35005" lon="-1.52509">
        <ele>9.2</ele>
        <time>2022-04-02T14:00:38Z</time>
      </trkpt>
      <trkpt lat="47.34981" lon="-1.52528">
        <ele>9</ele>
        <time>2022-04-02T14:00:43Z</time>
      </trkpt>
      <trkpt lat="47.34977" lon="-1.52532">
        <ele>8.6</ele>
        <time>2022-04-02T14:00:44Z</time>
      </trkpt>
      <trkpt lat="47.34964" lon="-1.5254">
        <ele>8.8</ele>
        <time>2022-04-02T14:00:47Z</time>
      </trkpt>
      <trkpt lat="47.34959" lon="-1.52543">
        <ele>8.8</ele>
        <time>2022-04-02T14:00:48Z</time>
      </trkpt>
      <trkpt lat="47.34953" lon="-1.52544">
        <ele>8.8</ele>
        <time>2022-04-02T14:00:49Z</time>
      </trkpt>
      <trkpt lat="47.3494" lon="-1.5254">
        <ele>8.8</ele>
        <time>2022-04-02T14:00:52Z</time>
      </trkpt>
      <trkpt lat="47.34915" lon="-1.52526">
        <ele>9.4</ele>
        <time>2022-04-02T14:00:58Z</time>
      </trkpt>
      <trkpt lat="47.34884" lon="-1.52524">
        <ele>10</ele>
        <time>2022-04-02T14:01:05Z</time>
      </trkpt>
      <trkpt lat="47.3487" lon="-1.52522">
        <ele>10</ele>
        <time>2022-04-02T14:01:08Z</time>
      </trkpt>
      <trkpt lat="47.34859" lon="-1.5252">
        <ele>10</ele>
        <time>2022-04-02T14:01:10Z</time>
      </trkpt>
      <trkpt lat="47.34825" lon="-1.52517">
        <ele>9.8</ele>
        <time>2022-04-02T14:01:16Z</time>
      </trkpt>
      <trkpt lat="47.348" lon="-1.52512">
        <ele>9.8</ele>
        <time>2022-04-02T14:01:21Z</time>
      </trkpt>
      <trkpt lat="47.34795" lon="-1.52511">
        <ele>9.8</ele>
        <time>2022-04-02T14:01:22Z</time>
      </trkpt>
      <trkpt lat="47.34786" lon="-1.52504">
        <ele>9.8</ele>
        <time>2022-04-02T14:01:24Z</time>
      </trkpt>
      <trkpt lat="47.34779" lon="-1.5248">
        <ele>9.8</ele>
        <time>2022-04-02T14:01:27Z</time>
      </trkpt>
      <trkpt lat="47.34776" lon="-1.52461">
        <ele>9.4</ele>
        <time>2022-04-02T14:01:29Z</time>
      </trkpt>
      <trkpt lat="47.34773" lon="-1.52442">
        <ele>9.2</ele>
        <time>2022-04-02T14:01:31Z</time>
      </trkpt>
      <trkpt lat="47.3477" lon="-1.52434">
        <ele>8.8</ele>
        <time>2022-04-02T14:01:33Z</time>
      </trkpt>
      <trkpt lat="47.34769" lon="-1.52433">
        <ele>8.6</ele>
        <time>2022-04-02T14:01:34Z</time>
      </trkpt>
      <trkpt lat="47.34767" lon="-1.52431">
        <ele>8.2</ele>
        <time>2022-04-02T14:01:36Z</time>
      </trkpt>
      <trkpt lat="47.34761" lon="-1.52429">
        <ele>7.4</ele>
        <time>2022-04-02T14:01:57Z</time>
      </trkpt>
      <trkpt lat="47.34759" lon="-1.5243">
        <ele>7.4</ele>
        <time>2022-04-02T14:01:58Z</time>
      </trkpt>
      <trkpt lat="47.34753" lon="-1.52431">
        <ele>7.4</ele>
        <time>2022-04-02T14:02:00Z</time>
      </trkpt>
      <trkpt lat="47.34749" lon="-1.5243">
        <ele>7.2</ele>
        <time>2022-04-02T14:02:01Z</time>
      </trkpt>
      <trkpt lat="47.34718" lon="-1.52428">
        <ele>6.8</ele>
        <time>2022-04-02T14:02:07Z</time>
      </trkpt>
      <trkpt lat="47.3469" lon="-1.52426">
        <ele>6.8</ele>
        <time>2022-04-02T14:02:12Z</time>
      </trkpt>
      <trkpt lat="47.34662" lon="-1.52427">
        <ele>6.8</ele>
        <time>2022-04-02T14:02:17Z</time>
      </trkpt>
      <trkpt lat="47.34657" lon="-1.52428">
        <ele>6.8</ele>
        <time>2022-04-02T14:02:18Z</time>
      </trkpt>
      <trkpt lat="47.34626" lon="-1.52429">
        <ele>6.8</ele>
        <time>2022-04-02T14:02:24Z</time>
      </trkpt>
      <trkpt lat="47.34615" lon="-1.5243">
        <ele>6.6</ele>
        <time>2022-04-02T14:02:26Z</time>
      </trkpt>
      <trkpt lat="47.34608" lon="-1.52435">
        <ele>6.4</ele>
        <time>2022-04-02T14:02:28Z</time>
      </trkpt>
      <trkpt lat="47.34591" lon="-1.52456">
        <ele>6</ele>
        <time>2022-04-02T14:02:33Z</time>
      </trkpt>
      <trkpt lat="47.34581" lon="-1.52469">
        <ele>5.8</ele>
        <time>2022-04-02T14:02:36Z</time>
      </trkpt>
      <trkpt lat="47.34577" lon="-1.52473">
        <ele>5.8</ele>
        <time>2022-04-02T14:02:37Z</time>
      </trkpt>
      <trkpt lat="47.34564" lon="-1.52488">
        <ele>5.6</ele>
        <time>2022-04-02T14:02:41Z</time>
      </trkpt>
      <trkpt lat="47.34547" lon="-1.5251">
        <ele>5.6</ele>
        <time>2022-04-02T14:02:45Z</time>
      </trkpt>
      <trkpt lat="47.34543" lon="-1.52516">
        <ele>5.4</ele>
        <time>2022-04-02T14:02:46Z</time>
      </trkpt>
      <trkpt lat="47.34539" lon="-1.52522">
        <ele>5.4</ele>
        <time>2022-04-02T14:02:47Z</time>
      </trkpt>
      <trkpt lat="47.34529" lon="-1.5253">
        <ele>5.2</ele>
        <time>2022-04-02T14:02:49Z</time>
      </trkpt>
      <trkpt lat="47.34519" lon="-1.52536">
        <ele>5.2</ele>
        <time>2022-04-02T14:02:51Z</time>
      </trkpt>
      <trkpt lat="47.34509" lon="-1.52545">
        <ele>5</ele>
        <time>2022-04-02T14:02:53Z</time>
      </trkpt>
      <trkpt lat="47.34498" lon="-1.52563">
        <ele>4.8</ele>
        <time>2022-04-02T14:02:56Z</time>
      </trkpt>
      <trkpt lat="47.34491" lon="-1.52576">
        <ele>4.6</ele>
        <time>2022-04-02T14:02:58Z</time>
      </trkpt>
      <trkpt lat="47.34488" lon="-1.52582">
        <ele>4.4</ele>
        <time>2022-04-02T14:02:59Z</time>
      </trkpt>
      <trkpt lat="47.34477" lon="-1.526">
        <ele>4</ele>
        <time>2022-04-02T14:03:02Z</time>
      </trkpt>
      <trkpt lat="47.34473" lon="-1.52605">
        <ele>3.8</ele>
        <time>2022-04-02T14:03:03Z</time>
      </trkpt>
      <trkpt lat="47.34451" lon="-1.52642">
        <ele>2.8</ele>
        <time>2022-04-02T14:03:09Z</time>
      </trkpt>
      <trkpt lat="47.34426" lon="-1.52683">
        <ele>1.8</ele>
        <time>2022-04-02T14:03:16Z</time>
      </trkpt>
      <trkpt lat="47.34396" lon="-1.5272">
        <ele>1.4</ele>
        <time>2022-04-02T14:03:23Z</time>
      </trkpt>
      <trkpt lat="47.34385" lon="-1.52736">
        <ele>0.80000000000001</ele>
        <time>2022-04-02T14:03:26Z</time>
      </trkpt>
      <trkpt lat="47.34376" lon="-1.52748">
        <ele>0.39999999999998</ele>
        <time>2022-04-02T14:03:29Z</time>
      </trkpt>
      <trkpt lat="47.34366" lon="-1.52762">
        <ele>0.19999999999999</ele>
        <time>2022-04-02T14:03:34Z</time>
      </trkpt>
      <trkpt lat="47.34365" lon="-1.52764">
        <ele>0.19999999999999</ele>
        <time>2022-04-02T14:03:35Z</time>
      </trkpt>
      <trkpt lat="47.34356" lon="-1.5278">
        <ele>-0.39999999999998</ele>
        <time>2022-04-02T14:03:41Z</time>
      </trkpt>
      <trkpt lat="47.34356" lon="-1.52781">
        <ele>0.39999999999998</ele>
        <time>2022-04-02T14:03:42Z</time>
      </trkpt>
      <trkpt lat="47.34358" lon="-1.52793">
        <ele>3</ele>
        <time>2022-04-02T14:06:19Z</time>
      </trkpt>
      <trkpt lat="47.3436" lon="-1.52795">
        <ele>3</ele>
        <time>2022-04-02T14:06:20Z</time>
      </trkpt>
      <trkpt lat="47.34378" lon="-1.52812">
        <ele>3.8</ele>
        <time>2022-04-02T14:06:27Z</time>
      </trkpt>
      <trkpt lat="47.34396" lon="-1.52829">
        <ele>4.4</ele>
        <time>2022-04-02T14:06:33Z</time>
      </trkpt>
      <trkpt lat="47.344" lon="-1.52833">
        <ele>4.6</ele>
        <time>2022-04-02T14:06:34Z</time>
      </trkpt>
      <trkpt lat="47.34403" lon="-1.52837">
        <ele>4.6</ele>
        <time>2022-04-02T14:06:35Z</time>
      </trkpt>
      <trkpt lat="47.34407" lon="-1.52848">
        <ele>4.8</ele>
        <time>2022-04-02T14:06:37Z</time>
      </trkpt>
      <trkpt lat="47.34403" lon="-1.52858">
        <ele>5</ele>
        <time>2022-04-02T14:06:39Z</time>
      </trkpt>
      <trkpt lat="47.344" lon="-1.52862">
        <ele>5</ele>
        <time>2022-04-02T14:06:40Z</time>
      </trkpt>
      <trkpt lat="47.34393" lon="-1.52869">
        <ele>5.2</ele>
        <time>2022-04-02T14:06:42Z</time>
      </trkpt>
      <trkpt lat="47.34377" lon="-1.52884">
        <ele>5.6</ele>
        <time>2022-04-02T14:06:46Z</time>
      </trkpt>
      <trkpt lat="47.34351" lon="-1.52914">
        <ele>6.4</ele>
        <time>2022-04-02T14:06:53Z</time>
      </trkpt>
      <trkpt lat="47.34316" lon="-1.52948">
        <ele>7</ele>
        <time>2022-04-02T14:07:01Z</time>
      </trkpt>
      <trkpt lat="47.34274" lon="-1.52991">
        <ele>7.8</ele>
        <time>2022-04-02T14:07:10Z</time>
      </trkpt>
      <trkpt lat="47.34231" lon="-1.53033">
        <ele>8.4</ele>
        <time>2022-04-02T14:07:19Z</time>
      </trkpt>
      <trkpt lat="47.34227" lon="-1.53038">
        <ele>8.6</ele>
        <time>2022-04-02T14:07:20Z</time>
      </trkpt>
      <trkpt lat="47.34219" lon="-1.53049">
        <ele>8.8</ele>
        <time>2022-04-02T14:07:22Z</time>
      </trkpt>
      <trkpt lat="47.3419" lon="-1.53079">
        <ele>9</ele>
        <time>2022-04-02T14:07:28Z</time>
      </trkpt>
      <trkpt lat="47.34151" lon="-1.53108">
        <ele>9.2</ele>
        <time>2022-04-02T14:07:35Z</time>
      </trkpt>
      <trkpt lat="47.34138" lon="-1.53112">
        <ele>9.2</ele>
        <time>2022-04-02T14:07:37Z</time>
      </trkpt>
      <trkpt lat="47.34123" lon="-1.53112">
        <ele>9.2</ele>
        <time>2022-04-02T14:07:39Z</time>
      </trkpt>
      <trkpt lat="47.34074" lon="-1.53103">
        <ele>9</ele>
        <time>2022-04-02T14:07:45Z</time>
      </trkpt>
      <trkpt lat="47.34017" lon="-1.53102">
        <ele>8.2</ele>
        <time>2022-04-02T14:07:52Z</time>
      </trkpt>
      <trkpt lat="47.34004" lon="-1.53115">
        <ele>8.2</ele>
        <time>2022-04-02T14:07:54Z</time>
      </trkpt>
      <trkpt lat="47.33994" lon="-1.53133">
        <ele>8</ele>
        <time>2022-04-02T14:07:56Z</time>
      </trkpt>
      <trkpt lat="47.33988" lon="-1.53151">
        <ele>8</ele>
        <time>2022-04-02T14:07:58Z</time>
      </trkpt>
      <trkpt lat="47.33985" lon="-1.53159">
        <ele>8</ele>
        <time>2022-04-02T14:07:59Z</time>
      </trkpt>
      <trkpt lat="47.33974" lon="-1.5318">
        <ele>8</ele>
        <time>2022-04-02T14:08:02Z</time>
      </trkpt>
      <trkpt lat="47.33949" lon="-1.5321">
        <ele>8</ele>
        <time>2022-04-02T14:08:08Z</time>
      </trkpt>
      <trkpt lat="47.33935" lon="-1.53228">
        <ele>8</ele>
        <time>2022-04-02T14:08:12Z</time>
      </trkpt>
      <trkpt lat="47.33928" lon="-1.53236">
        <ele>8</ele>
        <time>2022-04-02T14:08:14Z</time>
      </trkpt>
      <trkpt lat="47.33915" lon="-1.53252">
        <ele>7.6</ele>
        <time>2022-04-02T14:08:18Z</time>
      </trkpt>
      <trkpt lat="47.33909" lon="-1.5326">
        <ele>7.8</ele>
        <time>2022-04-02T14:08:20Z</time>
      </trkpt>
      <trkpt lat="47.33891" lon="-1.53284">
        <ele>8</ele>
        <time>2022-04-02T14:08:27Z</time>
      </trkpt>
      <trkpt lat="47.33877" lon="-1.53301">
        <ele>8.2</ele>
        <time>2022-04-02T14:08:33Z</time>
      </trkpt>
      <trkpt lat="47.33858" lon="-1.53327">
        <ele>8.4</ele>
        <time>2022-04-02T14:08:39Z</time>
      </trkpt>
      <trkpt lat="47.33837" lon="-1.53352">
        <ele>8.4</ele>
        <time>2022-04-02T14:08:44Z</time>
      </trkpt>
      <trkpt lat="47.33799" lon="-1.53389">
        <ele>8.6</ele>
        <time>2022-04-02T14:08:52Z</time>
      </trkpt>
      <trkpt lat="47.33761" lon="-1.53423">
        <ele>8.6</ele>
        <time>2022-04-02T14:08:59Z</time>
      </trkpt>
      <trkpt lat="47.33722" lon="-1.53456">
        <ele>8.2</ele>
        <time>2022-04-02T14:09:05Z</time>
      </trkpt>
      <trkpt lat="47.33708" lon="-1.53466">
        <ele>8</ele>
        <time>2022-04-02T14:09:07Z</time>
      </trkpt>
      <trkpt lat="47.33694" lon="-1.53474">
        <ele>8</ele>
        <time>2022-04-02T14:09:09Z</time>
      </trkpt>
      <trkpt lat="47.33659" lon="-1.53486">
        <ele>8</ele>
        <time>2022-04-02T14:09:14Z</time>
      </trkpt>
      <trkpt lat="47.33628" lon="-1.53492">
        <ele>8.6</ele>
        <time>2022-04-02T14:09:19Z</time>
      </trkpt>
      <trkpt lat="47.33581" lon="-1.53491">
        <ele>8.6</ele>
        <time>2022-04-02T14:09:27Z</time>
      </trkpt>
      <trkpt lat="47.33532" lon="-1.53491">
        <ele>9</ele>
        <time>2022-04-02T14:09:36Z</time>
      </trkpt>
      <trkpt lat="47.3349" lon="-1.53492">
        <ele>9.4</ele>
        <time>2022-04-02T14:09:45Z</time>
      </trkpt>
      <trkpt lat="47.33486" lon="-1.53492">
        <ele>9.4</ele>
        <time>2022-04-02T14:09:46Z</time>
      </trkpt>
      <trkpt lat="47.33469" lon="-1.53486">
        <ele>9.6</ele>
        <time>2022-04-02T14:09:50Z</time>
      </trkpt>
      <trkpt lat="47.33452" lon="-1.53488">
        <ele>9.8</ele>
        <time>2022-04-02T14:09:54Z</time>
      </trkpt>
      <trkpt lat="47.33435" lon="-1.53491">
        <ele>10.2</ele>
        <time>2022-04-02T14:09:58Z</time>
      </trkpt>
      <trkpt lat="47.33427" lon="-1.53493">
        <ele>10.4</ele>
        <time>2022-04-02T14:10:00Z</time>
      </trkpt>
      <trkpt lat="47.33418" lon="-1.53495">
        <ele>10.4</ele>
        <time>2022-04-02T14:10:02Z</time>
      </trkpt>
      <trkpt lat="47.33401" lon="-1.53499">
        <ele>10.8</ele>
        <time>2022-04-02T14:10:06Z</time>
      </trkpt>
      <trkpt lat="47.33367" lon="-1.53506">
        <ele>11.6</ele>
        <time>2022-04-02T14:10:14Z</time>
      </trkpt>
      <trkpt lat="47.33332" lon="-1.5352">
        <ele>12.2</ele>
        <time>2022-04-02T14:10:22Z</time>
      </trkpt>
      <trkpt lat="47.33295" lon="-1.53535">
        <ele>12.8</ele>
        <time>2022-04-02T14:10:30Z</time>
      </trkpt>
      <trkpt lat="47.3326" lon="-1.53547">
        <ele>13.4</ele>
        <time>2022-04-02T14:10:38Z</time>
      </trkpt>
      <trkpt lat="47.33255" lon="-1.53539">
        <ele>13.6</ele>
        <time>2022-04-02T14:10:40Z</time>
      </trkpt>
      <trkpt lat="47.33253" lon="-1.53533">
        <ele>13.6</ele>
        <time>2022-04-02T14:10:41Z</time>
      </trkpt>
      <trkpt lat="47.33253" lon="-1.53525">
        <ele>13.6</ele>
        <time>2022-04-02T14:10:42Z</time>
      </trkpt>
      <trkpt lat="47.33249" lon="-1.53511">
        <ele>13.6</ele>
        <time>2022-04-02T14:10:44Z</time>
      </trkpt>
      <trkpt lat="47.33245" lon="-1.53506">
        <ele>13.6</ele>
        <time>2022-04-02T14:10:45Z</time>
      </trkpt>
      <trkpt lat="47.3324" lon="-1.53503">
        <ele>13.6</ele>
        <time>2022-04-02T14:10:46Z</time>
      </trkpt>
      <trkpt lat="47.33225" lon="-1.53497">
        <ele>13.6</ele>
        <time>2022-04-02T14:10:49Z</time>
      </trkpt>
      <trkpt lat="47.3322" lon="-1.53496">
        <ele>13.6</ele>
        <time>2022-04-02T14:10:50Z</time>
      </trkpt>
      <trkpt lat="47.33208" lon="-1.53491">
        <ele>13.4</ele>
        <time>2022-04-02T14:10:52Z</time>
      </trkpt>
      <trkpt lat="47.33177" lon="-1.53479">
        <ele>13.6</ele>
        <time>2022-04-02T14:10:57Z</time>
      </trkpt>
      <trkpt lat="47.3317" lon="-1.53478">
        <ele>13.4</ele>
        <time>2022-04-02T14:10:58Z</time>
      </trkpt>
      <trkpt lat="47.3314" lon="-1.53468">
        <ele>12.6</ele>
        <time>2022-04-02T14:11:03Z</time>
      </trkpt>
      <trkpt lat="47.33131" lon="-1.53473">
        <ele>12.4</ele>
        <time>2022-04-02T14:11:05Z</time>
      </trkpt>
      <trkpt lat="47.33119" lon="-1.53475">
        <ele>11.8</ele>
        <time>2022-04-02T14:11:07Z</time>
      </trkpt>
      <trkpt lat="47.33095" lon="-1.53475">
        <ele>11</ele>
        <time>2022-04-02T14:11:10Z</time>
      </trkpt>
      <trkpt lat="47.33076" lon="-1.53477">
        <ele>10.4</ele>
        <time>2022-04-02T14:11:12Z</time>
      </trkpt>
      <trkpt lat="47.33058" lon="-1.53483">
        <ele>9.6</ele>
        <time>2022-04-02T14:11:14Z</time>
      </trkpt>
      <trkpt lat="47.33042" lon="-1.53486">
        <ele>9</ele>
        <time>2022-04-02T14:11:16Z</time>
      </trkpt>
      <trkpt lat="47.33029" lon="-1.53486">
        <ele>8.4</ele>
        <time>2022-04-02T14:11:18Z</time>
      </trkpt>
      <trkpt lat="47.33016" lon="-1.53487">
        <ele>8</ele>
        <time>2022-04-02T14:11:21Z</time>
      </trkpt>
      <trkpt lat="47.33012" lon="-1.5349">
        <ele>8</ele>
        <time>2022-04-02T14:11:22Z</time>
      </trkpt>
      <trkpt lat="47.32989" lon="-1.53512">
        <ele>7.6</ele>
        <time>2022-04-02T14:11:27Z</time>
      </trkpt>
      <trkpt lat="47.32973" lon="-1.53524">
        <ele>7.2</ele>
        <time>2022-04-02T14:11:30Z</time>
      </trkpt>
      <trkpt lat="47.32961" lon="-1.53528">
        <ele>7</ele>
        <time>2022-04-02T14:11:32Z</time>
      </trkpt>
      <trkpt lat="47.32945" lon="-1.53533">
        <ele>6.6</ele>
        <time>2022-04-02T14:11:35Z</time>
      </trkpt>
      <trkpt lat="47.32934" lon="-1.53537">
        <ele>6.4</ele>
        <time>2022-04-02T14:11:37Z</time>
      </trkpt>
      <trkpt lat="47.32911" lon="-1.53551">
        <ele>5.6</ele>
        <time>2022-04-02T14:11:42Z</time>
      </trkpt>
      <trkpt lat="47.32898" lon="-1.53558">
        <ele>5.4</ele>
        <time>2022-04-02T14:11:45Z</time>
      </trkpt>
      <trkpt lat="47.32885" lon="-1.53563">
        <ele>5.2</ele>
        <time>2022-04-02T14:11:48Z</time>
      </trkpt>
      <trkpt lat="47.3287" lon="-1.53576">
        <ele>5</ele>
        <time>2022-04-02T14:11:53Z</time>
      </trkpt>
      <trkpt lat="47.32853" lon="-1.53592">
        <ele>5</ele>
        <time>2022-04-02T14:11:58Z</time>
      </trkpt>
      <trkpt lat="47.32842" lon="-1.53602">
        <ele>5.2</ele>
        <time>2022-04-02T14:12:00Z</time>
      </trkpt>
      <trkpt lat="47.3283" lon="-1.53615">
        <ele>6</ele>
        <time>2022-04-02T14:12:05Z</time>
      </trkpt>
      <trkpt lat="47.3283" lon="-1.53623">
        <ele>6</ele>
        <time>2022-04-02T14:12:07Z</time>
      </trkpt>
      <trkpt lat="47.32831" lon="-1.53626">
        <ele>6</ele>
        <time>2022-04-02T14:12:08Z</time>
      </trkpt>
      <trkpt lat="47.32839" lon="-1.53645">
        <ele>6.2</ele>
        <time>2022-04-02T14:12:13Z</time>
      </trkpt>
      <trkpt lat="47.32849" lon="-1.5366">
        <ele>6.2</ele>
        <time>2022-04-02T14:12:17Z</time>
      </trkpt>
      <trkpt lat="47.3285" lon="-1.53664">
        <ele>6</ele>
        <time>2022-04-02T14:12:18Z</time>
      </trkpt>
      <trkpt lat="47.32852" lon="-1.53671">
        <ele>5.8</ele>
        <time>2022-04-02T14:12:20Z</time>
      </trkpt>
      <trkpt lat="47.32849" lon="-1.53672">
        <ele>6.2</ele>
        <time>2022-04-02T14:12:22Z</time>
      </trkpt>
      <trkpt lat="47.32843" lon="-1.53674">
        <ele>5.2</ele>
        <time>2022-04-02T14:12:24Z</time>
      </trkpt>
      <trkpt lat="47.32817" lon="-1.53681">
        <ele>6.4</ele>
        <time>2022-04-02T14:12:31Z</time>
      </trkpt>
      <trkpt lat="47.32787" lon="-1.53685">
        <ele>6.8</ele>
        <time>2022-04-02T14:12:40Z</time>
      </trkpt>
      <trkpt lat="47.32764" lon="-1.53689">
        <ele>7.4</ele>
        <time>2022-04-02T14:12:47Z</time>
      </trkpt>
      <trkpt lat="47.32743" lon="-1.53695">
        <ele>8</ele>
        <time>2022-04-02T14:12:54Z</time>
      </trkpt>
      <trkpt lat="47.32728" lon="-1.53698">
        <ele>8.6</ele>
        <time>2022-04-02T14:12:59Z</time>
      </trkpt>
      <trkpt lat="47.32705" lon="-1.53699">
        <ele>9.2</ele>
        <time>2022-04-02T14:13:06Z</time>
      </trkpt>
      <trkpt lat="47.32682" lon="-1.53696">
        <ele>9.8</ele>
        <time>2022-04-02T14:13:13Z</time>
      </trkpt>
      <trkpt lat="47.32668" lon="-1.53694">
        <ele>10.2</ele>
        <time>2022-04-02T14:13:18Z</time>
      </trkpt>
      <trkpt lat="47.32653" lon="-1.53695">
        <ele>10.6</ele>
        <time>2022-04-02T14:13:23Z</time>
      </trkpt>
      <trkpt lat="47.32643" lon="-1.53693">
        <ele>10.8</ele>
        <time>2022-04-02T14:13:26Z</time>
      </trkpt>
      <trkpt lat="47.32639" lon="-1.53693">
        <ele>11</ele>
        <time>2022-04-02T14:13:27Z</time>
      </trkpt>
      <trkpt lat="47.32622" lon="-1.53687">
        <ele>11.2</ele>
        <time>2022-04-02T14:13:32Z</time>
      </trkpt>
      <trkpt lat="47.32596" lon="-1.53678">
        <ele>11.4</ele>
        <time>2022-04-02T14:13:39Z</time>
      </trkpt>
      <trkpt lat="47.32569" lon="-1.53666">
        <ele>11.4</ele>
        <time>2022-04-02T14:13:45Z</time>
      </trkpt>
      <trkpt lat="47.32525" lon="-1.53645">
        <ele>11.4</ele>
        <time>2022-04-02T14:13:53Z</time>
      </trkpt>
      <trkpt lat="47.32469" lon="-1.53617">
        <ele>11.8</ele>
        <time>2022-04-02T14:14:02Z</time>
      </trkpt>
      <trkpt lat="47.32414" lon="-1.53592">
        <ele>12.2</ele>
        <time>2022-04-02T14:14:10Z</time>
      </trkpt>
      <trkpt lat="47.3237" lon="-1.5357">
        <ele>12.4</ele>
        <time>2022-04-02T14:14:16Z</time>
      </trkpt>
      <trkpt lat="47.32338" lon="-1.53556">
        <ele>12.2</ele>
        <time>2022-04-02T14:14:21Z</time>
      </trkpt>
      <trkpt lat="47.3232" lon="-1.53549">
        <ele>12.2</ele>
        <time>2022-04-02T14:14:24Z</time>
      </trkpt>
      <trkpt lat="47.32313" lon="-1.53544">
        <ele>12.6</ele>
        <time>2022-04-02T14:14:25Z</time>
      </trkpt>
      <trkpt lat="47.32278" lon="-1.53522">
        <ele>11.4</ele>
        <time>2022-04-02T14:14:29Z</time>
      </trkpt>
      <trkpt lat="47.32257" lon="-1.5351">
        <ele>11.4</ele>
        <time>2022-04-02T14:14:32Z</time>
      </trkpt>
      <trkpt lat="47.32247" lon="-1.53507">
        <ele>11.2</ele>
        <time>2022-04-02T14:14:35Z</time>
      </trkpt>
      <trkpt lat="47.32246" lon="-1.53511">
        <ele>11</ele>
        <time>2022-04-02T14:14:36Z</time>
      </trkpt>
      <trkpt lat="47.32247" lon="-1.53523">
        <ele>11</ele>
        <time>2022-04-02T14:14:38Z</time>
      </trkpt>
      <trkpt lat="47.32248" lon="-1.53538">
        <ele>10.8</ele>
        <time>2022-04-02T14:14:40Z</time>
      </trkpt>
      <trkpt lat="47.32247" lon="-1.53564">
        <ele>10.4</ele>
        <time>2022-04-02T14:14:43Z</time>
      </trkpt>
      <trkpt lat="47.32243" lon="-1.53572">
        <ele>10.4</ele>
        <time>2022-04-02T14:14:44Z</time>
      </trkpt>
      <trkpt lat="47.32238" lon="-1.53578">
        <ele>10.4</ele>
        <time>2022-04-02T14:14:45Z</time>
      </trkpt>
      <trkpt lat="47.32234" lon="-1.53582">
        <ele>10.4</ele>
        <time>2022-04-02T14:14:46Z</time>
      </trkpt>
      <trkpt lat="47.3223" lon="-1.53586">
        <ele>10.2</ele>
        <time>2022-04-02T14:14:47Z</time>
      </trkpt>
      <trkpt lat="47.32221" lon="-1.53588">
        <ele>10.2</ele>
        <time>2022-04-02T14:14:49Z</time>
      </trkpt>
      <trkpt lat="47.32212" lon="-1.53584">
        <ele>10.2</ele>
        <time>2022-04-02T14:14:51Z</time>
      </trkpt>
      <trkpt lat="47.32203" lon="-1.53584">
        <ele>10.2</ele>
        <time>2022-04-02T14:14:53Z</time>
      </trkpt>
      <trkpt lat="47.32198" lon="-1.53584">
        <ele>10.2</ele>
        <time>2022-04-02T14:14:54Z</time>
      </trkpt>
      <trkpt lat="47.32174" lon="-1.53584">
        <ele>10</ele>
        <time>2022-04-02T14:14:58Z</time>
      </trkpt>
      <trkpt lat="47.32131" lon="-1.53586">
        <ele>9.6</ele>
        <time>2022-04-02T14:15:05Z</time>
      </trkpt>
      <trkpt lat="47.32101" lon="-1.53595">
        <ele>9.4</ele>
        <time>2022-04-02T14:15:10Z</time>
      </trkpt>
      <trkpt lat="47.32095" lon="-1.53599">
        <ele>9.6</ele>
        <time>2022-04-02T14:15:11Z</time>
      </trkpt>
      <trkpt lat="47.32078" lon="-1.53612">
        <ele>9.4</ele>
        <time>2022-04-02T14:15:14Z</time>
      </trkpt>
      <trkpt lat="47.32073" lon="-1.53618">
        <ele>9.4</ele>
        <time>2022-04-02T14:15:15Z</time>
      </trkpt>
      <trkpt lat="47.32065" lon="-1.53633">
        <ele>9.4</ele>
        <time>2022-04-02T14:15:17Z</time>
      </trkpt>
      <trkpt lat="47.32061" lon="-1.53659">
        <ele>9.2</ele>
        <time>2022-04-02T14:15:20Z</time>
      </trkpt>
      <trkpt lat="47.32058" lon="-1.53677">
        <ele>9</ele>
        <time>2022-04-02T14:15:22Z</time>
      </trkpt>
      <trkpt lat="47.32052" lon="-1.53695">
        <ele>8.8</ele>
        <time>2022-04-02T14:15:24Z</time>
      </trkpt>
      <trkpt lat="47.32048" lon="-1.53702">
        <ele>8.8</ele>
        <time>2022-04-02T14:15:25Z</time>
      </trkpt>
      <trkpt lat="47.32043" lon="-1.53708">
        <ele>8.8</ele>
        <time>2022-04-02T14:15:26Z</time>
      </trkpt>
      <trkpt lat="47.32025" lon="-1.53724">
        <ele>8.4</ele>
        <time>2022-04-02T14:15:29Z</time>
      </trkpt>
      <trkpt lat="47.32003" lon="-1.53738">
        <ele>8</ele>
        <time>2022-04-02T14:15:33Z</time>
      </trkpt>
      <trkpt lat="47.31998" lon="-1.53743">
        <ele>7.8</ele>
        <time>2022-04-02T14:15:34Z</time>
      </trkpt>
      <trkpt lat="47.31995" lon="-1.53749">
        <ele>7.8</ele>
        <time>2022-04-02T14:15:35Z</time>
      </trkpt>
      <trkpt lat="47.31986" lon="-1.53763">
        <ele>7.6</ele>
        <time>2022-04-02T14:15:37Z</time>
      </trkpt>
      <trkpt lat="47.3197" lon="-1.53777">
        <ele>7.8</ele>
        <time>2022-04-02T14:15:40Z</time>
      </trkpt>
      <trkpt lat="47.31965" lon="-1.53783">
        <ele>7.8</ele>
        <time>2022-04-02T14:15:41Z</time>
      </trkpt>
      <trkpt lat="47.31962" lon="-1.53791">
        <ele>7.8</ele>
        <time>2022-04-02T14:15:42Z</time>
      </trkpt>
      <trkpt lat="47.31947" lon="-1.53825">
        <ele>8</ele>
        <time>2022-04-02T14:15:46Z</time>
      </trkpt>
      <trkpt lat="47.3193" lon="-1.53859">
        <ele>7.2</ele>
        <time>2022-04-02T14:15:50Z</time>
      </trkpt>
      <trkpt lat="47.3192" lon="-1.53874">
        <ele>7.4</ele>
        <time>2022-04-02T14:15:52Z</time>
      </trkpt>
      <trkpt lat="47.31897" lon="-1.53922">
        <ele>7</ele>
        <time>2022-04-02T14:15:58Z</time>
      </trkpt>
      <trkpt lat="47.31869" lon="-1.53978">
        <ele>7.4</ele>
        <time>2022-04-02T14:16:05Z</time>
      </trkpt>
      <trkpt lat="47.31841" lon="-1.54033">
        <ele>7</ele>
        <time>2022-04-02T14:16:12Z</time>
      </trkpt>
      <trkpt lat="47.31814" lon="-1.54089">
        <ele>6.6</ele>
        <time>2022-04-02T14:16:19Z</time>
      </trkpt>
      <trkpt lat="47.31807" lon="-1.54105">
        <ele>6.6</ele>
        <time>2022-04-02T14:16:21Z</time>
      </trkpt>
      <trkpt lat="47.31799" lon="-1.54119">
        <ele>6.4</ele>
        <time>2022-04-02T14:16:23Z</time>
      </trkpt>
      <trkpt lat="47.31766" lon="-1.54176">
        <ele>6.4</ele>
        <time>2022-04-02T14:16:31Z</time>
      </trkpt>
      <trkpt lat="47.31758" lon="-1.54189">
        <ele>6.4</ele>
        <time>2022-04-02T14:16:33Z</time>
      </trkpt>
      <trkpt lat="47.31748" lon="-1.54201">
        <ele>6.2</ele>
        <time>2022-04-02T14:16:35Z</time>
      </trkpt>
      <trkpt lat="47.31743" lon="-1.54206">
        <ele>6.2</ele>
        <time>2022-04-02T14:16:36Z</time>
      </trkpt>
      <trkpt lat="47.31737" lon="-1.54211">
        <ele>6.2</ele>
        <time>2022-04-02T14:16:37Z</time>
      </trkpt>
      <trkpt lat="47.31717" lon="-1.54235">
        <ele>6</ele>
        <time>2022-04-02T14:16:41Z</time>
      </trkpt>
      <trkpt lat="47.31694" lon="-1.54256">
        <ele>5.8</ele>
        <time>2022-04-02T14:16:45Z</time>
      </trkpt>
      <trkpt lat="47.31688" lon="-1.54261">
        <ele>5.8</ele>
        <time>2022-04-02T14:16:46Z</time>
      </trkpt>
      <trkpt lat="47.31652" lon="-1.54287">
        <ele>5.6</ele>
        <time>2022-04-02T14:16:52Z</time>
      </trkpt>
      <trkpt lat="47.31635" lon="-1.543">
        <ele>5.6</ele>
        <time>2022-04-02T14:16:55Z</time>
      </trkpt>
      <trkpt lat="47.31632" lon="-1.54307">
        <ele>5.4</ele>
        <time>2022-04-02T14:16:56Z</time>
      </trkpt>
      <trkpt lat="47.31628" lon="-1.54313">
        <ele>5.4</ele>
        <time>2022-04-02T14:16:57Z</time>
      </trkpt>
      <trkpt lat="47.31621" lon="-1.54321">
        <ele>5.4</ele>
        <time>2022-04-02T14:16:59Z</time>
      </trkpt>
      <trkpt lat="47.31601" lon="-1.54329">
        <ele>5.2</ele>
        <time>2022-04-02T14:17:03Z</time>
      </trkpt>
      <trkpt lat="47.31596" lon="-1.54329">
        <ele>5.4</ele>
        <time>2022-04-02T14:17:04Z</time>
      </trkpt>
      <trkpt lat="47.31591" lon="-1.54329">
        <ele>5.2</ele>
        <time>2022-04-02T14:17:05Z</time>
      </trkpt>
      <trkpt lat="47.31566" lon="-1.54328">
        <ele>5.2</ele>
        <time>2022-04-02T14:17:09Z</time>
      </trkpt>
      <trkpt lat="47.31519" lon="-1.54327">
        <ele>4.8</ele>
        <time>2022-04-02T14:17:17Z</time>
      </trkpt>
      <trkpt lat="47.31508" lon="-1.54331">
        <ele>4.6</ele>
        <time>2022-04-02T14:17:19Z</time>
      </trkpt>
      <trkpt lat="47.31502" lon="-1.54334">
        <ele>4.6</ele>
        <time>2022-04-02T14:17:20Z</time>
      </trkpt>
      <trkpt lat="47.31496" lon="-1.54335">
        <ele>4.4</ele>
        <time>2022-04-02T14:17:21Z</time>
      </trkpt>
      <trkpt lat="47.31484" lon="-1.54335">
        <ele>4.4</ele>
        <time>2022-04-02T14:17:23Z</time>
      </trkpt>
      <trkpt lat="47.3145" lon="-1.54332">
        <ele>4</ele>
        <time>2022-04-02T14:17:28Z</time>
      </trkpt>
      <trkpt lat="47.31444" lon="-1.54331">
        <ele>4</ele>
        <time>2022-04-02T14:17:29Z</time>
      </trkpt>
      <trkpt lat="47.31426" lon="-1.54325">
        <ele>3.8</ele>
        <time>2022-04-02T14:17:32Z</time>
      </trkpt>
      <trkpt lat="47.31401" lon="-1.54322">
        <ele>3.6</ele>
        <time>2022-04-02T14:17:36Z</time>
      </trkpt>
      <trkpt lat="47.31389" lon="-1.54322">
        <ele>3.6</ele>
        <time>2022-04-02T14:17:38Z</time>
      </trkpt>
      <trkpt lat="47.3137" lon="-1.54321">
        <ele>3.4</ele>
        <time>2022-04-02T14:17:41Z</time>
      </trkpt>
      <trkpt lat="47.31357" lon="-1.54322">
        <ele>3.4</ele>
        <time>2022-04-02T14:17:43Z</time>
      </trkpt>
      <trkpt lat="47.31345" lon="-1.54319">
        <ele>3.2</ele>
        <time>2022-04-02T14:17:45Z</time>
      </trkpt>
      <trkpt lat="47.3133" lon="-1.54314">
        <ele>2.8</ele>
        <time>2022-04-02T14:17:47Z</time>
      </trkpt>
      <trkpt lat="47.3127" lon="-1.54305">
        <ele>2.6</ele>
        <time>2022-04-02T14:17:55Z</time>
      </trkpt>
      <trkpt lat="47.31258" lon="-1.54306">
        <ele>2.6</ele>
        <time>2022-04-02T14:17:57Z</time>
      </trkpt>
      <trkpt lat="47.31247" lon="-1.54313">
        <ele>2.6</ele>
        <time>2022-04-02T14:17:59Z</time>
      </trkpt>
      <trkpt lat="47.31238" lon="-1.54325">
        <ele>2.6</ele>
        <time>2022-04-02T14:18:01Z</time>
      </trkpt>
      <trkpt lat="47.31227" lon="-1.5433">
        <ele>2.8</ele>
        <time>2022-04-02T14:18:03Z</time>
      </trkpt>
      <trkpt lat="47.31217" lon="-1.54327">
        <ele>2.6</ele>
        <time>2022-04-02T14:18:05Z</time>
      </trkpt>
      <trkpt lat="47.31212" lon="-1.54323">
        <ele>2.8</ele>
        <time>2022-04-02T14:18:06Z</time>
      </trkpt>
      <trkpt lat="47.31207" lon="-1.54317">
        <ele>2.6</ele>
        <time>2022-04-02T14:18:07Z</time>
      </trkpt>
      <trkpt lat="47.31197" lon="-1.54305">
        <ele>2.6</ele>
        <time>2022-04-02T14:18:09Z</time>
      </trkpt>
      <trkpt lat="47.31171" lon="-1.54296">
        <ele>2.4</ele>
        <time>2022-04-02T14:18:13Z</time>
      </trkpt>
      <trkpt lat="47.31133" lon="-1.54293">
        <ele>2.4</ele>
        <time>2022-04-02T14:18:19Z</time>
      </trkpt>
      <trkpt lat="47.31086" lon="-1.54292">
        <ele>2.8</ele>
        <time>2022-04-02T14:18:27Z</time>
      </trkpt>
      <trkpt lat="47.31042" lon="-1.54287">
        <ele>3.2</ele>
        <time>2022-04-02T14:18:35Z</time>
      </trkpt>
      <trkpt lat="47.31003" lon="-1.54284">
        <ele>3.4</ele>
        <time>2022-04-02T14:18:42Z</time>
      </trkpt>
      <trkpt lat="47.30993" lon="-1.54285">
        <ele>3.4</ele>
        <time>2022-04-02T14:18:44Z</time>
      </trkpt>
      <trkpt lat="47.30979" lon="-1.54292">
        <ele>3.6</ele>
        <time>2022-04-02T14:18:47Z</time>
      </trkpt>
      <trkpt lat="47.30963" lon="-1.54295">
        <ele>3.6</ele>
        <time>2022-04-02T14:18:51Z</time>
      </trkpt>
      <trkpt lat="47.30951" lon="-1.54287">
        <ele>3.8</ele>
        <time>2022-04-02T14:18:54Z</time>
      </trkpt>
      <trkpt lat="47.3093" lon="-1.54276">
        <ele>4</ele>
        <time>2022-04-02T14:18:59Z</time>
      </trkpt>
      <trkpt lat="47.30909" lon="-1.54275">
        <ele>4.2</ele>
        <time>2022-04-02T14:19:04Z</time>
      </trkpt>
      <trkpt lat="47.30888" lon="-1.54274">
        <ele>4.6</ele>
        <time>2022-04-02T14:19:09Z</time>
      </trkpt>
      <trkpt lat="47.30857" lon="-1.54279">
        <ele>5</ele>
        <time>2022-04-02T14:19:16Z</time>
      </trkpt>
      <trkpt lat="47.30845" lon="-1.54288">
        <ele>5.2</ele>
        <time>2022-04-02T14:19:20Z</time>
      </trkpt>
      <trkpt lat="47.30832" lon="-1.54294">
        <ele>5.4</ele>
        <time>2022-04-02T14:19:24Z</time>
      </trkpt>
      <trkpt lat="47.30814" lon="-1.54299">
        <ele>5.6</ele>
        <time>2022-04-02T14:19:28Z</time>
      </trkpt>
      <trkpt lat="47.30789" lon="-1.54303">
        <ele>6.4</ele>
        <time>2022-04-02T14:19:34Z</time>
      </trkpt>
      <trkpt lat="47.30776" lon="-1.54304">
        <ele>6.8</ele>
        <time>2022-04-02T14:19:38Z</time>
      </trkpt>
      <trkpt lat="47.30758" lon="-1.54304">
        <ele>7.4</ele>
        <time>2022-04-02T14:19:43Z</time>
      </trkpt>
      <trkpt lat="47.30749" lon="-1.54306">
        <ele>7.4</ele>
        <time>2022-04-02T14:19:45Z</time>
      </trkpt>
      <trkpt lat="47.30741" lon="-1.54311">
        <ele>7.6</ele>
        <time>2022-04-02T14:19:47Z</time>
      </trkpt>
      <trkpt lat="47.30738" lon="-1.54315">
        <ele>7.8</ele>
        <time>2022-04-02T14:19:48Z</time>
      </trkpt>
      <trkpt lat="47.30718" lon="-1.54331">
        <ele>8.4</ele>
        <time>2022-04-02T14:19:54Z</time>
      </trkpt>
      <trkpt lat="47.30697" lon="-1.54347">
        <ele>9.6</ele>
        <time>2022-04-02T14:20:01Z</time>
      </trkpt>
      <trkpt lat="47.30679" lon="-1.54362">
        <ele>10.4</ele>
        <time>2022-04-02T14:20:07Z</time>
      </trkpt>
      <trkpt lat="47.30655" lon="-1.54383">
        <ele>11.4</ele>
        <time>2022-04-02T14:20:14Z</time>
      </trkpt>
      <trkpt lat="47.30628" lon="-1.54408">
        <ele>12.2</ele>
        <time>2022-04-02T14:20:21Z</time>
      </trkpt>
      <trkpt lat="47.30601" lon="-1.54433">
        <ele>13</ele>
        <time>2022-04-02T14:20:27Z</time>
      </trkpt>
      <trkpt lat="47.30595" lon="-1.54441">
        <ele>13.4</ele>
        <time>2022-04-02T14:20:29Z</time>
      </trkpt>
      <trkpt lat="47.30591" lon="-1.54444">
        <ele>13.4</ele>
        <time>2022-04-02T14:20:30Z</time>
      </trkpt>
      <trkpt lat="47.30574" lon="-1.54459">
        <ele>14</ele>
        <time>2022-04-02T14:20:34Z</time>
      </trkpt>
      <trkpt lat="47.30566" lon="-1.54467">
        <ele>14.2</ele>
        <time>2022-04-02T14:20:36Z</time>
      </trkpt>
      <trkpt lat="47.30547" lon="-1.54482">
        <ele>14.6</ele>
        <time>2022-04-02T14:20:40Z</time>
      </trkpt>
      <trkpt lat="47.30537" lon="-1.5449">
        <ele>14.6</ele>
        <time>2022-04-02T14:20:42Z</time>
      </trkpt>
      <trkpt lat="47.30506" lon="-1.54515">
        <ele>15.2</ele>
        <time>2022-04-02T14:20:48Z</time>
      </trkpt>
      <trkpt lat="47.30477" lon="-1.54537">
        <ele>15.4</ele>
        <time>2022-04-02T14:20:53Z</time>
      </trkpt>
      <trkpt lat="47.30436" lon="-1.54566">
        <ele>15.4</ele>
        <time>2022-04-02T14:20:59Z</time>
      </trkpt>
      <trkpt lat="47.30407" lon="-1.54593">
        <ele>15.6</ele>
        <time>2022-04-02T14:21:03Z</time>
      </trkpt>
      <trkpt lat="47.304" lon="-1.54602">
        <ele>15.6</ele>
        <time>2022-04-02T14:21:04Z</time>
      </trkpt>
      <trkpt lat="47.30379" lon="-1.54629">
        <ele>15.2</ele>
        <time>2022-04-02T14:21:07Z</time>
      </trkpt>
      <trkpt lat="47.30374" lon="-1.54639">
        <ele>15.2</ele>
        <time>2022-04-02T14:21:08Z</time>
      </trkpt>
      <trkpt lat="47.30362" lon="-1.54655">
        <ele>15</ele>
        <time>2022-04-02T14:21:10Z</time>
      </trkpt>
      <trkpt lat="47.30355" lon="-1.54659">
        <ele>14.8</ele>
        <time>2022-04-02T14:21:11Z</time>
      </trkpt>
      <trkpt lat="47.30342" lon="-1.54661">
        <ele>14.8</ele>
        <time>2022-04-02T14:21:13Z</time>
      </trkpt>
      <trkpt lat="47.30332" lon="-1.54668">
        <ele>14.8</ele>
        <time>2022-04-02T14:21:15Z</time>
      </trkpt>
      <trkpt lat="47.30322" lon="-1.54671">
        <ele>14.8</ele>
        <time>2022-04-02T14:21:18Z</time>
      </trkpt>
      <trkpt lat="47.3032" lon="-1.5467">
        <ele>14.6</ele>
        <time>2022-04-02T14:21:19Z</time>
      </trkpt>
      <trkpt lat="47.30311" lon="-1.54665">
        <ele>14.6</ele>
        <time>2022-04-02T14:21:22Z</time>
      </trkpt>
      <trkpt lat="47.30307" lon="-1.54664">
        <ele>14.6</ele>
        <time>2022-04-02T14:21:23Z</time>
      </trkpt>
      <trkpt lat="47.30292" lon="-1.54657">
        <ele>14.4</ele>
        <time>2022-04-02T14:21:26Z</time>
      </trkpt>
      <trkpt lat="47.30286" lon="-1.54655">
        <ele>14.4</ele>
        <time>2022-04-02T14:21:27Z</time>
      </trkpt>
      <trkpt lat="47.30275" lon="-1.54654">
        <ele>14.2</ele>
        <time>2022-04-02T14:21:29Z</time>
      </trkpt>
      <trkpt lat="47.3027" lon="-1.54655">
        <ele>14.2</ele>
        <time>2022-04-02T14:21:30Z</time>
      </trkpt>
      <trkpt lat="47.3024" lon="-1.54669">
        <ele>13.8</ele>
        <time>2022-04-02T14:21:36Z</time>
      </trkpt>
      <trkpt lat="47.30213" lon="-1.54683">
        <ele>13.6</ele>
        <time>2022-04-02T14:21:42Z</time>
      </trkpt>
      <trkpt lat="47.30209" lon="-1.54686">
        <ele>13.6</ele>
        <time>2022-04-02T14:21:43Z</time>
      </trkpt>
      <trkpt lat="47.30205" lon="-1.5469">
        <ele>13.6</ele>
        <time>2022-04-02T14:21:44Z</time>
      </trkpt>
      <trkpt lat="47.30198" lon="-1.54697">
        <ele>13.6</ele>
        <time>2022-04-02T14:21:46Z</time>
      </trkpt>
      <trkpt lat="47.30189" lon="-1.54702">
        <ele>13.6</ele>
        <time>2022-04-02T14:21:48Z</time>
      </trkpt>
      <trkpt lat="47.30176" lon="-1.54709">
        <ele>13.4</ele>
        <time>2022-04-02T14:21:51Z</time>
      </trkpt>
      <trkpt lat="47.30163" lon="-1.54717">
        <ele>13.4</ele>
        <time>2022-04-02T14:21:54Z</time>
      </trkpt>
      <trkpt lat="47.3015" lon="-1.54727">
        <ele>13.2</ele>
        <time>2022-04-02T14:21:57Z</time>
      </trkpt>
      <trkpt lat="47.30145" lon="-1.54729">
        <ele>13.2</ele>
        <time>2022-04-02T14:21:58Z</time>
      </trkpt>
      <trkpt lat="47.3014" lon="-1.54732">
        <ele>13.2</ele>
        <time>2022-04-02T14:21:59Z</time>
      </trkpt>
      <trkpt lat="47.3012" lon="-1.54741">
        <ele>13</ele>
        <time>2022-04-02T14:22:03Z</time>
      </trkpt>
      <trkpt lat="47.30114" lon="-1.54744">
        <ele>13</ele>
        <time>2022-04-02T14:22:04Z</time>
      </trkpt>
      <trkpt lat="47.30091" lon="-1.54753">
        <ele>13</ele>
        <time>2022-04-02T14:22:08Z</time>
      </trkpt>
      <trkpt lat="47.30066" lon="-1.54764">
        <ele>13.2</ele>
        <time>2022-04-02T14:22:13Z</time>
      </trkpt>
      <trkpt lat="47.30043" lon="-1.54771">
        <ele>13.4</ele>
        <time>2022-04-02T14:22:17Z</time>
      </trkpt>
      <trkpt lat="47.30012" lon="-1.54783">
        <ele>13.6</ele>
        <time>2022-04-02T14:22:22Z</time>
      </trkpt>
      <trkpt lat="47.29989" lon="-1.54789">
        <ele>13.8</ele>
        <time>2022-04-02T14:22:26Z</time>
      </trkpt>
      <trkpt lat="47.29984" lon="-1.54791">
        <ele>14</ele>
        <time>2022-04-02T14:22:27Z</time>
      </trkpt>
      <trkpt lat="47.29972" lon="-1.54795">
        <ele>14</ele>
        <time>2022-04-02T14:22:29Z</time>
      </trkpt>
      <trkpt lat="47.29955" lon="-1.548">
        <ele>14.2</ele>
        <time>2022-04-02T14:22:32Z</time>
      </trkpt>
      <trkpt lat="47.29926" lon="-1.54807">
        <ele>14.4</ele>
        <time>2022-04-02T14:22:37Z</time>
      </trkpt>
      <trkpt lat="47.29891" lon="-1.54819">
        <ele>14.6</ele>
        <time>2022-04-02T14:22:43Z</time>
      </trkpt>
      <trkpt lat="47.29844" lon="-1.54833">
        <ele>14.8</ele>
        <time>2022-04-02T14:22:50Z</time>
      </trkpt>
      <trkpt lat="47.29809" lon="-1.54841">
        <ele>15.2</ele>
        <time>2022-04-02T14:22:56Z</time>
      </trkpt>
      <trkpt lat="47.29798" lon="-1.5484">
        <ele>15.2</ele>
        <time>2022-04-02T14:22:58Z</time>
      </trkpt>
      <trkpt lat="47.29792" lon="-1.54837">
        <ele>15.2</ele>
        <time>2022-04-02T14:22:59Z</time>
      </trkpt>
      <trkpt lat="47.29786" lon="-1.54835">
        <ele>15.4</ele>
        <time>2022-04-02T14:23:00Z</time>
      </trkpt>
      <trkpt lat="47.29773" lon="-1.54838">
        <ele>15.4</ele>
        <time>2022-04-02T14:23:02Z</time>
      </trkpt>
      <trkpt lat="47.2976" lon="-1.54842">
        <ele>15.6</ele>
        <time>2022-04-02T14:23:04Z</time>
      </trkpt>
      <trkpt lat="47.29743" lon="-1.54848">
        <ele>15.8</ele>
        <time>2022-04-02T14:23:07Z</time>
      </trkpt>
      <trkpt lat="47.29738" lon="-1.54851">
        <ele>15.8</ele>
        <time>2022-04-02T14:23:08Z</time>
      </trkpt>
      <trkpt lat="47.29731" lon="-1.54857">
        <ele>15.8</ele>
        <time>2022-04-02T14:23:10Z</time>
      </trkpt>
      <trkpt lat="47.29722" lon="-1.54859">
        <ele>16.2</ele>
        <time>2022-04-02T14:23:14Z</time>
      </trkpt>
      <trkpt lat="47.29706" lon="-1.54857">
        <ele>16.4</ele>
        <time>2022-04-02T14:23:19Z</time>
      </trkpt>
      <trkpt lat="47.29702" lon="-1.54857">
        <ele>16.4</ele>
        <time>2022-04-02T14:23:20Z</time>
      </trkpt>
      <trkpt lat="47.29693" lon="-1.5486">
        <ele>16.6</ele>
        <time>2022-04-02T14:23:22Z</time>
      </trkpt>
      <trkpt lat="47.29688" lon="-1.54861">
        <ele>16.6</ele>
        <time>2022-04-02T14:23:23Z</time>
      </trkpt>
      <trkpt lat="47.29649" lon="-1.54868">
        <ele>17</ele>
        <time>2022-04-02T14:23:31Z</time>
      </trkpt>
      <trkpt lat="47.29617" lon="-1.54875">
        <ele>17.2</ele>
        <time>2022-04-02T14:23:37Z</time>
      </trkpt>
      <trkpt lat="47.29606" lon="-1.54879">
        <ele>17.4</ele>
        <time>2022-04-02T14:23:39Z</time>
      </trkpt>
      <trkpt lat="47.29595" lon="-1.54884">
        <ele>17.4</ele>
        <time>2022-04-02T14:23:41Z</time>
      </trkpt>
      <trkpt lat="47.29562" lon="-1.54889">
        <ele>17.8</ele>
        <time>2022-04-02T14:23:46Z</time>
      </trkpt>
      <trkpt lat="47.29551" lon="-1.54889">
        <ele>18</ele>
        <time>2022-04-02T14:23:48Z</time>
      </trkpt>
      <trkpt lat="47.29534" lon="-1.5489">
        <ele>18.2</ele>
        <time>2022-04-02T14:23:51Z</time>
      </trkpt>
      <trkpt lat="47.29512" lon="-1.54893">
        <ele>18.4</ele>
        <time>2022-04-02T14:23:55Z</time>
      </trkpt>
      <trkpt lat="47.2948" lon="-1.54894">
        <ele>18.8</ele>
        <time>2022-04-02T14:24:01Z</time>
      </trkpt>
      <trkpt lat="47.29475" lon="-1.54893">
        <ele>19</ele>
        <time>2022-04-02T14:24:02Z</time>
      </trkpt>
      <trkpt lat="47.29466" lon="-1.54891">
        <ele>19</ele>
        <time>2022-04-02T14:24:04Z</time>
      </trkpt>
      <trkpt lat="47.29461" lon="-1.54891">
        <ele>19.2</ele>
        <time>2022-04-02T14:24:05Z</time>
      </trkpt>
      <trkpt lat="47.29427" lon="-1.54892">
        <ele>19.8</ele>
        <time>2022-04-02T14:24:12Z</time>
      </trkpt>
      <trkpt lat="47.29422" lon="-1.54893">
        <ele>20</ele>
        <time>2022-04-02T14:24:13Z</time>
      </trkpt>
      <trkpt lat="47.29417" lon="-1.54893">
        <ele>20</ele>
        <time>2022-04-02T14:24:14Z</time>
      </trkpt>
      <trkpt lat="47.29392" lon="-1.54892">
        <ele>20.6</ele>
        <time>2022-04-02T14:24:19Z</time>
      </trkpt>
      <trkpt lat="47.29357" lon="-1.54896">
        <ele>21.4</ele>
        <time>2022-04-02T14:24:26Z</time>
      </trkpt>
      <trkpt lat="47.29352" lon="-1.54899">
        <ele>21.4</ele>
        <time>2022-04-02T14:24:27Z</time>
      </trkpt>
      <trkpt lat="47.29348" lon="-1.54902">
        <ele>21.4</ele>
        <time>2022-04-02T14:24:28Z</time>
      </trkpt>
      <trkpt lat="47.2934" lon="-1.54911">
        <ele>21.6</ele>
        <time>2022-04-02T14:24:30Z</time>
      </trkpt>
      <trkpt lat="47.29336" lon="-1.54914">
        <ele>21.6</ele>
        <time>2022-04-02T14:24:31Z</time>
      </trkpt>
      <trkpt lat="47.29314" lon="-1.54917">
        <ele>21.8</ele>
        <time>2022-04-02T14:24:35Z</time>
      </trkpt>
      <trkpt lat="47.29309" lon="-1.54918">
        <ele>21.8</ele>
        <time>2022-04-02T14:24:36Z</time>
      </trkpt>
      <trkpt lat="47.29295" lon="-1.54916">
        <ele>21.8</ele>
        <time>2022-04-02T14:24:39Z</time>
      </trkpt>
      <trkpt lat="47.29289" lon="-1.54916">
        <ele>21.8</ele>
        <time>2022-04-02T14:24:40Z</time>
      </trkpt>
      <trkpt lat="47.2927" lon="-1.54917">
        <ele>22</ele>
        <time>2022-04-02T14:24:43Z</time>
      </trkpt>
      <trkpt lat="47.29256" lon="-1.54918">
        <ele>21.8</ele>
        <time>2022-04-02T14:24:45Z</time>
      </trkpt>
      <trkpt lat="47.29242" lon="-1.54917">
        <ele>21.8</ele>
        <time>2022-04-02T14:24:47Z</time>
      </trkpt>
      <trkpt lat="47.2923" lon="-1.54909">
        <ele>21.8</ele>
        <time>2022-04-02T14:24:49Z</time>
      </trkpt>
      <trkpt lat="47.29224" lon="-1.54909">
        <ele>21.6</ele>
        <time>2022-04-02T14:24:50Z</time>
      </trkpt>
      <trkpt lat="47.2921" lon="-1.5491">
        <ele>21.4</ele>
        <time>2022-04-02T14:24:52Z</time>
      </trkpt>
      <trkpt lat="47.29195" lon="-1.54912">
        <ele>21.2</ele>
        <time>2022-04-02T14:24:54Z</time>
      </trkpt>
      <trkpt lat="47.29149" lon="-1.54915">
        <ele>20.6</ele>
        <time>2022-04-02T14:25:00Z</time>
      </trkpt>
      <trkpt lat="47.29128" lon="-1.54917">
        <ele>20.2</ele>
        <time>2022-04-02T14:25:03Z</time>
      </trkpt>
      <trkpt lat="47.29121" lon="-1.54918">
        <ele>20.2</ele>
        <time>2022-04-02T14:25:04Z</time>
      </trkpt>
      <trkpt lat="47.29107" lon="-1.5492">
        <ele>20</ele>
        <time>2022-04-02T14:25:06Z</time>
      </trkpt>
      <trkpt lat="47.29093" lon="-1.54921">
        <ele>19.6</ele>
        <time>2022-04-02T14:25:08Z</time>
      </trkpt>
      <trkpt lat="47.29087" lon="-1.54921">
        <ele>19.6</ele>
        <time>2022-04-02T14:25:09Z</time>
      </trkpt>
      <trkpt lat="47.29074" lon="-1.54921">
        <ele>19.4</ele>
        <time>2022-04-02T14:25:11Z</time>
      </trkpt>
      <trkpt lat="47.29068" lon="-1.54921">
        <ele>19.2</ele>
        <time>2022-04-02T14:25:12Z</time>
      </trkpt>
      <trkpt lat="47.29062" lon="-1.54922">
        <ele>19</ele>
        <time>2022-04-02T14:25:13Z</time>
      </trkpt>
      <trkpt lat="47.2905" lon="-1.54921">
        <ele>18.8</ele>
        <time>2022-04-02T14:25:15Z</time>
      </trkpt>
      <trkpt lat="47.29046" lon="-1.54924">
        <ele>18.6</ele>
        <time>2022-04-02T14:25:16Z</time>
      </trkpt>
      <trkpt lat="47.29037" lon="-1.54929">
        <ele>18.6</ele>
        <time>2022-04-02T14:25:19Z</time>
      </trkpt>
      <trkpt lat="47.29034" lon="-1.54931">
        <ele>18.4</ele>
        <time>2022-04-02T14:25:20Z</time>
      </trkpt>
      <trkpt lat="47.29026" lon="-1.54932">
        <ele>18.4</ele>
        <time>2022-04-02T14:25:22Z</time>
      </trkpt>
      <trkpt lat="47.29022" lon="-1.54931">
        <ele>18.2</ele>
        <time>2022-04-02T14:25:23Z</time>
      </trkpt>
      <trkpt lat="47.29012" lon="-1.54935">
        <ele>18</ele>
        <time>2022-04-02T14:25:25Z</time>
      </trkpt>
      <trkpt lat="47.29001" lon="-1.5494">
        <ele>17.8</ele>
        <time>2022-04-02T14:25:27Z</time>
      </trkpt>
      <trkpt lat="47.28998" lon="-1.54939">
        <ele>17.6</ele>
        <time>2022-04-02T14:25:28Z</time>
      </trkpt>
      <trkpt lat="47.28992" lon="-1.54932">
        <ele>17.4</ele>
        <time>2022-04-02T14:25:31Z</time>
      </trkpt>
      <trkpt lat="47.28971" lon="-1.54929">
        <ele>16.2</ele>
        <time>2022-04-02T14:25:36Z</time>
      </trkpt>
      <trkpt lat="47.2895" lon="-1.54929">
        <ele>15.6</ele>
        <time>2022-04-02T14:25:40Z</time>
      </trkpt>
      <trkpt lat="47.28944" lon="-1.5493">
        <ele>15.4</ele>
        <time>2022-04-02T14:25:41Z</time>
      </trkpt>
      <trkpt lat="47.28938" lon="-1.54932">
        <ele>15.2</ele>
        <time>2022-04-02T14:25:42Z</time>
      </trkpt>
      <trkpt lat="47.28932" lon="-1.54937">
        <ele>15.2</ele>
        <time>2022-04-02T14:25:43Z</time>
      </trkpt>
      <trkpt lat="47.28928" lon="-1.54939">
        <ele>15</ele>
        <time>2022-04-02T14:25:44Z</time>
      </trkpt>
      <trkpt lat="47.28918" lon="-1.54939">
        <ele>14.8</ele>
        <time>2022-04-02T14:25:46Z</time>
      </trkpt>
      <trkpt lat="47.28888" lon="-1.5494">
        <ele>14.6</ele>
        <time>2022-04-02T14:25:52Z</time>
      </trkpt>
      <trkpt lat="47.28869" lon="-1.54942">
        <ele>14.2</ele>
        <time>2022-04-02T14:25:56Z</time>
      </trkpt>
      <trkpt lat="47.28863" lon="-1.54942">
        <ele>14.2</ele>
        <time>2022-04-02T14:25:57Z</time>
      </trkpt>
      <trkpt lat="47.28837" lon="-1.54946">
        <ele>13.6</ele>
        <time>2022-04-02T14:26:02Z</time>
      </trkpt>
      <trkpt lat="47.28814" lon="-1.54952">
        <ele>13.4</ele>
        <time>2022-04-02T14:26:06Z</time>
      </trkpt>
      <trkpt lat="47.28808" lon="-1.54953">
        <ele>13.2</ele>
        <time>2022-04-02T14:26:07Z</time>
      </trkpt>
      <trkpt lat="47.2877" lon="-1.54957">
        <ele>13</ele>
        <time>2022-04-02T14:26:13Z</time>
      </trkpt>
      <trkpt lat="47.28754" lon="-1.5496">
        <ele>12.8</ele>
        <time>2022-04-02T14:26:16Z</time>
      </trkpt>
      <trkpt lat="47.28743" lon="-1.54961">
        <ele>12.8</ele>
        <time>2022-04-02T14:26:18Z</time>
      </trkpt>
      <trkpt lat="47.28725" lon="-1.54963">
        <ele>12.6</ele>
        <time>2022-04-02T14:26:21Z</time>
      </trkpt>
      <trkpt lat="47.28711" lon="-1.54965">
        <ele>12.4</ele>
        <time>2022-04-02T14:26:23Z</time>
      </trkpt>
      <trkpt lat="47.28677" lon="-1.54969">
        <ele>12.2</ele>
        <time>2022-04-02T14:26:28Z</time>
      </trkpt>
      <trkpt lat="47.2864" lon="-1.54976">
        <ele>11.8</ele>
        <time>2022-04-02T14:26:34Z</time>
      </trkpt>
      <trkpt lat="47.28623" lon="-1.54979">
        <ele>11.6</ele>
        <time>2022-04-02T14:26:37Z</time>
      </trkpt>
      <trkpt lat="47.28614" lon="-1.5498">
        <ele>11.6</ele>
        <time>2022-04-02T14:26:39Z</time>
      </trkpt>
      <trkpt lat="47.28605" lon="-1.54983">
        <ele>11.6</ele>
        <time>2022-04-02T14:26:41Z</time>
      </trkpt>
      <trkpt lat="47.28598" lon="-1.54989">
        <ele>11.6</ele>
        <time>2022-04-02T14:26:43Z</time>
      </trkpt>
      <trkpt lat="47.28586" lon="-1.55006">
        <ele>11.2</ele>
        <time>2022-04-02T14:26:48Z</time>
      </trkpt>
      <trkpt lat="47.28584" lon="-1.5501">
        <ele>11.4</ele>
        <time>2022-04-02T14:26:49Z</time>
      </trkpt>
      <trkpt lat="47.2858" lon="-1.55019">
        <ele>11.8</ele>
        <time>2022-04-02T14:26:51Z</time>
      </trkpt>
      <trkpt lat="47.28573" lon="-1.55035">
        <ele>12.2</ele>
        <time>2022-04-02T14:26:55Z</time>
      </trkpt>
      <trkpt lat="47.28569" lon="-1.55045">
        <ele>12.4</ele>
        <time>2022-04-02T14:26:58Z</time>
      </trkpt>
      <trkpt lat="47.28558" lon="-1.55048">
        <ele>12.6</ele>
        <time>2022-04-02T14:27:01Z</time>
      </trkpt>
      <trkpt lat="47.2855" lon="-1.55045">
        <ele>12.8</ele>
        <time>2022-04-02T14:27:03Z</time>
      </trkpt>
      <trkpt lat="47.28547" lon="-1.5504">
        <ele>13</ele>
        <time>2022-04-02T14:27:04Z</time>
      </trkpt>
      <trkpt lat="47.28543" lon="-1.55034">
        <ele>13</ele>
        <time>2022-04-02T14:27:05Z</time>
      </trkpt>
      <trkpt lat="47.28534" lon="-1.55025">
        <ele>13.2</ele>
        <time>2022-04-02T14:27:08Z</time>
      </trkpt>
      <trkpt lat="47.28524" lon="-1.55012">
        <ele>13.6</ele>
        <time>2022-04-02T14:27:13Z</time>
      </trkpt>
      <trkpt lat="47.28518" lon="-1.54992">
        <ele>13.8</ele>
        <time>2022-04-02T14:27:17Z</time>
      </trkpt>
      <trkpt lat="47.28515" lon="-1.54988">
        <ele>13.8</ele>
        <time>2022-04-02T14:27:18Z</time>
      </trkpt>
      <trkpt lat="47.28507" lon="-1.54983">
        <ele>14</ele>
        <time>2022-04-02T14:27:20Z</time>
      </trkpt>
      <trkpt lat="47.28489" lon="-1.54984">
        <ele>14.2</ele>
        <time>2022-04-02T14:27:24Z</time>
      </trkpt>
      <trkpt lat="47.2848" lon="-1.54984">
        <ele>14.4</ele>
        <time>2022-04-02T14:27:26Z</time>
      </trkpt>
      <trkpt lat="47.28467" lon="-1.54985">
        <ele>14.4</ele>
        <time>2022-04-02T14:27:29Z</time>
      </trkpt>
      <trkpt lat="47.28443" lon="-1.54986">
        <ele>14.6</ele>
        <time>2022-04-02T14:27:34Z</time>
      </trkpt>
      <trkpt lat="47.28405" lon="-1.54983">
        <ele>15</ele>
        <time>2022-04-02T14:27:41Z</time>
      </trkpt>
      <trkpt lat="47.28374" lon="-1.54981">
        <ele>15.4</ele>
        <time>2022-04-02T14:27:47Z</time>
      </trkpt>
      <trkpt lat="47.28353" lon="-1.54979">
        <ele>15.6</ele>
        <time>2022-04-02T14:27:51Z</time>
      </trkpt>
      <trkpt lat="47.28342" lon="-1.54977">
        <ele>15.6</ele>
        <time>2022-04-02T14:27:53Z</time>
      </trkpt>
      <trkpt lat="47.28337" lon="-1.54976">
        <ele>15.8</ele>
        <time>2022-04-02T14:27:54Z</time>
      </trkpt>
      <trkpt lat="47.28322" lon="-1.54976">
        <ele>15.8</ele>
        <time>2022-04-02T14:27:57Z</time>
      </trkpt>
      <trkpt lat="47.28317" lon="-1.54977">
        <ele>16</ele>
        <time>2022-04-02T14:27:58Z</time>
      </trkpt>
      <trkpt lat="47.28308" lon="-1.54981">
        <ele>16</ele>
        <time>2022-04-02T14:28:00Z</time>
      </trkpt>
      <trkpt lat="47.28301" lon="-1.54986">
        <ele>16.2</ele>
        <time>2022-04-02T14:28:02Z</time>
      </trkpt>
      <trkpt lat="47.28288" lon="-1.54984">
        <ele>16.6</ele>
        <time>2022-04-02T14:28:06Z</time>
      </trkpt>
      <trkpt lat="47.28281" lon="-1.54978">
        <ele>16.6</ele>
        <time>2022-04-02T14:28:08Z</time>
      </trkpt>
      <trkpt lat="47.28271" lon="-1.54973">
        <ele>16.8</ele>
        <time>2022-04-02T14:28:10Z</time>
      </trkpt>
      <trkpt lat="47.28226" lon="-1.54966">
        <ele>17.2</ele>
        <time>2022-04-02T14:28:18Z</time>
      </trkpt>
      <trkpt lat="47.28186" lon="-1.54959">
        <ele>17.4</ele>
        <time>2022-04-02T14:28:25Z</time>
      </trkpt>
      <trkpt lat="47.28145" lon="-1.54948">
        <ele>17.6</ele>
        <time>2022-04-02T14:28:32Z</time>
      </trkpt>
      <trkpt lat="47.28106" lon="-1.54935">
        <ele>17.8</ele>
        <time>2022-04-02T14:28:39Z</time>
      </trkpt>
      <trkpt lat="47.28067" lon="-1.54924">
        <ele>18.2</ele>
        <time>2022-04-02T14:28:46Z</time>
      </trkpt>
      <trkpt lat="47.28028" lon="-1.54912">
        <ele>18.4</ele>
        <time>2022-04-02T14:28:53Z</time>
      </trkpt>
      <trkpt lat="47.27978" lon="-1.54898">
        <ele>18.8</ele>
        <time>2022-04-02T14:29:02Z</time>
      </trkpt>
      <trkpt lat="47.27934" lon="-1.54887">
        <ele>19.6</ele>
        <time>2022-04-02T14:29:11Z</time>
      </trkpt>
      <trkpt lat="47.27905" lon="-1.54878">
        <ele>20</ele>
        <time>2022-04-02T14:29:17Z</time>
      </trkpt>
      <trkpt lat="47.27876" lon="-1.54869">
        <ele>20.8</ele>
        <time>2022-04-02T14:29:24Z</time>
      </trkpt>
      <trkpt lat="47.27843" lon="-1.5486">
        <ele>21.4</ele>
        <time>2022-04-02T14:29:32Z</time>
      </trkpt>
      <trkpt lat="47.27813" lon="-1.54851">
        <ele>22.4</ele>
        <time>2022-04-02T14:29:40Z</time>
      </trkpt>
      <trkpt lat="47.27781" lon="-1.54841">
        <ele>23.2</ele>
        <time>2022-04-02T14:29:49Z</time>
      </trkpt>
      <trkpt lat="47.27759" lon="-1.54834">
        <ele>24</ele>
        <time>2022-04-02T14:29:56Z</time>
      </trkpt>
      <trkpt lat="47.2773" lon="-1.54826">
        <ele>24.8</ele>
        <time>2022-04-02T14:30:04Z</time>
      </trkpt>
      <trkpt lat="47.27703" lon="-1.5482">
        <ele>25.6</ele>
        <time>2022-04-02T14:30:11Z</time>
      </trkpt>
      <trkpt lat="47.27664" lon="-1.54815">
        <ele>26.4</ele>
        <time>2022-04-02T14:30:21Z</time>
      </trkpt>
      <trkpt lat="47.27641" lon="-1.54821">
        <ele>27</ele>
        <time>2022-04-02T14:30:27Z</time>
      </trkpt>
      <trkpt lat="47.27634" lon="-1.54825">
        <ele>27.2</ele>
        <time>2022-04-02T14:30:29Z</time>
      </trkpt>
      <trkpt lat="47.27625" lon="-1.54828">
        <ele>27.4</ele>
        <time>2022-04-02T14:30:31Z</time>
      </trkpt>
      <trkpt lat="47.27621" lon="-1.54829">
        <ele>27.4</ele>
        <time>2022-04-02T14:30:32Z</time>
      </trkpt>
      <trkpt lat="47.27612" lon="-1.54828">
        <ele>27.6</ele>
        <time>2022-04-02T14:30:34Z</time>
      </trkpt>
      <trkpt lat="47.27605" lon="-1.54824">
        <ele>27.8</ele>
        <time>2022-04-02T14:30:36Z</time>
      </trkpt>
      <trkpt lat="47.27594" lon="-1.54813">
        <ele>28</ele>
        <time>2022-04-02T14:30:41Z</time>
      </trkpt>
      <trkpt lat="47.27588" lon="-1.54795">
        <ele>28.2</ele>
        <time>2022-04-02T14:30:45Z</time>
      </trkpt>
      <trkpt lat="47.27586" lon="-1.54789">
        <ele>28.4</ele>
        <time>2022-04-02T14:30:46Z</time>
      </trkpt>
      <trkpt lat="47.2758" lon="-1.54779">
        <ele>28.4</ele>
        <time>2022-04-02T14:30:48Z</time>
      </trkpt>
      <trkpt lat="47.27576" lon="-1.54776">
        <ele>28.4</ele>
        <time>2022-04-02T14:30:49Z</time>
      </trkpt>
      <trkpt lat="47.27572" lon="-1.54774">
        <ele>28.6</ele>
        <time>2022-04-02T14:30:50Z</time>
      </trkpt>
      <trkpt lat="47.27546" lon="-1.54765">
        <ele>28.6</ele>
        <time>2022-04-02T14:30:55Z</time>
      </trkpt>
      <trkpt lat="47.27502" lon="-1.54753">
        <ele>28.8</ele>
        <time>2022-04-02T14:31:02Z</time>
      </trkpt>
      <trkpt lat="47.27473" lon="-1.54748">
        <ele>28.8</ele>
        <time>2022-04-02T14:31:06Z</time>
      </trkpt>
      <trkpt lat="47.27459" lon="-1.54751">
        <ele>28.8</ele>
        <time>2022-04-02T14:31:08Z</time>
      </trkpt>
      <trkpt lat="47.27446" lon="-1.54759">
        <ele>28.8</ele>
        <time>2022-04-02T14:31:10Z</time>
      </trkpt>
      <trkpt lat="47.27439" lon="-1.54761">
        <ele>28.8</ele>
        <time>2022-04-02T14:31:11Z</time>
      </trkpt>
      <trkpt lat="47.27432" lon="-1.54762">
        <ele>28.8</ele>
        <time>2022-04-02T14:31:12Z</time>
      </trkpt>
      <trkpt lat="47.27418" lon="-1.54759">
        <ele>29.2</ele>
        <time>2022-04-02T14:31:14Z</time>
      </trkpt>
      <trkpt lat="47.27411" lon="-1.54754">
        <ele>29</ele>
        <time>2022-04-02T14:31:15Z</time>
      </trkpt>
      <trkpt lat="47.27406" lon="-1.54748">
        <ele>28.6</ele>
        <time>2022-04-02T14:31:16Z</time>
      </trkpt>
      <trkpt lat="47.27396" lon="-1.54739">
        <ele>28.6</ele>
        <time>2022-04-02T14:31:18Z</time>
      </trkpt>
      <trkpt lat="47.27386" lon="-1.54739">
        <ele>28.4</ele>
        <time>2022-04-02T14:31:20Z</time>
      </trkpt>
      <trkpt lat="47.27377" lon="-1.54736">
        <ele>28.2</ele>
        <time>2022-04-02T14:31:22Z</time>
      </trkpt>
      <trkpt lat="47.27373" lon="-1.54733">
        <ele>28.2</ele>
        <time>2022-04-02T14:31:23Z</time>
      </trkpt>
      <trkpt lat="47.27363" lon="-1.54724">
        <ele>28</ele>
        <time>2022-04-02T14:31:25Z</time>
      </trkpt>
      <trkpt lat="47.27349" lon="-1.54716">
        <ele>27.8</ele>
        <time>2022-04-02T14:31:27Z</time>
      </trkpt>
      <trkpt lat="47.27307" lon="-1.54701">
        <ele>27.2</ele>
        <time>2022-04-02T14:31:32Z</time>
      </trkpt>
      <trkpt lat="47.27299" lon="-1.54699">
        <ele>27</ele>
        <time>2022-04-02T14:31:33Z</time>
      </trkpt>
      <trkpt lat="47.27276" lon="-1.54693">
        <ele>26.6</ele>
        <time>2022-04-02T14:31:36Z</time>
      </trkpt>
      <trkpt lat="47.27261" lon="-1.5469">
        <ele>26.4</ele>
        <time>2022-04-02T14:31:38Z</time>
      </trkpt>
      <trkpt lat="47.27246" lon="-1.54689">
        <ele>26.2</ele>
        <time>2022-04-02T14:31:40Z</time>
      </trkpt>
      <trkpt lat="47.27239" lon="-1.54686">
        <ele>26.2</ele>
        <time>2022-04-02T14:31:41Z</time>
      </trkpt>
      <trkpt lat="47.27232" lon="-1.54683">
        <ele>26.2</ele>
        <time>2022-04-02T14:31:42Z</time>
      </trkpt>
      <trkpt lat="47.27219" lon="-1.54676">
        <ele>26.2</ele>
        <time>2022-04-02T14:31:44Z</time>
      </trkpt>
      <trkpt lat="47.27212" lon="-1.54674">
        <ele>26</ele>
        <time>2022-04-02T14:31:45Z</time>
      </trkpt>
      <trkpt lat="47.27178" lon="-1.54666">
        <ele>26</ele>
        <time>2022-04-02T14:31:50Z</time>
      </trkpt>
      <trkpt lat="47.27131" lon="-1.54651">
        <ele>25.6</ele>
        <time>2022-04-02T14:31:57Z</time>
      </trkpt>
      <trkpt lat="47.27085" lon="-1.54637">
        <ele>25.4</ele>
        <time>2022-04-02T14:32:04Z</time>
      </trkpt>
      <trkpt lat="47.27079" lon="-1.54635">
        <ele>25.2</ele>
        <time>2022-04-02T14:32:05Z</time>
      </trkpt>
      <trkpt lat="47.27066" lon="-1.54631">
        <ele>25.2</ele>
        <time>2022-04-02T14:32:07Z</time>
      </trkpt>
      <trkpt lat="47.27039" lon="-1.54626">
        <ele>25</ele>
        <time>2022-04-02T14:32:11Z</time>
      </trkpt>
      <trkpt lat="47.26991" lon="-1.54622">
        <ele>24.6</ele>
        <time>2022-04-02T14:32:18Z</time>
      </trkpt>
      <trkpt lat="47.26973" lon="-1.54626">
        <ele>24.4</ele>
        <time>2022-04-02T14:32:21Z</time>
      </trkpt>
      <trkpt lat="47.26962" lon="-1.54631">
        <ele>24.2</ele>
        <time>2022-04-02T14:32:23Z</time>
      </trkpt>
      <trkpt lat="47.26953" lon="-1.54635">
        <ele>24</ele>
        <time>2022-04-02T14:32:25Z</time>
      </trkpt>
      <trkpt lat="47.26937" lon="-1.54636">
        <ele>23.8</ele>
        <time>2022-04-02T14:32:28Z</time>
      </trkpt>
      <trkpt lat="47.26913" lon="-1.54635">
        <ele>23.4</ele>
        <time>2022-04-02T14:32:32Z</time>
      </trkpt>
      <trkpt lat="47.26902" lon="-1.54633">
        <ele>23.2</ele>
        <time>2022-04-02T14:32:34Z</time>
      </trkpt>
      <trkpt lat="47.26897" lon="-1.54632">
        <ele>23.2</ele>
        <time>2022-04-02T14:32:35Z</time>
      </trkpt>
      <trkpt lat="47.26885" lon="-1.54628">
        <ele>23</ele>
        <time>2022-04-02T14:32:37Z</time>
      </trkpt>
      <trkpt lat="47.26871" lon="-1.5462">
        <ele>23</ele>
        <time>2022-04-02T14:32:39Z</time>
      </trkpt>
      <trkpt lat="47.26864" lon="-1.54616">
        <ele>22.8</ele>
        <time>2022-04-02T14:32:40Z</time>
      </trkpt>
      <trkpt lat="47.26843" lon="-1.5461">
        <ele>22.6</ele>
        <time>2022-04-02T14:32:43Z</time>
      </trkpt>
      <trkpt lat="47.26819" lon="-1.54608">
        <ele>22.4</ele>
        <time>2022-04-02T14:32:47Z</time>
      </trkpt>
      <trkpt lat="47.26814" lon="-1.54608">
        <ele>22.4</ele>
        <time>2022-04-02T14:32:48Z</time>
      </trkpt>
      <trkpt lat="47.26793" lon="-1.54605">
        <ele>22.2</ele>
        <time>2022-04-02T14:32:52Z</time>
      </trkpt>
      <trkpt lat="47.26787" lon="-1.54598">
        <ele>21.8</ele>
        <time>2022-04-02T14:32:54Z</time>
      </trkpt>
      <trkpt lat="47.26786" lon="-1.54592">
        <ele>21.6</ele>
        <time>2022-04-02T14:32:57Z</time>
      </trkpt>
      <trkpt lat="47.26785" lon="-1.54586">
        <ele>21.4</ele>
        <time>2022-04-02T14:33:00Z</time>
      </trkpt>
      <trkpt lat="47.26785" lon="-1.54581">
        <ele>21.4</ele>
        <time>2022-04-02T14:33:01Z</time>
      </trkpt>
      <trkpt lat="47.26784" lon="-1.54563">
        <ele>21.2</ele>
        <time>2022-04-02T14:33:04Z</time>
      </trkpt>
      <trkpt lat="47.26781" lon="-1.54558">
        <ele>21.2</ele>
        <time>2022-04-02T14:33:05Z</time>
      </trkpt>
      <trkpt lat="47.26774" lon="-1.54549">
        <ele>21.2</ele>
        <time>2022-04-02T14:33:07Z</time>
      </trkpt>
      <trkpt lat="47.26769" lon="-1.54548">
        <ele>21</ele>
        <time>2022-04-02T14:33:09Z</time>
      </trkpt>
      <trkpt lat="47.26754" lon="-1.54548">
        <ele>20.8</ele>
        <time>2022-04-02T14:33:14Z</time>
      </trkpt>
      <trkpt lat="47.2675" lon="-1.54531">
        <ele>20.2</ele>
        <time>2022-04-02T14:33:19Z</time>
      </trkpt>
      <trkpt lat="47.2675" lon="-1.54521">
        <ele>20.2</ele>
        <time>2022-04-02T14:33:21Z</time>
      </trkpt>
      <trkpt lat="47.26747" lon="-1.54507">
        <ele>20</ele>
        <time>2022-04-02T14:33:23Z</time>
      </trkpt>
      <trkpt lat="47.2674" lon="-1.54493">
        <ele>19.6</ele>
        <time>2022-04-02T14:33:25Z</time>
      </trkpt>
      <trkpt lat="47.26735" lon="-1.54486">
        <ele>19.6</ele>
        <time>2022-04-02T14:33:26Z</time>
      </trkpt>
      <trkpt lat="47.2673" lon="-1.54481">
        <ele>19.4</ele>
        <time>2022-04-02T14:33:27Z</time>
      </trkpt>
      <trkpt lat="47.26718" lon="-1.54473">
        <ele>19.2</ele>
        <time>2022-04-02T14:33:29Z</time>
      </trkpt>
      <trkpt lat="47.26712" lon="-1.54471">
        <ele>19.2</ele>
        <time>2022-04-02T14:33:30Z</time>
      </trkpt>
      <trkpt lat="47.26666" lon="-1.54462">
        <ele>19.2</ele>
        <time>2022-04-02T14:33:37Z</time>
      </trkpt>
      <trkpt lat="47.26659" lon="-1.54462">
        <ele>19.4</ele>
        <time>2022-04-02T14:33:38Z</time>
      </trkpt>
      <trkpt lat="47.26634" lon="-1.54466">
        <ele>19.2</ele>
        <time>2022-04-02T14:33:42Z</time>
      </trkpt>
      <trkpt lat="47.26605" lon="-1.54472">
        <ele>19.2</ele>
        <time>2022-04-02T14:33:47Z</time>
      </trkpt>
      <trkpt lat="47.26594" lon="-1.54468">
        <ele>19.2</ele>
        <time>2022-04-02T14:33:49Z</time>
      </trkpt>
      <trkpt lat="47.26589" lon="-1.54464">
        <ele>19.2</ele>
        <time>2022-04-02T14:33:50Z</time>
      </trkpt>
      <trkpt lat="47.26586" lon="-1.54459">
        <ele>19.2</ele>
        <time>2022-04-02T14:33:51Z</time>
      </trkpt>
      <trkpt lat="47.2658" lon="-1.54444">
        <ele>19.2</ele>
        <time>2022-04-02T14:33:53Z</time>
      </trkpt>
      <trkpt lat="47.26575" lon="-1.54412">
        <ele>19.2</ele>
        <time>2022-04-02T14:33:58Z</time>
      </trkpt>
      <trkpt lat="47.26574" lon="-1.54404">
        <ele>19.2</ele>
        <time>2022-04-02T14:34:00Z</time>
      </trkpt>
      <trkpt lat="47.26573" lon="-1.544">
        <ele>19.2</ele>
        <time>2022-04-02T14:34:01Z</time>
      </trkpt>
      <trkpt lat="47.26571" lon="-1.54398">
        <ele>19</ele>
        <time>2022-04-02T14:34:02Z</time>
      </trkpt>
      <trkpt lat="47.26563" lon="-1.54394">
        <ele>18.8</ele>
        <time>2022-04-02T14:34:05Z</time>
      </trkpt>
      <trkpt lat="47.26546" lon="-1.54394">
        <ele>18.4</ele>
        <time>2022-04-02T14:34:11Z</time>
      </trkpt>
      <trkpt lat="47.26543" lon="-1.54395">
        <ele>18.4</ele>
        <time>2022-04-02T14:34:12Z</time>
      </trkpt>
      <trkpt lat="47.26538" lon="-1.54398">
        <ele>18.2</ele>
        <time>2022-04-02T14:34:14Z</time>
      </trkpt>
      <trkpt lat="47.26527" lon="-1.54403">
        <ele>17.8</ele>
        <time>2022-04-02T14:34:17Z</time>
      </trkpt>
      <trkpt lat="47.26523" lon="-1.54405">
        <ele>17.6</ele>
        <time>2022-04-02T14:34:18Z</time>
      </trkpt>
      <trkpt lat="47.2651" lon="-1.54413">
        <ele>17.4</ele>
        <time>2022-04-02T14:34:22Z</time>
      </trkpt>
      <trkpt lat="47.2649" lon="-1.54428">
        <ele>17</ele>
        <time>2022-04-02T14:34:27Z</time>
      </trkpt>
      <trkpt lat="47.26464" lon="-1.54443">
        <ele>16.6</ele>
        <time>2022-04-02T14:34:32Z</time>
      </trkpt>
      <trkpt lat="47.2645" lon="-1.54449">
        <ele>16.4</ele>
        <time>2022-04-02T14:34:35Z</time>
      </trkpt>
      <trkpt lat="47.2644" lon="-1.54449">
        <ele>16</ele>
        <time>2022-04-02T14:34:37Z</time>
      </trkpt>
      <trkpt lat="47.26429" lon="-1.54449">
        <ele>15.8</ele>
        <time>2022-04-02T14:34:39Z</time>
      </trkpt>
      <trkpt lat="47.2642" lon="-1.54444">
        <ele>15.6</ele>
        <time>2022-04-02T14:34:41Z</time>
      </trkpt>
      <trkpt lat="47.26415" lon="-1.5444">
        <ele>15.6</ele>
        <time>2022-04-02T14:34:42Z</time>
      </trkpt>
      <trkpt lat="47.2641" lon="-1.54436">
        <ele>15.4</ele>
        <time>2022-04-02T14:34:43Z</time>
      </trkpt>
      <trkpt lat="47.26385" lon="-1.54415">
        <ele>14.8</ele>
        <time>2022-04-02T14:34:48Z</time>
      </trkpt>
      <trkpt lat="47.26357" lon="-1.54389">
        <ele>14</ele>
        <time>2022-04-02T14:34:53Z</time>
      </trkpt>
      <trkpt lat="47.2634" lon="-1.54373">
        <ele>13.6</ele>
        <time>2022-04-02T14:34:56Z</time>
      </trkpt>
      <trkpt lat="47.2633" lon="-1.54363">
        <ele>13.4</ele>
        <time>2022-04-02T14:34:58Z</time>
      </trkpt>
      <trkpt lat="47.26325" lon="-1.54358">
        <ele>13.2</ele>
        <time>2022-04-02T14:34:59Z</time>
      </trkpt>
      <trkpt lat="47.2631" lon="-1.54341">
        <ele>12.8</ele>
        <time>2022-04-02T14:35:02Z</time>
      </trkpt>
      <trkpt lat="47.26299" lon="-1.54331">
        <ele>12.6</ele>
        <time>2022-04-02T14:35:04Z</time>
      </trkpt>
      <trkpt lat="47.26294" lon="-1.54326">
        <ele>12.4</ele>
        <time>2022-04-02T14:35:05Z</time>
      </trkpt>
      <trkpt lat="47.2629" lon="-1.5432">
        <ele>12.2</ele>
        <time>2022-04-02T14:35:06Z</time>
      </trkpt>
      <trkpt lat="47.26279" lon="-1.54313">
        <ele>11.8</ele>
        <time>2022-04-02T14:35:08Z</time>
      </trkpt>
      <trkpt lat="47.26274" lon="-1.5431">
        <ele>11.8</ele>
        <time>2022-04-02T14:35:09Z</time>
      </trkpt>
      <trkpt lat="47.26269" lon="-1.54306">
        <ele>11.6</ele>
        <time>2022-04-02T14:35:10Z</time>
      </trkpt>
      <trkpt lat="47.26254" lon="-1.54299">
        <ele>11.2</ele>
        <time>2022-04-02T14:35:13Z</time>
      </trkpt>
      <trkpt lat="47.26229" lon="-1.54294">
        <ele>11</ele>
        <time>2022-04-02T14:35:18Z</time>
      </trkpt>
      <trkpt lat="47.26214" lon="-1.5429">
        <ele>10.6</ele>
        <time>2022-04-02T14:35:21Z</time>
      </trkpt>
      <trkpt lat="47.26199" lon="-1.54284">
        <ele>10.8</ele>
        <time>2022-04-02T14:35:24Z</time>
      </trkpt>
      <trkpt lat="47.26183" lon="-1.54282">
        <ele>10.8</ele>
        <time>2022-04-02T14:35:28Z</time>
      </trkpt>
      <trkpt lat="47.26169" lon="-1.54282">
        <ele>10.8</ele>
        <time>2022-04-02T14:35:31Z</time>
      </trkpt>
      <trkpt lat="47.26164" lon="-1.54282">
        <ele>10.8</ele>
        <time>2022-04-02T14:35:32Z</time>
      </trkpt>
      <trkpt lat="47.26139" lon="-1.5428">
        <ele>11.2</ele>
        <time>2022-04-02T14:35:37Z</time>
      </trkpt>
      <trkpt lat="47.2613" lon="-1.54281">
        <ele>11.6</ele>
        <time>2022-04-02T14:35:39Z</time>
      </trkpt>
      <trkpt lat="47.26125" lon="-1.5428">
        <ele>12</ele>
        <time>2022-04-02T14:35:40Z</time>
      </trkpt>
      <trkpt lat="47.2611" lon="-1.54278">
        <ele>11.4</ele>
        <time>2022-04-02T14:35:43Z</time>
      </trkpt>
      <trkpt lat="47.26082" lon="-1.54276">
        <ele>12</ele>
        <time>2022-04-02T14:35:50Z</time>
      </trkpt>
      <trkpt lat="47.26059" lon="-1.54272">
        <ele>12.4</ele>
        <time>2022-04-02T14:35:55Z</time>
      </trkpt>
      <trkpt lat="47.26054" lon="-1.54272">
        <ele>12.4</ele>
        <time>2022-04-02T14:35:56Z</time>
      </trkpt>
      <trkpt lat="47.26046" lon="-1.54274">
        <ele>12.6</ele>
        <time>2022-04-02T14:35:58Z</time>
      </trkpt>
      <trkpt lat="47.26034" lon="-1.54275">
        <ele>12.8</ele>
        <time>2022-04-02T14:36:01Z</time>
      </trkpt>
      <trkpt lat="47.26023" lon="-1.54275">
        <ele>13</ele>
        <time>2022-04-02T14:36:03Z</time>
      </trkpt>
      <trkpt lat="47.26013" lon="-1.54277">
        <ele>13</ele>
        <time>2022-04-02T14:36:05Z</time>
      </trkpt>
      <trkpt lat="47.25991" lon="-1.54282">
        <ele>13.4</ele>
        <time>2022-04-02T14:36:10Z</time>
      </trkpt>
      <trkpt lat="47.25968" lon="-1.54286">
        <ele>14</ele>
        <time>2022-04-02T14:36:15Z</time>
      </trkpt>
      <trkpt lat="47.25949" lon="-1.54291">
        <ele>14.2</ele>
        <time>2022-04-02T14:36:19Z</time>
      </trkpt>
      <trkpt lat="47.25935" lon="-1.54296">
        <ele>14.4</ele>
        <time>2022-04-02T14:36:22Z</time>
      </trkpt>
      <trkpt lat="47.25914" lon="-1.54298">
        <ele>14.8</ele>
        <time>2022-04-02T14:36:26Z</time>
      </trkpt>
      <trkpt lat="47.25908" lon="-1.54299">
        <ele>14.8</ele>
        <time>2022-04-02T14:36:27Z</time>
      </trkpt>
      <trkpt lat="47.25897" lon="-1.54299">
        <ele>15</ele>
        <time>2022-04-02T14:36:29Z</time>
      </trkpt>
      <trkpt lat="47.2589" lon="-1.54296">
        <ele>15</ele>
        <time>2022-04-02T14:36:30Z</time>
      </trkpt>
      <trkpt lat="47.25877" lon="-1.54292">
        <ele>15</ele>
        <time>2022-04-02T14:36:32Z</time>
      </trkpt>
      <trkpt lat="47.25871" lon="-1.5429">
        <ele>15</ele>
        <time>2022-04-02T14:36:33Z</time>
      </trkpt>
      <trkpt lat="47.25865" lon="-1.54288">
        <ele>14.8</ele>
        <time>2022-04-02T14:36:34Z</time>
      </trkpt>
      <trkpt lat="47.25854" lon="-1.54281">
        <ele>14.8</ele>
        <time>2022-04-02T14:36:36Z</time>
      </trkpt>
      <trkpt lat="47.25848" lon="-1.54276">
        <ele>14.6</ele>
        <time>2022-04-02T14:36:37Z</time>
      </trkpt>
      <trkpt lat="47.25834" lon="-1.54262">
        <ele>15.4</ele>
        <time>2022-04-02T14:36:39Z</time>
      </trkpt>
      <trkpt lat="47.2582" lon="-1.5424">
        <ele>13.8</ele>
        <time>2022-04-02T14:36:42Z</time>
      </trkpt>
      <trkpt lat="47.25806" lon="-1.54205">
        <ele>13.8</ele>
        <time>2022-04-02T14:36:46Z</time>
      </trkpt>
      <trkpt lat="47.25783" lon="-1.5414">
        <ele>13.4</ele>
        <time>2022-04-02T14:36:53Z</time>
      </trkpt>
      <trkpt lat="47.25771" lon="-1.541">
        <ele>13</ele>
        <time>2022-04-02T14:36:57Z</time>
      </trkpt>
      <trkpt lat="47.25752" lon="-1.54046">
        <ele>12.6</ele>
        <time>2022-04-02T14:37:02Z</time>
      </trkpt>
      <trkpt lat="47.2574" lon="-1.54011">
        <ele>12.2</ele>
        <time>2022-04-02T14:37:05Z</time>
      </trkpt>
      <trkpt lat="47.25731" lon="-1.53988">
        <ele>11.8</ele>
        <time>2022-04-02T14:37:07Z</time>
      </trkpt>
      <trkpt lat="47.2572" lon="-1.53968">
        <ele>11.4</ele>
        <time>2022-04-02T14:37:09Z</time>
      </trkpt>
      <trkpt lat="47.25704" lon="-1.53955">
        <ele>11</ele>
        <time>2022-04-02T14:37:11Z</time>
      </trkpt>
      <trkpt lat="47.25695" lon="-1.53951">
        <ele>10.8</ele>
        <time>2022-04-02T14:37:12Z</time>
      </trkpt>
      <trkpt lat="47.2567" lon="-1.53948">
        <ele>10</ele>
        <time>2022-04-02T14:37:15Z</time>
      </trkpt>
      <trkpt lat="47.25662" lon="-1.53949">
        <ele>9.8</ele>
        <time>2022-04-02T14:37:16Z</time>
      </trkpt>
      <trkpt lat="47.25654" lon="-1.5395">
        <ele>9.6</ele>
        <time>2022-04-02T14:37:17Z</time>
      </trkpt>
      <trkpt lat="47.25641" lon="-1.53956">
        <ele>9.4</ele>
        <time>2022-04-02T14:37:19Z</time>
      </trkpt>
      <trkpt lat="47.25636" lon="-1.53959">
        <ele>9.2</ele>
        <time>2022-04-02T14:37:20Z</time>
      </trkpt>
      <trkpt lat="47.25625" lon="-1.53964">
        <ele>8.8</ele>
        <time>2022-04-02T14:37:22Z</time>
      </trkpt>
      <trkpt lat="47.25607" lon="-1.53973">
        <ele>8.4</ele>
        <time>2022-04-02T14:37:25Z</time>
      </trkpt>
      <trkpt lat="47.25582" lon="-1.53986">
        <ele>7.6</ele>
        <time>2022-04-02T14:37:30Z</time>
      </trkpt>
      <trkpt lat="47.25571" lon="-1.53993">
        <ele>7.2</ele>
        <time>2022-04-02T14:37:32Z</time>
      </trkpt>
      <trkpt lat="47.25561" lon="-1.53997">
        <ele>7</ele>
        <time>2022-04-02T14:37:34Z</time>
      </trkpt>
      <trkpt lat="47.25556" lon="-1.53999">
        <ele>6.8</ele>
        <time>2022-04-02T14:37:35Z</time>
      </trkpt>
      <trkpt lat="47.25537" lon="-1.54006">
        <ele>6.4</ele>
        <time>2022-04-02T14:37:39Z</time>
      </trkpt>
      <trkpt lat="47.25525" lon="-1.54015">
        <ele>6.2</ele>
        <time>2022-04-02T14:37:42Z</time>
      </trkpt>
      <trkpt lat="47.2552" lon="-1.54016">
        <ele>6</ele>
        <time>2022-04-02T14:37:43Z</time>
      </trkpt>
      <trkpt lat="47.25504" lon="-1.54019">
        <ele>5.6</ele>
        <time>2022-04-02T14:37:46Z</time>
      </trkpt>
      <trkpt lat="47.25494" lon="-1.54021">
        <ele>5.4</ele>
        <time>2022-04-02T14:37:48Z</time>
      </trkpt>
      <trkpt lat="47.25483" lon="-1.54022">
        <ele>5</ele>
        <time>2022-04-02T14:37:50Z</time>
      </trkpt>
      <trkpt lat="47.25475" lon="-1.54022">
        <ele>4.8</ele>
        <time>2022-04-02T14:37:51Z</time>
      </trkpt>
      <trkpt lat="47.25444" lon="-1.54021">
        <ele>4.4</ele>
        <time>2022-04-02T14:37:55Z</time>
      </trkpt>
      <trkpt lat="47.2543" lon="-1.54024">
        <ele>4.2</ele>
        <time>2022-04-02T14:37:57Z</time>
      </trkpt>
      <trkpt lat="47.25418" lon="-1.54027">
        <ele>4</ele>
        <time>2022-04-02T14:37:59Z</time>
      </trkpt>
      <trkpt lat="47.25387" lon="-1.54034">
        <ele>3.6</ele>
        <time>2022-04-02T14:38:04Z</time>
      </trkpt>
      <trkpt lat="47.25376" lon="-1.54038">
        <ele>3.4</ele>
        <time>2022-04-02T14:38:06Z</time>
      </trkpt>
      <trkpt lat="47.25365" lon="-1.54041">
        <ele>3.2</ele>
        <time>2022-04-02T14:38:08Z</time>
      </trkpt>
      <trkpt lat="47.2536" lon="-1.54043">
        <ele>3.2</ele>
        <time>2022-04-02T14:38:09Z</time>
      </trkpt>
      <trkpt lat="47.25323" lon="-1.54048">
        <ele>2.6</ele>
        <time>2022-04-02T14:38:15Z</time>
      </trkpt>
      <trkpt lat="47.25293" lon="-1.54055">
        <ele>2.2</ele>
        <time>2022-04-02T14:38:20Z</time>
      </trkpt>
      <trkpt lat="47.25287" lon="-1.54055">
        <ele>2</ele>
        <time>2022-04-02T14:38:21Z</time>
      </trkpt>
      <trkpt lat="47.25256" lon="-1.54065">
        <ele>1.6</ele>
        <time>2022-04-02T14:38:26Z</time>
      </trkpt>
      <trkpt lat="47.25232" lon="-1.54072">
        <ele>1.2</ele>
        <time>2022-04-02T14:38:30Z</time>
      </trkpt>
      <trkpt lat="47.25227" lon="-1.54073">
        <ele>1.2</ele>
        <time>2022-04-02T14:38:31Z</time>
      </trkpt>
      <trkpt lat="47.25199" lon="-1.54082">
        <ele>0.80000000000001</ele>
        <time>2022-04-02T14:38:36Z</time>
      </trkpt>
      <trkpt lat="47.25184" lon="-1.54088">
        <ele>0.80000000000001</ele>
        <time>2022-04-02T14:38:39Z</time>
      </trkpt>
      <trkpt lat="47.25176" lon="-1.54095">
        <ele>0.80000000000001</ele>
        <time>2022-04-02T14:38:41Z</time>
      </trkpt>
      <trkpt lat="47.25172" lon="-1.54096">
        <ele>0.80000000000001</ele>
        <time>2022-04-02T14:38:42Z</time>
      </trkpt>
      <trkpt lat="47.25164" lon="-1.54095">
        <ele>0.80000000000001</ele>
        <time>2022-04-02T14:38:44Z</time>
      </trkpt>
      <trkpt lat="47.25154" lon="-1.5409">
        <ele>0.80000000000001</ele>
        <time>2022-04-02T14:38:48Z</time>
      </trkpt>
      <trkpt lat="47.25148" lon="-1.54091">
        <ele>0.80000000000001</ele>
        <time>2022-04-02T14:38:51Z</time>
      </trkpt>
      <trkpt lat="47.25146" lon="-1.54093">
        <ele>0.60000000000002</ele>
        <time>2022-04-02T14:38:52Z</time>
      </trkpt>
      <trkpt lat="47.25143" lon="-1.54094">
        <ele>0.60000000000002</ele>
        <time>2022-04-02T14:38:54Z</time>
      </trkpt>
      <trkpt lat="47.25132" lon="-1.54104">
        <ele>0.60000000000002</ele>
        <time>2022-04-02T14:39:07Z</time>
      </trkpt>
      <trkpt lat="47.25127" lon="-1.54106">
        <ele>-0.19999999999999</ele>
        <time>2022-04-02T14:39:08Z</time>
      </trkpt>
      <trkpt lat="47.25117" lon="-1.54111">
        <ele>-0.39999999999998</ele>
        <time>2022-04-02T14:39:10Z</time>
      </trkpt>
      <trkpt lat="47.25112" lon="-1.54114">
        <ele>-0.39999999999998</ele>
        <time>2022-04-02T14:39:11Z</time>
      </trkpt>
      <trkpt lat="47.25107" lon="-1.54117">
        <ele>-0.39999999999998</ele>
        <time>2022-04-02T14:39:12Z</time>
      </trkpt>
      <trkpt lat="47.25088" lon="-1.54128">
        <ele>-0.60000000000002</ele>
        <time>2022-04-02T14:39:16Z</time>
      </trkpt>
      <trkpt lat="47.25065" lon="-1.5415">
        <ele>-0.60000000000002</ele>
        <time>2022-04-02T14:39:22Z</time>
      </trkpt>
      <trkpt lat="47.25062" lon="-1.54154">
        <ele>-0.60000000000002</ele>
        <time>2022-04-02T14:39:23Z</time>
      </trkpt>
      <trkpt lat="47.25052" lon="-1.54166">
        <ele>-0.80000000000001</ele>
        <time>2022-04-02T14:39:26Z</time>
      </trkpt>
      <trkpt lat="47.25038" lon="-1.54183">
        <ele>-0.80000000000001</ele>
        <time>2022-04-02T14:39:31Z</time>
      </trkpt>
      <trkpt lat="47.25027" lon="-1.54199">
        <ele>-0.80000000000001</ele>
        <time>2022-04-02T14:39:36Z</time>
      </trkpt>
      <trkpt lat="47.25005" lon="-1.54222">
        <ele>-0.60000000000002</ele>
        <time>2022-04-02T14:39:43Z</time>
      </trkpt>
      <trkpt lat="47.24996" lon="-1.54233">
        <ele>-0.60000000000002</ele>
        <time>2022-04-02T14:39:47Z</time>
      </trkpt>
      <trkpt lat="47.24981" lon="-1.54249">
        <ele>-0.39999999999998</ele>
        <time>2022-04-02T14:39:52Z</time>
      </trkpt>
      <trkpt lat="47.24977" lon="-1.54253">
        <ele>-0.39999999999998</ele>
        <time>2022-04-02T14:39:53Z</time>
      </trkpt>
      <trkpt lat="47.24962" lon="-1.54273">
        <ele>-0.39999999999998</ele>
        <time>2022-04-02T14:39:58Z</time>
      </trkpt>
      <trkpt lat="47.24958" lon="-1.54283">
        <ele>-0.19999999999999</ele>
        <time>2022-04-02T14:40:00Z</time>
      </trkpt>
      <trkpt lat="47.24955" lon="-1.54292">
        <ele>-0.19999999999999</ele>
        <time>2022-04-02T14:40:02Z</time>
      </trkpt>
      <trkpt lat="47.24943" lon="-1.54313">
        <ele>-0.19999999999999</ele>
        <time>2022-04-02T14:40:07Z</time>
      </trkpt>
      <trkpt lat="47.24929" lon="-1.5433">
        <ele>-0.19999999999999</ele>
        <time>2022-04-02T14:40:11Z</time>
      </trkpt>
      <trkpt lat="47.2491" lon="-1.54349">
        <ele>-0.19999999999999</ele>
        <time>2022-04-02T14:40:16Z</time>
      </trkpt>
      <trkpt lat="47.24906" lon="-1.54353">
        <ele>0.19999999999999</ele>
        <time>2022-04-02T14:40:17Z</time>
      </trkpt>
      <trkpt lat="47.24897" lon="-1.5436">
        <ele>0.19999999999999</ele>
        <time>2022-04-02T14:40:19Z</time>
      </trkpt>
      <trkpt lat="47.24874" lon="-1.54384">
        <ele>1</ele>
        <time>2022-04-02T14:40:25Z</time>
      </trkpt>
      <trkpt lat="47.24866" lon="-1.54394">
        <ele>1.2</ele>
        <time>2022-04-02T14:40:27Z</time>
      </trkpt>
      <trkpt lat="47.24853" lon="-1.54409">
        <ele>1.6</ele>
        <time>2022-04-02T14:40:30Z</time>
      </trkpt>
      <trkpt lat="47.24834" lon="-1.54427">
        <ele>2</ele>
        <time>2022-04-02T14:40:35Z</time>
      </trkpt>
      <trkpt lat="47.24826" lon="-1.5444">
        <ele>2.2</ele>
        <time>2022-04-02T14:40:38Z</time>
      </trkpt>
      <trkpt lat="47.24822" lon="-1.54443">
        <ele>2.2</ele>
        <time>2022-04-02T14:40:39Z</time>
      </trkpt>
      <trkpt lat="47.24811" lon="-1.54455">
        <ele>2.4</ele>
        <time>2022-04-02T14:40:42Z</time>
      </trkpt>
      <trkpt lat="47.24805" lon="-1.54463">
        <ele>2.6</ele>
        <time>2022-04-02T14:40:44Z</time>
      </trkpt>
      <trkpt lat="47.24802" lon="-1.54466">
        <ele>2.6</ele>
        <time>2022-04-02T14:40:45Z</time>
      </trkpt>
      <trkpt lat="47.24791" lon="-1.54474">
        <ele>2.8</ele>
        <time>2022-04-02T14:40:48Z</time>
      </trkpt>
      <trkpt lat="47.24785" lon="-1.54478">
        <ele>2.8</ele>
        <time>2022-04-02T14:40:50Z</time>
      </trkpt>
      <trkpt lat="47.24782" lon="-1.54482">
        <ele>2.8</ele>
        <time>2022-04-02T14:40:51Z</time>
      </trkpt>
      <trkpt lat="47.2478" lon="-1.54488">
        <ele>2.8</ele>
        <time>2022-04-02T14:40:52Z</time>
      </trkpt>
      <trkpt lat="47.24775" lon="-1.54499">
        <ele>2.8</ele>
        <time>2022-04-02T14:40:54Z</time>
      </trkpt>
      <trkpt lat="47.24773" lon="-1.54502">
        <ele>2.8</ele>
        <time>2022-04-02T14:40:55Z</time>
      </trkpt>
      <trkpt lat="47.2477" lon="-1.54504">
        <ele>2.8</ele>
        <time>2022-04-02T14:40:57Z</time>
      </trkpt>
      <trkpt lat="47.24762" lon="-1.54513">
        <ele>2.6</ele>
        <time>2022-04-02T14:41:01Z</time>
      </trkpt>
      <trkpt lat="47.24758" lon="-1.54518">
        <ele>2.6</ele>
        <time>2022-04-02T14:41:04Z</time>
      </trkpt>
      <trkpt lat="47.24756" lon="-1.54519">
        <ele>2</ele>
        <time>2022-04-02T14:41:05Z</time>
      </trkpt>
      <trkpt lat="47.24752" lon="-1.54523">
        <ele>2</ele>
        <time>2022-04-02T14:41:08Z</time>
      </trkpt>
      <trkpt lat="47.24748" lon="-1.54529">
        <ele>1.8</ele>
        <time>2022-04-02T14:41:11Z</time>
      </trkpt>
      <trkpt lat="47.24743" lon="-1.54535">
        <ele>1.8</ele>
        <time>2022-04-02T14:41:13Z</time>
      </trkpt>
      <trkpt lat="47.2474" lon="-1.54538">
        <ele>1.8</ele>
        <time>2022-04-02T14:41:14Z</time>
      </trkpt>
      <trkpt lat="47.24731" lon="-1.54543">
        <ele>1.6</ele>
        <time>2022-04-02T14:41:17Z</time>
      </trkpt>
      <trkpt lat="47.24725" lon="-1.54547">
        <ele>1.4</ele>
        <time>2022-04-02T14:41:19Z</time>
      </trkpt>
      <trkpt lat="47.2472" lon="-1.54551">
        <ele>1.2</ele>
        <time>2022-04-02T14:41:20Z</time>
      </trkpt>
      <trkpt lat="47.24711" lon="-1.54558">
        <ele>1</ele>
        <time>2022-04-02T14:41:22Z</time>
      </trkpt>
      <trkpt lat="47.24704" lon="-1.54566">
        <ele>0.80000000000001</ele>
        <time>2022-04-02T14:41:24Z</time>
      </trkpt>
      <trkpt lat="47.24691" lon="-1.5458">
        <ele>0.19999999999999</ele>
        <time>2022-04-02T14:41:29Z</time>
      </trkpt>
      <trkpt lat="47.24672" lon="-1.54586">
        <ele>-0.39999999999998</ele>
        <time>2022-04-02T14:41:34Z</time>
      </trkpt>
      <trkpt lat="47.24663" lon="-1.54591">
        <ele>-0.60000000000002</ele>
        <time>2022-04-02T14:41:37Z</time>
      </trkpt>
      <trkpt lat="47.24651" lon="-1.54598">
        <ele>-1.2</ele>
        <time>2022-04-02T14:41:41Z</time>
      </trkpt>
      <trkpt lat="47.24643" lon="-1.54605">
        <ele>-1.2</ele>
        <time>2022-04-02T14:41:44Z</time>
      </trkpt>
      <trkpt lat="47.24638" lon="-1.54606">
        <ele>-1</ele>
        <time>2022-04-02T14:41:46Z</time>
      </trkpt>
      <trkpt lat="47.24636" lon="-1.54606">
        <ele>-0.80000000000001</ele>
        <time>2022-04-02T14:41:48Z</time>
      </trkpt>
      <trkpt lat="47.24632" lon="-1.54608">
        <ele>-0.80000000000001</ele>
        <time>2022-04-02T14:41:50Z</time>
      </trkpt>
      <trkpt lat="47.24629" lon="-1.5461">
        <ele>-0.80000000000001</ele>
        <time>2022-04-02T14:41:51Z</time>
      </trkpt>
      <trkpt lat="47.24612" lon="-1.54612">
        <ele>-1.8</ele>
        <time>2022-04-02T14:41:55Z</time>
      </trkpt>
      <trkpt lat="47.24594" lon="-1.54612">
        <ele>-1</ele>
        <time>2022-04-02T14:41:59Z</time>
      </trkpt>
      <trkpt lat="47.24571" lon="-1.54617">
        <ele>-1</ele>
        <time>2022-04-02T14:42:04Z</time>
      </trkpt>
      <trkpt lat="47.24555" lon="-1.54623">
        <ele>-0.60000000000002</ele>
        <time>2022-04-02T14:42:07Z</time>
      </trkpt>
      <trkpt lat="47.24549" lon="-1.54625">
        <ele>-0.60000000000002</ele>
        <time>2022-04-02T14:42:08Z</time>
      </trkpt>
      <trkpt lat="47.24541" lon="-1.54629">
        <ele>-0.39999999999998</ele>
        <time>2022-04-02T14:42:10Z</time>
      </trkpt>
      <trkpt lat="47.24531" lon="-1.54633">
        <ele>-0.19999999999999</ele>
        <time>2022-04-02T14:42:12Z</time>
      </trkpt>
      <trkpt lat="47.2451" lon="-1.54641">
        <ele>-0.19999999999999</ele>
        <time>2022-04-02T14:42:16Z</time>
      </trkpt>
      <trkpt lat="47.24484" lon="-1.54657">
        <ele>0.19999999999999</ele>
        <time>2022-04-02T14:42:21Z</time>
      </trkpt>
      <trkpt lat="47.2448" lon="-1.54662">
        <ele>0.19999999999999</ele>
        <time>2022-04-02T14:42:22Z</time>
      </trkpt>
      <trkpt lat="47.24476" lon="-1.54666">
        <ele>0.19999999999999</ele>
        <time>2022-04-02T14:42:23Z</time>
      </trkpt>
      <trkpt lat="47.24466" lon="-1.54674">
        <ele>0.19999999999999</ele>
        <time>2022-04-02T14:42:25Z</time>
      </trkpt>
      <trkpt lat="47.2446" lon="-1.54677">
        <ele>0.19999999999999</ele>
        <time>2022-04-02T14:42:26Z</time>
      </trkpt>
      <trkpt lat="47.2445" lon="-1.54683">
        <ele>0.19999999999999</ele>
        <time>2022-04-02T14:42:28Z</time>
      </trkpt>
      <trkpt lat="47.24446" lon="-1.54687">
        <ele>0.19999999999999</ele>
        <time>2022-04-02T14:42:29Z</time>
      </trkpt>
      <trkpt lat="47.24422" lon="-1.54704">
        <ele>0.39999999999998</ele>
        <time>2022-04-02T14:42:34Z</time>
      </trkpt>
      <trkpt lat="47.24412" lon="-1.5471">
        <ele>0.39999999999998</ele>
        <time>2022-04-02T14:42:36Z</time>
      </trkpt>
      <trkpt lat="47.24403" lon="-1.54717">
        <ele>0.39999999999998</ele>
        <time>2022-04-02T14:42:38Z</time>
      </trkpt>
      <trkpt lat="47.24384" lon="-1.54727">
        <ele>0.39999999999998</ele>
        <time>2022-04-02T14:42:42Z</time>
      </trkpt>
      <trkpt lat="47.24379" lon="-1.54731">
        <ele>0.39999999999998</ele>
        <time>2022-04-02T14:42:43Z</time>
      </trkpt>
      <trkpt lat="47.24368" lon="-1.54738">
        <ele>0.60000000000002</ele>
        <time>2022-04-02T14:42:45Z</time>
      </trkpt>
      <trkpt lat="47.24364" lon="-1.54742">
        <ele>0.80000000000001</ele>
        <time>2022-04-02T14:42:46Z</time>
      </trkpt>
      <trkpt lat="47.2435" lon="-1.54753">
        <ele>1</ele>
        <time>2022-04-02T14:42:49Z</time>
      </trkpt>
      <trkpt lat="47.24343" lon="-1.54761">
        <ele>1</ele>
        <time>2022-04-02T14:42:51Z</time>
      </trkpt>
      <trkpt lat="47.24335" lon="-1.54779">
        <ele>1.2</ele>
        <time>2022-04-02T14:42:55Z</time>
      </trkpt>
      <trkpt lat="47.24326" lon="-1.54793">
        <ele>1</ele>
        <time>2022-04-02T14:42:58Z</time>
      </trkpt>
      <trkpt lat="47.24301" lon="-1.54801">
        <ele>1.2</ele>
        <time>2022-04-02T14:43:02Z</time>
      </trkpt>
      <trkpt lat="47.24277" lon="-1.54809">
        <ele>1</ele>
        <time>2022-04-02T14:43:06Z</time>
      </trkpt>
      <trkpt lat="47.2427" lon="-1.54812">
        <ele>1.2</ele>
        <time>2022-04-02T14:43:09Z</time>
      </trkpt>
      <trkpt lat="47.24266" lon="-1.54815">
        <ele>0.60000000000002</ele>
        <time>2022-04-02T14:43:13Z</time>
      </trkpt>
      <trkpt lat="47.24261" lon="-1.54818">
        <ele>1</ele>
        <time>2022-04-02T14:43:18Z</time>
      </trkpt>
      <trkpt lat="47.24259" lon="-1.54818">
        <ele>1.2</ele>
        <time>2022-04-02T14:43:22Z</time>
      </trkpt>
      <trkpt lat="47.2425" lon="-1.54826">
        <ele>1.4</ele>
        <time>2022-04-02T14:43:29Z</time>
      </trkpt>
      <trkpt lat="47.24246" lon="-1.54827">
        <ele>1.4</ele>
        <time>2022-04-02T14:43:31Z</time>
      </trkpt>
      <trkpt lat="47.24242" lon="-1.54828">
        <ele>1.4</ele>
        <time>2022-04-02T14:43:34Z</time>
      </trkpt>
      <trkpt lat="47.24241" lon="-1.54828">
        <ele>1.2</ele>
        <time>2022-04-02T14:43:35Z</time>
      </trkpt>
      <trkpt lat="47.24233" lon="-1.54827">
        <ele>1.4</ele>
        <time>2022-04-02T14:43:38Z</time>
      </trkpt>
      <trkpt lat="47.2423" lon="-1.54827">
        <ele>1</ele>
        <time>2022-04-02T14:43:39Z</time>
      </trkpt>
      <trkpt lat="47.24221" lon="-1.5482">
        <ele>1</ele>
        <time>2022-04-02T14:43:41Z</time>
      </trkpt>
      <trkpt lat="47.24205" lon="-1.54809">
        <ele>0.60000000000002</ele>
        <time>2022-04-02T14:43:44Z</time>
      </trkpt>
      <trkpt lat="47.24189" lon="-1.54803">
        <ele>0.60000000000002</ele>
        <time>2022-04-02T14:43:48Z</time>
      </trkpt>
      <trkpt lat="47.24183" lon="-1.548">
        <ele>-0.19999999999999</ele>
        <time>2022-04-02T14:43:50Z</time>
      </trkpt>
      <trkpt lat="47.24179" lon="-1.54801">
        <ele>-0.19999999999999</ele>
        <time>2022-04-02T14:43:51Z</time>
      </trkpt>
      <trkpt lat="47.2417" lon="-1.548">
        <ele>-0.39999999999998</ele>
        <time>2022-04-02T14:43:54Z</time>
      </trkpt>
      <trkpt lat="47.24168" lon="-1.548">
        <ele>-0.60000000000002</ele>
        <time>2022-04-02T14:43:55Z</time>
      </trkpt>
      <trkpt lat="47.24166" lon="-1.54799">
        <ele>-0.60000000000002</ele>
        <time>2022-04-02T14:43:56Z</time>
      </trkpt>
      <trkpt lat="47.24161" lon="-1.54799">
        <ele>-1</ele>
        <time>2022-04-02T14:43:59Z</time>
      </trkpt>
      <trkpt lat="47.24154" lon="-1.54799">
        <ele>-1.4</ele>
        <time>2022-04-02T14:44:02Z</time>
      </trkpt>
      <trkpt lat="47.2415" lon="-1.54802">
        <ele>-1.6</ele>
        <time>2022-04-02T14:44:03Z</time>
      </trkpt>
      <trkpt lat="47.24138" lon="-1.54808">
        <ele>-2</ele>
        <time>2022-04-02T14:44:07Z</time>
      </trkpt>
      <trkpt lat="47.24124" lon="-1.54812">
        <ele>-2.6</ele>
        <time>2022-04-02T14:44:12Z</time>
      </trkpt>
      <trkpt lat="47.24113" lon="-1.54817">
        <ele>-3</ele>
        <time>2022-04-02T14:44:15Z</time>
      </trkpt>
      <trkpt lat="47.24101" lon="-1.54824">
        <ele>-3.4</ele>
        <time>2022-04-02T14:44:19Z</time>
      </trkpt>
      <trkpt lat="47.24092" lon="-1.54828">
        <ele>-3.2</ele>
        <time>2022-04-02T14:44:23Z</time>
      </trkpt>
      <trkpt lat="47.24083" lon="-1.54838">
        <ele>-3.2</ele>
        <time>2022-04-02T14:44:26Z</time>
      </trkpt>
      <trkpt lat="47.24072" lon="-1.54849">
        <ele>-3.4</ele>
        <time>2022-04-02T14:44:29Z</time>
      </trkpt>
      <trkpt lat="47.24066" lon="-1.54858">
        <ele>-3.6</ele>
        <time>2022-04-02T14:44:31Z</time>
      </trkpt>
      <trkpt lat="47.24064" lon="-1.54861">
        <ele>-3.6</ele>
        <time>2022-04-02T14:44:32Z</time>
      </trkpt>
      <trkpt lat="47.24051" lon="-1.54875">
        <ele>-3.8</ele>
        <time>2022-04-02T14:44:35Z</time>
      </trkpt>
      <trkpt lat="47.24049" lon="-1.54878">
        <ele>-4</ele>
        <time>2022-04-02T14:44:36Z</time>
      </trkpt>
      <trkpt lat="47.24047" lon="-1.54881">
        <ele>-4</ele>
        <time>2022-04-02T14:44:37Z</time>
      </trkpt>
      <trkpt lat="47.24042" lon="-1.54894">
        <ele>-4.4</ele>
        <time>2022-04-02T14:44:40Z</time>
      </trkpt>
      <trkpt lat="47.24035" lon="-1.54903">
        <ele>-4.8</ele>
        <time>2022-04-02T14:44:43Z</time>
      </trkpt>
      <trkpt lat="47.24031" lon="-1.54908">
        <ele>-4.8</ele>
        <time>2022-04-02T14:44:44Z</time>
      </trkpt>
      <trkpt lat="47.24018" lon="-1.54925">
        <ele>-5.2</ele>
        <time>2022-04-02T14:44:47Z</time>
      </trkpt>
      <trkpt lat="47.24013" lon="-1.54929">
        <ele>-5.2</ele>
        <time>2022-04-02T14:44:48Z</time>
      </trkpt>
      <trkpt lat="47.23997" lon="-1.54948">
        <ele>-5.4</ele>
        <time>2022-04-02T14:44:52Z</time>
      </trkpt>
      <trkpt lat="47.23979" lon="-1.54965">
        <ele>-5.4</ele>
        <time>2022-04-02T14:44:56Z</time>
      </trkpt>
      <trkpt lat="47.23975" lon="-1.54969">
        <ele>-5.4</ele>
        <time>2022-04-02T14:44:57Z</time>
      </trkpt>
      <trkpt lat="47.23961" lon="-1.54985">
        <ele>-5.6</ele>
        <time>2022-04-02T14:45:00Z</time>
      </trkpt>
      <trkpt lat="47.23952" lon="-1.54996">
        <ele>-5.6</ele>
        <time>2022-04-02T14:45:02Z</time>
      </trkpt>
      <trkpt lat="47.23948" lon="-1.55002">
        <ele>-5.6</ele>
        <time>2022-04-02T14:45:03Z</time>
      </trkpt>
      <trkpt lat="47.23946" lon="-1.55005">
        <ele>-5.6</ele>
        <time>2022-04-02T14:45:04Z</time>
      </trkpt>
      <trkpt lat="47.23941" lon="-1.5501">
        <ele>-5.6</ele>
        <time>2022-04-02T14:45:06Z</time>
      </trkpt>
      <trkpt lat="47.23932" lon="-1.55014">
        <ele>-6</ele>
        <time>2022-04-02T14:45:09Z</time>
      </trkpt>
      <trkpt lat="47.23926" lon="-1.55017">
        <ele>-6</ele>
        <time>2022-04-02T14:45:11Z</time>
      </trkpt>
      <trkpt lat="47.23921" lon="-1.55018">
        <ele>-5.8</ele>
        <time>2022-04-02T14:45:13Z</time>
      </trkpt>
      <trkpt lat="47.23916" lon="-1.55019">
        <ele>-6</ele>
        <time>2022-04-02T14:45:14Z</time>
      </trkpt>
      <trkpt lat="47.23897" lon="-1.55016">
        <ele>-6.4</ele>
        <time>2022-04-02T14:45:18Z</time>
      </trkpt>
      <trkpt lat="47.23882" lon="-1.55023">
        <ele>-6.6</ele>
        <time>2022-04-02T14:45:22Z</time>
      </trkpt>
      <trkpt lat="47.23869" lon="-1.55032">
        <ele>-6.4</ele>
        <time>2022-04-02T14:45:27Z</time>
      </trkpt>
      <trkpt lat="47.23864" lon="-1.55037">
        <ele>-6.2</ele>
        <time>2022-04-02T14:45:30Z</time>
      </trkpt>
      <trkpt lat="47.23861" lon="-1.5504">
        <ele>-6.2</ele>
        <time>2022-04-02T14:45:31Z</time>
      </trkpt>
      <trkpt lat="47.23847" lon="-1.55051">
        <ele>-5.8</ele>
        <time>2022-04-02T14:45:36Z</time>
      </trkpt>
      <trkpt lat="47.2384" lon="-1.55059">
        <ele>-6</ele>
        <time>2022-04-02T14:45:40Z</time>
      </trkpt>
      <trkpt lat="47.23837" lon="-1.5506">
        <ele>-5.8</ele>
        <time>2022-04-02T14:45:42Z</time>
      </trkpt>
      <trkpt lat="47.23831" lon="-1.55062">
        <ele>-5.8</ele>
        <time>2022-04-02T14:45:44Z</time>
      </trkpt>
      <trkpt lat="47.23817" lon="-1.55068">
        <ele>-5.8</ele>
        <time>2022-04-02T14:45:48Z</time>
      </trkpt>
      <trkpt lat="47.23805" lon="-1.55072">
        <ele>-5.8</ele>
        <time>2022-04-02T14:45:51Z</time>
      </trkpt>
      <trkpt lat="47.23791" lon="-1.55075">
        <ele>-6.4</ele>
        <time>2022-04-02T14:45:55Z</time>
      </trkpt>
      <trkpt lat="47.23787" lon="-1.55073">
        <ele>-6.4</ele>
        <time>2022-04-02T14:45:56Z</time>
      </trkpt>
      <trkpt lat="47.2377" lon="-1.55071">
        <ele>-7</ele>
        <time>2022-04-02T14:46:00Z</time>
      </trkpt>
      <trkpt lat="47.2375" lon="-1.55069">
        <ele>-7.4</ele>
        <time>2022-04-02T14:46:04Z</time>
      </trkpt>
      <trkpt lat="47.23727" lon="-1.5506">
        <ele>-7</ele>
        <time>2022-04-02T14:46:08Z</time>
      </trkpt>
      <trkpt lat="47.23723" lon="-1.5506">
        <ele>-6.8</ele>
        <time>2022-04-02T14:46:09Z</time>
      </trkpt>
      <trkpt lat="47.23714" lon="-1.55061">
        <ele>-7.4</ele>
        <time>2022-04-02T14:46:11Z</time>
      </trkpt>
      <trkpt lat="47.23706" lon="-1.55061">
        <ele>-6.8</ele>
        <time>2022-04-02T14:46:13Z</time>
      </trkpt>
      <trkpt lat="47.23694" lon="-1.55059">
        <ele>-6.2</ele>
        <time>2022-04-02T14:46:17Z</time>
      </trkpt>
      <trkpt lat="47.23676" lon="-1.55057">
        <ele>-6</ele>
        <time>2022-04-02T14:46:22Z</time>
      </trkpt>
      <trkpt lat="47.23667" lon="-1.55058">
        <ele>-5.6</ele>
        <time>2022-04-02T14:46:26Z</time>
      </trkpt>
      <trkpt lat="47.23659" lon="-1.55057">
        <ele>-6.8</ele>
        <time>2022-04-02T14:46:30Z</time>
      </trkpt>
      <trkpt lat="47.23659" lon="-1.55064">
        <ele>-7.4</ele>
        <time>2022-04-02T14:46:34Z</time>
      </trkpt>
      <trkpt lat="47.23658" lon="-1.55065">
        <ele>-7</ele>
        <time>2022-04-02T14:46:37Z</time>
      </trkpt>
      <trkpt lat="47.23658" lon="-1.55064">
        <ele>-6.4</ele>
        <time>2022-04-02T14:46:38Z</time>
      </trkpt>
      <trkpt lat="47.2365" lon="-1.55052">
        <ele>-5.8</ele>
        <time>2022-04-02T14:46:59Z</time>
      </trkpt>
      <trkpt lat="47.23647" lon="-1.55052">
        <ele>-5.8</ele>
        <time>2022-04-02T14:47:00Z</time>
      </trkpt>
      <trkpt lat="47.23633" lon="-1.55048">
        <ele>-5.4</ele>
        <time>2022-04-02T14:47:04Z</time>
      </trkpt>
      <trkpt lat="47.23626" lon="-1.55044">
        <ele>-5.4</ele>
        <time>2022-04-02T14:47:06Z</time>
      </trkpt>
      <trkpt lat="47.23618" lon="-1.5504">
        <ele>-5.4</ele>
        <time>2022-04-02T14:47:08Z</time>
      </trkpt>
      <trkpt lat="47.23603" lon="-1.55023">
        <ele>-5.2</ele>
        <time>2022-04-02T14:47:12Z</time>
      </trkpt>
      <trkpt lat="47.23589" lon="-1.55004">
        <ele>-5</ele>
        <time>2022-04-02T14:47:16Z</time>
      </trkpt>
      <trkpt lat="47.23582" lon="-1.54996">
        <ele>-5</ele>
        <time>2022-04-02T14:47:18Z</time>
      </trkpt>
      <trkpt lat="47.23576" lon="-1.54981">
        <ele>-5</ele>
        <time>2022-04-02T14:47:21Z</time>
      </trkpt>
      <trkpt lat="47.23572" lon="-1.54968">
        <ele>-5</ele>
        <time>2022-04-02T14:47:23Z</time>
      </trkpt>
      <trkpt lat="47.23569" lon="-1.54963">
        <ele>-5</ele>
        <time>2022-04-02T14:47:24Z</time>
      </trkpt>
      <trkpt lat="47.23555" lon="-1.54948">
        <ele>-5</ele>
        <time>2022-04-02T14:47:28Z</time>
      </trkpt>
      <trkpt lat="47.23547" lon="-1.54934">
        <ele>-5</ele>
        <time>2022-04-02T14:47:31Z</time>
      </trkpt>
      <trkpt lat="47.23538" lon="-1.54925">
        <ele>-5</ele>
        <time>2022-04-02T14:47:33Z</time>
      </trkpt>
      <trkpt lat="47.23533" lon="-1.54923">
        <ele>-5.4</ele>
        <time>2022-04-02T14:47:34Z</time>
      </trkpt>
      <trkpt lat="47.23496" lon="-1.5491">
        <ele>-5.4</ele>
        <time>2022-04-02T14:47:41Z</time>
      </trkpt>
      <trkpt lat="47.2348" lon="-1.54906">
        <ele>-5.2</ele>
        <time>2022-04-02T14:47:44Z</time>
      </trkpt>
      <trkpt lat="47.23464" lon="-1.54904">
        <ele>-5.2</ele>
        <time>2022-04-02T14:47:47Z</time>
      </trkpt>
      <trkpt lat="47.23426" lon="-1.54894">
        <ele>-5</ele>
        <time>2022-04-02T14:47:54Z</time>
      </trkpt>
      <trkpt lat="47.23387" lon="-1.54887">
        <ele>-4.4</ele>
        <time>2022-04-02T14:48:01Z</time>
      </trkpt>
      <trkpt lat="47.23371" lon="-1.54885">
        <ele>-4.4</ele>
        <time>2022-04-02T14:48:04Z</time>
      </trkpt>
      <trkpt lat="47.23354" lon="-1.54889">
        <ele>-4.4</ele>
        <time>2022-04-02T14:48:07Z</time>
      </trkpt>
      <trkpt lat="47.2333" lon="-1.54891">
        <ele>-4.2</ele>
        <time>2022-04-02T14:48:12Z</time>
      </trkpt>
      <trkpt lat="47.23302" lon="-1.54887">
        <ele>-4.2</ele>
        <time>2022-04-02T14:48:17Z</time>
      </trkpt>
      <trkpt lat="47.23292" lon="-1.54888">
        <ele>-4</ele>
        <time>2022-04-02T14:48:19Z</time>
      </trkpt>
      <trkpt lat="47.23281" lon="-1.54889">
        <ele>-3.8</ele>
        <time>2022-04-02T14:48:21Z</time>
      </trkpt>
      <trkpt lat="47.23238" lon="-1.54896">
        <ele>-3.4</ele>
        <time>2022-04-02T14:48:29Z</time>
      </trkpt>
      <trkpt lat="47.23224" lon="-1.54904">
        <ele>-3.4</ele>
        <time>2022-04-02T14:48:32Z</time>
      </trkpt>
      <trkpt lat="47.23195" lon="-1.54922">
        <ele>-3.2</ele>
        <time>2022-04-02T14:48:37Z</time>
      </trkpt>
      <trkpt lat="47.23168" lon="-1.54944">
        <ele>-2.2</ele>
        <time>2022-04-02T14:48:42Z</time>
      </trkpt>
      <trkpt lat="47.23128" lon="-1.54984">
        <ele>-1.2</ele>
        <time>2022-04-02T14:48:50Z</time>
      </trkpt>
      <trkpt lat="47.23118" lon="-1.54993">
        <ele>-1</ele>
        <time>2022-04-02T14:48:52Z</time>
      </trkpt>
      <trkpt lat="47.23108" lon="-1.54999">
        <ele>-0.80000000000001</ele>
        <time>2022-04-02T14:48:54Z</time>
      </trkpt>
      <trkpt lat="47.23084" lon="-1.55022">
        <ele>-0.39999999999998</ele>
        <time>2022-04-02T14:48:59Z</time>
      </trkpt>
      <trkpt lat="47.23065" lon="-1.5504">
        <ele>-0.19999999999999</ele>
        <time>2022-04-02T14:49:03Z</time>
      </trkpt>
      <trkpt lat="47.23048" lon="-1.5506">
        <ele>0.19999999999999</ele>
        <time>2022-04-02T14:49:07Z</time>
      </trkpt>
      <trkpt lat="47.23041" lon="-1.55068">
        <ele>0.39999999999998</ele>
        <time>2022-04-02T14:49:09Z</time>
      </trkpt>
      <trkpt lat="47.23037" lon="-1.55073">
        <ele>0.39999999999998</ele>
        <time>2022-04-02T14:49:10Z</time>
      </trkpt>
      <trkpt lat="47.23032" lon="-1.55083">
        <ele>0.60000000000002</ele>
        <time>2022-04-02T14:49:12Z</time>
      </trkpt>
      <trkpt lat="47.23029" lon="-1.55088">
        <ele>0.60000000000002</ele>
        <time>2022-04-02T14:49:13Z</time>
      </trkpt>
      <trkpt lat="47.23022" lon="-1.55095">
        <ele>0.80000000000001</ele>
        <time>2022-04-02T14:49:15Z</time>
      </trkpt>
      <trkpt lat="47.23018" lon="-1.55103">
        <ele>0.80000000000001</ele>
        <time>2022-04-02T14:49:17Z</time>
      </trkpt>
      <trkpt lat="47.23017" lon="-1.55108">
        <ele>1</ele>
        <time>2022-04-02T14:49:18Z</time>
      </trkpt>
      <trkpt lat="47.23016" lon="-1.55112">
        <ele>1</ele>
        <time>2022-04-02T14:49:19Z</time>
      </trkpt>
      <trkpt lat="47.23009" lon="-1.5512">
        <ele>1</ele>
        <time>2022-04-02T14:49:21Z</time>
      </trkpt>
      <trkpt lat="47.22998" lon="-1.55134">
        <ele>1</ele>
        <time>2022-04-02T14:49:24Z</time>
      </trkpt>
      <trkpt lat="47.22968" lon="-1.55173">
        <ele>1.4</ele>
        <time>2022-04-02T14:49:31Z</time>
      </trkpt>
      <trkpt lat="47.22929" lon="-1.55223">
        <ele>1.8</ele>
        <time>2022-04-02T14:49:40Z</time>
      </trkpt>
      <trkpt lat="47.22905" lon="-1.55255">
        <ele>2.2</ele>
        <time>2022-04-02T14:49:47Z</time>
      </trkpt>
      <trkpt lat="47.22877" lon="-1.5529">
        <ele>2.8</ele>
        <time>2022-04-02T14:49:56Z</time>
      </trkpt>
      <trkpt lat="47.22859" lon="-1.5531">
        <ele>3.4</ele>
        <time>2022-04-02T14:50:03Z</time>
      </trkpt>
      <trkpt lat="47.22856" lon="-1.55312">
        <ele>3.6</ele>
        <time>2022-04-02T14:50:06Z</time>
      </trkpt>
      <trkpt lat="47.22851" lon="-1.55312">
        <ele>6</ele>
        <time>2022-04-02T14:50:50Z</time>
      </trkpt>
      <trkpt lat="47.22847" lon="-1.5531">
        <ele>6</ele>
        <time>2022-04-02T14:50:51Z</time>
      </trkpt>
      <trkpt lat="47.22836" lon="-1.55299">
        <ele>6</ele>
        <time>2022-04-02T14:50:55Z</time>
      </trkpt>
      <trkpt lat="47.22824" lon="-1.55278">
        <ele>6</ele>
        <time>2022-04-02T14:50:59Z</time>
      </trkpt>
      <trkpt lat="47.22797" lon="-1.55235">
        <ele>6.2</ele>
        <time>2022-04-02T14:51:07Z</time>
      </trkpt>
      <trkpt lat="47.22787" lon="-1.55219">
        <ele>6.2</ele>
        <time>2022-04-02T14:51:10Z</time>
      </trkpt>
      <trkpt lat="47.22781" lon="-1.5521">
        <ele>6</ele>
        <time>2022-04-02T14:51:12Z</time>
      </trkpt>
      <trkpt lat="47.22767" lon="-1.55191">
        <ele>6</ele>
        <time>2022-04-02T14:51:17Z</time>
      </trkpt>
      <trkpt lat="47.2276" lon="-1.5519">
        <ele>5.8</ele>
        <time>2022-04-02T14:51:19Z</time>
      </trkpt>
      <trkpt lat="47.22751" lon="-1.55194">
        <ele>6</ele>
        <time>2022-04-02T14:51:21Z</time>
      </trkpt>
      <trkpt lat="47.22727" lon="-1.55222">
        <ele>6</ele>
        <time>2022-04-02T14:51:27Z</time>
      </trkpt>
      <trkpt lat="47.22724" lon="-1.55229">
        <ele>6</ele>
        <time>2022-04-02T14:51:28Z</time>
      </trkpt>
      <trkpt lat="47.22722" lon="-1.55246">
        <ele>5.8</ele>
        <time>2022-04-02T14:51:30Z</time>
      </trkpt>
      <trkpt lat="47.22725" lon="-1.55283">
        <ele>5.6</ele>
        <time>2022-04-02T14:51:34Z</time>
      </trkpt>
      <trkpt lat="47.22724" lon="-1.55292">
        <ele>5.4</ele>
        <time>2022-04-02T14:51:35Z</time>
      </trkpt>
      <trkpt lat="47.22722" lon="-1.55301">
        <ele>5.2</ele>
        <time>2022-04-02T14:51:36Z</time>
      </trkpt>
      <trkpt lat="47.22712" lon="-1.55315">
        <ele>5</ele>
        <time>2022-04-02T14:51:38Z</time>
      </trkpt>
      <trkpt lat="47.22697" lon="-1.55323">
        <ele>4.8</ele>
        <time>2022-04-02T14:51:40Z</time>
      </trkpt>
      <trkpt lat="47.22681" lon="-1.55328">
        <ele>4.8</ele>
        <time>2022-04-02T14:51:42Z</time>
      </trkpt>
      <trkpt lat="47.22657" lon="-1.55336">
        <ele>4</ele>
        <time>2022-04-02T14:51:46Z</time>
      </trkpt>
      <trkpt lat="47.22624" lon="-1.55331">
        <ele>3.2</ele>
        <time>2022-04-02T14:51:51Z</time>
      </trkpt>
      <trkpt lat="47.22617" lon="-1.55328">
        <ele>3</ele>
        <time>2022-04-02T14:51:52Z</time>
      </trkpt>
      <trkpt lat="47.22591" lon="-1.55318">
        <ele>2.6</ele>
        <time>2022-04-02T14:51:56Z</time>
      </trkpt>
      <trkpt lat="47.22556" lon="-1.55307">
        <ele>2</ele>
        <time>2022-04-02T14:52:02Z</time>
      </trkpt>
      <trkpt lat="47.22533" lon="-1.55302">
        <ele>1.6</ele>
        <time>2022-04-02T14:52:07Z</time>
      </trkpt>
      <trkpt lat="47.22501" lon="-1.55293">
        <ele>1</ele>
        <time>2022-04-02T14:52:13Z</time>
      </trkpt>
      <trkpt lat="47.22495" lon="-1.55291">
        <ele>1</ele>
        <time>2022-04-02T14:52:14Z</time>
      </trkpt>
      <trkpt lat="47.22466" lon="-1.55286">
        <ele>0.60000000000002</ele>
        <time>2022-04-02T14:52:19Z</time>
      </trkpt>
      <trkpt lat="47.22418" lon="-1.55277">
        <ele>0.19999999999999</ele>
        <time>2022-04-02T14:52:27Z</time>
      </trkpt>
      <trkpt lat="47.22383" lon="-1.55269">
        <ele>-0.19999999999999</ele>
        <time>2022-04-02T14:52:33Z</time>
      </trkpt>
      <trkpt lat="47.22359" lon="-1.55262">
        <ele>-0.39999999999998</ele>
        <time>2022-04-02T14:52:38Z</time>
      </trkpt>
      <trkpt lat="47.22343" lon="-1.5526">
        <ele>-0.19999999999999</ele>
        <time>2022-04-02T14:52:43Z</time>
      </trkpt>
      <trkpt lat="47.22332" lon="-1.55254">
        <ele>-0.39999999999998</ele>
        <time>2022-04-02T14:52:49Z</time>
      </trkpt>
      <trkpt lat="47.22318" lon="-1.55253">
        <ele>0.39999999999998</ele>
        <time>2022-04-02T14:52:55Z</time>
      </trkpt>
      <trkpt lat="47.22306" lon="-1.5525">
        <ele>0.80000000000001</ele>
        <time>2022-04-02T14:53:02Z</time>
      </trkpt>
      <trkpt lat="47.22306" lon="-1.5525">
        <ele>0.80000000000001</ele>
        <time>2022-04-02T14:53:04Z</time>
      </trkpt>
      <trkpt lat="47.22303" lon="-1.55252">
        <ele>1</ele>
        <time>2022-04-02T14:53:13Z</time>
      </trkpt>
      <trkpt lat="47.223" lon="-1.55253">
        <ele>1</ele>
        <time>2022-04-02T14:53:14Z</time>
      </trkpt>
      <trkpt lat="47.22296" lon="-1.55253">
        <ele>1.2</ele>
        <time>2022-04-02T14:53:17Z</time>
      </trkpt>
      <trkpt lat="47.22292" lon="-1.5525">
        <ele>1.4</ele>
        <time>2022-04-02T14:53:19Z</time>
      </trkpt>
      <trkpt lat="47.2229" lon="-1.55249">
        <ele>1.4</ele>
        <time>2022-04-02T14:53:20Z</time>
      </trkpt>
      <trkpt lat="47.22288" lon="-1.55247">
        <ele>1.6</ele>
        <time>2022-04-02T14:53:22Z</time>
      </trkpt>
      <trkpt lat="47.22287" lon="-1.55245">
        <ele>1.6</ele>
        <time>2022-04-02T14:53:23Z</time>
      </trkpt>
      <trkpt lat="47.22285" lon="-1.55243">
        <ele>1.6</ele>
        <time>2022-04-02T14:53:24Z</time>
      </trkpt>
      <trkpt lat="47.2228" lon="-1.5524">
        <ele>1.6</ele>
        <time>2022-04-02T14:53:26Z</time>
      </trkpt>
      <trkpt lat="47.2227" lon="-1.55241">
        <ele>1.4</ele>
        <time>2022-04-02T14:53:30Z</time>
      </trkpt>
      <trkpt lat="47.22268" lon="-1.55241">
        <ele>1.6</ele>
        <time>2022-04-02T14:53:33Z</time>
      </trkpt>
      <trkpt lat="47.22265" lon="-1.55232">
        <ele>1.6</ele>
        <time>2022-04-02T14:53:41Z</time>
      </trkpt>
      <trkpt lat="47.22256" lon="-1.55215">
        <ele>1.4</ele>
        <time>2022-04-02T14:53:47Z</time>
      </trkpt>
      <trkpt lat="47.22247" lon="-1.55206">
        <ele>1.2</ele>
        <time>2022-04-02T14:53:51Z</time>
      </trkpt>
      <trkpt lat="47.22245" lon="-1.55205">
        <ele>1</ele>
        <time>2022-04-02T14:53:52Z</time>
      </trkpt>
      <trkpt lat="47.22235" lon="-1.552">
        <ele>0.19999999999999</ele>
        <time>2022-04-02T14:53:57Z</time>
      </trkpt>
      <trkpt lat="47.22218" lon="-1.55182">
        <ele>-1</ele>
        <time>2022-04-02T14:54:02Z</time>
      </trkpt>
      <trkpt lat="47.22214" lon="-1.55179">
        <ele>-1.2</ele>
        <time>2022-04-02T14:54:03Z</time>
      </trkpt>
      <trkpt lat="47.22206" lon="-1.5517">
        <ele>-1.8</ele>
        <time>2022-04-02T14:54:06Z</time>
      </trkpt>
      <trkpt lat="47.22194" lon="-1.55159">
        <ele>-2.8</ele>
        <time>2022-04-02T14:54:11Z</time>
      </trkpt>
      <trkpt lat="47.22179" lon="-1.55159">
        <ele>-3.6</ele>
        <time>2022-04-02T14:54:15Z</time>
      </trkpt>
      <trkpt lat="47.2216" lon="-1.5516">
        <ele>-2.2</ele>
        <time>2022-04-02T14:54:19Z</time>
      </trkpt>
      <trkpt lat="47.22158" lon="-1.55165">
        <ele>-2</ele>
        <time>2022-04-02T14:54:20Z</time>
      </trkpt>
      <trkpt lat="47.22141" lon="-1.55202">
        <ele>-0.60000000000002</ele>
        <time>2022-04-02T14:54:27Z</time>
      </trkpt>
      <trkpt lat="47.22134" lon="-1.55214">
        <ele>-0.39999999999998</ele>
        <time>2022-04-02T14:54:29Z</time>
      </trkpt>
      <trkpt lat="47.22121" lon="-1.55231">
        <ele>-0.60000000000002</ele>
        <time>2022-04-02T14:54:32Z</time>
      </trkpt>
      <trkpt lat="47.22117" lon="-1.55238">
        <ele>-0.39999999999998</ele>
        <time>2022-04-02T14:54:33Z</time>
      </trkpt>
      <trkpt lat="47.22107" lon="-1.55261">
        <ele>0.39999999999998</ele>
        <time>2022-04-02T14:54:36Z</time>
      </trkpt>
      <trkpt lat="47.22104" lon="-1.55269">
        <ele>0.60000000000002</ele>
        <time>2022-04-02T14:54:37Z</time>
      </trkpt>
      <trkpt lat="47.22094" lon="-1.55291">
        <ele>-1</ele>
        <time>2022-04-02T14:54:40Z</time>
      </trkpt>
      <trkpt lat="47.22093" lon="-1.55298">
        <ele>-1</ele>
        <time>2022-04-02T14:54:41Z</time>
      </trkpt>
      <trkpt lat="47.22092" lon="-1.55303">
        <ele>-1</ele>
        <time>2022-04-02T14:54:42Z</time>
      </trkpt>
      <trkpt lat="47.22088" lon="-1.55316">
        <ele>-0.60000000000002</ele>
        <time>2022-04-02T14:54:46Z</time>
      </trkpt>
      <trkpt lat="47.22083" lon="-1.55327">
        <ele>-0.19999999999999</ele>
        <time>2022-04-02T14:54:51Z</time>
      </trkpt>
      <trkpt lat="47.2208" lon="-1.55328">
        <ele>0.19999999999999</ele>
        <time>2022-04-02T14:54:53Z</time>
      </trkpt>
      <trkpt lat="47.22077" lon="-1.55335">
        <ele>1.6</ele>
        <time>2022-04-02T14:55:30Z</time>
      </trkpt>
      <trkpt lat="47.22076" lon="-1.55339">
        <ele>1.6</ele>
        <time>2022-04-02T14:55:31Z</time>
      </trkpt>
      <trkpt lat="47.22072" lon="-1.55349">
        <ele>1.6</ele>
        <time>2022-04-02T14:55:34Z</time>
      </trkpt>
      <trkpt lat="47.22069" lon="-1.55357">
        <ele>1.6</ele>
        <time>2022-04-02T14:55:36Z</time>
      </trkpt>
      <trkpt lat="47.22061" lon="-1.55376">
        <ele>1.8</ele>
        <time>2022-04-02T14:55:41Z</time>
      </trkpt>
      <trkpt lat="47.22049" lon="-1.554">
        <ele>2.2</ele>
        <time>2022-04-02T14:55:46Z</time>
      </trkpt>
      <trkpt lat="47.22043" lon="-1.55418">
        <ele>2.2</ele>
        <time>2022-04-02T14:55:50Z</time>
      </trkpt>
      <trkpt lat="47.22031" lon="-1.5545">
        <ele>2.2</ele>
        <time>2022-04-02T14:55:56Z</time>
      </trkpt>
      <trkpt lat="47.22029" lon="-1.55457">
        <ele>2.4</ele>
        <time>2022-04-02T14:55:57Z</time>
      </trkpt>
      <trkpt lat="47.22024" lon="-1.55474">
        <ele>2.4</ele>
        <time>2022-04-02T14:56:00Z</time>
      </trkpt>
      <trkpt lat="47.22021" lon="-1.55479">
        <ele>2.4</ele>
        <time>2022-04-02T14:56:01Z</time>
      </trkpt>
      <trkpt lat="47.2201" lon="-1.55496">
        <ele>2.4</ele>
        <time>2022-04-02T14:56:04Z</time>
      </trkpt>
      <trkpt lat="47.22006" lon="-1.55502">
        <ele>2.4</ele>
        <time>2022-04-02T14:56:05Z</time>
      </trkpt>
      <trkpt lat="47.22002" lon="-1.55508">
        <ele>2.4</ele>
        <time>2022-04-02T14:56:06Z</time>
      </trkpt>
      <trkpt lat="47.21994" lon="-1.5553">
        <ele>2.4</ele>
        <time>2022-04-02T14:56:09Z</time>
      </trkpt>
      <trkpt lat="47.21991" lon="-1.55537">
        <ele>2.4</ele>
        <time>2022-04-02T14:56:10Z</time>
      </trkpt>
      <trkpt lat="47.2198" lon="-1.55556">
        <ele>2.4</ele>
        <time>2022-04-02T14:56:13Z</time>
      </trkpt>
      <trkpt lat="47.21957" lon="-1.55591">
        <ele>2.4</ele>
        <time>2022-04-02T14:56:19Z</time>
      </trkpt>
      <trkpt lat="47.21932" lon="-1.55626">
        <ele>1.6</ele>
        <time>2022-04-02T14:56:25Z</time>
      </trkpt>
      <trkpt lat="47.21916" lon="-1.55661">
        <ele>1.6</ele>
        <time>2022-04-02T14:56:30Z</time>
      </trkpt>
      <trkpt lat="47.21911" lon="-1.55666">
        <ele>1.4</ele>
        <time>2022-04-02T14:56:31Z</time>
      </trkpt>
      <trkpt lat="47.21892" lon="-1.55686">
        <ele>1.4</ele>
        <time>2022-04-02T14:56:35Z</time>
      </trkpt>
      <trkpt lat="47.21887" lon="-1.5569">
        <ele>1.2</ele>
        <time>2022-04-02T14:56:36Z</time>
      </trkpt>
      <trkpt lat="47.21861" lon="-1.55705">
        <ele>0.80000000000001</ele>
        <time>2022-04-02T14:56:41Z</time>
      </trkpt>
      <trkpt lat="47.21857" lon="-1.55707">
        <ele>0.80000000000001</ele>
        <time>2022-04-02T14:56:42Z</time>
      </trkpt>
      <trkpt lat="47.21832" lon="-1.55715">
        <ele>0.60000000000002</ele>
        <time>2022-04-02T14:56:48Z</time>
      </trkpt>
      <trkpt lat="47.21811" lon="-1.55715">
        <ele>0.60000000000002</ele>
        <time>2022-04-02T14:56:54Z</time>
      </trkpt>
      <trkpt lat="47.21786" lon="-1.55715">
        <ele>1.6</ele>
        <time>2022-04-02T14:57:02Z</time>
      </trkpt>
      <trkpt lat="47.21775" lon="-1.55714">
        <ele>1.4</ele>
        <time>2022-04-02T14:57:06Z</time>
      </trkpt>
      <trkpt lat="47.21771" lon="-1.55714">
        <ele>1.6</ele>
        <time>2022-04-02T14:57:08Z</time>
      </trkpt>
      <trkpt lat="47.21758" lon="-1.55717">
        <ele>2.2</ele>
        <time>2022-04-02T14:57:14Z</time>
      </trkpt>
      <trkpt lat="47.21755" lon="-1.55715">
        <ele>2.2</ele>
        <time>2022-04-02T14:57:15Z</time>
      </trkpt>
      <trkpt lat="47.21755" lon="-1.55707">
        <ele>2.4</ele>
        <time>2022-04-02T14:57:17Z</time>
      </trkpt>
      <trkpt lat="47.21757" lon="-1.55699">
        <ele>2.6</ele>
        <time>2022-04-02T14:57:20Z</time>
      </trkpt>
      <trkpt lat="47.21757" lon="-1.55696">
        <ele>2.6</ele>
        <time>2022-04-02T14:57:21Z</time>
      </trkpt>
      <trkpt lat="47.21757" lon="-1.55694">
        <ele>2.6</ele>
        <time>2022-04-02T14:57:23Z</time>
      </trkpt>
      <trkpt lat="47.21726" lon="-1.55707">
        <ele>68.8</ele>
        <time>2022-04-02T15:24:15Z</time>
      </trkpt>
      <trkpt lat="47.21726" lon="-1.55707">
        <ele>69</ele>
        <time>2022-04-02T15:24:16Z</time>
      </trkpt>
      <trkpt lat="47.21723" lon="-1.55693">
        <ele>64</ele>
        <time>2022-04-02T15:24:31Z</time>
      </trkpt>
      <trkpt lat="47.21723" lon="-1.55685">
        <ele>62.2</ele>
        <time>2022-04-02T15:24:32Z</time>
      </trkpt>
      <trkpt lat="47.21702" lon="-1.55676">
        <ele>56.8</ele>
        <time>2022-04-02T15:24:38Z</time>
      </trkpt>
      <trkpt lat="47.21692" lon="-1.55676">
        <ele>53</ele>
        <time>2022-04-02T15:24:44Z</time>
      </trkpt>
      <trkpt lat="47.21674" lon="-1.55671">
        <ele>49.4</ele>
        <time>2022-04-02T15:24:49Z</time>
      </trkpt>
      <trkpt lat="47.21646" lon="-1.55662">
        <ele>44.8</ele>
        <time>2022-04-02T15:24:56Z</time>
      </trkpt>
      <trkpt lat="47.21628" lon="-1.55657">
        <ele>41.6</ele>
        <time>2022-04-02T15:25:01Z</time>
      </trkpt>
      <trkpt lat="47.21613" lon="-1.55655">
        <ele>39.2</ele>
        <time>2022-04-02T15:25:05Z</time>
      </trkpt>
      <trkpt lat="47.21609" lon="-1.55653">
        <ele>38.6</ele>
        <time>2022-04-02T15:25:06Z</time>
      </trkpt>
      <trkpt lat="47.21601" lon="-1.55651">
        <ele>37.4</ele>
        <time>2022-04-02T15:25:08Z</time>
      </trkpt>
      <trkpt lat="47.21593" lon="-1.55647">
        <ele>36.2</ele>
        <time>2022-04-02T15:25:10Z</time>
      </trkpt>
      <trkpt lat="47.21561" lon="-1.55635">
        <ele>33</ele>
        <time>2022-04-02T15:25:17Z</time>
      </trkpt>
      <trkpt lat="47.21528" lon="-1.55624">
        <ele>28.8</ele>
        <time>2022-04-02T15:25:24Z</time>
      </trkpt>
      <trkpt lat="47.21501" lon="-1.5561">
        <ele>25.6</ele>
        <time>2022-04-02T15:25:30Z</time>
      </trkpt>
      <trkpt lat="47.21496" lon="-1.55607">
        <ele>25</ele>
        <time>2022-04-02T15:25:31Z</time>
      </trkpt>
      <trkpt lat="47.21465" lon="-1.55581">
        <ele>21.8</ele>
        <time>2022-04-02T15:25:37Z</time>
      </trkpt>
      <trkpt lat="47.21437" lon="-1.55556">
        <ele>19.2</ele>
        <time>2022-04-02T15:25:43Z</time>
      </trkpt>
      <trkpt lat="47.2143" lon="-1.55551">
        <ele>17.8</ele>
        <time>2022-04-02T15:25:46Z</time>
      </trkpt>
      <trkpt lat="47.21422" lon="-1.55544">
        <ele>14.4</ele>
        <time>2022-04-02T15:25:53Z</time>
      </trkpt>
      <trkpt lat="47.21413" lon="-1.55539">
        <ele>12</ele>
        <time>2022-04-02T15:25:59Z</time>
      </trkpt>
      <trkpt lat="47.21399" lon="-1.55526">
        <ele>9.6</ele>
        <time>2022-04-02T15:26:05Z</time>
      </trkpt>
      <trkpt lat="47.21378" lon="-1.55504">
        <ele>7.4</ele>
        <time>2022-04-02T15:26:12Z</time>
      </trkpt>
      <trkpt lat="47.21369" lon="-1.55507">
        <ele>6.6</ele>
        <time>2022-04-02T15:26:15Z</time>
      </trkpt>
      <trkpt lat="47.21366" lon="-1.55508">
        <ele>6.2</ele>
        <time>2022-04-02T15:26:16Z</time>
      </trkpt>
      <trkpt lat="47.21362" lon="-1.55506">
        <ele>5.4</ele>
        <time>2022-04-02T15:26:18Z</time>
      </trkpt>
      <trkpt lat="47.21351" lon="-1.55499">
        <ele>3.8</ele>
        <time>2022-04-02T15:26:22Z</time>
      </trkpt>
      <trkpt lat="47.21329" lon="-1.55483">
        <ele>1.4</ele>
        <time>2022-04-02T15:26:28Z</time>
      </trkpt>
      <trkpt lat="47.21302" lon="-1.55461">
        <ele>-1.4</ele>
        <time>2022-04-02T15:26:35Z</time>
      </trkpt>
      <trkpt lat="47.21287" lon="-1.55448">
        <ele>-3.4</ele>
        <time>2022-04-02T15:26:40Z</time>
      </trkpt>
      <trkpt lat="47.21274" lon="-1.55435">
        <ele>-5.4</ele>
        <time>2022-04-02T15:26:46Z</time>
      </trkpt>
      <trkpt lat="47.21273" lon="-1.55433">
        <ele>-5.8</ele>
        <time>2022-04-02T15:26:49Z</time>
      </trkpt>
      <trkpt lat="47.21271" lon="-1.55433">
        <ele>-7</ele>
        <time>2022-04-02T15:26:54Z</time>
      </trkpt>
      <trkpt lat="47.21269" lon="-1.55432">
        <ele>-7</ele>
        <time>2022-04-02T15:26:55Z</time>
      </trkpt>
      <trkpt lat="47.21255" lon="-1.55415">
        <ele>-7.8</ele>
        <time>2022-04-02T15:27:00Z</time>
      </trkpt>
      <trkpt lat="47.21231" lon="-1.55381">
        <ele>-9</ele>
        <time>2022-04-02T15:27:06Z</time>
      </trkpt>
      <trkpt lat="47.21201" lon="-1.55345">
        <ele>-10.6</ele>
        <time>2022-04-02T15:27:13Z</time>
      </trkpt>
      <trkpt lat="47.21162" lon="-1.55301">
        <ele>-12.4</ele>
        <time>2022-04-02T15:27:21Z</time>
      </trkpt>
      <trkpt lat="47.21133" lon="-1.55263">
        <ele>-13.2</ele>
        <time>2022-04-02T15:27:27Z</time>
      </trkpt>
      <trkpt lat="47.21092" lon="-1.55219">
        <ele>-14.4</ele>
        <time>2022-04-02T15:27:35Z</time>
      </trkpt>
      <trkpt lat="47.21064" lon="-1.55186">
        <ele>-15.8</ele>
        <time>2022-04-02T15:27:41Z</time>
      </trkpt>
      <trkpt lat="47.21032" lon="-1.55152">
        <ele>-17.2</ele>
        <time>2022-04-02T15:27:48Z</time>
      </trkpt>
      <trkpt lat="47.21005" lon="-1.5512">
        <ele>-17.2</ele>
        <time>2022-04-02T15:27:54Z</time>
      </trkpt>
      <trkpt lat="47.20978" lon="-1.55094">
        <ele>-18.2</ele>
        <time>2022-04-02T15:28:00Z</time>
      </trkpt>
      <trkpt lat="47.20968" lon="-1.55084">
        <ele>-18.4</ele>
        <time>2022-04-02T15:28:03Z</time>
      </trkpt>
      <trkpt lat="47.2096" lon="-1.55075">
        <ele>-18.8</ele>
        <time>2022-04-02T15:28:07Z</time>
      </trkpt>
      <trkpt lat="47.20952" lon="-1.55068">
        <ele>-18.8</ele>
        <time>2022-04-02T15:28:09Z</time>
      </trkpt>
      <trkpt lat="47.20944" lon="-1.5506">
        <ele>-18.8</ele>
        <time>2022-04-02T15:28:11Z</time>
      </trkpt>
      <trkpt lat="47.20919" lon="-1.55035">
        <ele>-20.2</ele>
        <time>2022-04-02T15:28:17Z</time>
      </trkpt>
      <trkpt lat="47.20902" lon="-1.55014">
        <ele>-20.8</ele>
        <time>2022-04-02T15:28:22Z</time>
      </trkpt>
      <trkpt lat="47.20897" lon="-1.55008">
        <ele>-21.4</ele>
        <time>2022-04-02T15:28:26Z</time>
      </trkpt>
      <trkpt lat="47.20885" lon="-1.54997">
        <ele>-21.6</ele>
        <time>2022-04-02T15:28:30Z</time>
      </trkpt>
      <trkpt lat="47.20874" lon="-1.54983">
        <ele>-22</ele>
        <time>2022-04-02T15:28:33Z</time>
      </trkpt>
      <trkpt lat="47.2087" lon="-1.54978">
        <ele>-22</ele>
        <time>2022-04-02T15:28:34Z</time>
      </trkpt>
      <trkpt lat="47.2083" lon="-1.5495">
        <ele>-21.4</ele>
        <time>2022-04-02T15:28:42Z</time>
      </trkpt>
      <trkpt lat="47.20785" lon="-1.54918">
        <ele>-20</ele>
        <time>2022-04-02T15:28:51Z</time>
      </trkpt>
      <trkpt lat="47.20736" lon="-1.54884">
        <ele>-19.8</ele>
        <time>2022-04-02T15:29:01Z</time>
      </trkpt>
      <trkpt lat="47.2072" lon="-1.54874">
        <ele>-19.8</ele>
        <time>2022-04-02T15:29:06Z</time>
      </trkpt>
      <trkpt lat="47.20704" lon="-1.54864">
        <ele>-19.2</ele>
        <time>2022-04-02T15:29:11Z</time>
      </trkpt>
      <trkpt lat="47.20689" lon="-1.54854">
        <ele>-19.2</ele>
        <time>2022-04-02T15:29:16Z</time>
      </trkpt>
      <trkpt lat="47.20673" lon="-1.54844">
        <ele>-19.6</ele>
        <time>2022-04-02T15:29:21Z</time>
      </trkpt>
      <trkpt lat="47.20656" lon="-1.54833">
        <ele>-19.8</ele>
        <time>2022-04-02T15:29:27Z</time>
      </trkpt>
      <trkpt lat="47.20632" lon="-1.54814">
        <ele>-20.6</ele>
        <time>2022-04-02T15:29:35Z</time>
      </trkpt>
      <trkpt lat="47.20613" lon="-1.54797">
        <ele>-21.4</ele>
        <time>2022-04-02T15:29:42Z</time>
      </trkpt>
      <trkpt lat="47.20601" lon="-1.54794">
        <ele>-22</ele>
        <time>2022-04-02T15:29:48Z</time>
      </trkpt>
      <trkpt lat="47.2059" lon="-1.5479">
        <ele>-22</ele>
        <time>2022-04-02T15:29:53Z</time>
      </trkpt>
      <trkpt lat="47.20583" lon="-1.54788">
        <ele>-21.6</ele>
        <time>2022-04-02T15:29:55Z</time>
      </trkpt>
      <trkpt lat="47.20579" lon="-1.54786">
        <ele>-21.6</ele>
        <time>2022-04-02T15:29:56Z</time>
      </trkpt>
      <trkpt lat="47.20575" lon="-1.54783">
        <ele>-21.4</ele>
        <time>2022-04-02T15:29:57Z</time>
      </trkpt>
      <trkpt lat="47.20562" lon="-1.54776">
        <ele>-22.2</ele>
        <time>2022-04-02T15:30:00Z</time>
      </trkpt>
      <trkpt lat="47.20545" lon="-1.54767">
        <ele>-22.6</ele>
        <time>2022-04-02T15:30:04Z</time>
      </trkpt>
      <trkpt lat="47.20539" lon="-1.54763">
        <ele>-22</ele>
        <time>2022-04-02T15:30:06Z</time>
      </trkpt>
      <trkpt lat="47.20538" lon="-1.54761">
        <ele>-22</ele>
        <time>2022-04-02T15:30:08Z</time>
      </trkpt>
      <trkpt lat="47.20537" lon="-1.54762">
        <ele>-22.4</ele>
        <time>2022-04-02T15:30:17Z</time>
      </trkpt>
      <trkpt lat="47.20524" lon="-1.54758">
        <ele>-22.6</ele>
        <time>2022-04-02T15:30:21Z</time>
      </trkpt>
      <trkpt lat="47.20512" lon="-1.54753">
        <ele>-22.8</ele>
        <time>2022-04-02T15:30:25Z</time>
      </trkpt>
      <trkpt lat="47.2051" lon="-1.54752">
        <ele>-22.8</ele>
        <time>2022-04-02T15:30:26Z</time>
      </trkpt>
      <trkpt lat="47.20506" lon="-1.5475">
        <ele>-21.6</ele>
        <time>2022-04-02T15:30:28Z</time>
      </trkpt>
      <trkpt lat="47.20507" lon="-1.54757">
        <ele>-21.6</ele>
        <time>2022-04-02T15:30:30Z</time>
      </trkpt>
      <trkpt lat="47.20508" lon="-1.54761">
        <ele>-22.2</ele>
        <time>2022-04-02T15:30:31Z</time>
      </trkpt>
      <trkpt lat="47.20507" lon="-1.54775">
        <ele>-22.8</ele>
        <time>2022-04-02T15:30:34Z</time>
      </trkpt>
      <trkpt lat="47.20507" lon="-1.54788">
        <ele>-21.8</ele>
        <time>2022-04-02T15:30:36Z</time>
      </trkpt>
      <trkpt lat="47.20501" lon="-1.548">
        <ele>-21</ele>
        <time>2022-04-02T15:30:38Z</time>
      </trkpt>
      <trkpt lat="47.20494" lon="-1.54834">
        <ele>-20.6</ele>
        <time>2022-04-02T15:30:43Z</time>
      </trkpt>
      <trkpt lat="47.2048" lon="-1.54877">
        <ele>-19.6</ele>
        <time>2022-04-02T15:30:49Z</time>
      </trkpt>
      <trkpt lat="47.20473" lon="-1.54891">
        <ele>-19</ele>
        <time>2022-04-02T15:30:51Z</time>
      </trkpt>
      <trkpt lat="47.20467" lon="-1.54906">
        <ele>-18.8</ele>
        <time>2022-04-02T15:30:53Z</time>
      </trkpt>
      <trkpt lat="47.20465" lon="-1.54921">
        <ele>-18.8</ele>
        <time>2022-04-02T15:30:55Z</time>
      </trkpt>
      <trkpt lat="47.20456" lon="-1.54954">
        <ele>-18.4</ele>
        <time>2022-04-02T15:31:00Z</time>
      </trkpt>
      <trkpt lat="47.20451" lon="-1.54968">
        <ele>-18.6</ele>
        <time>2022-04-02T15:31:02Z</time>
      </trkpt>
      <trkpt lat="47.20447" lon="-1.54983">
        <ele>-18.4</ele>
        <time>2022-04-02T15:31:04Z</time>
      </trkpt>
      <trkpt lat="47.20438" lon="-1.55012">
        <ele>-18.2</ele>
        <time>2022-04-02T15:31:08Z</time>
      </trkpt>
      <trkpt lat="47.20435" lon="-1.55026">
        <ele>-18.2</ele>
        <time>2022-04-02T15:31:10Z</time>
      </trkpt>
      <trkpt lat="47.2043" lon="-1.5504">
        <ele>-18</ele>
        <time>2022-04-02T15:31:12Z</time>
      </trkpt>
      <trkpt lat="47.20408" lon="-1.55097">
        <ele>-17.8</ele>
        <time>2022-04-02T15:31:20Z</time>
      </trkpt>
      <trkpt lat="47.20397" lon="-1.55124">
        <ele>-17.8</ele>
        <time>2022-04-02T15:31:24Z</time>
      </trkpt>
      <trkpt lat="47.20394" lon="-1.55129">
        <ele>-17.8</ele>
        <time>2022-04-02T15:31:25Z</time>
      </trkpt>
      <trkpt lat="47.2039" lon="-1.55137">
        <ele>-17.8</ele>
        <time>2022-04-02T15:31:28Z</time>
      </trkpt>
      <trkpt lat="47.20391" lon="-1.5514">
        <ele>-17.6</ele>
        <time>2022-04-02T15:31:30Z</time>
      </trkpt>
      <trkpt lat="47.20396" lon="-1.55147">
        <ele>-17.6</ele>
        <time>2022-04-02T15:31:33Z</time>
      </trkpt>
      <trkpt lat="47.204" lon="-1.55153">
        <ele>-17.6</ele>
        <time>2022-04-02T15:31:36Z</time>
      </trkpt>
      <trkpt lat="47.20402" lon="-1.55157">
        <ele>-17.4</ele>
        <time>2022-04-02T15:31:37Z</time>
      </trkpt>
      <trkpt lat="47.20402" lon="-1.55164">
        <ele>-17.2</ele>
        <time>2022-04-02T15:31:39Z</time>
      </trkpt>
      <trkpt lat="47.20396" lon="-1.55173">
        <ele>-17.2</ele>
        <time>2022-04-02T15:31:41Z</time>
      </trkpt>
      <trkpt lat="47.20384" lon="-1.55181">
        <ele>-17.2</ele>
        <time>2022-04-02T15:31:43Z</time>
      </trkpt>
      <trkpt lat="47.20374" lon="-1.5519">
        <ele>-17.2</ele>
        <time>2022-04-02T15:31:45Z</time>
      </trkpt>
      <trkpt lat="47.20347" lon="-1.55223">
        <ele>-17.2</ele>
        <time>2022-04-02T15:31:50Z</time>
      </trkpt>
      <trkpt lat="47.20318" lon="-1.55262">
        <ele>-17.2</ele>
        <time>2022-04-02T15:31:55Z</time>
      </trkpt>
      <trkpt lat="47.20286" lon="-1.55302">
        <ele>-17.6</ele>
        <time>2022-04-02T15:32:01Z</time>
      </trkpt>
      <trkpt lat="47.2027" lon="-1.55323">
        <ele>-17.8</ele>
        <time>2022-04-02T15:32:04Z</time>
      </trkpt>
      <trkpt lat="47.20262" lon="-1.55341">
        <ele>-17.2</ele>
        <time>2022-04-02T15:32:06Z</time>
      </trkpt>
      <trkpt lat="47.20233" lon="-1.55375">
        <ele>-16.8</ele>
        <time>2022-04-02T15:32:11Z</time>
      </trkpt>
      <trkpt lat="47.20204" lon="-1.55411">
        <ele>-16</ele>
        <time>2022-04-02T15:32:16Z</time>
      </trkpt>
      <trkpt lat="47.20189" lon="-1.55433">
        <ele>-15.6</ele>
        <time>2022-04-02T15:32:19Z</time>
      </trkpt>
      <trkpt lat="47.20184" lon="-1.55442">
        <ele>-15.4</ele>
        <time>2022-04-02T15:32:20Z</time>
      </trkpt>
      <trkpt lat="47.20176" lon="-1.5546">
        <ele>-15</ele>
        <time>2022-04-02T15:32:22Z</time>
      </trkpt>
      <trkpt lat="47.20172" lon="-1.5548">
        <ele>-14.6</ele>
        <time>2022-04-02T15:32:24Z</time>
      </trkpt>
      <trkpt lat="47.20171" lon="-1.555">
        <ele>-14.2</ele>
        <time>2022-04-02T15:32:26Z</time>
      </trkpt>
      <trkpt lat="47.20174" lon="-1.55519">
        <ele>-14</ele>
        <time>2022-04-02T15:32:28Z</time>
      </trkpt>
      <trkpt lat="47.20182" lon="-1.55536">
        <ele>-13.6</ele>
        <time>2022-04-02T15:32:30Z</time>
      </trkpt>
      <trkpt lat="47.20188" lon="-1.5554">
        <ele>-13.6</ele>
        <time>2022-04-02T15:32:31Z</time>
      </trkpt>
      <trkpt lat="47.20195" lon="-1.55543">
        <ele>-13.4</ele>
        <time>2022-04-02T15:32:32Z</time>
      </trkpt>
      <trkpt lat="47.20214" lon="-1.5555">
        <ele>-12.8</ele>
        <time>2022-04-02T15:32:35Z</time>
      </trkpt>
      <trkpt lat="47.20255" lon="-1.55567">
        <ele>-11.8</ele>
        <time>2022-04-02T15:32:42Z</time>
      </trkpt>
      <trkpt lat="47.20277" lon="-1.55573">
        <ele>-11</ele>
        <time>2022-04-02T15:32:46Z</time>
      </trkpt>
      <trkpt lat="47.20286" lon="-1.55579">
        <ele>-10.8</ele>
        <time>2022-04-02T15:32:48Z</time>
      </trkpt>
      <trkpt lat="47.20299" lon="-1.55592">
        <ele>-10.2</ele>
        <time>2022-04-02T15:32:52Z</time>
      </trkpt>
      <trkpt lat="47.203" lon="-1.55607">
        <ele>-9.8</ele>
        <time>2022-04-02T15:32:55Z</time>
      </trkpt>
      <trkpt lat="47.20295" lon="-1.55651">
        <ele>-9</ele>
        <time>2022-04-02T15:33:01Z</time>
      </trkpt>
      <trkpt lat="47.20285" lon="-1.55734">
        <ele>-7.8</ele>
        <time>2022-04-02T15:33:11Z</time>
      </trkpt>
      <trkpt lat="47.20276" lon="-1.55819">
        <ele>-6.6</ele>
        <time>2022-04-02T15:33:21Z</time>
      </trkpt>
      <trkpt lat="47.20267" lon="-1.5589">
        <ele>-5.6</ele>
        <time>2022-04-02T15:33:30Z</time>
      </trkpt>
      <trkpt lat="47.20265" lon="-1.5591">
        <ele>-5.4</ele>
        <time>2022-04-02T15:33:33Z</time>
      </trkpt>
      <trkpt lat="47.20263" lon="-1.55929">
        <ele>-5</ele>
        <time>2022-04-02T15:33:36Z</time>
      </trkpt>
      <trkpt lat="47.20257" lon="-1.55982">
        <ele>-4</ele>
        <time>2022-04-02T15:33:43Z</time>
      </trkpt>
      <trkpt lat="47.20251" lon="-1.56044">
        <ele>-3.2</ele>
        <time>2022-04-02T15:33:51Z</time>
      </trkpt>
      <trkpt lat="47.20243" lon="-1.5611">
        <ele>-2.4</ele>
        <time>2022-04-02T15:33:59Z</time>
      </trkpt>
      <trkpt lat="47.2024" lon="-1.56132">
        <ele>-2.2</ele>
        <time>2022-04-02T15:34:02Z</time>
      </trkpt>
      <trkpt lat="47.20234" lon="-1.56146">
        <ele>-2</ele>
        <time>2022-04-02T15:34:04Z</time>
      </trkpt>
      <trkpt lat="47.20229" lon="-1.56152">
        <ele>-2</ele>
        <time>2022-04-02T15:34:05Z</time>
      </trkpt>
      <trkpt lat="47.2022" lon="-1.56162">
        <ele>-1.8</ele>
        <time>2022-04-02T15:34:07Z</time>
      </trkpt>
      <trkpt lat="47.20215" lon="-1.56165">
        <ele>-1.8</ele>
        <time>2022-04-02T15:34:08Z</time>
      </trkpt>
      <trkpt lat="47.20209" lon="-1.56169">
        <ele>-1.8</ele>
        <time>2022-04-02T15:34:09Z</time>
      </trkpt>
      <trkpt lat="47.20188" lon="-1.5618">
        <ele>-1.4</ele>
        <time>2022-04-02T15:34:13Z</time>
      </trkpt>
      <trkpt lat="47.2018" lon="-1.56191">
        <ele>-1.2</ele>
        <time>2022-04-02T15:34:15Z</time>
      </trkpt>
      <trkpt lat="47.20176" lon="-1.56195">
        <ele>-1.2</ele>
        <time>2022-04-02T15:34:16Z</time>
      </trkpt>
      <trkpt lat="47.20165" lon="-1.56196">
        <ele>-1.2</ele>
        <time>2022-04-02T15:34:18Z</time>
      </trkpt>
      <trkpt lat="47.20161" lon="-1.56193">
        <ele>-1</ele>
        <time>2022-04-02T15:34:19Z</time>
      </trkpt>
      <trkpt lat="47.20152" lon="-1.56183">
        <ele>-1</ele>
        <time>2022-04-02T15:34:21Z</time>
      </trkpt>
      <trkpt lat="47.20147" lon="-1.56181">
        <ele>-1</ele>
        <time>2022-04-02T15:34:22Z</time>
      </trkpt>
      <trkpt lat="47.2013" lon="-1.5618">
        <ele>-0.80000000000001</ele>
        <time>2022-04-02T15:34:25Z</time>
      </trkpt>
      <trkpt lat="47.20114" lon="-1.56181">
        <ele>-0.60000000000002</ele>
        <time>2022-04-02T15:34:28Z</time>
      </trkpt>
      <trkpt lat="47.2007" lon="-1.5618">
        <ele>-0.60000000000002</ele>
        <time>2022-04-02T15:34:36Z</time>
      </trkpt>
      <trkpt lat="47.20019" lon="-1.56183">
        <ele>0.39999999999998</ele>
        <time>2022-04-02T15:34:45Z</time>
      </trkpt>
      <trkpt lat="47.20014" lon="-1.56184">
        <ele>0.39999999999998</ele>
        <time>2022-04-02T15:34:46Z</time>
      </trkpt>
      <trkpt lat="47.20001" lon="-1.56191">
        <ele>0.39999999999998</ele>
        <time>2022-04-02T15:34:49Z</time>
      </trkpt>
      <trkpt lat="47.19994" lon="-1.56195">
        <ele>0.60000000000002</ele>
        <time>2022-04-02T15:34:51Z</time>
      </trkpt>
      <trkpt lat="47.19984" lon="-1.56193">
        <ele>0.60000000000002</ele>
        <time>2022-04-02T15:34:53Z</time>
      </trkpt>
      <trkpt lat="47.19978" lon="-1.56182">
        <ele>0.60000000000002</ele>
        <time>2022-04-02T15:34:55Z</time>
      </trkpt>
      <trkpt lat="47.19975" lon="-1.56175">
        <ele>0.80000000000001</ele>
        <time>2022-04-02T15:34:56Z</time>
      </trkpt>
      <trkpt lat="47.19972" lon="-1.56169">
        <ele>0.80000000000001</ele>
        <time>2022-04-02T15:34:57Z</time>
      </trkpt>
      <trkpt lat="47.19968" lon="-1.56166">
        <ele>0.80000000000001</ele>
        <time>2022-04-02T15:34:58Z</time>
      </trkpt>
      <trkpt lat="47.19963" lon="-1.56165">
        <ele>0.80000000000001</ele>
        <time>2022-04-02T15:34:59Z</time>
      </trkpt>
      <trkpt lat="47.19935" lon="-1.56172">
        <ele>1</ele>
        <time>2022-04-02T15:35:05Z</time>
      </trkpt>
      <trkpt lat="47.19908" lon="-1.56177">
        <ele>1.4</ele>
        <time>2022-04-02T15:35:11Z</time>
      </trkpt>
      <trkpt lat="47.19876" lon="-1.56182">
        <ele>2</ele>
        <time>2022-04-02T15:35:18Z</time>
      </trkpt>
      <trkpt lat="47.19839" lon="-1.56189">
        <ele>2.6</ele>
        <time>2022-04-02T15:35:25Z</time>
      </trkpt>
      <trkpt lat="47.19788" lon="-1.56198">
        <ele>3.4</ele>
        <time>2022-04-02T15:35:34Z</time>
      </trkpt>
      <trkpt lat="47.19729" lon="-1.56208">
        <ele>3.6</ele>
        <time>2022-04-02T15:35:43Z</time>
      </trkpt>
      <trkpt lat="47.19682" lon="-1.56218">
        <ele>3.6</ele>
        <time>2022-04-02T15:35:49Z</time>
      </trkpt>
      <trkpt lat="47.19654" lon="-1.56227">
        <ele>3.6</ele>
        <time>2022-04-02T15:35:53Z</time>
      </trkpt>
      <trkpt lat="47.19643" lon="-1.56232">
        <ele>3.8</ele>
        <time>2022-04-02T15:35:55Z</time>
      </trkpt>
      <trkpt lat="47.19639" lon="-1.56239">
        <ele>3.2</ele>
        <time>2022-04-02T15:35:56Z</time>
      </trkpt>
      <trkpt lat="47.19635" lon="-1.56248">
        <ele>3.2</ele>
        <time>2022-04-02T15:35:57Z</time>
      </trkpt>
      <trkpt lat="47.19633" lon="-1.56267">
        <ele>3.2</ele>
        <time>2022-04-02T15:35:59Z</time>
      </trkpt>
      <trkpt lat="47.19632" lon="-1.56321">
        <ele>2.8</ele>
        <time>2022-04-02T15:36:05Z</time>
      </trkpt>
      <trkpt lat="47.19631" lon="-1.56345">
        <ele>2.6</ele>
        <time>2022-04-02T15:36:09Z</time>
      </trkpt>
      <trkpt lat="47.1963" lon="-1.56374">
        <ele>2.2</ele>
        <time>2022-04-02T15:36:14Z</time>
      </trkpt>
      <trkpt lat="47.19632" lon="-1.56398">
        <ele>2</ele>
        <time>2022-04-02T15:36:19Z</time>
      </trkpt>
      <trkpt lat="47.19631" lon="-1.56405">
        <ele>2</ele>
        <time>2022-04-02T15:36:22Z</time>
      </trkpt>
      <trkpt lat="47.19631" lon="-1.56414">
        <ele>1</ele>
        <time>2022-04-02T15:37:34Z</time>
      </trkpt>
      <trkpt lat="47.19632" lon="-1.56439">
        <ele>1</ele>
        <time>2022-04-02T15:37:38Z</time>
      </trkpt>
      <trkpt lat="47.19634" lon="-1.56484">
        <ele>0.80000000000001</ele>
        <time>2022-04-02T15:37:45Z</time>
      </trkpt>
      <trkpt lat="47.19635" lon="-1.5649">
        <ele>0.80000000000001</ele>
        <time>2022-04-02T15:37:46Z</time>
      </trkpt>
      <trkpt lat="47.19635" lon="-1.56505">
        <ele>0.80000000000001</ele>
        <time>2022-04-02T15:37:48Z</time>
      </trkpt>
      <trkpt lat="47.19633" lon="-1.5652">
        <ele>0.60000000000002</ele>
        <time>2022-04-02T15:37:50Z</time>
      </trkpt>
      <trkpt lat="47.19631" lon="-1.56567">
        <ele>0.39999999999998</ele>
        <time>2022-04-02T15:37:56Z</time>
      </trkpt>
      <trkpt lat="47.19628" lon="-1.5662">
        <ele>0.19999999999999</ele>
        <time>2022-04-02T15:38:03Z</time>
      </trkpt>
      <trkpt lat="47.19628" lon="-1.56628">
        <ele>0.19999999999999</ele>
        <time>2022-04-02T15:38:04Z</time>
      </trkpt>
      <trkpt lat="47.19626" lon="-1.56665">
        <ele>0.19999999999999</ele>
        <time>2022-04-02T15:38:09Z</time>
      </trkpt>
      <trkpt lat="47.19621" lon="-1.56735">
        <ele>0.39999999999998</ele>
        <time>2022-04-02T15:38:18Z</time>
      </trkpt>
      <trkpt lat="47.19617" lon="-1.56795">
        <ele>0.39999999999998</ele>
        <time>2022-04-02T15:38:26Z</time>
      </trkpt>
      <trkpt lat="47.19614" lon="-1.56848">
        <ele>0.60000000000002</ele>
        <time>2022-04-02T15:38:33Z</time>
      </trkpt>
      <trkpt lat="47.1961" lon="-1.56909">
        <ele>0.60000000000002</ele>
        <time>2022-04-02T15:38:41Z</time>
      </trkpt>
      <trkpt lat="47.19607" lon="-1.56969">
        <ele>0.80000000000001</ele>
        <time>2022-04-02T15:38:49Z</time>
      </trkpt>
      <trkpt lat="47.19606" lon="-1.57009">
        <ele>0.80000000000001</ele>
        <time>2022-04-02T15:38:54Z</time>
      </trkpt>
      <trkpt lat="47.19605" lon="-1.57018">
        <ele>0.80000000000001</ele>
        <time>2022-04-02T15:38:55Z</time>
      </trkpt>
      <trkpt lat="47.19604" lon="-1.57036">
        <ele>0.80000000000001</ele>
        <time>2022-04-02T15:38:57Z</time>
      </trkpt>
      <trkpt lat="47.19604" lon="-1.57044">
        <ele>0.80000000000001</ele>
        <time>2022-04-02T15:38:58Z</time>
      </trkpt>
      <trkpt lat="47.19604" lon="-1.5706">
        <ele>0.60000000000002</ele>
        <time>2022-04-02T15:39:00Z</time>
      </trkpt>
      <trkpt lat="47.19604" lon="-1.57068">
        <ele>0.60000000000002</ele>
        <time>2022-04-02T15:39:01Z</time>
      </trkpt>
      <trkpt lat="47.19604" lon="-1.57076">
        <ele>0.60000000000002</ele>
        <time>2022-04-02T15:39:02Z</time>
      </trkpt>
      <trkpt lat="47.19603" lon="-1.57106">
        <ele>0.39999999999998</ele>
        <time>2022-04-02T15:39:06Z</time>
      </trkpt>
      <trkpt lat="47.19601" lon="-1.57142">
        <ele>0.39999999999998</ele>
        <time>2022-04-02T15:39:11Z</time>
      </trkpt>
      <trkpt lat="47.19601" lon="-1.57149">
        <ele>0.39999999999998</ele>
        <time>2022-04-02T15:39:12Z</time>
      </trkpt>
      <trkpt lat="47.19598" lon="-1.57183">
        <ele>0.19999999999999</ele>
        <time>2022-04-02T15:39:18Z</time>
      </trkpt>
      <trkpt lat="47.19596" lon="-1.57196">
        <ele>0.19999999999999</ele>
        <time>2022-04-02T15:39:20Z</time>
      </trkpt>
      <trkpt lat="47.19596" lon="-1.5721">
        <ele>0.19999999999999</ele>
        <time>2022-04-02T15:39:22Z</time>
      </trkpt>
      <trkpt lat="47.19595" lon="-1.57218">
        <ele>0.19999999999999</ele>
        <time>2022-04-02T15:39:23Z</time>
      </trkpt>
      <trkpt lat="47.19588" lon="-1.57287">
        <ele>0.39999999999998</ele>
        <time>2022-04-02T15:39:32Z</time>
      </trkpt>
      <trkpt lat="47.19587" lon="-1.57294">
        <ele>0.60000000000002</ele>
        <time>2022-04-02T15:39:33Z</time>
      </trkpt>
      <trkpt lat="47.19586" lon="-1.57318">
        <ele>0.60000000000002</ele>
        <time>2022-04-02T15:39:36Z</time>
      </trkpt>
      <trkpt lat="47.19576" lon="-1.57365">
        <ele>0.39999999999998</ele>
        <time>2022-04-02T15:39:42Z</time>
      </trkpt>
      <trkpt lat="47.19573" lon="-1.57381">
        <ele>0.39999999999998</ele>
        <time>2022-04-02T15:39:44Z</time>
      </trkpt>
      <trkpt lat="47.19567" lon="-1.57406">
        <ele>0.39999999999998</ele>
        <time>2022-04-02T15:39:47Z</time>
      </trkpt>
      <trkpt lat="47.19556" lon="-1.57464">
        <ele>0.39999999999998</ele>
        <time>2022-04-02T15:39:54Z</time>
      </trkpt>
      <trkpt lat="47.19542" lon="-1.57529">
        <ele>0.60000000000002</ele>
        <time>2022-04-02T15:40:02Z</time>
      </trkpt>
      <trkpt lat="47.19531" lon="-1.57587">
        <ele>0.80000000000001</ele>
        <time>2022-04-02T15:40:09Z</time>
      </trkpt>
      <trkpt lat="47.19519" lon="-1.57645">
        <ele>0.80000000000001</ele>
        <time>2022-04-02T15:40:16Z</time>
      </trkpt>
      <trkpt lat="47.19503" lon="-1.5772">
        <ele>1</ele>
        <time>2022-04-02T15:40:25Z</time>
      </trkpt>
      <trkpt lat="47.1949" lon="-1.57786">
        <ele>1.2</ele>
        <time>2022-04-02T15:40:33Z</time>
      </trkpt>
      <trkpt lat="47.1948" lon="-1.57834">
        <ele>1.4</ele>
        <time>2022-04-02T15:40:39Z</time>
      </trkpt>
      <trkpt lat="47.1948" lon="-1.57842">
        <ele>1.4</ele>
        <time>2022-04-02T15:40:40Z</time>
      </trkpt>
      <trkpt lat="47.1948" lon="-1.57858">
        <ele>1.4</ele>
        <time>2022-04-02T15:40:42Z</time>
      </trkpt>
      <trkpt lat="47.19485" lon="-1.57881">
        <ele>1.4</ele>
        <time>2022-04-02T15:40:45Z</time>
      </trkpt>
      <trkpt lat="47.195" lon="-1.57949">
        <ele>1.2</ele>
        <time>2022-04-02T15:40:54Z</time>
      </trkpt>
      <trkpt lat="47.19509" lon="-1.57995">
        <ele>1.2</ele>
        <time>2022-04-02T15:41:01Z</time>
      </trkpt>
      <trkpt lat="47.19513" lon="-1.58011">
        <ele>1.4</ele>
        <time>2022-04-02T15:41:05Z</time>
      </trkpt>
      <trkpt lat="47.19516" lon="-1.58028">
        <ele>1.2</ele>
        <time>2022-04-02T15:41:11Z</time>
      </trkpt>
      <trkpt lat="47.19522" lon="-1.58048">
        <ele>1.2</ele>
        <time>2022-04-02T15:41:15Z</time>
      </trkpt>
      <trkpt lat="47.19523" lon="-1.58055">
        <ele>1.2</ele>
        <time>2022-04-02T15:41:16Z</time>
      </trkpt>
      <trkpt lat="47.19528" lon="-1.58082">
        <ele>1</ele>
        <time>2022-04-02T15:41:20Z</time>
      </trkpt>
      <trkpt lat="47.19529" lon="-1.58095">
        <ele>1</ele>
        <time>2022-04-02T15:41:22Z</time>
      </trkpt>
      <trkpt lat="47.19527" lon="-1.58145">
        <ele>1</ele>
        <time>2022-04-02T15:41:29Z</time>
      </trkpt>
      <trkpt lat="47.19525" lon="-1.58183">
        <ele>0.80000000000001</ele>
        <time>2022-04-02T15:41:34Z</time>
      </trkpt>
      <trkpt lat="47.19522" lon="-1.58217">
        <ele>0.80000000000001</ele>
        <time>2022-04-02T15:41:39Z</time>
      </trkpt>
      <trkpt lat="47.19521" lon="-1.58233">
        <ele>0.80000000000001</ele>
        <time>2022-04-02T15:41:42Z</time>
      </trkpt>
      <trkpt lat="47.1952" lon="-1.5824">
        <ele>1</ele>
        <time>2022-04-02T15:41:43Z</time>
      </trkpt>
      <trkpt lat="47.19514" lon="-1.5826">
        <ele>0.60000000000002</ele>
        <time>2022-04-02T15:41:46Z</time>
      </trkpt>
      <trkpt lat="47.19508" lon="-1.58273">
        <ele>0.39999999999998</ele>
        <time>2022-04-02T15:41:48Z</time>
      </trkpt>
      <trkpt lat="47.19486" lon="-1.58315">
        <ele>0.19999999999999</ele>
        <time>2022-04-02T15:41:55Z</time>
      </trkpt>
      <trkpt lat="47.19467" lon="-1.58358">
        <ele>0.19999999999999</ele>
        <time>2022-04-02T15:42:02Z</time>
      </trkpt>
      <trkpt lat="47.19465" lon="-1.58362">
        <ele>0.19999999999999</ele>
        <time>2022-04-02T15:42:03Z</time>
      </trkpt>
      <trkpt lat="47.1946" lon="-1.58378">
        <ele>0.19999999999999</ele>
        <time>2022-04-02T15:42:06Z</time>
      </trkpt>
      <trkpt lat="47.19445" lon="-1.5841">
        <ele>0.19999999999999</ele>
        <time>2022-04-02T15:42:12Z</time>
      </trkpt>
      <trkpt lat="47.19441" lon="-1.58416">
        <ele>0.39999999999998</ele>
        <time>2022-04-02T15:42:13Z</time>
      </trkpt>
      <trkpt lat="47.19433" lon="-1.58428">
        <ele>0.60000000000002</ele>
        <time>2022-04-02T15:42:16Z</time>
      </trkpt>
      <trkpt lat="47.19423" lon="-1.58445">
        <ele>0.80000000000001</ele>
        <time>2022-04-02T15:42:20Z</time>
      </trkpt>
      <trkpt lat="47.19409" lon="-1.58455">
        <ele>1</ele>
        <time>2022-04-02T15:42:24Z</time>
      </trkpt>
      <trkpt lat="47.19407" lon="-1.58456">
        <ele>1</ele>
        <time>2022-04-02T15:42:25Z</time>
      </trkpt>
      <trkpt lat="47.194" lon="-1.58455">
        <ele>1.2</ele>
        <time>2022-04-02T15:42:27Z</time>
      </trkpt>
      <trkpt lat="47.19391" lon="-1.58453">
        <ele>1.6</ele>
        <time>2022-04-02T15:42:30Z</time>
      </trkpt>
      <trkpt lat="47.19389" lon="-1.58451">
        <ele>1.6</ele>
        <time>2022-04-02T15:42:31Z</time>
      </trkpt>
      <trkpt lat="47.19387" lon="-1.58448">
        <ele>1.8</ele>
        <time>2022-04-02T15:42:32Z</time>
      </trkpt>
      <trkpt lat="47.19381" lon="-1.58446">
        <ele>1.8</ele>
        <time>2022-04-02T15:42:34Z</time>
      </trkpt>
      <trkpt lat="47.19374" lon="-1.58442">
        <ele>1.8</ele>
        <time>2022-04-02T15:42:36Z</time>
      </trkpt>
      <trkpt lat="47.19365" lon="-1.58435">
        <ele>2</ele>
        <time>2022-04-02T15:42:38Z</time>
      </trkpt>
      <trkpt lat="47.19348" lon="-1.58421">
        <ele>2</ele>
        <time>2022-04-02T15:42:42Z</time>
      </trkpt>
      <trkpt lat="47.19339" lon="-1.5842">
        <ele>2</ele>
        <time>2022-04-02T15:42:44Z</time>
      </trkpt>
      <trkpt lat="47.19324" lon="-1.58434">
        <ele>2</ele>
        <time>2022-04-02T15:42:48Z</time>
      </trkpt>
      <trkpt lat="47.19309" lon="-1.58451">
        <ele>1.8</ele>
        <time>2022-04-02T15:42:52Z</time>
      </trkpt>
      <trkpt lat="47.19305" lon="-1.58456">
        <ele>2.4</ele>
        <time>2022-04-02T15:42:53Z</time>
      </trkpt>
      <trkpt lat="47.1929" lon="-1.58473">
        <ele>1.4</ele>
        <time>2022-04-02T15:42:58Z</time>
      </trkpt>
      <trkpt lat="47.19268" lon="-1.58486">
        <ele>1.2</ele>
        <time>2022-04-02T15:43:05Z</time>
      </trkpt>
      <trkpt lat="47.19263" lon="-1.58478">
        <ele>0.60000000000002</ele>
        <time>2022-04-02T15:43:08Z</time>
      </trkpt>
      <trkpt lat="47.19248" lon="-1.58445">
        <ele>-0.19999999999999</ele>
        <time>2022-04-02T15:43:14Z</time>
      </trkpt>
      <trkpt lat="47.19227" lon="-1.58403">
        <ele>-0.80000000000001</ele>
        <time>2022-04-02T15:43:22Z</time>
      </trkpt>
      <trkpt lat="47.19217" lon="-1.58408">
        <ele>-1</ele>
        <time>2022-04-02T15:43:25Z</time>
      </trkpt>
      <trkpt lat="47.19185" lon="-1.58435">
        <ele>-0.80000000000001</ele>
        <time>2022-04-02T15:43:33Z</time>
      </trkpt>
      <trkpt lat="47.19175" lon="-1.58443">
        <ele>-1</ele>
        <time>2022-04-02T15:43:36Z</time>
      </trkpt>
      <trkpt lat="47.19158" lon="-1.58464">
        <ele>-1.4</ele>
        <time>2022-04-02T15:43:41Z</time>
      </trkpt>
      <trkpt lat="47.19154" lon="-1.58468">
        <ele>-1.4</ele>
        <time>2022-04-02T15:43:42Z</time>
      </trkpt>
      <trkpt lat="47.19127" lon="-1.58492">
        <ele>-1.6</ele>
        <time>2022-04-02T15:43:48Z</time>
      </trkpt>
      <trkpt lat="47.19088" lon="-1.58529">
        <ele>-1.4</ele>
        <time>2022-04-02T15:43:56Z</time>
      </trkpt>
      <trkpt lat="47.19059" lon="-1.5856">
        <ele>-1</ele>
        <time>2022-04-02T15:44:02Z</time>
      </trkpt>
      <trkpt lat="47.19054" lon="-1.58565">
        <ele>-1</ele>
        <time>2022-04-02T15:44:03Z</time>
      </trkpt>
      <trkpt lat="47.19033" lon="-1.58586">
        <ele>-1</ele>
        <time>2022-04-02T15:44:07Z</time>
      </trkpt>
      <trkpt lat="47.18993" lon="-1.58627">
        <ele>-0.80000000000001</ele>
        <time>2022-04-02T15:44:15Z</time>
      </trkpt>
      <trkpt lat="47.18973" lon="-1.58647">
        <ele>-0.60000000000002</ele>
        <time>2022-04-02T15:44:19Z</time>
      </trkpt>
      <trkpt lat="47.18963" lon="-1.58657">
        <ele>-0.60000000000002</ele>
        <time>2022-04-02T15:44:21Z</time>
      </trkpt>
      <trkpt lat="47.18921" lon="-1.58696">
        <ele>-0.19999999999999</ele>
        <time>2022-04-02T15:44:29Z</time>
      </trkpt>
      <trkpt lat="47.1889" lon="-1.58718">
        <ele>0.19999999999999</ele>
        <time>2022-04-02T15:44:35Z</time>
      </trkpt>
      <trkpt lat="47.18871" lon="-1.58728">
        <ele>0.39999999999998</ele>
        <time>2022-04-02T15:44:39Z</time>
      </trkpt>
      <trkpt lat="47.18865" lon="-1.58737">
        <ele>0.39999999999998</ele>
        <time>2022-04-02T15:44:41Z</time>
      </trkpt>
      <trkpt lat="47.18862" lon="-1.5874">
        <ele>0.39999999999998</ele>
        <time>2022-04-02T15:44:42Z</time>
      </trkpt>
      <trkpt lat="47.18855" lon="-1.58743">
        <ele>0.60000000000002</ele>
        <time>2022-04-02T15:44:44Z</time>
      </trkpt>
      <trkpt lat="47.18852" lon="-1.58746">
        <ele>0.80000000000001</ele>
        <time>2022-04-02T15:44:45Z</time>
      </trkpt>
      <trkpt lat="47.18849" lon="-1.58758">
        <ele>1</ele>
        <time>2022-04-02T15:44:47Z</time>
      </trkpt>
      <trkpt lat="47.18849" lon="-1.58765">
        <ele>1</ele>
        <time>2022-04-02T15:44:48Z</time>
      </trkpt>
      <trkpt lat="47.18845" lon="-1.58792">
        <ele>1.2</ele>
        <time>2022-04-02T15:44:52Z</time>
      </trkpt>
      <trkpt lat="47.18843" lon="-1.58805">
        <ele>1.4</ele>
        <time>2022-04-02T15:44:54Z</time>
      </trkpt>
      <trkpt lat="47.18838" lon="-1.58823">
        <ele>1.4</ele>
        <time>2022-04-02T15:44:57Z</time>
      </trkpt>
      <trkpt lat="47.18836" lon="-1.5883">
        <ele>1.4</ele>
        <time>2022-04-02T15:44:58Z</time>
      </trkpt>
      <trkpt lat="47.18827" lon="-1.58855">
        <ele>1.6</ele>
        <time>2022-04-02T15:45:02Z</time>
      </trkpt>
      <trkpt lat="47.18822" lon="-1.58867">
        <ele>1.6</ele>
        <time>2022-04-02T15:45:04Z</time>
      </trkpt>
      <trkpt lat="47.18803" lon="-1.58921">
        <ele>2</ele>
        <time>2022-04-02T15:45:12Z</time>
      </trkpt>
      <trkpt lat="47.18787" lon="-1.58978">
        <ele>2</ele>
        <time>2022-04-02T15:45:20Z</time>
      </trkpt>
      <trkpt lat="47.18787" lon="-1.58999">
        <ele>2.2</ele>
        <time>2022-04-02T15:45:23Z</time>
      </trkpt>
      <trkpt lat="47.18782" lon="-1.59048">
        <ele>2.2</ele>
        <time>2022-04-02T15:45:29Z</time>
      </trkpt>
      <trkpt lat="47.18775" lon="-1.59112">
        <ele>2.4</ele>
        <time>2022-04-02T15:45:37Z</time>
      </trkpt>
      <trkpt lat="47.18767" lon="-1.59186">
        <ele>2.6</ele>
        <time>2022-04-02T15:45:46Z</time>
      </trkpt>
      <trkpt lat="47.18759" lon="-1.59262">
        <ele>2.4</ele>
        <time>2022-04-02T15:45:55Z</time>
      </trkpt>
      <trkpt lat="47.18751" lon="-1.59333">
        <ele>2.6</ele>
        <time>2022-04-02T15:46:03Z</time>
      </trkpt>
      <trkpt lat="47.18743" lon="-1.59405">
        <ele>3</ele>
        <time>2022-04-02T15:46:11Z</time>
      </trkpt>
      <trkpt lat="47.18738" lon="-1.59478">
        <ele>3.2</ele>
        <time>2022-04-02T15:46:19Z</time>
      </trkpt>
      <trkpt lat="47.18731" lon="-1.59559">
        <ele>3.2</ele>
        <time>2022-04-02T15:46:28Z</time>
      </trkpt>
      <trkpt lat="47.18731" lon="-1.59567">
        <ele>3.2</ele>
        <time>2022-04-02T15:46:29Z</time>
      </trkpt>
      <trkpt lat="47.18724" lon="-1.59611">
        <ele>3.4</ele>
        <time>2022-04-02T15:46:34Z</time>
      </trkpt>
      <trkpt lat="47.18723" lon="-1.5962">
        <ele>3.4</ele>
        <time>2022-04-02T15:46:35Z</time>
      </trkpt>
      <trkpt lat="47.18717" lon="-1.59691">
        <ele>3.4</ele>
        <time>2022-04-02T15:46:43Z</time>
      </trkpt>
      <trkpt lat="47.18711" lon="-1.5976">
        <ele>3.4</ele>
        <time>2022-04-02T15:46:51Z</time>
      </trkpt>
      <trkpt lat="47.18706" lon="-1.598">
        <ele>3.6</ele>
        <time>2022-04-02T15:46:56Z</time>
      </trkpt>
      <trkpt lat="47.18706" lon="-1.59815">
        <ele>3.6</ele>
        <time>2022-04-02T15:46:58Z</time>
      </trkpt>
      <trkpt lat="47.18709" lon="-1.59854">
        <ele>3.6</ele>
        <time>2022-04-02T15:47:03Z</time>
      </trkpt>
      <trkpt lat="47.187" lon="-1.59892">
        <ele>3.4</ele>
        <time>2022-04-02T15:47:08Z</time>
      </trkpt>
      <trkpt lat="47.18693" lon="-1.59903">
        <ele>3.4</ele>
        <time>2022-04-02T15:47:10Z</time>
      </trkpt>
      <trkpt lat="47.18688" lon="-1.59906">
        <ele>3.4</ele>
        <time>2022-04-02T15:47:11Z</time>
      </trkpt>
      <trkpt lat="47.18684" lon="-1.59907">
        <ele>3.4</ele>
        <time>2022-04-02T15:47:12Z</time>
      </trkpt>
      <trkpt lat="47.18675" lon="-1.59906">
        <ele>3.4</ele>
        <time>2022-04-02T15:47:14Z</time>
      </trkpt>
      <trkpt lat="47.1867" lon="-1.59904">
        <ele>3.4</ele>
        <time>2022-04-02T15:47:15Z</time>
      </trkpt>
      <trkpt lat="47.18666" lon="-1.59903">
        <ele>3.6</ele>
        <time>2022-04-02T15:47:16Z</time>
      </trkpt>
      <trkpt lat="47.18658" lon="-1.59906">
        <ele>3.6</ele>
        <time>2022-04-02T15:47:18Z</time>
      </trkpt>
      <trkpt lat="47.18651" lon="-1.59923">
        <ele>3.6</ele>
        <time>2022-04-02T15:47:21Z</time>
      </trkpt>
      <trkpt lat="47.18634" lon="-1.5997">
        <ele>3.4</ele>
        <time>2022-04-02T15:47:28Z</time>
      </trkpt>
      <trkpt lat="47.18628" lon="-1.59988">
        <ele>3.4</ele>
        <time>2022-04-02T15:47:31Z</time>
      </trkpt>
      <trkpt lat="47.18623" lon="-1.59997">
        <ele>3.4</ele>
        <time>2022-04-02T15:47:33Z</time>
      </trkpt>
      <trkpt lat="47.18627" lon="-1.60005">
        <ele>3.4</ele>
        <time>2022-04-02T15:47:35Z</time>
      </trkpt>
      <trkpt lat="47.18629" lon="-1.60009">
        <ele>3.2</ele>
        <time>2022-04-02T15:47:36Z</time>
      </trkpt>
      <trkpt lat="47.18627" lon="-1.60017">
        <ele>3.2</ele>
        <time>2022-04-02T15:47:38Z</time>
      </trkpt>
      <trkpt lat="47.18624" lon="-1.60021">
        <ele>3.2</ele>
        <time>2022-04-02T15:47:39Z</time>
      </trkpt>
      <trkpt lat="47.1862" lon="-1.60032">
        <ele>3.2</ele>
        <time>2022-04-02T15:47:41Z</time>
      </trkpt>
      <trkpt lat="47.18605" lon="-1.60073">
        <ele>3</ele>
        <time>2022-04-02T15:47:47Z</time>
      </trkpt>
      <trkpt lat="47.18596" lon="-1.60102">
        <ele>3</ele>
        <time>2022-04-02T15:47:51Z</time>
      </trkpt>
      <trkpt lat="47.18591" lon="-1.60118">
        <ele>3</ele>
        <time>2022-04-02T15:47:53Z</time>
      </trkpt>
      <trkpt lat="47.18582" lon="-1.60149">
        <ele>3</ele>
        <time>2022-04-02T15:47:57Z</time>
      </trkpt>
      <trkpt lat="47.18577" lon="-1.60165">
        <ele>3</ele>
        <time>2022-04-02T15:47:59Z</time>
      </trkpt>
      <trkpt lat="47.18557" lon="-1.60223">
        <ele>3</ele>
        <time>2022-04-02T15:48:07Z</time>
      </trkpt>
      <trkpt lat="47.18535" lon="-1.6028">
        <ele>3.2</ele>
        <time>2022-04-02T15:48:15Z</time>
      </trkpt>
      <trkpt lat="47.18514" lon="-1.60338">
        <ele>3.2</ele>
        <time>2022-04-02T15:48:23Z</time>
      </trkpt>
      <trkpt lat="47.18492" lon="-1.60402">
        <ele>3</ele>
        <time>2022-04-02T15:48:31Z</time>
      </trkpt>
      <trkpt lat="47.18477" lon="-1.60453">
        <ele>3</ele>
        <time>2022-04-02T15:48:37Z</time>
      </trkpt>
      <trkpt lat="47.18462" lon="-1.60513">
        <ele>3</ele>
        <time>2022-04-02T15:48:44Z</time>
      </trkpt>
      <trkpt lat="47.18448" lon="-1.60581">
        <ele>3.2</ele>
        <time>2022-04-02T15:48:52Z</time>
      </trkpt>
      <trkpt lat="47.18438" lon="-1.60633">
        <ele>3.2</ele>
        <time>2022-04-02T15:48:58Z</time>
      </trkpt>
      <trkpt lat="47.18427" lon="-1.60706">
        <ele>3</ele>
        <time>2022-04-02T15:49:06Z</time>
      </trkpt>
      <trkpt lat="47.18418" lon="-1.60783">
        <ele>3</ele>
        <time>2022-04-02T15:49:14Z</time>
      </trkpt>
      <trkpt lat="47.18415" lon="-1.60838">
        <ele>2.8</ele>
        <time>2022-04-02T15:49:20Z</time>
      </trkpt>
      <trkpt lat="47.18412" lon="-1.60908">
        <ele>3</ele>
        <time>2022-04-02T15:49:28Z</time>
      </trkpt>
      <trkpt lat="47.18412" lon="-1.60988">
        <ele>2.8</ele>
        <time>2022-04-02T15:49:37Z</time>
      </trkpt>
      <trkpt lat="47.18413" lon="-1.61054">
        <ele>2.6</ele>
        <time>2022-04-02T15:49:44Z</time>
      </trkpt>
      <trkpt lat="47.18418" lon="-1.61126">
        <ele>2.6</ele>
        <time>2022-04-02T15:49:52Z</time>
      </trkpt>
      <trkpt lat="47.18423" lon="-1.61185">
        <ele>2.6</ele>
        <time>2022-04-02T15:49:59Z</time>
      </trkpt>
      <trkpt lat="47.18427" lon="-1.61263">
        <ele>2.6</ele>
        <time>2022-04-02T15:50:08Z</time>
      </trkpt>
      <trkpt lat="47.18432" lon="-1.61344">
        <ele>2.4</ele>
        <time>2022-04-02T15:50:17Z</time>
      </trkpt>
      <trkpt lat="47.18435" lon="-1.61386">
        <ele>2.4</ele>
        <time>2022-04-02T15:50:22Z</time>
      </trkpt>
      <trkpt lat="47.18438" lon="-1.61432">
        <ele>2.4</ele>
        <time>2022-04-02T15:50:27Z</time>
      </trkpt>
      <trkpt lat="47.18442" lon="-1.61499">
        <ele>2.2</ele>
        <time>2022-04-02T15:50:35Z</time>
      </trkpt>
      <trkpt lat="47.18446" lon="-1.61579">
        <ele>2.2</ele>
        <time>2022-04-02T15:50:45Z</time>
      </trkpt>
      <trkpt lat="47.1845" lon="-1.61645">
        <ele>2</ele>
        <time>2022-04-02T15:50:53Z</time>
      </trkpt>
      <trkpt lat="47.18452" lon="-1.6168">
        <ele>2</ele>
        <time>2022-04-02T15:50:57Z</time>
      </trkpt>
      <trkpt lat="47.18453" lon="-1.61697">
        <ele>2</ele>
        <time>2022-04-02T15:50:59Z</time>
      </trkpt>
      <trkpt lat="47.18454" lon="-1.61714">
        <ele>2</ele>
        <time>2022-04-02T15:51:01Z</time>
      </trkpt>
      <trkpt lat="47.18454" lon="-1.61739">
        <ele>1.8</ele>
        <time>2022-04-02T15:51:04Z</time>
      </trkpt>
      <trkpt lat="47.18459" lon="-1.61796">
        <ele>1.8</ele>
        <time>2022-04-02T15:51:11Z</time>
      </trkpt>
      <trkpt lat="47.1846" lon="-1.6182">
        <ele>1.8</ele>
        <time>2022-04-02T15:51:14Z</time>
      </trkpt>
      <trkpt lat="47.18462" lon="-1.61844">
        <ele>1.6</ele>
        <time>2022-04-02T15:51:17Z</time>
      </trkpt>
      <trkpt lat="47.18467" lon="-1.61904">
        <ele>2</ele>
        <time>2022-04-02T15:51:24Z</time>
      </trkpt>
      <trkpt lat="47.18471" lon="-1.61967">
        <ele>2</ele>
        <time>2022-04-02T15:51:31Z</time>
      </trkpt>
      <trkpt lat="47.18476" lon="-1.62043">
        <ele>1.8</ele>
        <time>2022-04-02T15:51:40Z</time>
      </trkpt>
      <trkpt lat="47.18478" lon="-1.62109">
        <ele>1.8</ele>
        <time>2022-04-02T15:51:48Z</time>
      </trkpt>
      <trkpt lat="47.1848" lon="-1.62193">
        <ele>1.8</ele>
        <time>2022-04-02T15:51:58Z</time>
      </trkpt>
      <trkpt lat="47.18479" lon="-1.62252">
        <ele>1.6</ele>
        <time>2022-04-02T15:52:06Z</time>
      </trkpt>
      <trkpt lat="47.18472" lon="-1.62258">
        <ele>1.6</ele>
        <time>2022-04-02T15:52:08Z</time>
      </trkpt>
      <trkpt lat="47.18438" lon="-1.6228">
        <ele>1.4</ele>
        <time>2022-04-02T15:52:15Z</time>
      </trkpt>
      <trkpt lat="47.1843" lon="-1.62289">
        <ele>1.4</ele>
        <time>2022-04-02T15:52:17Z</time>
      </trkpt>
      <trkpt lat="47.18424" lon="-1.62297">
        <ele>1.4</ele>
        <time>2022-04-02T15:52:19Z</time>
      </trkpt>
      <trkpt lat="47.18423" lon="-1.62308">
        <ele>1</ele>
        <time>2022-04-02T15:52:21Z</time>
      </trkpt>
      <trkpt lat="47.18426" lon="-1.62309">
        <ele>0.80000000000001</ele>
        <time>2022-04-02T15:52:22Z</time>
      </trkpt>
      <trkpt lat="47.1844" lon="-1.62318">
        <ele>0.80000000000001</ele>
        <time>2022-04-02T15:52:27Z</time>
      </trkpt>
      <trkpt lat="47.18448" lon="-1.62341">
        <ele>-0.80000000000001</ele>
        <time>2022-04-02T15:52:32Z</time>
      </trkpt>
      <trkpt lat="47.18453" lon="-1.62364">
        <ele>-1.4</ele>
        <time>2022-04-02T15:52:36Z</time>
      </trkpt>
      <trkpt lat="47.18455" lon="-1.62389">
        <ele>-1.8</ele>
        <time>2022-04-02T15:52:40Z</time>
      </trkpt>
      <trkpt lat="47.18456" lon="-1.62417">
        <ele>-2.4</ele>
        <time>2022-04-02T15:52:44Z</time>
      </trkpt>
      <trkpt lat="47.18455" lon="-1.62442">
        <ele>-2.6</ele>
        <time>2022-04-02T15:52:47Z</time>
      </trkpt>
      <trkpt lat="47.18454" lon="-1.62468">
        <ele>-3</ele>
        <time>2022-04-02T15:52:50Z</time>
      </trkpt>
      <trkpt lat="47.18454" lon="-1.62486">
        <ele>-3.2</ele>
        <time>2022-04-02T15:52:52Z</time>
      </trkpt>
      <trkpt lat="47.18454" lon="-1.62503">
        <ele>-3.4</ele>
        <time>2022-04-02T15:52:54Z</time>
      </trkpt>
      <trkpt lat="47.18452" lon="-1.62522">
        <ele>-3.6</ele>
        <time>2022-04-02T15:52:56Z</time>
      </trkpt>
      <trkpt lat="47.18451" lon="-1.62546">
        <ele>-3.8</ele>
        <time>2022-04-02T15:52:59Z</time>
      </trkpt>
      <trkpt lat="47.1845" lon="-1.62561">
        <ele>-3.8</ele>
        <time>2022-04-02T15:53:01Z</time>
      </trkpt>
      <trkpt lat="47.1845" lon="-1.62575">
        <ele>-3.8</ele>
        <time>2022-04-02T15:53:03Z</time>
      </trkpt>
      <trkpt lat="47.18448" lon="-1.62593">
        <ele>-3.6</ele>
        <time>2022-04-02T15:53:05Z</time>
      </trkpt>
      <trkpt lat="47.18445" lon="-1.62609">
        <ele>-3.6</ele>
        <time>2022-04-02T15:53:07Z</time>
      </trkpt>
      <trkpt lat="47.18443" lon="-1.62618">
        <ele>-3.6</ele>
        <time>2022-04-02T15:53:08Z</time>
      </trkpt>
      <trkpt lat="47.1844" lon="-1.62665">
        <ele>-3.6</ele>
        <time>2022-04-02T15:53:14Z</time>
      </trkpt>
      <trkpt lat="47.18438" lon="-1.6268">
        <ele>-4.2</ele>
        <time>2022-04-02T15:53:16Z</time>
      </trkpt>
      <trkpt lat="47.18437" lon="-1.62696">
        <ele>-3.8</ele>
        <time>2022-04-02T15:53:18Z</time>
      </trkpt>
      <trkpt lat="47.18434" lon="-1.62727">
        <ele>-3.4</ele>
        <time>2022-04-02T15:53:22Z</time>
      </trkpt>
      <trkpt lat="47.18434" lon="-1.6274">
        <ele>-3.2</ele>
        <time>2022-04-02T15:53:24Z</time>
      </trkpt>
      <trkpt lat="47.18428" lon="-1.62764">
        <ele>-3.4</ele>
        <time>2022-04-02T15:53:26Z</time>
      </trkpt>
      <trkpt lat="47.18424" lon="-1.62786">
        <ele>-3.4</ele>
        <time>2022-04-02T15:53:28Z</time>
      </trkpt>
      <trkpt lat="47.18421" lon="-1.62805">
        <ele>-3.4</ele>
        <time>2022-04-02T15:53:30Z</time>
      </trkpt>
      <trkpt lat="47.18411" lon="-1.62849">
        <ele>-3.2</ele>
        <time>2022-04-02T15:53:35Z</time>
      </trkpt>
      <trkpt lat="47.18398" lon="-1.62908">
        <ele>-3.2</ele>
        <time>2022-04-02T15:53:42Z</time>
      </trkpt>
      <trkpt lat="47.18395" lon="-1.62937">
        <ele>-3.2</ele>
        <time>2022-04-02T15:53:46Z</time>
      </trkpt>
      <trkpt lat="47.18396" lon="-1.62951">
        <ele>-3.2</ele>
        <time>2022-04-02T15:53:48Z</time>
      </trkpt>
      <trkpt lat="47.18403" lon="-1.62972">
        <ele>-3.4</ele>
        <time>2022-04-02T15:53:51Z</time>
      </trkpt>
      <trkpt lat="47.18406" lon="-1.62978">
        <ele>-3.6</ele>
        <time>2022-04-02T15:53:52Z</time>
      </trkpt>
      <trkpt lat="47.1841" lon="-1.62984">
        <ele>-3.4</ele>
        <time>2022-04-02T15:53:53Z</time>
      </trkpt>
      <trkpt lat="47.18425" lon="-1.63004">
        <ele>-3.8</ele>
        <time>2022-04-02T15:53:57Z</time>
      </trkpt>
      <trkpt lat="47.18435" lon="-1.63017">
        <ele>-3.8</ele>
        <time>2022-04-02T15:53:59Z</time>
      </trkpt>
      <trkpt lat="47.18443" lon="-1.63027">
        <ele>-4</ele>
        <time>2022-04-02T15:54:01Z</time>
      </trkpt>
      <trkpt lat="47.18446" lon="-1.63032">
        <ele>-4.2</ele>
        <time>2022-04-02T15:54:02Z</time>
      </trkpt>
      <trkpt lat="47.18449" lon="-1.63036">
        <ele>-4.2</ele>
        <time>2022-04-02T15:54:03Z</time>
      </trkpt>
      <trkpt lat="47.1846" lon="-1.63049">
        <ele>-4.4</ele>
        <time>2022-04-02T15:54:06Z</time>
      </trkpt>
      <trkpt lat="47.18464" lon="-1.63053">
        <ele>-4.4</ele>
        <time>2022-04-02T15:54:07Z</time>
      </trkpt>
      <trkpt lat="47.18481" lon="-1.63073">
        <ele>-4.8</ele>
        <time>2022-04-02T15:54:11Z</time>
      </trkpt>
      <trkpt lat="47.18507" lon="-1.63101">
        <ele>-5.2</ele>
        <time>2022-04-02T15:54:17Z</time>
      </trkpt>
      <trkpt lat="47.18511" lon="-1.63105">
        <ele>-5.4</ele>
        <time>2022-04-02T15:54:18Z</time>
      </trkpt>
      <trkpt lat="47.18528" lon="-1.63123">
        <ele>-5.8</ele>
        <time>2022-04-02T15:54:22Z</time>
      </trkpt>
      <trkpt lat="47.18541" lon="-1.63142">
        <ele>-6.2</ele>
        <time>2022-04-02T15:54:26Z</time>
      </trkpt>
      <trkpt lat="47.18564" lon="-1.63164">
        <ele>-6.8</ele>
        <time>2022-04-02T15:54:31Z</time>
      </trkpt>
      <trkpt lat="47.18567" lon="-1.63175">
        <ele>-7</ele>
        <time>2022-04-02T15:54:33Z</time>
      </trkpt>
      <trkpt lat="47.18569" lon="-1.63181">
        <ele>-6.8</ele>
        <time>2022-04-02T15:54:34Z</time>
      </trkpt>
      <trkpt lat="47.18562" lon="-1.63204">
        <ele>-6.2</ele>
        <time>2022-04-02T15:54:37Z</time>
      </trkpt>
      <trkpt lat="47.18561" lon="-1.63211">
        <ele>-6.2</ele>
        <time>2022-04-02T15:54:38Z</time>
      </trkpt>
      <trkpt lat="47.18561" lon="-1.63225">
        <ele>-6.8</ele>
        <time>2022-04-02T15:54:40Z</time>
      </trkpt>
      <trkpt lat="47.18566" lon="-1.63237">
        <ele>-5.6</ele>
        <time>2022-04-02T15:54:42Z</time>
      </trkpt>
      <trkpt lat="47.18577" lon="-1.63251">
        <ele>-4.8</ele>
        <time>2022-04-02T15:54:45Z</time>
      </trkpt>
      <trkpt lat="47.18581" lon="-1.63257">
        <ele>-4.4</ele>
        <time>2022-04-02T15:54:46Z</time>
      </trkpt>
      <trkpt lat="47.18596" lon="-1.63279">
        <ele>-5.4</ele>
        <time>2022-04-02T15:54:50Z</time>
      </trkpt>
      <trkpt lat="47.18619" lon="-1.63317">
        <ele>-5.4</ele>
        <time>2022-04-02T15:54:57Z</time>
      </trkpt>
      <trkpt lat="47.1863" lon="-1.63341">
        <ele>-5.4</ele>
        <time>2022-04-02T15:55:01Z</time>
      </trkpt>
      <trkpt lat="47.18635" lon="-1.63354">
        <ele>-5.4</ele>
        <time>2022-04-02T15:55:03Z</time>
      </trkpt>
      <trkpt lat="47.1864" lon="-1.63365">
        <ele>-5.4</ele>
        <time>2022-04-02T15:55:05Z</time>
      </trkpt>
      <trkpt lat="47.18649" lon="-1.6339">
        <ele>-5.2</ele>
        <time>2022-04-02T15:55:09Z</time>
      </trkpt>
      <trkpt lat="47.18658" lon="-1.63414">
        <ele>-5</ele>
        <time>2022-04-02T15:55:13Z</time>
      </trkpt>
      <trkpt lat="47.18665" lon="-1.63421">
        <ele>-4.8</ele>
        <time>2022-04-02T15:55:15Z</time>
      </trkpt>
      <trkpt lat="47.18668" lon="-1.63425">
        <ele>-4.8</ele>
        <time>2022-04-02T15:55:16Z</time>
      </trkpt>
      <trkpt lat="47.18682" lon="-1.63444">
        <ele>-4.6</ele>
        <time>2022-04-02T15:55:20Z</time>
      </trkpt>
      <trkpt lat="47.18701" lon="-1.63475">
        <ele>-4.8</ele>
        <time>2022-04-02T15:55:26Z</time>
      </trkpt>
      <trkpt lat="47.18718" lon="-1.63503">
        <ele>-4.6</ele>
        <time>2022-04-02T15:55:32Z</time>
      </trkpt>
      <trkpt lat="47.18724" lon="-1.63513">
        <ele>-4.8</ele>
        <time>2022-04-02T15:55:34Z</time>
      </trkpt>
      <trkpt lat="47.18734" lon="-1.63538">
        <ele>-4.8</ele>
        <time>2022-04-02T15:55:38Z</time>
      </trkpt>
      <trkpt lat="47.1874" lon="-1.6355">
        <ele>-4.6</ele>
        <time>2022-04-02T15:55:40Z</time>
      </trkpt>
      <trkpt lat="47.18748" lon="-1.63571">
        <ele>-5</ele>
        <time>2022-04-02T15:55:43Z</time>
      </trkpt>
      <trkpt lat="47.1876" lon="-1.63605">
        <ele>-5</ele>
        <time>2022-04-02T15:55:48Z</time>
      </trkpt>
      <trkpt lat="47.18763" lon="-1.63611">
        <ele>-4.8</ele>
        <time>2022-04-02T15:55:49Z</time>
      </trkpt>
      <trkpt lat="47.18772" lon="-1.63627">
        <ele>-4.6</ele>
        <time>2022-04-02T15:55:52Z</time>
      </trkpt>
      <trkpt lat="47.18775" lon="-1.63633">
        <ele>-4.6</ele>
        <time>2022-04-02T15:55:53Z</time>
      </trkpt>
      <trkpt lat="47.18778" lon="-1.63647">
        <ele>-4.8</ele>
        <time>2022-04-02T15:55:55Z</time>
      </trkpt>
      <trkpt lat="47.18783" lon="-1.63661">
        <ele>-4.6</ele>
        <time>2022-04-02T15:55:57Z</time>
      </trkpt>
      <trkpt lat="47.18789" lon="-1.63671">
        <ele>-4.6</ele>
        <time>2022-04-02T15:55:59Z</time>
      </trkpt>
      <trkpt lat="47.18797" lon="-1.63699">
        <ele>-4.6</ele>
        <time>2022-04-02T15:56:03Z</time>
      </trkpt>
      <trkpt lat="47.18803" lon="-1.6372">
        <ele>-4.8</ele>
        <time>2022-04-02T15:56:06Z</time>
      </trkpt>
      <trkpt lat="47.18807" lon="-1.63736">
        <ele>-4.8</ele>
        <time>2022-04-02T15:56:08Z</time>
      </trkpt>
      <trkpt lat="47.18809" lon="-1.63743">
        <ele>-4.8</ele>
        <time>2022-04-02T15:56:09Z</time>
      </trkpt>
      <trkpt lat="47.1882" lon="-1.6377">
        <ele>-5</ele>
        <time>2022-04-02T15:56:13Z</time>
      </trkpt>
      <trkpt lat="47.18826" lon="-1.63783">
        <ele>-5</ele>
        <time>2022-04-02T15:56:15Z</time>
      </trkpt>
      <trkpt lat="47.18832" lon="-1.63795">
        <ele>-5</ele>
        <time>2022-04-02T15:56:17Z</time>
      </trkpt>
      <trkpt lat="47.18835" lon="-1.63802">
        <ele>-5</ele>
        <time>2022-04-02T15:56:18Z</time>
      </trkpt>
      <trkpt lat="47.18863" lon="-1.63862">
        <ele>-5.2</ele>
        <time>2022-04-02T15:56:27Z</time>
      </trkpt>
      <trkpt lat="47.18878" lon="-1.63885">
        <ele>-5.2</ele>
        <time>2022-04-02T15:56:31Z</time>
      </trkpt>
      <trkpt lat="47.1889" lon="-1.63901">
        <ele>-5.2</ele>
        <time>2022-04-02T15:56:34Z</time>
      </trkpt>
      <trkpt lat="47.18911" lon="-1.63936">
        <ele>-5.6</ele>
        <time>2022-04-02T15:56:40Z</time>
      </trkpt>
      <trkpt lat="47.18919" lon="-1.63949">
        <ele>-5.6</ele>
        <time>2022-04-02T15:56:42Z</time>
      </trkpt>
      <trkpt lat="47.18926" lon="-1.6396">
        <ele>-5.4</ele>
        <time>2022-04-02T15:56:44Z</time>
      </trkpt>
      <trkpt lat="47.18929" lon="-1.63965">
        <ele>-5.4</ele>
        <time>2022-04-02T15:56:45Z</time>
      </trkpt>
      <trkpt lat="47.18936" lon="-1.63977">
        <ele>-5.4</ele>
        <time>2022-04-02T15:56:47Z</time>
      </trkpt>
      <trkpt lat="47.1895" lon="-1.64001">
        <ele>-5.4</ele>
        <time>2022-04-02T15:56:51Z</time>
      </trkpt>
      <trkpt lat="47.18961" lon="-1.64018">
        <ele>-5.2</ele>
        <time>2022-04-02T15:56:54Z</time>
      </trkpt>
      <trkpt lat="47.18972" lon="-1.64035">
        <ele>-5.2</ele>
        <time>2022-04-02T15:56:57Z</time>
      </trkpt>
      <trkpt lat="47.18997" lon="-1.64076">
        <ele>-5.2</ele>
        <time>2022-04-02T15:57:04Z</time>
      </trkpt>
      <trkpt lat="47.19016" lon="-1.64112">
        <ele>-5.4</ele>
        <time>2022-04-02T15:57:10Z</time>
      </trkpt>
      <trkpt lat="47.19042" lon="-1.64156">
        <ele>-5.6</ele>
        <time>2022-04-02T15:57:17Z</time>
      </trkpt>
      <trkpt lat="47.19049" lon="-1.64168">
        <ele>-5.8</ele>
        <time>2022-04-02T15:57:19Z</time>
      </trkpt>
      <trkpt lat="47.19052" lon="-1.6418">
        <ele>-5.8</ele>
        <time>2022-04-02T15:57:21Z</time>
      </trkpt>
      <trkpt lat="47.19052" lon="-1.64187">
        <ele>-5.8</ele>
        <time>2022-04-02T15:57:22Z</time>
      </trkpt>
      <trkpt lat="47.19048" lon="-1.64205">
        <ele>-6</ele>
        <time>2022-04-02T15:57:24Z</time>
      </trkpt>
      <trkpt lat="47.19034" lon="-1.64272">
        <ele>-5.2</ele>
        <time>2022-04-02T15:57:32Z</time>
      </trkpt>
      <trkpt lat="47.19032" lon="-1.64298">
        <ele>-4.8</ele>
        <time>2022-04-02T15:57:36Z</time>
      </trkpt>
      <trkpt lat="47.19034" lon="-1.64303">
        <ele>-4.6</ele>
        <time>2022-04-02T15:57:37Z</time>
      </trkpt>
      <trkpt lat="47.19037" lon="-1.64307">
        <ele>-4.6</ele>
        <time>2022-04-02T15:57:38Z</time>
      </trkpt>
      <trkpt lat="47.19044" lon="-1.64312">
        <ele>-4.6</ele>
        <time>2022-04-02T15:57:40Z</time>
      </trkpt>
      <trkpt lat="47.19058" lon="-1.64316">
        <ele>-4.8</ele>
        <time>2022-04-02T15:57:44Z</time>
      </trkpt>
      <trkpt lat="47.19062" lon="-1.64318">
        <ele>-4.8</ele>
        <time>2022-04-02T15:57:45Z</time>
      </trkpt>
      <trkpt lat="47.19066" lon="-1.64324">
        <ele>-5</ele>
        <time>2022-04-02T15:57:47Z</time>
      </trkpt>
      <trkpt lat="47.19066" lon="-1.64328">
        <ele>-5</ele>
        <time>2022-04-02T15:57:48Z</time>
      </trkpt>
      <trkpt lat="47.19065" lon="-1.64348">
        <ele>-4.6</ele>
        <time>2022-04-02T15:57:52Z</time>
      </trkpt>
      <trkpt lat="47.19064" lon="-1.64371">
        <ele>-4.6</ele>
        <time>2022-04-02T15:57:57Z</time>
      </trkpt>
      <trkpt lat="47.19059" lon="-1.64394">
        <ele>-4.4</ele>
        <time>2022-04-02T15:58:01Z</time>
      </trkpt>
      <trkpt lat="47.19049" lon="-1.64418">
        <ele>-4.4</ele>
        <time>2022-04-02T15:58:05Z</time>
      </trkpt>
      <trkpt lat="47.19037" lon="-1.64422">
        <ele>-4.8</ele>
        <time>2022-04-02T15:58:08Z</time>
      </trkpt>
      <trkpt lat="47.19021" lon="-1.64425">
        <ele>-5</ele>
        <time>2022-04-02T15:58:12Z</time>
      </trkpt>
      <trkpt lat="47.19009" lon="-1.64441">
        <ele>-4.6</ele>
        <time>2022-04-02T15:58:16Z</time>
      </trkpt>
      <trkpt lat="47.18999" lon="-1.6447">
        <ele>-3.6</ele>
        <time>2022-04-02T15:58:21Z</time>
      </trkpt>
      <trkpt lat="47.18998" lon="-1.64477">
        <ele>-3.4</ele>
        <time>2022-04-02T15:58:22Z</time>
      </trkpt>
      <trkpt lat="47.18993" lon="-1.64523">
        <ele>-2.6</ele>
        <time>2022-04-02T15:58:29Z</time>
      </trkpt>
      <trkpt lat="47.18993" lon="-1.6453">
        <ele>-2.6</ele>
        <time>2022-04-02T15:58:30Z</time>
      </trkpt>
      <trkpt lat="47.18993" lon="-1.64544">
        <ele>-2.4</ele>
        <time>2022-04-02T15:58:32Z</time>
      </trkpt>
      <trkpt lat="47.18995" lon="-1.64557">
        <ele>-2.2</ele>
        <time>2022-04-02T15:58:34Z</time>
      </trkpt>
      <trkpt lat="47.18996" lon="-1.64564">
        <ele>-2.2</ele>
        <time>2022-04-02T15:58:35Z</time>
      </trkpt>
      <trkpt lat="47.18996" lon="-1.64585">
        <ele>-1.8</ele>
        <time>2022-04-02T15:58:38Z</time>
      </trkpt>
      <trkpt lat="47.18995" lon="-1.646">
        <ele>-1.8</ele>
        <time>2022-04-02T15:58:40Z</time>
      </trkpt>
      <trkpt lat="47.18992" lon="-1.64613">
        <ele>-1.8</ele>
        <time>2022-04-02T15:58:42Z</time>
      </trkpt>
      <trkpt lat="47.18991" lon="-1.6462">
        <ele>-1.6</ele>
        <time>2022-04-02T15:58:43Z</time>
      </trkpt>
      <trkpt lat="47.18989" lon="-1.64648">
        <ele>-1.4</ele>
        <time>2022-04-02T15:58:47Z</time>
      </trkpt>
      <trkpt lat="47.1899" lon="-1.64692">
        <ele>-1.2</ele>
        <time>2022-04-02T15:58:53Z</time>
      </trkpt>
      <trkpt lat="47.18991" lon="-1.64717">
        <ele>-1.2</ele>
        <time>2022-04-02T15:58:57Z</time>
      </trkpt>
      <trkpt lat="47.1899" lon="-1.64724">
        <ele>-1</ele>
        <time>2022-04-02T15:58:58Z</time>
      </trkpt>
      <trkpt lat="47.18988" lon="-1.64746">
        <ele>-1</ele>
        <time>2022-04-02T15:59:01Z</time>
      </trkpt>
      <trkpt lat="47.18986" lon="-1.64774">
        <ele>-0.60000000000002</ele>
        <time>2022-04-02T15:59:05Z</time>
      </trkpt>
      <trkpt lat="47.18986" lon="-1.64781">
        <ele>-0.60000000000002</ele>
        <time>2022-04-02T15:59:06Z</time>
      </trkpt>
      <trkpt lat="47.18986" lon="-1.64801">
        <ele>-0.39999999999998</ele>
        <time>2022-04-02T15:59:09Z</time>
      </trkpt>
      <trkpt lat="47.18983" lon="-1.64814">
        <ele>-0.19999999999999</ele>
        <time>2022-04-02T15:59:11Z</time>
      </trkpt>
      <trkpt lat="47.18983" lon="-1.64827">
        <ele>-0.19999999999999</ele>
        <time>2022-04-02T15:59:13Z</time>
      </trkpt>
      <trkpt lat="47.18983" lon="-1.64857">
        <ele>0.39999999999998</ele>
        <time>2022-04-02T15:59:18Z</time>
      </trkpt>
      <trkpt lat="47.18983" lon="-1.64884">
        <ele>0.60000000000002</ele>
        <time>2022-04-02T15:59:22Z</time>
      </trkpt>
      <trkpt lat="47.18984" lon="-1.6489">
        <ele>0.80000000000001</ele>
        <time>2022-04-02T15:59:23Z</time>
      </trkpt>
      <trkpt lat="47.18986" lon="-1.64896">
        <ele>0.80000000000001</ele>
        <time>2022-04-02T15:59:24Z</time>
      </trkpt>
      <trkpt lat="47.18987" lon="-1.64909">
        <ele>0.80000000000001</ele>
        <time>2022-04-02T15:59:26Z</time>
      </trkpt>
      <trkpt lat="47.18987" lon="-1.64916">
        <ele>0.80000000000001</ele>
        <time>2022-04-02T15:59:27Z</time>
      </trkpt>
      <trkpt lat="47.18987" lon="-1.64922">
        <ele>0.80000000000001</ele>
        <time>2022-04-02T15:59:28Z</time>
      </trkpt>
      <trkpt lat="47.1899" lon="-1.64934">
        <ele>1</ele>
        <time>2022-04-02T15:59:30Z</time>
      </trkpt>
      <trkpt lat="47.18993" lon="-1.64948">
        <ele>1</ele>
        <time>2022-04-02T15:59:32Z</time>
      </trkpt>
      <trkpt lat="47.18997" lon="-1.64964">
        <ele>0.80000000000001</ele>
        <time>2022-04-02T15:59:34Z</time>
      </trkpt>
      <trkpt lat="47.18999" lon="-1.64983">
        <ele>0.80000000000001</ele>
        <time>2022-04-02T15:59:36Z</time>
      </trkpt>
      <trkpt lat="47.19" lon="-1.65003">
        <ele>0.80000000000001</ele>
        <time>2022-04-02T15:59:38Z</time>
      </trkpt>
      <trkpt lat="47.19001" lon="-1.65023">
        <ele>1.4</ele>
        <time>2022-04-02T15:59:40Z</time>
      </trkpt>
      <trkpt lat="47.19012" lon="-1.65046">
        <ele>0.60000000000002</ele>
        <time>2022-04-02T15:59:43Z</time>
      </trkpt>
      <trkpt lat="47.19017" lon="-1.65059">
        <ele>0.39999999999998</ele>
        <time>2022-04-02T15:59:45Z</time>
      </trkpt>
      <trkpt lat="47.19018" lon="-1.65074">
        <ele>0.19999999999999</ele>
        <time>2022-04-02T15:59:47Z</time>
      </trkpt>
      <trkpt lat="47.19015" lon="-1.65114">
        <ele>-0.19999999999999</ele>
        <time>2022-04-02T15:59:52Z</time>
      </trkpt>
      <trkpt lat="47.19015" lon="-1.65122">
        <ele>-0.39999999999998</ele>
        <time>2022-04-02T15:59:53Z</time>
      </trkpt>
      <trkpt lat="47.19014" lon="-1.65129">
        <ele>-0.39999999999998</ele>
        <time>2022-04-02T15:59:54Z</time>
      </trkpt>
      <trkpt lat="47.19008" lon="-1.65137">
        <ele>-0.80000000000001</ele>
        <time>2022-04-02T15:59:56Z</time>
      </trkpt>
      <trkpt lat="47.19006" lon="-1.65142">
        <ele>-1</ele>
        <time>2022-04-02T15:59:57Z</time>
      </trkpt>
      <trkpt lat="47.19006" lon="-1.65152">
        <ele>-1</ele>
        <time>2022-04-02T15:59:59Z</time>
      </trkpt>
      <trkpt lat="47.1901" lon="-1.6517">
        <ele>-1</ele>
        <time>2022-04-02T16:00:02Z</time>
      </trkpt>
      <trkpt lat="47.19011" lon="-1.65184">
        <ele>-1</ele>
        <time>2022-04-02T16:00:04Z</time>
      </trkpt>
      <trkpt lat="47.1901" lon="-1.65198">
        <ele>-1.2</ele>
        <time>2022-04-02T16:00:06Z</time>
      </trkpt>
      <trkpt lat="47.19012" lon="-1.65213">
        <ele>-1.4</ele>
        <time>2022-04-02T16:00:08Z</time>
      </trkpt>
      <trkpt lat="47.19015" lon="-1.65219">
        <ele>-1.4</ele>
        <time>2022-04-02T16:00:09Z</time>
      </trkpt>
      <trkpt lat="47.19021" lon="-1.65244">
        <ele>-1.6</ele>
        <time>2022-04-02T16:00:13Z</time>
      </trkpt>
      <trkpt lat="47.19014" lon="-1.65258">
        <ele>-1.6</ele>
        <time>2022-04-02T16:00:16Z</time>
      </trkpt>
      <trkpt lat="47.19011" lon="-1.65261">
        <ele>-1.8</ele>
        <time>2022-04-02T16:00:17Z</time>
      </trkpt>
      <trkpt lat="47.19002" lon="-1.65268">
        <ele>-2</ele>
        <time>2022-04-02T16:00:20Z</time>
      </trkpt>
      <trkpt lat="47.18986" lon="-1.65277">
        <ele>-3</ele>
        <time>2022-04-02T16:00:25Z</time>
      </trkpt>
      <trkpt lat="47.1897" lon="-1.6528">
        <ele>-4.2</ele>
        <time>2022-04-02T16:00:29Z</time>
      </trkpt>
      <trkpt lat="47.18955" lon="-1.65274">
        <ele>-5.2</ele>
        <time>2022-04-02T16:00:32Z</time>
      </trkpt>
      <trkpt lat="47.18944" lon="-1.65271">
        <ele>-6</ele>
        <time>2022-04-02T16:00:34Z</time>
      </trkpt>
      <trkpt lat="47.18938" lon="-1.65268">
        <ele>-6.2</ele>
        <time>2022-04-02T16:00:35Z</time>
      </trkpt>
      <trkpt lat="47.18928" lon="-1.65264">
        <ele>-7</ele>
        <time>2022-04-02T16:00:37Z</time>
      </trkpt>
      <trkpt lat="47.18918" lon="-1.65261">
        <ele>-7.6</ele>
        <time>2022-04-02T16:00:39Z</time>
      </trkpt>
      <trkpt lat="47.18894" lon="-1.6525">
        <ele>-9.6</ele>
        <time>2022-04-02T16:00:44Z</time>
      </trkpt>
      <trkpt lat="47.18885" lon="-1.65244">
        <ele>-10.2</ele>
        <time>2022-04-02T16:00:46Z</time>
      </trkpt>
      <trkpt lat="47.1888" lon="-1.65241">
        <ele>-10.4</ele>
        <time>2022-04-02T16:00:47Z</time>
      </trkpt>
      <trkpt lat="47.1887" lon="-1.65234">
        <ele>-10.8</ele>
        <time>2022-04-02T16:00:49Z</time>
      </trkpt>
      <trkpt lat="47.18861" lon="-1.65229">
        <ele>-11.2</ele>
        <time>2022-04-02T16:00:51Z</time>
      </trkpt>
      <trkpt lat="47.18852" lon="-1.65224">
        <ele>-11.8</ele>
        <time>2022-04-02T16:00:53Z</time>
      </trkpt>
      <trkpt lat="47.18843" lon="-1.65214">
        <ele>-12.2</ele>
        <time>2022-04-02T16:00:55Z</time>
      </trkpt>
      <trkpt lat="47.18839" lon="-1.6521">
        <ele>-12.4</ele>
        <time>2022-04-02T16:00:56Z</time>
      </trkpt>
      <trkpt lat="47.18818" lon="-1.65192">
        <ele>-13.4</ele>
        <time>2022-04-02T16:01:01Z</time>
      </trkpt>
      <trkpt lat="47.18806" lon="-1.65181">
        <ele>-14.2</ele>
        <time>2022-04-02T16:01:05Z</time>
      </trkpt>
      <trkpt lat="47.18796" lon="-1.65171">
        <ele>-14.8</ele>
        <time>2022-04-02T16:01:10Z</time>
      </trkpt>
      <trkpt lat="47.18787" lon="-1.6516">
        <ele>-16</ele>
        <time>2022-04-02T16:01:15Z</time>
      </trkpt>
      <trkpt lat="47.18784" lon="-1.65158">
        <ele>-16.2</ele>
        <time>2022-04-02T16:01:16Z</time>
      </trkpt>
      <trkpt lat="47.18772" lon="-1.65153">
        <ele>-17.6</ele>
        <time>2022-04-02T16:01:19Z</time>
      </trkpt>
      <trkpt lat="47.18744" lon="-1.65145">
        <ele>-19.8</ele>
        <time>2022-04-02T16:01:25Z</time>
      </trkpt>
      <trkpt lat="47.18716" lon="-1.65135">
        <ele>-21.4</ele>
        <time>2022-04-02T16:01:30Z</time>
      </trkpt>
      <trkpt lat="47.18712" lon="-1.65132">
        <ele>-21.6</ele>
        <time>2022-04-02T16:01:31Z</time>
      </trkpt>
      <trkpt lat="47.18692" lon="-1.65125">
        <ele>-22.8</ele>
        <time>2022-04-02T16:01:35Z</time>
      </trkpt>
      <trkpt lat="47.18683" lon="-1.65123">
        <ele>-23.4</ele>
        <time>2022-04-02T16:01:37Z</time>
      </trkpt>
      <trkpt lat="47.18662" lon="-1.65116">
        <ele>-25.6</ele>
        <time>2022-04-02T16:01:42Z</time>
      </trkpt>
      <trkpt lat="47.18652" lon="-1.65115">
        <ele>-26.4</ele>
        <time>2022-04-02T16:01:44Z</time>
      </trkpt>
      <trkpt lat="47.18639" lon="-1.65111">
        <ele>-27.8</ele>
        <time>2022-04-02T16:01:47Z</time>
      </trkpt>
      <trkpt lat="47.1863" lon="-1.65106">
        <ele>-28.4</ele>
        <time>2022-04-02T16:01:49Z</time>
      </trkpt>
      <trkpt lat="47.18626" lon="-1.65105">
        <ele>-29</ele>
        <time>2022-04-02T16:01:50Z</time>
      </trkpt>
      <trkpt lat="47.18621" lon="-1.65101">
        <ele>-29.2</ele>
        <time>2022-04-02T16:01:51Z</time>
      </trkpt>
      <trkpt lat="47.18605" lon="-1.65095">
        <ele>-30</ele>
        <time>2022-04-02T16:01:54Z</time>
      </trkpt>
      <trkpt lat="47.18601" lon="-1.65095">
        <ele>-30.4</ele>
        <time>2022-04-02T16:01:55Z</time>
      </trkpt>
      <trkpt lat="47.18586" lon="-1.6509">
        <ele>-31.2</ele>
        <time>2022-04-02T16:01:59Z</time>
      </trkpt>
      <trkpt lat="47.18582" lon="-1.65087">
        <ele>-31.2</ele>
        <time>2022-04-02T16:02:00Z</time>
      </trkpt>
      <trkpt lat="47.18574" lon="-1.65082">
        <ele>-31.6</ele>
        <time>2022-04-02T16:02:02Z</time>
      </trkpt>
      <trkpt lat="47.18565" lon="-1.65075">
        <ele>-31.8</ele>
        <time>2022-04-02T16:02:04Z</time>
      </trkpt>
      <trkpt lat="47.18561" lon="-1.65071">
        <ele>-32</ele>
        <time>2022-04-02T16:02:05Z</time>
      </trkpt>
      <trkpt lat="47.18558" lon="-1.65067">
        <ele>-32.2</ele>
        <time>2022-04-02T16:02:06Z</time>
      </trkpt>
      <trkpt lat="47.18542" lon="-1.65054">
        <ele>-33.4</ele>
        <time>2022-04-02T16:02:10Z</time>
      </trkpt>
      <trkpt lat="47.18528" lon="-1.65043">
        <ele>-33.6</ele>
        <time>2022-04-02T16:02:13Z</time>
      </trkpt>
      <trkpt lat="47.1852" lon="-1.65035">
        <ele>-34</ele>
        <time>2022-04-02T16:02:15Z</time>
      </trkpt>
      <trkpt lat="47.18513" lon="-1.65025">
        <ele>-34.2</ele>
        <time>2022-04-02T16:02:17Z</time>
      </trkpt>
      <trkpt lat="47.18499" lon="-1.65017">
        <ele>-34.6</ele>
        <time>2022-04-02T16:02:20Z</time>
      </trkpt>
      <trkpt lat="47.18482" lon="-1.65">
        <ele>-35</ele>
        <time>2022-04-02T16:02:24Z</time>
      </trkpt>
      <trkpt lat="47.18478" lon="-1.64996">
        <ele>-35</ele>
        <time>2022-04-02T16:02:25Z</time>
      </trkpt>
      <trkpt lat="47.18468" lon="-1.64984">
        <ele>-35.2</ele>
        <time>2022-04-02T16:02:28Z</time>
      </trkpt>
      <trkpt lat="47.18451" lon="-1.64966">
        <ele>-36</ele>
        <time>2022-04-02T16:02:33Z</time>
      </trkpt>
      <trkpt lat="47.18438" lon="-1.64942">
        <ele>-36.8</ele>
        <time>2022-04-02T16:02:38Z</time>
      </trkpt>
      <trkpt lat="47.18432" lon="-1.64913">
        <ele>-36.8</ele>
        <time>2022-04-02T16:02:43Z</time>
      </trkpt>
      <trkpt lat="47.18425" lon="-1.64907">
        <ele>-37</ele>
        <time>2022-04-02T16:02:45Z</time>
      </trkpt>
      <trkpt lat="47.18422" lon="-1.64909">
        <ele>-37</ele>
        <time>2022-04-02T16:02:46Z</time>
      </trkpt>
      <trkpt lat="47.18421" lon="-1.64911">
        <ele>-37</ele>
        <time>2022-04-02T16:02:47Z</time>
      </trkpt>
      <trkpt lat="47.1842" lon="-1.64918">
        <ele>-37</ele>
        <time>2022-04-02T16:02:49Z</time>
      </trkpt>
      <trkpt lat="47.18419" lon="-1.6492">
        <ele>-36.8</ele>
        <time>2022-04-02T16:02:50Z</time>
      </trkpt>
      <trkpt lat="47.18413" lon="-1.6492">
        <ele>-35.2</ele>
        <time>2022-04-02T16:02:53Z</time>
      </trkpt>
      <trkpt lat="47.18412" lon="-1.6492">
        <ele>-34.6</ele>
        <time>2022-04-02T16:02:54Z</time>
      </trkpt>
      <trkpt lat="47.18413" lon="-1.64923">
        <ele>-33.6</ele>
        <time>2022-04-02T16:02:57Z</time>
      </trkpt>
      <trkpt lat="47.18411" lon="-1.6494">
        <ele>-33.2</ele>
        <time>2022-04-02T16:03:02Z</time>
      </trkpt>
      <trkpt lat="47.18406" lon="-1.64952">
        <ele>-32.8</ele>
        <time>2022-04-02T16:03:06Z</time>
      </trkpt>
      <trkpt lat="47.18399" lon="-1.64969">
        <ele>-32.6</ele>
        <time>2022-04-02T16:03:10Z</time>
      </trkpt>
      <trkpt lat="47.1839" lon="-1.64987">
        <ele>-31.8</ele>
        <time>2022-04-02T16:03:16Z</time>
      </trkpt>
      <trkpt lat="47.18382" lon="-1.65003">
        <ele>-31</ele>
        <time>2022-04-02T16:03:21Z</time>
      </trkpt>
      <trkpt lat="47.18374" lon="-1.65022">
        <ele>-29.4</ele>
        <time>2022-04-02T16:03:27Z</time>
      </trkpt>
      <trkpt lat="47.18371" lon="-1.65032">
        <ele>-28.8</ele>
        <time>2022-04-02T16:03:30Z</time>
      </trkpt>
      <trkpt lat="47.18371" lon="-1.65038">
        <ele>-28.2</ele>
        <time>2022-04-02T16:03:32Z</time>
      </trkpt>
      <trkpt lat="47.18371" lon="-1.65047">
        <ele>-27.4</ele>
        <time>2022-04-02T16:03:36Z</time>
      </trkpt>
      <trkpt lat="47.18372" lon="-1.65061">
        <ele>-26.4</ele>
        <time>2022-04-02T16:03:42Z</time>
      </trkpt>
      <trkpt lat="47.18373" lon="-1.65071">
        <ele>-10.4</ele>
        <time>2022-04-02T16:09:52Z</time>
      </trkpt>
      <trkpt lat="47.18377" lon="-1.65074">
        <ele>-10.2</ele>
        <time>2022-04-02T16:09:54Z</time>
      </trkpt>
      <trkpt lat="47.18393" lon="-1.65079">
        <ele>-9.6</ele>
        <time>2022-04-02T16:10:00Z</time>
      </trkpt>
      <trkpt lat="47.18415" lon="-1.65094">
        <ele>-9.2</ele>
        <time>2022-04-02T16:10:07Z</time>
      </trkpt>
      <trkpt lat="47.18428" lon="-1.65117">
        <ele>-9.6</ele>
        <time>2022-04-02T16:10:12Z</time>
      </trkpt>
      <trkpt lat="47.18429" lon="-1.65124">
        <ele>-9.6</ele>
        <time>2022-04-02T16:10:13Z</time>
      </trkpt>
      <trkpt lat="47.18433" lon="-1.65153">
        <ele>-9</ele>
        <time>2022-04-02T16:10:17Z</time>
      </trkpt>
      <trkpt lat="47.18435" lon="-1.6516">
        <ele>-9</ele>
        <time>2022-04-02T16:10:18Z</time>
      </trkpt>
      <trkpt lat="47.18436" lon="-1.65166">
        <ele>-9</ele>
        <time>2022-04-02T16:10:19Z</time>
      </trkpt>
      <trkpt lat="47.18439" lon="-1.65187">
        <ele>-8.8</ele>
        <time>2022-04-02T16:10:22Z</time>
      </trkpt>
      <trkpt lat="47.18441" lon="-1.65192">
        <ele>-8.8</ele>
        <time>2022-04-02T16:10:23Z</time>
      </trkpt>
      <trkpt lat="47.18455" lon="-1.65221">
        <ele>-9.6</ele>
        <time>2022-04-02T16:10:29Z</time>
      </trkpt>
      <trkpt lat="47.18457" lon="-1.65236">
        <ele>-9.6</ele>
        <time>2022-04-02T16:10:32Z</time>
      </trkpt>
      <trkpt lat="47.18458" lon="-1.65246">
        <ele>-9.4</ele>
        <time>2022-04-02T16:10:34Z</time>
      </trkpt>
      <trkpt lat="47.18462" lon="-1.65276">
        <ele>-9</ele>
        <time>2022-04-02T16:10:39Z</time>
      </trkpt>
      <trkpt lat="47.18459" lon="-1.65318">
        <ele>-8.6</ele>
        <time>2022-04-02T16:10:45Z</time>
      </trkpt>
      <trkpt lat="47.1846" lon="-1.65325">
        <ele>-8.4</ele>
        <time>2022-04-02T16:10:46Z</time>
      </trkpt>
      <trkpt lat="47.18463" lon="-1.65362">
        <ele>-7.8</ele>
        <time>2022-04-02T16:10:52Z</time>
      </trkpt>
      <trkpt lat="47.18468" lon="-1.65389">
        <ele>-7.6</ele>
        <time>2022-04-02T16:10:57Z</time>
      </trkpt>
      <trkpt lat="47.18479" lon="-1.65416">
        <ele>-7.4</ele>
        <time>2022-04-02T16:11:04Z</time>
      </trkpt>
      <trkpt lat="47.18489" lon="-1.65434">
        <ele>-7.4</ele>
        <time>2022-04-02T16:11:09Z</time>
      </trkpt>
      <trkpt lat="47.18502" lon="-1.6545">
        <ele>-7.6</ele>
        <time>2022-04-02T16:11:14Z</time>
      </trkpt>
      <trkpt lat="47.18519" lon="-1.65472">
        <ele>-7.6</ele>
        <time>2022-04-02T16:11:19Z</time>
      </trkpt>
      <trkpt lat="47.18545" lon="-1.65501">
        <ele>-7.4</ele>
        <time>2022-04-02T16:11:26Z</time>
      </trkpt>
      <trkpt lat="47.18568" lon="-1.65531">
        <ele>-7</ele>
        <time>2022-04-02T16:11:33Z</time>
      </trkpt>
      <trkpt lat="47.1857" lon="-1.6554">
        <ele>-7</ele>
        <time>2022-04-02T16:11:35Z</time>
      </trkpt>
      <trkpt lat="47.18567" lon="-1.65544">
        <ele>-7</ele>
        <time>2022-04-02T16:11:36Z</time>
      </trkpt>
      <trkpt lat="47.18548" lon="-1.65554">
        <ele>-7.2</ele>
        <time>2022-04-02T16:11:41Z</time>
      </trkpt>
      <trkpt lat="47.18535" lon="-1.65561">
        <ele>-7</ele>
        <time>2022-04-02T16:11:45Z</time>
      </trkpt>
      <trkpt lat="47.18534" lon="-1.65574">
        <ele>-7</ele>
        <time>2022-04-02T16:11:48Z</time>
      </trkpt>
      <trkpt lat="47.18537" lon="-1.65582">
        <ele>-7</ele>
        <time>2022-04-02T16:11:50Z</time>
      </trkpt>
      <trkpt lat="47.18539" lon="-1.65584">
        <ele>-7</ele>
        <time>2022-04-02T16:11:51Z</time>
      </trkpt>
      <trkpt lat="47.18545" lon="-1.65601">
        <ele>-7</ele>
        <time>2022-04-02T16:11:55Z</time>
      </trkpt>
      <trkpt lat="47.1855" lon="-1.65612">
        <ele>-6.8</ele>
        <time>2022-04-02T16:11:58Z</time>
      </trkpt>
      <trkpt lat="47.18552" lon="-1.65615">
        <ele>-6.8</ele>
        <time>2022-04-02T16:11:59Z</time>
      </trkpt>
      <trkpt lat="47.18561" lon="-1.65621">
        <ele>-6.8</ele>
        <time>2022-04-02T16:12:03Z</time>
      </trkpt>
      <trkpt lat="47.18568" lon="-1.65627">
        <ele>-6.8</ele>
        <time>2022-04-02T16:12:06Z</time>
      </trkpt>
      <trkpt lat="47.18572" lon="-1.65636">
        <ele>-7</ele>
        <time>2022-04-02T16:12:08Z</time>
      </trkpt>
      <trkpt lat="47.18575" lon="-1.6565">
        <ele>-7.2</ele>
        <time>2022-04-02T16:12:10Z</time>
      </trkpt>
      <trkpt lat="47.18577" lon="-1.65656">
        <ele>-7</ele>
        <time>2022-04-02T16:12:11Z</time>
      </trkpt>
      <trkpt lat="47.18585" lon="-1.65666">
        <ele>-7.4</ele>
        <time>2022-04-02T16:12:15Z</time>
      </trkpt>
      <trkpt lat="47.18592" lon="-1.65674">
        <ele>-7.8</ele>
        <time>2022-04-02T16:12:18Z</time>
      </trkpt>
      <trkpt lat="47.18599" lon="-1.65689">
        <ele>-8.2</ele>
        <time>2022-04-02T16:12:22Z</time>
      </trkpt>
      <trkpt lat="47.18602" lon="-1.65698">
        <ele>-8.2</ele>
        <time>2022-04-02T16:12:24Z</time>
      </trkpt>
      <trkpt lat="47.18611" lon="-1.65706">
        <ele>-8.4</ele>
        <time>2022-04-02T16:12:27Z</time>
      </trkpt>
      <trkpt lat="47.1862" lon="-1.65713">
        <ele>-8.6</ele>
        <time>2022-04-02T16:12:30Z</time>
      </trkpt>
      <trkpt lat="47.1862" lon="-1.65715">
        <ele>-8.8</ele>
        <time>2022-04-02T16:12:31Z</time>
      </trkpt>
      <trkpt lat="47.1862" lon="-1.65735">
        <ele>-9.4</ele>
        <time>2022-04-02T16:12:45Z</time>
      </trkpt>
      <trkpt lat="47.18623" lon="-1.65739">
        <ele>-9.6</ele>
        <time>2022-04-02T16:12:46Z</time>
      </trkpt>
      <trkpt lat="47.18625" lon="-1.65744">
        <ele>-9.6</ele>
        <time>2022-04-02T16:12:47Z</time>
      </trkpt>
      <trkpt lat="47.18637" lon="-1.65767">
        <ele>-9.8</ele>
        <time>2022-04-02T16:12:51Z</time>
      </trkpt>
      <trkpt lat="47.18652" lon="-1.65791">
        <ele>-10</ele>
        <time>2022-04-02T16:12:55Z</time>
      </trkpt>
      <trkpt lat="47.18656" lon="-1.65797">
        <ele>-10.2</ele>
        <time>2022-04-02T16:12:56Z</time>
      </trkpt>
      <trkpt lat="47.18675" lon="-1.65822">
        <ele>-10.4</ele>
        <time>2022-04-02T16:13:01Z</time>
      </trkpt>
      <trkpt lat="47.18689" lon="-1.65846">
        <ele>-10.4</ele>
        <time>2022-04-02T16:13:05Z</time>
      </trkpt>
      <trkpt lat="47.18692" lon="-1.65853">
        <ele>-10.4</ele>
        <time>2022-04-02T16:13:06Z</time>
      </trkpt>
      <trkpt lat="47.18703" lon="-1.65871">
        <ele>-10.4</ele>
        <time>2022-04-02T16:13:09Z</time>
      </trkpt>
      <trkpt lat="47.18712" lon="-1.65889">
        <ele>-10.2</ele>
        <time>2022-04-02T16:13:12Z</time>
      </trkpt>
      <trkpt lat="47.18715" lon="-1.65894">
        <ele>-10.4</ele>
        <time>2022-04-02T16:13:13Z</time>
      </trkpt>
      <trkpt lat="47.18721" lon="-1.65918">
        <ele>-9.8</ele>
        <time>2022-04-02T16:13:17Z</time>
      </trkpt>
      <trkpt lat="47.18721" lon="-1.65943">
        <ele>-9.8</ele>
        <time>2022-04-02T16:13:22Z</time>
      </trkpt>
      <trkpt lat="47.18723" lon="-1.65964">
        <ele>-9.6</ele>
        <time>2022-04-02T16:13:26Z</time>
      </trkpt>
      <trkpt lat="47.18729" lon="-1.65973">
        <ele>-9.4</ele>
        <time>2022-04-02T16:13:29Z</time>
      </trkpt>
      <trkpt lat="47.18732" lon="-1.65974">
        <ele>-9.4</ele>
        <time>2022-04-02T16:13:30Z</time>
      </trkpt>
      <trkpt lat="47.1874" lon="-1.65991">
        <ele>-9.2</ele>
        <time>2022-04-02T16:13:35Z</time>
      </trkpt>
      <trkpt lat="47.18742" lon="-1.65996">
        <ele>-9.2</ele>
        <time>2022-04-02T16:13:38Z</time>
      </trkpt>
      <trkpt lat="47.18745" lon="-1.66003">
        <ele>-8.8</ele>
        <time>2022-04-02T16:13:54Z</time>
      </trkpt>
      <trkpt lat="47.18748" lon="-1.6601">
        <ele>-8.8</ele>
        <time>2022-04-02T16:13:56Z</time>
      </trkpt>
      <trkpt lat="47.18753" lon="-1.6602">
        <ele>-8.8</ele>
        <time>2022-04-02T16:13:59Z</time>
      </trkpt>
      <trkpt lat="47.18755" lon="-1.66024">
        <ele>-8.8</ele>
        <time>2022-04-02T16:14:00Z</time>
      </trkpt>
      <trkpt lat="47.18763" lon="-1.6604">
        <ele>-9.6</ele>
        <time>2022-04-02T16:14:05Z</time>
      </trkpt>
      <trkpt lat="47.18764" lon="-1.66058">
        <ele>-10</ele>
        <time>2022-04-02T16:14:09Z</time>
      </trkpt>
      <trkpt lat="47.18766" lon="-1.66073">
        <ele>-10.4</ele>
        <time>2022-04-02T16:14:13Z</time>
      </trkpt>
      <trkpt lat="47.18766" lon="-1.66082">
        <ele>-10.6</ele>
        <time>2022-04-02T16:14:15Z</time>
      </trkpt>
      <trkpt lat="47.18766" lon="-1.66092">
        <ele>-11</ele>
        <time>2022-04-02T16:14:17Z</time>
      </trkpt>
      <trkpt lat="47.18766" lon="-1.66095">
        <ele>-11.2</ele>
        <time>2022-04-02T16:14:18Z</time>
      </trkpt>
      <trkpt lat="47.18765" lon="-1.661">
        <ele>-11.4</ele>
        <time>2022-04-02T16:14:21Z</time>
      </trkpt>
      <trkpt lat="47.18764" lon="-1.66103">
        <ele>-11.6</ele>
        <time>2022-04-02T16:14:23Z</time>
      </trkpt>
      <trkpt lat="47.18765" lon="-1.66109">
        <ele>-12</ele>
        <time>2022-04-02T16:14:25Z</time>
      </trkpt>
      <trkpt lat="47.18769" lon="-1.66125">
        <ele>-12.8</ele>
        <time>2022-04-02T16:14:29Z</time>
      </trkpt>
      <trkpt lat="47.18772" lon="-1.66137">
        <ele>-13.2</ele>
        <time>2022-04-02T16:14:32Z</time>
      </trkpt>
      <trkpt lat="47.18774" lon="-1.66139">
        <ele>-13.4</ele>
        <time>2022-04-02T16:14:33Z</time>
      </trkpt>
      <trkpt lat="47.18776" lon="-1.66142">
        <ele>-13.6</ele>
        <time>2022-04-02T16:14:34Z</time>
      </trkpt>
      <trkpt lat="47.18778" lon="-1.6615">
        <ele>-13.8</ele>
        <time>2022-04-02T16:14:36Z</time>
      </trkpt>
      <trkpt lat="47.18779" lon="-1.66155">
        <ele>-14.2</ele>
        <time>2022-04-02T16:14:38Z</time>
      </trkpt>
      <trkpt lat="47.18781" lon="-1.66165">
        <ele>-14.6</ele>
        <time>2022-04-02T16:14:41Z</time>
      </trkpt>
      <trkpt lat="47.18775" lon="-1.66179">
        <ele>-15</ele>
        <time>2022-04-02T16:14:44Z</time>
      </trkpt>
      <trkpt lat="47.18769" lon="-1.66195">
        <ele>-15.2</ele>
        <time>2022-04-02T16:14:49Z</time>
      </trkpt>
      <trkpt lat="47.18766" lon="-1.66201">
        <ele>-15.2</ele>
        <time>2022-04-02T16:14:52Z</time>
      </trkpt>
      <trkpt lat="47.18765" lon="-1.66203">
        <ele>-15.2</ele>
        <time>2022-04-02T16:14:53Z</time>
      </trkpt>
      <trkpt lat="47.18765" lon="-1.66206">
        <ele>-15.2</ele>
        <time>2022-04-02T16:14:54Z</time>
      </trkpt>
      <trkpt lat="47.18764" lon="-1.66212">
        <ele>-15.2</ele>
        <time>2022-04-02T16:14:56Z</time>
      </trkpt>
      <trkpt lat="47.18765" lon="-1.66213">
        <ele>-15.2</ele>
        <time>2022-04-02T16:14:57Z</time>
      </trkpt>
      <trkpt lat="47.18765" lon="-1.66215">
        <ele>-15.2</ele>
        <time>2022-04-02T16:14:59Z</time>
      </trkpt>
      <trkpt lat="47.1878" lon="-1.66304">
        <ele>-11</ele>
        <time>2022-04-02T16:16:02Z</time>
      </trkpt>
      <trkpt lat="47.18782" lon="-1.66308">
        <ele>-11</ele>
        <time>2022-04-02T16:16:03Z</time>
      </trkpt>
      <trkpt lat="47.18785" lon="-1.66317">
        <ele>-11.2</ele>
        <time>2022-04-02T16:16:05Z</time>
      </trkpt>
      <trkpt lat="47.18788" lon="-1.6633">
        <ele>-11.4</ele>
        <time>2022-04-02T16:16:07Z</time>
      </trkpt>
      <trkpt lat="47.18788" lon="-1.66353">
        <ele>-11.6</ele>
        <time>2022-04-02T16:16:10Z</time>
      </trkpt>
      <trkpt lat="47.18787" lon="-1.66362">
        <ele>-11.6</ele>
        <time>2022-04-02T16:16:11Z</time>
      </trkpt>
      <trkpt lat="47.18775" lon="-1.66398">
        <ele>-12.6</ele>
        <time>2022-04-02T16:16:16Z</time>
      </trkpt>
      <trkpt lat="47.18771" lon="-1.66405">
        <ele>-12.6</ele>
        <time>2022-04-02T16:16:18Z</time>
      </trkpt>
      <trkpt lat="47.18769" lon="-1.66405">
        <ele>-12.6</ele>
        <time>2022-04-02T16:16:19Z</time>
      </trkpt>
      <trkpt lat="47.18766" lon="-1.66408">
        <ele>-12.8</ele>
        <time>2022-04-02T16:16:20Z</time>
      </trkpt>
      <trkpt lat="47.18761" lon="-1.66421">
        <ele>-12.2</ele>
        <time>2022-04-02T16:16:22Z</time>
      </trkpt>
      <trkpt lat="47.18762" lon="-1.66428">
        <ele>-12.2</ele>
        <time>2022-04-02T16:16:23Z</time>
      </trkpt>
      <trkpt lat="47.18767" lon="-1.66446">
        <ele>-12.4</ele>
        <time>2022-04-02T16:16:25Z</time>
      </trkpt>
      <trkpt lat="47.18772" lon="-1.66464">
        <ele>-11.4</ele>
        <time>2022-04-02T16:16:27Z</time>
      </trkpt>
      <trkpt lat="47.18772" lon="-1.66476">
        <ele>-11.2</ele>
        <time>2022-04-02T16:16:28Z</time>
      </trkpt>
      <trkpt lat="47.1877" lon="-1.66498">
        <ele>-10.8</ele>
        <time>2022-04-02T16:16:30Z</time>
      </trkpt>
      <trkpt lat="47.18772" lon="-1.66516">
        <ele>-10.6</ele>
        <time>2022-04-02T16:16:32Z</time>
      </trkpt>
      <trkpt lat="47.18773" lon="-1.66525">
        <ele>-10.4</ele>
        <time>2022-04-02T16:16:33Z</time>
      </trkpt>
      <trkpt lat="47.18775" lon="-1.66549">
        <ele>-10.2</ele>
        <time>2022-04-02T16:16:36Z</time>
      </trkpt>
      <trkpt lat="47.18776" lon="-1.66557">
        <ele>-10</ele>
        <time>2022-04-02T16:16:37Z</time>
      </trkpt>
      <trkpt lat="47.18776" lon="-1.66564">
        <ele>-10</ele>
        <time>2022-04-02T16:16:38Z</time>
      </trkpt>
      <trkpt lat="47.18781" lon="-1.66599">
        <ele>-9.4</ele>
        <time>2022-04-02T16:16:43Z</time>
      </trkpt>
      <trkpt lat="47.18781" lon="-1.66606">
        <ele>-9.4</ele>
        <time>2022-04-02T16:16:44Z</time>
      </trkpt>
      <trkpt lat="47.18785" lon="-1.66629">
        <ele>-9</ele>
        <time>2022-04-02T16:16:48Z</time>
      </trkpt>
      <trkpt lat="47.18787" lon="-1.66646">
        <ele>-8.6</ele>
        <time>2022-04-02T16:16:51Z</time>
      </trkpt>
      <trkpt lat="47.18789" lon="-1.66659">
        <ele>-8.4</ele>
        <time>2022-04-02T16:16:53Z</time>
      </trkpt>
      <trkpt lat="47.18791" lon="-1.66678">
        <ele>-8</ele>
        <time>2022-04-02T16:16:56Z</time>
      </trkpt>
      <trkpt lat="47.18793" lon="-1.6669">
        <ele>-7.8</ele>
        <time>2022-04-02T16:16:58Z</time>
      </trkpt>
      <trkpt lat="47.18794" lon="-1.66695">
        <ele>-7.6</ele>
        <time>2022-04-02T16:16:59Z</time>
      </trkpt>
      <trkpt lat="47.18798" lon="-1.66717">
        <ele>-7</ele>
        <time>2022-04-02T16:17:03Z</time>
      </trkpt>
      <trkpt lat="47.18801" lon="-1.66736">
        <ele>-6.4</ele>
        <time>2022-04-02T16:17:07Z</time>
      </trkpt>
      <trkpt lat="47.18803" lon="-1.66747">
        <ele>-6.2</ele>
        <time>2022-04-02T16:17:09Z</time>
      </trkpt>
      <trkpt lat="47.18806" lon="-1.66769">
        <ele>-6</ele>
        <time>2022-04-02T16:17:12Z</time>
      </trkpt>
      <trkpt lat="47.18808" lon="-1.66784">
        <ele>-5.8</ele>
        <time>2022-04-02T16:17:14Z</time>
      </trkpt>
      <trkpt lat="47.18815" lon="-1.66804">
        <ele>-5.6</ele>
        <time>2022-04-02T16:17:17Z</time>
      </trkpt>
      <trkpt lat="47.18818" lon="-1.6681">
        <ele>-5.6</ele>
        <time>2022-04-02T16:17:18Z</time>
      </trkpt>
      <trkpt lat="47.18825" lon="-1.66826">
        <ele>-5.4</ele>
        <time>2022-04-02T16:17:21Z</time>
      </trkpt>
      <trkpt lat="47.18827" lon="-1.66832">
        <ele>-5.4</ele>
        <time>2022-04-02T16:17:22Z</time>
      </trkpt>
      <trkpt lat="47.18829" lon="-1.66844">
        <ele>-5.2</ele>
        <time>2022-04-02T16:17:24Z</time>
      </trkpt>
      <trkpt lat="47.1883" lon="-1.66856">
        <ele>-5.2</ele>
        <time>2022-04-02T16:17:26Z</time>
      </trkpt>
      <trkpt lat="47.18835" lon="-1.66888">
        <ele>-4.6</ele>
        <time>2022-04-02T16:17:32Z</time>
      </trkpt>
      <trkpt lat="47.1884" lon="-1.66914">
        <ele>-4.4</ele>
        <time>2022-04-02T16:17:37Z</time>
      </trkpt>
      <trkpt lat="47.18846" lon="-1.66935">
        <ele>-4.4</ele>
        <time>2022-04-02T16:17:42Z</time>
      </trkpt>
      <trkpt lat="47.18854" lon="-1.66958">
        <ele>-4.4</ele>
        <time>2022-04-02T16:17:47Z</time>
      </trkpt>
      <trkpt lat="47.18858" lon="-1.6699">
        <ele>-6</ele>
        <time>2022-04-02T16:17:53Z</time>
      </trkpt>
      <trkpt lat="47.1886" lon="-1.67007">
        <ele>-6.6</ele>
        <time>2022-04-02T16:17:56Z</time>
      </trkpt>
      <trkpt lat="47.18863" lon="-1.67013">
        <ele>-6.8</ele>
        <time>2022-04-02T16:17:58Z</time>
      </trkpt>
      <trkpt lat="47.18865" lon="-1.67027">
        <ele>-7.8</ele>
        <time>2022-04-02T16:18:03Z</time>
      </trkpt>
      <trkpt lat="47.18872" lon="-1.67038">
        <ele>-8.6</ele>
        <time>2022-04-02T16:18:17Z</time>
      </trkpt>
      <trkpt lat="47.18877" lon="-1.67036">
        <ele>-8.8</ele>
        <time>2022-04-02T16:18:18Z</time>
      </trkpt>
      <trkpt lat="47.18879" lon="-1.67033">
        <ele>-8.8</ele>
        <time>2022-04-02T16:18:19Z</time>
      </trkpt>
      <trkpt lat="47.1888" lon="-1.67032">
        <ele>-9</ele>
        <time>2022-04-02T16:18:20Z</time>
      </trkpt>
      <trkpt lat="47.1889" lon="-1.67026">
        <ele>-9.6</ele>
        <time>2022-04-02T16:18:23Z</time>
      </trkpt>
      <trkpt lat="47.1891" lon="-1.67014">
        <ele>-10.4</ele>
        <time>2022-04-02T16:18:28Z</time>
      </trkpt>
      <trkpt lat="47.18934" lon="-1.67003">
        <ele>-11</ele>
        <time>2022-04-02T16:18:33Z</time>
      </trkpt>
      <trkpt lat="47.18939" lon="-1.67001">
        <ele>-11</ele>
        <time>2022-04-02T16:18:34Z</time>
      </trkpt>
      <trkpt lat="47.18982" lon="-1.66983">
        <ele>-10.8</ele>
        <time>2022-04-02T16:18:42Z</time>
      </trkpt>
      <trkpt lat="47.19006" lon="-1.6697">
        <ele>-12</ele>
        <time>2022-04-02T16:18:47Z</time>
      </trkpt>
      <trkpt lat="47.19014" lon="-1.66966">
        <ele>-11.6</ele>
        <time>2022-04-02T16:18:49Z</time>
      </trkpt>
      <trkpt lat="47.19022" lon="-1.66961">
        <ele>-11.2</ele>
        <time>2022-04-02T16:18:51Z</time>
      </trkpt>
      <trkpt lat="47.19046" lon="-1.6695">
        <ele>-10.4</ele>
        <time>2022-04-02T16:18:56Z</time>
      </trkpt>
      <trkpt lat="47.19051" lon="-1.66948">
        <ele>-10.4</ele>
        <time>2022-04-02T16:18:57Z</time>
      </trkpt>
      <trkpt lat="47.19059" lon="-1.66947">
        <ele>-10.4</ele>
        <time>2022-04-02T16:18:59Z</time>
      </trkpt>
      <trkpt lat="47.19067" lon="-1.66946">
        <ele>-10.6</ele>
        <time>2022-04-02T16:19:01Z</time>
      </trkpt>
      <trkpt lat="47.19081" lon="-1.66946">
        <ele>-10.2</ele>
        <time>2022-04-02T16:19:04Z</time>
      </trkpt>
      <trkpt lat="47.19085" lon="-1.66948">
        <ele>-10.6</ele>
        <time>2022-04-02T16:19:05Z</time>
      </trkpt>
      <trkpt lat="47.191" lon="-1.66954">
        <ele>-11.4</ele>
        <time>2022-04-02T16:19:09Z</time>
      </trkpt>
      <trkpt lat="47.19111" lon="-1.66965">
        <ele>-11.2</ele>
        <time>2022-04-02T16:19:13Z</time>
      </trkpt>
      <trkpt lat="47.19115" lon="-1.66968">
        <ele>-11.4</ele>
        <time>2022-04-02T16:19:15Z</time>
      </trkpt>
      <trkpt lat="47.1912" lon="-1.66977">
        <ele>-11.4</ele>
        <time>2022-04-02T16:19:18Z</time>
      </trkpt>
      <trkpt lat="47.19123" lon="-1.66983">
        <ele>-12</ele>
        <time>2022-04-02T16:19:20Z</time>
      </trkpt>
      <trkpt lat="47.19126" lon="-1.66988">
        <ele>-11.6</ele>
        <time>2022-04-02T16:19:22Z</time>
      </trkpt>
      <trkpt lat="47.19137" lon="-1.67004">
        <ele>-10.6</ele>
        <time>2022-04-02T16:19:26Z</time>
      </trkpt>
      <trkpt lat="47.19148" lon="-1.67018">
        <ele>-10</ele>
        <time>2022-04-02T16:19:30Z</time>
      </trkpt>
      <trkpt lat="47.19168" lon="-1.67045">
        <ele>-10.6</ele>
        <time>2022-04-02T16:19:37Z</time>
      </trkpt>
      <trkpt lat="47.19181" lon="-1.67062">
        <ele>-10.4</ele>
        <time>2022-04-02T16:19:42Z</time>
      </trkpt>
      <trkpt lat="47.19192" lon="-1.67078">
        <ele>-10</ele>
        <time>2022-04-02T16:19:47Z</time>
      </trkpt>
      <trkpt lat="47.19204" lon="-1.671">
        <ele>-9.8</ele>
        <time>2022-04-02T16:19:52Z</time>
      </trkpt>
      <trkpt lat="47.19219" lon="-1.67116">
        <ele>-9.8</ele>
        <time>2022-04-02T16:19:57Z</time>
      </trkpt>
      <trkpt lat="47.19229" lon="-1.6713">
        <ele>-9.6</ele>
        <time>2022-04-02T16:20:01Z</time>
      </trkpt>
      <trkpt lat="47.19231" lon="-1.67133">
        <ele>-9.6</ele>
        <time>2022-04-02T16:20:02Z</time>
      </trkpt>
      <trkpt lat="47.19243" lon="-1.67149">
        <ele>-9.6</ele>
        <time>2022-04-02T16:20:06Z</time>
      </trkpt>
      <trkpt lat="47.19251" lon="-1.67163">
        <ele>-9.6</ele>
        <time>2022-04-02T16:20:09Z</time>
      </trkpt>
      <trkpt lat="47.19253" lon="-1.67166">
        <ele>-9.4</ele>
        <time>2022-04-02T16:20:10Z</time>
      </trkpt>
      <trkpt lat="47.19265" lon="-1.67183">
        <ele>-9</ele>
        <time>2022-04-02T16:20:15Z</time>
      </trkpt>
      <trkpt lat="47.19277" lon="-1.67199">
        <ele>-8.2</ele>
        <time>2022-04-02T16:20:20Z</time>
      </trkpt>
      <trkpt lat="47.19288" lon="-1.67215">
        <ele>-7.8</ele>
        <time>2022-04-02T16:20:24Z</time>
      </trkpt>
      <trkpt lat="47.19303" lon="-1.67236">
        <ele>-7.4</ele>
        <time>2022-04-02T16:20:29Z</time>
      </trkpt>
      <trkpt lat="47.19308" lon="-1.67244">
        <ele>-7.2</ele>
        <time>2022-04-02T16:20:31Z</time>
      </trkpt>
      <trkpt lat="47.19313" lon="-1.67252">
        <ele>-7.2</ele>
        <time>2022-04-02T16:20:33Z</time>
      </trkpt>
      <trkpt lat="47.19326" lon="-1.67269">
        <ele>-6.8</ele>
        <time>2022-04-02T16:20:37Z</time>
      </trkpt>
      <trkpt lat="47.19339" lon="-1.67287">
        <ele>-6.6</ele>
        <time>2022-04-02T16:20:41Z</time>
      </trkpt>
      <trkpt lat="47.19345" lon="-1.67295">
        <ele>-6.4</ele>
        <time>2022-04-02T16:20:43Z</time>
      </trkpt>
      <trkpt lat="47.19352" lon="-1.67305">
        <ele>-6.4</ele>
        <time>2022-04-02T16:20:45Z</time>
      </trkpt>
      <trkpt lat="47.19368" lon="-1.67328">
        <ele>-6.2</ele>
        <time>2022-04-02T16:20:50Z</time>
      </trkpt>
      <trkpt lat="47.1938" lon="-1.67342">
        <ele>-6</ele>
        <time>2022-04-02T16:20:54Z</time>
      </trkpt>
      <trkpt lat="47.19395" lon="-1.67366">
        <ele>-5.6</ele>
        <time>2022-04-02T16:21:00Z</time>
      </trkpt>
      <trkpt lat="47.19406" lon="-1.67386">
        <ele>-5</ele>
        <time>2022-04-02T16:21:05Z</time>
      </trkpt>
      <trkpt lat="47.19419" lon="-1.67407">
        <ele>-5</ele>
        <time>2022-04-02T16:21:10Z</time>
      </trkpt>
      <trkpt lat="47.19424" lon="-1.67425">
        <ele>-5</ele>
        <time>2022-04-02T16:21:14Z</time>
      </trkpt>
      <trkpt lat="47.19426" lon="-1.67455">
        <ele>-5</ele>
        <time>2022-04-02T16:21:19Z</time>
      </trkpt>
      <trkpt lat="47.19426" lon="-1.67487">
        <ele>-5.2</ele>
        <time>2022-04-02T16:21:25Z</time>
      </trkpt>
      <trkpt lat="47.19425" lon="-1.675">
        <ele>-5.8</ele>
        <time>2022-04-02T16:21:28Z</time>
      </trkpt>
      <trkpt lat="47.19424" lon="-1.67504">
        <ele>-5.4</ele>
        <time>2022-04-02T16:21:29Z</time>
      </trkpt>
      <trkpt lat="47.19427" lon="-1.67527">
        <ele>-6.2</ele>
        <time>2022-04-02T16:21:34Z</time>
      </trkpt>
      <trkpt lat="47.19427" lon="-1.67543">
        <ele>-6.4</ele>
        <time>2022-04-02T16:21:38Z</time>
      </trkpt>
      <trkpt lat="47.19427" lon="-1.6755">
        <ele>-6.6</ele>
        <time>2022-04-02T16:21:40Z</time>
      </trkpt>
      <trkpt lat="47.19426" lon="-1.67559">
        <ele>-6.6</ele>
        <time>2022-04-02T16:21:42Z</time>
      </trkpt>
      <trkpt lat="47.19424" lon="-1.67565">
        <ele>-6.6</ele>
        <time>2022-04-02T16:21:46Z</time>
      </trkpt>
      <trkpt lat="47.19423" lon="-1.67571">
        <ele>-7</ele>
        <time>2022-04-02T16:21:56Z</time>
      </trkpt>
      <trkpt lat="47.19421" lon="-1.67592">
        <ele>-7.2</ele>
        <time>2022-04-02T16:22:00Z</time>
      </trkpt>
      <trkpt lat="47.19418" lon="-1.67611">
        <ele>-7.2</ele>
        <time>2022-04-02T16:22:03Z</time>
      </trkpt>
      <trkpt lat="47.19408" lon="-1.67644">
        <ele>-6.6</ele>
        <time>2022-04-02T16:22:08Z</time>
      </trkpt>
      <trkpt lat="47.19394" lon="-1.67685">
        <ele>-6.4</ele>
        <time>2022-04-02T16:22:14Z</time>
      </trkpt>
      <trkpt lat="47.19392" lon="-1.67692">
        <ele>-6.2</ele>
        <time>2022-04-02T16:22:15Z</time>
      </trkpt>
      <trkpt lat="47.19388" lon="-1.67705">
        <ele>-6.2</ele>
        <time>2022-04-02T16:22:17Z</time>
      </trkpt>
      <trkpt lat="47.19382" lon="-1.67739">
        <ele>-5.8</ele>
        <time>2022-04-02T16:22:22Z</time>
      </trkpt>
      <trkpt lat="47.19377" lon="-1.67796">
        <ele>-5.2</ele>
        <time>2022-04-02T16:22:30Z</time>
      </trkpt>
      <trkpt lat="47.19379" lon="-1.67845">
        <ele>-4.4</ele>
        <time>2022-04-02T16:22:37Z</time>
      </trkpt>
      <trkpt lat="47.19382" lon="-1.67858">
        <ele>-4.2</ele>
        <time>2022-04-02T16:22:39Z</time>
      </trkpt>
      <trkpt lat="47.1939" lon="-1.67888">
        <ele>-3.8</ele>
        <time>2022-04-02T16:22:44Z</time>
      </trkpt>
      <trkpt lat="47.19404" lon="-1.67929">
        <ele>-3.6</ele>
        <time>2022-04-02T16:22:51Z</time>
      </trkpt>
      <trkpt lat="47.19417" lon="-1.67975">
        <ele>-3.4</ele>
        <time>2022-04-02T16:22:58Z</time>
      </trkpt>
      <trkpt lat="47.1943" lon="-1.68018">
        <ele>-3.4</ele>
        <time>2022-04-02T16:23:05Z</time>
      </trkpt>
      <trkpt lat="47.19439" lon="-1.68034">
        <ele>-3.2</ele>
        <time>2022-04-02T16:23:09Z</time>
      </trkpt>
      <trkpt lat="47.19445" lon="-1.68055">
        <ele>-3.8</ele>
        <time>2022-04-02T16:23:13Z</time>
      </trkpt>
      <trkpt lat="47.19441" lon="-1.68066">
        <ele>-4</ele>
        <time>2022-04-02T16:23:15Z</time>
      </trkpt>
      <trkpt lat="47.19441" lon="-1.68072">
        <ele>-4.2</ele>
        <time>2022-04-02T16:23:16Z</time>
      </trkpt>
      <trkpt lat="47.1945" lon="-1.68097">
        <ele>-4.4</ele>
        <time>2022-04-02T16:23:21Z</time>
      </trkpt>
      <trkpt lat="47.19461" lon="-1.68131">
        <ele>-5</ele>
        <time>2022-04-02T16:23:27Z</time>
      </trkpt>
      <trkpt lat="47.19472" lon="-1.68167">
        <ele>-5.6</ele>
        <time>2022-04-02T16:23:33Z</time>
      </trkpt>
      <trkpt lat="47.19492" lon="-1.68221">
        <ele>-6.2</ele>
        <time>2022-04-02T16:23:41Z</time>
      </trkpt>
      <trkpt lat="47.19506" lon="-1.68267">
        <ele>-6.4</ele>
        <time>2022-04-02T16:23:48Z</time>
      </trkpt>
      <trkpt lat="47.19519" lon="-1.68297">
        <ele>-6.4</ele>
        <time>2022-04-02T16:23:53Z</time>
      </trkpt>
      <trkpt lat="47.19534" lon="-1.68351">
        <ele>-6.8</ele>
        <time>2022-04-02T16:24:01Z</time>
      </trkpt>
      <trkpt lat="47.19543" lon="-1.68378">
        <ele>-6.4</ele>
        <time>2022-04-02T16:24:06Z</time>
      </trkpt>
      <trkpt lat="47.19544" lon="-1.68385">
        <ele>-6.6</ele>
        <time>2022-04-02T16:24:07Z</time>
      </trkpt>
      <trkpt lat="47.19545" lon="-1.68401">
        <ele>-6.6</ele>
        <time>2022-04-02T16:24:09Z</time>
      </trkpt>
      <trkpt lat="47.19549" lon="-1.68415">
        <ele>-6.6</ele>
        <time>2022-04-02T16:24:11Z</time>
      </trkpt>
      <trkpt lat="47.19552" lon="-1.68421">
        <ele>-6.6</ele>
        <time>2022-04-02T16:24:12Z</time>
      </trkpt>
      <trkpt lat="47.19558" lon="-1.6843">
        <ele>-6.6</ele>
        <time>2022-04-02T16:24:14Z</time>
      </trkpt>
      <trkpt lat="47.19565" lon="-1.68447">
        <ele>-6.6</ele>
        <time>2022-04-02T16:24:17Z</time>
      </trkpt>
      <trkpt lat="47.19569" lon="-1.68461">
        <ele>-6.6</ele>
        <time>2022-04-02T16:24:19Z</time>
      </trkpt>
      <trkpt lat="47.19573" lon="-1.68475">
        <ele>-6.6</ele>
        <time>2022-04-02T16:24:21Z</time>
      </trkpt>
      <trkpt lat="47.19579" lon="-1.68499">
        <ele>-6.6</ele>
        <time>2022-04-02T16:24:24Z</time>
      </trkpt>
      <trkpt lat="47.19585" lon="-1.6852">
        <ele>-6.4</ele>
        <time>2022-04-02T16:24:27Z</time>
      </trkpt>
      <trkpt lat="47.19589" lon="-1.68531">
        <ele>-6.4</ele>
        <time>2022-04-02T16:24:29Z</time>
      </trkpt>
      <trkpt lat="47.19594" lon="-1.68551">
        <ele>-6.4</ele>
        <time>2022-04-02T16:24:33Z</time>
      </trkpt>
      <trkpt lat="47.19603" lon="-1.68591">
        <ele>-6.2</ele>
        <time>2022-04-02T16:24:39Z</time>
      </trkpt>
      <trkpt lat="47.1962" lon="-1.6865">
        <ele>-6</ele>
        <time>2022-04-02T16:24:48Z</time>
      </trkpt>
      <trkpt lat="47.19633" lon="-1.68693">
        <ele>-5.6</ele>
        <time>2022-04-02T16:24:55Z</time>
      </trkpt>
      <trkpt lat="47.19646" lon="-1.68736">
        <ele>-5.4</ele>
        <time>2022-04-02T16:25:02Z</time>
      </trkpt>
      <trkpt lat="47.19659" lon="-1.68779">
        <ele>-5.2</ele>
        <time>2022-04-02T16:25:09Z</time>
      </trkpt>
      <trkpt lat="47.1967" lon="-1.68818">
        <ele>-5</ele>
        <time>2022-04-02T16:25:15Z</time>
      </trkpt>
      <trkpt lat="47.19678" lon="-1.68862">
        <ele>-4.8</ele>
        <time>2022-04-02T16:25:21Z</time>
      </trkpt>
      <trkpt lat="47.1968" lon="-1.68892">
        <ele>-4.8</ele>
        <time>2022-04-02T16:25:25Z</time>
      </trkpt>
      <trkpt lat="47.19682" lon="-1.68906">
        <ele>-4.6</ele>
        <time>2022-04-02T16:25:27Z</time>
      </trkpt>
      <trkpt lat="47.1968" lon="-1.68943">
        <ele>-4</ele>
        <time>2022-04-02T16:25:32Z</time>
      </trkpt>
      <trkpt lat="47.19679" lon="-1.68958">
        <ele>-3.8</ele>
        <time>2022-04-02T16:25:34Z</time>
      </trkpt>
      <trkpt lat="47.19672" lon="-1.69012">
        <ele>-3</ele>
        <time>2022-04-02T16:25:41Z</time>
      </trkpt>
      <trkpt lat="47.19667" lon="-1.69034">
        <ele>-2.6</ele>
        <time>2022-04-02T16:25:44Z</time>
      </trkpt>
      <trkpt lat="47.1966" lon="-1.69063">
        <ele>-2.2</ele>
        <time>2022-04-02T16:25:48Z</time>
      </trkpt>
      <trkpt lat="47.19657" lon="-1.6907">
        <ele>-2.2</ele>
        <time>2022-04-02T16:25:49Z</time>
      </trkpt>
      <trkpt lat="47.19646" lon="-1.69097">
        <ele>-2</ele>
        <time>2022-04-02T16:25:53Z</time>
      </trkpt>
      <trkpt lat="47.19634" lon="-1.69122">
        <ele>-1.6</ele>
        <time>2022-04-02T16:25:57Z</time>
      </trkpt>
      <trkpt lat="47.19623" lon="-1.69138">
        <ele>-1.4</ele>
        <time>2022-04-02T16:26:00Z</time>
      </trkpt>
      <trkpt lat="47.19597" lon="-1.69174">
        <ele>-1</ele>
        <time>2022-04-02T16:26:07Z</time>
      </trkpt>
      <trkpt lat="47.19569" lon="-1.69209">
        <ele>-0.80000000000001</ele>
        <time>2022-04-02T16:26:14Z</time>
      </trkpt>
      <trkpt lat="47.19548" lon="-1.69237">
        <ele>-0.60000000000002</ele>
        <time>2022-04-02T16:26:19Z</time>
      </trkpt>
      <trkpt lat="47.19544" lon="-1.69242">
        <ele>-0.60000000000002</ele>
        <time>2022-04-02T16:26:20Z</time>
      </trkpt>
      <trkpt lat="47.19522" lon="-1.69273">
        <ele>-0.39999999999998</ele>
        <time>2022-04-02T16:26:26Z</time>
      </trkpt>
      <trkpt lat="47.19485" lon="-1.69322">
        <ele>-0.39999999999998</ele>
        <time>2022-04-02T16:26:36Z</time>
      </trkpt>
      <trkpt lat="47.1945" lon="-1.69358">
        <ele>0.19999999999999</ele>
        <time>2022-04-02T16:26:45Z</time>
      </trkpt>
      <trkpt lat="47.19431" lon="-1.69383">
        <ele>0.19999999999999</ele>
        <time>2022-04-02T16:26:51Z</time>
      </trkpt>
      <trkpt lat="47.19436" lon="-1.69389">
        <ele>0.19999999999999</ele>
        <time>2022-04-02T16:26:53Z</time>
      </trkpt>
      <trkpt lat="47.19441" lon="-1.69388">
        <ele>0.19999999999999</ele>
        <time>2022-04-02T16:26:54Z</time>
      </trkpt>
      <trkpt lat="47.19453" lon="-1.69389">
        <ele>0.19999999999999</ele>
        <time>2022-04-02T16:26:57Z</time>
      </trkpt>
      <trkpt lat="47.19462" lon="-1.69391">
        <ele>0.39999999999998</ele>
        <time>2022-04-02T16:26:59Z</time>
      </trkpt>
      <trkpt lat="47.19475" lon="-1.69397">
        <ele>0.39999999999998</ele>
        <time>2022-04-02T16:27:02Z</time>
      </trkpt>
      <trkpt lat="47.19479" lon="-1.694">
        <ele>0.39999999999998</ele>
        <time>2022-04-02T16:27:03Z</time>
      </trkpt>
      <trkpt lat="47.19493" lon="-1.69412">
        <ele>-0.19999999999999</ele>
        <time>2022-04-02T16:27:07Z</time>
      </trkpt>
      <trkpt lat="47.19507" lon="-1.69436">
        <ele>-0.39999999999998</ele>
        <time>2022-04-02T16:27:12Z</time>
      </trkpt>
      <trkpt lat="47.19514" lon="-1.69452">
        <ele>-0.60000000000002</ele>
        <time>2022-04-02T16:27:15Z</time>
      </trkpt>
      <trkpt lat="47.19519" lon="-1.69463">
        <ele>-0.60000000000002</ele>
        <time>2022-04-02T16:27:17Z</time>
      </trkpt>
      <trkpt lat="47.19529" lon="-1.69491">
        <ele>-1</ele>
        <time>2022-04-02T16:27:22Z</time>
      </trkpt>
      <trkpt lat="47.19536" lon="-1.69508">
        <ele>-1.2</ele>
        <time>2022-04-02T16:27:25Z</time>
      </trkpt>
      <trkpt lat="47.1956" lon="-1.69572">
        <ele>-1.6</ele>
        <time>2022-04-02T16:27:36Z</time>
      </trkpt>
      <trkpt lat="47.19581" lon="-1.69618">
        <ele>-1.6</ele>
        <time>2022-04-02T16:27:44Z</time>
      </trkpt>
      <trkpt lat="47.19598" lon="-1.69654">
        <ele>-1.8</ele>
        <time>2022-04-02T16:27:50Z</time>
      </trkpt>
      <trkpt lat="47.19618" lon="-1.69695">
        <ele>-1.8</ele>
        <time>2022-04-02T16:27:57Z</time>
      </trkpt>
      <trkpt lat="47.19623" lon="-1.69707">
        <ele>-1.8</ele>
        <time>2022-04-02T16:27:59Z</time>
      </trkpt>
      <trkpt lat="47.19627" lon="-1.69719">
        <ele>-1.8</ele>
        <time>2022-04-02T16:28:01Z</time>
      </trkpt>
      <trkpt lat="47.1963" lon="-1.69725">
        <ele>-1.8</ele>
        <time>2022-04-02T16:28:02Z</time>
      </trkpt>
      <trkpt lat="47.19632" lon="-1.69731">
        <ele>-1.8</ele>
        <time>2022-04-02T16:28:03Z</time>
      </trkpt>
      <trkpt lat="47.19636" lon="-1.69749">
        <ele>-1.8</ele>
        <time>2022-04-02T16:28:06Z</time>
      </trkpt>
      <trkpt lat="47.19636" lon="-1.69754">
        <ele>-2</ele>
        <time>2022-04-02T16:28:07Z</time>
      </trkpt>
      <trkpt lat="47.19643" lon="-1.69774">
        <ele>-2.4</ele>
        <time>2022-04-02T16:28:11Z</time>
      </trkpt>
      <trkpt lat="47.19651" lon="-1.69783">
        <ele>-2.8</ele>
        <time>2022-04-02T16:28:13Z</time>
      </trkpt>
      <trkpt lat="47.19663" lon="-1.69794">
        <ele>-3.2</ele>
        <time>2022-04-02T16:28:16Z</time>
      </trkpt>
      <trkpt lat="47.19667" lon="-1.69798">
        <ele>-3.4</ele>
        <time>2022-04-02T16:28:17Z</time>
      </trkpt>
      <trkpt lat="47.1968" lon="-1.69816">
        <ele>-3.6</ele>
        <time>2022-04-02T16:28:21Z</time>
      </trkpt>
      <trkpt lat="47.19684" lon="-1.69829">
        <ele>-3.6</ele>
        <time>2022-04-02T16:28:23Z</time>
      </trkpt>
      <trkpt lat="47.19684" lon="-1.69835">
        <ele>-3.8</ele>
        <time>2022-04-02T16:28:24Z</time>
      </trkpt>
      <trkpt lat="47.19682" lon="-1.69848">
        <ele>-4</ele>
        <time>2022-04-02T16:28:26Z</time>
      </trkpt>
      <trkpt lat="47.19677" lon="-1.69872">
        <ele>-3.8</ele>
        <time>2022-04-02T16:28:30Z</time>
      </trkpt>
      <trkpt lat="47.19676" lon="-1.69879">
        <ele>-3.8</ele>
        <time>2022-04-02T16:28:31Z</time>
      </trkpt>
      <trkpt lat="47.19677" lon="-1.69895">
        <ele>-3.8</ele>
        <time>2022-04-02T16:28:34Z</time>
      </trkpt>
      <trkpt lat="47.19685" lon="-1.6992">
        <ele>-4.2</ele>
        <time>2022-04-02T16:28:39Z</time>
      </trkpt>
      <trkpt lat="47.19691" lon="-1.6994">
        <ele>-5.2</ele>
        <time>2022-04-02T16:28:43Z</time>
      </trkpt>
      <trkpt lat="47.19691" lon="-1.69944">
        <ele>-5.4</ele>
        <time>2022-04-02T16:28:44Z</time>
      </trkpt>
      <trkpt lat="47.1969" lon="-1.69955">
        <ele>-5.8</ele>
        <time>2022-04-02T16:28:46Z</time>
      </trkpt>
      <trkpt lat="47.19694" lon="-1.69985">
        <ele>-7.2</ele>
        <time>2022-04-02T16:28:51Z</time>
      </trkpt>
      <trkpt lat="47.19694" lon="-1.69999">
        <ele>-7.6</ele>
        <time>2022-04-02T16:28:53Z</time>
      </trkpt>
      <trkpt lat="47.19694" lon="-1.70005">
        <ele>-7.8</ele>
        <time>2022-04-02T16:28:54Z</time>
      </trkpt>
      <trkpt lat="47.19695" lon="-1.70027">
        <ele>-8.8</ele>
        <time>2022-04-02T16:28:58Z</time>
      </trkpt>
      <trkpt lat="47.19693" lon="-1.70041">
        <ele>-9.4</ele>
        <time>2022-04-02T16:29:00Z</time>
      </trkpt>
      <trkpt lat="47.19688" lon="-1.70076">
        <ele>-11.2</ele>
        <time>2022-04-02T16:29:06Z</time>
      </trkpt>
      <trkpt lat="47.19687" lon="-1.701">
        <ele>-12.8</ele>
        <time>2022-04-02T16:29:10Z</time>
      </trkpt>
      <trkpt lat="47.19685" lon="-1.70107">
        <ele>-13.2</ele>
        <time>2022-04-02T16:29:11Z</time>
      </trkpt>
      <trkpt lat="47.19678" lon="-1.70138">
        <ele>-14.8</ele>
        <time>2022-04-02T16:29:16Z</time>
      </trkpt>
      <trkpt lat="47.19678" lon="-1.70165">
        <ele>-17</ele>
        <time>2022-04-02T16:29:21Z</time>
      </trkpt>
      <trkpt lat="47.19685" lon="-1.70179">
        <ele>-19</ele>
        <time>2022-04-02T16:29:25Z</time>
      </trkpt>
      <trkpt lat="47.19693" lon="-1.70196">
        <ele>-21.2</ele>
        <time>2022-04-02T16:29:29Z</time>
      </trkpt>
      <trkpt lat="47.19691" lon="-1.70216">
        <ele>-24</ele>
        <time>2022-04-02T16:29:33Z</time>
      </trkpt>
      <trkpt lat="47.19697" lon="-1.70242">
        <ele>-28.4</ele>
        <time>2022-04-02T16:29:38Z</time>
      </trkpt>
      <trkpt lat="47.19702" lon="-1.7026">
        <ele>-32</ele>
        <time>2022-04-02T16:29:42Z</time>
      </trkpt>
      <trkpt lat="47.19709" lon="-1.70276">
        <ele>-36.4</ele>
        <time>2022-04-02T16:29:46Z</time>
      </trkpt>
      <trkpt lat="47.19712" lon="-1.7028">
        <ele>-37.4</ele>
        <time>2022-04-02T16:29:47Z</time>
      </trkpt>
      <trkpt lat="47.19713" lon="-1.70285">
        <ele>-38.6</ele>
        <time>2022-04-02T16:29:48Z</time>
      </trkpt>
      <trkpt lat="47.19716" lon="-1.70296">
        <ele>-40.6</ele>
        <time>2022-04-02T16:29:50Z</time>
      </trkpt>
      <trkpt lat="47.19726" lon="-1.70323">
        <ele>-46</ele>
        <time>2022-04-02T16:29:55Z</time>
      </trkpt>
      <trkpt lat="47.19735" lon="-1.70347">
        <ele>-52.8</ele>
        <time>2022-04-02T16:30:00Z</time>
      </trkpt>
      <trkpt lat="47.19736" lon="-1.70352">
        <ele>-54.2</ele>
        <time>2022-04-02T16:30:01Z</time>
      </trkpt>
      <trkpt lat="47.19738" lon="-1.70362">
        <ele>-57</ele>
        <time>2022-04-02T16:30:03Z</time>
      </trkpt>
      <trkpt lat="47.19739" lon="-1.70366">
        <ele>-58.4</ele>
        <time>2022-04-02T16:30:04Z</time>
      </trkpt>
      <trkpt lat="47.19739" lon="-1.70377">
        <ele>-61.6</ele>
        <time>2022-04-02T16:30:06Z</time>
      </trkpt>
      <trkpt lat="47.19738" lon="-1.70381">
        <ele>-63</ele>
        <time>2022-04-02T16:30:07Z</time>
      </trkpt>
      <trkpt lat="47.19737" lon="-1.70394">
        <ele>-65.6</ele>
        <time>2022-04-02T16:30:09Z</time>
      </trkpt>
      <trkpt lat="47.19744" lon="-1.70414">
        <ele>-71</ele>
        <time>2022-04-02T16:30:13Z</time>
      </trkpt>
      <trkpt lat="47.19752" lon="-1.70439">
        <ele>-77.6</ele>
        <time>2022-04-02T16:30:18Z</time>
      </trkpt>
      <trkpt lat="47.19754" lon="-1.70451">
        <ele>-80.6</ele>
        <time>2022-04-02T16:30:20Z</time>
      </trkpt>
      <trkpt lat="47.19757" lon="-1.70464">
        <ele>-83.6</ele>
        <time>2022-04-02T16:30:22Z</time>
      </trkpt>
      <trkpt lat="47.19762" lon="-1.70493">
        <ele>-91.2</ele>
        <time>2022-04-02T16:30:27Z</time>
      </trkpt>
      <trkpt lat="47.19768" lon="-1.70519">
        <ele>-98.8</ele>
        <time>2022-04-02T16:30:32Z</time>
      </trkpt>
      <trkpt lat="47.19773" lon="-1.70542">
        <ele>-106.2</ele>
        <time>2022-04-02T16:30:37Z</time>
      </trkpt>
      <trkpt lat="47.19777" lon="-1.70587">
        <ele>-114.4</ele>
        <time>2022-04-02T16:30:44Z</time>
      </trkpt>
      <trkpt lat="47.19787" lon="-1.70621">
        <ele>-121.2</ele>
        <time>2022-04-02T16:30:50Z</time>
      </trkpt>
      <trkpt lat="47.19789" lon="-1.70646">
        <ele>-126</ele>
        <time>2022-04-02T16:30:54Z</time>
      </trkpt>
      <trkpt lat="47.19788" lon="-1.7068">
        <ele>-130</ele>
        <time>2022-04-02T16:30:59Z</time>
      </trkpt>
      <trkpt lat="47.19788" lon="-1.70686">
        <ele>-130.8</ele>
        <time>2022-04-02T16:31:00Z</time>
      </trkpt>
      <trkpt lat="47.19788" lon="-1.70692">
        <ele>-131.4</ele>
        <time>2022-04-02T16:31:01Z</time>
      </trkpt>
      <trkpt lat="47.19788" lon="-1.70705">
        <ele>-132.4</ele>
        <time>2022-04-02T16:31:03Z</time>
      </trkpt>
      <trkpt lat="47.19789" lon="-1.70711">
        <ele>-132.6</ele>
        <time>2022-04-02T16:31:04Z</time>
      </trkpt>
      <trkpt lat="47.19791" lon="-1.70721">
        <ele>-133</ele>
        <time>2022-04-02T16:31:06Z</time>
      </trkpt>
      <trkpt lat="47.19792" lon="-1.70733">
        <ele>-133</ele>
        <time>2022-04-02T16:31:08Z</time>
      </trkpt>
      <trkpt lat="47.19794" lon="-1.70753">
        <ele>-130.4</ele>
        <time>2022-04-02T16:31:13Z</time>
      </trkpt>
      <trkpt lat="47.19795" lon="-1.70755">
        <ele>-129.8</ele>
        <time>2022-04-02T16:31:14Z</time>
      </trkpt>
      <trkpt lat="47.19796" lon="-1.70763">
        <ele>-138.2</ele>
        <time>2022-04-02T16:31:16Z</time>
      </trkpt>
      <trkpt lat="47.19797" lon="-1.70777">
        <ele>-132</ele>
        <time>2022-04-02T16:31:20Z</time>
      </trkpt>
      <trkpt lat="47.19794" lon="-1.70801">
        <ele>-128.8</ele>
        <time>2022-04-02T16:31:26Z</time>
      </trkpt>
      <trkpt lat="47.19783" lon="-1.70825">
        <ele>-126.6</ele>
        <time>2022-04-02T16:31:32Z</time>
      </trkpt>
      <trkpt lat="47.19771" lon="-1.70846">
        <ele>-124.2</ele>
        <time>2022-04-02T16:31:37Z</time>
      </trkpt>
      <trkpt lat="47.19763" lon="-1.70865">
        <ele>-121.4</ele>
        <time>2022-04-02T16:31:42Z</time>
      </trkpt>
      <trkpt lat="47.1976" lon="-1.70872">
        <ele>-120.2</ele>
        <time>2022-04-02T16:31:44Z</time>
      </trkpt>
      <trkpt lat="47.19752" lon="-1.70885">
        <ele>-117.6</ele>
        <time>2022-04-02T16:31:49Z</time>
      </trkpt>
      <trkpt lat="47.19751" lon="-1.70887">
        <ele>-117</ele>
        <time>2022-04-02T16:31:50Z</time>
      </trkpt>
      <trkpt lat="47.19747" lon="-1.70913">
        <ele>-114.2</ele>
        <time>2022-04-02T16:31:54Z</time>
      </trkpt>
      <trkpt lat="47.19727" lon="-1.70943">
        <ele>-109.2</ele>
        <time>2022-04-02T16:31:59Z</time>
      </trkpt>
      <trkpt lat="47.19712" lon="-1.70946">
        <ele>-98.2</ele>
        <time>2022-04-02T16:32:07Z</time>
      </trkpt>
      <trkpt lat="47.19705" lon="-1.70947">
        <ele>-92.8</ele>
        <time>2022-04-02T16:32:11Z</time>
      </trkpt>
      <trkpt lat="47.19701" lon="-1.70945">
        <ele>-90.6</ele>
        <time>2022-04-02T16:32:13Z</time>
      </trkpt>
      <trkpt lat="47.19698" lon="-1.70946">
        <ele>-88.4</ele>
        <time>2022-04-02T16:32:15Z</time>
      </trkpt>
      <trkpt lat="47.19696" lon="-1.70948">
        <ele>-86.4</ele>
        <time>2022-04-02T16:32:17Z</time>
      </trkpt>
      <trkpt lat="47.1969" lon="-1.70952">
        <ele>-82.2</ele>
        <time>2022-04-02T16:32:21Z</time>
      </trkpt>
      <trkpt lat="47.19688" lon="-1.70952">
        <ele>-81.2</ele>
        <time>2022-04-02T16:32:22Z</time>
      </trkpt>
      <trkpt lat="47.19679" lon="-1.70958">
        <ele>-75.8</ele>
        <time>2022-04-02T16:32:27Z</time>
      </trkpt>
      <trkpt lat="47.19672" lon="-1.70961">
        <ele>-72.4</ele>
        <time>2022-04-02T16:32:30Z</time>
      </trkpt>
      <trkpt lat="47.19668" lon="-1.70964">
        <ele>-70.2</ele>
        <time>2022-04-02T16:32:32Z</time>
      </trkpt>
      <trkpt lat="47.19659" lon="-1.70972">
        <ele>-65</ele>
        <time>2022-04-02T16:32:37Z</time>
      </trkpt>
      <trkpt lat="47.19647" lon="-1.70982">
        <ele>-59.2</ele>
        <time>2022-04-02T16:32:43Z</time>
      </trkpt>
      <trkpt lat="47.19634" lon="-1.70986">
        <ele>-52.6</ele>
        <time>2022-04-02T16:32:50Z</time>
      </trkpt>
      <trkpt lat="47.19622" lon="-1.70994">
        <ele>-47.4</ele>
        <time>2022-04-02T16:32:56Z</time>
      </trkpt>
      <trkpt lat="47.19611" lon="-1.71003">
        <ele>-42.4</ele>
        <time>2022-04-02T16:33:02Z</time>
      </trkpt>
      <trkpt lat="47.19601" lon="-1.71009">
        <ele>-38.8</ele>
        <time>2022-04-02T16:33:07Z</time>
      </trkpt>
      <trkpt lat="47.19588" lon="-1.71016">
        <ele>-34.6</ele>
        <time>2022-04-02T16:33:13Z</time>
      </trkpt>
      <trkpt lat="47.19574" lon="-1.71022">
        <ele>-31</ele>
        <time>2022-04-02T16:33:19Z</time>
      </trkpt>
      <trkpt lat="47.19571" lon="-1.71023">
        <ele>-29.8</ele>
        <time>2022-04-02T16:33:21Z</time>
      </trkpt>
      <trkpt lat="47.19566" lon="-1.71024">
        <ele>-28.4</ele>
        <time>2022-04-02T16:33:24Z</time>
      </trkpt>
      <trkpt lat="47.19562" lon="-1.71025">
        <ele>-26.8</ele>
        <time>2022-04-02T16:33:27Z</time>
      </trkpt>
      <trkpt lat="47.19559" lon="-1.71028">
        <ele>-25.4</ele>
        <time>2022-04-02T16:33:30Z</time>
      </trkpt>
      <trkpt lat="47.19549" lon="-1.71032">
        <ele>-22.4</ele>
        <time>2022-04-02T16:33:37Z</time>
      </trkpt>
      <trkpt lat="47.19547" lon="-1.71033">
        <ele>-22</ele>
        <time>2022-04-02T16:33:38Z</time>
      </trkpt>
      <trkpt lat="47.19537" lon="-1.71039">
        <ele>-19.6</ele>
        <time>2022-04-02T16:33:43Z</time>
      </trkpt>
      <trkpt lat="47.19521" lon="-1.71047">
        <ele>-17.4</ele>
        <time>2022-04-02T16:33:48Z</time>
      </trkpt>
      <trkpt lat="47.19512" lon="-1.71053">
        <ele>-16.6</ele>
        <time>2022-04-02T16:33:50Z</time>
      </trkpt>
      <trkpt lat="47.19503" lon="-1.71063">
        <ele>-15.8</ele>
        <time>2022-04-02T16:33:52Z</time>
      </trkpt>
      <trkpt lat="47.19492" lon="-1.71085">
        <ele>-14.4</ele>
        <time>2022-04-02T16:33:55Z</time>
      </trkpt>
      <trkpt lat="47.1949" lon="-1.71093">
        <ele>-14.2</ele>
        <time>2022-04-02T16:33:56Z</time>
      </trkpt>
      <trkpt lat="47.19488" lon="-1.71103">
        <ele>-13.8</ele>
        <time>2022-04-02T16:33:57Z</time>
      </trkpt>
      <trkpt lat="47.19484" lon="-1.71134">
        <ele>-12.6</ele>
        <time>2022-04-02T16:34:00Z</time>
      </trkpt>
      <trkpt lat="47.19483" lon="-1.71145">
        <ele>-12.2</ele>
        <time>2022-04-02T16:34:01Z</time>
      </trkpt>
      <trkpt lat="47.19484" lon="-1.71168">
        <ele>-11.6</ele>
        <time>2022-04-02T16:34:03Z</time>
      </trkpt>
      <trkpt lat="47.19489" lon="-1.71191">
        <ele>-11</ele>
        <time>2022-04-02T16:34:05Z</time>
      </trkpt>
      <trkpt lat="47.19511" lon="-1.71257">
        <ele>-9.4</ele>
        <time>2022-04-02T16:34:11Z</time>
      </trkpt>
      <trkpt lat="47.19515" lon="-1.71266">
        <ele>-9.2</ele>
        <time>2022-04-02T16:34:12Z</time>
      </trkpt>
      <trkpt lat="47.1953" lon="-1.71289">
        <ele>-8.2</ele>
        <time>2022-04-02T16:34:15Z</time>
      </trkpt>
      <trkpt lat="47.19557" lon="-1.71328">
        <ele>-6.4</ele>
        <time>2022-04-02T16:34:21Z</time>
      </trkpt>
      <trkpt lat="47.19562" lon="-1.71333">
        <ele>-6</ele>
        <time>2022-04-02T16:34:22Z</time>
      </trkpt>
      <trkpt lat="47.19573" lon="-1.71347">
        <ele>-5.2</ele>
        <time>2022-04-02T16:34:25Z</time>
      </trkpt>
      <trkpt lat="47.19592" lon="-1.71369">
        <ele>-3.6</ele>
        <time>2022-04-02T16:34:31Z</time>
      </trkpt>
      <trkpt lat="47.19597" lon="-1.71383">
        <ele>-2.8</ele>
        <time>2022-04-02T16:34:34Z</time>
      </trkpt>
      <trkpt lat="47.19595" lon="-1.71389">
        <ele>-2.6</ele>
        <time>2022-04-02T16:34:35Z</time>
      </trkpt>
      <trkpt lat="47.19591" lon="-1.71394">
        <ele>-2.4</ele>
        <time>2022-04-02T16:34:36Z</time>
      </trkpt>
      <trkpt lat="47.19581" lon="-1.714">
        <ele>-2</ele>
        <time>2022-04-02T16:34:38Z</time>
      </trkpt>
      <trkpt lat="47.19548" lon="-1.71416">
        <ele>-1.4</ele>
        <time>2022-04-02T16:34:43Z</time>
      </trkpt>
      <trkpt lat="47.19514" lon="-1.71431">
        <ele>-0.80000000000001</ele>
        <time>2022-04-02T16:34:48Z</time>
      </trkpt>
      <trkpt lat="47.19511" lon="-1.71437">
        <ele>-0.60000000000002</ele>
        <time>2022-04-02T16:34:49Z</time>
      </trkpt>
      <trkpt lat="47.19509" lon="-1.71444">
        <ele>-0.39999999999998</ele>
        <time>2022-04-02T16:34:50Z</time>
      </trkpt>
      <trkpt lat="47.19512" lon="-1.71459">
        <ele>-0.19999999999999</ele>
        <time>2022-04-02T16:34:52Z</time>
      </trkpt>
      <trkpt lat="47.19525" lon="-1.71509">
        <ele>0.80000000000001</ele>
        <time>2022-04-02T16:34:58Z</time>
      </trkpt>
      <trkpt lat="47.19545" lon="-1.71589">
        <ele>1.2</ele>
        <time>2022-04-02T16:35:07Z</time>
      </trkpt>
      <trkpt lat="47.19562" lon="-1.71667">
        <ele>1.2</ele>
        <time>2022-04-02T16:35:15Z</time>
      </trkpt>
      <trkpt lat="47.19575" lon="-1.71747">
        <ele>1.2</ele>
        <time>2022-04-02T16:35:23Z</time>
      </trkpt>
      <trkpt lat="47.19586" lon="-1.71828">
        <ele>1.4</ele>
        <time>2022-04-02T16:35:31Z</time>
      </trkpt>
      <trkpt lat="47.19588" lon="-1.71838">
        <ele>1.4</ele>
        <time>2022-04-02T16:35:32Z</time>
      </trkpt>
      <trkpt lat="47.19601" lon="-1.71895">
        <ele>1.2</ele>
        <time>2022-04-02T16:35:38Z</time>
      </trkpt>
      <trkpt lat="47.19611" lon="-1.71963">
        <ele>0.80000000000001</ele>
        <time>2022-04-02T16:35:45Z</time>
      </trkpt>
      <trkpt lat="47.19615" lon="-1.71979">
        <ele>0.60000000000002</ele>
        <time>2022-04-02T16:35:47Z</time>
      </trkpt>
      <trkpt lat="47.19619" lon="-1.71982">
        <ele>0.60000000000002</ele>
        <time>2022-04-02T16:35:48Z</time>
      </trkpt>
      <trkpt lat="47.19628" lon="-1.7198">
        <ele>0.60000000000002</ele>
        <time>2022-04-02T16:35:50Z</time>
      </trkpt>
      <trkpt lat="47.19632" lon="-1.71977">
        <ele>0.60000000000002</ele>
        <time>2022-04-02T16:35:51Z</time>
      </trkpt>
      <trkpt lat="47.19649" lon="-1.7196">
        <ele>0.60000000000002</ele>
        <time>2022-04-02T16:35:56Z</time>
      </trkpt>
      <trkpt lat="47.19646" lon="-1.71947">
        <ele>0.60000000000002</ele>
        <time>2022-04-02T16:35:59Z</time>
      </trkpt>
      <trkpt lat="47.19646" lon="-1.71935">
        <ele>0.19999999999999</ele>
        <time>2022-04-02T16:36:02Z</time>
      </trkpt>
      <trkpt lat="47.19647" lon="-1.71933">
        <ele>0.19999999999999</ele>
        <time>2022-04-02T16:36:03Z</time>
      </trkpt>
      <trkpt lat="47.19657" lon="-1.71929">
        <ele>-1.2</ele>
        <time>2022-04-02T16:36:08Z</time>
      </trkpt>
      <trkpt lat="47.19662" lon="-1.71932">
        <ele>-2.2</ele>
        <time>2022-04-02T16:36:12Z</time>
      </trkpt>
      <trkpt lat="47.19665" lon="-1.71934">
        <ele>-2.8</ele>
        <time>2022-04-02T16:36:14Z</time>
      </trkpt>
      <trkpt lat="47.19669" lon="-1.71937">
        <ele>-3.8</ele>
        <time>2022-04-02T16:36:17Z</time>
      </trkpt>
      <trkpt lat="47.19671" lon="-1.71941">
        <ele>-4.4</ele>
        <time>2022-04-02T16:36:19Z</time>
      </trkpt>
      <trkpt lat="47.19675" lon="-1.71945">
        <ele>-4.4</ele>
        <time>2022-04-02T16:36:21Z</time>
      </trkpt>
      <trkpt lat="47.19676" lon="-1.71945">
        <ele>-4.6</ele>
        <time>2022-04-02T16:36:22Z</time>
      </trkpt>
      <trkpt lat="47.19684" lon="-1.71949">
        <ele>-5.2</ele>
        <time>2022-04-02T16:36:26Z</time>
      </trkpt>
      <trkpt lat="47.19686" lon="-1.71951">
        <ele>-5.4</ele>
        <time>2022-04-02T16:36:28Z</time>
      </trkpt>
      <trkpt lat="47.19692" lon="-1.71952">
        <ele>-5.8</ele>
        <time>2022-04-02T16:36:30Z</time>
      </trkpt>
      <trkpt lat="47.19694" lon="-1.71953">
        <ele>-6</ele>
        <time>2022-04-02T16:36:31Z</time>
      </trkpt>
      <trkpt lat="47.19698" lon="-1.71959">
        <ele>-6.6</ele>
        <time>2022-04-02T16:36:34Z</time>
      </trkpt>
      <trkpt lat="47.19701" lon="-1.71961">
        <ele>-7</ele>
        <time>2022-04-02T16:36:35Z</time>
      </trkpt>
      <trkpt lat="47.19705" lon="-1.71961">
        <ele>-7.4</ele>
        <time>2022-04-02T16:36:36Z</time>
      </trkpt>
      <trkpt lat="47.19712" lon="-1.71962">
        <ele>-8</ele>
        <time>2022-04-02T16:36:38Z</time>
      </trkpt>
      <trkpt lat="47.19715" lon="-1.71963">
        <ele>-8.2</ele>
        <time>2022-04-02T16:36:39Z</time>
      </trkpt>
      <trkpt lat="47.19725" lon="-1.71965">
        <ele>-9</ele>
        <time>2022-04-02T16:36:42Z</time>
      </trkpt>
      <trkpt lat="47.1973" lon="-1.71968">
        <ele>-9.6</ele>
        <time>2022-04-02T16:36:44Z</time>
      </trkpt>
      <trkpt lat="47.19736" lon="-1.7197">
        <ele>-9.8</ele>
        <time>2022-04-02T16:36:46Z</time>
      </trkpt>
      <trkpt lat="47.19741" lon="-1.71973">
        <ele>-9.6</ele>
        <time>2022-04-02T16:36:49Z</time>
      </trkpt>
      <trkpt lat="47.19747" lon="-1.71976">
        <ele>-9.8</ele>
        <time>2022-04-02T16:36:51Z</time>
      </trkpt>
      <trkpt lat="47.19753" lon="-1.71981">
        <ele>-9.8</ele>
        <time>2022-04-02T16:36:53Z</time>
      </trkpt>
      <trkpt lat="47.19763" lon="-1.7199">
        <ele>-9.4</ele>
        <time>2022-04-02T16:36:57Z</time>
      </trkpt>
      <trkpt lat="47.19775" lon="-1.71999">
        <ele>-9.2</ele>
        <time>2022-04-02T16:37:01Z</time>
      </trkpt>
      <trkpt lat="47.19787" lon="-1.72019">
        <ele>-9.4</ele>
        <time>2022-04-02T16:37:07Z</time>
      </trkpt>
      <trkpt lat="47.19798" lon="-1.72031">
        <ele>-9.8</ele>
        <time>2022-04-02T16:37:11Z</time>
      </trkpt>
      <trkpt lat="47.19799" lon="-1.72033">
        <ele>-10</ele>
        <time>2022-04-02T16:37:12Z</time>
      </trkpt>
      <trkpt lat="47.19803" lon="-1.72042">
        <ele>-10.6</ele>
        <time>2022-04-02T16:37:14Z</time>
      </trkpt>
      <trkpt lat="47.19809" lon="-1.72053">
        <ele>-11.2</ele>
        <time>2022-04-02T16:37:16Z</time>
      </trkpt>
      <trkpt lat="47.19813" lon="-1.72066">
        <ele>-11.6</ele>
        <time>2022-04-02T16:37:18Z</time>
      </trkpt>
      <trkpt lat="47.19815" lon="-1.72073">
        <ele>-11.6</ele>
        <time>2022-04-02T16:37:19Z</time>
      </trkpt>
      <trkpt lat="47.19823" lon="-1.72108">
        <ele>-11</ele>
        <time>2022-04-02T16:37:25Z</time>
      </trkpt>
      <trkpt lat="47.19829" lon="-1.72126">
        <ele>-10.8</ele>
        <time>2022-04-02T16:37:29Z</time>
      </trkpt>
      <trkpt lat="47.19834" lon="-1.72158">
        <ele>-10.8</ele>
        <time>2022-04-02T16:37:36Z</time>
      </trkpt>
      <trkpt lat="47.19838" lon="-1.72159">
        <ele>-10.4</ele>
        <time>2022-04-02T16:37:39Z</time>
      </trkpt>
      <trkpt lat="47.19837" lon="-1.72158">
        <ele>-10.2</ele>
        <time>2022-04-02T16:37:40Z</time>
      </trkpt>
      <trkpt lat="47.19833" lon="-1.72153">
        <ele>-9.8</ele>
        <time>2022-04-02T16:37:43Z</time>
      </trkpt>
      <trkpt lat="47.19832" lon="-1.72139">
        <ele>-9.2</ele>
        <time>2022-04-02T16:37:48Z</time>
      </trkpt>
      <trkpt lat="47.19832" lon="-1.72133">
        <ele>-9</ele>
        <time>2022-04-02T16:37:50Z</time>
      </trkpt>
      <trkpt lat="47.19837" lon="-1.72115">
        <ele>-8</ele>
        <time>2022-04-02T16:37:56Z</time>
      </trkpt>
      <trkpt lat="47.19841" lon="-1.72116">
        <ele>-7.4</ele>
        <time>2022-04-02T16:37:59Z</time>
      </trkpt>
      <trkpt lat="47.19854" lon="-1.7213">
        <ele>-6</ele>
        <time>2022-04-02T16:38:07Z</time>
      </trkpt>
      <trkpt lat="47.19866" lon="-1.7214">
        <ele>-5</ele>
        <time>2022-04-02T16:38:14Z</time>
      </trkpt>
      <trkpt lat="47.19871" lon="-1.72152">
        <ele>-4.8</ele>
        <time>2022-04-02T16:38:18Z</time>
      </trkpt>
      <trkpt lat="47.19875" lon="-1.72157">
        <ele>-4.6</ele>
        <time>2022-04-02T16:38:19Z</time>
      </trkpt>
      <trkpt lat="47.19882" lon="-1.72164">
        <ele>-4.6</ele>
        <time>2022-04-02T16:38:21Z</time>
      </trkpt>
      <trkpt lat="47.19887" lon="-1.7217">
        <ele>-4.6</ele>
        <time>2022-04-02T16:38:23Z</time>
      </trkpt>
      <trkpt lat="47.19888" lon="-1.72179">
        <ele>-4.4</ele>
        <time>2022-04-02T16:38:25Z</time>
      </trkpt>
      <trkpt lat="47.19891" lon="-1.72184">
        <ele>-4.6</ele>
        <time>2022-04-02T16:38:26Z</time>
      </trkpt>
      <trkpt lat="47.19894" lon="-1.72188">
        <ele>-4.6</ele>
        <time>2022-04-02T16:38:27Z</time>
      </trkpt>
      <trkpt lat="47.19902" lon="-1.72207">
        <ele>-4.8</ele>
        <time>2022-04-02T16:38:31Z</time>
      </trkpt>
      <trkpt lat="47.19905" lon="-1.72223">
        <ele>-4.8</ele>
        <time>2022-04-02T16:38:34Z</time>
      </trkpt>
      <trkpt lat="47.19917" lon="-1.72236">
        <ele>-4.2</ele>
        <time>2022-04-02T16:38:37Z</time>
      </trkpt>
      <trkpt lat="47.1993" lon="-1.72249">
        <ele>-5</ele>
        <time>2022-04-02T16:38:40Z</time>
      </trkpt>
      <trkpt lat="47.19932" lon="-1.72255">
        <ele>-5.4</ele>
        <time>2022-04-02T16:38:41Z</time>
      </trkpt>
      <trkpt lat="47.19933" lon="-1.72261">
        <ele>-5.2</ele>
        <time>2022-04-02T16:38:42Z</time>
      </trkpt>
      <trkpt lat="47.19934" lon="-1.72281">
        <ele>-5.4</ele>
        <time>2022-04-02T16:38:45Z</time>
      </trkpt>
      <trkpt lat="47.19934" lon="-1.72288">
        <ele>-5.4</ele>
        <time>2022-04-02T16:38:46Z</time>
      </trkpt>
      <trkpt lat="47.19937" lon="-1.72305">
        <ele>-5.6</ele>
        <time>2022-04-02T16:38:49Z</time>
      </trkpt>
      <trkpt lat="47.19939" lon="-1.72315">
        <ele>-5.6</ele>
        <time>2022-04-02T16:38:51Z</time>
      </trkpt>
      <trkpt lat="47.19941" lon="-1.72325">
        <ele>-5.8</ele>
        <time>2022-04-02T16:38:53Z</time>
      </trkpt>
      <trkpt lat="47.19946" lon="-1.72342">
        <ele>-6</ele>
        <time>2022-04-02T16:38:56Z</time>
      </trkpt>
      <trkpt lat="47.19959" lon="-1.72358">
        <ele>-5.6</ele>
        <time>2022-04-02T16:39:00Z</time>
      </trkpt>
      <trkpt lat="47.19966" lon="-1.72364">
        <ele>-5.6</ele>
        <time>2022-04-02T16:39:02Z</time>
      </trkpt>
      <trkpt lat="47.1997" lon="-1.72374">
        <ele>-5</ele>
        <time>2022-04-02T16:39:04Z</time>
      </trkpt>
      <trkpt lat="47.19972" lon="-1.72387">
        <ele>-4.4</ele>
        <time>2022-04-02T16:39:06Z</time>
      </trkpt>
      <trkpt lat="47.19971" lon="-1.72401">
        <ele>-5</ele>
        <time>2022-04-02T16:39:08Z</time>
      </trkpt>
      <trkpt lat="47.19968" lon="-1.72414">
        <ele>-5</ele>
        <time>2022-04-02T16:39:10Z</time>
      </trkpt>
      <trkpt lat="47.19964" lon="-1.72427">
        <ele>-4.8</ele>
        <time>2022-04-02T16:39:12Z</time>
      </trkpt>
      <trkpt lat="47.19962" lon="-1.72432">
        <ele>-4.8</ele>
        <time>2022-04-02T16:39:13Z</time>
      </trkpt>
      <trkpt lat="47.19948" lon="-1.72447">
        <ele>-4.6</ele>
        <time>2022-04-02T16:39:17Z</time>
      </trkpt>
      <trkpt lat="47.19944" lon="-1.72448">
        <ele>-4.6</ele>
        <time>2022-04-02T16:39:18Z</time>
      </trkpt>
      <trkpt lat="47.19917" lon="-1.72452">
        <ele>-4.2</ele>
        <time>2022-04-02T16:39:24Z</time>
      </trkpt>
      <trkpt lat="47.19893" lon="-1.72454">
        <ele>-4</ele>
        <time>2022-04-02T16:39:29Z</time>
      </trkpt>
      <trkpt lat="47.19889" lon="-1.72456">
        <ele>-3.8</ele>
        <time>2022-04-02T16:39:30Z</time>
      </trkpt>
      <trkpt lat="47.19886" lon="-1.72461">
        <ele>-3.8</ele>
        <time>2022-04-02T16:39:31Z</time>
      </trkpt>
      <trkpt lat="47.19885" lon="-1.72467">
        <ele>-3.8</ele>
        <time>2022-04-02T16:39:32Z</time>
      </trkpt>
      <trkpt lat="47.19889" lon="-1.72477">
        <ele>-3.6</ele>
        <time>2022-04-02T16:39:34Z</time>
      </trkpt>
      <trkpt lat="47.19903" lon="-1.72494">
        <ele>-3.8</ele>
        <time>2022-04-02T16:39:38Z</time>
      </trkpt>
      <trkpt lat="47.1991" lon="-1.72503">
        <ele>-3.8</ele>
        <time>2022-04-02T16:39:40Z</time>
      </trkpt>
      <trkpt lat="47.19915" lon="-1.72519">
        <ele>-3.8</ele>
        <time>2022-04-02T16:39:43Z</time>
      </trkpt>
      <trkpt lat="47.19923" lon="-1.72538">
        <ele>-3.8</ele>
        <time>2022-04-02T16:39:47Z</time>
      </trkpt>
      <trkpt lat="47.19932" lon="-1.72557">
        <ele>-3.6</ele>
        <time>2022-04-02T16:39:51Z</time>
      </trkpt>
      <trkpt lat="47.19946" lon="-1.72591">
        <ele>-3</ele>
        <time>2022-04-02T16:39:58Z</time>
      </trkpt>
      <trkpt lat="47.19958" lon="-1.72618">
        <ele>-3</ele>
        <time>2022-04-02T16:40:04Z</time>
      </trkpt>
      <trkpt lat="47.19963" lon="-1.72636">
        <ele>-3.2</ele>
        <time>2022-04-02T16:40:08Z</time>
      </trkpt>
      <trkpt lat="47.1997" lon="-1.72666">
        <ele>-3.2</ele>
        <time>2022-04-02T16:40:13Z</time>
      </trkpt>
      <trkpt lat="47.19974" lon="-1.72696">
        <ele>-3</ele>
        <time>2022-04-02T16:40:18Z</time>
      </trkpt>
      <trkpt lat="47.19978" lon="-1.72727">
        <ele>-3.6</ele>
        <time>2022-04-02T16:40:23Z</time>
      </trkpt>
      <trkpt lat="47.19981" lon="-1.7275">
        <ele>-3.8</ele>
        <time>2022-04-02T16:40:27Z</time>
      </trkpt>
      <trkpt lat="47.19981" lon="-1.72756">
        <ele>-3.8</ele>
        <time>2022-04-02T16:40:28Z</time>
      </trkpt>
      <trkpt lat="47.19984" lon="-1.72761">
        <ele>-4</ele>
        <time>2022-04-02T16:40:29Z</time>
      </trkpt>
      <trkpt lat="47.19987" lon="-1.72765">
        <ele>-4</ele>
        <time>2022-04-02T16:40:30Z</time>
      </trkpt>
      <trkpt lat="47.19988" lon="-1.72771">
        <ele>-4</ele>
        <time>2022-04-02T16:40:31Z</time>
      </trkpt>
      <trkpt lat="47.19995" lon="-1.72792">
        <ele>-4</ele>
        <time>2022-04-02T16:40:34Z</time>
      </trkpt>
      <trkpt lat="47.20003" lon="-1.72824">
        <ele>-4.2</ele>
        <time>2022-04-02T16:40:39Z</time>
      </trkpt>
      <trkpt lat="47.20009" lon="-1.72852">
        <ele>-3.2</ele>
        <time>2022-04-02T16:40:43Z</time>
      </trkpt>
      <trkpt lat="47.20011" lon="-1.72858">
        <ele>-3.2</ele>
        <time>2022-04-02T16:40:44Z</time>
      </trkpt>
      <trkpt lat="47.20012" lon="-1.72864">
        <ele>-3.2</ele>
        <time>2022-04-02T16:40:45Z</time>
      </trkpt>
      <trkpt lat="47.20017" lon="-1.72882">
        <ele>-3.2</ele>
        <time>2022-04-02T16:40:48Z</time>
      </trkpt>
      <trkpt lat="47.20022" lon="-1.72913">
        <ele>-3.2</ele>
        <time>2022-04-02T16:40:53Z</time>
      </trkpt>
      <trkpt lat="47.20021" lon="-1.72949">
        <ele>-3</ele>
        <time>2022-04-02T16:40:58Z</time>
      </trkpt>
      <trkpt lat="47.20023" lon="-1.72955">
        <ele>-2.8</ele>
        <time>2022-04-02T16:40:59Z</time>
      </trkpt>
      <trkpt lat="47.20026" lon="-1.7296">
        <ele>-2.8</ele>
        <time>2022-04-02T16:41:00Z</time>
      </trkpt>
      <trkpt lat="47.20034" lon="-1.72968">
        <ele>-2.8</ele>
        <time>2022-04-02T16:41:02Z</time>
      </trkpt>
      <trkpt lat="47.20038" lon="-1.72972">
        <ele>-2.8</ele>
        <time>2022-04-02T16:41:03Z</time>
      </trkpt>
      <trkpt lat="47.20043" lon="-1.72981">
        <ele>-3</ele>
        <time>2022-04-02T16:41:05Z</time>
      </trkpt>
      <trkpt lat="47.20044" lon="-1.72987">
        <ele>-3</ele>
        <time>2022-04-02T16:41:06Z</time>
      </trkpt>
      <trkpt lat="47.2005" lon="-1.73027">
        <ele>-2.8</ele>
        <time>2022-04-02T16:41:12Z</time>
      </trkpt>
      <trkpt lat="47.20052" lon="-1.73047">
        <ele>-3</ele>
        <time>2022-04-02T16:41:15Z</time>
      </trkpt>
      <trkpt lat="47.20052" lon="-1.73069">
        <ele>-3.2</ele>
        <time>2022-04-02T16:41:18Z</time>
      </trkpt>
      <trkpt lat="47.20053" lon="-1.73076">
        <ele>-3</ele>
        <time>2022-04-02T16:41:19Z</time>
      </trkpt>
      <trkpt lat="47.20055" lon="-1.73096">
        <ele>-3</ele>
        <time>2022-04-02T16:41:22Z</time>
      </trkpt>
      <trkpt lat="47.20057" lon="-1.73102">
        <ele>-2.8</ele>
        <time>2022-04-02T16:41:23Z</time>
      </trkpt>
      <trkpt lat="47.20059" lon="-1.73108">
        <ele>-2.8</ele>
        <time>2022-04-02T16:41:24Z</time>
      </trkpt>
      <trkpt lat="47.20061" lon="-1.73121">
        <ele>-2.6</ele>
        <time>2022-04-02T16:41:26Z</time>
      </trkpt>
      <trkpt lat="47.20062" lon="-1.73127">
        <ele>-2.6</ele>
        <time>2022-04-02T16:41:27Z</time>
      </trkpt>
      <trkpt lat="47.20063" lon="-1.7314">
        <ele>-2.4</ele>
        <time>2022-04-02T16:41:29Z</time>
      </trkpt>
      <trkpt lat="47.20065" lon="-1.73152">
        <ele>-2.6</ele>
        <time>2022-04-02T16:41:31Z</time>
      </trkpt>
      <trkpt lat="47.2007" lon="-1.73187">
        <ele>-3.2</ele>
        <time>2022-04-02T16:41:36Z</time>
      </trkpt>
      <trkpt lat="47.20073" lon="-1.73216">
        <ele>-3.2</ele>
        <time>2022-04-02T16:41:40Z</time>
      </trkpt>
      <trkpt lat="47.20071" lon="-1.7323">
        <ele>-3.4</ele>
        <time>2022-04-02T16:41:42Z</time>
      </trkpt>
      <trkpt lat="47.20069" lon="-1.73257">
        <ele>-3.8</ele>
        <time>2022-04-02T16:41:46Z</time>
      </trkpt>
      <trkpt lat="47.20067" lon="-1.73265">
        <ele>-4</ele>
        <time>2022-04-02T16:41:47Z</time>
      </trkpt>
      <trkpt lat="47.20068" lon="-1.73271">
        <ele>-4.2</ele>
        <time>2022-04-02T16:41:48Z</time>
      </trkpt>
      <trkpt lat="47.20069" lon="-1.73284">
        <ele>-4.2</ele>
        <time>2022-04-02T16:41:50Z</time>
      </trkpt>
      <trkpt lat="47.2007" lon="-1.7329">
        <ele>-4.2</ele>
        <time>2022-04-02T16:41:51Z</time>
      </trkpt>
      <trkpt lat="47.20073" lon="-1.73303">
        <ele>-4.4</ele>
        <time>2022-04-02T16:41:53Z</time>
      </trkpt>
      <trkpt lat="47.2007" lon="-1.7333">
        <ele>-4.4</ele>
        <time>2022-04-02T16:41:57Z</time>
      </trkpt>
      <trkpt lat="47.20068" lon="-1.73351">
        <ele>-4</ele>
        <time>2022-04-02T16:42:00Z</time>
      </trkpt>
      <trkpt lat="47.20069" lon="-1.73357">
        <ele>-3.8</ele>
        <time>2022-04-02T16:42:01Z</time>
      </trkpt>
      <trkpt lat="47.20072" lon="-1.73376">
        <ele>-4.2</ele>
        <time>2022-04-02T16:42:04Z</time>
      </trkpt>
      <trkpt lat="47.20073" lon="-1.73382">
        <ele>-4.4</ele>
        <time>2022-04-02T16:42:05Z</time>
      </trkpt>
      <trkpt lat="47.20074" lon="-1.73388">
        <ele>-4.4</ele>
        <time>2022-04-02T16:42:06Z</time>
      </trkpt>
      <trkpt lat="47.20077" lon="-1.73407">
        <ele>-4.2</ele>
        <time>2022-04-02T16:42:09Z</time>
      </trkpt>
      <trkpt lat="47.20077" lon="-1.73413">
        <ele>-4.4</ele>
        <time>2022-04-02T16:42:10Z</time>
      </trkpt>
      <trkpt lat="47.20077" lon="-1.7342">
        <ele>-4.4</ele>
        <time>2022-04-02T16:42:11Z</time>
      </trkpt>
      <trkpt lat="47.20077" lon="-1.73433">
        <ele>-4.8</ele>
        <time>2022-04-02T16:42:13Z</time>
      </trkpt>
      <trkpt lat="47.20079" lon="-1.73439">
        <ele>-5</ele>
        <time>2022-04-02T16:42:14Z</time>
      </trkpt>
      <trkpt lat="47.20079" lon="-1.73445">
        <ele>-5.2</ele>
        <time>2022-04-02T16:42:15Z</time>
      </trkpt>
      <trkpt lat="47.20082" lon="-1.73473">
        <ele>-6</ele>
        <time>2022-04-02T16:42:19Z</time>
      </trkpt>
      <trkpt lat="47.20083" lon="-1.73487">
        <ele>-6.4</ele>
        <time>2022-04-02T16:42:21Z</time>
      </trkpt>
      <trkpt lat="47.20083" lon="-1.73508">
        <ele>-6.4</ele>
        <time>2022-04-02T16:42:24Z</time>
      </trkpt>
      <trkpt lat="47.2008" lon="-1.73526">
        <ele>-6.4</ele>
        <time>2022-04-02T16:42:27Z</time>
      </trkpt>
      <trkpt lat="47.20076" lon="-1.73536">
        <ele>-6</ele>
        <time>2022-04-02T16:42:29Z</time>
      </trkpt>
      <trkpt lat="47.20073" lon="-1.73539">
        <ele>-5.8</ele>
        <time>2022-04-02T16:42:30Z</time>
      </trkpt>
      <trkpt lat="47.20056" lon="-1.73559">
        <ele>-4.2</ele>
        <time>2022-04-02T16:42:37Z</time>
      </trkpt>
      <trkpt lat="47.2005" lon="-1.73567">
        <ele>-3.6</ele>
        <time>2022-04-02T16:42:40Z</time>
      </trkpt>
      <trkpt lat="47.20049" lon="-1.73573">
        <ele>-3.4</ele>
        <time>2022-04-02T16:42:42Z</time>
      </trkpt>
      <trkpt lat="47.20048" lon="-1.73576">
        <ele>-3.2</ele>
        <time>2022-04-02T16:42:43Z</time>
      </trkpt>
      <trkpt lat="47.20048" lon="-1.73589">
        <ele>-3</ele>
        <time>2022-04-02T16:42:46Z</time>
      </trkpt>
      <trkpt lat="47.20051" lon="-1.73619">
        <ele>-2.4</ele>
        <time>2022-04-02T16:42:52Z</time>
      </trkpt>
      <trkpt lat="47.20049" lon="-1.73656">
        <ele>-1.6</ele>
        <time>2022-04-02T16:42:59Z</time>
      </trkpt>
      <trkpt lat="47.20044" lon="-1.73702">
        <ele>-0.80000000000001</ele>
        <time>2022-04-02T16:43:07Z</time>
      </trkpt>
      <trkpt lat="47.20041" lon="-1.73734">
        <ele>-0.80000000000001</ele>
        <time>2022-04-02T16:43:13Z</time>
      </trkpt>
      <trkpt lat="47.20038" lon="-1.73768">
        <ele>0.39999999999998</ele>
        <time>2022-04-02T16:43:20Z</time>
      </trkpt>
      <trkpt lat="47.20034" lon="-1.73794">
        <ele>0.60000000000002</ele>
        <time>2022-04-02T16:43:26Z</time>
      </trkpt>
      <trkpt lat="47.20025" lon="-1.73825">
        <ele>1.4</ele>
        <time>2022-04-02T16:43:33Z</time>
      </trkpt>
      <trkpt lat="47.20012" lon="-1.73854">
        <ele>2.6</ele>
        <time>2022-04-02T16:43:41Z</time>
      </trkpt>
      <trkpt lat="47.2001" lon="-1.73857">
        <ele>2.6</ele>
        <time>2022-04-02T16:43:42Z</time>
      </trkpt>
      <trkpt lat="47.20006" lon="-1.73869">
        <ele>3</ele>
        <time>2022-04-02T16:43:45Z</time>
      </trkpt>
      <trkpt lat="47.20002" lon="-1.73905">
        <ele>3.6</ele>
        <time>2022-04-02T16:43:52Z</time>
      </trkpt>
      <trkpt lat="47.2" lon="-1.73911">
        <ele>3.6</ele>
        <time>2022-04-02T16:43:53Z</time>
      </trkpt>
      <trkpt lat="47.19991" lon="-1.73931">
        <ele>3.8</ele>
        <time>2022-04-02T16:43:57Z</time>
      </trkpt>
      <trkpt lat="47.19977" lon="-1.73953">
        <ele>4.4</ele>
        <time>2022-04-02T16:44:03Z</time>
      </trkpt>
      <trkpt lat="47.1996" lon="-1.73966">
        <ele>5.4</ele>
        <time>2022-04-02T16:44:10Z</time>
      </trkpt>
      <trkpt lat="47.19944" lon="-1.73974">
        <ele>6.4</ele>
        <time>2022-04-02T16:44:16Z</time>
      </trkpt>
      <trkpt lat="47.19924" lon="-1.73981">
        <ele>7.2</ele>
        <time>2022-04-02T16:44:23Z</time>
      </trkpt>
      <trkpt lat="47.19906" lon="-1.73991">
        <ele>8.2</ele>
        <time>2022-04-02T16:44:30Z</time>
      </trkpt>
      <trkpt lat="47.19884" lon="-1.74002">
        <ele>9.2</ele>
        <time>2022-04-02T16:44:38Z</time>
      </trkpt>
      <trkpt lat="47.19862" lon="-1.74015">
        <ele>9.6</ele>
        <time>2022-04-02T16:44:46Z</time>
      </trkpt>
      <trkpt lat="47.19842" lon="-1.74026">
        <ele>10.2</ele>
        <time>2022-04-02T16:44:53Z</time>
      </trkpt>
      <trkpt lat="47.19818" lon="-1.74038">
        <ele>11</ele>
        <time>2022-04-02T16:45:01Z</time>
      </trkpt>
      <trkpt lat="47.19787" lon="-1.74056">
        <ele>11.8</ele>
        <time>2022-04-02T16:45:10Z</time>
      </trkpt>
      <trkpt lat="47.19761" lon="-1.74067">
        <ele>12.2</ele>
        <time>2022-04-02T16:45:16Z</time>
      </trkpt>
      <trkpt lat="47.19751" lon="-1.74072">
        <ele>12.4</ele>
        <time>2022-04-02T16:45:18Z</time>
      </trkpt>
      <trkpt lat="47.19731" lon="-1.74076">
        <ele>12.4</ele>
        <time>2022-04-02T16:45:22Z</time>
      </trkpt>
      <trkpt lat="47.19721" lon="-1.74076">
        <ele>12.4</ele>
        <time>2022-04-02T16:45:24Z</time>
      </trkpt>
      <trkpt lat="47.19706" lon="-1.74074">
        <ele>12.6</ele>
        <time>2022-04-02T16:45:27Z</time>
      </trkpt>
      <trkpt lat="47.19677" lon="-1.74073">
        <ele>12.8</ele>
        <time>2022-04-02T16:45:33Z</time>
      </trkpt>
      <trkpt lat="47.19673" lon="-1.74073">
        <ele>12.8</ele>
        <time>2022-04-02T16:45:34Z</time>
      </trkpt>
      <trkpt lat="47.19663" lon="-1.74074">
        <ele>13</ele>
        <time>2022-04-02T16:45:36Z</time>
      </trkpt>
      <trkpt lat="47.1964" lon="-1.74076">
        <ele>13</ele>
        <time>2022-04-02T16:45:41Z</time>
      </trkpt>
      <trkpt lat="47.19612" lon="-1.74075">
        <ele>13.2</ele>
        <time>2022-04-02T16:45:47Z</time>
      </trkpt>
      <trkpt lat="47.19591" lon="-1.74074">
        <ele>13.6</ele>
        <time>2022-04-02T16:45:52Z</time>
      </trkpt>
      <trkpt lat="47.19587" lon="-1.74072">
        <ele>13.6</ele>
        <time>2022-04-02T16:45:53Z</time>
      </trkpt>
      <trkpt lat="47.19576" lon="-1.74063">
        <ele>13.8</ele>
        <time>2022-04-02T16:45:56Z</time>
      </trkpt>
      <trkpt lat="47.19564" lon="-1.74057">
        <ele>13.8</ele>
        <time>2022-04-02T16:45:59Z</time>
      </trkpt>
      <trkpt lat="47.19558" lon="-1.7406">
        <ele>13.8</ele>
        <time>2022-04-02T16:46:01Z</time>
      </trkpt>
      <trkpt lat="47.19556" lon="-1.74064">
        <ele>13.8</ele>
        <time>2022-04-02T16:46:02Z</time>
      </trkpt>
      <trkpt lat="47.1955" lon="-1.74093">
        <ele>14.2</ele>
        <time>2022-04-02T16:46:08Z</time>
      </trkpt>
      <trkpt lat="47.19542" lon="-1.74123">
        <ele>14.6</ele>
        <time>2022-04-02T16:46:13Z</time>
      </trkpt>
      <trkpt lat="47.19538" lon="-1.74133">
        <ele>14.6</ele>
        <time>2022-04-02T16:46:15Z</time>
      </trkpt>
      <trkpt lat="47.19528" lon="-1.74148">
        <ele>14.8</ele>
        <time>2022-04-02T16:46:18Z</time>
      </trkpt>
      <trkpt lat="47.19517" lon="-1.74164">
        <ele>15</ele>
        <time>2022-04-02T16:46:22Z</time>
      </trkpt>
      <trkpt lat="47.19512" lon="-1.74174">
        <ele>15</ele>
        <time>2022-04-02T16:46:24Z</time>
      </trkpt>
      <trkpt lat="47.19509" lon="-1.7418">
        <ele>15.2</ele>
        <time>2022-04-02T16:46:26Z</time>
      </trkpt>
      <trkpt lat="47.19502" lon="-1.74202">
        <ele>15.2</ele>
        <time>2022-04-02T16:46:30Z</time>
      </trkpt>
      <trkpt lat="47.19498" lon="-1.7423">
        <ele>15.2</ele>
        <time>2022-04-02T16:46:35Z</time>
      </trkpt>
      <trkpt lat="47.19497" lon="-1.74254">
        <ele>15.2</ele>
        <time>2022-04-02T16:46:40Z</time>
      </trkpt>
      <trkpt lat="47.19495" lon="-1.74274">
        <ele>15.2</ele>
        <time>2022-04-02T16:46:44Z</time>
      </trkpt>
      <trkpt lat="47.19496" lon="-1.74284">
        <ele>14.6</ele>
        <time>2022-04-02T16:46:46Z</time>
      </trkpt>
      <trkpt lat="47.19498" lon="-1.74292">
        <ele>14.8</ele>
        <time>2022-04-02T16:46:48Z</time>
      </trkpt>
      <trkpt lat="47.19504" lon="-1.74302">
        <ele>14.6</ele>
        <time>2022-04-02T16:46:51Z</time>
      </trkpt>
      <trkpt lat="47.19504" lon="-1.74308">
        <ele>14.4</ele>
        <time>2022-04-02T16:46:52Z</time>
      </trkpt>
      <trkpt lat="47.19506" lon="-1.74319">
        <ele>14.2</ele>
        <time>2022-04-02T16:46:54Z</time>
      </trkpt>
      <trkpt lat="47.19506" lon="-1.74325">
        <ele>14.2</ele>
        <time>2022-04-02T16:46:55Z</time>
      </trkpt>
      <trkpt lat="47.19509" lon="-1.74364">
        <ele>14</ele>
        <time>2022-04-02T16:47:01Z</time>
      </trkpt>
      <trkpt lat="47.19514" lon="-1.74403">
        <ele>13.4</ele>
        <time>2022-04-02T16:47:07Z</time>
      </trkpt>
      <trkpt lat="47.19524" lon="-1.74442">
        <ele>12.4</ele>
        <time>2022-04-02T16:47:14Z</time>
      </trkpt>
      <trkpt lat="47.19526" lon="-1.74446">
        <ele>12</ele>
        <time>2022-04-02T16:47:15Z</time>
      </trkpt>
      <trkpt lat="47.19528" lon="-1.74457">
        <ele>11.6</ele>
        <time>2022-04-02T16:47:17Z</time>
      </trkpt>
      <trkpt lat="47.19539" lon="-1.74501">
        <ele>10.8</ele>
        <time>2022-04-02T16:47:24Z</time>
      </trkpt>
      <trkpt lat="47.19546" lon="-1.74539">
        <ele>10.8</ele>
        <time>2022-04-02T16:47:30Z</time>
      </trkpt>
      <trkpt lat="47.19547" lon="-1.74546">
        <ele>10.8</ele>
        <time>2022-04-02T16:47:31Z</time>
      </trkpt>
      <trkpt lat="47.19549" lon="-1.7456">
        <ele>10.8</ele>
        <time>2022-04-02T16:47:33Z</time>
      </trkpt>
      <trkpt lat="47.1955" lon="-1.74566">
        <ele>10.8</ele>
        <time>2022-04-02T16:47:34Z</time>
      </trkpt>
      <trkpt lat="47.19551" lon="-1.74573">
        <ele>10.8</ele>
        <time>2022-04-02T16:47:35Z</time>
      </trkpt>
      <trkpt lat="47.19551" lon="-1.7459">
        <ele>10.8</ele>
        <time>2022-04-02T16:47:37Z</time>
      </trkpt>
      <trkpt lat="47.1955" lon="-1.74597">
        <ele>10.8</ele>
        <time>2022-04-02T16:47:38Z</time>
      </trkpt>
      <trkpt lat="47.19548" lon="-1.74604">
        <ele>10.6</ele>
        <time>2022-04-02T16:47:39Z</time>
      </trkpt>
      <trkpt lat="47.19542" lon="-1.74617">
        <ele>10.4</ele>
        <time>2022-04-02T16:47:41Z</time>
      </trkpt>
      <trkpt lat="47.19527" lon="-1.74643">
        <ele>10.2</ele>
        <time>2022-04-02T16:47:45Z</time>
      </trkpt>
      <trkpt lat="47.1952" lon="-1.74653">
        <ele>10.2</ele>
        <time>2022-04-02T16:47:47Z</time>
      </trkpt>
      <trkpt lat="47.19507" lon="-1.74675">
        <ele>10.2</ele>
        <time>2022-04-02T16:47:51Z</time>
      </trkpt>
      <trkpt lat="47.19505" lon="-1.74681">
        <ele>10.2</ele>
        <time>2022-04-02T16:47:52Z</time>
      </trkpt>
      <trkpt lat="47.19503" lon="-1.7471">
        <ele>10.4</ele>
        <time>2022-04-02T16:47:56Z</time>
      </trkpt>
      <trkpt lat="47.19504" lon="-1.74744">
        <ele>10</ele>
        <time>2022-04-02T16:48:00Z</time>
      </trkpt>
      <trkpt lat="47.19507" lon="-1.74774">
        <ele>10</ele>
        <time>2022-04-02T16:48:04Z</time>
      </trkpt>
      <trkpt lat="47.19506" lon="-1.7478">
        <ele>10</ele>
        <time>2022-04-02T16:48:05Z</time>
      </trkpt>
      <trkpt lat="47.19503" lon="-1.74788">
        <ele>9.8</ele>
        <time>2022-04-02T16:48:07Z</time>
      </trkpt>
      <trkpt lat="47.19497" lon="-1.74793">
        <ele>9.8</ele>
        <time>2022-04-02T16:48:11Z</time>
      </trkpt>
      <trkpt lat="47.19492" lon="-1.74789">
        <ele>9.2</ele>
        <time>2022-04-02T16:48:48Z</time>
      </trkpt>
      <trkpt lat="47.19482" lon="-1.74782">
        <ele>9.2</ele>
        <time>2022-04-02T16:48:51Z</time>
      </trkpt>
      <trkpt lat="47.19478" lon="-1.74781">
        <ele>9.2</ele>
        <time>2022-04-02T16:48:52Z</time>
      </trkpt>
      <trkpt lat="47.19473" lon="-1.74781">
        <ele>9.2</ele>
        <time>2022-04-02T16:48:53Z</time>
      </trkpt>
      <trkpt lat="47.19463" lon="-1.74783">
        <ele>9.2</ele>
        <time>2022-04-02T16:48:55Z</time>
      </trkpt>
      <trkpt lat="47.19458" lon="-1.74786">
        <ele>9.4</ele>
        <time>2022-04-02T16:48:56Z</time>
      </trkpt>
      <trkpt lat="47.19453" lon="-1.74789">
        <ele>9.4</ele>
        <time>2022-04-02T16:48:57Z</time>
      </trkpt>
      <trkpt lat="47.19446" lon="-1.74799">
        <ele>9.6</ele>
        <time>2022-04-02T16:48:59Z</time>
      </trkpt>
      <trkpt lat="47.19432" lon="-1.74847">
        <ele>10</ele>
        <time>2022-04-02T16:49:06Z</time>
      </trkpt>
      <trkpt lat="47.19418" lon="-1.74904">
        <ele>10.4</ele>
        <time>2022-04-02T16:49:14Z</time>
      </trkpt>
      <trkpt lat="47.19399" lon="-1.7497">
        <ele>11</ele>
        <time>2022-04-02T16:49:24Z</time>
      </trkpt>
      <trkpt lat="47.19381" lon="-1.75025">
        <ele>11.6</ele>
        <time>2022-04-02T16:49:33Z</time>
      </trkpt>
      <trkpt lat="47.19371" lon="-1.75056">
        <ele>11.8</ele>
        <time>2022-04-02T16:49:38Z</time>
      </trkpt>
      <trkpt lat="47.19365" lon="-1.75074">
        <ele>12</ele>
        <time>2022-04-02T16:49:41Z</time>
      </trkpt>
      <trkpt lat="47.19342" lon="-1.75142">
        <ele>12.8</ele>
        <time>2022-04-02T16:49:52Z</time>
      </trkpt>
      <trkpt lat="47.19332" lon="-1.75189">
        <ele>13.2</ele>
        <time>2022-04-02T16:49:59Z</time>
      </trkpt>
      <trkpt lat="47.19331" lon="-1.75232">
        <ele>13.6</ele>
        <time>2022-04-02T16:50:05Z</time>
      </trkpt>
      <trkpt lat="47.19335" lon="-1.75282">
        <ele>13.8</ele>
        <time>2022-04-02T16:50:12Z</time>
      </trkpt>
      <trkpt lat="47.19339" lon="-1.75351">
        <ele>14.2</ele>
        <time>2022-04-02T16:50:22Z</time>
      </trkpt>
      <trkpt lat="47.19333" lon="-1.75422">
        <ele>14.8</ele>
        <time>2022-04-02T16:50:32Z</time>
      </trkpt>
      <trkpt lat="47.19328" lon="-1.75469">
        <ele>15.2</ele>
        <time>2022-04-02T16:50:39Z</time>
      </trkpt>
      <trkpt lat="47.19321" lon="-1.75529">
        <ele>15.8</ele>
        <time>2022-04-02T16:50:48Z</time>
      </trkpt>
      <trkpt lat="47.19321" lon="-1.75555">
        <ele>16</ele>
        <time>2022-04-02T16:50:52Z</time>
      </trkpt>
      <trkpt lat="47.19323" lon="-1.75567">
        <ele>16</ele>
        <time>2022-04-02T16:50:54Z</time>
      </trkpt>
      <trkpt lat="47.1933" lon="-1.75576">
        <ele>16.2</ele>
        <time>2022-04-02T16:50:56Z</time>
      </trkpt>
      <trkpt lat="47.19334" lon="-1.75579">
        <ele>16.2</ele>
        <time>2022-04-02T16:50:57Z</time>
      </trkpt>
      <trkpt lat="47.19339" lon="-1.75581">
        <ele>16.2</ele>
        <time>2022-04-02T16:50:58Z</time>
      </trkpt>
      <trkpt lat="47.19359" lon="-1.75593">
        <ele>16.4</ele>
        <time>2022-04-02T16:51:03Z</time>
      </trkpt>
      <trkpt lat="47.19371" lon="-1.75601">
        <ele>16.4</ele>
        <time>2022-04-02T16:51:06Z</time>
      </trkpt>
      <trkpt lat="47.19384" lon="-1.75607">
        <ele>16.4</ele>
        <time>2022-04-02T16:51:09Z</time>
      </trkpt>
      <trkpt lat="47.1941" lon="-1.75617">
        <ele>16.6</ele>
        <time>2022-04-02T16:51:15Z</time>
      </trkpt>
      <trkpt lat="47.19419" lon="-1.75619">
        <ele>16.8</ele>
        <time>2022-04-02T16:51:17Z</time>
      </trkpt>
      <trkpt lat="47.19423" lon="-1.75621">
        <ele>16.8</ele>
        <time>2022-04-02T16:51:18Z</time>
      </trkpt>
      <trkpt lat="47.19449" lon="-1.75632">
        <ele>17.2</ele>
        <time>2022-04-02T16:51:24Z</time>
      </trkpt>
      <trkpt lat="47.1947" lon="-1.75644">
        <ele>17.2</ele>
        <time>2022-04-02T16:51:29Z</time>
      </trkpt>
      <trkpt lat="47.19499" lon="-1.75657">
        <ele>17</ele>
        <time>2022-04-02T16:51:35Z</time>
      </trkpt>
      <trkpt lat="47.19514" lon="-1.75661">
        <ele>17</ele>
        <time>2022-04-02T16:51:38Z</time>
      </trkpt>
      <trkpt lat="47.19519" lon="-1.75663">
        <ele>17</ele>
        <time>2022-04-02T16:51:39Z</time>
      </trkpt>
      <trkpt lat="47.19542" lon="-1.75676">
        <ele>17</ele>
        <time>2022-04-02T16:51:44Z</time>
      </trkpt>
      <trkpt lat="47.19547" lon="-1.75679">
        <ele>16.8</ele>
        <time>2022-04-02T16:51:45Z</time>
      </trkpt>
      <trkpt lat="47.19558" lon="-1.75684">
        <ele>16.8</ele>
        <time>2022-04-02T16:51:47Z</time>
      </trkpt>
      <trkpt lat="47.19577" lon="-1.757">
        <ele>16.8</ele>
        <time>2022-04-02T16:51:51Z</time>
      </trkpt>
      <trkpt lat="47.19611" lon="-1.75732">
        <ele>16.8</ele>
        <time>2022-04-02T16:51:58Z</time>
      </trkpt>
      <trkpt lat="47.19636" lon="-1.75751">
        <ele>16.6</ele>
        <time>2022-04-02T16:52:03Z</time>
      </trkpt>
      <trkpt lat="47.19669" lon="-1.75779">
        <ele>16.4</ele>
        <time>2022-04-02T16:52:10Z</time>
      </trkpt>
      <trkpt lat="47.19673" lon="-1.75784">
        <ele>16.4</ele>
        <time>2022-04-02T16:52:11Z</time>
      </trkpt>
      <trkpt lat="47.19702" lon="-1.75823">
        <ele>16</ele>
        <time>2022-04-02T16:52:19Z</time>
      </trkpt>
      <trkpt lat="47.19706" lon="-1.7583">
        <ele>16</ele>
        <time>2022-04-02T16:52:21Z</time>
      </trkpt>
      <trkpt lat="47.1971" lon="-1.75841">
        <ele>16.2</ele>
        <time>2022-04-02T16:52:23Z</time>
      </trkpt>
      <trkpt lat="47.19712" lon="-1.75846">
        <ele>16.2</ele>
        <time>2022-04-02T16:52:24Z</time>
      </trkpt>
      <trkpt lat="47.19726" lon="-1.75868">
        <ele>16.2</ele>
        <time>2022-04-02T16:52:28Z</time>
      </trkpt>
      <trkpt lat="47.19752" lon="-1.75907">
        <ele>16</ele>
        <time>2022-04-02T16:52:35Z</time>
      </trkpt>
      <trkpt lat="47.19766" lon="-1.75925">
        <ele>15.8</ele>
        <time>2022-04-02T16:52:38Z</time>
      </trkpt>
      <trkpt lat="47.19771" lon="-1.75929">
        <ele>15.8</ele>
        <time>2022-04-02T16:52:39Z</time>
      </trkpt>
      <trkpt lat="47.19781" lon="-1.75938">
        <ele>15.6</ele>
        <time>2022-04-02T16:52:41Z</time>
      </trkpt>
      <trkpt lat="47.19815" lon="-1.75958">
        <ele>15.2</ele>
        <time>2022-04-02T16:52:47Z</time>
      </trkpt>
      <trkpt lat="47.19854" lon="-1.75979">
        <ele>14.8</ele>
        <time>2022-04-02T16:52:53Z</time>
      </trkpt>
      <trkpt lat="47.19902" lon="-1.75995">
        <ele>14.4</ele>
        <time>2022-04-02T16:53:00Z</time>
      </trkpt>
      <trkpt lat="47.19915" lon="-1.75996">
        <ele>14.2</ele>
        <time>2022-04-02T16:53:02Z</time>
      </trkpt>
      <trkpt lat="47.19935" lon="-1.75992">
        <ele>13.8</ele>
        <time>2022-04-02T16:53:05Z</time>
      </trkpt>
      <trkpt lat="47.19972" lon="-1.75984">
        <ele>13.4</ele>
        <time>2022-04-02T16:53:11Z</time>
      </trkpt>
    </trkseg>
  </trk>
</gpx>